<?xml version='1.0' encoding='UTF-8'?><gpx version="1.1" creator="JPX - https://github.com/jenetics/jpx" xmlns="http://www.topografix.com/GPX/1/1"><trk><trkseg><trkpt lat="45.055276626527935" lon="9.499632273105307"><ele>68.0</ele><time>2026-05-01T08:54:54Z</time></trkpt><trkpt lat="45.055238009665224" lon="9.499714127155505"><ele>68.0</ele><time>2026-05-01T08:55:02Z</time></trkpt><trkpt lat="45.05528597788686" lon="9.499642511214779"><ele>68.0</ele><time>2026-05-01T08:57:47Z</time></trkpt><trkpt lat="45.05535668552776" lon="9.499648710464927"><ele>68.0</ele><time>2026-05-01T08:58:15Z</time></trkpt></trkseg><trkseg><trkpt lat="45.05524919340529" lon="9.499711754444114"><ele>68.0</ele><time>2026-05-01T09:09:38.442Z</time></trkpt><trkpt lat="45.05523151073147" lon="9.499802832424816"><ele>68.0</ele><time>2026-05-01T09:13:15Z</time></trkpt><trkpt lat="45.05530081990022" lon="9.499781499768032"><ele>68.0</ele><time>2026-05-01T09:13:18Z</time></trkpt><trkpt lat="45.055259360560314" lon="9.499682201133213"><ele>68.0</ele><time>2026-05-01T09:13:31Z</time></trkpt><trkpt lat="45.05522756615423" lon="9.499599720939933"><ele>68.0</ele><time>2026-05-01T09:13:37Z</time></trkpt><trkpt lat="45.0552127053832" lon="9.499511032311831"><ele>68.0</ele><time>2026-05-01T09:13:43Z</time></trkpt><trkpt lat="45.055183372806" lon="9.499343318762278"><ele>68.0</ele><time>2026-05-01T09:13:45Z</time></trkpt><trkpt lat="45.05516102760341" lon="9.499245706564897"><ele>68.0</ele><time>2026-05-01T09:13:46Z</time></trkpt><trkpt lat="45.05515349553131" lon="9.499127809814123"><ele>68.0</ele><time>2026-05-01T09:13:47Z</time></trkpt><trkpt lat="45.05515297731992" lon="9.49896393037953"><ele>68.0</ele><time>2026-05-01T09:13:48Z</time></trkpt><trkpt lat="45.05514825643473" lon="9.498784614475307"><ele>68.0</ele><time>2026-05-01T09:13:49Z</time></trkpt><trkpt lat="45.0551377163928" lon="9.498599822764552"><ele>67.75</ele><time>2026-05-01T09:13:50Z</time></trkpt><trkpt lat="45.05512898661512" lon="9.498405002546102"><ele>67.5</ele><time>2026-05-01T09:13:51Z</time></trkpt><trkpt lat="45.05511828716594" lon="9.498197508126244"><ele>67.25</ele><time>2026-05-01T09:13:52Z</time></trkpt><trkpt lat="45.05510935495694" lon="9.49799000729866"><ele>67.0</ele><time>2026-05-01T09:13:53Z</time></trkpt><trkpt lat="45.05509931139662" lon="9.497777800423911"><ele>66.66666666666666</ele><time>2026-05-01T09:13:54Z</time></trkpt><trkpt lat="45.0550892205164" lon="9.497557218206802"><ele>66.33333333333333</ele><time>2026-05-01T09:13:55Z</time></trkpt><trkpt lat="45.05508011269364" lon="9.497326416966922"><ele>66.0</ele><time>2026-05-01T09:13:56Z</time></trkpt><trkpt lat="45.055069650737586" lon="9.497089121709768"><ele>66.0</ele><time>2026-05-01T09:13:57Z</time></trkpt><trkpt lat="45.05505637613231" lon="9.49684898785581"><ele>66.0</ele><time>2026-05-01T09:13:58Z</time></trkpt><trkpt lat="45.05504518296377" lon="9.496605374454154"><ele>66.0</ele><time>2026-05-01T09:13:59Z</time></trkpt><trkpt lat="45.05503502300292" lon="9.496362783775519"><ele>66.0</ele><time>2026-05-01T09:14:00Z</time></trkpt><trkpt lat="45.05502232552206" lon="9.49611779747204"><ele>66.0</ele><time>2026-05-01T09:14:01Z</time></trkpt><trkpt lat="45.055007772353" lon="9.495874517507024"><ele>66.0</ele><time>2026-05-01T09:14:02Z</time></trkpt><trkpt lat="45.054990583861" lon="9.495633952883026"><ele>66.33333333333333</ele><time>2026-05-01T09:14:03Z</time></trkpt><trkpt lat="45.0549766518465" lon="9.49539615339877"><ele>66.66666666666666</ele><time>2026-05-01T09:14:04Z</time></trkpt><trkpt lat="45.054960500176335" lon="9.495161472081572"><ele>67.0</ele><time>2026-05-01T09:14:05Z</time></trkpt><trkpt lat="45.05494892665155" lon="9.494930429734731"><ele>67.0</ele><time>2026-05-01T09:14:06Z</time></trkpt><trkpt lat="45.054938404167736" lon="9.49471150956725"><ele>67.0</ele><time>2026-05-01T09:14:07Z</time></trkpt><trkpt lat="45.054924910731955" lon="9.494506638927264"><ele>67.0</ele><time>2026-05-01T09:14:08Z</time></trkpt><trkpt lat="45.054917054960875" lon="9.494308565373306"><ele>67.0</ele><time>2026-05-01T09:14:09Z</time></trkpt><trkpt lat="45.05490930406924" lon="9.494112781752998"><ele>67.0</ele><time>2026-05-01T09:14:10Z</time></trkpt><trkpt lat="45.054899712920495" lon="9.493925861109537"><ele>67.0</ele><time>2026-05-01T09:14:11Z</time></trkpt><trkpt lat="45.0548906194371" lon="9.49374262624763"><ele>67.0</ele><time>2026-05-01T09:14:12Z</time></trkpt><trkpt lat="45.05488187588993" lon="9.49356440154278"><ele>67.0</ele><time>2026-05-01T09:14:13Z</time></trkpt><trkpt lat="45.054872180597485" lon="9.493383827535604"><ele>67.0</ele><time>2026-05-01T09:14:14Z</time></trkpt><trkpt lat="45.05486155326377" lon="9.49320144878039"><ele>67.0</ele><time>2026-05-01T09:14:15Z</time></trkpt><trkpt lat="45.05485424879847" lon="9.493019272006157"><ele>67.0</ele><time>2026-05-01T09:14:16Z</time></trkpt><trkpt lat="45.05484707858869" lon="9.49283895950532"><ele>67.0</ele><time>2026-05-01T09:14:17Z</time></trkpt><trkpt lat="45.05483771636786" lon="9.492663345626545"><ele>67.0</ele><time>2026-05-01T09:14:18Z</time></trkpt><trkpt lat="45.05482766722885" lon="9.492490991532652"><ele>67.0</ele><time>2026-05-01T09:14:19Z</time></trkpt><trkpt lat="45.05481957859296" lon="9.492318967893803"><ele>67.0</ele><time>2026-05-01T09:14:20Z</time></trkpt><trkpt lat="45.054813669082804" lon="9.492147884046693"><ele>67.0</ele><time>2026-05-01T09:14:21Z</time></trkpt><trkpt lat="45.05480518089555" lon="9.49197723400841"><ele>67.5</ele><time>2026-05-01T09:14:22Z</time></trkpt><trkpt lat="45.05479295840296" lon="9.491807874563293"><ele>68.0</ele><time>2026-05-01T09:14:23Z</time></trkpt><trkpt lat="45.05478299921392" lon="9.491636634528346"><ele>68.5</ele><time>2026-05-01T09:14:24Z</time></trkpt><trkpt lat="45.05477870790265" lon="9.491467213664276"><ele>69.0</ele><time>2026-05-01T09:14:25Z</time></trkpt><trkpt lat="45.05476947685451" lon="9.491291912338045"><ele>69.25</ele><time>2026-05-01T09:14:26Z</time></trkpt><trkpt lat="45.05475549605803" lon="9.491111674060434"><ele>69.5</ele><time>2026-05-01T09:14:27Z</time></trkpt><trkpt lat="45.05474259330249" lon="9.490931126642504"><ele>69.75</ele><time>2026-05-01T09:14:28Z</time></trkpt><trkpt lat="45.05473465985401" lon="9.490759251945397"><ele>70.0</ele><time>2026-05-01T09:14:29Z</time></trkpt><trkpt lat="45.054730333424764" lon="9.49059138376605"><ele>70.0</ele><time>2026-05-01T09:14:30Z</time></trkpt><trkpt lat="45.054725381352306" lon="9.490432830039488"><ele>70.0</ele><time>2026-05-01T09:14:31Z</time></trkpt><trkpt lat="45.054723131855404" lon="9.49028803717403"><ele>70.0</ele><time>2026-05-01T09:14:32Z</time></trkpt><trkpt lat="45.054725391760535" lon="9.490159118196873"><ele>70.0</ele><time>2026-05-01T09:14:33Z</time></trkpt><trkpt lat="45.054730090237825" lon="9.490016692447663"><ele>70.0</ele><time>2026-05-01T09:14:34Z</time></trkpt><trkpt lat="45.05473929396834" lon="9.489862774205788"><ele>70.0</ele><time>2026-05-01T09:14:35Z</time></trkpt><trkpt lat="45.05474788514958" lon="9.489698796156203"><ele>70.0</ele><time>2026-05-01T09:14:36Z</time></trkpt><trkpt lat="45.05474994263153" lon="9.489523368384377"><ele>70.0</ele><time>2026-05-01T09:14:37Z</time></trkpt><trkpt lat="45.05474086646182" lon="9.489343353712206"><ele>70.0</ele><time>2026-05-01T09:14:38Z</time></trkpt><trkpt lat="45.05472831374366" lon="9.489159862357793"><ele>70.0</ele><time>2026-05-01T09:14:39Z</time></trkpt><trkpt lat="45.05471345049763" lon="9.488971129195093"><ele>70.0</ele><time>2026-05-01T09:14:40Z</time></trkpt><trkpt lat="45.054700729086484" lon="9.488780285466966"><ele>70.0</ele><time>2026-05-01T09:14:41Z</time></trkpt><trkpt lat="45.05468442644065" lon="9.488604220172453"><ele>70.0</ele><time>2026-05-01T09:14:42Z</time></trkpt><trkpt lat="45.0546712871939" lon="9.488449754871613"><ele>70.2</ele><time>2026-05-01T09:14:43Z</time></trkpt><trkpt lat="45.05465842540112" lon="9.488312978279401"><ele>70.4</ele><time>2026-05-01T09:14:44Z</time></trkpt><trkpt lat="45.05466475289086" lon="9.488192086792571"><ele>70.6</ele><time>2026-05-01T09:14:45Z</time></trkpt><trkpt lat="45.05465884359085" lon="9.488066560043984"><ele>70.8</ele><time>2026-05-01T09:14:46Z</time></trkpt><trkpt lat="45.054637407324144" lon="9.487938761453389"><ele>71.0</ele><time>2026-05-01T09:14:47Z</time></trkpt><trkpt lat="45.054632016986865" lon="9.487816714143728"><ele>71.5</ele><time>2026-05-01T09:14:48Z</time></trkpt><trkpt lat="45.05462566719097" lon="9.487708921186586"><ele>72.0</ele><time>2026-05-01T09:14:49Z</time></trkpt><trkpt lat="45.05463794903388" lon="9.487615219528992"><ele>72.5</ele><time>2026-05-01T09:14:50Z</time></trkpt><trkpt lat="45.054631244269785" lon="9.487467180667892"><ele>73.0</ele><time>2026-05-01T09:14:52Z</time></trkpt><trkpt lat="45.05440961712807" lon="9.487448502505796"><ele>73.0</ele><time>2026-05-01T09:14:54Z</time></trkpt><trkpt lat="45.05431338376287" lon="9.487490717056144"><ele>73.0</ele><time>2026-05-01T09:14:55Z</time></trkpt><trkpt lat="45.05420295388632" lon="9.487533417774504"><ele>73.0</ele><time>2026-05-01T09:14:56Z</time></trkpt><trkpt lat="45.0540735402764" lon="9.48752973363909"><ele>73.0</ele><time>2026-05-01T09:14:57Z</time></trkpt><trkpt lat="45.05394569975552" lon="9.487540531794705"><ele>72.25</ele><time>2026-05-01T09:14:58Z</time></trkpt><trkpt lat="45.05382164883223" lon="9.487573280970775"><ele>71.5</ele><time>2026-05-01T09:14:59Z</time></trkpt><trkpt lat="45.05369523430771" lon="9.487582851135448"><ele>70.75</ele><time>2026-05-01T09:15:00Z</time></trkpt><trkpt lat="45.053571652158354" lon="9.487592826451955"><ele>70.0</ele><time>2026-05-01T09:15:01Z</time></trkpt><trkpt lat="45.053454625605404" lon="9.487602092763696"><ele>70.0</ele><time>2026-05-01T09:15:02Z</time></trkpt><trkpt lat="45.05333372298772" lon="9.487615529540658"><ele>70.0</ele><time>2026-05-01T09:15:03Z</time></trkpt><trkpt lat="45.05320758675768" lon="9.48760491037469"><ele>70.0</ele><time>2026-05-01T09:15:04Z</time></trkpt><trkpt lat="45.05307914990457" lon="9.487627400876013"><ele>70.0</ele><time>2026-05-01T09:15:05Z</time></trkpt><trkpt lat="45.052951785546206" lon="9.487629431636709"><ele>70.5</ele><time>2026-05-01T09:15:06Z</time></trkpt><trkpt lat="45.052826653386546" lon="9.487623420216192"><ele>71.0</ele><time>2026-05-01T09:15:07Z</time></trkpt><trkpt lat="45.05270132294127" lon="9.487615395799873"><ele>71.5</ele><time>2026-05-01T09:15:08Z</time></trkpt><trkpt lat="45.05257324512583" lon="9.487603232186002"><ele>72.0</ele><time>2026-05-01T09:15:09Z</time></trkpt><trkpt lat="45.052440073799296" lon="9.487586546089453"><ele>72.0</ele><time>2026-05-01T09:15:10Z</time></trkpt><trkpt lat="45.052303064658155" lon="9.487565760936132"><ele>72.0</ele><time>2026-05-01T09:15:11Z</time></trkpt><trkpt lat="45.052163990659565" lon="9.487539932107307"><ele>72.0</ele><time>2026-05-01T09:15:12Z</time></trkpt><trkpt lat="45.05202126317764" lon="9.487511004478426"><ele>72.0</ele><time>2026-05-01T09:15:13Z</time></trkpt><trkpt lat="45.05187701267353" lon="9.487474313289711"><ele>72.0</ele><time>2026-05-01T09:15:14Z</time></trkpt><trkpt lat="45.051733528757275" lon="9.487432022720443"><ele>72.0</ele><time>2026-05-01T09:15:15Z</time></trkpt><trkpt lat="45.051592157513376" lon="9.487389431464884"><ele>72.0</ele><time>2026-05-01T09:15:16Z</time></trkpt><trkpt lat="45.051449663251965" lon="9.487336830456993"><ele>72.0</ele><time>2026-05-01T09:15:17Z</time></trkpt><trkpt lat="45.05130946212715" lon="9.487276483614812"><ele>72.0</ele><time>2026-05-01T09:15:18Z</time></trkpt><trkpt lat="45.0511707256746" lon="9.487211589207988"><ele>72.0</ele><time>2026-05-01T09:15:19Z</time></trkpt><trkpt lat="45.051032174128444" lon="9.48714476127209"><ele>72.0</ele><time>2026-05-01T09:15:20Z</time></trkpt><trkpt lat="45.050894387334594" lon="9.487073860541429"><ele>72.0</ele><time>2026-05-01T09:15:21Z</time></trkpt><trkpt lat="45.05075848821994" lon="9.486999176664925"><ele>71.75</ele><time>2026-05-01T09:15:22Z</time></trkpt><trkpt lat="45.05062524687324" lon="9.486919460852771"><ele>71.5</ele><time>2026-05-01T09:15:23Z</time></trkpt><trkpt lat="45.05049438772285" lon="9.486825698203118"><ele>71.25</ele><time>2026-05-01T09:15:24Z</time></trkpt><trkpt lat="45.05036227808624" lon="9.486735716408186"><ele>71.0</ele><time>2026-05-01T09:15:25Z</time></trkpt><trkpt lat="45.05023015603639" lon="9.486637398565525"><ele>71.0</ele><time>2026-05-01T09:15:26Z</time></trkpt><trkpt lat="45.05010073874097" lon="9.486537535410763"><ele>71.0</ele><time>2026-05-01T09:15:27Z</time></trkpt><trkpt lat="45.04996769066163" lon="9.486437400987597"><ele>71.0</ele><time>2026-05-01T09:15:28Z</time></trkpt><trkpt lat="45.04983525569727" lon="9.486335420641293"><ele>71.0</ele><time>2026-05-01T09:15:29Z</time></trkpt><trkpt lat="45.049700326321336" lon="9.486231115778144"><ele>71.33333333333334</ele><time>2026-05-01T09:15:30Z</time></trkpt><trkpt lat="45.04956374247153" lon="9.486128598347394"><ele>71.66666666666667</ele><time>2026-05-01T09:15:31Z</time></trkpt><trkpt lat="45.04942627714576" lon="9.486027995099052"><ele>72.0</ele><time>2026-05-01T09:15:32Z</time></trkpt><trkpt lat="45.04928835771212" lon="9.485921838962321"><ele>72.0</ele><time>2026-05-01T09:15:33Z</time></trkpt><trkpt lat="45.04914895544415" lon="9.485814938680354"><ele>72.0</ele><time>2026-05-01T09:15:34Z</time></trkpt><trkpt lat="45.0490125329801" lon="9.485713179859705"><ele>72.0</ele><time>2026-05-01T09:15:35Z</time></trkpt><trkpt lat="45.048874956342424" lon="9.485611623764921"><ele>71.66666666666667</ele><time>2026-05-01T09:15:36Z</time></trkpt><trkpt lat="45.04873784122862" lon="9.485511574555474"><ele>71.33333333333334</ele><time>2026-05-01T09:15:37Z</time></trkpt><trkpt lat="45.04860684516616" lon="9.485410960540953"><ele>71.0</ele><time>2026-05-01T09:15:38Z</time></trkpt><trkpt lat="45.04847834168779" lon="9.485307846554235"><ele>71.66666666666667</ele><time>2026-05-01T09:15:39Z</time></trkpt><trkpt lat="45.048346648688224" lon="9.48520296323434"><ele>72.33333333333333</ele><time>2026-05-01T09:15:40Z</time></trkpt><trkpt lat="45.048216245467856" lon="9.48509576999844"><ele>73.0</ele><time>2026-05-01T09:15:41Z</time></trkpt><trkpt lat="45.04808474824412" lon="9.484991168699917"><ele>73.0</ele><time>2026-05-01T09:15:42Z</time></trkpt><trkpt lat="45.04795329489057" lon="9.48488685394744"><ele>73.0</ele><time>2026-05-01T09:15:43Z</time></trkpt><trkpt lat="45.047821374468995" lon="9.484783431567617"><ele>73.0</ele><time>2026-05-01T09:15:44Z</time></trkpt><trkpt lat="45.04768810971691" lon="9.48467734291838"><ele>73.66666666666666</ele><time>2026-05-01T09:15:45Z</time></trkpt><trkpt lat="45.047554992566866" lon="9.484558353375578"><ele>74.33333333333333</ele><time>2026-05-01T09:15:46Z</time></trkpt><trkpt lat="45.0474134717859" lon="9.484446057954104"><ele>75.0</ele><time>2026-05-01T09:15:47Z</time></trkpt><trkpt lat="45.04727407682693" lon="9.484335614898447"><ele>75.0</ele><time>2026-05-01T09:15:48Z</time></trkpt><trkpt lat="45.047129920132456" lon="9.484219484656872"><ele>75.0</ele><time>2026-05-01T09:15:49Z</time></trkpt><trkpt lat="45.0469881104151" lon="9.484104681810475"><ele>75.0</ele><time>2026-05-01T09:15:50Z</time></trkpt><trkpt lat="45.04684427251695" lon="9.483990511843206"><ele>75.0</ele><time>2026-05-01T09:15:51Z</time></trkpt><trkpt lat="45.04669880527387" lon="9.48387785003257"><ele>75.0</ele><time>2026-05-01T09:15:52Z</time></trkpt><trkpt lat="45.046553631799306" lon="9.483763935071963"><ele>75.0</ele><time>2026-05-01T09:15:53Z</time></trkpt><trkpt lat="45.046409342789346" lon="9.483645701043464"><ele>74.66666666666667</ele><time>2026-05-01T09:15:54Z</time></trkpt><trkpt lat="45.0462656386648" lon="9.483530676637347"><ele>74.33333333333334</ele><time>2026-05-01T09:15:55Z</time></trkpt><trkpt lat="45.04611870350701" lon="9.483418364435229"><ele>74.0</ele><time>2026-05-01T09:15:56Z</time></trkpt><trkpt lat="45.04597396494162" lon="9.48330037408877"><ele>74.0</ele><time>2026-05-01T09:15:57Z</time></trkpt><trkpt lat="45.04583284525422" lon="9.48318123407488"><ele>74.0</ele><time>2026-05-01T09:15:58Z</time></trkpt><trkpt lat="45.04568900271695" lon="9.483064587160936"><ele>74.0</ele><time>2026-05-01T09:15:59Z</time></trkpt><trkpt lat="45.04554152573656" lon="9.482944623220867"><ele>74.66666666666667</ele><time>2026-05-01T09:16:00Z</time></trkpt><trkpt lat="45.04539255029297" lon="9.482822098929338"><ele>75.33333333333333</ele><time>2026-05-01T09:16:01Z</time></trkpt><trkpt lat="45.045243667378934" lon="9.482685863786962"><ele>76.0</ele><time>2026-05-01T09:16:02Z</time></trkpt><trkpt lat="45.045091573296865" lon="9.482541228637286"><ele>76.0</ele><time>2026-05-01T09:16:03Z</time></trkpt><trkpt lat="45.04493419765334" lon="9.482390090642719"><ele>76.0</ele><time>2026-05-01T09:16:04Z</time></trkpt><trkpt lat="45.044749687040344" lon="9.482318600474057"><ele>76.0</ele><time>2026-05-01T09:16:05Z</time></trkpt><trkpt lat="45.044576317802175" lon="9.482190432739975"><ele>76.0</ele><time>2026-05-01T09:16:06Z</time></trkpt><trkpt lat="45.044397524960424" lon="9.482056363491173"><ele>76.0</ele><time>2026-05-01T09:16:07Z</time></trkpt><trkpt lat="45.04422571784909" lon="9.481923627208328"><ele>76.0</ele><time>2026-05-01T09:16:08Z</time></trkpt><trkpt lat="45.04404887940967" lon="9.48180080818483"><ele>76.0</ele><time>2026-05-01T09:16:09Z</time></trkpt><trkpt lat="45.043869326812356" lon="9.481680305698076"><ele>76.0</ele><time>2026-05-01T09:16:10Z</time></trkpt><trkpt lat="45.04367725982206" lon="9.481518345611585"><ele>76.0</ele><time>2026-05-01T09:16:11Z</time></trkpt><trkpt lat="45.043495416296736" lon="9.481392475869173"><ele>76.0</ele><time>2026-05-01T09:16:12Z</time></trkpt><trkpt lat="45.043322252760454" lon="9.481263862784576"><ele>76.0</ele><time>2026-05-01T09:16:13Z</time></trkpt><trkpt lat="45.04315584792335" lon="9.481144880875577"><ele>76.0</ele><time>2026-05-01T09:16:14Z</time></trkpt><trkpt lat="45.042990447208105" lon="9.481022732151555"><ele>76.0</ele><time>2026-05-01T09:16:15Z</time></trkpt><trkpt lat="45.0428261187852" lon="9.480900742043275"><ele>76.0</ele><time>2026-05-01T09:16:16Z</time></trkpt><trkpt lat="45.04266093689955" lon="9.480778973993578"><ele>76.0</ele><time>2026-05-01T09:16:17Z</time></trkpt><trkpt lat="45.042494249024195" lon="9.480655547934164"><ele>76.33333333333333</ele><time>2026-05-01T09:16:18.001Z</time></trkpt><trkpt lat="45.04232668903108" lon="9.480532476338098"><ele>76.66666666666667</ele><time>2026-05-01T09:16:19Z</time></trkpt><trkpt lat="45.04216183004104" lon="9.48041702153292"><ele>77.0</ele><time>2026-05-01T09:16:20Z</time></trkpt><trkpt lat="45.041986174688276" lon="9.480306271867304"><ele>77.0</ele><time>2026-05-01T09:16:21Z</time></trkpt><trkpt lat="45.04181467824721" lon="9.480154713023525"><ele>77.0</ele><time>2026-05-01T09:16:22Z</time></trkpt><trkpt lat="45.041627887349705" lon="9.480036890546637"><ele>77.0</ele><time>2026-05-01T09:16:23Z</time></trkpt><trkpt lat="45.04147351102487" lon="9.479905161755015"><ele>77.66666666666667</ele><time>2026-05-01T09:16:24Z</time></trkpt><trkpt lat="45.041303162759256" lon="9.47978359688971"><ele>78.33333333333333</ele><time>2026-05-01T09:16:25Z</time></trkpt><trkpt lat="45.041134696720995" lon="9.47969000083115"><ele>79.0</ele><time>2026-05-01T09:16:26Z</time></trkpt><trkpt lat="45.040988576537195" lon="9.47959155027428"><ele>79.0</ele><time>2026-05-01T09:16:27Z</time></trkpt><trkpt lat="45.04085015385502" lon="9.479507618250963"><ele>79.0</ele><time>2026-05-01T09:16:28Z</time></trkpt><trkpt lat="45.040713299017256" lon="9.47941488768884"><ele>79.0</ele><time>2026-05-01T09:16:29Z</time></trkpt><trkpt lat="45.040563630466224" lon="9.479328421886498"><ele>80.33333333333333</ele><time>2026-05-01T09:16:30Z</time></trkpt><trkpt lat="45.040409820492094" lon="9.479261091957921"><ele>81.66666666666667</ele><time>2026-05-01T09:16:31Z</time></trkpt><trkpt lat="45.040250828073525" lon="9.479162347232403"><ele>83.0</ele><time>2026-05-01T09:16:32Z</time></trkpt><trkpt lat="45.04006449576355" lon="9.47906369374464"><ele>83.0</ele><time>2026-05-01T09:16:33Z</time></trkpt><trkpt lat="45.03985505167" lon="9.478952657502758"><ele>83.0</ele><time>2026-05-01T09:16:34Z</time></trkpt><trkpt lat="45.039627584634445" lon="9.47883342384149"><ele>82.5</ele><time>2026-05-01T09:16:35Z</time></trkpt><trkpt lat="45.03937779250144" lon="9.47873658085588"><ele>82.0</ele><time>2026-05-01T09:16:36Z</time></trkpt><trkpt lat="45.039141984482285" lon="9.47861870467213"><ele>81.0</ele><time>2026-05-01T09:16:37Z</time></trkpt><trkpt lat="45.03891974670707" lon="9.478516278235883"><ele>80.0</ele><time>2026-05-01T09:16:38Z</time></trkpt><trkpt lat="45.038701415203576" lon="9.478417207173823"><ele>80.0</ele><time>2026-05-01T09:16:39Z</time></trkpt><trkpt lat="45.03849875433055" lon="9.478323745873066"><ele>80.0</ele><time>2026-05-01T09:16:40Z</time></trkpt><trkpt lat="45.038314162578246" lon="9.47824198624101"><ele>80.0</ele><time>2026-05-01T09:16:41Z</time></trkpt><trkpt lat="45.03814901209557" lon="9.47814607794495"><ele>80.0</ele><time>2026-05-01T09:16:42Z</time></trkpt><trkpt lat="45.037979530402374" lon="9.478079724610732"><ele>80.0</ele><time>2026-05-01T09:16:43Z</time></trkpt><trkpt lat="45.0378213967205" lon="9.477933355954324"><ele>80.0</ele><time>2026-05-01T09:16:44Z</time></trkpt><trkpt lat="45.03767693794502" lon="9.477765634857683"><ele>80.33333333333334</ele><time>2026-05-01T09:16:45Z</time></trkpt><trkpt lat="45.037535661665075" lon="9.477574431360166"><ele>80.66666666666667</ele><time>2026-05-01T09:16:46Z</time></trkpt><trkpt lat="45.03737876867525" lon="9.477379696157994"><ele>81.0</ele><time>2026-05-01T09:16:47Z</time></trkpt><trkpt lat="45.0372188456653" lon="9.477137923924904"><ele>81.0</ele><time>2026-05-01T09:16:48Z</time></trkpt><trkpt lat="45.03704703124811" lon="9.476901501642805"><ele>81.0</ele><time>2026-05-01T09:16:49Z</time></trkpt><trkpt lat="45.03688018386719" lon="9.476668069515043"><ele>81.0</ele><time>2026-05-01T09:16:50Z</time></trkpt><trkpt lat="45.03671412319435" lon="9.476424251440356"><ele>81.0</ele><time>2026-05-01T09:16:51Z</time></trkpt><trkpt lat="45.036535114501376" lon="9.476163408444046"><ele>82.0</ele><time>2026-05-01T09:16:52Z</time></trkpt><trkpt lat="45.03636849078492" lon="9.47593060445631"><ele>83.0</ele><time>2026-05-01T09:16:53Z</time></trkpt><trkpt lat="45.036216902831285" lon="9.475716863496853"><ele>84.0</ele><time>2026-05-01T09:16:54Z</time></trkpt><trkpt lat="45.03608032238359" lon="9.475519767866615"><ele>84.0</ele><time>2026-05-01T09:16:55Z</time></trkpt><trkpt lat="45.035942757901445" lon="9.475329404069331"><ele>84.0</ele><time>2026-05-01T09:16:56Z</time></trkpt><trkpt lat="45.03579972541198" lon="9.475134693799104"><ele>84.0</ele><time>2026-05-01T09:16:57Z</time></trkpt><trkpt lat="45.03565016560293" lon="9.474941594765372"><ele>84.0</ele><time>2026-05-01T09:16:58Z</time></trkpt><trkpt lat="45.03550689876563" lon="9.474769424487615"><ele>84.0</ele><time>2026-05-01T09:16:59Z</time></trkpt><trkpt lat="45.03538355696016" lon="9.474631616167052"><ele>84.0</ele><time>2026-05-01T09:17:00Z</time></trkpt><trkpt lat="45.03527398522382" lon="9.474521985997281"><ele>84.2</ele><time>2026-05-01T09:17:01Z</time></trkpt><trkpt lat="45.03517393527091" lon="9.474420827628045"><ele>84.4</ele><time>2026-05-01T09:17:02Z</time></trkpt><trkpt lat="45.03508563601206" lon="9.474341116864508"><ele>84.6</ele><time>2026-05-01T09:17:03Z</time></trkpt><trkpt lat="45.03501311943767" lon="9.474272937774593"><ele>84.8</ele><time>2026-05-01T09:17:04Z</time></trkpt><trkpt lat="45.03494677708195" lon="9.474216680865384"><ele>85.0</ele><time>2026-05-01T09:17:05Z</time></trkpt><trkpt lat="45.03488518977314" lon="9.474165280336395"><ele>85.25</ele><time>2026-05-01T09:17:06Z</time></trkpt><trkpt lat="45.034832572533816" lon="9.474116105526702"><ele>85.5</ele><time>2026-05-01T09:17:08Z</time></trkpt><trkpt lat="45.03473467703303" lon="9.47433868621633"><ele>85.75</ele><time>2026-05-01T09:17:09Z</time></trkpt><trkpt lat="45.034712806454046" lon="9.474470548362735"><ele>86.0</ele><time>2026-05-01T09:17:10Z</time></trkpt><trkpt lat="45.03469807356819" lon="9.474646392738414"><ele>85.33333333333334</ele><time>2026-05-01T09:17:11Z</time></trkpt><trkpt lat="45.03467958864979" lon="9.474893311455801"><ele>84.66666666666667</ele><time>2026-05-01T09:17:12Z</time></trkpt><trkpt lat="45.03466162322947" lon="9.47512636472921"><ele>84.0</ele><time>2026-05-01T09:17:13Z</time></trkpt><trkpt lat="45.03465565197868" lon="9.47535697516845"><ele>83.66666666666667</ele><time>2026-05-01T09:17:14Z</time></trkpt><trkpt lat="45.03463063665397" lon="9.475621553112573"><ele>83.33333333333334</ele><time>2026-05-01T09:17:15Z</time></trkpt><trkpt lat="45.03460243852" lon="9.475868075383662"><ele>83.0</ele><time>2026-05-01T09:17:16Z</time></trkpt><trkpt lat="45.03458466805327" lon="9.47612397526489"><ele>83.0</ele><time>2026-05-01T09:17:17Z</time></trkpt><trkpt lat="45.03456695669949" lon="9.476379023900238"><ele>83.0</ele><time>2026-05-01T09:17:18Z</time></trkpt><trkpt lat="45.03454986239193" lon="9.476629461852633"><ele>83.0</ele><time>2026-05-01T09:17:19Z</time></trkpt><trkpt lat="45.034532612401485" lon="9.476885264769725"><ele>82.66666666666667</ele><time>2026-05-01T09:17:20Z</time></trkpt><trkpt lat="45.03451521786693" lon="9.477143211127613"><ele>82.33333333333333</ele><time>2026-05-01T09:17:21Z</time></trkpt><trkpt lat="45.034498252413265" lon="9.477394794265868"><ele>82.0</ele><time>2026-05-01T09:17:22Z</time></trkpt><trkpt lat="45.0344812953113" lon="9.477646254842774"><ele>82.0</ele><time>2026-05-01T09:17:23Z</time></trkpt><trkpt lat="45.03446488456069" lon="9.477890296003157"><ele>82.0</ele><time>2026-05-01T09:17:24Z</time></trkpt><trkpt lat="45.03444865037114" lon="9.478134688128682"><ele>82.0</ele><time>2026-05-01T09:17:25Z</time></trkpt><trkpt lat="45.03443215443801" lon="9.478383954983354"><ele>82.0</ele><time>2026-05-01T09:17:26Z</time></trkpt><trkpt lat="45.03441696318042" lon="9.478633995044001"><ele>82.0</ele><time>2026-05-01T09:17:27Z</time></trkpt><trkpt lat="45.03440172327134" lon="9.478884835307827"><ele>82.0</ele><time>2026-05-01T09:17:28Z</time></trkpt><trkpt lat="45.03438527035584" lon="9.479143300814474"><ele>82.0</ele><time>2026-05-01T09:17:29Z</time></trkpt><trkpt lat="45.03435993844576" lon="9.479400462031217"><ele>82.0</ele><time>2026-05-01T09:17:30Z</time></trkpt><trkpt lat="45.03433381410893" lon="9.479656759941273"><ele>82.0</ele><time>2026-05-01T09:17:31Z</time></trkpt><trkpt lat="45.03431047240198" lon="9.47991599656116"><ele>82.0</ele><time>2026-05-01T09:17:32Z</time></trkpt><trkpt lat="45.03429269072396" lon="9.480177662655926"><ele>82.0</ele><time>2026-05-01T09:17:33Z</time></trkpt><trkpt lat="45.03427666670137" lon="9.48044124212297"><ele>82.0</ele><time>2026-05-01T09:17:34Z</time></trkpt><trkpt lat="45.03425994194066" lon="9.480706872113224"><ele>81.66666666666666</ele><time>2026-05-01T09:17:35Z</time></trkpt><trkpt lat="45.034242880440836" lon="9.48097770373166"><ele>81.33333333333333</ele><time>2026-05-01T09:17:36Z</time></trkpt><trkpt lat="45.03422578462181" lon="9.481249951966397"><ele>81.0</ele><time>2026-05-01T09:17:37Z</time></trkpt><trkpt lat="45.03420837296318" lon="9.481523607669686"><ele>81.0</ele><time>2026-05-01T09:17:38Z</time></trkpt><trkpt lat="45.03419102689211" lon="9.481796232084672"><ele>81.0</ele><time>2026-05-01T09:17:39Z</time></trkpt><trkpt lat="45.03417397092762" lon="9.4820672453755"><ele>81.0</ele><time>2026-05-01T09:17:40Z</time></trkpt><trkpt lat="45.0341582356505" lon="9.482326614517207"><ele>81.0</ele><time>2026-05-01T09:17:41Z</time></trkpt><trkpt lat="45.034142328224256" lon="9.482588821231582"><ele>81.0</ele><time>2026-05-01T09:17:42Z</time></trkpt><trkpt lat="45.03412561033284" lon="9.482845306693026"><ele>81.0</ele><time>2026-05-01T09:17:43Z</time></trkpt><trkpt lat="45.03412635318749" lon="9.483080636710628"><ele>81.33333333333333</ele><time>2026-05-01T09:17:44Z</time></trkpt><trkpt lat="45.03410983928704" lon="9.48329919704725"><ele>81.66666666666666</ele><time>2026-05-01T09:17:45Z</time></trkpt><trkpt lat="45.03409397627498" lon="9.483521858111397"><ele>82.0</ele><time>2026-05-01T09:17:46Z</time></trkpt><trkpt lat="45.03407903329796" lon="9.48374111917665"><ele>82.0</ele><time>2026-05-01T09:17:47Z</time></trkpt><trkpt lat="45.0340648143299" lon="9.483955457916158"><ele>82.0</ele><time>2026-05-01T09:17:48Z</time></trkpt><trkpt lat="45.034051582841634" lon="9.484159222610199"><ele>82.0</ele><time>2026-05-01T09:17:49Z</time></trkpt><trkpt lat="45.03403784963735" lon="9.484367188403043"><ele>82.0</ele><time>2026-05-01T09:17:50Z</time></trkpt><trkpt lat="45.03402595820535" lon="9.48456399141966"><ele>81.75</ele><time>2026-05-01T09:17:51Z</time></trkpt><trkpt lat="45.034012296482466" lon="9.484756785794005"><ele>81.5</ele><time>2026-05-01T09:17:52Z</time></trkpt><trkpt lat="45.033998064442294" lon="9.48495292294576"><ele>81.25</ele><time>2026-05-01T09:17:53Z</time></trkpt><trkpt lat="45.03398400107824" lon="9.485146718252793"><ele>81.0</ele><time>2026-05-01T09:17:54Z</time></trkpt><trkpt lat="45.0339705999951" lon="9.485330438638975"><ele>81.19999999999999</ele><time>2026-05-01T09:17:55Z</time></trkpt><trkpt lat="45.033959767557654" lon="9.485498571211602"><ele>81.39999999999999</ele><time>2026-05-01T09:17:56Z</time></trkpt><trkpt lat="45.033947540393164" lon="9.485652862635325"><ele>81.6</ele><time>2026-05-01T09:17:57Z</time></trkpt><trkpt lat="45.03393280924061" lon="9.485784152303342"><ele>81.8</ele><time>2026-05-01T09:17:58Z</time></trkpt><trkpt lat="45.03391254819131" lon="9.485894132378244"><ele>82.0</ele><time>2026-05-01T09:17:59Z</time></trkpt><trkpt lat="45.033882052822875" lon="9.485976354951735"><ele>82.0</ele><time>2026-05-01T09:18:00Z</time></trkpt><trkpt lat="45.033854795557716" lon="9.486115869537027"><ele>82.0</ele><time>2026-05-01T09:18:02Z</time></trkpt><trkpt lat="45.033668037305695" lon="9.486008478557183"><ele>82.0</ele><time>2026-05-01T09:18:03Z</time></trkpt><trkpt lat="45.03355654601401" lon="9.485978238483703"><ele>82.0</ele><time>2026-05-01T09:18:04Z</time></trkpt><trkpt lat="45.03344786617766" lon="9.485900835364031"><ele>82.0</ele><time>2026-05-01T09:18:05Z</time></trkpt><trkpt lat="45.03332406054528" lon="9.485842572378287"><ele>82.0</ele><time>2026-05-01T09:18:06Z</time></trkpt><trkpt lat="45.03319664297473" lon="9.485796288380175"><ele>82.0</ele><time>2026-05-01T09:18:07Z</time></trkpt><trkpt lat="45.033056601555266" lon="9.485736797997637"><ele>82.0</ele><time>2026-05-01T09:18:08Z</time></trkpt><trkpt lat="45.03290421201326" lon="9.485666146290699"><ele>82.33333333333333</ele><time>2026-05-01T09:18:09Z</time></trkpt><trkpt lat="45.032747645353595" lon="9.485587275510978"><ele>82.66666666666667</ele><time>2026-05-01T09:18:10Z</time></trkpt><trkpt lat="45.03258735529816" lon="9.485506677937142"><ele>83.0</ele><time>2026-05-01T09:18:11Z</time></trkpt><trkpt lat="45.03241422209538" lon="9.485427395061507"><ele>83.33333333333334</ele><time>2026-05-01T09:18:12Z</time></trkpt><trkpt lat="45.032241876281866" lon="9.485346888219166"><ele>83.66666666666667</ele><time>2026-05-01T09:18:13Z</time></trkpt><trkpt lat="45.032069414465035" lon="9.485267448750488"><ele>84.0</ele><time>2026-05-01T09:18:14Z</time></trkpt><trkpt lat="45.03189878084265" lon="9.485186666433629"><ele>84.0</ele><time>2026-05-01T09:18:15Z</time></trkpt><trkpt lat="45.03172435521243" lon="9.48510980881545"><ele>84.0</ele><time>2026-05-01T09:18:16Z</time></trkpt><trkpt lat="45.03155071169949" lon="9.485033978236567"><ele>84.0</ele><time>2026-05-01T09:18:17Z</time></trkpt><trkpt lat="45.031375764348795" lon="9.484951130869625"><ele>83.66666666666667</ele><time>2026-05-01T09:18:18Z</time></trkpt><trkpt lat="45.03119665871722" lon="9.484864638119873"><ele>83.33333333333334</ele><time>2026-05-01T09:18:19Z</time></trkpt><trkpt lat="45.03101146877668" lon="9.484777858808195"><ele>83.0</ele><time>2026-05-01T09:18:20Z</time></trkpt><trkpt lat="45.03082314554838" lon="9.48469357789266"><ele>83.33333333333334</ele><time>2026-05-01T09:18:21Z</time></trkpt><trkpt lat="45.03064111896053" lon="9.484610532219207"><ele>83.66666666666667</ele><time>2026-05-01T09:18:22Z</time></trkpt><trkpt lat="45.03045545185454" lon="9.484529258158336"><ele>84.0</ele><time>2026-05-01T09:18:23Z</time></trkpt><trkpt lat="45.030270559909084" lon="9.484422817634409"><ele>84.0</ele><time>2026-05-01T09:18:24Z</time></trkpt><trkpt lat="45.030082467958074" lon="9.484359251795825"><ele>84.0</ele><time>2026-05-01T09:18:25Z</time></trkpt><trkpt lat="45.02989740705525" lon="9.48427060921466"><ele>84.0</ele><time>2026-05-01T09:18:26Z</time></trkpt><trkpt lat="45.0297188578431" lon="9.484182610546823"><ele>84.33333333333333</ele><time>2026-05-01T09:18:27Z</time></trkpt><trkpt lat="45.02953982423464" lon="9.484102223465122"><ele>84.66666666666666</ele><time>2026-05-01T09:18:28Z</time></trkpt><trkpt lat="45.02937153441582" lon="9.484000608008184"><ele>85.0</ele><time>2026-05-01T09:18:29Z</time></trkpt><trkpt lat="45.029196253169914" lon="9.483917607994531"><ele>84.66666666666666</ele><time>2026-05-01T09:18:30Z</time></trkpt><trkpt lat="45.02901845654739" lon="9.483858446611336"><ele>84.33333333333333</ele><time>2026-05-01T09:18:31Z</time></trkpt><trkpt lat="45.02884592323625" lon="9.483772961985071"><ele>84.0</ele><time>2026-05-01T09:18:32Z</time></trkpt><trkpt lat="45.02867266062546" lon="9.483690515843783"><ele>83.66666666666667</ele><time>2026-05-01T09:18:33Z</time></trkpt><trkpt lat="45.02849616986122" lon="9.48361124677703"><ele>83.33333333333334</ele><time>2026-05-01T09:18:34Z</time></trkpt><trkpt lat="45.02831320771675" lon="9.483529475238615"><ele>83.0</ele><time>2026-05-01T09:18:35Z</time></trkpt><trkpt lat="45.02812662917608" lon="9.48344292845163"><ele>83.66666666666667</ele><time>2026-05-01T09:18:36Z</time></trkpt><trkpt lat="45.02793879434812" lon="9.483354059643386"><ele>84.33333333333333</ele><time>2026-05-01T09:18:37Z</time></trkpt><trkpt lat="45.02776177942565" lon="9.483270573591106"><ele>85.0</ele><time>2026-05-01T09:18:38Z</time></trkpt><trkpt lat="45.02759617372081" lon="9.483168210979624"><ele>85.0</ele><time>2026-05-01T09:18:39Z</time></trkpt><trkpt lat="45.027421355845696" lon="9.483085470858242"><ele>85.0</ele><time>2026-05-01T09:18:40Z</time></trkpt><trkpt lat="45.02724453724369" lon="9.483001372261542"><ele>85.0</ele><time>2026-05-01T09:18:41Z</time></trkpt><trkpt lat="45.027072221291135" lon="9.482919119584798"><ele>85.0</ele><time>2026-05-01T09:18:42Z</time></trkpt><trkpt lat="45.02690155050088" lon="9.482838307794902"><ele>85.0</ele><time>2026-05-01T09:18:43Z</time></trkpt><trkpt lat="45.026734468065506" lon="9.482760573551383"><ele>85.0</ele><time>2026-05-01T09:18:44Z</time></trkpt><trkpt lat="45.026569577456755" lon="9.48268385909201"><ele>85.66666666666666</ele><time>2026-05-01T09:18:45Z</time></trkpt><trkpt lat="45.026408253679804" lon="9.482608804061067"><ele>86.33333333333333</ele><time>2026-05-01T09:18:46Z</time></trkpt><trkpt lat="45.02624602647448" lon="9.482533328698382"><ele>87.0</ele><time>2026-05-01T09:18:47Z</time></trkpt><trkpt lat="45.02608411311592" lon="9.482457236037428"><ele>87.0</ele><time>2026-05-01T09:18:48Z</time></trkpt><trkpt lat="45.02592095903205" lon="9.482380190493695"><ele>87.0</ele><time>2026-05-01T09:18:49Z</time></trkpt><trkpt lat="45.02576030599239" lon="9.48230613420855"><ele>87.0</ele><time>2026-05-01T09:18:50Z</time></trkpt><trkpt lat="45.025598339157725" lon="9.482231472276196"><ele>86.66666666666667</ele><time>2026-05-01T09:18:51Z</time></trkpt><trkpt lat="45.02543642571003" lon="9.482156834956417"><ele>86.33333333333334</ele><time>2026-05-01T09:18:52Z</time></trkpt><trkpt lat="45.02527553469779" lon="9.482082668958306"><ele>86.0</ele><time>2026-05-01T09:18:53Z</time></trkpt><trkpt lat="45.025115533943755" lon="9.482007711057166"><ele>87.0</ele><time>2026-05-01T09:18:54Z</time></trkpt><trkpt lat="45.024953099923" lon="9.481955773654105"><ele>88.0</ele><time>2026-05-01T09:18:55Z</time></trkpt><trkpt lat="45.0248026198958" lon="9.481881971600089"><ele>89.0</ele><time>2026-05-01T09:18:56Z</time></trkpt><trkpt lat="45.02465767878402" lon="9.48181341322499"><ele>89.0</ele><time>2026-05-01T09:18:57Z</time></trkpt><trkpt lat="45.02451138455069" lon="9.481744226311813"><ele>89.0</ele><time>2026-05-01T09:18:58Z</time></trkpt><trkpt lat="45.02437341605833" lon="9.481655146184902"><ele>89.0</ele><time>2026-05-01T09:18:59Z</time></trkpt><trkpt lat="45.024228667554944" lon="9.48159485492986"><ele>89.33333333333334</ele><time>2026-05-01T09:19:00Z</time></trkpt><trkpt lat="45.02408111345306" lon="9.48155574211378"><ele>89.66666666666667</ele><time>2026-05-01T09:19:01Z</time></trkpt><trkpt lat="45.02392511409013" lon="9.481582151649665"><ele>90.0</ele><time>2026-05-01T09:19:02Z</time></trkpt><trkpt lat="45.023771821693565" lon="9.481620295251103"><ele>90.0</ele><time>2026-05-01T09:19:03Z</time></trkpt><trkpt lat="45.02361869006691" lon="9.481673064946955"><ele>90.0</ele><time>2026-05-01T09:19:04Z</time></trkpt><trkpt lat="45.02345772817223" lon="9.481721687592247"><ele>90.0</ele><time>2026-05-01T09:19:05Z</time></trkpt><trkpt lat="45.02330166052847" lon="9.481789961139743"><ele>90.66666666666667</ele><time>2026-05-01T09:19:06Z</time></trkpt><trkpt lat="45.02314630007487" lon="9.481842593495804"><ele>91.33333333333334</ele><time>2026-05-01T09:19:07Z</time></trkpt><trkpt lat="45.022994260301715" lon="9.48188373686797"><ele>92.0</ele><time>2026-05-01T09:19:08Z</time></trkpt><trkpt lat="45.022850424092795" lon="9.48195905595528"><ele>92.0</ele><time>2026-05-01T09:19:09Z</time></trkpt><trkpt lat="45.022697980642484" lon="9.482010290049445"><ele>92.0</ele><time>2026-05-01T09:19:10Z</time></trkpt><trkpt lat="45.02254621425784" lon="9.482065137418115"><ele>92.0</ele><time>2026-05-01T09:19:11Z</time></trkpt><trkpt lat="45.02238706949704" lon="9.482100645074203"><ele>92.0</ele><time>2026-05-01T09:19:12Z</time></trkpt><trkpt lat="45.02224154343871" lon="9.482177665446699"><ele>92.0</ele><time>2026-05-01T09:19:13Z</time></trkpt><trkpt lat="45.02208920800243" lon="9.48222438163004"><ele>92.0</ele><time>2026-05-01T09:19:14Z</time></trkpt><trkpt lat="45.02194587250121" lon="9.48227905356672"><ele>92.0</ele><time>2026-05-01T09:19:15Z</time></trkpt><trkpt lat="45.021787644048075" lon="9.482335618229806"><ele>92.0</ele><time>2026-05-01T09:19:16Z</time></trkpt><trkpt lat="45.02162822674379" lon="9.482397827841638"><ele>92.0</ele><time>2026-05-01T09:19:17Z</time></trkpt><trkpt lat="45.0214633174912" lon="9.482436701059862"><ele>92.33333333333334</ele><time>2026-05-01T09:19:18Z</time></trkpt><trkpt lat="45.02130350359046" lon="9.482515778419705"><ele>92.66666666666667</ele><time>2026-05-01T09:19:19Z</time></trkpt><trkpt lat="45.02113771289329" lon="9.48257546460186"><ele>93.0</ele><time>2026-05-01T09:19:20Z</time></trkpt><trkpt lat="45.02096892379576" lon="9.482635614746712"><ele>92.66666666666667</ele><time>2026-05-01T09:19:21Z</time></trkpt><trkpt lat="45.020800908029976" lon="9.482694225667931"><ele>92.33333333333334</ele><time>2026-05-01T09:19:22Z</time></trkpt><trkpt lat="45.02063076212998" lon="9.482755368551333"><ele>92.0</ele><time>2026-05-01T09:19:23Z</time></trkpt><trkpt lat="45.020460890896764" lon="9.482821423776343"><ele>92.0</ele><time>2026-05-01T09:19:24Z</time></trkpt><trkpt lat="45.02028893791941" lon="9.482862178080667"><ele>92.0</ele><time>2026-05-01T09:19:25Z</time></trkpt><trkpt lat="45.0201133980152" lon="9.48292553927752"><ele>92.0</ele><time>2026-05-01T09:19:26Z</time></trkpt><trkpt lat="45.019942110590996" lon="9.483010981809326"><ele>92.0</ele><time>2026-05-01T09:19:27Z</time></trkpt><trkpt lat="45.019764077398754" lon="9.483073692650224"><ele>92.0</ele><time>2026-05-01T09:19:28Z</time></trkpt><trkpt lat="45.01958954504804" lon="9.483132381933789"><ele>92.0</ele><time>2026-05-01T09:19:29Z</time></trkpt><trkpt lat="45.019411191286835" lon="9.483197120935749"><ele>92.0</ele><time>2026-05-01T09:19:30Z</time></trkpt><trkpt lat="45.019233968539154" lon="9.483260068862919"><ele>92.0</ele><time>2026-05-01T09:19:31Z</time></trkpt><trkpt lat="45.01906241519603" lon="9.483323343675028"><ele>92.0</ele><time>2026-05-01T09:19:32Z</time></trkpt><trkpt lat="45.01888884669572" lon="9.483387716229304"><ele>92.66666666666667</ele><time>2026-05-01T09:19:33Z</time></trkpt><trkpt lat="45.018716397277416" lon="9.483450337388007"><ele>93.33333333333333</ele><time>2026-05-01T09:19:34Z</time></trkpt><trkpt lat="45.01854619247726" lon="9.483514868175492"><ele>94.0</ele><time>2026-05-01T09:19:35Z</time></trkpt><trkpt lat="45.01837239945967" lon="9.483578255238799"><ele>94.33333333333333</ele><time>2026-05-01T09:19:36Z</time></trkpt><trkpt lat="45.01819540163224" lon="9.483619471298777"><ele>94.66666666666667</ele><time>2026-05-01T09:19:37Z</time></trkpt><trkpt lat="45.018019716184426" lon="9.483683384216823"><ele>95.0</ele><time>2026-05-01T09:19:38Z</time></trkpt><trkpt lat="45.01785027405683" lon="9.483760865073023"><ele>95.0</ele><time>2026-05-01T09:19:39Z</time></trkpt><trkpt lat="45.01768812700052" lon="9.483816439753172"><ele>95.0</ele><time>2026-05-01T09:19:40Z</time></trkpt><trkpt lat="45.01754055570688" lon="9.483871194105632"><ele>95.0</ele><time>2026-05-01T09:19:41Z</time></trkpt><trkpt lat="45.01739750729838" lon="9.483923928948583"><ele>95.0</ele><time>2026-05-01T09:19:42Z</time></trkpt><trkpt lat="45.01725470510859" lon="9.48397980194262"><ele>95.0</ele><time>2026-05-01T09:19:43Z</time></trkpt><trkpt lat="45.01711053369157" lon="9.484008381177347"><ele>95.0</ele><time>2026-05-01T09:19:44Z</time></trkpt><trkpt lat="45.01697770093406" lon="9.48405549347201"><ele>95.0</ele><time>2026-05-01T09:19:45Z</time></trkpt><trkpt lat="45.01685101764738" lon="9.484100424705112"><ele>95.0</ele><time>2026-05-01T09:19:46Z</time></trkpt><trkpt lat="45.01673308714772" lon="9.484141404135285"><ele>95.0</ele><time>2026-05-01T09:19:47Z</time></trkpt><trkpt lat="45.016622278306244" lon="9.48417944996368"><ele>95.0</ele><time>2026-05-01T09:19:48Z</time></trkpt><trkpt lat="45.01652292615097" lon="9.484213562216826"><ele>95.0</ele><time>2026-05-01T09:19:49Z</time></trkpt><trkpt lat="45.01643529541006" lon="9.484243649946114"><ele>95.0</ele><time>2026-05-01T09:19:50Z</time></trkpt><trkpt lat="45.01635917502262" lon="9.48426978559882"><ele>95.0</ele><time>2026-05-01T09:19:51Z</time></trkpt><trkpt lat="45.0162732208269" lon="9.484284855729586"><ele>95.0</ele><time>2026-05-01T09:19:53Z</time></trkpt><trkpt lat="45.01617291049646" lon="9.484417989276713"><ele>95.0</ele><time>2026-05-01T09:19:56Z</time></trkpt><trkpt lat="45.016135556576295" lon="9.484520190969018"><ele>95.0</ele><time>2026-05-01T09:19:57Z</time></trkpt><trkpt lat="45.01608379334415" lon="9.484615543370154"><ele>95.0</ele><time>2026-05-01T09:19:58Z</time></trkpt><trkpt lat="45.016002159002014" lon="9.48469361762431"><ele>95.5</ele><time>2026-05-01T09:19:59Z</time></trkpt><trkpt lat="45.01589511044857" lon="9.48471189655781"><ele>96.0</ele><time>2026-05-01T09:20:00Z</time></trkpt><trkpt lat="45.01579712214519" lon="9.48479485634084"><ele>96.5</ele><time>2026-05-01T09:20:01Z</time></trkpt><trkpt lat="45.015682783502896" lon="9.484854082996073"><ele>97.0</ele><time>2026-05-01T09:20:02Z</time></trkpt><trkpt lat="45.01555919044011" lon="9.484893502254677"><ele>97.0</ele><time>2026-05-01T09:20:03Z</time></trkpt><trkpt lat="45.01543954652812" lon="9.484964079893043"><ele>97.0</ele><time>2026-05-01T09:20:04Z</time></trkpt><trkpt lat="45.01531511112699" lon="9.485015524746151"><ele>97.0</ele><time>2026-05-01T09:20:05Z</time></trkpt><trkpt lat="45.01518219141951" lon="9.485061970874682"><ele>97.0</ele><time>2026-05-01T09:20:06Z</time></trkpt><trkpt lat="45.01504507499934" lon="9.485114798152344"><ele>97.0</ele><time>2026-05-01T09:20:07Z</time></trkpt><trkpt lat="45.014899170795765" lon="9.485143366284506"><ele>97.0</ele><time>2026-05-01T09:20:08Z</time></trkpt><trkpt lat="45.01475449584155" lon="9.485192707759234"><ele>97.0</ele><time>2026-05-01T09:20:09Z</time></trkpt><trkpt lat="45.01460586341433" lon="9.48525587924385"><ele>97.0</ele><time>2026-05-01T09:20:10Z</time></trkpt><trkpt lat="45.014454867298376" lon="9.485304849512662"><ele>97.0</ele><time>2026-05-01T09:20:11Z</time></trkpt><trkpt lat="45.0143026679572" lon="9.485344875303166"><ele>97.0</ele><time>2026-05-01T09:20:12Z</time></trkpt><trkpt lat="45.01414883225852" lon="9.485380773455937"><ele>97.33333333333334</ele><time>2026-05-01T09:20:13Z</time></trkpt><trkpt lat="45.01399316080819" lon="9.485424303924445"><ele>97.66666666666666</ele><time>2026-05-01T09:20:14Z</time></trkpt><trkpt lat="45.013841295707714" lon="9.485469424775731"><ele>98.0</ele><time>2026-05-01T09:20:15Z</time></trkpt><trkpt lat="45.01368746347949" lon="9.485507157051659"><ele>98.0</ele><time>2026-05-01T09:20:16Z</time></trkpt><trkpt lat="45.01352725075576" lon="9.485548864722794"><ele>98.0</ele><time>2026-05-01T09:20:17Z</time></trkpt><trkpt lat="45.013370392597466" lon="9.485591901838607"><ele>98.0</ele><time>2026-05-01T09:20:18Z</time></trkpt><trkpt lat="45.0132059757503" lon="9.485611342274456"><ele>97.33333333333333</ele><time>2026-05-01T09:20:19Z</time></trkpt><trkpt lat="45.013040430559634" lon="9.485653178772292"><ele>96.66666666666666</ele><time>2026-05-01T09:20:20Z</time></trkpt><trkpt lat="45.012878253446935" lon="9.48569371590721"><ele>96.0</ele><time>2026-05-01T09:20:21Z</time></trkpt><trkpt lat="45.012715977911036" lon="9.48573427766801"><ele>96.0</ele><time>2026-05-01T09:20:22Z</time></trkpt><trkpt lat="45.0125503759306" lon="9.485775670829366"><ele>96.0</ele><time>2026-05-01T09:20:23Z</time></trkpt><trkpt lat="45.012381363931084" lon="9.48581833708187"><ele>96.0</ele><time>2026-05-01T09:20:24Z</time></trkpt><trkpt lat="45.01220913938975" lon="9.485861768310992"><ele>96.33333333333334</ele><time>2026-05-01T09:20:25Z</time></trkpt><trkpt lat="45.012036449919904" lon="9.485905316780459"><ele>96.66666666666667</ele><time>2026-05-01T09:20:26Z</time></trkpt><trkpt lat="45.01186497275042" lon="9.485948737941479"><ele>97.0</ele><time>2026-05-01T09:20:27Z</time></trkpt><trkpt lat="45.01169347099771" lon="9.485992107219744"><ele>97.33333333333334</ele><time>2026-05-01T09:20:28Z</time></trkpt><trkpt lat="45.011522692367436" lon="9.486032367036096"><ele>97.66666666666666</ele><time>2026-05-01T09:20:29Z</time></trkpt><trkpt lat="45.01135170450748" lon="9.486071750240336"><ele>98.0</ele><time>2026-05-01T09:20:30Z</time></trkpt><trkpt lat="45.01118019997564" lon="9.486109708859578"><ele>98.0</ele><time>2026-05-01T09:20:31Z</time></trkpt><trkpt lat="45.01100740893194" lon="9.486156038807252"><ele>98.0</ele><time>2026-05-01T09:20:32Z</time></trkpt><trkpt lat="45.01083968867828" lon="9.486241510691235"><ele>98.0</ele><time>2026-05-01T09:20:33Z</time></trkpt><trkpt lat="45.01067392898729" lon="9.486318424342489"><ele>97.33333333333333</ele><time>2026-05-01T09:20:34Z</time></trkpt><trkpt lat="45.01050588049457" lon="9.486401307817507"><ele>96.66666666666666</ele><time>2026-05-01T09:20:35Z</time></trkpt><trkpt lat="45.01034098006352" lon="9.486489311883533"><ele>96.0</ele><time>2026-05-01T09:20:36Z</time></trkpt><trkpt lat="45.01016729390283" lon="9.486557928463569"><ele>96.0</ele><time>2026-05-01T09:20:37Z</time></trkpt><trkpt lat="45.01000755395786" lon="9.486673214377046"><ele>96.0</ele><time>2026-05-01T09:20:38Z</time></trkpt><trkpt lat="45.00983883090717" lon="9.486757016483228"><ele>96.0</ele><time>2026-05-01T09:20:39Z</time></trkpt><trkpt lat="45.00966609133807" lon="9.486833965443855"><ele>96.33333333333334</ele><time>2026-05-01T09:20:40Z</time></trkpt><trkpt lat="45.009484150455826" lon="9.486894997909102"><ele>96.66666666666667</ele><time>2026-05-01T09:20:41Z</time></trkpt><trkpt lat="45.00929373074714" lon="9.486914280957471"><ele>97.0</ele><time>2026-05-01T09:20:42Z</time></trkpt><trkpt lat="45.00910089963488" lon="9.48695693673605"><ele>97.0</ele><time>2026-05-01T09:20:43Z</time></trkpt><trkpt lat="45.00890267426097" lon="9.487010828381106"><ele>97.0</ele><time>2026-05-01T09:20:44Z</time></trkpt><trkpt lat="45.00870440147032" lon="9.487095328220505"><ele>97.0</ele><time>2026-05-01T09:20:45Z</time></trkpt><trkpt lat="45.00850216196438" lon="9.487161463043508"><ele>97.33333333333334</ele><time>2026-05-01T09:20:46Z</time></trkpt><trkpt lat="45.008292246257675" lon="9.487234381815705"><ele>97.66666666666666</ele><time>2026-05-01T09:20:47Z</time></trkpt><trkpt lat="45.00807726182589" lon="9.487311022942928"><ele>98.0</ele><time>2026-05-01T09:20:48Z</time></trkpt><trkpt lat="45.00786911691816" lon="9.487385682731821"><ele>98.0</ele><time>2026-05-01T09:20:49Z</time></trkpt><trkpt lat="45.00765530071901" lon="9.487433486404468"><ele>98.0</ele><time>2026-05-01T09:20:50Z</time></trkpt><trkpt lat="45.00744109654071" lon="9.48750380912224"><ele>98.0</ele><time>2026-05-01T09:20:51Z</time></trkpt><trkpt lat="45.00722879923548" lon="9.487594696536767"><ele>98.0</ele><time>2026-05-01T09:20:52Z</time></trkpt><trkpt lat="45.00700644803961" lon="9.487640680058608"><ele>98.0</ele><time>2026-05-01T09:20:53Z</time></trkpt><trkpt lat="45.00678852074804" lon="9.487709127981843"><ele>98.0</ele><time>2026-05-01T09:20:54Z</time></trkpt><trkpt lat="45.00656960586719" lon="9.487778929082475"><ele>98.0</ele><time>2026-05-01T09:20:55Z</time></trkpt><trkpt lat="45.00635454300921" lon="9.487847710322974"><ele>98.0</ele><time>2026-05-01T09:20:56Z</time></trkpt><trkpt lat="45.00614006627969" lon="9.487916839054023"><ele>98.0</ele><time>2026-05-01T09:20:57Z</time></trkpt><trkpt lat="45.00592666223794" lon="9.487985622043281"><ele>97.66666666666666</ele><time>2026-05-01T09:20:58Z</time></trkpt><trkpt lat="45.00571477108797" lon="9.488053917407452"><ele>97.33333333333334</ele><time>2026-05-01T09:20:59Z</time></trkpt><trkpt lat="45.00550338431225" lon="9.488122050204497"><ele>97.0</ele><time>2026-05-01T09:21:00Z</time></trkpt><trkpt lat="45.0052925997899" lon="9.488189988887433"><ele>97.0</ele><time>2026-05-01T09:21:01Z</time></trkpt><trkpt lat="45.005087890388495" lon="9.48827924803991"><ele>97.0</ele><time>2026-05-01T09:21:02Z</time></trkpt><trkpt lat="45.00487583044132" lon="9.488322185710608"><ele>97.0</ele><time>2026-05-01T09:21:03Z</time></trkpt><trkpt lat="45.004672385966465" lon="9.48840947558441"><ele>98.0</ele><time>2026-05-01T09:21:04Z</time></trkpt><trkpt lat="45.00446717684742" lon="9.488473944279209"><ele>99.0</ele><time>2026-05-01T09:21:05Z</time></trkpt><trkpt lat="45.00425818125006" lon="9.488521509984382"><ele>100.0</ele><time>2026-05-01T09:21:06Z</time></trkpt><trkpt lat="45.0040566255107" lon="9.488609934077626"><ele>100.0</ele><time>2026-05-01T09:21:07Z</time></trkpt><trkpt lat="45.00385275679885" lon="9.488674425745042"><ele>100.0</ele><time>2026-05-01T09:21:08Z</time></trkpt><trkpt lat="45.003647234378484" lon="9.488715004587005"><ele>100.0</ele><time>2026-05-01T09:21:09Z</time></trkpt><trkpt lat="45.00344585094661" lon="9.488778584923983"><ele>100.33333333333334</ele><time>2026-05-01T09:21:10Z</time></trkpt><trkpt lat="45.00324490365979" lon="9.488842328587388"><ele>100.66666666666666</ele><time>2026-05-01T09:21:11Z</time></trkpt><trkpt lat="45.003046715655906" lon="9.488906484937555"><ele>101.0</ele><time>2026-05-01T09:21:12Z</time></trkpt><trkpt lat="45.00284960240505" lon="9.488969759880321"><ele>101.0</ele><time>2026-05-01T09:21:13Z</time></trkpt><trkpt lat="45.00265760631787" lon="9.489054064786908"><ele>101.0</ele><time>2026-05-01T09:21:14Z</time></trkpt><trkpt lat="45.00246224236978" lon="9.4891168094295"><ele>101.0</ele><time>2026-05-01T09:21:15Z</time></trkpt><trkpt lat="45.00226938377671" lon="9.489178292480466"><ele>101.0</ele><time>2026-05-01T09:21:16Z</time></trkpt><trkpt lat="45.00208082945408" lon="9.489239157257472"><ele>101.0</ele><time>2026-05-01T09:21:17Z</time></trkpt><trkpt lat="45.001895497469704" lon="9.489297707473117"><ele>101.0</ele><time>2026-05-01T09:21:18Z</time></trkpt><trkpt lat="45.00172498136311" lon="9.489351413109075"><ele>101.33333333333333</ele><time>2026-05-01T09:21:19Z</time></trkpt><trkpt lat="45.00156512429116" lon="9.489400587707363"><ele>101.66666666666666</ele><time>2026-05-01T09:21:20Z</time></trkpt><trkpt lat="45.00141020086582" lon="9.489452592707757"><ele>102.0</ele><time>2026-05-01T09:21:21Z</time></trkpt><trkpt lat="45.00126032669475" lon="9.489501847569954"><ele>102.0</ele><time>2026-05-01T09:21:22Z</time></trkpt><trkpt lat="45.001116906844416" lon="9.489524488630673"><ele>102.0</ele><time>2026-05-01T09:21:23Z</time></trkpt><trkpt lat="45.000983624426496" lon="9.48956128849839"><ele>102.0</ele><time>2026-05-01T09:21:24Z</time></trkpt><trkpt lat="45.00086895879666" lon="9.489611239859208"><ele>102.0</ele><time>2026-05-01T09:21:25Z</time></trkpt><trkpt lat="45.000774808097205" lon="9.489608422021563"><ele>102.39999999999999</ele><time>2026-05-01T09:21:26Z</time></trkpt><trkpt lat="45.00070640677956" lon="9.489548472227815"><ele>102.8</ele><time>2026-05-01T09:21:27Z</time></trkpt><trkpt lat="45.00068351253026" lon="9.489398729399154"><ele>103.2</ele><time>2026-05-01T09:21:28Z</time></trkpt><trkpt lat="45.00060811914154" lon="9.489275891062293"><ele>103.6</ele><time>2026-05-01T09:21:29Z</time></trkpt><trkpt lat="45.00053454501945" lon="9.489150372908812"><ele>104.0</ele><time>2026-05-01T09:21:30Z</time></trkpt><trkpt lat="45.00040723304471" lon="9.489085239990468"><ele>104.0</ele><time>2026-05-01T09:21:31Z</time></trkpt><trkpt lat="45.00025351082378" lon="9.4890325129096"><ele>104.0</ele><time>2026-05-01T09:21:32Z</time></trkpt><trkpt lat="45.000094996127814" lon="9.488939592354166"><ele>104.0</ele><time>2026-05-01T09:21:33Z</time></trkpt><trkpt lat="44.99992407110725" lon="9.488874107851826"><ele>104.0</ele><time>2026-05-01T09:21:34Z</time></trkpt><trkpt lat="44.99976562626795" lon="9.488782411338542"><ele>104.0</ele><time>2026-05-01T09:21:35Z</time></trkpt><trkpt lat="44.99961930394507" lon="9.488661187895989"><ele>104.0</ele><time>2026-05-01T09:21:36Z</time></trkpt><trkpt lat="44.99948247814909" lon="9.488548542579618"><ele>104.33333333333333</ele><time>2026-05-01T09:21:37Z</time></trkpt><trkpt lat="44.99934136917682" lon="9.488379448747011"><ele>104.66666666666666</ele><time>2026-05-01T09:21:38Z</time></trkpt><trkpt lat="44.99921340159404" lon="9.488203242161468"><ele>105.0</ele><time>2026-05-01T09:21:39Z</time></trkpt><trkpt lat="44.99908175967515" lon="9.48802443576016"><ele>105.0</ele><time>2026-05-01T09:21:40Z</time></trkpt><trkpt lat="44.99896633920778" lon="9.487817139830888"><ele>105.0</ele><time>2026-05-01T09:21:41Z</time></trkpt><trkpt lat="44.998863403630104" lon="9.487608771134084"><ele>105.0</ele><time>2026-05-01T09:21:42Z</time></trkpt><trkpt lat="44.99876458769174" lon="9.487392911154256"><ele>105.0</ele><time>2026-05-01T09:21:43Z</time></trkpt><trkpt lat="44.99867820068237" lon="9.487163594651259"><ele>105.0</ele><time>2026-05-01T09:21:44Z</time></trkpt><trkpt lat="44.998564924941704" lon="9.486956830384985"><ele>105.0</ele><time>2026-05-01T09:21:45Z</time></trkpt><trkpt lat="44.99846980975946" lon="9.486740303111988"><ele>105.0</ele><time>2026-05-01T09:21:46Z</time></trkpt><trkpt lat="44.99837808317209" lon="9.486543279036269"><ele>105.0</ele><time>2026-05-01T09:21:47Z</time></trkpt><trkpt lat="44.998279120111604" lon="9.486338739138835"><ele>105.0</ele><time>2026-05-01T09:21:48Z</time></trkpt><trkpt lat="44.998177422706156" lon="9.486131461522254"><ele>105.66666666666666</ele><time>2026-05-01T09:21:49Z</time></trkpt><trkpt lat="44.99807525980057" lon="9.48592167718878"><ele>106.33333333333333</ele><time>2026-05-01T09:21:50Z</time></trkpt><trkpt lat="44.99798216044842" lon="9.485711842863616"><ele>107.0</ele><time>2026-05-01T09:21:51Z</time></trkpt><trkpt lat="44.99788788387328" lon="9.485511604101085"><ele>107.33333333333333</ele><time>2026-05-01T09:21:52Z</time></trkpt><trkpt lat="44.997791689337696" lon="9.485307877390971"><ele>107.66666666666666</ele><time>2026-05-01T09:21:53Z</time></trkpt><trkpt lat="44.99769703355201" lon="9.485102005551214"><ele>108.0</ele><time>2026-05-01T09:21:54Z</time></trkpt><trkpt lat="44.99759699491116" lon="9.484891215962337"><ele>108.0</ele><time>2026-05-01T09:21:55Z</time></trkpt><trkpt lat="44.997495280556755" lon="9.484675869095934"><ele>108.0</ele><time>2026-05-01T09:21:56Z</time></trkpt><trkpt lat="44.99740453116769" lon="9.48444058960498"><ele>108.0</ele><time>2026-05-01T09:21:57Z</time></trkpt><trkpt lat="44.997288760454076" lon="9.48423250763774"><ele>107.66666666666666</ele><time>2026-05-01T09:21:58Z</time></trkpt><trkpt lat="44.99718462088969" lon="9.484008079530165"><ele>107.33333333333333</ele><time>2026-05-01T09:21:59Z</time></trkpt><trkpt lat="44.997083633229934" lon="9.48379550687613"><ele>107.0</ele><time>2026-05-01T09:22:00Z</time></trkpt><trkpt lat="44.996991835646234" lon="9.483595498989368"><ele>107.0</ele><time>2026-05-01T09:22:01Z</time></trkpt><trkpt lat="44.99690136651574" lon="9.483400950478615"><ele>107.0</ele><time>2026-05-01T09:22:02Z</time></trkpt><trkpt lat="44.9968126356829" lon="9.483218420529598"><ele>107.0</ele><time>2026-05-01T09:22:03Z</time></trkpt><trkpt lat="44.99672876591894" lon="9.483045947996668"><ele>107.25</ele><time>2026-05-01T09:22:04Z</time></trkpt><trkpt lat="44.99665309127432" lon="9.482879768679316"><ele>107.5</ele><time>2026-05-01T09:22:05Z</time></trkpt><trkpt lat="44.99657668434882" lon="9.482709561456527"><ele>107.75</ele><time>2026-05-01T09:22:06Z</time></trkpt><trkpt lat="44.99649592064057" lon="9.482538302802578"><ele>108.0</ele><time>2026-05-01T09:22:07Z</time></trkpt><trkpt lat="44.99641456372479" lon="9.482364822147524"><ele>108.0</ele><time>2026-05-01T09:22:08Z</time></trkpt><trkpt lat="44.996336647797285" lon="9.482198554444029"><ele>108.0</ele><time>2026-05-01T09:22:09Z</time></trkpt><trkpt lat="44.996262383347975" lon="9.482041435221186"><ele>108.0</ele><time>2026-05-01T09:22:10Z</time></trkpt><trkpt lat="44.99619326172287" lon="9.481897010066684"><ele>108.0</ele><time>2026-05-01T09:22:11Z</time></trkpt><trkpt lat="44.99613177886279" lon="9.481765795663812"><ele>108.0</ele><time>2026-05-01T09:22:12Z</time></trkpt><trkpt lat="44.99607712023735" lon="9.481648599530804"><ele>108.00000000000001</ele><time>2026-05-01T09:22:13Z</time></trkpt><trkpt lat="44.99602894646347" lon="9.481549168600438"><ele>108.00000000000001</ele><time>2026-05-01T09:22:14Z</time></trkpt><trkpt lat="44.99598815631146" lon="9.481469647633427"><ele>108.0</ele><time>2026-05-01T09:22:15Z</time></trkpt><trkpt lat="44.99593939245434" lon="9.481335141205228"><ele>108.0</ele><time>2026-05-01T09:22:17Z</time></trkpt><trkpt lat="44.99579974480251" lon="9.481373162426369"><ele>108.0</ele><time>2026-05-01T09:22:19Z</time></trkpt><trkpt lat="44.99572828636132" lon="9.481388617851165"><ele>108.0</ele><time>2026-05-01T09:22:25Z</time></trkpt><trkpt lat="44.99564343137842" lon="9.481391290415258"><ele>108.0</ele><time>2026-05-01T09:22:28Z</time></trkpt><trkpt lat="44.99555984354518" lon="9.481399899016575"><ele>108.0</ele><time>2026-05-01T09:22:30Z</time></trkpt><trkpt lat="44.99549665047737" lon="9.481406407185846"><ele>108.0</ele><time>2026-05-01T09:22:31Z</time></trkpt><trkpt lat="44.99540873838457" lon="9.481414787487008"><ele>108.0</ele><time>2026-05-01T09:22:32Z</time></trkpt><trkpt lat="44.9952923748271" lon="9.481424057827217"><ele>108.0</ele><time>2026-05-01T09:22:33Z</time></trkpt><trkpt lat="44.995201932483944" lon="9.481431263100069"><ele>108.0</ele><time>2026-05-01T09:22:34Z</time></trkpt><trkpt lat="44.995121778010656" lon="9.481441209083783"><ele>108.0</ele><time>2026-05-01T09:22:35Z</time></trkpt><trkpt lat="44.995052639651156" lon="9.481449523042677"><ele>108.0</ele><time>2026-05-01T09:22:36Z</time></trkpt><trkpt lat="44.994985566421796" lon="9.481441271665028"><ele>108.0</ele><time>2026-05-01T09:22:37Z</time></trkpt><trkpt lat="44.99491614893985" lon="9.481414780465425"><ele>108.0</ele><time>2026-05-01T09:22:38Z</time></trkpt><trkpt lat="44.99485303783374" lon="9.481309513065439"><ele>108.2</ele><time>2026-05-01T09:22:39Z</time></trkpt><trkpt lat="44.9947741510616" lon="9.481248955660734"><ele>108.4</ele><time>2026-05-01T09:22:40Z</time></trkpt><trkpt lat="44.99470074348214" lon="9.48116891720976"><ele>108.60000000000001</ele><time>2026-05-01T09:22:41Z</time></trkpt><trkpt lat="44.99462355055491" lon="9.481087508659291"><ele>108.80000000000001</ele><time>2026-05-01T09:22:42Z</time></trkpt><trkpt lat="44.994543934351235" lon="9.4810052726959"><ele>109.0</ele><time>2026-05-01T09:22:43Z</time></trkpt><trkpt lat="44.994467084621" lon="9.480921202608268"><ele>109.00000000000001</ele><time>2026-05-01T09:22:44Z</time></trkpt><trkpt lat="44.99439832821222" lon="9.480854642841487"><ele>109.0</ele><time>2026-05-01T09:22:45Z</time></trkpt><trkpt lat="44.99433713211803" lon="9.480793502543095"><ele>109.0</ele><time>2026-05-01T09:22:46Z</time></trkpt><trkpt lat="44.994278548158356" lon="9.480713893108332"><ele>109.0</ele><time>2026-05-01T09:22:47Z</time></trkpt><trkpt lat="44.994234650053194" lon="9.480615259049795"><ele>109.00000000000001</ele><time>2026-05-01T09:22:48Z</time></trkpt><trkpt lat="44.99419198801247" lon="9.4805108835926"><ele>109.0</ele><time>2026-05-01T09:22:49Z</time></trkpt><trkpt lat="44.99413787569534" lon="9.480401209037915"><ele>109.2</ele><time>2026-05-01T09:22:50Z</time></trkpt><trkpt lat="44.994070677813795" lon="9.480319008593765"><ele>109.4</ele><time>2026-05-01T09:22:51Z</time></trkpt><trkpt lat="44.99400951782308" lon="9.480214891096699"><ele>109.6</ele><time>2026-05-01T09:22:52Z</time></trkpt><trkpt lat="44.99395683106026" lon="9.480111825549992"><ele>109.8</ele><time>2026-05-01T09:22:53Z</time></trkpt><trkpt lat="44.99388325147414" lon="9.480039053787815"><ele>110.0</ele><time>2026-05-01T09:22:54Z</time></trkpt><trkpt lat="44.99379862255273" lon="9.479964463653534"><ele>110.0</ele><time>2026-05-01T09:22:55Z</time></trkpt><trkpt lat="44.99372786757648" lon="9.479839584512026"><ele>110.0</ele><time>2026-05-01T09:22:56Z</time></trkpt><trkpt lat="44.99364095956351" lon="9.47972574115006"><ele>110.0</ele><time>2026-05-01T09:22:57Z</time></trkpt><trkpt lat="44.99354665952198" lon="9.479619073230229"><ele>110.0</ele><time>2026-05-01T09:22:58Z</time></trkpt><trkpt lat="44.99344111296359" lon="9.479528332844518"><ele>110.0</ele><time>2026-05-01T09:22:59Z</time></trkpt><trkpt lat="44.993364593550744" lon="9.479385378278385"><ele>110.0</ele><time>2026-05-01T09:23:00Z</time></trkpt><trkpt lat="44.99328714722836" lon="9.479248495362267"><ele>110.0</ele><time>2026-05-01T09:23:01Z</time></trkpt><trkpt lat="44.99320301535691" lon="9.47912627324346"><ele>110.0</ele><time>2026-05-01T09:23:02Z</time></trkpt><trkpt lat="44.99313167851636" lon="9.479011098046183"><ele>110.0</ele><time>2026-05-01T09:23:03Z</time></trkpt><trkpt lat="44.99303364914273" lon="9.478914397502955"><ele>110.0</ele><time>2026-05-01T09:23:04Z</time></trkpt><trkpt lat="44.99291614767318" lon="9.478830398452866"><ele>110.0</ele><time>2026-05-01T09:23:05Z</time></trkpt><trkpt lat="44.99278731850765" lon="9.47874289315892"><ele>110.0</ele><time>2026-05-01T09:23:06Z</time></trkpt><trkpt lat="44.99267764056489" lon="9.47863321648707"><ele>110.0</ele><time>2026-05-01T09:23:07Z</time></trkpt><trkpt lat="44.99256117804372" lon="9.478496582431031"><ele>110.0</ele><time>2026-05-01T09:23:08Z</time></trkpt><trkpt lat="44.992427608035435" lon="9.478355439949162"><ele>110.0</ele><time>2026-05-01T09:23:09Z</time></trkpt><trkpt lat="44.9923413714599" lon="9.478191280673073"><ele>109.75</ele><time>2026-05-01T09:23:10Z</time></trkpt><trkpt lat="44.9923126021344" lon="9.478040809729615"><ele>109.5</ele><time>2026-05-01T09:23:11Z</time></trkpt><trkpt lat="44.99232355871034" lon="9.477924954685813"><ele>109.25</ele><time>2026-05-01T09:23:12Z</time></trkpt><trkpt lat="44.992343587198725" lon="9.477782120388685"><ele>109.0</ele><time>2026-05-01T09:23:13Z</time></trkpt><trkpt lat="44.99217874343166" lon="9.477486093199062"><ele>110.25</ele><time>2026-05-01T09:23:14Z</time></trkpt><trkpt lat="44.99210440845863" lon="9.477401377513399"><ele>111.5</ele><time>2026-05-01T09:23:15Z</time></trkpt><trkpt lat="44.99202129689297" lon="9.47730799279534"><ele>112.75</ele><time>2026-05-01T09:23:16Z</time></trkpt><trkpt lat="44.991905407136755" lon="9.477202178546518"><ele>114.0</ele><time>2026-05-01T09:23:17Z</time></trkpt><trkpt lat="44.99177646314671" lon="9.477130034545558"><ele>113.80000000000001</ele><time>2026-05-01T09:23:18Z</time></trkpt><trkpt lat="44.99168148827819" lon="9.477082449900418"><ele>113.60000000000001</ele><time>2026-05-01T09:23:19Z</time></trkpt><trkpt lat="44.991606718418176" lon="9.47704684790245"><ele>113.4</ele><time>2026-05-01T09:23:20Z</time></trkpt><trkpt lat="44.99149506337177" lon="9.476983430168753"><ele>113.2</ele><time>2026-05-01T09:23:21Z</time></trkpt><trkpt lat="44.99140138979383" lon="9.476877905104496"><ele>113.0</ele><time>2026-05-01T09:23:22Z</time></trkpt><trkpt lat="44.991298490695954" lon="9.476792418746456"><ele>113.5</ele><time>2026-05-01T09:23:23Z</time></trkpt><trkpt lat="44.991186085406966" lon="9.476712189291872"><ele>114.0</ele><time>2026-05-01T09:23:24Z</time></trkpt><trkpt lat="44.99108732221898" lon="9.47660913576101"><ele>114.5</ele><time>2026-05-01T09:23:25Z</time></trkpt><trkpt lat="44.9909977581632" lon="9.476503181094403"><ele>115.0</ele><time>2026-05-01T09:23:26Z</time></trkpt><trkpt lat="44.99091294195083" lon="9.476404540709296"><ele>114.6</ele><time>2026-05-01T09:23:27Z</time></trkpt><trkpt lat="44.99085986441945" lon="9.476260824323568"><ele>114.2</ele><time>2026-05-01T09:23:28Z</time></trkpt><trkpt lat="44.99080664972125" lon="9.476120448770747"><ele>113.80000000000001</ele><time>2026-05-01T09:23:29Z</time></trkpt><trkpt lat="44.990743799278306" lon="9.476007975516334"><ele>113.4</ele><time>2026-05-01T09:23:30Z</time></trkpt><trkpt lat="44.990682798257836" lon="9.475932294295077"><ele>113.0</ele><time>2026-05-01T09:23:31Z</time></trkpt><trkpt lat="44.990648961375456" lon="9.475856191657646"><ele>112.80000000000001</ele><time>2026-05-01T09:23:33Z</time></trkpt><trkpt lat="44.99068064413409" lon="9.475734606271928"><ele>112.60000000000001</ele><time>2026-05-01T09:23:36Z</time></trkpt><trkpt lat="44.99069873097069" lon="9.475633927495284"><ele>112.39999999999999</ele><time>2026-05-01T09:23:37Z</time></trkpt><trkpt lat="44.99073514799192" lon="9.475551408301248"><ele>112.19999999999999</ele><time>2026-05-01T09:23:38Z</time></trkpt><trkpt lat="44.99080480009841" lon="9.475410218431227"><ele>112.0</ele><time>2026-05-01T09:23:40Z</time></trkpt><trkpt lat="44.99085563910097" lon="9.47526571417198"><ele>111.83333333333334</ele><time>2026-05-01T09:23:42Z</time></trkpt><trkpt lat="44.99091592442121" lon="9.475107822867225"><ele>111.66666666666667</ele><time>2026-05-01T09:23:44Z</time></trkpt><trkpt lat="44.99094242283769" lon="9.475019943955015"><ele>111.5</ele><time>2026-05-01T09:23:45Z</time></trkpt><trkpt lat="44.99098871389722" lon="9.474946006604032"><ele>111.33333333333334</ele><time>2026-05-01T09:23:46Z</time></trkpt><trkpt lat="44.991026992427884" lon="9.474860452933589"><ele>111.16666666666667</ele><time>2026-05-01T09:23:47Z</time></trkpt><trkpt lat="44.99106602116885" lon="9.474765418081182"><ele>111.0</ele><time>2026-05-01T09:23:48Z</time></trkpt><trkpt lat="44.991117953546585" lon="9.474661000214786"><ele>111.4</ele><time>2026-05-01T09:23:49Z</time></trkpt><trkpt lat="44.99116795827838" lon="9.474544428827443"><ele>111.8</ele><time>2026-05-01T09:23:50Z</time></trkpt><trkpt lat="44.991209062843616" lon="9.474407762118998"><ele>112.20000000000002</ele><time>2026-05-01T09:23:51Z</time></trkpt><trkpt lat="44.99123272394898" lon="9.474260675784219"><ele>112.60000000000001</ele><time>2026-05-01T09:23:52Z</time></trkpt><trkpt lat="44.99123488662332" lon="9.47410397222838"><ele>113.0</ele><time>2026-05-01T09:23:53Z</time></trkpt><trkpt lat="44.991214402125415" lon="9.473937743564612"><ele>113.5</ele><time>2026-05-01T09:23:54Z</time></trkpt><trkpt lat="44.99118129433668" lon="9.473758136639509"><ele>114.0</ele><time>2026-05-01T09:23:55Z</time></trkpt><trkpt lat="44.99116868113108" lon="9.473574509278617"><ele>114.5</ele><time>2026-05-01T09:23:56Z</time></trkpt><trkpt lat="44.9911486097458" lon="9.473405568469387"><ele>115.0</ele><time>2026-05-01T09:23:57Z</time></trkpt><trkpt lat="44.991151386173215" lon="9.473239679575409"><ele>115.0</ele><time>2026-05-01T09:23:58Z</time></trkpt><trkpt lat="44.991102063694655" lon="9.473051800108271"><ele>115.0</ele><time>2026-05-01T09:23:59Z</time></trkpt><trkpt lat="44.99108513805166" lon="9.472866396288673"><ele>115.0</ele><time>2026-05-01T09:24:00Z</time></trkpt><trkpt lat="44.99106801903756" lon="9.47267801084783"><ele>115.0</ele><time>2026-05-01T09:24:01Z</time></trkpt><trkpt lat="44.991052257644775" lon="9.472499197971846"><ele>115.2</ele><time>2026-05-01T09:24:02Z</time></trkpt><trkpt lat="44.991035564398075" lon="9.472330795147846"><ele>115.4</ele><time>2026-05-01T09:24:03Z</time></trkpt><trkpt lat="44.99103370124099" lon="9.472176888069027"><ele>115.6</ele><time>2026-05-01T09:24:04Z</time></trkpt><trkpt lat="44.99103852839984" lon="9.472018962137692"><ele>115.8</ele><time>2026-05-01T09:24:05Z</time></trkpt><trkpt lat="44.99107288923531" lon="9.471884238678314"><ele>116.0</ele><time>2026-05-01T09:24:06Z</time></trkpt><trkpt lat="44.99109688110664" lon="9.471758964663053"><ele>116.33333333333333</ele><time>2026-05-01T09:24:07Z</time></trkpt><trkpt lat="44.991109253548466" lon="9.471647699712141"><ele>116.66666666666666</ele><time>2026-05-01T09:24:08Z</time></trkpt><trkpt lat="44.99113204056824" lon="9.47153767114203"><ele>117.0</ele><time>2026-05-01T09:24:09Z</time></trkpt><trkpt lat="44.991147161293966" lon="9.471436533307337"><ele>117.33333333333334</ele><time>2026-05-01T09:24:10Z</time></trkpt><trkpt lat="44.991178820214564" lon="9.471354376269243"><ele>117.66666666666667</ele><time>2026-05-01T09:24:11Z</time></trkpt><trkpt lat="44.991190661737264" lon="9.471228019507453"><ele>118.0</ele><time>2026-05-01T09:24:13Z</time></trkpt><trkpt lat="44.99122059266622" lon="9.471146586682716"><ele>118.0</ele><time>2026-05-01T09:24:17Z</time></trkpt><trkpt lat="44.991074005294365" lon="9.471120908277301"><ele>118.00000000000001</ele><time>2026-05-01T09:24:54Z</time></trkpt><trkpt lat="44.99099935480754" lon="9.471086562220048"><ele>118.00000000000001</ele><time>2026-05-01T09:24:55Z</time></trkpt><trkpt lat="44.99091101247166" lon="9.47103040587367"><ele>118.0</ele><time>2026-05-01T09:24:56Z</time></trkpt><trkpt lat="44.990816201651256" lon="9.470953581276046"><ele>118.0</ele><time>2026-05-01T09:24:57Z</time></trkpt><trkpt lat="44.99074243780563" lon="9.470824966627331"><ele>118.5</ele><time>2026-05-01T09:24:58Z</time></trkpt><trkpt lat="44.990617102444666" lon="9.470729423682561"><ele>119.0</ele><time>2026-05-01T09:24:59Z</time></trkpt><trkpt lat="44.99048507449551" lon="9.470664904094987"><ele>119.5</ele><time>2026-05-01T09:25:00Z</time></trkpt><trkpt lat="44.99036372829385" lon="9.47061405187992"><ele>120.0</ele><time>2026-05-01T09:25:01Z</time></trkpt><trkpt lat="44.990250351969635" lon="9.470573953241596"><ele>120.0</ele><time>2026-05-01T09:25:02Z</time></trkpt><trkpt lat="44.990145094115476" lon="9.470537562234256"><ele>120.0</ele><time>2026-05-01T09:25:03Z</time></trkpt><trkpt lat="44.99004998313975" lon="9.470501734050657"><ele>120.0</ele><time>2026-05-01T09:25:04Z</time></trkpt><trkpt lat="44.98996538130679" lon="9.470467535790139"><ele>120.0</ele><time>2026-05-01T09:25:05Z</time></trkpt><trkpt lat="44.989889551793645" lon="9.470427185235156"><ele>120.0</ele><time>2026-05-01T09:25:06Z</time></trkpt><trkpt lat="44.9898210618765" lon="9.47037492861819"><ele>120.2</ele><time>2026-05-01T09:25:07Z</time></trkpt><trkpt lat="44.989747364498676" lon="9.470313341130673"><ele>120.4</ele><time>2026-05-01T09:25:08Z</time></trkpt><trkpt lat="44.98968841466261" lon="9.470189622748437"><ele>120.6</ele><time>2026-05-01T09:25:09Z</time></trkpt><trkpt lat="44.989617570686924" lon="9.470057852059798"><ele>120.8</ele><time>2026-05-01T09:25:10Z</time></trkpt><trkpt lat="44.98954118166845" lon="9.469917477039184"><ele>121.0</ele><time>2026-05-01T09:25:11Z</time></trkpt><trkpt lat="44.98945319247172" lon="9.469778942453866"><ele>121.0</ele><time>2026-05-01T09:25:12Z</time></trkpt><trkpt lat="44.989366323867515" lon="9.46963289272561"><ele>121.0</ele><time>2026-05-01T09:25:13Z</time></trkpt><trkpt lat="44.989283097123696" lon="9.469477215272885"><ele>121.0</ele><time>2026-05-01T09:25:14Z</time></trkpt><trkpt lat="44.9892139070558" lon="9.469323194092246"><ele>121.0</ele><time>2026-05-01T09:25:15Z</time></trkpt><trkpt lat="44.98916197101027" lon="9.469182484833173"><ele>120.8</ele><time>2026-05-01T09:25:16Z</time></trkpt><trkpt lat="44.989144748049625" lon="9.469034514579382"><ele>120.6</ele><time>2026-05-01T09:25:17Z</time></trkpt><trkpt lat="44.98919559464839" lon="9.468902521326285"><ele>120.4</ele><time>2026-05-01T09:25:18Z</time></trkpt><trkpt lat="44.98925763939262" lon="9.468774938819607"><ele>120.2</ele><time>2026-05-01T09:25:19Z</time></trkpt><trkpt lat="44.98931580581664" lon="9.468628446416975"><ele>120.0</ele><time>2026-05-01T09:25:20Z</time></trkpt><trkpt lat="44.989353195646096" lon="9.468468857996967"><ele>120.25</ele><time>2026-05-01T09:25:21Z</time></trkpt><trkpt lat="44.98933196117734" lon="9.46831252347093"><ele>120.5</ele><time>2026-05-01T09:25:22Z</time></trkpt><trkpt lat="44.98928355963987" lon="9.468171196584782"><ele>120.75</ele><time>2026-05-01T09:25:23Z</time></trkpt><trkpt lat="44.9892014597684" lon="9.468031140036397"><ele>121.0</ele><time>2026-05-01T09:25:24Z</time></trkpt><trkpt lat="44.9891138045237" lon="9.467882202574742"><ele>121.0</ele><time>2026-05-01T09:25:25Z</time></trkpt><trkpt lat="44.989037852206295" lon="9.46770241460616"><ele>121.0</ele><time>2026-05-01T09:25:26Z</time></trkpt><trkpt lat="44.988935877120774" lon="9.467552358751972"><ele>121.0</ele><time>2026-05-01T09:25:27Z</time></trkpt><trkpt lat="44.98884835494295" lon="9.467379235224993"><ele>121.0</ele><time>2026-05-01T09:25:28Z</time></trkpt><trkpt lat="44.9887654855111" lon="9.46718788694908"><ele>120.66666666666667</ele><time>2026-05-01T09:25:29Z</time></trkpt><trkpt lat="44.98865497991884" lon="9.467013830914635"><ele>120.33333333333334</ele><time>2026-05-01T09:25:30Z</time></trkpt><trkpt lat="44.988562788421866" lon="9.46682319663032"><ele>120.0</ele><time>2026-05-01T09:25:31Z</time></trkpt><trkpt lat="44.98848725755608" lon="9.466621611999761"><ele>120.0</ele><time>2026-05-01T09:25:32Z</time></trkpt><trkpt lat="44.98840540749957" lon="9.46642318271713"><ele>120.0</ele><time>2026-05-01T09:25:33Z</time></trkpt><trkpt lat="44.98833564109425" lon="9.466215969105997"><ele>120.0</ele><time>2026-05-01T09:25:34Z</time></trkpt><trkpt lat="44.98827116999879" lon="9.466002690347059"><ele>120.66666666666666</ele><time>2026-05-01T09:25:35Z</time></trkpt><trkpt lat="44.98821039861146" lon="9.465784590353705"><ele>121.33333333333333</ele><time>2026-05-01T09:25:36Z</time></trkpt><trkpt lat="44.98813571685331" lon="9.465575434734744"><ele>122.0</ele><time>2026-05-01T09:25:37Z</time></trkpt><trkpt lat="44.98809483940135" lon="9.465366512444458"><ele>122.0</ele><time>2026-05-01T09:25:38Z</time></trkpt><trkpt lat="44.98804380534743" lon="9.465171723733336"><ele>122.0</ele><time>2026-05-01T09:25:39Z</time></trkpt><trkpt lat="44.987998494358926" lon="9.464984820731296"><ele>122.0</ele><time>2026-05-01T09:25:40Z</time></trkpt><trkpt lat="44.98795251017518" lon="9.464809533617554"><ele>122.0</ele><time>2026-05-01T09:25:41Z</time></trkpt><trkpt lat="44.98794681096678" lon="9.464634519099372"><ele>122.19999999999999</ele><time>2026-05-01T09:25:42Z</time></trkpt><trkpt lat="44.98798679663599" lon="9.464483517256586"><ele>122.39999999999999</ele><time>2026-05-01T09:25:43Z</time></trkpt><trkpt lat="44.98803055562082" lon="9.464343063757154"><ele>122.60000000000001</ele><time>2026-05-01T09:25:44Z</time></trkpt><trkpt lat="44.98804926449478" lon="9.464203712859076"><ele>122.80000000000001</ele><time>2026-05-01T09:25:45Z</time></trkpt><trkpt lat="44.9880378335173" lon="9.464055126051376"><ele>123.0</ele><time>2026-05-01T09:25:46Z</time></trkpt><trkpt lat="44.98798777067898" lon="9.463907935367375"><ele>123.0</ele><time>2026-05-01T09:25:47Z</time></trkpt><trkpt lat="44.98792845718511" lon="9.46377567436917"><ele>123.0</ele><time>2026-05-01T09:25:48Z</time></trkpt><trkpt lat="44.98786183990918" lon="9.4636486187255"><ele>123.0</ele><time>2026-05-01T09:25:49Z</time></trkpt><trkpt lat="44.98779187429488" lon="9.46351371770027"><ele>123.0</ele><time>2026-05-01T09:25:50Z</time></trkpt><trkpt lat="44.98771621937369" lon="9.463372325373337"><ele>123.0</ele><time>2026-05-01T09:25:51Z</time></trkpt><trkpt lat="44.98762654699345" lon="9.463241733788708"><ele>123.0</ele><time>2026-05-01T09:25:52Z</time></trkpt><trkpt lat="44.98755128843267" lon="9.463086929582342"><ele>123.0</ele><time>2026-05-01T09:25:53Z</time></trkpt><trkpt lat="44.98746276611017" lon="9.462933321252216"><ele>123.0</ele><time>2026-05-01T09:25:54Z</time></trkpt><trkpt lat="44.98737394760795" lon="9.462773391503028"><ele>122.75</ele><time>2026-05-01T09:25:55Z</time></trkpt><trkpt lat="44.987284241253796" lon="9.462604528835607"><ele>122.5</ele><time>2026-05-01T09:25:56Z</time></trkpt><trkpt lat="44.98719648962311" lon="9.462431142507524"><ele>122.25</ele><time>2026-05-01T09:25:57Z</time></trkpt><trkpt lat="44.98713991691381" lon="9.462245549615282"><ele>122.0</ele><time>2026-05-01T09:25:58Z</time></trkpt><trkpt lat="44.98708788433316" lon="9.462090182247213"><ele>122.5</ele><time>2026-05-01T09:25:59Z</time></trkpt><trkpt lat="44.987058146362074" lon="9.461975687816139"><ele>123.0</ele><time>2026-05-01T09:26:00Z</time></trkpt><trkpt lat="44.987034146208515" lon="9.461864073274812"><ele>123.5</ele><time>2026-05-01T09:26:02Z</time></trkpt><trkpt lat="44.98685228944469" lon="9.461918902364072"><ele>124.0</ele><time>2026-05-01T09:26:06Z</time></trkpt><trkpt lat="44.98672705894728" lon="9.461907540353128"><ele>124.0</ele><time>2026-05-01T09:26:08Z</time></trkpt><trkpt lat="44.98665312313233" lon="9.461811988941196"><ele>124.0</ele><time>2026-05-01T09:26:09Z</time></trkpt><trkpt lat="44.98655475093451" lon="9.461749473536223"><ele>124.0</ele><time>2026-05-01T09:26:10Z</time></trkpt><trkpt lat="44.986463184113106" lon="9.461666158955348"><ele>124.0</ele><time>2026-05-01T09:26:11Z</time></trkpt><trkpt lat="44.986365768964845" lon="9.46156862648353"><ele>124.0</ele><time>2026-05-01T09:26:12Z</time></trkpt><trkpt lat="44.986260303194484" lon="9.46147344221018"><ele>124.0</ele><time>2026-05-01T09:26:13Z</time></trkpt><trkpt lat="44.98614941127459" lon="9.461373082766587"><ele>124.0</ele><time>2026-05-01T09:26:14Z</time></trkpt><trkpt lat="44.9860323946883" lon="9.461273154805006"><ele>124.0</ele><time>2026-05-01T09:26:15Z</time></trkpt><trkpt lat="44.98591345080096" lon="9.461160404614732"><ele>124.0</ele><time>2026-05-01T09:26:16Z</time></trkpt><trkpt lat="44.985801027940425" lon="9.461025324626966"><ele>124.75</ele><time>2026-05-01T09:26:17Z</time></trkpt><trkpt lat="44.98566703049233" lon="9.460925226210781"><ele>125.5</ele><time>2026-05-01T09:26:18Z</time></trkpt><trkpt lat="44.985554703013115" lon="9.460809972002433"><ele>126.25</ele><time>2026-05-01T09:26:19Z</time></trkpt><trkpt lat="44.98542617902541" lon="9.46069365758518"><ele>127.0</ele><time>2026-05-01T09:26:20Z</time></trkpt><trkpt lat="44.98532303578798" lon="9.460601861804804"><ele>127.0</ele><time>2026-05-01T09:26:21Z</time></trkpt><trkpt lat="44.98524619180066" lon="9.46050266347708"><ele>126.99999999999999</ele><time>2026-05-01T09:26:22Z</time></trkpt><trkpt lat="44.98517508796578" lon="9.460460189157246"><ele>126.99999999999999</ele><time>2026-05-01T09:26:23Z</time></trkpt><trkpt lat="44.98507278123586" lon="9.46036312459113"><ele>127.0</ele><time>2026-05-01T09:26:25Z</time></trkpt><trkpt lat="44.98504282413501" lon="9.460260736830916"><ele>127.0</ele><time>2026-05-01T09:26:27Z</time></trkpt><trkpt lat="44.98509282108835" lon="9.460115641895264"><ele>127.00000000000001</ele><time>2026-05-01T09:26:29Z</time></trkpt><trkpt lat="44.9851226185355" lon="9.460004786947723"><ele>127.0</ele><time>2026-05-01T09:26:30Z</time></trkpt><trkpt lat="44.985154574575574" lon="9.459871051654098"><ele>127.0</ele><time>2026-05-01T09:26:31Z</time></trkpt><trkpt lat="44.98518822602999" lon="9.459741046652487"><ele>127.0</ele><time>2026-05-01T09:26:32Z</time></trkpt><trkpt lat="44.985218231856585" lon="9.459633327556123"><ele>127.00000000000001</ele><time>2026-05-01T09:26:33Z</time></trkpt><trkpt lat="44.98524129152038" lon="9.459538778669117"><ele>127.0</ele><time>2026-05-01T09:26:34Z</time></trkpt><trkpt lat="44.98526407081515" lon="9.45940577916024"><ele>127.0</ele><time>2026-05-01T09:26:36Z</time></trkpt><trkpt lat="44.985142303772804" lon="9.459286315097346"><ele>126.99999999999999</ele><time>2026-05-01T09:26:39Z</time></trkpt><trkpt lat="44.98506198925182" lon="9.459281889237559"><ele>126.99999999999999</ele><time>2026-05-01T09:26:40Z</time></trkpt><trkpt lat="44.98497005790064" lon="9.459249368132834"><ele>127.0</ele><time>2026-05-01T09:26:41Z</time></trkpt><trkpt lat="44.984862013036306" lon="9.4592337092487"><ele>127.0</ele><time>2026-05-01T09:26:42Z</time></trkpt><trkpt lat="44.98474617424371" lon="9.459215856123945"><ele>127.0</ele><time>2026-05-01T09:26:43Z</time></trkpt><trkpt lat="44.98462434565169" lon="9.459197164518585"><ele>127.0</ele><time>2026-05-01T09:26:44Z</time></trkpt><trkpt lat="44.984497796322565" lon="9.459200674398263"><ele>127.0</ele><time>2026-05-01T09:26:45Z</time></trkpt><trkpt lat="44.9843538600715" lon="9.459172767151617"><ele>127.0</ele><time>2026-05-01T09:26:46Z</time></trkpt><trkpt lat="44.984209751208155" lon="9.45914494334301"><ele>128.0</ele><time>2026-05-01T09:26:47Z</time></trkpt><trkpt lat="44.98404943576917" lon="9.459122792257888"><ele>129.0</ele><time>2026-05-01T09:26:48Z</time></trkpt><trkpt lat="44.983882903645856" lon="9.459102053528634"><ele>130.0</ele><time>2026-05-01T09:26:49Z</time></trkpt><trkpt lat="44.98371667112613" lon="9.459075092184055"><ele>130.0</ele><time>2026-05-01T09:26:50Z</time></trkpt><trkpt lat="44.983561554452784" lon="9.45904896229952"><ele>130.0</ele><time>2026-05-01T09:26:51Z</time></trkpt><trkpt lat="44.98339315574992" lon="9.459015408975388"><ele>130.0</ele><time>2026-05-01T09:26:52Z</time></trkpt><trkpt lat="44.98323829237876" lon="9.45899290964089"><ele>130.2</ele><time>2026-05-01T09:26:53Z</time></trkpt><trkpt lat="44.983110068758705" lon="9.458974032504901"><ele>130.4</ele><time>2026-05-01T09:26:54Z</time></trkpt><trkpt lat="44.983006269141455" lon="9.458957025368784"><ele>130.6</ele><time>2026-05-01T09:26:55Z</time></trkpt><trkpt lat="44.9829376800936" lon="9.45894429030496"><ele>130.8</ele><time>2026-05-01T09:26:56Z</time></trkpt><trkpt lat="44.982868908457085" lon="9.458921908227309"><ele>131.0</ele><time>2026-05-01T09:26:59Z</time></trkpt><trkpt lat="44.982755567038" lon="9.458911854569704"><ele>131.0</ele><time>2026-05-01T09:27:54Z</time></trkpt><trkpt lat="44.98268335445909" lon="9.458896865282945"><ele>131.0</ele><time>2026-05-01T09:27:55Z</time></trkpt><trkpt lat="44.98259905310942" lon="9.458869011741994"><ele>131.0</ele><time>2026-05-01T09:27:56Z</time></trkpt><trkpt lat="44.98249990212845" lon="9.458880089437445"><ele>131.0</ele><time>2026-05-01T09:27:57Z</time></trkpt><trkpt lat="44.982389793009816" lon="9.45887117777725"><ele>131.0</ele><time>2026-05-01T09:27:58Z</time></trkpt><trkpt lat="44.98227317061718" lon="9.458858222873987"><ele>130.66666666666666</ele><time>2026-05-01T09:27:59Z</time></trkpt><trkpt lat="44.98214222722402" lon="9.458844712513935"><ele>130.33333333333334</ele><time>2026-05-01T09:28:00Z</time></trkpt><trkpt lat="44.98186200171089" lon="9.458800650500653"><ele>130.0</ele><time>2026-05-01T09:28:02Z</time></trkpt><trkpt lat="44.98172456853431" lon="9.45876868703707"><ele>130.0</ele><time>2026-05-01T09:28:03Z</time></trkpt><trkpt lat="44.9815872173842" lon="9.45875517185618"><ele>130.0</ele><time>2026-05-01T09:28:04Z</time></trkpt><trkpt lat="44.98146486330497" lon="9.458740641137185"><ele>130.0</ele><time>2026-05-01T09:28:05Z</time></trkpt><trkpt lat="44.9813416198664" lon="9.45873380423981"><ele>130.0</ele><time>2026-05-01T09:28:06Z</time></trkpt><trkpt lat="44.98122057180099" lon="9.45873624496957"><ele>130.0</ele><time>2026-05-01T09:28:07Z</time></trkpt><trkpt lat="44.98110871251437" lon="9.458681609295654"><ele>130.0</ele><time>2026-05-01T09:28:08Z</time></trkpt><trkpt lat="44.9810005959459" lon="9.458613461374505"><ele>130.0</ele><time>2026-05-01T09:28:09Z</time></trkpt><trkpt lat="44.980888711969804" lon="9.458515027101395"><ele>130.0</ele><time>2026-05-01T09:28:10Z</time></trkpt><trkpt lat="44.9807563429836" lon="9.458424209661642"><ele>130.66666666666669</ele><time>2026-05-01T09:28:11Z</time></trkpt><trkpt lat="44.98061141326867" lon="9.458362717997668"><ele>131.33333333333334</ele><time>2026-05-01T09:28:12Z</time></trkpt><trkpt lat="44.9804621675312" lon="9.458275435368146"><ele>132.0</ele><time>2026-05-01T09:28:13Z</time></trkpt><trkpt lat="44.98033261860224" lon="9.458187329449398"><ele>132.0</ele><time>2026-05-01T09:28:14Z</time></trkpt><trkpt lat="44.98023298545739" lon="9.45808217159717"><ele>132.0</ele><time>2026-05-01T09:28:15Z</time></trkpt><trkpt lat="44.9801364875239" lon="9.458002521626378"><ele>132.0</ele><time>2026-05-01T09:28:16Z</time></trkpt><trkpt lat="44.98006120824451" lon="9.457934570196299"><ele>132.0</ele><time>2026-05-01T09:28:17Z</time></trkpt><trkpt lat="44.98000175148816" lon="9.457877639773487"><ele>132.0</ele><time>2026-05-01T09:28:18Z</time></trkpt><trkpt lat="44.979948770468546" lon="9.457827030078072"><ele>131.66666666666666</ele><time>2026-05-01T09:28:19Z</time></trkpt><trkpt lat="44.9798305157588" lon="9.457772403123554"><ele>131.33333333333331</ele><time>2026-05-01T09:28:21Z</time></trkpt><trkpt lat="44.979753782833136" lon="9.457745352290027"><ele>131.0</ele><time>2026-05-01T09:28:23Z</time></trkpt><trkpt lat="44.979665202009855" lon="9.45809920319794"><ele>131.0</ele><time>2026-05-01T09:28:25Z</time></trkpt><trkpt lat="44.97962470828097" lon="9.458217231558983"><ele>131.0</ele><time>2026-05-01T09:28:26Z</time></trkpt><trkpt lat="44.97956807065171" lon="9.4583526871067"><ele>131.0</ele><time>2026-05-01T09:28:27Z</time></trkpt><trkpt lat="44.97950429429145" lon="9.458502854066106"><ele>131.0</ele><time>2026-05-01T09:28:28Z</time></trkpt><trkpt lat="44.979424378575864" lon="9.458632423891105"><ele>131.0</ele><time>2026-05-01T09:28:29Z</time></trkpt><trkpt lat="44.97934276026271" lon="9.458722204960107"><ele>131.0</ele><time>2026-05-01T09:28:30Z</time></trkpt><trkpt lat="44.97927902848888" lon="9.458785939098966"><ele>131.0</ele><time>2026-05-01T09:28:31Z</time></trkpt><trkpt lat="44.979217254995106" lon="9.458839658243328"><ele>131.0</ele><time>2026-05-01T09:28:32Z</time></trkpt><trkpt lat="44.979136864683625" lon="9.458886385252573"><ele>131.0</ele><time>2026-05-01T09:28:34Z</time></trkpt><trkpt lat="44.97905861188348" lon="9.458918793350005"><ele>131.0</ele><time>2026-05-01T09:28:36Z</time></trkpt><trkpt lat="44.97894553397886" lon="9.45889871668473"><ele>131.16666666666666</ele><time>2026-05-01T09:28:38Z</time></trkpt><trkpt lat="44.9788707915289" lon="9.458872963407934"><ele>131.33333333333331</ele><time>2026-05-01T09:28:39Z</time></trkpt><trkpt lat="44.978803933204745" lon="9.45881317538363"><ele>131.5</ele><time>2026-05-01T09:28:40Z</time></trkpt><trkpt lat="44.978740638546434" lon="9.458735977800114"><ele>131.66666666666666</ele><time>2026-05-01T09:28:41Z</time></trkpt><trkpt lat="44.97867240057263" lon="9.458663060673643"><ele>131.83333333333334</ele><time>2026-05-01T09:28:42Z</time></trkpt><trkpt lat="44.9786058929206" lon="9.458589459273323"><ele>132.0</ele><time>2026-05-01T09:28:43Z</time></trkpt><trkpt lat="44.97853153245538" lon="9.458510345597116"><ele>132.0</ele><time>2026-05-01T09:28:44Z</time></trkpt><trkpt lat="44.97844758633761" lon="9.458423504523807"><ele>132.0</ele><time>2026-05-01T09:28:45Z</time></trkpt><trkpt lat="44.97837407404202" lon="9.458336994501762"><ele>132.0</ele><time>2026-05-01T09:28:46Z</time></trkpt><trkpt lat="44.97829644093657" lon="9.458297631111105"><ele>132.0</ele><time>2026-05-01T09:28:47Z</time></trkpt><trkpt lat="44.978195843390544" lon="9.458279845343299"><ele>132.0</ele><time>2026-05-01T09:28:48Z</time></trkpt><trkpt lat="44.97809180756651" lon="9.458250652772414"><ele>131.75</ele><time>2026-05-01T09:28:49Z</time></trkpt><trkpt lat="44.977973520352776" lon="9.458213592332838"><ele>131.5</ele><time>2026-05-01T09:28:50Z</time></trkpt><trkpt lat="44.977849386761065" lon="9.45817994258055"><ele>131.25</ele><time>2026-05-01T09:28:51Z</time></trkpt><trkpt lat="44.97771389796127" lon="9.458154481008105"><ele>131.0</ele><time>2026-05-01T09:28:52Z</time></trkpt><trkpt lat="44.97759696299075" lon="9.458126288766069"><ele>131.0</ele><time>2026-05-01T09:28:53Z</time></trkpt><trkpt lat="44.97745336319098" lon="9.458062152216673"><ele>131.0</ele><time>2026-05-01T09:28:54Z</time></trkpt><trkpt lat="44.97731905527401" lon="9.458007710629944"><ele>131.0</ele><time>2026-05-01T09:28:55Z</time></trkpt><trkpt lat="44.97719690235898" lon="9.457968947043199"><ele>131.0</ele><time>2026-05-01T09:28:56Z</time></trkpt><trkpt lat="44.97707711322924" lon="9.457935835948676"><ele>131.0</ele><time>2026-05-01T09:28:57Z</time></trkpt><trkpt lat="44.97697203189185" lon="9.45789469382595"><ele>131.0</ele><time>2026-05-01T09:28:58Z</time></trkpt><trkpt lat="44.97687310988771" lon="9.45784405200853"><ele>131.0</ele><time>2026-05-01T09:28:59Z</time></trkpt><trkpt lat="44.97679439255039" lon="9.457779321745837"><ele>131.0</ele><time>2026-05-01T09:29:00Z</time></trkpt><trkpt lat="44.97671059146377" lon="9.45767859313884"><ele>131.0</ele><time>2026-05-01T09:29:01Z</time></trkpt><trkpt lat="44.976619597804735" lon="9.457554293413649"><ele>130.75</ele><time>2026-05-01T09:29:02Z</time></trkpt><trkpt lat="44.97652547852827" lon="9.457426734443105"><ele>130.5</ele><time>2026-05-01T09:29:03Z</time></trkpt><trkpt lat="44.97644991192794" lon="9.457289984486412"><ele>130.25</ele><time>2026-05-01T09:29:04Z</time></trkpt><trkpt lat="44.97638222205777" lon="9.457170191953095"><ele>130.0</ele><time>2026-05-01T09:29:05Z</time></trkpt><trkpt lat="44.97631920898858" lon="9.457047986629222"><ele>130.0</ele><time>2026-05-01T09:29:06Z</time></trkpt><trkpt lat="44.97626467174038" lon="9.456909776200705"><ele>130.0</ele><time>2026-05-01T09:29:07Z</time></trkpt><trkpt lat="44.97622125526752" lon="9.45675657457977"><ele>130.0</ele><time>2026-05-01T09:29:08Z</time></trkpt><trkpt lat="44.976156062140916" lon="9.456607821616313"><ele>130.0</ele><time>2026-05-01T09:29:09Z</time></trkpt><trkpt lat="44.97608094805505" lon="9.45647474265428"><ele>130.0</ele><time>2026-05-01T09:29:10Z</time></trkpt><trkpt lat="44.97599424439936" lon="9.456352203769711"><ele>130.0</ele><time>2026-05-01T09:29:11Z</time></trkpt><trkpt lat="44.97590137249987" lon="9.456240833043713"><ele>130.0</ele><time>2026-05-01T09:29:12Z</time></trkpt><trkpt lat="44.975801350980156" lon="9.456143484405716"><ele>130.0</ele><time>2026-05-01T09:29:13Z</time></trkpt><trkpt lat="44.975687070621916" lon="9.456048446064106"><ele>130.0</ele><time>2026-05-01T09:29:14Z</time></trkpt><trkpt lat="44.97557876142062" lon="9.455941388173457"><ele>130.0</ele><time>2026-05-01T09:29:15Z</time></trkpt><trkpt lat="44.97548169391106" lon="9.45581817521213"><ele>130.0</ele><time>2026-05-01T09:29:16Z</time></trkpt><trkpt lat="44.975406771873054" lon="9.455689854787854"><ele>130.0</ele><time>2026-05-01T09:29:17Z</time></trkpt><trkpt lat="44.975344453069944" lon="9.455565539458663"><ele>130.0</ele><time>2026-05-01T09:29:18Z</time></trkpt><trkpt lat="44.97527072786838" lon="9.455463339236866"><ele>130.0</ele><time>2026-05-01T09:29:19Z</time></trkpt><trkpt lat="44.97518778252167" lon="9.455387137233267"><ele>130.0</ele><time>2026-05-01T09:29:20Z</time></trkpt><trkpt lat="44.975082355850695" lon="9.455306600942299"><ele>130.0</ele><time>2026-05-01T09:29:21Z</time></trkpt><trkpt lat="44.97497746807931" lon="9.455233796606459"><ele>130.0</ele><time>2026-05-01T09:29:22Z</time></trkpt><trkpt lat="44.974906086642655" lon="9.455152077517882"><ele>130.4</ele><time>2026-05-01T09:29:23Z</time></trkpt><trkpt lat="44.974847836857165" lon="9.455040809601602"><ele>130.8</ele><time>2026-05-01T09:29:24Z</time></trkpt><trkpt lat="44.97480704745337" lon="9.454918707270716"><ele>131.2</ele><time>2026-05-01T09:29:25Z</time></trkpt><trkpt lat="44.974787036002326" lon="9.454825647568606"><ele>131.6</ele><time>2026-05-01T09:29:26Z</time></trkpt><trkpt lat="44.97474640646673" lon="9.454698458572164"><ele>132.0</ele><time>2026-05-01T09:29:28Z</time></trkpt><trkpt lat="44.974659058619196" lon="9.454625377997743"><ele>132.28571428571428</ele><time>2026-05-01T09:29:30Z</time></trkpt><trkpt lat="44.97459809059849" lon="9.454602962986911"><ele>132.57142857142858</ele><time>2026-05-01T09:29:31Z</time></trkpt><trkpt lat="44.97452554243106" lon="9.454550553301544"><ele>132.85714285714286</ele><time>2026-05-01T09:29:33Z</time></trkpt><trkpt lat="44.97446499210145" lon="9.454483030753508"><ele>133.14285714285714</ele><time>2026-05-01T09:30:34Z</time></trkpt><trkpt lat="44.97440092852961" lon="9.454429014418642"><ele>133.42857142857142</ele><time>2026-05-01T09:33:20Z</time></trkpt><trkpt lat="44.97435194666368" lon="9.45436717360435"><ele>133.71428571428572</ele><time>2026-05-01T09:33:22Z</time></trkpt><trkpt lat="44.974292559901635" lon="9.454308214691366"><ele>134.0</ele><time>2026-05-01T09:33:24Z</time></trkpt><trkpt lat="44.97422479315811" lon="9.454241214350445"><ele>134.0</ele><time>2026-05-01T09:33:26Z</time></trkpt><trkpt lat="44.97416576567081" lon="9.454148599733514"><ele>134.0</ele><time>2026-05-01T09:33:28Z</time></trkpt><trkpt lat="44.9740939861559" lon="9.454062686417444"><ele>134.0</ele><time>2026-05-01T09:33:30Z</time></trkpt><trkpt lat="44.97400627947337" lon="9.453993968108719"><ele>134.0</ele><time>2026-05-01T09:33:32Z</time></trkpt><trkpt lat="44.973923101658684" lon="9.453915153570602"><ele>134.0</ele><time>2026-05-01T09:33:34Z</time></trkpt><trkpt lat="44.973840809451104" lon="9.453858091316322"><ele>134.0</ele><time>2026-05-01T09:33:36Z</time></trkpt><trkpt lat="44.97375747564359" lon="9.453797914893082"><ele>134.0</ele><time>2026-05-01T09:33:38Z</time></trkpt><trkpt lat="44.97373123748267" lon="9.453678308014085"><ele>134.0</ele><time>2026-05-01T09:33:40Z</time></trkpt><trkpt lat="44.973735330751644" lon="9.45355260636962"><ele>134.0</ele><time>2026-05-01T09:33:42Z</time></trkpt><trkpt lat="44.97372133383133" lon="9.453420444451211"><ele>134.0</ele><time>2026-05-01T09:33:44Z</time></trkpt><trkpt lat="44.973681235163916" lon="9.453275911986225"><ele>134.4</ele><time>2026-05-01T09:33:46Z</time></trkpt><trkpt lat="44.973668254304854" lon="9.453145154633447"><ele>134.8</ele><time>2026-05-01T09:33:48Z</time></trkpt><trkpt lat="44.973675001637886" lon="9.453016845210099"><ele>135.2</ele><time>2026-05-01T09:33:50Z</time></trkpt><trkpt lat="44.97368204690398" lon="9.452870625340413"><ele>135.6</ele><time>2026-05-01T09:33:52Z</time></trkpt><trkpt lat="44.97366096519624" lon="9.452723517341678"><ele>136.0</ele><time>2026-05-01T09:33:54Z</time></trkpt><trkpt lat="44.97361359213965" lon="9.452558395820533"><ele>136.0</ele><time>2026-05-01T09:33:56Z</time></trkpt><trkpt lat="44.9735721278129" lon="9.452477130763098"><ele>136.0</ele><time>2026-05-01T09:33:57Z</time></trkpt><trkpt lat="44.97351396748571" lon="9.452392565247505"><ele>136.0</ele><time>2026-05-01T09:33:58Z</time></trkpt><trkpt lat="44.97345836666327" lon="9.452304998402951"><ele>136.0</ele><time>2026-05-01T09:33:59Z</time></trkpt><trkpt lat="44.973397939765945" lon="9.452226401198608"><ele>136.0</ele><time>2026-05-01T09:34:00Z</time></trkpt><trkpt lat="44.973314372728495" lon="9.452158574722432"><ele>136.0</ele><time>2026-05-01T09:34:01Z</time></trkpt><trkpt lat="44.973228844801575" lon="9.452077001777738"><ele>136.0</ele><time>2026-05-01T09:34:02Z</time></trkpt><trkpt lat="44.97315041932652" lon="9.45199062425238"><ele>136.0</ele><time>2026-05-01T09:34:03Z</time></trkpt><trkpt lat="44.97306447549203" lon="9.451903094001656"><ele>136.0</ele><time>2026-05-01T09:34:04Z</time></trkpt><trkpt lat="44.97297241265911" lon="9.45183015698172"><ele>136.0</ele><time>2026-05-01T09:34:05Z</time></trkpt><trkpt lat="44.97287368933641" lon="9.451756236508396"><ele>136.0</ele><time>2026-05-01T09:34:06Z</time></trkpt><trkpt lat="44.97277644012728" lon="9.451685571920436"><ele>136.0</ele><time>2026-05-01T09:34:07Z</time></trkpt><trkpt lat="44.972686408999714" lon="9.451600388757983"><ele>136.0</ele><time>2026-05-01T09:34:08Z</time></trkpt><trkpt lat="44.97260053003401" lon="9.451491884244437"><ele>136.0</ele><time>2026-05-01T09:34:09Z</time></trkpt><trkpt lat="44.97250182032583" lon="9.451389006549821"><ele>136.0</ele><time>2026-05-01T09:34:10Z</time></trkpt><trkpt lat="44.97240528448153" lon="9.451294777781648"><ele>135.8</ele><time>2026-05-01T09:34:11Z</time></trkpt><trkpt lat="44.972321298268554" lon="9.451212324095568"><ele>135.6</ele><time>2026-05-01T09:34:12Z</time></trkpt><trkpt lat="44.97224455849191" lon="9.451138934920236"><ele>135.4</ele><time>2026-05-01T09:34:13Z</time></trkpt><trkpt lat="44.972179541214665" lon="9.451082544947303"><ele>135.2</ele><time>2026-05-01T09:34:14Z</time></trkpt><trkpt lat="44.97208129595599" lon="9.450996170450445"><ele>135.0</ele><time>2026-05-01T09:34:16Z</time></trkpt><trkpt lat="44.972001540972265" lon="9.450885804395382"><ele>135.0</ele><time>2026-05-01T09:34:18Z</time></trkpt><trkpt lat="44.97189418991282" lon="9.450801824908591"><ele>135.0</ele><time>2026-05-01T09:34:20Z</time></trkpt><trkpt lat="44.971828512739016" lon="9.450727777830904"><ele>135.0</ele><time>2026-05-01T09:34:21Z</time></trkpt><trkpt lat="44.971763494659704" lon="9.450638149800287"><ele>135.0</ele><time>2026-05-01T09:34:22Z</time></trkpt><trkpt lat="44.971695544663866" lon="9.450517191126862"><ele>135.0</ele><time>2026-05-01T09:34:23Z</time></trkpt><trkpt lat="44.97162591471002" lon="9.450405586747507"><ele>134.5</ele><time>2026-05-01T09:34:24Z</time></trkpt><trkpt lat="44.971543765261906" lon="9.450300976856328"><ele>134.0</ele><time>2026-05-01T09:34:25Z</time></trkpt><trkpt lat="44.97145619882635" lon="9.450196927585981"><ele>133.5</ele><time>2026-05-01T09:34:26Z</time></trkpt><trkpt lat="44.97136259297679" lon="9.450084643538037"><ele>133.0</ele><time>2026-05-01T09:34:27Z</time></trkpt><trkpt lat="44.971266803298235" lon="9.449976808775958"><ele>133.0</ele><time>2026-05-01T09:34:28Z</time></trkpt><trkpt lat="44.97117780603998" lon="9.449864765982811"><ele>133.0</ele><time>2026-05-01T09:34:29Z</time></trkpt><trkpt lat="44.97110146265747" lon="9.44975429725319"><ele>133.0</ele><time>2026-05-01T09:34:30Z</time></trkpt><trkpt lat="44.971028063756386" lon="9.449659065850526"><ele>133.0</ele><time>2026-05-01T09:34:31Z</time></trkpt><trkpt lat="44.9709733953494" lon="9.449551470793699"><ele>133.0</ele><time>2026-05-01T09:34:32Z</time></trkpt><trkpt lat="44.97095889883224" lon="9.44943852173756"><ele>134.0</ele><time>2026-05-01T09:34:33Z</time></trkpt><trkpt lat="44.970940810595216" lon="9.449297952192317"><ele>135.0</ele><time>2026-05-01T09:34:34Z</time></trkpt><trkpt lat="44.97090589566713" lon="9.449142779590247"><ele>136.0</ele><time>2026-05-01T09:34:35Z</time></trkpt><trkpt lat="44.970861264459124" lon="9.448987777961683"><ele>137.0</ele><time>2026-05-01T09:34:36Z</time></trkpt><trkpt lat="44.97079126735275" lon="9.44884564099657"><ele>136.79999999999998</ele><time>2026-05-01T09:34:37Z</time></trkpt><trkpt lat="44.97074197185137" lon="9.448713679025461"><ele>136.6</ele><time>2026-05-01T09:34:38Z</time></trkpt><trkpt lat="44.97068480022994" lon="9.448590905691539"><ele>136.39999999999998</ele><time>2026-05-01T09:34:39Z</time></trkpt><trkpt lat="44.97061732265801" lon="9.448472762452063"><ele>136.2</ele><time>2026-05-01T09:34:40Z</time></trkpt><trkpt lat="44.97052631844847" lon="9.448360770439145"><ele>136.0</ele><time>2026-05-01T09:34:41Z</time></trkpt><trkpt lat="44.970438011163495" lon="9.448225590008704"><ele>136.0</ele><time>2026-05-01T09:34:42Z</time></trkpt><trkpt lat="44.970326921959284" lon="9.44811058104531"><ele>136.0</ele><time>2026-05-01T09:34:43Z</time></trkpt><trkpt lat="44.970246498484215" lon="9.447991468018232"><ele>136.0</ele><time>2026-05-01T09:34:44Z</time></trkpt><trkpt lat="44.970177780059124" lon="9.447877794439389"><ele>136.0</ele><time>2026-05-01T09:34:45Z</time></trkpt><trkpt lat="44.970114983529626" lon="9.447775908881713"><ele>136.0</ele><time>2026-05-01T09:34:46Z</time></trkpt><trkpt lat="44.9700596985498" lon="9.447659702969474"><ele>136.0</ele><time>2026-05-01T09:34:47Z</time></trkpt><trkpt lat="44.96999553517808" lon="9.447566616461133"><ele>136.0</ele><time>2026-05-01T09:34:48Z</time></trkpt><trkpt lat="44.96993085950573" lon="9.447511311969338"><ele>136.0</ele><time>2026-05-01T09:34:49Z</time></trkpt><trkpt lat="44.96985443684512" lon="9.44748742788485"><ele>136.0</ele><time>2026-05-01T09:34:50Z</time></trkpt><trkpt lat="44.969763380296634" lon="9.447527571082455"><ele>136.0</ele><time>2026-05-01T09:34:51Z</time></trkpt><trkpt lat="44.969666938569844" lon="9.447532973034413"><ele>137.0</ele><time>2026-05-01T09:34:52Z</time></trkpt><trkpt lat="44.969552920427574" lon="9.44752418650756"><ele>138.0</ele><time>2026-05-01T09:34:53Z</time></trkpt><trkpt lat="44.969444636016306" lon="9.447465667323316"><ele>139.0</ele><time>2026-05-01T09:34:54Z</time></trkpt><trkpt lat="44.96933369255573" lon="9.447410211445558"><ele>140.0</ele><time>2026-05-01T09:34:55Z</time></trkpt><trkpt lat="44.969211954266775" lon="9.44735892450407"><ele>140.2</ele><time>2026-05-01T09:34:56Z</time></trkpt><trkpt lat="44.969110409655606" lon="9.447287872059448"><ele>140.4</ele><time>2026-05-01T09:34:57Z</time></trkpt><trkpt lat="44.96902012850891" lon="9.447225684880683"><ele>140.6</ele><time>2026-05-01T09:34:58Z</time></trkpt><trkpt lat="44.968949256199494" lon="9.447143495717878"><ele>140.8</ele><time>2026-05-01T09:34:59Z</time></trkpt><trkpt lat="44.96887011085052" lon="9.44708695902021"><ele>141.0</ele><time>2026-05-01T09:35:00Z</time></trkpt><trkpt lat="44.968811593243316" lon="9.446980815841785"><ele>141.0</ele><time>2026-05-01T09:35:01Z</time></trkpt><trkpt lat="44.96878222753618" lon="9.446847762044806"><ele>141.0</ele><time>2026-05-01T09:35:02Z</time></trkpt><trkpt lat="44.96874024508233" lon="9.446726739566458"><ele>141.0</ele><time>2026-05-01T09:35:03Z</time></trkpt><trkpt lat="44.96869022593053" lon="9.44661717404345"><ele>141.0</ele><time>2026-05-01T09:35:04Z</time></trkpt><trkpt lat="44.9686128306203" lon="9.446513205357329"><ele>141.0</ele><time>2026-05-01T09:35:05Z</time></trkpt><trkpt lat="44.96853291765724" lon="9.446435276362669"><ele>141.0</ele><time>2026-05-01T09:35:06Z</time></trkpt><trkpt lat="44.968447914358364" lon="9.446369996177207"><ele>141.0</ele><time>2026-05-01T09:35:07Z</time></trkpt><trkpt lat="44.96838499729413" lon="9.446260806945052"><ele>141.0</ele><time>2026-05-01T09:35:08Z</time></trkpt><trkpt lat="44.968308970252345" lon="9.446159870985834"><ele>141.0</ele><time>2026-05-01T09:35:09Z</time></trkpt><trkpt lat="44.96823526930133" lon="9.446057089191818"><ele>141.0</ele><time>2026-05-01T09:35:10Z</time></trkpt><trkpt lat="44.96816691130223" lon="9.445959750086352"><ele>141.0</ele><time>2026-05-01T09:35:11Z</time></trkpt><trkpt lat="44.96809097592211" lon="9.445849237000344"><ele>141.0</ele><time>2026-05-01T09:35:12Z</time></trkpt><trkpt lat="44.96800703103671" lon="9.445744180515398"><ele>141.0</ele><time>2026-05-01T09:35:13Z</time></trkpt><trkpt lat="44.9679615398349" lon="9.445598896416586"><ele>141.0</ele><time>2026-05-01T09:35:14Z</time></trkpt><trkpt lat="44.9679112081482" lon="9.445457926512999"><ele>141.0</ele><time>2026-05-01T09:35:15Z</time></trkpt><trkpt lat="44.967864229083936" lon="9.445340001447281"><ele>141.0</ele><time>2026-05-01T09:35:16Z</time></trkpt><trkpt lat="44.967810314677024" lon="9.445239883521431"><ele>141.0</ele><time>2026-05-01T09:35:17Z</time></trkpt><trkpt lat="44.96775737286265" lon="9.445154026469512"><ele>141.0</ele><time>2026-05-01T09:35:18Z</time></trkpt><trkpt lat="44.96769039531119" lon="9.445079514533754"><ele>141.0</ele><time>2026-05-01T09:35:19Z</time></trkpt><trkpt lat="44.96763722330625" lon="9.445000372760559"><ele>141.0</ele><time>2026-05-01T09:35:20Z</time></trkpt><trkpt lat="44.96760339037157" lon="9.444906739758991"><ele>141.0</ele><time>2026-05-01T09:35:21Z</time></trkpt><trkpt lat="44.96755922430078" lon="9.444823851911211"><ele>141.16666666666666</ele><time>2026-05-01T09:35:22Z</time></trkpt><trkpt lat="44.96751618242566" lon="9.44473574889425"><ele>141.33333333333334</ele><time>2026-05-01T09:35:23Z</time></trkpt><trkpt lat="44.96747902873416" lon="9.444657301047418"><ele>141.5</ele><time>2026-05-01T09:35:24Z</time></trkpt><trkpt lat="44.96743298544742" lon="9.444550632334549"><ele>141.66666666666669</ele><time>2026-05-01T09:35:26Z</time></trkpt><trkpt lat="44.967382420337735" lon="9.444421868379406"><ele>141.83333333333334</ele><time>2026-05-01T09:35:28Z</time></trkpt><trkpt lat="44.96734564448568" lon="9.444321782651366"><ele>142.0</ele><time>2026-05-01T09:35:30Z</time></trkpt><trkpt lat="44.96734692610681" lon="9.444223751819955"><ele>142.0</ele><time>2026-05-01T09:35:33Z</time></trkpt><trkpt lat="44.967304961071555" lon="9.44415161877007"><ele>142.0</ele><time>2026-05-01T09:35:43Z</time></trkpt><trkpt lat="44.967207435739724" lon="9.444043183299796"><ele>142.0</ele><time>2026-05-01T09:35:45Z</time></trkpt><trkpt lat="44.96714658477585" lon="9.443979161181176"><ele>142.0</ele><time>2026-05-01T09:35:46Z</time></trkpt><trkpt lat="44.96709894503121" lon="9.443905342824085"><ele>142.0</ele><time>2026-05-01T09:35:47Z</time></trkpt><trkpt lat="44.967349561122326" lon="9.443348408227118"><ele>142.0</ele><time>2026-05-01T09:35:48Z</time></trkpt><trkpt lat="44.967378465578385" lon="9.443164900220705"><ele>142.0</ele><time>2026-05-01T09:35:49Z</time></trkpt><trkpt lat="44.967426230557315" lon="9.44296780220844"><ele>142.0</ele><time>2026-05-01T09:35:50Z</time></trkpt><trkpt lat="44.96748274323347" lon="9.44277562495453"><ele>142.0</ele><time>2026-05-01T09:35:51Z</time></trkpt><trkpt lat="44.96753760752718" lon="9.442571336055908"><ele>142.0</ele><time>2026-05-01T09:35:52Z</time></trkpt><trkpt lat="44.96758192595634" lon="9.442339327826382"><ele>142.0</ele><time>2026-05-01T09:35:53Z</time></trkpt><trkpt lat="44.967632061492246" lon="9.442101221175095"><ele>142.0</ele><time>2026-05-01T09:35:54Z</time></trkpt><trkpt lat="44.96767485835727" lon="9.44190660613445"><ele>142.5</ele><time>2026-05-01T09:35:55Z</time></trkpt><trkpt lat="44.967708663863185" lon="9.44174127339384"><ele>143.0</ele><time>2026-05-01T09:35:56Z</time></trkpt><trkpt lat="44.96774458453469" lon="9.441573702278822"><ele>143.5</ele><time>2026-05-01T09:35:57Z</time></trkpt><trkpt lat="44.96777204870168" lon="9.441410141653785"><ele>144.0</ele><time>2026-05-01T09:35:58Z</time></trkpt><trkpt lat="44.967788344847285" lon="9.441239517380735"><ele>144.4</ele><time>2026-05-01T09:35:59Z</time></trkpt><trkpt lat="44.967798597017655" lon="9.441085788584664"><ele>144.8</ele><time>2026-05-01T09:36:00Z</time></trkpt><trkpt lat="44.96780683744471" lon="9.440962498877349"><ele>145.2</ele><time>2026-05-01T09:36:01Z</time></trkpt><trkpt lat="44.967816936330735" lon="9.440860407732686"><ele>145.6</ele><time>2026-05-01T09:36:02Z</time></trkpt><trkpt lat="44.967823362236636" lon="9.440708780152054"><ele>146.0</ele><time>2026-05-01T09:36:04Z</time></trkpt><trkpt lat="44.96783316051305" lon="9.440597196818953"><ele>146.0</ele><time>2026-05-01T09:36:09Z</time></trkpt><trkpt lat="44.96782400036491" lon="9.440467882454914"><ele>146.0</ele><time>2026-05-01T09:36:11Z</time></trkpt><trkpt lat="44.967805033945915" lon="9.440381886994262"><ele>146.0</ele><time>2026-05-01T09:36:12Z</time></trkpt><trkpt lat="44.967796603735366" lon="9.440233901145252"><ele>146.0</ele><time>2026-05-01T09:36:14Z</time></trkpt><trkpt lat="44.967796146252226" lon="9.440107301355603"><ele>146.0</ele><time>2026-05-01T09:36:16Z</time></trkpt><trkpt lat="44.967879135941324" lon="9.439961638778916"><ele>146.2</ele><time>2026-05-01T09:36:18Z</time></trkpt><trkpt lat="44.967903611768946" lon="9.439851059365237"><ele>146.39999999999998</ele><time>2026-05-01T09:36:19Z</time></trkpt><trkpt lat="44.96794531733261" lon="9.43971003546797"><ele>146.6</ele><time>2026-05-01T09:36:20Z</time></trkpt><trkpt lat="44.96797613389686" lon="9.439558564792064"><ele>146.79999999999998</ele><time>2026-05-01T09:36:21Z</time></trkpt><trkpt lat="44.96802296556904" lon="9.43941394401258"><ele>147.0</ele><time>2026-05-01T09:36:22Z</time></trkpt><trkpt lat="44.96806989456078" lon="9.439255745679468"><ele>147.33333333333334</ele><time>2026-05-01T09:36:23Z</time></trkpt><trkpt lat="44.96813049238646" lon="9.439080315132065"><ele>147.66666666666669</ele><time>2026-05-01T09:36:24Z</time></trkpt><trkpt lat="44.96818830745004" lon="9.43886631134638"><ele>148.0</ele><time>2026-05-01T09:36:25Z</time></trkpt><trkpt lat="44.968219528481725" lon="9.438658624538368"><ele>148.6</ele><time>2026-05-01T09:36:26Z</time></trkpt><trkpt lat="44.968259731355566" lon="9.438497860615177"><ele>149.20000000000002</ele><time>2026-05-01T09:36:27Z</time></trkpt><trkpt lat="44.968282989821034" lon="9.43836360838823"><ele>149.8</ele><time>2026-05-01T09:36:28Z</time></trkpt><trkpt lat="44.9683096150026" lon="9.43825525133431"><ele>150.4</ele><time>2026-05-01T09:36:29Z</time></trkpt><trkpt lat="44.96832945120141" lon="9.438166040502397"><ele>151.0</ele><time>2026-05-01T09:36:30Z</time></trkpt><trkpt lat="44.96835389876409" lon="9.438033802143512"><ele>151.4</ele><time>2026-05-01T09:36:32Z</time></trkpt><trkpt lat="44.96823157445469" lon="9.437941018837941"><ele>151.8</ele><time>2026-05-01T09:36:45Z</time></trkpt><trkpt lat="44.96814846689464" lon="9.43791731260412"><ele>152.20000000000002</ele><time>2026-05-01T09:36:46Z</time></trkpt><trkpt lat="44.968054087240326" lon="9.43791280873109"><ele>152.6</ele><time>2026-05-01T09:36:47Z</time></trkpt><trkpt lat="44.967944024181406" lon="9.43791027319732"><ele>153.0</ele><time>2026-05-01T09:36:48Z</time></trkpt><trkpt lat="44.96783078357615" lon="9.437907865351603"><ele>153.0</ele><time>2026-05-01T09:36:49Z</time></trkpt><trkpt lat="44.9677080614305" lon="9.437905385357068"><ele>153.0</ele><time>2026-05-01T09:36:50Z</time></trkpt><trkpt lat="44.96757852245651" lon="9.437903348936285"><ele>153.0</ele><time>2026-05-01T09:36:51Z</time></trkpt><trkpt lat="44.96744267188149" lon="9.437901213294097"><ele>153.0</ele><time>2026-05-01T09:36:52Z</time></trkpt><trkpt lat="44.967301282968805" lon="9.437898990583887"><ele>152.33333333333334</ele><time>2026-05-01T09:36:53Z</time></trkpt><trkpt lat="44.96715224872507" lon="9.43791249882295"><ele>151.66666666666669</ele><time>2026-05-01T09:36:54Z</time></trkpt><trkpt lat="44.967004694550894" lon="9.437894943959316"><ele>151.0</ele><time>2026-05-01T09:36:55Z</time></trkpt><trkpt lat="44.96684764713305" lon="9.437867648093876"><ele>151.0</ele><time>2026-05-01T09:36:56Z</time></trkpt><trkpt lat="44.966705081526094" lon="9.43781011389485"><ele>151.0</ele><time>2026-05-01T09:36:57Z</time></trkpt><trkpt lat="44.966571617199726" lon="9.43777368503063"><ele>151.0</ele><time>2026-05-01T09:36:58Z</time></trkpt><trkpt lat="44.96644193216551" lon="9.437757176918208"><ele>151.0</ele><time>2026-05-01T09:36:59Z</time></trkpt><trkpt lat="44.966316802010475" lon="9.437694439734793"><ele>151.2</ele><time>2026-05-01T09:37:00Z</time></trkpt><trkpt lat="44.96618943538506" lon="9.437651462013728"><ele>151.39999999999998</ele><time>2026-05-01T09:37:01Z</time></trkpt><trkpt lat="44.96607891190253" lon="9.437612359512418"><ele>151.6</ele><time>2026-05-01T09:37:02Z</time></trkpt><trkpt lat="44.96598662116684" lon="9.43757448045394"><ele>151.79999999999998</ele><time>2026-05-01T09:37:03Z</time></trkpt><trkpt lat="44.96591379729235" lon="9.437542846656084"><ele>152.0</ele><time>2026-05-01T09:37:04Z</time></trkpt><trkpt lat="44.965772417643706" lon="9.437718734121743"><ele>152.0</ele><time>2026-05-01T09:37:06Z</time></trkpt><trkpt lat="44.96571860800086" lon="9.437842097718766"><ele>152.0</ele><time>2026-05-01T09:37:07Z</time></trkpt><trkpt lat="44.965647578646625" lon="9.438013165026039"><ele>152.0</ele><time>2026-05-01T09:37:08Z</time></trkpt><trkpt lat="44.96554076137785" lon="9.438218259355395"><ele>152.0</ele><time>2026-05-01T09:37:09Z</time></trkpt><trkpt lat="44.96542409400086" lon="9.438431165594823"><ele>150.66666666666666</ele><time>2026-05-01T09:37:10Z</time></trkpt><trkpt lat="44.965300972061705" lon="9.438665757211279"><ele>149.33333333333334</ele><time>2026-05-01T09:37:11Z</time></trkpt><trkpt lat="44.965163530664924" lon="9.438884992897226"><ele>148.0</ele><time>2026-05-01T09:37:12Z</time></trkpt><trkpt lat="44.96502754396462" lon="9.439137784413365"><ele>148.0</ele><time>2026-05-01T09:37:13Z</time></trkpt><trkpt lat="44.96488581594867" lon="9.43940124871604"><ele>148.0</ele><time>2026-05-01T09:37:14Z</time></trkpt><trkpt lat="44.964743705757094" lon="9.439662594595028"><ele>146.0</ele><time>2026-05-01T09:37:15Z</time></trkpt><trkpt lat="44.96460237683608" lon="9.439923059233106"><ele>144.0</ele><time>2026-05-01T09:37:16Z</time></trkpt><trkpt lat="44.96447424253539" lon="9.440195910785539"><ele>144.0</ele><time>2026-05-01T09:37:17Z</time></trkpt><trkpt lat="44.964336828038576" lon="9.440446080367632"><ele>144.0</ele><time>2026-05-01T09:37:18Z</time></trkpt><trkpt lat="44.964203454712624" lon="9.440690400542021"><ele>144.0</ele><time>2026-05-01T09:37:19Z</time></trkpt><trkpt lat="44.96407092121633" lon="9.44093218881002"><ele>144.33333333333334</ele><time>2026-05-01T09:37:20Z</time></trkpt><trkpt lat="44.9639503623262" lon="9.441154979766843"><ele>144.66666666666669</ele><time>2026-05-01T09:37:21Z</time></trkpt><trkpt lat="44.963838655614715" lon="9.441362154024898"><ele>145.0</ele><time>2026-05-01T09:37:22Z</time></trkpt><trkpt lat="44.96373682589015" lon="9.441555610008896"><ele>145.0</ele><time>2026-05-01T09:37:23Z</time></trkpt><trkpt lat="44.96364245344794" lon="9.441735063035496"><ele>145.0</ele><time>2026-05-01T09:37:24Z</time></trkpt><trkpt lat="44.96355371743575" lon="9.441899334785317"><ele>145.0</ele><time>2026-05-01T09:37:25Z</time></trkpt><trkpt lat="44.96347610291316" lon="9.442063954781363"><ele>145.0</ele><time>2026-05-01T09:37:26Z</time></trkpt><trkpt lat="44.96341711201183" lon="9.442252397169986"><ele>144.66666666666669</ele><time>2026-05-01T09:37:27Z</time></trkpt><trkpt lat="44.963382127717615" lon="9.442455835097027"><ele>144.33333333333334</ele><time>2026-05-01T09:37:28Z</time></trkpt><trkpt lat="44.96337141586175" lon="9.44267931408813"><ele>144.0</ele><time>2026-05-01T09:37:29Z</time></trkpt><trkpt lat="44.96338854491016" lon="9.442906659530832"><ele>144.0</ele><time>2026-05-01T09:37:30Z</time></trkpt><trkpt lat="44.96343802326159" lon="9.443127016563253"><ele>144.0</ele><time>2026-05-01T09:37:31Z</time></trkpt><trkpt lat="44.96353220951987" lon="9.443350822697019"><ele>144.0</ele><time>2026-05-01T09:37:32Z</time></trkpt><trkpt lat="44.96363371253224" lon="9.443585510245395"><ele>144.33333333333334</ele><time>2026-05-01T09:37:33Z</time></trkpt><trkpt lat="44.963733535603495" lon="9.443840840565487"><ele>144.66666666666669</ele><time>2026-05-01T09:37:34Z</time></trkpt><trkpt lat="44.963827709018034" lon="9.444112551698373"><ele>145.0</ele><time>2026-05-01T09:37:35Z</time></trkpt><trkpt lat="44.9639292568178" lon="9.4443913941898"><ele>145.0</ele><time>2026-05-01T09:37:36Z</time></trkpt><trkpt lat="44.964030489430684" lon="9.444664122269758"><ele>145.0</ele><time>2026-05-01T09:37:37Z</time></trkpt><trkpt lat="44.96412710660065" lon="9.444933281674038"><ele>145.0</ele><time>2026-05-01T09:37:38Z</time></trkpt><trkpt lat="44.9642227550209" lon="9.445201252067857"><ele>144.66666666666669</ele><time>2026-05-01T09:37:39Z</time></trkpt><trkpt lat="44.96431718099" lon="9.445463422073022"><ele>144.33333333333334</ele><time>2026-05-01T09:37:40Z</time></trkpt><trkpt lat="44.964406932010355" lon="9.445716277133466"><ele>144.0</ele><time>2026-05-01T09:37:41Z</time></trkpt><trkpt lat="44.96449590643423" lon="9.445962116164157"><ele>144.0</ele><time>2026-05-01T09:37:42Z</time></trkpt><trkpt lat="44.96457141692688" lon="9.446217247016996"><ele>144.0</ele><time>2026-05-01T09:37:43Z</time></trkpt><trkpt lat="44.964660499563045" lon="9.446463916762827"><ele>144.0</ele><time>2026-05-01T09:37:44Z</time></trkpt><trkpt lat="44.96474194015013" lon="9.446696070156186"><ele>144.0</ele><time>2026-05-01T09:37:45Z</time></trkpt><trkpt lat="44.964837113443764" lon="9.446920110926888"><ele>144.0</ele><time>2026-05-01T09:37:46Z</time></trkpt><trkpt lat="44.96491969411482" lon="9.44714731493214"><ele>144.0</ele><time>2026-05-01T09:37:47Z</time></trkpt><trkpt lat="44.965001561723774" lon="9.447367268434123"><ele>143.66666666666666</ele><time>2026-05-01T09:37:48Z</time></trkpt><trkpt lat="44.96507822183239" lon="9.44756924019203"><ele>143.33333333333331</ele><time>2026-05-01T09:37:49Z</time></trkpt><trkpt lat="44.965146132063126" lon="9.447778004900323"><ele>143.0</ele><time>2026-05-01T09:37:50Z</time></trkpt><trkpt lat="44.96520116773707" lon="9.448002002400509"><ele>143.0</ele><time>2026-05-01T09:37:51Z</time></trkpt><trkpt lat="44.965244279894684" lon="9.448230119625709"><ele>143.0</ele><time>2026-05-01T09:37:52Z</time></trkpt><trkpt lat="44.96525760215302" lon="9.44846577521582"><ele>143.0</ele><time>2026-05-01T09:37:53Z</time></trkpt><trkpt lat="44.96527310676815" lon="9.4487016817655"><ele>144.66666666666666</ele><time>2026-05-01T09:37:54Z</time></trkpt><trkpt lat="44.96530089713956" lon="9.448940842842006"><ele>146.33333333333334</ele><time>2026-05-01T09:37:55Z</time></trkpt><trkpt lat="44.96531054806661" lon="9.449185256202759"><ele>148.0</ele><time>2026-05-01T09:37:56Z</time></trkpt><trkpt lat="44.965324244897594" lon="9.449427011174707"><ele>148.66666666666669</ele><time>2026-05-01T09:37:57Z</time></trkpt><trkpt lat="44.96534279302334" lon="9.449664310112823"><ele>149.33333333333334</ele><time>2026-05-01T09:37:58Z</time></trkpt><trkpt lat="44.965361025212054" lon="9.449912740587683"><ele>150.0</ele><time>2026-05-01T09:37:59Z</time></trkpt><trkpt lat="44.96537734980783" lon="9.450154659486692"><ele>150.0</ele><time>2026-05-01T09:38:00Z</time></trkpt><trkpt lat="44.96539378571303" lon="9.450402316596016"><ele>150.0</ele><time>2026-05-01T09:38:01Z</time></trkpt><trkpt lat="44.965399042717515" lon="9.450636741558906"><ele>150.0</ele><time>2026-05-01T09:38:02Z</time></trkpt><trkpt lat="44.965425612166435" lon="9.45088303019695"><ele>152.0</ele><time>2026-05-01T09:38:03Z</time></trkpt><trkpt lat="44.96544176838519" lon="9.451130837811368"><ele>154.0</ele><time>2026-05-01T09:38:04Z</time></trkpt><trkpt lat="44.965459323615185" lon="9.451373729111754"><ele>156.0</ele><time>2026-05-01T09:38:05Z</time></trkpt><trkpt lat="44.965469828909406" lon="9.451618051598492"><ele>158.0</ele><time>2026-05-01T09:38:06Z</time></trkpt><trkpt lat="44.965522588633284" lon="9.451851345339493"><ele>160.0</ele><time>2026-05-01T09:38:07Z</time></trkpt><trkpt lat="44.96558499513294" lon="9.452068966973929"><ele>162.0</ele><time>2026-05-01T09:38:08Z</time></trkpt><trkpt lat="44.965670131881694" lon="9.452270311307155"><ele>161.33333333333334</ele><time>2026-05-01T09:38:09Z</time></trkpt><trkpt lat="44.965782332145764" lon="9.452454402434931"><ele>160.66666666666669</ele><time>2026-05-01T09:38:10Z</time></trkpt><trkpt lat="44.965905396349775" lon="9.45263036103341"><ele>160.0</ele><time>2026-05-01T09:38:11Z</time></trkpt><trkpt lat="44.966037672844934" lon="9.452813172170625"><ele>162.66666666666669</ele><time>2026-05-01T09:38:12Z</time></trkpt><trkpt lat="44.96616952075887" lon="9.45300168312258"><ele>165.33333333333334</ele><time>2026-05-01T09:38:13Z</time></trkpt><trkpt lat="44.966299878337836" lon="9.45319066857821"><ele>168.0</ele><time>2026-05-01T09:38:14Z</time></trkpt><trkpt lat="44.96642934645836" lon="9.453380732309402"><ele>168.0</ele><time>2026-05-01T09:38:15Z</time></trkpt><trkpt lat="44.96655577201817" lon="9.453563859463854"><ele>168.0</ele><time>2026-05-01T09:38:16Z</time></trkpt><trkpt lat="44.96667715870361" lon="9.453743972652095"><ele>168.0</ele><time>2026-05-01T09:38:17Z</time></trkpt><trkpt lat="44.96678939527722" lon="9.453917751019873"><ele>168.66666666666666</ele><time>2026-05-01T09:38:18Z</time></trkpt><trkpt lat="44.96688487477215" lon="9.454102077997025"><ele>169.33333333333331</ele><time>2026-05-01T09:38:19Z</time></trkpt><trkpt lat="44.966935897866406" lon="9.454300877272544"><ele>170.0</ele><time>2026-05-01T09:38:20Z</time></trkpt><trkpt lat="44.96697317292028" lon="9.454505372789718"><ele>172.0</ele><time>2026-05-01T09:38:21Z</time></trkpt><trkpt lat="44.96697337686025" lon="9.454720468479128"><ele>174.0</ele><time>2026-05-01T09:38:22Z</time></trkpt><trkpt lat="44.96695806931768" lon="9.454946634323624"><ele>176.0</ele><time>2026-05-01T09:38:23Z</time></trkpt><trkpt lat="44.96687965429984" lon="9.455151258736413"><ele>176.0</ele><time>2026-05-01T09:38:24Z</time></trkpt><trkpt lat="44.96679685570434" lon="9.455344864858544"><ele>176.0</ele><time>2026-05-01T09:38:25Z</time></trkpt><trkpt lat="44.96667149798718" lon="9.455473780983455"><ele>176.0</ele><time>2026-05-01T09:38:26Z</time></trkpt><trkpt lat="44.966544169662264" lon="9.455606416826491"><ele>177.66666666666666</ele><time>2026-05-01T09:38:27Z</time></trkpt><trkpt lat="44.96638195278176" lon="9.455659203230312"><ele>179.33333333333334</ele><time>2026-05-01T09:38:28Z</time></trkpt><trkpt lat="44.96620898065259" lon="9.455688656274376"><ele>181.0</ele><time>2026-05-01T09:38:29Z</time></trkpt><trkpt lat="44.9660298292023" lon="9.455740192314902"><ele>181.66666666666669</ele><time>2026-05-01T09:38:30Z</time></trkpt><trkpt lat="44.96584208519823" lon="9.455753766159232"><ele>182.33333333333334</ele><time>2026-05-01T09:38:31Z</time></trkpt><trkpt lat="44.96565237651169" lon="9.455779522797357"><ele>183.0</ele><time>2026-05-01T09:38:32Z</time></trkpt><trkpt lat="44.96546427002316" lon="9.455807950098897"><ele>183.0</ele><time>2026-05-01T09:38:33Z</time></trkpt><trkpt lat="44.96527864289185" lon="9.455835265779504"><ele>183.0</ele><time>2026-05-01T09:38:34Z</time></trkpt><trkpt lat="44.965100272384284" lon="9.455864542300606"><ele>183.0</ele><time>2026-05-01T09:38:35Z</time></trkpt><trkpt lat="44.9649253812727" lon="9.455895692311161"><ele>184.33333333333334</ele><time>2026-05-01T09:38:36Z</time></trkpt><trkpt lat="44.96474845431275" lon="9.455927631402968"><ele>185.66666666666669</ele><time>2026-05-01T09:38:37Z</time></trkpt><trkpt lat="44.96457442809282" lon="9.455954161931132"><ele>187.0</ele><time>2026-05-01T09:38:38Z</time></trkpt><trkpt lat="44.96440675018702" lon="9.45597545122124"><ele>187.0</ele><time>2026-05-01T09:38:39Z</time></trkpt><trkpt lat="44.964255387705535" lon="9.455995628946326"><ele>187.0</ele><time>2026-05-01T09:38:40Z</time></trkpt><trkpt lat="44.964109634260446" lon="9.456019525747958"><ele>187.0</ele><time>2026-05-01T09:38:41Z</time></trkpt><trkpt lat="44.96398140626" lon="9.456045509865618"><ele>187.0</ele><time>2026-05-01T09:38:42Z</time></trkpt><trkpt lat="44.963876757463325" lon="9.456067371739838"><ele>187.6</ele><time>2026-05-01T09:38:43Z</time></trkpt><trkpt lat="44.96377064086036" lon="9.456087488733939"><ele>188.2</ele><time>2026-05-01T09:38:44Z</time></trkpt><trkpt lat="44.963663250547484" lon="9.456100505873692"><ele>188.8</ele><time>2026-05-01T09:38:45Z</time></trkpt><trkpt lat="44.96355142667147" lon="9.45611661140304"><ele>189.4</ele><time>2026-05-01T09:38:46Z</time></trkpt><trkpt lat="44.96343162306138" lon="9.456128281582188"><ele>190.0</ele><time>2026-05-01T09:38:47Z</time></trkpt><trkpt lat="44.96331412997583" lon="9.456139330935427"><ele>191.5</ele><time>2026-05-01T09:38:48Z</time></trkpt><trkpt lat="44.96318841051622" lon="9.456154555681493"><ele>193.0</ele><time>2026-05-01T09:38:49Z</time></trkpt><trkpt lat="44.96305757755088" lon="9.456178346562798"><ele>194.5</ele><time>2026-05-01T09:38:50Z</time></trkpt><trkpt lat="44.96293564974021" lon="9.456201469475866"><ele>196.0</ele><time>2026-05-01T09:38:51Z</time></trkpt><trkpt lat="44.96282613684781" lon="9.45621672812188"><ele>195.99999999999997</ele><time>2026-05-01T09:38:52Z</time></trkpt><trkpt lat="44.9627247963025" lon="9.456228261963815"><ele>196.0</ele><time>2026-05-01T09:38:53Z</time></trkpt><trkpt lat="44.96263629779653" lon="9.456244790820104"><ele>196.0</ele><time>2026-05-01T09:38:54Z</time></trkpt><trkpt lat="44.96255952618722" lon="9.456251631707946"><ele>196.0</ele><time>2026-05-01T09:38:55Z</time></trkpt><trkpt lat="44.96248016335222" lon="9.456243905208922"><ele>195.99999999999997</ele><time>2026-05-01T09:38:56Z</time></trkpt><trkpt lat="44.96241038804546" lon="9.456220625824573"><ele>196.0</ele><time>2026-05-01T09:38:57Z</time></trkpt><trkpt lat="44.96235391385574" lon="9.456169000855455"><ele>196.83333333333331</ele><time>2026-05-01T09:38:58Z</time></trkpt><trkpt lat="44.96231723179825" lon="9.456089733014343"><ele>197.66666666666666</ele><time>2026-05-01T09:38:59Z</time></trkpt><trkpt lat="44.96229939235948" lon="9.455968750242995"><ele>198.5</ele><time>2026-05-01T09:39:00Z</time></trkpt><trkpt lat="44.962283949594365" lon="9.455844100171626"><ele>199.33333333333331</ele><time>2026-05-01T09:39:01Z</time></trkpt><trkpt lat="44.96226220204809" lon="9.455735030269873"><ele>200.16666666666666</ele><time>2026-05-01T09:39:02Z</time></trkpt><trkpt lat="44.96223718405296" lon="9.455605453787843"><ele>201.0</ele><time>2026-05-01T09:39:03Z</time></trkpt><trkpt lat="44.9622351005513" lon="9.455478713673362"><ele>201.0</ele><time>2026-05-01T09:39:04Z</time></trkpt><trkpt lat="44.962256435452126" lon="9.455338566458163"><ele>201.0</ele><time>2026-05-01T09:39:05Z</time></trkpt><trkpt lat="44.96229168588301" lon="9.455209816277684"><ele>201.0</ele><time>2026-05-01T09:39:06Z</time></trkpt><trkpt lat="44.9623428386022" lon="9.455071259686783"><ele>201.0</ele><time>2026-05-01T09:39:07Z</time></trkpt><trkpt lat="44.962403278931355" lon="9.454907778504847"><ele>201.0</ele><time>2026-05-01T09:39:08Z</time></trkpt><trkpt lat="44.9624748222428" lon="9.45469920535798"><ele>198.66666666666669</ele><time>2026-05-01T09:39:09Z</time></trkpt><trkpt lat="44.96255648429117" lon="9.454438382196416"><ele>196.33333333333334</ele><time>2026-05-01T09:39:10Z</time></trkpt><trkpt lat="44.96263393056484" lon="9.454186459263155"><ele>194.0</ele><time>2026-05-01T09:39:11Z</time></trkpt><trkpt lat="44.96270834580921" lon="9.453982127997731"><ele>194.0</ele><time>2026-05-01T09:39:12Z</time></trkpt><trkpt lat="44.962774718552026" lon="9.453807178516033"><ele>194.0</ele><time>2026-05-01T09:39:13Z</time></trkpt><trkpt lat="44.96283433528224" lon="9.45362387300637"><ele>194.0</ele><time>2026-05-01T09:39:14Z</time></trkpt><trkpt lat="44.962858561238086" lon="9.453425128905018"><ele>194.0</ele><time>2026-05-01T09:39:15Z</time></trkpt><trkpt lat="44.96285789550074" lon="9.453212314001801"><ele>194.66666666666669</ele><time>2026-05-01T09:39:16Z</time></trkpt><trkpt lat="44.962831654578856" lon="9.452997480120526"><ele>195.33333333333331</ele><time>2026-05-01T09:39:17Z</time></trkpt><trkpt lat="44.962781947875385" lon="9.452786803114936"><ele>196.0</ele><time>2026-05-01T09:39:18Z</time></trkpt><trkpt lat="44.96272248457841" lon="9.452583961746965"><ele>194.75</ele><time>2026-05-01T09:39:19Z</time></trkpt><trkpt lat="44.962657960366045" lon="9.452399766528048"><ele>193.5</ele><time>2026-05-01T09:39:20Z</time></trkpt><trkpt lat="44.96258723448496" lon="9.452227010759351"><ele>192.25</ele><time>2026-05-01T09:39:21Z</time></trkpt><trkpt lat="44.96249938886181" lon="9.452052296473918"><ele>191.0</ele><time>2026-05-01T09:39:22Z</time></trkpt><trkpt lat="44.96242864648239" lon="9.451871809260549"><ele>193.0</ele><time>2026-05-01T09:39:23Z</time></trkpt><trkpt lat="44.96236031938552" lon="9.451722786629954"><ele>195.0</ele><time>2026-05-01T09:39:24Z</time></trkpt><trkpt lat="44.962316923413326" lon="9.45159405001295"><ele>197.0</ele><time>2026-05-01T09:39:25Z</time></trkpt><trkpt lat="44.96227575589385" lon="9.451492692847486"><ele>199.0</ele><time>2026-05-01T09:39:26Z</time></trkpt><trkpt lat="44.962294026418746" lon="9.451376835243813"><ele>201.0</ele><time>2026-05-01T09:39:27Z</time></trkpt><trkpt lat="44.96231225019858" lon="9.451259184727537"><ele>201.4</ele><time>2026-05-01T09:39:28Z</time></trkpt><trkpt lat="44.962361429474534" lon="9.451130700327978"><ele>201.8</ele><time>2026-05-01T09:39:29Z</time></trkpt><trkpt lat="44.96239997771254" lon="9.451001436467921"><ele>202.20000000000002</ele><time>2026-05-01T09:39:30Z</time></trkpt><trkpt lat="44.96241531805837" lon="9.450867261729963"><ele>202.60000000000002</ele><time>2026-05-01T09:39:31Z</time></trkpt><trkpt lat="44.962418498579034" lon="9.450746255262404"><ele>203.0</ele><time>2026-05-01T09:39:32Z</time></trkpt><trkpt lat="44.96240794360594" lon="9.450631844495273"><ele>203.0</ele><time>2026-05-01T09:39:33Z</time></trkpt><trkpt lat="44.96234105857502" lon="9.450547049721909"><ele>203.0</ele><time>2026-05-01T09:39:34Z</time></trkpt><trkpt lat="44.96226088266902" lon="9.450478761258783"><ele>203.0</ele><time>2026-05-01T09:39:35Z</time></trkpt><trkpt lat="44.96216457632496" lon="9.450425019179495"><ele>203.0</ele><time>2026-05-01T09:39:36Z</time></trkpt><trkpt lat="44.96206622401147" lon="9.450342713374345"><ele>203.0</ele><time>2026-05-01T09:39:37Z</time></trkpt><trkpt lat="44.9619647069211" lon="9.450270181269671"><ele>203.5</ele><time>2026-05-01T09:39:38Z</time></trkpt><trkpt lat="44.96186314712577" lon="9.450178599484781"><ele>204.0</ele><time>2026-05-01T09:39:39Z</time></trkpt><trkpt lat="44.96178720153256" lon="9.450059401487108"><ele>204.5</ele><time>2026-05-01T09:39:40Z</time></trkpt><trkpt lat="44.96172979460987" lon="9.449916720198724"><ele>205.0</ele><time>2026-05-01T09:39:41Z</time></trkpt><trkpt lat="44.96168740263713" lon="9.449757471354399"><ele>203.75</ele><time>2026-05-01T09:39:42Z</time></trkpt><trkpt lat="44.96164791361177" lon="9.449596210145602"><ele>202.5</ele><time>2026-05-01T09:39:43Z</time></trkpt><trkpt lat="44.96160935341808" lon="9.449444937818647"><ele>201.25</ele><time>2026-05-01T09:39:44Z</time></trkpt><trkpt lat="44.96155399250231" lon="9.449310340994643"><ele>200.0</ele><time>2026-05-01T09:39:45Z</time></trkpt><trkpt lat="44.9614951519855" lon="9.449171162716109"><ele>200.0</ele><time>2026-05-01T09:39:46Z</time></trkpt><trkpt lat="44.961407761081055" lon="9.449057538543364"><ele>200.0</ele><time>2026-05-01T09:39:47Z</time></trkpt><trkpt lat="44.96130236549062" lon="9.448955302341627"><ele>200.0</ele><time>2026-05-01T09:39:48Z</time></trkpt><trkpt lat="44.96120181566743" lon="9.44887001325443"><ele>200.0</ele><time>2026-05-01T09:39:49Z</time></trkpt><trkpt lat="44.961113838340815" lon="9.44877518190457"><ele>198.5</ele><time>2026-05-01T09:39:50Z</time></trkpt><trkpt lat="44.961045865692626" lon="9.448638971470528"><ele>197.0</ele><time>2026-05-01T09:39:51Z</time></trkpt><trkpt lat="44.960983860729705" lon="9.44849746813108"><ele>195.5</ele><time>2026-05-01T09:39:52Z</time></trkpt><trkpt lat="44.960962808757" lon="9.448347688077703"><ele>194.0</ele><time>2026-05-01T09:39:53Z</time></trkpt><trkpt lat="44.96097136492634" lon="9.448197086908753"><ele>194.0</ele><time>2026-05-01T09:39:54Z</time></trkpt><trkpt lat="44.96098079794094" lon="9.448017666571948"><ele>194.0</ele><time>2026-05-01T09:39:55Z</time></trkpt><trkpt lat="44.96096833361376" lon="9.447834557731406"><ele>194.0</ele><time>2026-05-01T09:39:56Z</time></trkpt><trkpt lat="44.96095497114509" lon="9.447656765027682"><ele>194.0</ele><time>2026-05-01T09:39:57Z</time></trkpt><trkpt lat="44.96092800785901" lon="9.44748713726001"><ele>195.0</ele><time>2026-05-01T09:39:58Z</time></trkpt><trkpt lat="44.96089743879519" lon="9.447333917178385"><ele>196.0</ele><time>2026-05-01T09:39:59Z</time></trkpt><trkpt lat="44.960845473912485" lon="9.447191680430311"><ele>197.0</ele><time>2026-05-01T09:40:00Z</time></trkpt><trkpt lat="44.96076433382815" lon="9.447034199972483"><ele>198.0</ele><time>2026-05-01T09:40:01Z</time></trkpt><trkpt lat="44.96065920661213" lon="9.446860807614934"><ele>198.0</ele><time>2026-05-01T09:40:02Z</time></trkpt><trkpt lat="44.96054884341343" lon="9.446677622673665"><ele>198.0</ele><time>2026-05-01T09:40:03Z</time></trkpt><trkpt lat="44.96046407165952" lon="9.446494458847749"><ele>198.0</ele><time>2026-05-01T09:40:04Z</time></trkpt><trkpt lat="44.960363780026185" lon="9.446362249672138"><ele>198.75</ele><time>2026-05-01T09:40:05Z</time></trkpt><trkpt lat="44.96027615568149" lon="9.446244838260169"><ele>199.5</ele><time>2026-05-01T09:40:06Z</time></trkpt><trkpt lat="44.96018218999029" lon="9.446149418477477"><ele>200.25</ele><time>2026-05-01T09:40:07Z</time></trkpt><trkpt lat="44.96007827602917" lon="9.446078460224006"><ele>201.0</ele><time>2026-05-01T09:40:08Z</time></trkpt><trkpt lat="44.95997177566045" lon="9.446019161995801"><ele>201.0</ele><time>2026-05-01T09:40:09Z</time></trkpt><trkpt lat="44.959861892677274" lon="9.44599632175244"><ele>201.0</ele><time>2026-05-01T09:40:10Z</time></trkpt><trkpt lat="44.95975941094013" lon="9.445989713412713"><ele>201.0</ele><time>2026-05-01T09:40:11Z</time></trkpt><trkpt lat="44.95968006538445" lon="9.445981431364594"><ele>201.0</ele><time>2026-05-01T09:40:12Z</time></trkpt><trkpt lat="44.959621204757816" lon="9.445914069844049"><ele>201.0</ele><time>2026-05-01T09:40:13Z</time></trkpt><trkpt lat="44.959572421361415" lon="9.445801746961225"><ele>201.0</ele><time>2026-05-01T09:40:14Z</time></trkpt><trkpt lat="44.9595248297086" lon="9.445664896961071"><ele>201.0</ele><time>2026-05-01T09:40:15Z</time></trkpt><trkpt lat="44.95948186479308" lon="9.445531511586202"><ele>201.0</ele><time>2026-05-01T09:40:16Z</time></trkpt><trkpt lat="44.95946107538265" lon="9.445402407691672"><ele>201.0</ele><time>2026-05-01T09:40:17Z</time></trkpt><trkpt lat="44.9594718831304" lon="9.445262271771664"><ele>201.0</ele><time>2026-05-01T09:40:18Z</time></trkpt><trkpt lat="44.95944154998571" lon="9.44511615701348"><ele>199.0</ele><time>2026-05-01T09:40:19Z</time></trkpt><trkpt lat="44.959398820599915" lon="9.444963197004569"><ele>197.0</ele><time>2026-05-01T09:40:20Z</time></trkpt><trkpt lat="44.959336045760104" lon="9.44481407945888"><ele>195.0</ele><time>2026-05-01T09:40:21Z</time></trkpt><trkpt lat="44.95927114399679" lon="9.444670064383804"><ele>193.0</ele><time>2026-05-01T09:40:22Z</time></trkpt><trkpt lat="44.95921409549733" lon="9.444514756294444"><ele>194.75</ele><time>2026-05-01T09:40:23Z</time></trkpt><trkpt lat="44.95913430058085" lon="9.444379042583837"><ele>196.5</ele><time>2026-05-01T09:40:24Z</time></trkpt><trkpt lat="44.959046289283435" lon="9.444258486098386"><ele>198.25</ele><time>2026-05-01T09:40:25Z</time></trkpt><trkpt lat="44.958946788000326" lon="9.444175075349547"><ele>200.0</ele><time>2026-05-01T09:40:26Z</time></trkpt><trkpt lat="44.95884825158706" lon="9.444091167843496"><ele>200.0</ele><time>2026-05-01T09:40:27Z</time></trkpt><trkpt lat="44.95874133090365" lon="9.44403977912172"><ele>200.0</ele><time>2026-05-01T09:40:28Z</time></trkpt><trkpt lat="44.95862258140729" lon="9.44402775149784"><ele>200.0</ele><time>2026-05-01T09:40:29Z</time></trkpt><trkpt lat="44.95849827941357" lon="9.444045877697876"><ele>200.0</ele><time>2026-05-01T09:40:30Z</time></trkpt><trkpt lat="44.958372328795974" lon="9.444081597596398"><ele>201.75</ele><time>2026-05-01T09:40:31Z</time></trkpt><trkpt lat="44.95823689450774" lon="9.444083948038584"><ele>203.5</ele><time>2026-05-01T09:40:32Z</time></trkpt><trkpt lat="44.95810824005153" lon="9.44408329931468"><ele>205.25</ele><time>2026-05-01T09:40:33Z</time></trkpt><trkpt lat="44.95800478590424" lon="9.444060445520083"><ele>207.0</ele><time>2026-05-01T09:40:34Z</time></trkpt><trkpt lat="44.9579150707666" lon="9.444028501492413"><ele>207.0</ele><time>2026-05-01T09:40:35Z</time></trkpt><trkpt lat="44.9578428521513" lon="9.443985766429627"><ele>207.0</ele><time>2026-05-01T09:40:36Z</time></trkpt><trkpt lat="44.957753987630426" lon="9.443935796151422"><ele>207.0</ele><time>2026-05-01T09:40:38Z</time></trkpt><trkpt lat="44.95769675973002" lon="9.443879643674665"><ele>207.0</ele><time>2026-05-01T09:40:43Z</time></trkpt><trkpt lat="44.95761745044482" lon="9.444039262221407"><ele>207.0</ele><time>2026-05-01T09:40:44Z</time></trkpt><trkpt lat="44.957538019511624" lon="9.444056152301426"><ele>207.5</ele><time>2026-05-01T09:40:45Z</time></trkpt><trkpt lat="44.95745846079948" lon="9.444012782351676"><ele>208.0</ele><time>2026-05-01T09:40:46Z</time></trkpt><trkpt lat="44.95736269754742" lon="9.444015765994136"><ele>208.5</ele><time>2026-05-01T09:40:48Z</time></trkpt><trkpt lat="44.957239263913706" lon="9.44399614067479"><ele>209.0</ele><time>2026-05-01T09:40:50Z</time></trkpt><trkpt lat="44.957173880236546" lon="9.444025490574345"><ele>209.5</ele><time>2026-05-01T09:40:51Z</time></trkpt><trkpt lat="44.95710748285979" lon="9.444045554527365"><ele>210.0</ele><time>2026-05-01T09:40:52Z</time></trkpt><trkpt lat="44.957028483598044" lon="9.444077323878318"><ele>210.0</ele><time>2026-05-01T09:40:53Z</time></trkpt><trkpt lat="44.95694200374735" lon="9.444072281073758"><ele>210.0</ele><time>2026-05-01T09:40:54Z</time></trkpt><trkpt lat="44.956853541848126" lon="9.444072263657645"><ele>210.0</ele><time>2026-05-01T09:40:55Z</time></trkpt><trkpt lat="44.95676942984552" lon="9.444067456331386"><ele>210.0</ele><time>2026-05-01T09:40:56Z</time></trkpt><trkpt lat="44.95667797583658" lon="9.444033431141229"><ele>210.0</ele><time>2026-05-01T09:40:57Z</time></trkpt><trkpt lat="44.95656955407416" lon="9.443912753772267"><ele>210.83333333333334</ele><time>2026-05-01T09:40:59Z</time></trkpt><trkpt lat="44.956496162890986" lon="9.443857710056934"><ele>211.66666666666669</ele><time>2026-05-01T09:41:00Z</time></trkpt><trkpt lat="44.95642370832189" lon="9.443823871563534"><ele>212.5</ele><time>2026-05-01T09:41:01Z</time></trkpt><trkpt lat="44.956339517571735" lon="9.443817931156772"><ele>213.33333333333334</ele><time>2026-05-01T09:41:02Z</time></trkpt><trkpt lat="44.95626925667705" lon="9.443778565983845"><ele>214.16666666666669</ele><time>2026-05-01T09:41:03Z</time></trkpt><trkpt lat="44.956201032573304" lon="9.443769569603939"><ele>215.0</ele><time>2026-05-01T09:41:04Z</time></trkpt><trkpt lat="44.95613239531181" lon="9.443820744417726"><ele>215.0</ele><time>2026-05-01T09:41:05Z</time></trkpt><trkpt lat="44.95607143434075" lon="9.443925582773764"><ele>215.0</ele><time>2026-05-01T09:41:07Z</time></trkpt><trkpt lat="44.956003568092626" lon="9.44364291963013"><ele>215.0</ele><time>2026-05-01T09:41:08Z</time></trkpt><trkpt lat="44.95590755026362" lon="9.443583466383807"><ele>215.0</ele><time>2026-05-01T09:41:10Z</time></trkpt><trkpt lat="44.95584486951902" lon="9.443551087920275"><ele>215.66666666666669</ele><time>2026-05-01T09:41:11Z</time></trkpt><trkpt lat="44.95577055222447" lon="9.443525308247843"><ele>216.33333333333334</ele><time>2026-05-01T09:41:12Z</time></trkpt><trkpt lat="44.955702883498866" lon="9.443502565692935"><ele>217.0</ele><time>2026-05-01T09:41:13Z</time></trkpt><trkpt lat="44.955628855411156" lon="9.443489362331022"><ele>217.66666666666669</ele><time>2026-05-01T09:41:14Z</time></trkpt><trkpt lat="44.95555322565949" lon="9.443479244818903"><ele>218.33333333333334</ele><time>2026-05-01T09:41:15Z</time></trkpt><trkpt lat="44.95547805191102" lon="9.44346982562177"><ele>219.0</ele><time>2026-05-01T09:41:16Z</time></trkpt><trkpt lat="44.955390660733386" lon="9.44344960977297"><ele>219.0</ele><time>2026-05-01T09:41:17Z</time></trkpt><trkpt lat="44.955303340234465" lon="9.443423833895206"><ele>219.0</ele><time>2026-05-01T09:41:18Z</time></trkpt><trkpt lat="44.95521685324863" lon="9.44340096446207"><ele>219.0</ele><time>2026-05-01T09:41:19Z</time></trkpt><trkpt lat="44.95513354550911" lon="9.443387239143672"><ele>219.0</ele><time>2026-05-01T09:41:20Z</time></trkpt><trkpt lat="44.9550510192995" lon="9.4433935400591"><ele>219.0</ele><time>2026-05-01T09:41:21Z</time></trkpt><trkpt lat="44.95496968090165" lon="9.443374919748788"><ele>219.0</ele><time>2026-05-01T09:41:22Z</time></trkpt><trkpt lat="44.95489495024289" lon="9.443321832301459"><ele>219.33333333333334</ele><time>2026-05-01T09:41:23Z</time></trkpt><trkpt lat="44.954805314418515" lon="9.443238354857861"><ele>219.66666666666669</ele><time>2026-05-01T09:41:24Z</time></trkpt><trkpt lat="44.95474945770854" lon="9.443175922613653"><ele>220.0</ele><time>2026-05-01T09:41:25Z</time></trkpt><trkpt lat="44.95467740739376" lon="9.44310266280134"><ele>220.33333333333334</ele><time>2026-05-01T09:41:26Z</time></trkpt><trkpt lat="44.95462878443688" lon="9.443028720696923"><ele>220.66666666666669</ele><time>2026-05-01T09:41:27Z</time></trkpt><trkpt lat="44.954552775487535" lon="9.442966295732303"><ele>221.0</ele><time>2026-05-01T09:41:28Z</time></trkpt><trkpt lat="44.95448799972607" lon="9.44292232288732"><ele>221.0</ele><time>2026-05-01T09:41:29Z</time></trkpt><trkpt lat="44.95441073744627" lon="9.442884585804851"><ele>221.00000000000003</ele><time>2026-05-01T09:41:30Z</time></trkpt><trkpt lat="44.95433894468788" lon="9.442862211550255"><ele>221.00000000000003</ele><time>2026-05-01T09:41:31Z</time></trkpt><trkpt lat="44.954234447312515" lon="9.442821959024098"><ele>221.0</ele><time>2026-05-01T09:41:33Z</time></trkpt><trkpt lat="44.95412960794838" lon="9.442791963902513"><ele>221.0</ele><time>2026-05-01T09:41:35Z</time></trkpt><trkpt lat="44.95404649407739" lon="9.442810973474035"><ele>222.66666666666669</ele><time>2026-05-01T09:41:37Z</time></trkpt><trkpt lat="44.95398206758528" lon="9.442890835309477"><ele>224.33333333333334</ele><time>2026-05-01T09:41:39Z</time></trkpt><trkpt lat="44.95395694008477" lon="9.442983170535083"><ele>226.0</ele><time>2026-05-01T09:41:40Z</time></trkpt><trkpt lat="44.95392445504173" lon="9.443076908678439"><ele>227.66666666666669</ele><time>2026-05-01T09:41:41Z</time></trkpt><trkpt lat="44.953883093244364" lon="9.443175398415363"><ele>229.33333333333334</ele><time>2026-05-01T09:41:42Z</time></trkpt><trkpt lat="44.953832059456296" lon="9.443270908901367"><ele>231.0</ele><time>2026-05-01T09:41:43Z</time></trkpt><trkpt lat="44.95376321214714" lon="9.443351390730356"><ele>232.83333333333334</ele><time>2026-05-01T09:41:44Z</time></trkpt><trkpt lat="44.953701850989034" lon="9.44339846236722"><ele>234.66666666666669</ele><time>2026-05-01T09:41:45Z</time></trkpt><trkpt lat="44.953629444190604" lon="9.443419799195798"><ele>236.5</ele><time>2026-05-01T09:41:46Z</time></trkpt><trkpt lat="44.9535497620684" lon="9.443427555246625"><ele>238.33333333333334</ele><time>2026-05-01T09:41:47Z</time></trkpt><trkpt lat="44.953462139480955" lon="9.443411148176592"><ele>240.16666666666669</ele><time>2026-05-01T09:41:48Z</time></trkpt><trkpt lat="44.95337325302739" lon="9.443401628339398"><ele>242.0</ele><time>2026-05-01T09:41:49Z</time></trkpt><trkpt lat="44.95327981308018" lon="9.443414232537554"><ele>243.39999999999998</ele><time>2026-05-01T09:41:50Z</time></trkpt><trkpt lat="44.953183778251365" lon="9.443424215473799"><ele>244.79999999999998</ele><time>2026-05-01T09:41:51Z</time></trkpt><trkpt lat="44.953097331825646" lon="9.443434356242943"><ele>246.2</ele><time>2026-05-01T09:41:52Z</time></trkpt><trkpt lat="44.95300990793609" lon="9.443456911943025"><ele>247.6</ele><time>2026-05-01T09:41:53Z</time></trkpt><trkpt lat="44.9529126509499" lon="9.443491788223843"><ele>249.0</ele><time>2026-05-01T09:41:54Z</time></trkpt><trkpt lat="44.95280696740983" lon="9.443521264493269"><ele>249.0</ele><time>2026-05-01T09:41:55Z</time></trkpt><trkpt lat="44.95268849847869" lon="9.443557163422208"><ele>249.0</ele><time>2026-05-01T09:41:56Z</time></trkpt><trkpt lat="44.95255345546168" lon="9.443591526781724"><ele>249.0</ele><time>2026-05-01T09:41:57Z</time></trkpt><trkpt lat="44.95240442249799" lon="9.443626882689141"><ele>249.0</ele><time>2026-05-01T09:41:58Z</time></trkpt><trkpt lat="44.95228603328991" lon="9.443663077192456"><ele>250.2</ele><time>2026-05-01T09:41:59Z</time></trkpt><trkpt lat="44.9521879322084" lon="9.443688859453646"><ele>251.39999999999998</ele><time>2026-05-01T09:42:00Z</time></trkpt><trkpt lat="44.95208525760312" lon="9.44374007631317"><ele>252.6</ele><time>2026-05-01T09:42:01Z</time></trkpt><trkpt lat="44.95197739767452" lon="9.44380738761986"><ele>253.8</ele><time>2026-05-01T09:42:02Z</time></trkpt><trkpt lat="44.951878097522204" lon="9.443864527347197"><ele>255.0</ele><time>2026-05-01T09:42:03Z</time></trkpt><trkpt lat="44.9517747198463" lon="9.44387822127179"><ele>260.25</ele><time>2026-05-01T09:42:04Z</time></trkpt><trkpt lat="44.95167152477971" lon="9.443907688477273"><ele>265.5</ele><time>2026-05-01T09:42:05Z</time></trkpt><trkpt lat="44.9515668671629" lon="9.443938973648974"><ele>270.75</ele><time>2026-05-01T09:42:06Z</time></trkpt><trkpt lat="44.951458221388016" lon="9.443992992263807"><ele>276.0</ele><time>2026-05-01T09:42:07Z</time></trkpt><trkpt lat="44.95134613203059" lon="9.444067159831922"><ele>276.0</ele><time>2026-05-01T09:42:08Z</time></trkpt><trkpt lat="44.951232186153725" lon="9.444145218274297"><ele>276.0</ele><time>2026-05-01T09:42:09Z</time></trkpt><trkpt lat="44.9511238342487" lon="9.444236111088498"><ele>276.0</ele><time>2026-05-01T09:42:10Z</time></trkpt><trkpt lat="44.9510149096068" lon="9.444320661997153"><ele>276.0</ele><time>2026-05-01T09:42:11Z</time></trkpt><trkpt lat="44.95092235966233" lon="9.444399365004145"><ele>276.6</ele><time>2026-05-01T09:42:12Z</time></trkpt><trkpt lat="44.95082850977055" lon="9.444477528617202"><ele>277.20000000000005</ele><time>2026-05-01T09:42:13Z</time></trkpt><trkpt lat="44.95073496602882" lon="9.444545897680438"><ele>277.79999999999995</ele><time>2026-05-01T09:42:14Z</time></trkpt><trkpt lat="44.95064142020675" lon="9.444643543792328"><ele>278.4</ele><time>2026-05-01T09:42:15Z</time></trkpt><trkpt lat="44.950581119269536" lon="9.444734381375088"><ele>279.0</ele><time>2026-05-01T09:42:16Z</time></trkpt><trkpt lat="44.950519962671294" lon="9.444817097423748"><ele>281.0</ele><time>2026-05-01T09:42:17Z</time></trkpt><trkpt lat="44.9504707266187" lon="9.444893331161015"><ele>283.0</ele><time>2026-05-01T09:42:18Z</time></trkpt><trkpt lat="44.950391488497665" lon="9.445055127398838"><ele>285.0</ele><time>2026-05-01T09:42:20Z</time></trkpt><trkpt lat="44.950356642112986" lon="9.44513461760965"><ele>287.0</ele><time>2026-05-01T09:42:21Z</time></trkpt><trkpt lat="44.95032871952615" lon="9.445222733567272"><ele>289.0</ele><time>2026-05-01T09:42:22Z</time></trkpt><trkpt lat="44.950317042962254" lon="9.445311172113586"><ele>291.0</ele><time>2026-05-01T09:42:23Z</time></trkpt><trkpt lat="44.950298069195384" lon="9.445401298251246"><ele>292.5</ele><time>2026-05-01T09:42:24Z</time></trkpt><trkpt lat="44.950263683571734" lon="9.445505370674356"><ele>294.0</ele><time>2026-05-01T09:42:25Z</time></trkpt><trkpt lat="44.95021965351959" lon="9.445595347555832"><ele>295.5</ele><time>2026-05-01T09:42:26Z</time></trkpt><trkpt lat="44.95015262875081" lon="9.445646016793491"><ele>297.0</ele><time>2026-05-01T09:42:27Z</time></trkpt><trkpt lat="44.9500604636443" lon="9.445668724321992"><ele>298.5</ele><time>2026-05-01T09:42:29Z</time></trkpt><trkpt lat="44.949987010686584" lon="9.445681954703259"><ele>300.0</ele><time>2026-05-01T09:42:31Z</time></trkpt><trkpt lat="44.94989503781758" lon="9.445700692134782"><ele>300.0</ele><time>2026-05-01T09:42:33Z</time></trkpt><trkpt lat="44.94979092784248" lon="9.445740267182776"><ele>300.0</ele><time>2026-05-01T09:43:03Z</time></trkpt><trkpt lat="44.94971452215164" lon="9.445736391072543"><ele>300.0</ele><time>2026-05-01T09:43:04Z</time></trkpt><trkpt lat="44.94962927443701" lon="9.445758073342228"><ele>300.0</ele><time>2026-05-01T09:43:05Z</time></trkpt><trkpt lat="44.949525024576126" lon="9.44579002043122"><ele>300.0</ele><time>2026-05-01T09:43:06Z</time></trkpt><trkpt lat="44.9494067808569" lon="9.445792921675869"><ele>300.0</ele><time>2026-05-01T09:43:07Z</time></trkpt><trkpt lat="44.9492890615786" lon="9.445841459848666"><ele>300.0</ele><time>2026-05-01T09:43:08Z</time></trkpt><trkpt lat="44.949159768583506" lon="9.445868814739825"><ele>300.0</ele><time>2026-05-01T09:43:09Z</time></trkpt><trkpt lat="44.949022608037744" lon="9.445890447252022"><ele>300.0</ele><time>2026-05-01T09:43:10Z</time></trkpt><trkpt lat="44.94888890738442" lon="9.44586530387402"><ele>300.75</ele><time>2026-05-01T09:43:11Z</time></trkpt><trkpt lat="44.948769320797986" lon="9.445828126413417"><ele>301.5</ele><time>2026-05-01T09:43:12Z</time></trkpt><trkpt lat="44.948623174668406" lon="9.44579687845208"><ele>302.25</ele><time>2026-05-01T09:43:13Z</time></trkpt><trkpt lat="44.9484664401494" lon="9.445709108706463"><ele>303.0</ele><time>2026-05-01T09:43:14Z</time></trkpt><trkpt lat="44.94830235109234" lon="9.445630901887167"><ele>303.0</ele><time>2026-05-01T09:43:15Z</time></trkpt><trkpt lat="44.94812439217086" lon="9.445533425744024"><ele>303.0</ele><time>2026-05-01T09:43:16Z</time></trkpt><trkpt lat="44.947952911641075" lon="9.445416652780663"><ele>303.0</ele><time>2026-05-01T09:43:17Z</time></trkpt><trkpt lat="44.947809959289465" lon="9.445298667472514"><ele>303.0</ele><time>2026-05-01T09:43:18Z</time></trkpt><trkpt lat="44.94768189412042" lon="9.445203997499663"><ele>303.0</ele><time>2026-05-01T09:43:19Z</time></trkpt><trkpt lat="44.947557561389864" lon="9.445158057578332"><ele>303.0</ele><time>2026-05-01T09:43:20Z</time></trkpt><trkpt lat="44.94744012661034" lon="9.445112622416348"><ele>303.0</ele><time>2026-05-01T09:43:21Z</time></trkpt><trkpt lat="44.94731912518503" lon="9.445055871801893"><ele>305.5</ele><time>2026-05-01T09:43:22Z</time></trkpt><trkpt lat="44.94719125948583" lon="9.445024873605721"><ele>308.0</ele><time>2026-05-01T09:43:23Z</time></trkpt><trkpt lat="44.94707186948628" lon="9.445006420559434"><ele>310.5</ele><time>2026-05-01T09:43:24Z</time></trkpt><trkpt lat="44.94695981730191" lon="9.445019165362451"><ele>313.0</ele><time>2026-05-01T09:43:25Z</time></trkpt><trkpt lat="44.94685365018331" lon="9.444978191762209"><ele>313.0</ele><time>2026-05-01T09:43:26Z</time></trkpt><trkpt lat="44.94674769587015" lon="9.444951386931752"><ele>313.0</ele><time>2026-05-01T09:43:27Z</time></trkpt><trkpt lat="44.946648130692715" lon="9.444903138043005"><ele>313.0</ele><time>2026-05-01T09:43:28Z</time></trkpt><trkpt lat="44.946550023097274" lon="9.44484133524019"><ele>313.0</ele><time>2026-05-01T09:43:29Z</time></trkpt><trkpt lat="44.94644782259252" lon="9.444770364451362"><ele>313.0</ele><time>2026-05-01T09:43:30Z</time></trkpt><trkpt lat="44.94634539800931" lon="9.444695798314438"><ele>313.75</ele><time>2026-05-01T09:43:31Z</time></trkpt><trkpt lat="44.94623470967179" lon="9.44460914775041"><ele>314.5</ele><time>2026-05-01T09:43:32Z</time></trkpt><trkpt lat="44.94611675025276" lon="9.444504673186545"><ele>315.25</ele><time>2026-05-01T09:43:33Z</time></trkpt><trkpt lat="44.94600562882811" lon="9.444364139610103"><ele>316.0</ele><time>2026-05-01T09:43:34Z</time></trkpt><trkpt lat="44.94586598967819" lon="9.444171895253792"><ele>320.0</ele><time>2026-05-01T09:43:35Z</time></trkpt><trkpt lat="44.9457036264503" lon="9.443981403589765"><ele>324.0</ele><time>2026-05-01T09:43:36Z</time></trkpt><trkpt lat="44.94552457500798" lon="9.443756373009531"><ele>324.5</ele><time>2026-05-01T09:43:37Z</time></trkpt><trkpt lat="44.94532432263188" lon="9.443527365431047"><ele>325.0</ele><time>2026-05-01T09:43:38Z</time></trkpt><trkpt lat="44.945127992922416" lon="9.44332253999388"><ele>327.66666666666663</ele><time>2026-05-01T09:43:39Z</time></trkpt><trkpt lat="44.94495385984548" lon="9.443120842952103"><ele>330.3333333333333</ele><time>2026-05-01T09:43:40Z</time></trkpt><trkpt lat="44.94479985420782" lon="9.442957530899559"><ele>333.0</ele><time>2026-05-01T09:43:41Z</time></trkpt><trkpt lat="44.944671227426234" lon="9.442818400912904"><ele>333.0</ele><time>2026-05-01T09:43:42Z</time></trkpt><trkpt lat="44.944540689078934" lon="9.442681657776433"><ele>333.0</ele><time>2026-05-01T09:43:43Z</time></trkpt><trkpt lat="44.94440158897602" lon="9.442546152069728"><ele>333.0</ele><time>2026-05-01T09:43:44Z</time></trkpt><trkpt lat="44.94426926212773" lon="9.44244314453898"><ele>333.79999999999995</ele><time>2026-05-01T09:43:45Z</time></trkpt><trkpt lat="44.94415050445159" lon="9.442372096646128"><ele>334.6</ele><time>2026-05-01T09:43:46Z</time></trkpt><trkpt lat="44.94404988329881" lon="9.442319713272616"><ele>335.4</ele><time>2026-05-01T09:43:47Z</time></trkpt><trkpt lat="44.943961103034155" lon="9.442282627294903"><ele>336.20000000000005</ele><time>2026-05-01T09:43:48Z</time></trkpt><trkpt lat="44.94388582134929" lon="9.442285948706393"><ele>337.0</ele><time>2026-05-01T09:43:49Z</time></trkpt><trkpt lat="44.94381161381504" lon="9.442252694337395"><ele>337.0</ele><time>2026-05-01T09:43:51Z</time></trkpt><trkpt lat="44.94373630062149" lon="9.44228653309399"><ele>337.0</ele><time>2026-05-01T09:44:00Z</time></trkpt><trkpt lat="44.94365421234083" lon="9.442330179075341"><ele>337.0</ele><time>2026-05-01T09:44:02Z</time></trkpt><trkpt lat="44.94358249303135" lon="9.442371399009161"><ele>337.0</ele><time>2026-05-01T09:44:03Z</time></trkpt><trkpt lat="44.9435121499867" lon="9.442418069744653"><ele>337.0</ele><time>2026-05-01T09:44:04Z</time></trkpt><trkpt lat="44.94344103094344" lon="9.442494199689358"><ele>337.0</ele><time>2026-05-01T09:44:05Z</time></trkpt><trkpt lat="44.943332509746554" lon="9.442544309285271"><ele>339.25</ele><time>2026-05-01T09:44:06Z</time></trkpt><trkpt lat="44.943212589217126" lon="9.442631660068832"><ele>341.5</ele><time>2026-05-01T09:44:07Z</time></trkpt><trkpt lat="44.943087466198314" lon="9.44272274595468"><ele>343.75</ele><time>2026-05-01T09:44:08Z</time></trkpt><trkpt lat="44.94296011618679" lon="9.442795916763421"><ele>346.0</ele><time>2026-05-01T09:44:09Z</time></trkpt><trkpt lat="44.94284040484727" lon="9.442842638661707"><ele>346.0</ele><time>2026-05-01T09:44:10Z</time></trkpt><trkpt lat="44.942707738323016" lon="9.442882144391366"><ele>346.0</ele><time>2026-05-01T09:44:11Z</time></trkpt><trkpt lat="44.94255812246113" lon="9.442920082695641"><ele>346.0</ele><time>2026-05-01T09:44:12Z</time></trkpt><trkpt lat="44.94239395049867" lon="9.442957348154977"><ele>346.66666666666663</ele><time>2026-05-01T09:44:13Z</time></trkpt><trkpt lat="44.9422480667509" lon="9.442990143135283"><ele>347.3333333333333</ele><time>2026-05-01T09:44:14Z</time></trkpt><trkpt lat="44.94209812642471" lon="9.443016389557506"><ele>348.0</ele><time>2026-05-01T09:44:15Z</time></trkpt><trkpt lat="44.94193051125522" lon="9.443035012843461"><ele>348.0</ele><time>2026-05-01T09:44:16Z</time></trkpt><trkpt lat="44.94175848322878" lon="9.443050783932838"><ele>348.0</ele><time>2026-05-01T09:44:17Z</time></trkpt><trkpt lat="44.94158243043966" lon="9.443065959854158"><ele>348.0</ele><time>2026-05-01T09:44:18Z</time></trkpt><trkpt lat="44.941419254977454" lon="9.443076637742507"><ele>349.0</ele><time>2026-05-01T09:44:19Z</time></trkpt><trkpt lat="44.94127131519747" lon="9.44308036114988"><ele>350.0</ele><time>2026-05-01T09:44:20Z</time></trkpt><trkpt lat="44.94114371453376" lon="9.44308036114899"><ele>351.0</ele><time>2026-05-01T09:44:21Z</time></trkpt><trkpt lat="44.941038490354735" lon="9.443077722326816"><ele>352.0</ele><time>2026-05-01T09:44:22Z</time></trkpt><trkpt lat="44.94096556001022" lon="9.443049629402976"><ele>352.0</ele><time>2026-05-01T09:44:23Z</time></trkpt><trkpt lat="44.94088728202126" lon="9.44297722339642"><ele>352.0</ele><time>2026-05-01T09:44:25Z</time></trkpt><trkpt lat="44.94082174466652" lon="9.442891886855053"><ele>352.0</ele><time>2026-05-01T09:44:27Z</time></trkpt><trkpt lat="44.940833285242874" lon="9.442741916830656"><ele>352.0</ele><time>2026-05-01T09:44:28Z</time></trkpt><trkpt lat="44.94082668923606" lon="9.442607371244959"><ele>352.0</ele><time>2026-05-01T09:44:29Z</time></trkpt><trkpt lat="44.940824118009" lon="9.44245486159642"><ele>353.25</ele><time>2026-05-01T09:44:30Z</time></trkpt><trkpt lat="44.94077850443076" lon="9.442321804608673"><ele>354.5</ele><time>2026-05-01T09:44:31Z</time></trkpt><trkpt lat="44.94069275796635" lon="9.442206225858433"><ele>355.75</ele><time>2026-05-01T09:44:32Z</time></trkpt><trkpt lat="44.940591716944596" lon="9.44209427843228"><ele>357.0</ele><time>2026-05-01T09:44:33Z</time></trkpt><trkpt lat="44.94048182655366" lon="9.441982094106795"><ele>360.5</ele><time>2026-05-01T09:44:34Z</time></trkpt><trkpt lat="44.94037551174987" lon="9.441870658806685"><ele>364.0</ele><time>2026-05-01T09:44:35Z</time></trkpt><trkpt lat="44.94027882642542" lon="9.441763647787358"><ele>367.5</ele><time>2026-05-01T09:44:36Z</time></trkpt><trkpt lat="44.9402027894801" lon="9.441671088654726"><ele>371.0</ele><time>2026-05-01T09:44:37Z</time></trkpt><trkpt lat="44.94013336614347" lon="9.441568812607988"><ele>371.0</ele><time>2026-05-01T09:44:38Z</time></trkpt><trkpt lat="44.94005430899632" lon="9.441473042857789"><ele>371.0</ele><time>2026-05-01T09:44:39Z</time></trkpt><trkpt lat="44.93998727982262" lon="9.441388379832665"><ele>371.0</ele><time>2026-05-01T09:44:40Z</time></trkpt><trkpt lat="44.939933245482905" lon="9.441274096302289"><ele>371.0</ele><time>2026-05-01T09:44:41Z</time></trkpt><trkpt lat="44.939881031437295" lon="9.441122864000775"><ele>371.0</ele><time>2026-05-01T09:44:42Z</time></trkpt><trkpt lat="44.93982256476149" lon="9.440986845342536"><ele>372.25</ele><time>2026-05-01T09:44:43Z</time></trkpt><trkpt lat="44.93974382890063" lon="9.440852303756005"><ele>373.5</ele><time>2026-05-01T09:44:44Z</time></trkpt><trkpt lat="44.93963445853971" lon="9.440738504980713"><ele>374.75</ele><time>2026-05-01T09:44:45Z</time></trkpt><trkpt lat="44.93952031012096" lon="9.440624185061285"><ele>376.0</ele><time>2026-05-01T09:44:46Z</time></trkpt><trkpt lat="44.93942411401271" lon="9.440475428733706"><ele>377.25</ele><time>2026-05-01T09:44:47Z</time></trkpt><trkpt lat="44.939313808253665" lon="9.440362806984007"><ele>378.5</ele><time>2026-05-01T09:44:48Z</time></trkpt><trkpt lat="44.93922900679725" lon="9.440227027222676"><ele>379.75</ele><time>2026-05-01T09:44:49Z</time></trkpt><trkpt lat="44.93914784490684" lon="9.440092868554213"><ele>381.0</ele><time>2026-05-01T09:44:50Z</time></trkpt><trkpt lat="44.93906550320052" lon="9.439938838009796"><ele>380.3333333333333</ele><time>2026-05-01T09:44:51Z</time></trkpt><trkpt lat="44.93900215784252" lon="9.439747458133333"><ele>379.66666666666663</ele><time>2026-05-01T09:44:52Z</time></trkpt><trkpt lat="44.93891819502887" lon="9.439562052601971"><ele>379.0</ele><time>2026-05-01T09:44:53Z</time></trkpt><trkpt lat="44.938834943651976" lon="9.43936682092952"><ele>379.0</ele><time>2026-05-01T09:44:54Z</time></trkpt><trkpt lat="44.93875418134272" lon="9.439163372907286"><ele>379.0</ele><time>2026-05-01T09:44:55Z</time></trkpt><trkpt lat="44.938676416179284" lon="9.438950850879596"><ele>379.0</ele><time>2026-05-01T09:44:56Z</time></trkpt><trkpt lat="44.938600880272226" lon="9.438739251003721"><ele>382.3333333333333</ele><time>2026-05-01T09:44:57Z</time></trkpt><trkpt lat="44.93853449852577" lon="9.438544956253116"><ele>385.66666666666663</ele><time>2026-05-01T09:44:58Z</time></trkpt><trkpt lat="44.93849151239954" lon="9.43835838544402"><ele>389.0</ele><time>2026-05-01T09:44:59Z</time></trkpt><trkpt lat="44.93846299725496" lon="9.438123638030621"><ele>389.66666666666663</ele><time>2026-05-01T09:45:00Z</time></trkpt><trkpt lat="44.93845778843458" lon="9.437915184522135"><ele>390.33333333333337</ele><time>2026-05-01T09:45:01Z</time></trkpt><trkpt lat="44.93844581820236" lon="9.437687268037891"><ele>391.0</ele><time>2026-05-01T09:45:02Z</time></trkpt><trkpt lat="44.9384374269174" lon="9.437472033854796"><ele>391.0</ele><time>2026-05-01T09:45:03Z</time></trkpt><trkpt lat="44.93843384608971" lon="9.43729113928682"><ele>391.0</ele><time>2026-05-01T09:45:04Z</time></trkpt><trkpt lat="44.9384470647619" lon="9.437155231952131"><ele>391.0</ele><time>2026-05-01T09:45:05Z</time></trkpt><trkpt lat="44.93850852006494" lon="9.437068316154978"><ele>391.0</ele><time>2026-05-01T09:45:06Z</time></trkpt><trkpt lat="44.93859298454493" lon="9.436983647673179"><ele>391.0</ele><time>2026-05-01T09:45:07Z</time></trkpt><trkpt lat="44.93870004361342" lon="9.43685626372603"><ele>388.75</ele><time>2026-05-01T09:45:08Z</time></trkpt><trkpt lat="44.93880390554187" lon="9.436721150727275"><ele>386.5</ele><time>2026-05-01T09:45:09Z</time></trkpt><trkpt lat="44.93887460517588" lon="9.436573938869849"><ele>384.25</ele><time>2026-05-01T09:45:10Z</time></trkpt><trkpt lat="44.93892498470987" lon="9.436445120873666"><ele>382.0</ele><time>2026-05-01T09:45:11Z</time></trkpt><trkpt lat="44.938929920726096" lon="9.43629817473627"><ele>381.25</ele><time>2026-05-01T09:45:12Z</time></trkpt><trkpt lat="44.93890671361871" lon="9.436119448690501"><ele>380.5</ele><time>2026-05-01T09:45:13Z</time></trkpt><trkpt lat="44.9388723889288" lon="9.435926944041237"><ele>379.75</ele><time>2026-05-01T09:45:14Z</time></trkpt><trkpt lat="44.938818915725456" lon="9.435727875312795"><ele>379.0</ele><time>2026-05-01T09:45:15Z</time></trkpt><trkpt lat="44.93874396958778" lon="9.435533369185329"><ele>377.75</ele><time>2026-05-01T09:45:16Z</time></trkpt><trkpt lat="44.938662202321225" lon="9.435337064773169"><ele>376.5</ele><time>2026-05-01T09:45:17Z</time></trkpt><trkpt lat="44.93862322415486" lon="9.435141468816429"><ele>375.25</ele><time>2026-05-01T09:45:18Z</time></trkpt><trkpt lat="44.93858467426324" lon="9.434954572484763"><ele>374.0</ele><time>2026-05-01T09:45:19Z</time></trkpt><trkpt lat="44.93856044497412" lon="9.434778641228108"><ele>373.79999999999995</ele><time>2026-05-01T09:45:20Z</time></trkpt><trkpt lat="44.938557442977945" lon="9.434608402891781"><ele>373.59999999999997</ele><time>2026-05-01T09:45:21Z</time></trkpt><trkpt lat="44.93854608033451" lon="9.434465424703669"><ele>373.4</ele><time>2026-05-01T09:45:22Z</time></trkpt><trkpt lat="44.93850478555474" lon="9.434331621350374"><ele>373.2</ele><time>2026-05-01T09:45:23Z</time></trkpt><trkpt lat="44.938436443867836" lon="9.434214920738956"><ele>373.0</ele><time>2026-05-01T09:45:24Z</time></trkpt><trkpt lat="44.93831105215785" lon="9.434178724087447"><ele>373.0</ele><time>2026-05-01T09:45:25Z</time></trkpt><trkpt lat="44.938194315362814" lon="9.43415407303277"><ele>373.0</ele><time>2026-05-01T09:45:26Z</time></trkpt><trkpt lat="44.93808987964971" lon="9.434117932949997"><ele>373.0</ele><time>2026-05-01T09:45:27Z</time></trkpt><trkpt lat="44.93798211758229" lon="9.434064641818761"><ele>373.0</ele><time>2026-05-01T09:45:28Z</time></trkpt><trkpt lat="44.937880913802445" lon="9.43398632412332"><ele>373.0</ele><time>2026-05-01T09:45:29Z</time></trkpt><trkpt lat="44.93781246754148" lon="9.433876874571219"><ele>373.0</ele><time>2026-05-01T09:45:30Z</time></trkpt><trkpt lat="44.937791628973834" lon="9.433735188008304"><ele>373.0</ele><time>2026-05-01T09:45:31Z</time></trkpt><trkpt lat="44.93778272898321" lon="9.433562818769433"><ele>373.0</ele><time>2026-05-01T09:45:32Z</time></trkpt><trkpt lat="44.93777403114899" lon="9.433353974733668"><ele>371.3333333333333</ele><time>2026-05-01T09:45:33Z</time></trkpt><trkpt lat="44.93773040241467" lon="9.433142396844076"><ele>369.6666666666667</ele><time>2026-05-01T09:45:34Z</time></trkpt><trkpt lat="44.93768336492255" lon="9.432925830651245"><ele>368.0</ele><time>2026-05-01T09:45:35Z</time></trkpt><trkpt lat="44.937611911661854" lon="9.432706875064662"><ele>368.0</ele><time>2026-05-01T09:45:36Z</time></trkpt><trkpt lat="44.93759022848866" lon="9.4324467013156"><ele>368.0</ele><time>2026-05-01T09:45:37Z</time></trkpt><trkpt lat="44.937543893726456" lon="9.432236573343022"><ele>368.0</ele><time>2026-05-01T09:45:38Z</time></trkpt><trkpt lat="44.93748259409396" lon="9.432072413817279"><ele>374.25</ele><time>2026-05-01T09:45:39Z</time></trkpt><trkpt lat="44.937405433334035" lon="9.431947823553825"><ele>380.5</ele><time>2026-05-01T09:45:40Z</time></trkpt><trkpt lat="44.93732733928914" lon="9.431828341972542"><ele>386.75</ele><time>2026-05-01T09:45:41Z</time></trkpt><trkpt lat="44.93726971135536" lon="9.43166908577075"><ele>393.0</ele><time>2026-05-01T09:45:42Z</time></trkpt><trkpt lat="44.937174393143955" lon="9.431549132312922"><ele>393.0</ele><time>2026-05-01T09:45:43Z</time></trkpt><trkpt lat="44.93709546874558" lon="9.431413327812393"><ele>393.0</ele><time>2026-05-01T09:45:44Z</time></trkpt><trkpt lat="44.93702574117629" lon="9.431259692004097"><ele>393.0</ele><time>2026-05-01T09:45:45Z</time></trkpt><trkpt lat="44.936959835955754" lon="9.43110557688226"><ele>393.0</ele><time>2026-05-01T09:45:46Z</time></trkpt><trkpt lat="44.93692279104423" lon="9.430952682201367"><ele>393.0</ele><time>2026-05-01T09:45:47Z</time></trkpt><trkpt lat="44.936903973169635" lon="9.43082091457624"><ele>393.0</ele><time>2026-05-01T09:45:48Z</time></trkpt><trkpt lat="44.936899468809784" lon="9.430701637811977"><ele>393.0</ele><time>2026-05-01T09:45:49Z</time></trkpt><trkpt lat="44.93690545880279" lon="9.43060315823846"><ele>393.0</ele><time>2026-05-01T09:45:50Z</time></trkpt><trkpt lat="44.936897060497685" lon="9.430490213188213"><ele>393.0</ele><time>2026-05-01T09:45:52Z</time></trkpt><trkpt lat="44.93686225732381" lon="9.430392993995904"><ele>393.0</ele><time>2026-05-01T09:45:54Z</time></trkpt><trkpt lat="44.93679277453541" lon="9.430274217451473"><ele>393.6666666666667</ele><time>2026-05-01T09:45:56Z</time></trkpt><trkpt lat="44.93672419872395" lon="9.430166101942515"><ele>394.33333333333337</ele><time>2026-05-01T09:45:58Z</time></trkpt><trkpt lat="44.936673158652816" lon="9.43008657762225"><ele>395.0</ele><time>2026-05-01T09:46:00Z</time></trkpt><trkpt lat="44.93659382299321" lon="9.429971751069427"><ele>395.6666666666667</ele><time>2026-05-01T09:46:02Z</time></trkpt><trkpt lat="44.93654490201478" lon="9.429912344883853"><ele>396.33333333333337</ele><time>2026-05-01T09:46:03Z</time></trkpt><trkpt lat="44.93649341978017" lon="9.429858182270005"><ele>397.0</ele><time>2026-05-01T09:46:04Z</time></trkpt><trkpt lat="44.936406085486475" lon="9.429764837682237"><ele>397.0</ele><time>2026-05-01T09:46:06Z</time></trkpt><trkpt lat="44.93631358538652" lon="9.42966597173755"><ele>397.0</ele><time>2026-05-01T09:46:08Z</time></trkpt><trkpt lat="44.93625248566048" lon="9.429600667174467"><ele>397.0</ele><time>2026-05-01T09:46:09Z</time></trkpt><trkpt lat="44.93605145247932" lon="9.429748538635897"><ele>397.0</ele><time>2026-05-01T09:46:10Z</time></trkpt><trkpt lat="44.93592534442247" lon="9.429713619661463"><ele>394.75</ele><time>2026-05-01T09:46:11Z</time></trkpt><trkpt lat="44.93579350594791" lon="9.429673464080468"><ele>392.5</ele><time>2026-05-01T09:46:12Z</time></trkpt><trkpt lat="44.93566509896934" lon="9.429610349348604"><ele>390.25</ele><time>2026-05-01T09:46:13Z</time></trkpt><trkpt lat="44.935517834509724" lon="9.42955679422852"><ele>388.0</ele><time>2026-05-01T09:46:14Z</time></trkpt><trkpt lat="44.93535340904018" lon="9.429529667060457"><ele>388.0</ele><time>2026-05-01T09:46:15Z</time></trkpt><trkpt lat="44.93518737900153" lon="9.429516715099464"><ele>388.0</ele><time>2026-05-01T09:46:16Z</time></trkpt><trkpt lat="44.93503411099773" lon="9.429513959703268"><ele>388.0</ele><time>2026-05-01T09:46:17Z</time></trkpt><trkpt lat="44.93490363208705" lon="9.429510813944109"><ele>388.4</ele><time>2026-05-01T09:46:18Z</time></trkpt><trkpt lat="44.93478997365699" lon="9.429516109975808"><ele>388.79999999999995</ele><time>2026-05-01T09:46:19Z</time></trkpt><trkpt lat="44.934675324440626" lon="9.42949409820998"><ele>389.2</ele><time>2026-05-01T09:46:20Z</time></trkpt><trkpt lat="44.93457155281576" lon="9.429443775527695"><ele>389.6</ele><time>2026-05-01T09:46:21Z</time></trkpt><trkpt lat="44.93448816918429" lon="9.429369110037197"><ele>390.0</ele><time>2026-05-01T09:46:22Z</time></trkpt><trkpt lat="44.93442847363399" lon="9.429277876545658"><ele>390.0</ele><time>2026-05-01T09:46:23Z</time></trkpt><trkpt lat="44.934376931565716" lon="9.42916869494893"><ele>390.0</ele><time>2026-05-01T09:46:24Z</time></trkpt><trkpt lat="44.9343299388841" lon="9.429042424386745"><ele>390.0</ele><time>2026-05-01T09:46:25Z</time></trkpt><trkpt lat="44.93426825263224" lon="9.428900324672037"><ele>390.0</ele><time>2026-05-01T09:46:26Z</time></trkpt><trkpt lat="44.93420417582146" lon="9.428778263947484"><ele>390.0</ele><time>2026-05-01T09:46:27Z</time></trkpt><trkpt lat="44.934140609292356" lon="9.428686129145225"><ele>390.6666666666667</ele><time>2026-05-01T09:46:28Z</time></trkpt><trkpt lat="44.93407068107911" lon="9.428608205271455"><ele>391.33333333333337</ele><time>2026-05-01T09:46:29Z</time></trkpt><trkpt lat="44.933992411663674" lon="9.428543908541018"><ele>392.0</ele><time>2026-05-01T09:46:30Z</time></trkpt><trkpt lat="44.93390834121988" lon="9.428495822336664"><ele>392.6666666666667</ele><time>2026-05-01T09:46:31Z</time></trkpt><trkpt lat="44.933834285138104" lon="9.42845277230616"><ele>393.33333333333337</ele><time>2026-05-01T09:46:32Z</time></trkpt><trkpt lat="44.9337542567591" lon="9.428525215588554"><ele>394.0</ele><time>2026-05-01T09:46:33Z</time></trkpt><trkpt lat="44.93365236381313" lon="9.42855755050554"><ele>394.0</ele><time>2026-05-01T09:46:34Z</time></trkpt><trkpt lat="44.933558895095686" lon="9.428574502282007"><ele>394.0</ele><time>2026-05-01T09:46:35Z</time></trkpt><trkpt lat="44.933469749519105" lon="9.428565707306701"><ele>394.0</ele><time>2026-05-01T09:46:36Z</time></trkpt><trkpt lat="44.933375112866926" lon="9.428550036240617"><ele>394.0</ele><time>2026-05-01T09:46:37Z</time></trkpt><trkpt lat="44.93326274878616" lon="9.428537410372554"><ele>394.0</ele><time>2026-05-01T09:46:38Z</time></trkpt><trkpt lat="44.933152104172" lon="9.42853168389813"><ele>394.0</ele><time>2026-05-01T09:46:39Z</time></trkpt><trkpt lat="44.932918878095236" lon="9.428529965207535"><ele>394.0</ele><time>2026-05-01T09:46:41Z</time></trkpt><trkpt lat="44.93280533354993" lon="9.428534614152465"><ele>394.0</ele><time>2026-05-01T09:46:42Z</time></trkpt><trkpt lat="44.932706248014995" lon="9.428545452744578"><ele>394.0</ele><time>2026-05-01T09:46:43Z</time></trkpt><trkpt lat="44.932619092118856" lon="9.428562063302108"><ele>392.79999999999995</ele><time>2026-05-01T09:46:44Z</time></trkpt><trkpt lat="44.93253442292292" lon="9.428580948303255"><ele>391.59999999999997</ele><time>2026-05-01T09:46:45Z</time></trkpt><trkpt lat="44.93244281890516" lon="9.428601587135526"><ele>390.4</ele><time>2026-05-01T09:46:46Z</time></trkpt><trkpt lat="44.932337387614645" lon="9.42862791112063"><ele>389.2</ele><time>2026-05-01T09:46:47Z</time></trkpt><trkpt lat="44.932233549143994" lon="9.42867614458388"><ele>388.0</ele><time>2026-05-01T09:46:48Z</time></trkpt><trkpt lat="44.932126260657675" lon="9.42869221600758"><ele>388.0</ele><time>2026-05-01T09:46:49Z</time></trkpt><trkpt lat="44.93203607211184" lon="9.428672149632987"><ele>388.0</ele><time>2026-05-01T09:46:50Z</time></trkpt><trkpt lat="44.93194199956117" lon="9.428658034795465"><ele>388.0</ele><time>2026-05-01T09:46:51Z</time></trkpt><trkpt lat="44.93184493555323" lon="9.428641135213487"><ele>388.0</ele><time>2026-05-01T09:46:52Z</time></trkpt><trkpt lat="44.931751150556664" lon="9.428621670095591"><ele>388.0</ele><time>2026-05-01T09:46:53Z</time></trkpt><trkpt lat="44.93167087030857" lon="9.428602029084727"><ele>388.57142857142856</ele><time>2026-05-01T09:46:54Z</time></trkpt><trkpt lat="44.931608207541494" lon="9.428585563447522"><ele>389.14285714285717</ele><time>2026-05-01T09:46:55Z</time></trkpt><trkpt lat="44.93154453588721" lon="9.428566873597163"><ele>389.7142857142857</ele><time>2026-05-01T09:46:58Z</time></trkpt><trkpt lat="44.93146368098768" lon="9.428542139482296"><ele>390.2857142857143</ele><time>2026-05-01T09:47:26Z</time></trkpt><trkpt lat="44.93139421599084" lon="9.428517978421064"><ele>390.8571428571429</ele><time>2026-05-01T09:47:27Z</time></trkpt><trkpt lat="44.93132423029481" lon="9.428508007582733"><ele>391.42857142857144</ele><time>2026-05-01T09:47:28Z</time></trkpt><trkpt lat="44.93126038827519" lon="9.428504218519695"><ele>392.0</ele><time>2026-05-01T09:47:29Z</time></trkpt><trkpt lat="44.93116555911932" lon="9.428520655741012"><ele>391.99999999999994</ele><time>2026-05-01T09:47:31Z</time></trkpt><trkpt lat="44.93105451412287" lon="9.428574539852223"><ele>392.0</ele><time>2026-05-01T09:47:33Z</time></trkpt><trkpt lat="44.93098195772871" lon="9.428575239821397"><ele>392.0</ele><time>2026-05-01T09:47:34Z</time></trkpt><trkpt lat="44.93091611691253" lon="9.428579585083853"><ele>392.0</ele><time>2026-05-01T09:47:35Z</time></trkpt><trkpt lat="44.930824632992746" lon="9.42860382815071"><ele>391.99999999999994</ele><time>2026-05-01T09:47:37Z</time></trkpt><trkpt lat="44.93074132988955" lon="9.428606940979291"><ele>392.0</ele><time>2026-05-01T09:47:49Z</time></trkpt><trkpt lat="44.93067902210199" lon="9.428590544213339"><ele>392.49999999999994</ele><time>2026-05-01T09:47:50Z</time></trkpt><trkpt lat="44.93059361010237" lon="9.428547148764784"><ele>393.0</ele><time>2026-05-01T09:47:52Z</time></trkpt><trkpt lat="44.93049944682607" lon="9.428470582471222"><ele>393.5</ele><time>2026-05-01T09:47:54Z</time></trkpt><trkpt lat="44.93041516907113" lon="9.428392434774668"><ele>394.0</ele><time>2026-05-01T09:47:56Z</time></trkpt><trkpt lat="44.93036386543802" lon="9.428339149222523"><ele>394.49999999999994</ele><time>2026-05-01T09:47:58Z</time></trkpt><trkpt lat="44.930305900441795" lon="9.428274250749363"><ele>395.0</ele><time>2026-05-01T09:48:00Z</time></trkpt><trkpt lat="44.93022895535473" lon="9.428210636573251"><ele>395.0</ele><time>2026-05-01T09:48:02Z</time></trkpt><trkpt lat="44.93012546158782" lon="9.428157039780933"><ele>395.0</ele><time>2026-05-01T09:48:04Z</time></trkpt><trkpt lat="44.92965306692916" lon="9.428958577744138"><ele>399.8</ele><time>2026-05-01T09:48:05Z</time></trkpt><trkpt lat="44.92960352809124" lon="9.429033535720018"><ele>404.6</ele><time>2026-05-01T09:48:06Z</time></trkpt><trkpt lat="44.9295620762946" lon="9.429106425991788"><ele>409.4</ele><time>2026-05-01T09:48:07Z</time></trkpt><trkpt lat="44.929398470957175" lon="9.42904726004332"><ele>414.2</ele><time>2026-05-01T09:48:08Z</time></trkpt><trkpt lat="44.9293607055715" lon="9.429174244691783"><ele>419.0</ele><time>2026-05-01T09:48:09Z</time></trkpt><trkpt lat="44.92936819325694" lon="9.429314337713437"><ele>418.99999999999994</ele><time>2026-05-01T09:48:10Z</time></trkpt><trkpt lat="44.929349561253865" lon="9.429464103030499"><ele>419.0</ele><time>2026-05-01T09:48:12Z</time></trkpt><trkpt lat="44.929322346993935" lon="9.429581021411636"><ele>419.0</ele><time>2026-05-01T09:48:13Z</time></trkpt><trkpt lat="44.92930808098863" lon="9.429708436180627"><ele>419.0</ele><time>2026-05-01T09:48:14Z</time></trkpt><trkpt lat="44.92929840024536" lon="9.429804311075072"><ele>418.99999999999994</ele><time>2026-05-01T09:48:15Z</time></trkpt><trkpt lat="44.929283862345336" lon="9.429928144872742"><ele>419.0</ele><time>2026-05-01T09:48:17Z</time></trkpt><trkpt lat="44.92926366989417" lon="9.430049275701224"><ele>418.4</ele><time>2026-05-01T09:48:20Z</time></trkpt><trkpt lat="44.9292253037762" lon="9.430140361530109"><ele>417.79999999999995</ele><time>2026-05-01T09:48:22Z</time></trkpt><trkpt lat="44.929141236135536" lon="9.430251606526078"><ele>417.20000000000005</ele><time>2026-05-01T09:48:24Z</time></trkpt><trkpt lat="44.92911284762451" lon="9.430332116023466"><ele>416.6</ele><time>2026-05-01T09:48:25Z</time></trkpt><trkpt lat="44.929032746162136" lon="9.43047874932464"><ele>416.0</ele><time>2026-05-01T09:48:27Z</time></trkpt><trkpt lat="44.92897610902986" lon="9.430596068406388"><ele>415.16666666666663</ele><time>2026-05-01T09:48:29Z</time></trkpt><trkpt lat="44.928930429646925" lon="9.43069405962146"><ele>414.3333333333333</ele><time>2026-05-01T09:48:31Z</time></trkpt><trkpt lat="44.928897425996844" lon="9.430783137860574"><ele>413.5</ele><time>2026-05-01T09:48:35Z</time></trkpt><trkpt lat="44.92885181425981" lon="9.4308506333854"><ele>412.66666666666663</ele><time>2026-05-01T09:48:47Z</time></trkpt><trkpt lat="44.928808242777514" lon="9.430967462541785"><ele>411.8333333333333</ele><time>2026-05-01T09:48:49Z</time></trkpt><trkpt lat="44.92874758038595" lon="9.43110027574679"><ele>411.0</ele><time>2026-05-01T09:48:51Z</time></trkpt><trkpt lat="44.928659776651934" lon="9.431211823557764"><ele>411.0</ele><time>2026-05-01T09:48:53Z</time></trkpt><trkpt lat="44.92858279298482" lon="9.431340366654988"><ele>411.0</ele><time>2026-05-01T09:48:55Z</time></trkpt><trkpt lat="44.92855530308934" lon="9.43143219652556"><ele>411.0</ele><time>2026-05-01T09:48:56Z</time></trkpt><trkpt lat="44.92852215074349" lon="9.431530360588352"><ele>411.0</ele><time>2026-05-01T09:48:57Z</time></trkpt><trkpt lat="44.92846238325823" lon="9.431609369704685"><ele>411.0</ele><time>2026-05-01T09:48:58Z</time></trkpt><trkpt lat="44.928409461768226" lon="9.43170117793235"><ele>411.0</ele><time>2026-05-01T09:48:59Z</time></trkpt><trkpt lat="44.928353648781965" lon="9.431772289524554"><ele>411.0</ele><time>2026-05-01T09:49:00Z</time></trkpt><trkpt lat="44.92830046195795" lon="9.431834471668049"><ele>411.0</ele><time>2026-05-01T09:49:01Z</time></trkpt><trkpt lat="44.928205083601135" lon="9.431879292132082"><ele>411.0</ele><time>2026-05-01T09:49:03Z</time></trkpt><trkpt lat="44.92813128990192" lon="9.431898659421622"><ele>411.0</ele><time>2026-05-01T09:49:04Z</time></trkpt><trkpt lat="44.928036847349944" lon="9.43197401411739"><ele>411.0</ele><time>2026-05-01T09:49:05Z</time></trkpt><trkpt lat="44.92799080845422" lon="9.43205580919243"><ele>411.0</ele><time>2026-05-01T09:49:06Z</time></trkpt><trkpt lat="44.92793747386976" lon="9.432140846376448"><ele>411.0</ele><time>2026-05-01T09:49:08Z</time></trkpt><trkpt lat="44.92797998015809" lon="9.432074077369947"><ele>411.0</ele><time>2026-05-01T09:50:37Z</time></trkpt><trkpt lat="44.92814213370129" lon="9.431919802496255"><ele>411.0</ele><time>2026-05-01T09:50:41Z</time></trkpt><trkpt lat="44.92821200637967" lon="9.432006409298685"><ele>411.0</ele><time>2026-05-01T09:50:42Z</time></trkpt><trkpt lat="44.928271984251964" lon="9.431935767561272"><ele>411.0</ele><time>2026-05-01T09:50:44Z</time></trkpt><trkpt lat="44.92822917283008" lon="9.431851518006876"><ele>411.0</ele><time>2026-05-01T09:50:51Z</time></trkpt><trkpt lat="44.928160452552845" lon="9.43191044064073"><ele>411.0</ele><time>2026-05-01T09:50:52Z</time></trkpt><trkpt lat="44.92804650459106" lon="9.431955889685558"><ele>411.0</ele><time>2026-05-01T09:50:54Z</time></trkpt><trkpt lat="44.92798503842754" lon="9.432067346404503"><ele>411.0</ele><time>2026-05-01T09:50:57Z</time></trkpt><trkpt lat="44.92792087568416" lon="9.432115505540962"><ele>411.0</ele><time>2026-05-01T09:51:00Z</time></trkpt><trkpt lat="44.927836847978334" lon="9.43214863291611"><ele>411.0</ele><time>2026-05-01T09:51:02Z</time></trkpt><trkpt lat="44.927731124780216" lon="9.432124811801723"><ele>411.0</ele><time>2026-05-01T09:51:04Z</time></trkpt><trkpt lat="44.92763796886321" lon="9.432092658701341"><ele>411.0</ele><time>2026-05-01T09:51:06Z</time></trkpt><trkpt lat="44.92757417075323" lon="9.432076929923685"><ele>411.0</ele><time>2026-05-01T09:51:08.001Z</time></trkpt><trkpt lat="44.92751881676583" lon="9.432135382706726"><ele>411.0</ele><time>2026-05-01T09:51:11.001Z</time></trkpt><trkpt lat="44.92748936610085" lon="9.432223743987457"><ele>411.0</ele><time>2026-05-01T09:51:15.001Z</time></trkpt><trkpt lat="44.9274520778051" lon="9.432298119033456"><ele>411.8333333333333</ele><time>2026-05-01T09:51:23.001Z</time></trkpt><trkpt lat="44.927389930897746" lon="9.432375685202395"><ele>412.66666666666663</ele><time>2026-05-01T09:51:28.001Z</time></trkpt><trkpt lat="44.92732777488327" lon="9.432360977577616"><ele>413.5</ele><time>2026-05-01T09:51:30.001Z</time></trkpt><trkpt lat="44.9272618542619" lon="9.432336628579888"><ele>414.3333333333333</ele><time>2026-05-01T09:51:32.001Z</time></trkpt><trkpt lat="44.92720194220864" lon="9.432193182536711"><ele>415.16666666666663</ele><time>2026-05-01T09:51:34.001Z</time></trkpt><trkpt lat="44.92719380112543" lon="9.432079510625874"><ele>416.0</ele><time>2026-05-01T09:51:35.001Z</time></trkpt><trkpt lat="44.927147199188276" lon="9.431974280055718"><ele>416.0</ele><time>2026-05-01T09:51:37.001Z</time></trkpt><trkpt lat="44.9270607631552" lon="9.431978690726543"><ele>416.0</ele><time>2026-05-01T09:51:40.001Z</time></trkpt><trkpt lat="44.92697432682417" lon="9.432042271110827"><ele>416.0</ele><time>2026-05-01T09:51:42.001Z</time></trkpt><trkpt lat="44.92690687196654" lon="9.432106132602177"><ele>416.0</ele><time>2026-05-01T09:51:44Z</time></trkpt><trkpt lat="44.92683478439424" lon="9.432177550943981"><ele>416.0</ele><time>2026-05-01T09:55:03Z</time></trkpt><trkpt lat="44.926746259261606" lon="9.432291167030497"><ele>418.66666666666663</ele><time>2026-05-01T09:55:05Z</time></trkpt><trkpt lat="44.926687303772695" lon="9.432351657972594"><ele>421.3333333333333</ele><time>2026-05-01T09:55:06Z</time></trkpt><trkpt lat="44.92661913629342" lon="9.432404888229103"><ele>424.0</ele><time>2026-05-01T09:55:07Z</time></trkpt><trkpt lat="44.926546521213915" lon="9.432490625582263"><ele>426.66666666666663</ele><time>2026-05-01T09:55:09Z</time></trkpt><trkpt lat="44.926475445327945" lon="9.432503871489299"><ele>429.3333333333333</ele><time>2026-05-01T09:55:12Z</time></trkpt><trkpt lat="44.926379057370745" lon="9.432484125581826"><ele>432.0</ele><time>2026-05-01T09:55:17Z</time></trkpt><trkpt lat="44.92631225075704" lon="9.43247481345258"><ele>432.0</ele><time>2026-05-01T10:12:47Z</time></trkpt><trkpt lat="44.92617334218491" lon="9.432469888599913"><ele>432.00000000000006</ele><time>2026-05-01T10:21:59Z</time></trkpt><trkpt lat="44.92606671184302" lon="9.43244923821509"><ele>432.00000000000006</ele><time>2026-05-01T10:22:00Z</time></trkpt><trkpt lat="44.92596371257323" lon="9.432429776219415"><ele>432.0</ele><time>2026-05-01T10:22:01Z</time></trkpt><trkpt lat="44.92587013793477" lon="9.432433170586107"><ele>432.0</ele><time>2026-05-01T10:22:02Z</time></trkpt><trkpt lat="44.92577144605453" lon="9.432438512125309"><ele>433.20000000000005</ele><time>2026-05-01T10:22:03Z</time></trkpt><trkpt lat="44.92569164663193" lon="9.432413743311146"><ele>434.40000000000003</ele><time>2026-05-01T10:22:04Z</time></trkpt><trkpt lat="44.92561202293473" lon="9.432339035057183"><ele>435.59999999999997</ele><time>2026-05-01T10:22:05Z</time></trkpt><trkpt lat="44.925542191362496" lon="9.432256544597669"><ele>436.79999999999995</ele><time>2026-05-01T10:22:06Z</time></trkpt><trkpt lat="44.92544607692985" lon="9.432213816735546"><ele>438.0</ele><time>2026-05-01T10:22:08Z</time></trkpt><trkpt lat="44.92531696605347" lon="9.43221924271517"><ele>438.0</ele><time>2026-05-01T10:22:10Z</time></trkpt><trkpt lat="44.92525436211396" lon="9.432238064395532"><ele>437.99999999999994</ele><time>2026-05-01T10:22:11Z</time></trkpt><trkpt lat="44.925146571974146" lon="9.432251239094006"><ele>437.99999999999994</ele><time>2026-05-01T10:22:13Z</time></trkpt><trkpt lat="44.92504774465232" lon="9.432218508950955"><ele>438.0</ele><time>2026-05-01T10:22:15Z</time></trkpt><trkpt lat="44.92498794543488" lon="9.43218436065123"><ele>438.0</ele><time>2026-05-01T10:22:16Z</time></trkpt><trkpt lat="44.92488420946027" lon="9.432104030175115"><ele>436.5714285714286</ele><time>2026-05-01T10:22:18Z</time></trkpt><trkpt lat="44.92482441107856" lon="9.43206108280964"><ele>435.1428571428571</ele><time>2026-05-01T10:22:19Z</time></trkpt><trkpt lat="44.92476271482848" lon="9.43201286507421"><ele>433.7142857142857</ele><time>2026-05-01T10:22:20Z</time></trkpt><trkpt lat="44.924700475691566" lon="9.431962432012924"><ele>432.28571428571433</ele><time>2026-05-01T10:22:21Z</time></trkpt><trkpt lat="44.924637519136986" lon="9.4319035335449"><ele>430.8571428571429</ele><time>2026-05-01T10:22:22Z</time></trkpt><trkpt lat="44.92457706809982" lon="9.431837698906932"><ele>429.42857142857144</ele><time>2026-05-01T10:22:23Z</time></trkpt><trkpt lat="44.924523585300236" lon="9.43177063293515"><ele>428.0</ele><time>2026-05-01T10:22:24Z</time></trkpt><trkpt lat="44.92446768014053" lon="9.431696808609935"><ele>427.99999999999994</ele><time>2026-05-01T10:22:25Z</time></trkpt><trkpt lat="44.924422425883634" lon="9.431610697714982"><ele>428.0</ele><time>2026-05-01T10:22:26Z</time></trkpt><trkpt lat="44.924393437202944" lon="9.43152355243891"><ele>428.0</ele><time>2026-05-01T10:22:27Z</time></trkpt><trkpt lat="44.92437538704035" lon="9.431410833679738"><ele>428.0</ele><time>2026-05-01T10:22:28Z</time></trkpt><trkpt lat="44.92434713628087" lon="9.431288235199945"><ele>427.99999999999994</ele><time>2026-05-01T10:22:29Z</time></trkpt><trkpt lat="44.92431229536675" lon="9.431147121593613"><ele>428.0</ele><time>2026-05-01T10:22:30Z</time></trkpt><trkpt lat="44.92427582965594" lon="9.431025310556057"><ele>428.3333333333333</ele><time>2026-05-01T10:22:31Z</time></trkpt><trkpt lat="44.92423765760972" lon="9.430932944669133"><ele>428.66666666666663</ele><time>2026-05-01T10:22:32Z</time></trkpt><trkpt lat="44.924189264938825" lon="9.430853613703365"><ele>429.0</ele><time>2026-05-01T10:22:33Z</time></trkpt><trkpt lat="44.9241379737852" lon="9.430781368981407"><ele>429.33333333333337</ele><time>2026-05-01T10:22:34Z</time></trkpt><trkpt lat="44.92408780597466" lon="9.430713121208523"><ele>429.6666666666667</ele><time>2026-05-01T10:22:35Z</time></trkpt><trkpt lat="44.92398361818935" lon="9.430627855507868"><ele>430.0</ele><time>2026-05-01T10:22:37Z</time></trkpt><trkpt lat="44.92391093204447" lon="9.430595526457301"><ele>430.00000000000006</ele><time>2026-05-01T10:22:38Z</time></trkpt><trkpt lat="44.92383644117508" lon="9.430572992751735"><ele>430.0</ele><time>2026-05-01T10:22:39Z</time></trkpt><trkpt lat="44.92375475913342" lon="9.430557823618408"><ele>430.0</ele><time>2026-05-01T10:22:40Z</time></trkpt><trkpt lat="44.92367279683525" lon="9.430548811132779"><ele>430.0</ele><time>2026-05-01T10:22:41Z</time></trkpt><trkpt lat="44.9235988110896" lon="9.430540799902381"><ele>430.00000000000006</ele><time>2026-05-01T10:22:42Z</time></trkpt><trkpt lat="44.92353024617182" lon="9.430540608897132"><ele>430.0</ele><time>2026-05-01T10:22:43Z</time></trkpt><trkpt lat="44.923450023277" lon="9.430551606469708"><ele>431.1666666666667</ele><time>2026-05-01T10:22:44Z</time></trkpt><trkpt lat="44.92336982131057" lon="9.430573843265838"><ele>432.33333333333337</ele><time>2026-05-01T10:22:45Z</time></trkpt><trkpt lat="44.923293397968585" lon="9.43060638309106"><ele>433.5</ele><time>2026-05-01T10:22:46Z</time></trkpt><trkpt lat="44.92320698848744" lon="9.43064259357472"><ele>434.66666666666663</ele><time>2026-05-01T10:22:47Z</time></trkpt><trkpt lat="44.923129017011405" lon="9.430687513613275"><ele>435.8333333333333</ele><time>2026-05-01T10:22:48Z</time></trkpt><trkpt lat="44.92304731640055" lon="9.430712144745291"><ele>437.0</ele><time>2026-05-01T10:22:49Z</time></trkpt><trkpt lat="44.9229580803997" lon="9.43073099195338"><ele>436.99999999999994</ele><time>2026-05-01T10:22:50Z</time></trkpt><trkpt lat="44.92288655285001" lon="9.430753167549131"><ele>437.0</ele><time>2026-05-01T10:22:51Z</time></trkpt><trkpt lat="44.92281941144239" lon="9.430757712143373"><ele>437.0</ele><time>2026-05-01T10:22:52Z</time></trkpt><trkpt lat="44.92273405458743" lon="9.430756885020804"><ele>437.0</ele><time>2026-05-01T10:22:53Z</time></trkpt><trkpt lat="44.922644105743366" lon="9.430736551083086"><ele>436.99999999999994</ele><time>2026-05-01T10:22:54Z</time></trkpt><trkpt lat="44.92257608891381" lon="9.43071189267752"><ele>437.0</ele><time>2026-05-01T10:22:55Z</time></trkpt><trkpt lat="44.92251244460519" lon="9.430680578503553"><ele>435.66666666666663</ele><time>2026-05-01T10:22:56Z</time></trkpt><trkpt lat="44.9223995941956" lon="9.430606410494297"><ele>434.3333333333333</ele><time>2026-05-01T10:22:58Z</time></trkpt><trkpt lat="44.92232536299185" lon="9.430571354861172"><ele>433.0</ele><time>2026-05-01T10:22:59Z</time></trkpt><trkpt lat="44.92224654622004" lon="9.4305520055985"><ele>431.66666666666663</ele><time>2026-05-01T10:23:00Z</time></trkpt><trkpt lat="44.922166874612344" lon="9.430549219402865"><ele>430.3333333333333</ele><time>2026-05-01T10:23:01Z</time></trkpt><trkpt lat="44.92208454414972" lon="9.430569164803975"><ele>429.0</ele><time>2026-05-01T10:23:02Z</time></trkpt><trkpt lat="44.92199799531052" lon="9.43059642223139"><ele>429.0</ele><time>2026-05-01T10:23:03Z</time></trkpt><trkpt lat="44.921907922057066" lon="9.430633155753613"><ele>429.0</ele><time>2026-05-01T10:23:04Z</time></trkpt><trkpt lat="44.92182701903973" lon="9.430685823177564"><ele>429.0</ele><time>2026-05-01T10:23:05Z</time></trkpt><trkpt lat="44.92176027215051" lon="9.430750877260639"><ele>429.0</ele><time>2026-05-01T10:23:06Z</time></trkpt><trkpt lat="44.92171647403213" lon="9.430828824056215"><ele>429.0</ele><time>2026-05-01T10:23:07Z</time></trkpt><trkpt lat="44.92167509676404" lon="9.430926474189373"><ele>429.0</ele><time>2026-05-01T10:23:08Z</time></trkpt><trkpt lat="44.92161703156676" lon="9.431009515703478"><ele>426.6666666666667</ele><time>2026-05-01T10:23:09Z</time></trkpt><trkpt lat="44.92155171620777" lon="9.431065313377427"><ele>424.33333333333337</ele><time>2026-05-01T10:23:10Z</time></trkpt><trkpt lat="44.92147694167771" lon="9.431115972730302"><ele>422.0</ele><time>2026-05-01T10:23:11Z</time></trkpt><trkpt lat="44.92139967828792" lon="9.4311552816824"><ele>419.6666666666667</ele><time>2026-05-01T10:23:12Z</time></trkpt><trkpt lat="44.92133076945148" lon="9.431195261557447"><ele>417.33333333333337</ele><time>2026-05-01T10:23:13Z</time></trkpt><trkpt lat="44.92127289782908" lon="9.431236244769211"><ele>415.0</ele><time>2026-05-01T10:23:14Z</time></trkpt><trkpt lat="44.92120893540532" lon="9.4312911676633"><ele>414.0</ele><time>2026-05-01T10:23:15Z</time></trkpt><trkpt lat="44.92113727790663" lon="9.431380506579321"><ele>413.0</ele><time>2026-05-01T10:23:16Z</time></trkpt><trkpt lat="44.921055395865245" lon="9.431499767520759"><ele>412.0</ele><time>2026-05-01T10:23:17Z</time></trkpt><trkpt lat="44.92096542477818" lon="9.431619694126393"><ele>411.0</ele><time>2026-05-01T10:23:18Z</time></trkpt><trkpt lat="44.92088278073705" lon="9.431718332086508"><ele>410.0</ele><time>2026-05-01T10:23:19Z</time></trkpt><trkpt lat="44.9207995845681" lon="9.431783183239663"><ele>410.0</ele><time>2026-05-01T10:23:20Z</time></trkpt><trkpt lat="44.920704070742936" lon="9.431817241764335"><ele>410.0</ele><time>2026-05-01T10:23:21Z</time></trkpt><trkpt lat="44.92059905923854" lon="9.43182683515108"><ele>410.0</ele><time>2026-05-01T10:23:22Z</time></trkpt><trkpt lat="44.920486639552706" lon="9.431850103800352"><ele>410.0</ele><time>2026-05-01T10:23:23Z</time></trkpt><trkpt lat="44.920370167659634" lon="9.431866733874426"><ele>410.0</ele><time>2026-05-01T10:23:24Z</time></trkpt><trkpt lat="44.92025614413083" lon="9.431877150524638"><ele>409.99999999999994</ele><time>2026-05-01T10:23:25Z</time></trkpt><trkpt lat="44.92015035095981" lon="9.431881393960497"><ele>410.0</ele><time>2026-05-01T10:23:26Z</time></trkpt><trkpt lat="44.9200676027338" lon="9.431889857387116"><ele>410.0</ele><time>2026-05-01T10:23:27Z</time></trkpt><trkpt lat="44.91999414521075" lon="9.43189619641097"><ele>410.0</ele><time>2026-05-01T10:23:28Z</time></trkpt><trkpt lat="44.91992852426215" lon="9.431898812182455"><ele>409.99999999999994</ele><time>2026-05-01T10:23:29Z</time></trkpt><trkpt lat="44.91985892251334" lon="9.43190778557897"><ele>410.0</ele><time>2026-05-01T10:23:31Z</time></trkpt><trkpt lat="44.91980861572019" lon="9.431972920239398"><ele>410.0</ele><time>2026-05-01T10:23:34Z</time></trkpt><trkpt lat="44.9197529673724" lon="9.432086985022162"><ele>410.0</ele><time>2026-05-01T10:23:37Z</time></trkpt><trkpt lat="44.91976755039499" lon="9.432291866304572"><ele>410.0</ele><time>2026-05-01T10:23:39Z</time></trkpt><trkpt lat="44.919779368420656" lon="9.432433089037566"><ele>410.0</ele><time>2026-05-01T10:23:40Z</time></trkpt><trkpt lat="44.91977639390151" lon="9.432557128175944"><ele>410.0</ele><time>2026-05-01T10:23:41Z</time></trkpt><trkpt lat="44.91977776269779" lon="9.432662447260016"><ele>410.5</ele><time>2026-05-01T10:23:42Z</time></trkpt><trkpt lat="44.9197829287393" lon="9.432776520807277"><ele>411.0</ele><time>2026-05-01T10:23:44Z</time></trkpt><trkpt lat="44.919577045764605" lon="9.432892008205407"><ele>411.5</ele><time>2026-05-01T10:23:48Z</time></trkpt><trkpt lat="44.91950976133983" lon="9.43300424719009"><ele>412.0</ele><time>2026-05-01T10:23:49Z</time></trkpt><trkpt lat="44.9194399959886" lon="9.433121167487753"><ele>412.5</ele><time>2026-05-01T10:23:50Z</time></trkpt><trkpt lat="44.91938909984452" lon="9.43324731191875"><ele>413.0</ele><time>2026-05-01T10:23:51Z</time></trkpt><trkpt lat="44.91933571197951" lon="9.43338131224981"><ele>413.5</ele><time>2026-05-01T10:23:52Z</time></trkpt><trkpt lat="44.91930412894301" lon="9.433538275521075"><ele>414.0</ele><time>2026-05-01T10:23:53Z</time></trkpt><trkpt lat="44.919275424878926" lon="9.433713107388947"><ele>414.0</ele><time>2026-05-01T10:23:54Z</time></trkpt><trkpt lat="44.91924761001086" lon="9.433902371663006"><ele>414.0</ele><time>2026-05-01T10:23:55Z</time></trkpt><trkpt lat="44.91920905358295" lon="9.434121405110028"><ele>414.0</ele><time>2026-05-01T10:23:56Z</time></trkpt><trkpt lat="44.91914154837695" lon="9.434340156489734"><ele>413.0</ele><time>2026-05-01T10:23:57Z</time></trkpt><trkpt lat="44.919077987828544" lon="9.43456294071872"><ele>412.0</ele><time>2026-05-01T10:23:58Z</time></trkpt><trkpt lat="44.91903849367379" lon="9.43479643672769"><ele>411.0</ele><time>2026-05-01T10:23:59Z</time></trkpt><trkpt lat="44.918957087876734" lon="9.43501107915001"><ele>411.0</ele><time>2026-05-01T10:24:00Z</time></trkpt><trkpt lat="44.91887078608652" lon="9.435224605249937"><ele>411.0</ele><time>2026-05-01T10:24:01Z</time></trkpt><trkpt lat="44.91877091389156" lon="9.435433879157303"><ele>411.0</ele><time>2026-05-01T10:24:02Z</time></trkpt><trkpt lat="44.91867031919519" lon="9.435634464936925"><ele>412.0</ele><time>2026-05-01T10:24:03Z</time></trkpt><trkpt lat="44.91856957376588" lon="9.435838075347295"><ele>413.0</ele><time>2026-05-01T10:24:04Z</time></trkpt><trkpt lat="44.918475138697794" lon="9.43603602135851"><ele>414.0</ele><time>2026-05-01T10:24:05Z</time></trkpt><trkpt lat="44.918395985336595" lon="9.436215029989132"><ele>414.0</ele><time>2026-05-01T10:24:06Z</time></trkpt><trkpt lat="44.91833104540373" lon="9.43636133259831"><ele>414.0</ele><time>2026-05-01T10:24:07Z</time></trkpt><trkpt lat="44.918264211184635" lon="9.436473036608655"><ele>414.0</ele><time>2026-05-01T10:24:08Z</time></trkpt><trkpt lat="44.91818514102132" lon="9.436541600040018"><ele>414.0</ele><time>2026-05-01T10:24:09Z</time></trkpt><trkpt lat="44.91808338778449" lon="9.43659513612718"><ele>414.0</ele><time>2026-05-01T10:24:10Z</time></trkpt><trkpt lat="44.917989084399174" lon="9.436662780015713"><ele>414.0</ele><time>2026-05-01T10:24:11Z</time></trkpt><trkpt lat="44.91789886337022" lon="9.436742020526385"><ele>414.0</ele><time>2026-05-01T10:24:12Z</time></trkpt><trkpt lat="44.91780264539203" lon="9.436838592721697"><ele>414.0</ele><time>2026-05-01T10:24:13Z</time></trkpt><trkpt lat="44.9176917766759" lon="9.436929301234732"><ele>414.0</ele><time>2026-05-01T10:24:14Z</time></trkpt><trkpt lat="44.91756003806469" lon="9.436978274953532"><ele>414.75</ele><time>2026-05-01T10:24:15Z</time></trkpt><trkpt lat="44.91742705552664" lon="9.437022607416866"><ele>415.5</ele><time>2026-05-01T10:24:16Z</time></trkpt><trkpt lat="44.91730276308563" lon="9.437069553882546"><ele>416.25</ele><time>2026-05-01T10:24:17Z</time></trkpt><trkpt lat="44.91717918233079" lon="9.437143492036181"><ele>417.0</ele><time>2026-05-01T10:24:18Z</time></trkpt><trkpt lat="44.917061850611915" lon="9.437248841720006"><ele>417.0</ele><time>2026-05-01T10:24:19Z</time></trkpt><trkpt lat="44.91693590298977" lon="9.437311324576047"><ele>417.0</ele><time>2026-05-01T10:24:20Z</time></trkpt><trkpt lat="44.91684305184871" lon="9.437409420451301"><ele>417.0</ele><time>2026-05-01T10:24:21Z</time></trkpt><trkpt lat="44.91674239614638" lon="9.437472658733745"><ele>417.0</ele><time>2026-05-01T10:24:22Z</time></trkpt><trkpt lat="44.916680113262466" lon="9.437604483984343"><ele>417.5</ele><time>2026-05-01T10:24:23Z</time></trkpt><trkpt lat="44.9166175683444" lon="9.437729411755555"><ele>418.0</ele><time>2026-05-01T10:24:24Z</time></trkpt><trkpt lat="44.916516991759394" lon="9.437840492399163"><ele>418.5</ele><time>2026-05-01T10:24:25Z</time></trkpt><trkpt lat="44.91641936139718" lon="9.437987186606586"><ele>419.0</ele><time>2026-05-01T10:24:26Z</time></trkpt><trkpt lat="44.91631734150587" lon="9.438151087352578"><ele>419.0</ele><time>2026-05-01T10:24:27Z</time></trkpt><trkpt lat="44.91621592057395" lon="9.438314681930386"><ele>419.0</ele><time>2026-05-01T10:24:28Z</time></trkpt><trkpt lat="44.91611051809732" lon="9.438476524366527"><ele>419.0</ele><time>2026-05-01T10:24:29Z</time></trkpt><trkpt lat="44.91601265720351" lon="9.43862509357806"><ele>419.0</ele><time>2026-05-01T10:24:30Z</time></trkpt><trkpt lat="44.91592468577069" lon="9.438756070121434"><ele>419.0</ele><time>2026-05-01T10:24:31Z</time></trkpt><trkpt lat="44.915840841225005" lon="9.438866316126516"><ele>419.0</ele><time>2026-05-01T10:24:32Z</time></trkpt><trkpt lat="44.91574920404917" lon="9.43896472874991"><ele>419.0</ele><time>2026-05-01T10:24:33Z</time></trkpt><trkpt lat="44.915643755216394" lon="9.439046049843075"><ele>419.5</ele><time>2026-05-01T10:24:34Z</time></trkpt><trkpt lat="44.91552241900832" lon="9.439122067395045"><ele>420.0</ele><time>2026-05-01T10:24:35Z</time></trkpt><trkpt lat="44.915397470887655" lon="9.439203160072829"><ele>420.5</ele><time>2026-05-01T10:24:36Z</time></trkpt><trkpt lat="44.91528413780283" lon="9.439248241819913"><ele>421.0</ele><time>2026-05-01T10:24:37Z</time></trkpt><trkpt lat="44.91519567426497" lon="9.43924225434402"><ele>421.0</ele><time>2026-05-01T10:24:38Z</time></trkpt><trkpt lat="44.91509871497666" lon="9.439215066508082"><ele>421.0</ele><time>2026-05-01T10:24:39Z</time></trkpt><trkpt lat="44.914997059696375" lon="9.439222065565213"><ele>421.0</ele><time>2026-05-01T10:24:40Z</time></trkpt><trkpt lat="44.91488927195674" lon="9.439285070877816"><ele>421.0</ele><time>2026-05-01T10:24:41Z</time></trkpt><trkpt lat="44.914769320207505" lon="9.439326338979258"><ele>421.0</ele><time>2026-05-01T10:24:42Z</time></trkpt><trkpt lat="44.91463274352569" lon="9.439384254954641"><ele>420.5</ele><time>2026-05-01T10:24:43Z</time></trkpt><trkpt lat="44.91450625044787" lon="9.439439664670726"><ele>420.0</ele><time>2026-05-01T10:24:44Z</time></trkpt><trkpt lat="44.91440191566801" lon="9.439488287313175"><ele>419.5</ele><time>2026-05-01T10:24:45Z</time></trkpt><trkpt lat="44.91429267862241" lon="9.43954027289203"><ele>419.0</ele><time>2026-05-01T10:24:46Z</time></trkpt><trkpt lat="44.914169781392054" lon="9.439598644566685"><ele>419.4</ele><time>2026-05-01T10:24:47Z</time></trkpt><trkpt lat="44.914041075854726" lon="9.439657652220413"><ele>419.79999999999995</ele><time>2026-05-01T10:24:48Z</time></trkpt><trkpt lat="44.91392657692299" lon="9.439698882439059"><ele>420.20000000000005</ele><time>2026-05-01T10:24:49Z</time></trkpt><trkpt lat="44.913824769906476" lon="9.439725870365162"><ele>420.6</ele><time>2026-05-01T10:24:50Z</time></trkpt><trkpt lat="44.913739862263036" lon="9.439737779837913"><ele>421.0</ele><time>2026-05-01T10:24:51Z</time></trkpt><trkpt lat="44.91365391020154" lon="9.439736226478725"><ele>421.0</ele><time>2026-05-01T10:24:52Z</time></trkpt><trkpt lat="44.91354970966398" lon="9.439720687383028"><ele>421.0</ele><time>2026-05-01T10:24:53Z</time></trkpt><trkpt lat="44.913436373659735" lon="9.439699269044217"><ele>421.0</ele><time>2026-05-01T10:24:54Z</time></trkpt><trkpt lat="44.91333409994465" lon="9.43967906547451"><ele>421.0</ele><time>2026-05-01T10:24:55Z</time></trkpt><trkpt lat="44.9132429483452" lon="9.439661059042159"><ele>421.0</ele><time>2026-05-01T10:24:56Z</time></trkpt><trkpt lat="44.91315245790373" lon="9.439676522920898"><ele>420.6</ele><time>2026-05-01T10:24:57Z</time></trkpt><trkpt lat="44.91305740991425" lon="9.439680493004982"><ele>420.20000000000005</ele><time>2026-05-01T10:24:58Z</time></trkpt><trkpt lat="44.91295275463694" lon="9.439699445222681"><ele>419.79999999999995</ele><time>2026-05-01T10:24:59Z</time></trkpt><trkpt lat="44.9128555683766" lon="9.439737868899638"><ele>419.4</ele><time>2026-05-01T10:25:00Z</time></trkpt><trkpt lat="44.91274134711015" lon="9.439723172887804"><ele>419.0</ele><time>2026-05-01T10:25:01Z</time></trkpt><trkpt lat="44.912624057830335" lon="9.439676239655814"><ele>416.5</ele><time>2026-05-01T10:25:02Z</time></trkpt><trkpt lat="44.91247872698247" lon="9.439622810299312"><ele>414.0</ele><time>2026-05-01T10:25:03Z</time></trkpt><trkpt lat="44.91235041956424" lon="9.439591894605213"><ele>411.5</ele><time>2026-05-01T10:25:04Z</time></trkpt><trkpt lat="44.912253051693355" lon="9.439567608337034"><ele>409.0</ele><time>2026-05-01T10:25:05Z</time></trkpt><trkpt lat="44.912167177836146" lon="9.439546189005963"><ele>409.0</ele><time>2026-05-01T10:25:06Z</time></trkpt><trkpt lat="44.912080073352875" lon="9.439555459834018"><ele>409.0</ele><time>2026-05-01T10:25:07Z</time></trkpt><trkpt lat="44.91199233086845" lon="9.439557057383738"><ele>409.0</ele><time>2026-05-01T10:25:08Z</time></trkpt><trkpt lat="44.91190467421898" lon="9.439590211305717"><ele>409.0</ele><time>2026-05-01T10:25:09Z</time></trkpt><trkpt lat="44.91182064023256" lon="9.439653306301182"><ele>409.0</ele><time>2026-05-01T10:25:10Z</time></trkpt><trkpt lat="44.911728422803776" lon="9.43969084236569"><ele>410.0</ele><time>2026-05-01T10:25:11Z</time></trkpt><trkpt lat="44.91164436538656" lon="9.439767245137917"><ele>411.0</ele><time>2026-05-01T10:25:12Z</time></trkpt><trkpt lat="44.91153878506165" lon="9.439808265121272"><ele>412.0</ele><time>2026-05-01T10:25:13Z</time></trkpt><trkpt lat="44.91143211784147" lon="9.439870455850269"><ele>413.0</ele><time>2026-05-01T10:25:14Z</time></trkpt><trkpt lat="44.91132048239074" lon="9.439934519364785"><ele>414.0</ele><time>2026-05-01T10:25:15Z</time></trkpt><trkpt lat="44.91120184549688" lon="9.440003308952788"><ele>414.0</ele><time>2026-05-01T10:25:16Z</time></trkpt><trkpt lat="44.91108922011774" lon="9.44006948911095"><ele>414.0</ele><time>2026-05-01T10:25:17Z</time></trkpt><trkpt lat="44.910988139891565" lon="9.44013145763991"><ele>414.0</ele><time>2026-05-01T10:25:18Z</time></trkpt><trkpt lat="44.910895060121355" lon="9.440190278911116"><ele>414.0</ele><time>2026-05-01T10:25:19Z</time></trkpt><trkpt lat="44.91079895426453" lon="9.4402537893802"><ele>414.0</ele><time>2026-05-01T10:25:20Z</time></trkpt><trkpt lat="44.91070545188578" lon="9.440320320541609"><ele>413.6</ele><time>2026-05-01T10:25:21Z</time></trkpt><trkpt lat="44.910621057914796" lon="9.440384337789174"><ele>413.2</ele><time>2026-05-01T10:25:22Z</time></trkpt><trkpt lat="44.91054033856798" lon="9.440452583493633"><ele>412.8</ele><time>2026-05-01T10:25:23Z</time></trkpt><trkpt lat="44.91047521827495" lon="9.440538086323325"><ele>412.40000000000003</ele><time>2026-05-01T10:25:24Z</time></trkpt><trkpt lat="44.910438027981506" lon="9.440652844226886"><ele>412.0</ele><time>2026-05-01T10:25:25Z</time></trkpt><trkpt lat="44.91040233449656" lon="9.440763735864783"><ele>412.00000000000006</ele><time>2026-05-01T10:25:26Z</time></trkpt><trkpt lat="44.91036457500572" lon="9.440880804718509"><ele>412.0</ele><time>2026-05-01T10:25:27Z</time></trkpt><trkpt lat="44.910360216377526" lon="9.441025352398267"><ele>412.0</ele><time>2026-05-01T10:25:28Z</time></trkpt><trkpt lat="44.91032663081248" lon="9.441151681507906"><ele>412.0</ele><time>2026-05-01T10:25:29Z</time></trkpt><trkpt lat="44.91030917914228" lon="9.44126692551185"><ele>412.00000000000006</ele><time>2026-05-01T10:25:30Z</time></trkpt><trkpt lat="44.910281863673276" lon="9.441358063268405"><ele>412.0</ele><time>2026-05-01T10:25:31Z</time></trkpt><trkpt lat="44.9101685854352" lon="9.441422838028078"><ele>412.0</ele><time>2026-05-01T10:25:33Z</time></trkpt><trkpt lat="44.91010533694097" lon="9.441373505022446"><ele>412.0</ele><time>2026-05-01T10:25:34Z</time></trkpt><trkpt lat="44.91001117514748" lon="9.441341811130933"><ele>412.0</ele><time>2026-05-01T10:25:35Z</time></trkpt><trkpt lat="44.90991359370642" lon="9.441307965698304"><ele>412.0</ele><time>2026-05-01T10:25:36Z</time></trkpt><trkpt lat="44.909809714401355" lon="9.441275123331488"><ele>412.0</ele><time>2026-05-01T10:25:37Z</time></trkpt><trkpt lat="44.909702438823174" lon="9.441247306828561"><ele>412.20000000000005</ele><time>2026-05-01T10:25:38Z</time></trkpt><trkpt lat="44.90959233072187" lon="9.441220336483411"><ele>412.4</ele><time>2026-05-01T10:25:39Z</time></trkpt><trkpt lat="44.909484320354615" lon="9.441197931836298"><ele>412.6</ele><time>2026-05-01T10:25:40Z</time></trkpt><trkpt lat="44.90937316246976" lon="9.441179358691189"><ele>412.79999999999995</ele><time>2026-05-01T10:25:41Z</time></trkpt><trkpt lat="44.90925810236119" lon="9.441160718471549"><ele>413.0</ele><time>2026-05-01T10:25:42Z</time></trkpt><trkpt lat="44.909159280036825" lon="9.441147315445425"><ele>413.0</ele><time>2026-05-01T10:25:43Z</time></trkpt><trkpt lat="44.9090841347904" lon="9.441137145739141"><ele>413.0</ele><time>2026-05-01T10:25:44Z</time></trkpt><trkpt lat="44.908970323629504" lon="9.441118120210778"><ele>413.0</ele><time>2026-05-01T10:25:46Z</time></trkpt><trkpt lat="44.90884436253935" lon="9.44111543115028"><ele>413.0</ele><time>2026-05-01T10:25:48Z</time></trkpt><trkpt lat="44.90877569311839" lon="9.441099248166548"><ele>413.0</ele><time>2026-05-01T10:25:49Z</time></trkpt><trkpt lat="44.908670201332065" lon="9.44107483536702"><ele>412.99999999999994</ele><time>2026-05-01T10:25:51Z</time></trkpt><trkpt lat="44.90857665776326" lon="9.441061084257642"><ele>413.0</ele><time>2026-05-01T10:25:53Z</time></trkpt><trkpt lat="44.908490412861326" lon="9.44108768565933"><ele>413.0</ele><time>2026-05-01T10:25:56Z</time></trkpt><trkpt lat="44.90843540499277" lon="9.441185658924457"><ele>413.0</ele><time>2026-05-01T10:25:58Z</time></trkpt><trkpt lat="44.90834529648702" lon="9.4412336861933"><ele>412.99999999999994</ele><time>2026-05-01T10:26:00Z</time></trkpt><trkpt lat="44.908284392029046" lon="9.441279408599762"><ele>413.0</ele><time>2026-05-01T10:26:01Z</time></trkpt><trkpt lat="44.908185873656016" lon="9.441326215563278"><ele>413.79999999999995</ele><time>2026-05-01T10:26:03Z</time></trkpt><trkpt lat="44.90808634647534" lon="9.44133722178079"><ele>414.6</ele><time>2026-05-01T10:26:05Z</time></trkpt><trkpt lat="44.90796971971786" lon="9.441385553308592"><ele>415.4</ele><time>2026-05-01T10:26:07Z</time></trkpt><trkpt lat="44.90787410631787" lon="9.44128938946634"><ele>416.20000000000005</ele><time>2026-05-01T10:26:08Z</time></trkpt><trkpt lat="44.90778257156949" lon="9.441278695222094"><ele>417.0</ele><time>2026-05-01T10:26:09Z</time></trkpt><trkpt lat="44.90769154966231" lon="9.441260904662991"><ele>417.0</ele><time>2026-05-01T10:26:10Z</time></trkpt><trkpt lat="44.9076060446964" lon="9.441234500895924"><ele>417.0</ele><time>2026-05-01T10:26:11Z</time></trkpt><trkpt lat="44.9075231137677" lon="9.441195707623491"><ele>417.0</ele><time>2026-05-01T10:26:12Z</time></trkpt><trkpt lat="44.90743995483268" lon="9.441149365995077"><ele>417.0</ele><time>2026-05-01T10:26:13Z</time></trkpt><trkpt lat="44.9073642594186" lon="9.441101363448889"><ele>417.0</ele><time>2026-05-01T10:26:14Z</time></trkpt><trkpt lat="44.90727869275895" lon="9.441054869539412"><ele>417.0</ele><time>2026-05-01T10:26:15Z</time></trkpt><trkpt lat="44.907193935707674" lon="9.44101681460088"><ele>416.8</ele><time>2026-05-01T10:26:16Z</time></trkpt><trkpt lat="44.9071005427426" lon="9.44098810836715"><ele>416.6</ele><time>2026-05-01T10:26:17Z</time></trkpt><trkpt lat="44.907004590224325" lon="9.440967128531883"><ele>416.40000000000003</ele><time>2026-05-01T10:26:18Z</time></trkpt><trkpt lat="44.906907068003086" lon="9.440948129130042"><ele>416.20000000000005</ele><time>2026-05-01T10:26:19Z</time></trkpt><trkpt lat="44.90680847527052" lon="9.440932549916209"><ele>416.0</ele><time>2026-05-01T10:26:20Z</time></trkpt><trkpt lat="44.906720869626376" lon="9.44091644958971"><ele>415.66666666666663</ele><time>2026-05-01T10:26:21Z</time></trkpt><trkpt lat="44.90663288279078" lon="9.44088742033333"><ele>415.3333333333333</ele><time>2026-05-01T10:26:22Z</time></trkpt><trkpt lat="44.906553749325695" lon="9.440860408966643"><ele>415.0</ele><time>2026-05-01T10:26:23Z</time></trkpt><trkpt lat="44.906477513460516" lon="9.440857505664406"><ele>414.66666666666663</ele><time>2026-05-01T10:26:24Z</time></trkpt><trkpt lat="44.90640077864577" lon="9.44085075955003"><ele>414.3333333333333</ele><time>2026-05-01T10:26:25Z</time></trkpt><trkpt lat="44.906317730777744" lon="9.440827053300904"><ele>414.0</ele><time>2026-05-01T10:26:26Z</time></trkpt><trkpt lat="44.906233980957666" lon="9.44077060302245"><ele>414.0</ele><time>2026-05-01T10:26:27Z</time></trkpt><trkpt lat="44.906161473415736" lon="9.440700508000004"><ele>414.0</ele><time>2026-05-01T10:26:28Z</time></trkpt><trkpt lat="44.906058392280954" lon="9.440632993604252"><ele>414.0</ele><time>2026-05-01T10:26:30Z</time></trkpt><trkpt lat="44.90597222745435" lon="9.440651652208798"><ele>414.0</ele><time>2026-05-01T10:26:32Z</time></trkpt><trkpt lat="44.90589968494606" lon="9.440700063712141"><ele>414.0</ele><time>2026-05-01T10:26:34Z</time></trkpt><trkpt lat="44.90583762004375" lon="9.440794842447337"><ele>415.79999999999995</ele><time>2026-05-01T10:26:36Z</time></trkpt><trkpt lat="44.90579969371504" lon="9.440922869521309"><ele>417.59999999999997</ele><time>2026-05-01T10:26:38Z</time></trkpt><trkpt lat="44.90577444631916" lon="9.441086273566151"><ele>419.4</ele><time>2026-05-01T10:26:40Z</time></trkpt><trkpt lat="44.905754196519865" lon="9.441214165080128"><ele>421.2</ele><time>2026-05-01T10:26:42Z</time></trkpt><trkpt lat="44.90575107750149" lon="9.441362251446591"><ele>423.0</ele><time>2026-05-01T10:26:44Z</time></trkpt><trkpt lat="44.90575963740029" lon="9.441460670838168"><ele>424.0</ele><time>2026-05-01T10:26:45Z</time></trkpt><trkpt lat="44.90576103918384" lon="9.441554624760588"><ele>425.0</ele><time>2026-05-01T10:26:46Z</time></trkpt><trkpt lat="44.90576609763715" lon="9.441654976616725"><ele>426.0</ele><time>2026-05-01T10:26:47Z</time></trkpt><trkpt lat="44.90575827157849" lon="9.441743210341798"><ele>427.0</ele><time>2026-05-01T10:26:48Z</time></trkpt><trkpt lat="44.90570632809215" lon="9.441890307927494"><ele>428.0</ele><time>2026-05-01T10:26:50Z</time></trkpt><trkpt lat="44.90564631453001" lon="9.44193005461956"><ele>429.0</ele><time>2026-05-01T10:26:51Z</time></trkpt><trkpt lat="44.90556826460866" lon="9.441975500760435"><ele>429.0</ele><time>2026-05-01T10:26:52Z</time></trkpt><trkpt lat="44.905508316098405" lon="9.442128597620263"><ele>429.0</ele><time>2026-05-01T10:26:54Z</time></trkpt><trkpt lat="44.905485078844556" lon="9.442215616594169"><ele>429.0</ele><time>2026-05-01T10:26:55Z</time></trkpt><trkpt lat="44.9054425671436" lon="9.442287832562709"><ele>429.0</ele><time>2026-05-01T10:26:56Z</time></trkpt><trkpt lat="44.90535830660853" lon="9.44236203058389"><ele>429.0</ele><time>2026-05-01T10:26:58Z</time></trkpt><trkpt lat="44.905242745162084" lon="9.442356178418468"><ele>430.0</ele><time>2026-05-01T10:27:00Z</time></trkpt><trkpt lat="44.90517019630744" lon="9.44233426288712"><ele>431.0</ele><time>2026-05-01T10:27:01Z</time></trkpt><trkpt lat="44.90511216875056" lon="9.442260688093379"><ele>432.0</ele><time>2026-05-01T10:27:02Z</time></trkpt><trkpt lat="44.90504404331165" lon="9.442172596307906"><ele>433.0</ele><time>2026-05-01T10:27:03Z</time></trkpt><trkpt lat="44.90497041828852" lon="9.442084004583082"><ele>434.0</ele><time>2026-05-01T10:27:04Z</time></trkpt><trkpt lat="44.904909665984924" lon="9.442046105937036"><ele>435.0</ele><time>2026-05-01T10:27:05Z</time></trkpt><trkpt lat="44.90482935892576" lon="9.442036582501036"><ele>436.6</ele><time>2026-05-01T10:27:06Z</time></trkpt><trkpt lat="44.90473520104842" lon="9.44205051195306"><ele>438.2</ele><time>2026-05-01T10:27:07Z</time></trkpt><trkpt lat="44.904647034663284" lon="9.442067434723217"><ele>439.79999999999995</ele><time>2026-05-01T10:27:08Z</time></trkpt><trkpt lat="44.904545094968285" lon="9.442079637648876"><ele>441.4</ele><time>2026-05-01T10:27:09Z</time></trkpt><trkpt lat="44.90444576733723" lon="9.442117790408489"><ele>443.0</ele><time>2026-05-01T10:27:10Z</time></trkpt><trkpt lat="44.90435032129766" lon="9.44217990343699"><ele>443.0</ele><time>2026-05-01T10:27:11Z</time></trkpt><trkpt lat="44.90424696264942" lon="9.442251542478612"><ele>442.99999999999994</ele><time>2026-05-01T10:27:12Z</time></trkpt><trkpt lat="44.90415893781223" lon="9.442314517053696"><ele>442.99999999999994</ele><time>2026-05-01T10:27:13Z</time></trkpt><trkpt lat="44.904097095322825" lon="9.442353770441791"><ele>443.0</ele><time>2026-05-01T10:27:14Z</time></trkpt><trkpt lat="44.90400038197635" lon="9.442326146460388"><ele>443.0</ele><time>2026-05-01T10:27:16Z</time></trkpt><trkpt lat="44.90391492087916" lon="9.442227576011975"><ele>445.99999999999994</ele><time>2026-05-01T10:27:18Z</time></trkpt><trkpt lat="44.90385489243567" lon="9.442163065429764"><ele>449.0</ele><time>2026-05-01T10:27:19Z</time></trkpt><trkpt lat="44.903785709934056" lon="9.442089549192586"><ele>452.0</ele><time>2026-05-01T10:27:20Z</time></trkpt><trkpt lat="44.90371237933405" lon="9.44203068437128"><ele>455.0</ele><time>2026-05-01T10:27:21Z</time></trkpt><trkpt lat="44.90363141078794" lon="9.441952322789824"><ele>457.99999999999994</ele><time>2026-05-01T10:27:22Z</time></trkpt><trkpt lat="44.90356203377079" lon="9.44188837692393"><ele>461.0</ele><time>2026-05-01T10:27:23Z</time></trkpt><trkpt lat="44.903477222541945" lon="9.441843139859692"><ele>465.20000000000005</ele><time>2026-05-01T10:27:24Z</time></trkpt><trkpt lat="44.90338800648764" lon="9.44179027740466"><ele>469.40000000000003</ele><time>2026-05-01T10:27:25Z</time></trkpt><trkpt lat="44.90329954118025" lon="9.441709472102758"><ele>473.6</ele><time>2026-05-01T10:27:26Z</time></trkpt><trkpt lat="44.90321159743162" lon="9.441652067509947"><ele>477.8</ele><time>2026-05-01T10:27:27Z</time></trkpt><trkpt lat="44.903134617595796" lon="9.441603186329512"><ele>482.0</ele><time>2026-05-01T10:27:28Z</time></trkpt><trkpt lat="44.903005164903774" lon="9.441588676719705"><ele>482.0</ele><time>2026-05-01T10:27:30Z</time></trkpt><trkpt lat="44.9029264817906" lon="9.441604507930167"><ele>482.00000000000006</ele><time>2026-05-01T10:27:31Z</time></trkpt><trkpt lat="44.902845072610646" lon="9.441615244945451"><ele>482.00000000000006</ele><time>2026-05-01T10:27:33Z</time></trkpt><trkpt lat="44.90270275846685" lon="9.441610569039492"><ele>482.0</ele><time>2026-05-01T10:27:35Z</time></trkpt><trkpt lat="44.90261768498158" lon="9.441606525662333"><ele>482.0</ele><time>2026-05-01T10:27:36Z</time></trkpt><trkpt lat="44.90254039192266" lon="9.441601682457918"><ele>484.3333333333333</ele><time>2026-05-01T10:27:37Z</time></trkpt><trkpt lat="44.9024719227398" lon="9.441602073894835"><ele>486.66666666666663</ele><time>2026-05-01T10:27:38Z</time></trkpt><trkpt lat="44.90239080690959" lon="9.441605800327583"><ele>489.0</ele><time>2026-05-01T10:27:39Z</time></trkpt><trkpt lat="44.90230976708904" lon="9.441613674295336"><ele>491.33333333333337</ele><time>2026-05-01T10:27:40Z</time></trkpt><trkpt lat="44.902242232437004" lon="9.441614708984684"><ele>493.6666666666667</ele><time>2026-05-01T10:27:41Z</time></trkpt><trkpt lat="44.90216087208246" lon="9.441624060004958"><ele>496.0</ele><time>2026-05-01T10:27:42Z</time></trkpt><trkpt lat="44.90208149967898" lon="9.441655378326924"><ele>496.0</ele><time>2026-05-01T10:27:43Z</time></trkpt><trkpt lat="44.90200062596383" lon="9.44171806035471"><ele>496.0</ele><time>2026-05-01T10:27:44Z</time></trkpt><trkpt lat="44.90191254992739" lon="9.441792704651904"><ele>496.0</ele><time>2026-05-01T10:27:45Z</time></trkpt><trkpt lat="44.90182351307" lon="9.441853128927457"><ele>496.0</ele><time>2026-05-01T10:27:46Z</time></trkpt><trkpt lat="44.90174819252883" lon="9.441925537410352"><ele>496.0</ele><time>2026-05-01T10:27:47Z</time></trkpt><trkpt lat="44.90167904953122" lon="9.442030808491909"><ele>499.5</ele><time>2026-05-01T10:27:48Z</time></trkpt><trkpt lat="44.9016161572471" lon="9.442145898229374"><ele>503.0</ele><time>2026-05-01T10:27:49Z</time></trkpt><trkpt lat="44.90154266106518" lon="9.44228722195411"><ele>506.5</ele><time>2026-05-01T10:27:50Z</time></trkpt><trkpt lat="44.90145218164649" lon="9.442451433159397"><ele>510.0</ele><time>2026-05-01T10:27:51Z</time></trkpt><trkpt lat="44.90136950441987" lon="9.442599778559263"><ele>510.0</ele><time>2026-05-01T10:27:52Z</time></trkpt><trkpt lat="44.90130164769215" lon="9.442721094029254"><ele>510.0</ele><time>2026-05-01T10:27:53Z</time></trkpt><trkpt lat="44.901249084458506" lon="9.442821425926416"><ele>510.0</ele><time>2026-05-01T10:27:54Z</time></trkpt><trkpt lat="44.90119957716359" lon="9.442917478898773"><ele>510.0</ele><time>2026-05-01T10:27:55Z</time></trkpt><trkpt lat="44.9011553241822" lon="9.442995808452586"><ele>510.0</ele><time>2026-05-01T10:27:56Z</time></trkpt><trkpt lat="44.90109684874617" lon="9.443100321650787"><ele>510.0</ele><time>2026-05-01T10:27:58Z</time></trkpt><trkpt lat="44.90104232536108" lon="9.443202457729548"><ele>508.6</ele><time>2026-05-01T10:28:35Z</time></trkpt><trkpt lat="44.901006919020126" lon="9.443284930468069"><ele>507.2</ele><time>2026-05-01T10:28:36Z</time></trkpt><trkpt lat="44.90093735211949" lon="9.443427819569672"><ele>505.79999999999995</ele><time>2026-05-01T10:28:38Z</time></trkpt><trkpt lat="44.900867518143" lon="9.443525065807826"><ele>504.4</ele><time>2026-05-01T10:28:40Z</time></trkpt><trkpt lat="44.90078980495947" lon="9.443492693216868"><ele>503.0</ele><time>2026-05-01T10:28:43Z</time></trkpt><trkpt lat="44.90072745934504" lon="9.443285057901525"><ele>506.25</ele><time>2026-05-01T10:28:45Z</time></trkpt><trkpt lat="44.90068045518619" lon="9.443155215154095"><ele>509.5</ele><time>2026-05-01T10:28:46Z</time></trkpt><trkpt lat="44.900624802842835" lon="9.44301719905685"><ele>512.75</ele><time>2026-05-01T10:28:47Z</time></trkpt><trkpt lat="44.90057862794469" lon="9.442852139380411"><ele>516.0</ele><time>2026-05-01T10:28:48Z</time></trkpt><trkpt lat="44.9005045583735" lon="9.442687604823691"><ele>516.0</ele><time>2026-05-01T10:28:49Z</time></trkpt><trkpt lat="44.90044055033735" lon="9.442497178190997"><ele>516.0</ele><time>2026-05-01T10:28:50Z</time></trkpt><trkpt lat="44.900400481982956" lon="9.442276600113887"><ele>516.0</ele><time>2026-05-01T10:28:51Z</time></trkpt><trkpt lat="44.900348504953854" lon="9.442040333754752"><ele>515.3333333333334</ele><time>2026-05-01T10:28:52Z</time></trkpt><trkpt lat="44.9002505465119" lon="9.441843226332965"><ele>514.6666666666667</ele><time>2026-05-01T10:28:53Z</time></trkpt><trkpt lat="44.90015981681085" lon="9.441658641382608"><ele>514.0</ele><time>2026-05-01T10:28:54Z</time></trkpt><trkpt lat="44.90005441117025" lon="9.441495693749655"><ele>514.0</ele><time>2026-05-01T10:28:55Z</time></trkpt><trkpt lat="44.8999405914965" lon="9.441349958442679"><ele>514.0</ele><time>2026-05-01T10:28:56Z</time></trkpt><trkpt lat="44.899843474306756" lon="9.441185987730377"><ele>514.0</ele><time>2026-05-01T10:28:57Z</time></trkpt><trkpt lat="44.89975499039907" lon="9.441019875557934"><ele>512.5</ele><time>2026-05-01T10:28:58Z</time></trkpt><trkpt lat="44.899721463589046" lon="9.440837043834248"><ele>511.0</ele><time>2026-05-01T10:28:59Z</time></trkpt><trkpt lat="44.89969939073006" lon="9.440643374392282"><ele>509.5</ele><time>2026-05-01T10:29:00Z</time></trkpt><trkpt lat="44.89967076224092" lon="9.440451045766274"><ele>508.0</ele><time>2026-05-01T10:29:01Z</time></trkpt><trkpt lat="44.89958847037798" lon="9.440276869313815"><ele>506.6666666666667</ele><time>2026-05-01T10:29:02Z</time></trkpt><trkpt lat="44.8994805056268" lon="9.44011218335207"><ele>505.33333333333337</ele><time>2026-05-01T10:29:03Z</time></trkpt><trkpt lat="44.89936102087419" lon="9.439965107163946"><ele>504.0</ele><time>2026-05-01T10:29:04Z</time></trkpt><trkpt lat="44.899236009018175" lon="9.439835109058597"><ele>506.0</ele><time>2026-05-01T10:29:05Z</time></trkpt><trkpt lat="44.89911374961974" lon="9.439702458802094"><ele>508.0</ele><time>2026-05-01T10:29:06Z</time></trkpt><trkpt lat="44.89899809796768" lon="9.439530554451256"><ele>510.0</ele><time>2026-05-01T10:29:07Z</time></trkpt><trkpt lat="44.89888958514644" lon="9.439339529657076"><ele>510.0</ele><time>2026-05-01T10:29:08Z</time></trkpt><trkpt lat="44.89876771969638" lon="9.439165215963115"><ele>510.0</ele><time>2026-05-01T10:29:09Z</time></trkpt><trkpt lat="44.89863801840292" lon="9.439042852825377"><ele>510.0</ele><time>2026-05-01T10:29:10Z</time></trkpt><trkpt lat="44.8985163813832" lon="9.438904647344017"><ele>515.6666666666666</ele><time>2026-05-01T10:29:11Z</time></trkpt><trkpt lat="44.89838675892969" lon="9.438779560745505"><ele>521.3333333333333</ele><time>2026-05-01T10:29:12Z</time></trkpt><trkpt lat="44.898249131696566" lon="9.43865991726735"><ele>527.0</ele><time>2026-05-01T10:29:13Z</time></trkpt><trkpt lat="44.89811100405604" lon="9.438544199211789"><ele>527.0</ele><time>2026-05-01T10:29:14Z</time></trkpt><trkpt lat="44.8979865879941" lon="9.438413676212392"><ele>527.0</ele><time>2026-05-01T10:29:15Z</time></trkpt><trkpt lat="44.897855223235666" lon="9.438304396490356"><ele>527.0</ele><time>2026-05-01T10:29:16Z</time></trkpt><trkpt lat="44.89772490901938" lon="9.438197419174148"><ele>529.3333333333333</ele><time>2026-05-01T10:29:17Z</time></trkpt><trkpt lat="44.89758398333653" lon="9.43810316146356"><ele>531.6666666666666</ele><time>2026-05-01T10:29:18Z</time></trkpt><trkpt lat="44.89744767915656" lon="9.437989386940076"><ele>534.0</ele><time>2026-05-01T10:29:19Z</time></trkpt><trkpt lat="44.89731118249777" lon="9.4378839553302"><ele>536.5</ele><time>2026-05-01T10:29:20Z</time></trkpt><trkpt lat="44.89718795987958" lon="9.437766261825304"><ele>539.0</ele><time>2026-05-01T10:29:21Z</time></trkpt><trkpt lat="44.89707769186911" lon="9.43766889032"><ele>541.5</ele><time>2026-05-01T10:29:22Z</time></trkpt><trkpt lat="44.89698359457572" lon="9.43757908169677"><ele>544.0</ele><time>2026-05-01T10:29:23Z</time></trkpt><trkpt lat="44.89690438156952" lon="9.437480653709025"><ele>544.0</ele><time>2026-05-01T10:29:24Z</time></trkpt><trkpt lat="44.896851300565636" lon="9.437356897394679"><ele>544.0</ele><time>2026-05-01T10:29:25Z</time></trkpt><trkpt lat="44.89680896982056" lon="9.43719639219888"><ele>544.0</ele><time>2026-05-01T10:29:26Z</time></trkpt><trkpt lat="44.896797230261164" lon="9.437010932764675"><ele>544.0</ele><time>2026-05-01T10:29:27Z</time></trkpt><trkpt lat="44.89679952666529" lon="9.436813905012235"><ele>548.0</ele><time>2026-05-01T10:29:28Z</time></trkpt><trkpt lat="44.8968125464634" lon="9.43660922534504"><ele>552.0</ele><time>2026-05-01T10:29:29Z</time></trkpt><trkpt lat="44.89681280474624" lon="9.436394078531908"><ele>556.0</ele><time>2026-05-01T10:29:30Z</time></trkpt><trkpt lat="44.89678325283624" lon="9.436170987821784"><ele>554.75</ele><time>2026-05-01T10:29:31Z</time></trkpt><trkpt lat="44.896729014506306" lon="9.435955894520603"><ele>553.5</ele><time>2026-05-01T10:29:32Z</time></trkpt><trkpt lat="44.89667780340053" lon="9.435766214074265"><ele>552.25</ele><time>2026-05-01T10:29:33Z</time></trkpt><trkpt lat="44.89664000667074" lon="9.435593145588943"><ele>551.0</ele><time>2026-05-01T10:29:34Z</time></trkpt><trkpt lat="44.896618510517875" lon="9.43545453804349"><ele>551.0</ele><time>2026-05-01T10:29:35Z</time></trkpt><trkpt lat="44.896614355510394" lon="9.435317847340974"><ele>551.0</ele><time>2026-05-01T10:29:36Z</time></trkpt><trkpt lat="44.89663789474427" lon="9.435170571522313"><ele>551.0</ele><time>2026-05-01T10:29:37Z</time></trkpt><trkpt lat="44.8966873427539" lon="9.435029448816712"><ele>551.0</ele><time>2026-05-01T10:29:38Z</time></trkpt><trkpt lat="44.89678224757865" lon="9.434913448487599"><ele>551.0</ele><time>2026-05-01T10:29:39Z</time></trkpt><trkpt lat="44.89686124202397" lon="9.434773291916242"><ele>554.8</ele><time>2026-05-01T10:29:39.999Z</time></trkpt><trkpt lat="44.896927973696876" lon="9.43465251280837"><ele>558.6</ele><time>2026-05-01T10:29:40.999Z</time></trkpt><trkpt lat="44.89698407850601" lon="9.434543290059501"><ele>562.4</ele><time>2026-05-01T10:29:41.999Z</time></trkpt><trkpt lat="44.89702930910215" lon="9.434440381900869"><ele>566.2</ele><time>2026-05-01T10:29:42.999Z</time></trkpt><trkpt lat="44.897048593244136" lon="9.434321247632722"><ele>570.0</ele><time>2026-05-01T10:29:43.999Z</time></trkpt><trkpt lat="44.89703861407167" lon="9.43419252087087"><ele>570.0</ele><time>2026-05-01T10:29:44.999Z</time></trkpt><trkpt lat="44.896962984016334" lon="9.434096634379298"><ele>570.0</ele><time>2026-05-01T10:29:45.999Z</time></trkpt><trkpt lat="44.89688645724941" lon="9.433987738963959"><ele>570.0</ele><time>2026-05-01T10:29:46.999Z</time></trkpt><trkpt lat="44.89677829746675" lon="9.433883886468417"><ele>570.0</ele><time>2026-05-01T10:29:47.999Z</time></trkpt><trkpt lat="44.89665910919017" lon="9.433784681605092"><ele>567.25</ele><time>2026-05-01T10:29:48.999Z</time></trkpt><trkpt lat="44.896546960845875" lon="9.433683973942328"><ele>564.5</ele><time>2026-05-01T10:29:49.999Z</time></trkpt><trkpt lat="44.89642828651928" lon="9.433572439247122"><ele>561.75</ele><time>2026-05-01T10:29:50.999Z</time></trkpt><trkpt lat="44.89630393935448" lon="9.433455357035577"><ele>559.0</ele><time>2026-05-01T10:29:51.999Z</time></trkpt><trkpt lat="44.8961759509545" lon="9.433334843628888"><ele>559.0</ele><time>2026-05-01T10:29:52.999Z</time></trkpt><trkpt lat="44.89604329196482" lon="9.433209962718585"><ele>559.0</ele><time>2026-05-01T10:29:53.999Z</time></trkpt><trkpt lat="44.89589846321027" lon="9.433113058091182"><ele>559.0</ele><time>2026-05-01T10:29:54.999Z</time></trkpt><trkpt lat="44.89577824784687" lon="9.432975668194967"><ele>559.0</ele><time>2026-05-01T10:29:55.999Z</time></trkpt><trkpt lat="44.89567291574863" lon="9.432844991081636"><ele>559.0</ele><time>2026-05-01T10:29:56.999Z</time></trkpt><trkpt lat="44.89557044946381" lon="9.432735928507523"><ele>559.0</ele><time>2026-05-01T10:29:57.999Z</time></trkpt><trkpt lat="44.895460097565945" lon="9.432657987669211"><ele>559.0</ele><time>2026-05-01T10:29:58.999Z</time></trkpt><trkpt lat="44.89533057167452" lon="9.432605808615726"><ele>559.0</ele><time>2026-05-01T10:30:00Z</time></trkpt><trkpt lat="44.895191211691554" lon="9.43258233155582"><ele>559.0</ele><time>2026-05-01T10:30:01Z</time></trkpt><trkpt lat="44.895034408368396" lon="9.432591003025887"><ele>559.0</ele><time>2026-05-01T10:30:02Z</time></trkpt><trkpt lat="44.89486642160422" lon="9.432604609944367"><ele>563.3333333333334</ele><time>2026-05-01T10:30:03Z</time></trkpt><trkpt lat="44.89469774642281" lon="9.432614911371386"><ele>567.6666666666666</ele><time>2026-05-01T10:30:04Z</time></trkpt><trkpt lat="44.89453612327468" lon="9.432658956495386"><ele>572.0</ele><time>2026-05-01T10:30:05Z</time></trkpt><trkpt lat="44.8943771787098" lon="9.432725936422244"><ele>573.6666666666666</ele><time>2026-05-01T10:30:06Z</time></trkpt><trkpt lat="44.89421752334645" lon="9.432811998298751"><ele>575.3333333333334</ele><time>2026-05-01T10:30:07Z</time></trkpt><trkpt lat="44.89405621421996" lon="9.432589290942484"><ele>577.0</ele><time>2026-05-01T10:30:08Z</time></trkpt><trkpt lat="44.89389775304058" lon="9.43259655469948"><ele>577.0</ele><time>2026-05-01T10:30:09Z</time></trkpt><trkpt lat="44.893743100985695" lon="9.43262717152278"><ele>577.0</ele><time>2026-05-01T10:30:10Z</time></trkpt><trkpt lat="44.89359299399363" lon="9.432673428714322"><ele>577.0</ele><time>2026-05-01T10:30:11Z</time></trkpt><trkpt lat="44.89344677984932" lon="9.432734472045267"><ele>576.6666666666667</ele><time>2026-05-01T10:30:12Z</time></trkpt><trkpt lat="44.893291566098995" lon="9.432794458285082"><ele>576.3333333333334</ele><time>2026-05-01T10:30:13Z</time></trkpt><trkpt lat="44.893132330671015" lon="9.432866882291979"><ele>576.0</ele><time>2026-05-01T10:30:14Z</time></trkpt><trkpt lat="44.89297428586826" lon="9.432960668059696"><ele>576.3333333333334</ele><time>2026-05-01T10:30:15Z</time></trkpt><trkpt lat="44.892818614091766" lon="9.433085664205695"><ele>576.6666666666667</ele><time>2026-05-01T10:30:16Z</time></trkpt><trkpt lat="44.89265967161542" lon="9.433241422850502"><ele>577.0</ele><time>2026-05-01T10:30:17Z</time></trkpt><trkpt lat="44.892488756829046" lon="9.4334162797173"><ele>577.0</ele><time>2026-05-01T10:30:18Z</time></trkpt><trkpt lat="44.89230332725991" lon="9.43355686431153"><ele>577.0</ele><time>2026-05-01T10:30:19Z</time></trkpt><trkpt lat="44.89212438973645" lon="9.433643391816497"><ele>577.0</ele><time>2026-05-01T10:30:20Z</time></trkpt><trkpt lat="44.891960755751235" lon="9.43368667206495"><ele>577.0</ele><time>2026-05-01T10:30:21Z</time></trkpt><trkpt lat="44.89180166369003" lon="9.433720161486406"><ele>577.0</ele><time>2026-05-01T10:30:22Z</time></trkpt><trkpt lat="44.89164695008636" lon="9.43379518215028"><ele>577.0</ele><time>2026-05-01T10:30:23Z</time></trkpt><trkpt lat="44.89150842044624" lon="9.43392582013217"><ele>579.6666666666667</ele><time>2026-05-01T10:30:24Z</time></trkpt><trkpt lat="44.891382965456074" lon="9.434105927125616"><ele>582.3333333333334</ele><time>2026-05-01T10:30:25Z</time></trkpt><trkpt lat="44.89125804157802" lon="9.434279824185863"><ele>585.0</ele><time>2026-05-01T10:30:26Z</time></trkpt><trkpt lat="44.891096128518086" lon="9.434381195870216"><ele>585.0</ele><time>2026-05-01T10:30:27Z</time></trkpt><trkpt lat="44.89093389933845" lon="9.434483382496426"><ele>585.0</ele><time>2026-05-01T10:30:28Z</time></trkpt><trkpt lat="44.89080041044108" lon="9.43461477607258"><ele>585.0</ele><time>2026-05-01T10:30:29Z</time></trkpt><trkpt lat="44.89073533941167" lon="9.434742246052313"><ele>587.2</ele><time>2026-05-01T10:30:30Z</time></trkpt><trkpt lat="44.89068059196555" lon="9.434869647224419"><ele>589.4</ele><time>2026-05-01T10:30:31Z</time></trkpt><trkpt lat="44.89062550868574" lon="9.434971985055935"><ele>591.6</ele><time>2026-05-01T10:30:32Z</time></trkpt><trkpt lat="44.89055946424101" lon="9.435066707259947"><ele>593.8</ele><time>2026-05-01T10:30:33Z</time></trkpt><trkpt lat="44.89045396644937" lon="9.43512730154498"><ele>596.0</ele><time>2026-05-01T10:30:34Z</time></trkpt><trkpt lat="44.89031774232334" lon="9.435186046663148"><ele>596.0</ele><time>2026-05-01T10:30:35Z</time></trkpt><trkpt lat="44.89016950316387" lon="9.435243201658192"><ele>596.0</ele><time>2026-05-01T10:30:36Z</time></trkpt><trkpt lat="44.890019868606956" lon="9.435294310401849"><ele>596.0</ele><time>2026-05-01T10:30:37Z</time></trkpt><trkpt lat="44.88986373095436" lon="9.435358203378675"><ele>596.75</ele><time>2026-05-01T10:30:38Z</time></trkpt><trkpt lat="44.889723863938514" lon="9.435425033549686"><ele>597.5</ele><time>2026-05-01T10:30:39Z</time></trkpt><trkpt lat="44.88960038717771" lon="9.435482009600495"><ele>598.25</ele><time>2026-05-01T10:30:40Z</time></trkpt><trkpt lat="44.889492757825295" lon="9.435515985427136"><ele>599.0</ele><time>2026-05-01T10:30:41Z</time></trkpt><trkpt lat="44.889382110345615" lon="9.435520983342618"><ele>599.0</ele><time>2026-05-01T10:30:42Z</time></trkpt><trkpt lat="44.88927225905731" lon="9.435488436470916"><ele>599.0</ele><time>2026-05-01T10:30:43Z</time></trkpt><trkpt lat="44.88916031336297" lon="9.435423553779737"><ele>599.0</ele><time>2026-05-01T10:30:44Z</time></trkpt><trkpt lat="44.88905289987091" lon="9.435320142399055"><ele>599.0</ele><time>2026-05-01T10:30:45Z</time></trkpt><trkpt lat="44.8889415066772" lon="9.435213278862038"><ele>603.5</ele><time>2026-05-01T10:30:46Z</time></trkpt><trkpt lat="44.88881988870965" lon="9.435123230433174"><ele>608.0</ele><time>2026-05-01T10:30:47Z</time></trkpt><trkpt lat="44.88870211838014" lon="9.435024994300163"><ele>612.5</ele><time>2026-05-01T10:30:48Z</time></trkpt><trkpt lat="44.88859083008379" lon="9.434923506029982"><ele>617.0</ele><time>2026-05-01T10:30:49Z</time></trkpt><trkpt lat="44.888476112536885" lon="9.43486370287704"><ele>621.0</ele><time>2026-05-01T10:30:50Z</time></trkpt><trkpt lat="44.88837078181067" lon="9.434755243657257"><ele>625.0</ele><time>2026-05-01T10:30:51Z</time></trkpt><trkpt lat="44.888204408180655" lon="9.434897801164794"><ele>629.0</ele><time>2026-05-01T10:30:52Z</time></trkpt><trkpt lat="44.88804299768198" lon="9.43489352900818"><ele>629.0</ele><time>2026-05-01T10:30:53Z</time></trkpt><trkpt lat="44.88787302458666" lon="9.434887676177484"><ele>629.0</ele><time>2026-05-01T10:30:54Z</time></trkpt><trkpt lat="44.88770917996165" lon="9.434819328249034"><ele>629.0</ele><time>2026-05-01T10:30:55Z</time></trkpt><trkpt lat="44.88753981963871" lon="9.434796516092394"><ele>631.0</ele><time>2026-05-01T10:30:56Z</time></trkpt><trkpt lat="44.88736111962424" lon="9.434824881189352"><ele>633.0</ele><time>2026-05-01T10:30:57Z</time></trkpt><trkpt lat="44.88718899697682" lon="9.434818490241279"><ele>635.0</ele><time>2026-05-01T10:30:58Z</time></trkpt><trkpt lat="44.88704268393201" lon="9.434827985715787"><ele>635.0</ele><time>2026-05-01T10:30:59Z</time></trkpt><trkpt lat="44.886931226265446" lon="9.434790927405563"><ele>635.0</ele><time>2026-05-01T10:31:00Z</time></trkpt><trkpt lat="44.88685942913049" lon="9.434780412118418"><ele>635.0</ele><time>2026-05-01T10:31:01Z</time></trkpt><trkpt lat="44.88679483518031" lon="9.43483145253846"><ele>635.0</ele><time>2026-05-01T10:31:02Z</time></trkpt><trkpt lat="44.88670852075653" lon="9.434911004129317"><ele>635.0</ele><time>2026-05-01T10:31:03Z</time></trkpt><trkpt lat="44.88660570367007" lon="9.43504329993886"><ele>636.6666666666666</ele><time>2026-05-01T10:31:04Z</time></trkpt><trkpt lat="44.88649449794385" lon="9.43517652825127"><ele>638.3333333333334</ele><time>2026-05-01T10:31:05Z</time></trkpt><trkpt lat="44.886364180884826" lon="9.435316060563057"><ele>640.0</ele><time>2026-05-01T10:31:06Z</time></trkpt><trkpt lat="44.88622773985755" lon="9.435412359331744"><ele>644.0</ele><time>2026-05-01T10:31:07Z</time></trkpt><trkpt lat="44.8860844196703" lon="9.435501602330566"><ele>648.0</ele><time>2026-05-01T10:31:08Z</time></trkpt><trkpt lat="44.885942311257296" lon="9.435568972685392"><ele>652.0</ele><time>2026-05-01T10:31:09Z</time></trkpt><trkpt lat="44.88578533850613" lon="9.435600196054464"><ele>652.0</ele><time>2026-05-01T10:31:10Z</time></trkpt><trkpt lat="44.88563883011886" lon="9.435616955802502"><ele>652.0</ele><time>2026-05-01T10:31:11Z</time></trkpt><trkpt lat="44.88551092364125" lon="9.43559855842125"><ele>652.0</ele><time>2026-05-01T10:31:12Z</time></trkpt><trkpt lat="44.88539229172482" lon="9.4355393092166"><ele>652.0</ele><time>2026-05-01T10:31:13Z</time></trkpt><trkpt lat="44.88528410560036" lon="9.435504273096091"><ele>652.0</ele><time>2026-05-01T10:31:14Z</time></trkpt><trkpt lat="44.885175369547035" lon="9.435531094155271"><ele>652.0</ele><time>2026-05-01T10:31:15Z</time></trkpt><trkpt lat="44.88506576090148" lon="9.435600968520495"><ele>652.0</ele><time>2026-05-01T10:31:16Z</time></trkpt><trkpt lat="44.88495216741202" lon="9.435704030146013"><ele>652.0</ele><time>2026-05-01T10:31:17Z</time></trkpt><trkpt lat="44.884831525286586" lon="9.435836139215597"><ele>653.3333333333334</ele><time>2026-05-01T10:31:18Z</time></trkpt><trkpt lat="44.88468238311388" lon="9.435953330032362"><ele>654.6666666666666</ele><time>2026-05-01T10:31:19Z</time></trkpt><trkpt lat="44.88454104331139" lon="9.436061948786103"><ele>656.0</ele><time>2026-05-01T10:31:20Z</time></trkpt><trkpt lat="44.88440132954503" lon="9.436147598672827"><ele>653.3333333333333</ele><time>2026-05-01T10:31:21Z</time></trkpt><trkpt lat="44.88425660992876" lon="9.436209700343298"><ele>650.6666666666666</ele><time>2026-05-01T10:31:22Z</time></trkpt><trkpt lat="44.884096756329654" lon="9.436239733265545"><ele>648.0</ele><time>2026-05-01T10:31:23Z</time></trkpt><trkpt lat="44.88393479639933" lon="9.43626003983583"><ele>648.0</ele><time>2026-05-01T10:31:24Z</time></trkpt><trkpt lat="44.88379600708424" lon="9.43627698631188"><ele>648.0</ele><time>2026-05-01T10:31:25Z</time></trkpt><trkpt lat="44.88366800447958" lon="9.436292287214012"><ele>648.0</ele><time>2026-05-01T10:31:26Z</time></trkpt><trkpt lat="44.883529288774895" lon="9.436337049665088"><ele>648.0</ele><time>2026-05-01T10:31:27Z</time></trkpt><trkpt lat="44.88338244111455" lon="9.436378747734992"><ele>651.25</ele><time>2026-05-01T10:31:28Z</time></trkpt><trkpt lat="44.88324564412964" lon="9.43644520207592"><ele>654.5</ele><time>2026-05-01T10:31:29Z</time></trkpt><trkpt lat="44.883119195883964" lon="9.436496556888024"><ele>657.75</ele><time>2026-05-01T10:31:30Z</time></trkpt><trkpt lat="44.8830062375935" lon="9.436584241364585"><ele>661.0</ele><time>2026-05-01T10:31:31Z</time></trkpt><trkpt lat="44.882865267016115" lon="9.436594646985975"><ele>661.0</ele><time>2026-05-01T10:31:32Z</time></trkpt><trkpt lat="44.88271514862517" lon="9.436652586362571"><ele>661.0</ele><time>2026-05-01T10:31:33Z</time></trkpt><trkpt lat="44.882572520627896" lon="9.436740847188036"><ele>661.0</ele><time>2026-05-01T10:31:34Z</time></trkpt><trkpt lat="44.88243386499524" lon="9.436730923655995"><ele>661.25</ele><time>2026-05-01T10:31:35Z</time></trkpt><trkpt lat="44.8823131745242" lon="9.436741162969154"><ele>661.5</ele><time>2026-05-01T10:31:36Z</time></trkpt><trkpt lat="44.88221597788366" lon="9.43677175161608"><ele>661.75</ele><time>2026-05-01T10:31:37Z</time></trkpt><trkpt lat="44.88212474919652" lon="9.436887845288249"><ele>662.0</ele><time>2026-05-01T10:31:38Z</time></trkpt><trkpt lat="44.88201584372699" lon="9.437010357787718"><ele>662.0</ele><time>2026-05-01T10:31:39Z</time></trkpt><trkpt lat="44.88186959730859" lon="9.437020169598833"><ele>662.0</ele><time>2026-05-01T10:31:40Z</time></trkpt><trkpt lat="44.88171405925352" lon="9.437012222308578"><ele>662.0</ele><time>2026-05-01T10:31:41Z</time></trkpt><trkpt lat="44.8815426095725" lon="9.437010416082892"><ele>661.25</ele><time>2026-05-01T10:31:42Z</time></trkpt><trkpt lat="44.88138973334724" lon="9.437018771627786"><ele>660.5</ele><time>2026-05-01T10:31:43Z</time></trkpt><trkpt lat="44.881264464826906" lon="9.437043090526776"><ele>659.75</ele><time>2026-05-01T10:31:44Z</time></trkpt><trkpt lat="44.88114290661172" lon="9.437081282143499"><ele>659.0</ele><time>2026-05-01T10:31:45Z</time></trkpt><trkpt lat="44.881017327792605" lon="9.437107097925317"><ele>659.0</ele><time>2026-05-01T10:31:46Z</time></trkpt><trkpt lat="44.88090428093905" lon="9.437100833210058"><ele>659.0</ele><time>2026-05-01T10:31:47Z</time></trkpt><trkpt lat="44.88080468131993" lon="9.43707033581638"><ele>659.0</ele><time>2026-05-01T10:31:48Z</time></trkpt><trkpt lat="44.88072171833048" lon="9.437017154991684"><ele>659.0</ele><time>2026-05-01T10:31:49Z</time></trkpt><trkpt lat="44.88064265728229" lon="9.437009147667432"><ele>659.0</ele><time>2026-05-01T10:31:50Z</time></trkpt><trkpt lat="44.880574098476764" lon="9.436989203219746"><ele>659.0</ele><time>2026-05-01T10:31:51Z</time></trkpt><trkpt lat="44.880507336001806" lon="9.43700007811908"><ele>659.0</ele><time>2026-05-01T10:31:52Z</time></trkpt><trkpt lat="44.880442482951544" lon="9.437024391798289"><ele>659.0</ele><time>2026-05-01T10:31:53Z</time></trkpt><trkpt lat="44.88037350627323" lon="9.437023994176421"><ele>659.0</ele><time>2026-05-01T10:31:54Z</time></trkpt><trkpt lat="44.880307402921204" lon="9.43705365549518"><ele>659.0</ele><time>2026-05-01T10:31:55Z</time></trkpt><trkpt lat="44.88024672608873" lon="9.43707837256976"><ele>659.0</ele><time>2026-05-01T10:31:56Z</time></trkpt><trkpt lat="44.880155725496714" lon="9.437113026748678"><ele>659.0</ele><time>2026-05-01T10:31:58Z</time></trkpt><trkpt lat="44.880104367021445" lon="9.437333468859803"><ele>661.0</ele><time>2026-05-01T10:32:02Z</time></trkpt><trkpt lat="44.88014515152118" lon="9.437427567951127"><ele>663.0</ele><time>2026-05-01T10:32:06Z</time></trkpt><trkpt lat="44.880167292988006" lon="9.437516979187967"><ele>665.0</ele><time>2026-05-01T10:32:59Z</time></trkpt><trkpt lat="44.88021684549625" lon="9.437651698210487"><ele>667.0</ele><time>2026-05-01T10:33:01Z</time></trkpt><trkpt lat="44.88024565123792" lon="9.437734858592291"><ele>669.0</ele><time>2026-05-01T10:33:02Z</time></trkpt><trkpt lat="44.88029317515578" lon="9.437886933209692"><ele>671.0</ele><time>2026-05-01T10:33:04Z</time></trkpt><trkpt lat="44.88029943994373" lon="9.43806834537912"><ele>671.0</ele><time>2026-05-01T10:33:06Z</time></trkpt><trkpt lat="44.88030497021963" lon="9.438165222053055"><ele>671.0</ele><time>2026-05-01T10:33:07Z</time></trkpt><trkpt lat="44.88031712137882" lon="9.438340305379723"><ele>671.0</ele><time>2026-05-01T10:33:09Z</time></trkpt><trkpt lat="44.880344200465686" lon="9.438432235364122"><ele>671.0</ele><time>2026-05-01T10:33:10Z</time></trkpt><trkpt lat="44.88038385170419" lon="9.438521239939101"><ele>671.0</ele><time>2026-05-01T10:33:11Z</time></trkpt><trkpt lat="44.88042575660786" lon="9.438607100985088"><ele>671.0</ele><time>2026-05-01T10:33:12Z</time></trkpt><trkpt lat="44.880471589060264" lon="9.438701591975532"><ele>671.0</ele><time>2026-05-01T10:33:13Z</time></trkpt><trkpt lat="44.88051567775567" lon="9.438795993353443"><ele>671.0</ele><time>2026-05-01T10:33:14Z</time></trkpt><trkpt lat="44.88055405080497" lon="9.438902261668016"><ele>671.0</ele><time>2026-05-01T10:33:15Z</time></trkpt><trkpt lat="44.880588203829284" lon="9.439009173682841"><ele>671.0</ele><time>2026-05-01T10:33:16Z</time></trkpt><trkpt lat="44.88061247507378" lon="9.43911637088947"><ele>671.0</ele><time>2026-05-01T10:33:17Z</time></trkpt><trkpt lat="44.88063170867674" lon="9.439226034712274"><ele>671.0</ele><time>2026-05-01T10:33:18Z</time></trkpt><trkpt lat="44.880647416112375" lon="9.439340896078605"><ele>670.5</ele><time>2026-05-01T10:33:19Z</time></trkpt><trkpt lat="44.88065453849674" lon="9.43945431558975"><ele>670.0</ele><time>2026-05-01T10:33:20Z</time></trkpt><trkpt lat="44.88065425448032" lon="9.439573656713495"><ele>669.5</ele><time>2026-05-01T10:33:21Z</time></trkpt><trkpt lat="44.88064950531521" lon="9.439688869581115"><ele>669.0</ele><time>2026-05-01T10:33:22Z</time></trkpt><trkpt lat="44.8806439659461" lon="9.439803946835577"><ele>668.5</ele><time>2026-05-01T10:33:23Z</time></trkpt><trkpt lat="44.880655808481094" lon="9.439905834863335"><ele>668.0</ele><time>2026-05-01T10:33:24Z</time></trkpt><trkpt lat="44.880650691971006" lon="9.440010622515265"><ele>668.0</ele><time>2026-05-01T10:33:25Z</time></trkpt><trkpt lat="44.88063947179715" lon="9.440116032218887"><ele>668.0</ele><time>2026-05-01T10:33:26Z</time></trkpt><trkpt lat="44.88061454670399" lon="9.440207769728927"><ele>668.0</ele><time>2026-05-01T10:33:27Z</time></trkpt><trkpt lat="44.88055246019187" lon="9.440279861341525"><ele>668.0</ele><time>2026-05-01T10:33:28Z</time></trkpt><trkpt lat="44.880495396677944" lon="9.440358512190722"><ele>668.0</ele><time>2026-05-01T10:33:29Z</time></trkpt><trkpt lat="44.88043714519632" lon="9.440430653845121"><ele>668.0</ele><time>2026-05-01T10:33:30Z</time></trkpt><trkpt lat="44.88037867465582" lon="9.44050733047298"><ele>669.0</ele><time>2026-05-01T10:33:31Z</time></trkpt><trkpt lat="44.8803251411936" lon="9.440580787249436"><ele>670.0</ele><time>2026-05-01T10:33:32Z</time></trkpt><trkpt lat="44.880277096654524" lon="9.440663766783898"><ele>671.0</ele><time>2026-05-01T10:33:33Z</time></trkpt><trkpt lat="44.880243547541326" lon="9.440756368395146"><ele>672.0</ele><time>2026-05-01T10:33:34Z</time></trkpt><trkpt lat="44.880244255781406" lon="9.440871212766679"><ele>673.0</ele><time>2026-05-01T10:33:35Z</time></trkpt><trkpt lat="44.88022243975752" lon="9.440975491781407"><ele>674.0</ele><time>2026-05-01T10:33:36Z</time></trkpt><trkpt lat="44.88017455195005" lon="9.441066618136178"><ele>674.0</ele><time>2026-05-01T10:33:37Z</time></trkpt><trkpt lat="44.880161450350684" lon="9.441159177471787"><ele>674.0</ele><time>2026-05-01T10:33:38Z</time></trkpt><trkpt lat="44.88013212438449" lon="9.441262893822168"><ele>674.0</ele><time>2026-05-01T10:33:39Z</time></trkpt><trkpt lat="44.88010258327045" lon="9.44137333219682"><ele>674.0</ele><time>2026-05-01T10:33:40Z</time></trkpt><trkpt lat="44.88008026637637" lon="9.441494522663213"><ele>674.0</ele><time>2026-05-01T10:33:41Z</time></trkpt><trkpt lat="44.880047789866204" lon="9.441610216551014"><ele>674.0</ele><time>2026-05-01T10:33:42Z</time></trkpt><trkpt lat="44.880005601417544" lon="9.441714086096674"><ele>670.6</ele><time>2026-05-01T10:33:43Z</time></trkpt><trkpt lat="44.87995993337451" lon="9.441823413144217"><ele>667.2</ele><time>2026-05-01T10:33:44Z</time></trkpt><trkpt lat="44.87991904112516" lon="9.441936128942809"><ele>663.8000000000001</ele><time>2026-05-01T10:33:45Z</time></trkpt><trkpt lat="44.879892511600545" lon="9.442061535729835"><ele>660.4000000000001</ele><time>2026-05-01T10:33:46Z</time></trkpt><trkpt lat="44.87990873817787" lon="9.44221379018309"><ele>657.0</ele><time>2026-05-01T10:33:47Z</time></trkpt><trkpt lat="44.879891640493376" lon="9.442360270624633"><ele>657.0</ele><time>2026-05-01T10:33:48Z</time></trkpt><trkpt lat="44.87988059289445" lon="9.442499766284064"><ele>657.0</ele><time>2026-05-01T10:33:49Z</time></trkpt><trkpt lat="44.8798684239655" lon="9.442606015359978"><ele>657.0</ele><time>2026-05-01T10:33:50Z</time></trkpt><trkpt lat="44.879849889416775" lon="9.44273208299058"><ele>657.0</ele><time>2026-05-01T10:33:51Z</time></trkpt><trkpt lat="44.87983720539849" lon="9.442871264924522"><ele>657.0</ele><time>2026-05-01T10:33:52Z</time></trkpt><trkpt lat="44.87983405445486" lon="9.443002923287958"><ele>656.4000000000001</ele><time>2026-05-01T10:33:53Z</time></trkpt><trkpt lat="44.87985102622513" lon="9.443116637865398"><ele>655.8000000000001</ele><time>2026-05-01T10:33:54Z</time></trkpt><trkpt lat="44.879878289570556" lon="9.443226239969118"><ele>655.2</ele><time>2026-05-01T10:33:55Z</time></trkpt><trkpt lat="44.8799343538986" lon="9.443336877267638"><ele>654.6</ele><time>2026-05-01T10:33:56Z</time></trkpt><trkpt lat="44.87999057721143" lon="9.443459945948428"><ele>654.0</ele><time>2026-05-01T10:33:57Z</time></trkpt><trkpt lat="44.880023113094055" lon="9.44358718372042"><ele>654.0</ele><time>2026-05-01T10:33:58Z</time></trkpt><trkpt lat="44.88006077294033" lon="9.443696103238205"><ele>654.0</ele><time>2026-05-01T10:33:59Z</time></trkpt><trkpt lat="44.88009199056494" lon="9.443775832409452"><ele>654.0</ele><time>2026-05-01T10:34:00Z</time></trkpt><trkpt lat="44.88016889755992" lon="9.443913208300899"><ele>654.0</ele><time>2026-05-01T10:34:02Z</time></trkpt><trkpt lat="44.880254631762966" lon="9.443920745932536"><ele>654.0</ele><time>2026-05-01T10:34:03Z</time></trkpt><trkpt lat="44.88033323979445" lon="9.443929988357533"><ele>654.0</ele><time>2026-05-01T10:34:04Z</time></trkpt><trkpt lat="44.880423878673255" lon="9.443952861157443"><ele>653.1666666666666</ele><time>2026-05-01T10:34:05Z</time></trkpt><trkpt lat="44.88050329395181" lon="9.443996164469834"><ele>652.3333333333334</ele><time>2026-05-01T10:34:06Z</time></trkpt><trkpt lat="44.88058057203698" lon="9.44405375412832"><ele>651.5</ele><time>2026-05-01T10:34:07Z</time></trkpt><trkpt lat="44.880634828540074" lon="9.44415378716268"><ele>650.6666666666667</ele><time>2026-05-01T10:34:08Z</time></trkpt><trkpt lat="44.88070022505436" lon="9.444220031958642"><ele>649.8333333333334</ele><time>2026-05-01T10:34:09Z</time></trkpt><trkpt lat="44.88076004316212" lon="9.444280625740646"><ele>649.0</ele><time>2026-05-01T10:34:10Z</time></trkpt><trkpt lat="44.88082720205634" lon="9.444350145767825"><ele>649.0</ele><time>2026-05-01T10:34:11Z</time></trkpt><trkpt lat="44.88088511399741" lon="9.44441580248837"><ele>649.0</ele><time>2026-05-01T10:34:12Z</time></trkpt><trkpt lat="44.88096661360821" lon="9.444549140823053"><ele>649.0</ele><time>2026-05-01T10:34:14Z</time></trkpt><trkpt lat="44.88102767788573" lon="9.44459642570611"><ele>649.0</ele><time>2026-05-01T10:34:15Z</time></trkpt><trkpt lat="44.88111281617922" lon="9.444584856436611"><ele>649.0</ele><time>2026-05-01T10:34:16Z</time></trkpt><trkpt lat="44.88119199610718" lon="9.444615998881476"><ele>649.0</ele><time>2026-05-01T10:34:17Z</time></trkpt><trkpt lat="44.88127371619108" lon="9.44464867898844"><ele>648.7142857142857</ele><time>2026-05-01T10:34:18Z</time></trkpt><trkpt lat="44.881350172404744" lon="9.44466717973691"><ele>648.4285714285714</ele><time>2026-05-01T10:34:19Z</time></trkpt><trkpt lat="44.881410691594894" lon="9.444638579540612"><ele>648.1428571428571</ele><time>2026-05-01T10:34:20Z</time></trkpt><trkpt lat="44.8814710922418" lon="9.444607019260216"><ele>647.8571428571429</ele><time>2026-05-01T10:34:21Z</time></trkpt><trkpt lat="44.88154027058054" lon="9.444603210056085"><ele>647.5714285714286</ele><time>2026-05-01T10:34:22Z</time></trkpt><trkpt lat="44.88161649041483" lon="9.444583904982627"><ele>647.2857142857142</ele><time>2026-05-01T10:34:23Z</time></trkpt><trkpt lat="44.88169794497543" lon="9.44456872318757"><ele>647.0</ele><time>2026-05-01T10:34:24Z</time></trkpt><trkpt lat="44.88177474235038" lon="9.444553660276707"><ele>645.1666666666666</ele><time>2026-05-01T10:34:25Z</time></trkpt><trkpt lat="44.881865899813285" lon="9.444513420535454"><ele>643.3333333333333</ele><time>2026-05-01T10:34:26Z</time></trkpt><trkpt lat="44.881953835615974" lon="9.444470954272745"><ele>641.5</ele><time>2026-05-01T10:34:27Z</time></trkpt><trkpt lat="44.882046979722595" lon="9.44443983585376"><ele>639.6666666666666</ele><time>2026-05-01T10:34:28Z</time></trkpt><trkpt lat="44.88212565144919" lon="9.444407715767795"><ele>637.8333333333334</ele><time>2026-05-01T10:34:29Z</time></trkpt><trkpt lat="44.88218943041049" lon="9.444389989779875"><ele>636.0</ele><time>2026-05-01T10:34:30Z</time></trkpt><trkpt lat="44.8822872432945" lon="9.44443158406354"><ele>636.0</ele><time>2026-05-01T10:34:32Z</time></trkpt><trkpt lat="44.88235012798638" lon="9.444446384921044"><ele>636.0</ele><time>2026-05-01T10:34:33Z</time></trkpt><trkpt lat="44.88243368277448" lon="9.444447086505406"><ele>636.0</ele><time>2026-05-01T10:34:34Z</time></trkpt><trkpt lat="44.88251463232123" lon="9.444491912449818"><ele>636.0</ele><time>2026-05-01T10:34:35Z</time></trkpt><trkpt lat="44.882609653153" lon="9.444525501430636"><ele>636.0</ele><time>2026-05-01T10:34:36Z</time></trkpt><trkpt lat="44.88270010586023" lon="9.444557751037287"><ele>636.0</ele><time>2026-05-01T10:34:37Z</time></trkpt><trkpt lat="44.882769894785206" lon="9.44458768050168"><ele>634.8333333333334</ele><time>2026-05-01T10:34:38Z</time></trkpt><trkpt lat="44.88284151458451" lon="9.444632319139677"><ele>633.6666666666666</ele><time>2026-05-01T10:34:39Z</time></trkpt><trkpt lat="44.8829116691029" lon="9.444695734792992"><ele>632.5</ele><time>2026-05-01T10:34:40Z</time></trkpt><trkpt lat="44.88295791866654" lon="9.444761855577491"><ele>631.3333333333333</ele><time>2026-05-01T10:34:41Z</time></trkpt><trkpt lat="44.88298797634186" lon="9.444924732105935"><ele>630.1666666666666</ele><time>2026-05-01T10:34:43Z</time></trkpt><trkpt lat="44.88297595575722" lon="9.445036743122241"><ele>629.0</ele><time>2026-05-01T10:34:44Z</time></trkpt><trkpt lat="44.882980937705874" lon="9.445146521782505"><ele>629.0</ele><time>2026-05-01T10:34:45Z</time></trkpt><trkpt lat="44.883019514961696" lon="9.44526403681934"><ele>629.0</ele><time>2026-05-01T10:34:46Z</time></trkpt><trkpt lat="44.88303931935398" lon="9.445406342392822"><ele>629.0</ele><time>2026-05-01T10:34:47Z</time></trkpt><trkpt lat="44.883084018541524" lon="9.445531981275847"><ele>629.0</ele><time>2026-05-01T10:34:48Z</time></trkpt><trkpt lat="44.883119790624505" lon="9.445640755424852"><ele>629.0</ele><time>2026-05-01T10:34:49Z</time></trkpt><trkpt lat="44.88315901778749" lon="9.445735500452527"><ele>628.3333333333333</ele><time>2026-05-01T10:34:50Z</time></trkpt><trkpt lat="44.88318837784247" lon="9.445836676382713"><ele>627.6666666666666</ele><time>2026-05-01T10:34:51Z</time></trkpt><trkpt lat="44.88320440395331" lon="9.445972615943079"><ele>627.0</ele><time>2026-05-01T10:34:52Z</time></trkpt><trkpt lat="44.88324064319106" lon="9.446088360906371"><ele>626.3333333333334</ele><time>2026-05-01T10:34:53Z</time></trkpt><trkpt lat="44.88330583484988" lon="9.446172720826599"><ele>625.6666666666667</ele><time>2026-05-01T10:34:54Z</time></trkpt><trkpt lat="44.88335090731856" lon="9.446280367941842"><ele>625.0</ele><time>2026-05-01T10:34:55Z</time></trkpt><trkpt lat="44.883392813844786" lon="9.446398794923496"><ele>624.0</ele><time>2026-05-01T10:34:56Z</time></trkpt><trkpt lat="44.88340917966878" lon="9.4465290168499"><ele>623.0</ele><time>2026-05-01T10:34:57Z</time></trkpt><trkpt lat="44.883442245412986" lon="9.44665450614723"><ele>622.0</ele><time>2026-05-01T10:34:58Z</time></trkpt><trkpt lat="44.88348859243638" lon="9.44672440673094"><ele>621.0</ele><time>2026-05-01T10:34:59Z</time></trkpt><trkpt lat="44.88354447798914" lon="9.446800190204684"><ele>620.0</ele><time>2026-05-01T10:35:00Z</time></trkpt><trkpt lat="44.883604249827044" lon="9.446906898629383"><ele>619.0</ele><time>2026-05-01T10:35:01Z</time></trkpt><trkpt lat="44.8836675421352" lon="9.447019610295975"><ele>621.0</ele><time>2026-05-01T10:35:02Z</time></trkpt><trkpt lat="44.88372380087694" lon="9.447136445278856"><ele>623.0</ele><time>2026-05-01T10:35:03Z</time></trkpt><trkpt lat="44.88373580540371" lon="9.447277709646338"><ele>625.0</ele><time>2026-05-01T10:35:04Z</time></trkpt><trkpt lat="44.88374634844337" lon="9.447413572044765"><ele>627.0</ele><time>2026-05-01T10:35:05Z</time></trkpt><trkpt lat="44.88377478143116" lon="9.447550134911982"><ele>629.0</ele><time>2026-05-01T10:35:06Z</time></trkpt><trkpt lat="44.883797834244696" lon="9.447671650157064"><ele>629.0</ele><time>2026-05-01T10:35:07Z</time></trkpt><trkpt lat="44.883841532248546" lon="9.447779135642831"><ele>629.0</ele><time>2026-05-01T10:35:08Z</time></trkpt><trkpt lat="44.88388772939136" lon="9.447884059981865"><ele>629.0</ele><time>2026-05-01T10:35:09Z</time></trkpt><trkpt lat="44.88393064798808" lon="9.447997218752727"><ele>629.0</ele><time>2026-05-01T10:35:10Z</time></trkpt><trkpt lat="44.88395957055249" lon="9.44808660923315"><ele>629.0</ele><time>2026-05-01T10:35:11Z</time></trkpt><trkpt lat="44.883978460235866" lon="9.448183589717015"><ele>629.0</ele><time>2026-05-01T10:35:12Z</time></trkpt><trkpt lat="44.88399359667215" lon="9.448273131085129"><ele>627.3333333333333</ele><time>2026-05-01T10:35:13Z</time></trkpt><trkpt lat="44.884004217116974" lon="9.448392072877876"><ele>625.6666666666666</ele><time>2026-05-01T10:35:14Z</time></trkpt><trkpt lat="44.88400960986621" lon="9.448489572580648"><ele>624.0</ele><time>2026-05-01T10:35:15Z</time></trkpt><trkpt lat="44.883996232075525" lon="9.44860654543437"><ele>622.3333333333334</ele><time>2026-05-01T10:35:16Z</time></trkpt><trkpt lat="44.8840114497313" lon="9.448720156441746"><ele>620.6666666666667</ele><time>2026-05-01T10:35:17Z</time></trkpt><trkpt lat="44.884004973194635" lon="9.448830234814663"><ele>619.0</ele><time>2026-05-01T10:35:18Z</time></trkpt><trkpt lat="44.88400714967573" lon="9.448940137209265"><ele>616.8333333333334</ele><time>2026-05-01T10:35:19Z</time></trkpt><trkpt lat="44.88402785380285" lon="9.449049737718001"><ele>614.6666666666667</ele><time>2026-05-01T10:35:20Z</time></trkpt><trkpt lat="44.884059491937656" lon="9.449151475270307"><ele>612.5</ele><time>2026-05-01T10:35:21Z</time></trkpt><trkpt lat="44.884086094985996" lon="9.44924836194441"><ele>610.3333333333334</ele><time>2026-05-01T10:35:22Z</time></trkpt><trkpt lat="44.88410465679901" lon="9.449356189668405"><ele>608.1666666666666</ele><time>2026-05-01T10:35:23Z</time></trkpt><trkpt lat="44.88411045940259" lon="9.449462623123798"><ele>606.0</ele><time>2026-05-01T10:35:24Z</time></trkpt><trkpt lat="44.884142749120265" lon="9.449566299741075"><ele>604.6</ele><time>2026-05-01T10:35:25Z</time></trkpt><trkpt lat="44.884149011915326" lon="9.44968845783207"><ele>603.2</ele><time>2026-05-01T10:35:26Z</time></trkpt><trkpt lat="44.8841650835344" lon="9.449876399793178"><ele>601.8</ele><time>2026-05-01T10:35:28Z</time></trkpt><trkpt lat="44.88417032605364" lon="9.449974455620824"><ele>600.4</ele><time>2026-05-01T10:35:29Z</time></trkpt><trkpt lat="44.884176616041536" lon="9.45009210326628"><ele>599.0</ele><time>2026-05-01T10:35:30Z</time></trkpt><trkpt lat="44.88418312540142" lon="9.450206272239624"><ele>599.0</ele><time>2026-05-01T10:35:31Z</time></trkpt><trkpt lat="44.88418870619861" lon="9.450299857934485"><ele>599.0</ele><time>2026-05-01T10:35:32Z</time></trkpt><trkpt lat="44.88421045850215" lon="9.450386056816582"><ele>599.0</ele><time>2026-05-01T10:35:33Z</time></trkpt><trkpt lat="44.88421897402999" lon="9.450486543161704"><ele>599.0</ele><time>2026-05-01T10:35:35Z</time></trkpt><trkpt lat="44.88413763016775" lon="9.450552027450918"><ele>599.0</ele><time>2026-05-01T10:35:37Z</time></trkpt><trkpt lat="44.884060185276475" lon="9.450473623252433"><ele>599.0</ele><time>2026-05-01T10:35:39Z</time></trkpt><trkpt lat="44.88399392598394" lon="9.450449447034943"><ele>599.0</ele><time>2026-05-01T10:35:41Z</time></trkpt><trkpt lat="44.88392935686181" lon="9.450426755457928"><ele>599.0</ele><time>2026-05-01T10:35:43Z</time></trkpt><trkpt lat="44.88385355309466" lon="9.450401097706457"><ele>599.0</ele><time>2026-05-01T10:35:46Z</time></trkpt><trkpt lat="44.88376387514791" lon="9.450393668341711"><ele>599.0</ele><time>2026-05-01T10:36:10Z</time></trkpt><trkpt lat="44.883634993278726" lon="9.450344563659973"><ele>599.0</ele><time>2026-05-01T10:36:12Z</time></trkpt><trkpt lat="44.883557227030764" lon="9.450294832323658"><ele>599.0</ele><time>2026-05-01T10:36:13Z</time></trkpt><trkpt lat="44.88346695986651" lon="9.450263212673299"><ele>599.0</ele><time>2026-05-01T10:36:14Z</time></trkpt><trkpt lat="44.88337326378735" lon="9.45024030722208"><ele>599.0</ele><time>2026-05-01T10:36:15Z</time></trkpt><trkpt lat="44.8832696243459" lon="9.45023947670122"><ele>599.0</ele><time>2026-05-01T10:36:16Z</time></trkpt><trkpt lat="44.88316991955469" lon="9.450252630746427"><ele>599.0</ele><time>2026-05-01T10:36:17Z</time></trkpt><trkpt lat="44.883069573413785" lon="9.450268962627987"><ele>599.2</ele><time>2026-05-01T10:36:18Z</time></trkpt><trkpt lat="44.88296137645305" lon="9.450280993417826"><ele>599.4</ele><time>2026-05-01T10:36:19Z</time></trkpt><trkpt lat="44.88284929192357" lon="9.450292843971178"><ele>599.6</ele><time>2026-05-01T10:36:20Z</time></trkpt><trkpt lat="44.882739988732595" lon="9.450304266013028"><ele>599.8</ele><time>2026-05-01T10:36:21Z</time></trkpt><trkpt lat="44.882633683899556" lon="9.450336519089168"><ele>600.0</ele><time>2026-05-01T10:36:22Z</time></trkpt><trkpt lat="44.88253320697203" lon="9.450339743088053"><ele>597.8</ele><time>2026-05-01T10:36:23Z</time></trkpt><trkpt lat="44.882432210978585" lon="9.450306608373639"><ele>595.6</ele><time>2026-05-01T10:36:24Z</time></trkpt><trkpt lat="44.88233481213456" lon="9.450273748628739"><ele>593.4</ele><time>2026-05-01T10:36:25Z</time></trkpt><trkpt lat="44.88224374394847" lon="9.450228982981079"><ele>591.2</ele><time>2026-05-01T10:36:26Z</time></trkpt><trkpt lat="44.88215733113893" lon="9.450158547792194"><ele>589.0</ele><time>2026-05-01T10:36:27Z</time></trkpt><trkpt lat="44.88206738774434" lon="9.450065908169632"><ele>589.0</ele><time>2026-05-01T10:36:28Z</time></trkpt><trkpt lat="44.881975667650394" lon="9.449975843784268"><ele>589.0</ele><time>2026-05-01T10:36:29Z</time></trkpt><trkpt lat="44.88188163993014" lon="9.449883513432649"><ele>589.0</ele><time>2026-05-01T10:36:30Z</time></trkpt><trkpt lat="44.88178814760441" lon="9.449791708789208"><ele>589.0</ele><time>2026-05-01T10:36:31Z</time></trkpt><trkpt lat="44.881694501958165" lon="9.449696532844102"><ele>586.8</ele><time>2026-05-01T10:36:32Z</time></trkpt><trkpt lat="44.881600102071886" lon="9.449596374469381"><ele>584.5999999999999</ele><time>2026-05-01T10:36:33Z</time></trkpt><trkpt lat="44.881501702201035" lon="9.449516655411328"><ele>582.4</ele><time>2026-05-01T10:36:34Z</time></trkpt><trkpt lat="44.88140797740609" lon="9.44946244781344"><ele>580.1999999999999</ele><time>2026-05-01T10:36:35Z</time></trkpt><trkpt lat="44.88132027106341" lon="9.449415046972065"><ele>578.0</ele><time>2026-05-01T10:36:36Z</time></trkpt><trkpt lat="44.88123583786711" lon="9.449349179074744"><ele>578.0</ele><time>2026-05-01T10:36:37Z</time></trkpt><trkpt lat="44.88115386983677" lon="9.449269316391156"><ele>578.0</ele><time>2026-05-01T10:36:38Z</time></trkpt><trkpt lat="44.881077807915894" lon="9.449190888402873"><ele>578.0</ele><time>2026-05-01T10:36:39Z</time></trkpt><trkpt lat="44.8810039008506" lon="9.449135880173488"><ele>578.0</ele><time>2026-05-01T10:36:40Z</time></trkpt><trkpt lat="44.88095155822794" lon="9.449045064585187"><ele>578.0</ele><time>2026-05-01T10:36:41Z</time></trkpt><trkpt lat="44.88089193871193" lon="9.448922022873745"><ele>574.5</ele><time>2026-05-01T10:36:42Z</time></trkpt><trkpt lat="44.8808251179821" lon="9.448790535641999"><ele>571.0</ele><time>2026-05-01T10:36:43Z</time></trkpt><trkpt lat="44.88076114664284" lon="9.448653199784072"><ele>567.5</ele><time>2026-05-01T10:36:44Z</time></trkpt><trkpt lat="44.88065434816202" lon="9.448561308285313"><ele>564.0</ele><time>2026-05-01T10:36:45Z</time></trkpt><trkpt lat="44.880560905924845" lon="9.448455215626014"><ele>564.0</ele><time>2026-05-01T10:36:46Z</time></trkpt><trkpt lat="44.88046754872958" lon="9.448378819544246"><ele>564.0</ele><time>2026-05-01T10:36:47Z</time></trkpt><trkpt lat="44.88037728440068" lon="9.448328632331457"><ele>564.0</ele><time>2026-05-01T10:36:48Z</time></trkpt><trkpt lat="44.880258154086604" lon="9.448321532911644"><ele>564.0</ele><time>2026-05-01T10:36:49Z</time></trkpt><trkpt lat="44.88013227792802" lon="9.448335486388265"><ele>562.4</ele><time>2026-05-01T10:36:50Z</time></trkpt><trkpt lat="44.88002638779283" lon="9.448321693443228"><ele>560.8</ele><time>2026-05-01T10:36:51Z</time></trkpt><trkpt lat="44.879934603264495" lon="9.448285212694374"><ele>559.2</ele><time>2026-05-01T10:36:52Z</time></trkpt><trkpt lat="44.87983948348078" lon="9.44826438830413"><ele>557.6</ele><time>2026-05-01T10:36:53Z</time></trkpt><trkpt lat="44.87974828193087" lon="9.448250420572748"><ele>556.0</ele><time>2026-05-01T10:36:54Z</time></trkpt><trkpt lat="44.879660376504134" lon="9.448237164579957"><ele>556.0</ele><time>2026-05-01T10:36:55Z</time></trkpt><trkpt lat="44.879574466924815" lon="9.448208575102807"><ele>556.0</ele><time>2026-05-01T10:36:56Z</time></trkpt><trkpt lat="44.87948674740552" lon="9.448170922562058"><ele>556.0</ele><time>2026-05-01T10:36:57Z</time></trkpt><trkpt lat="44.87940041129973" lon="9.44811526145804"><ele>556.0</ele><time>2026-05-01T10:36:58Z</time></trkpt><trkpt lat="44.87930581961045" lon="9.44808695568189"><ele>556.0</ele><time>2026-05-01T10:36:59Z</time></trkpt><trkpt lat="44.87920453612276" lon="9.448122346544096"><ele>553.8</ele><time>2026-05-01T10:37:00Z</time></trkpt><trkpt lat="44.879105971730944" lon="9.448122565040936"><ele>551.6</ele><time>2026-05-01T10:37:01Z</time></trkpt><trkpt lat="44.879011306946914" lon="9.448126971460637"><ele>549.4</ele><time>2026-05-01T10:37:02Z</time></trkpt><trkpt lat="44.87891723420929" lon="9.448123461520058"><ele>547.2</ele><time>2026-05-01T10:37:03Z</time></trkpt><trkpt lat="44.87882343201653" lon="9.448073491292169"><ele>545.0</ele><time>2026-05-01T10:37:04Z</time></trkpt><trkpt lat="44.87872813411367" lon="9.448046564821274"><ele>545.0</ele><time>2026-05-01T10:37:05Z</time></trkpt><trkpt lat="44.87863095176675" lon="9.448014891951553"><ele>545.0</ele><time>2026-05-01T10:37:06Z</time></trkpt><trkpt lat="44.878527728883086" lon="9.448019063816668"><ele>545.0</ele><time>2026-05-01T10:37:07Z</time></trkpt><trkpt lat="44.87843912264188" lon="9.44801250438195"><ele>545.0</ele><time>2026-05-01T10:37:08Z</time></trkpt><trkpt lat="44.878365792367916" lon="9.448006702756222"><ele>545.0</ele><time>2026-05-01T10:37:09Z</time></trkpt><trkpt lat="44.87828611415164" lon="9.447997477297534"><ele>545.0</ele><time>2026-05-01T10:37:10Z</time></trkpt><trkpt lat="44.878206540711254" lon="9.447980768465241"><ele>544.7142857142858</ele><time>2026-05-01T10:37:11Z</time></trkpt><trkpt lat="44.878124967314484" lon="9.447960002762883"><ele>544.4285714285714</ele><time>2026-05-01T10:37:12Z</time></trkpt><trkpt lat="44.878048663334695" lon="9.447932894366138"><ele>544.1428571428571</ele><time>2026-05-01T10:37:13Z</time></trkpt><trkpt lat="44.8779885107484" lon="9.447891792792662"><ele>543.8571428571429</ele><time>2026-05-01T10:37:14Z</time></trkpt><trkpt lat="44.87793898499505" lon="9.447829223659458"><ele>543.5714285714286</ele><time>2026-05-01T10:37:15Z</time></trkpt><trkpt lat="44.87790024143745" lon="9.447741751631945"><ele>543.2857142857143</ele><time>2026-05-01T10:37:16Z</time></trkpt><trkpt lat="44.877855755814394" lon="9.447665142613378"><ele>543.0</ele><time>2026-05-01T10:37:17Z</time></trkpt><trkpt lat="44.87777415194912" lon="9.447568019373689"><ele>543.0</ele><time>2026-05-01T10:37:19Z</time></trkpt><trkpt lat="44.87767397360123" lon="9.447593024290292"><ele>543.0</ele><time>2026-05-01T10:37:21Z</time></trkpt><trkpt lat="44.87765381756495" lon="9.447694236611449"><ele>543.0</ele><time>2026-05-01T10:37:22Z</time></trkpt><trkpt lat="44.877583372314824" lon="9.447760864072057"><ele>543.0</ele><time>2026-05-01T10:37:24Z</time></trkpt><trkpt lat="44.877524432751585" lon="9.447701951028124"><ele>543.0</ele><time>2026-05-01T10:37:25Z</time></trkpt><trkpt lat="44.87744121888224" lon="9.44767546710955"><ele>543.0</ele><time>2026-05-01T10:37:26Z</time></trkpt><trkpt lat="44.87734862033157" lon="9.447642270057687"><ele>540.3333333333334</ele><time>2026-05-01T10:37:27Z</time></trkpt><trkpt lat="44.877256358277634" lon="9.447612047609033"><ele>537.6666666666666</ele><time>2026-05-01T10:37:28Z</time></trkpt><trkpt lat="44.87716996040185" lon="9.447585529417514"><ele>535.0</ele><time>2026-05-01T10:37:29Z</time></trkpt><trkpt lat="44.877092040853725" lon="9.447581547697522"><ele>532.3333333333333</ele><time>2026-05-01T10:37:30Z</time></trkpt><trkpt lat="44.87702123192069" lon="9.447593094065247"><ele>529.6666666666666</ele><time>2026-05-01T10:37:31Z</time></trkpt><trkpt lat="44.876963697725486" lon="9.447640109396714"><ele>527.0</ele><time>2026-05-01T10:37:32Z</time></trkpt><trkpt lat="44.87693216509288" lon="9.447735506978885"><ele>527.0</ele><time>2026-05-01T10:37:33Z</time></trkpt><trkpt lat="44.87690214163405" lon="9.447827911009414"><ele>527.0</ele><time>2026-05-01T10:37:34Z</time></trkpt><trkpt lat="44.87686050700401" lon="9.447896613406911"><ele>527.0</ele><time>2026-05-01T10:37:35Z</time></trkpt><trkpt lat="44.87681487656822" lon="9.448071322259668"><ele>527.0</ele><time>2026-05-01T10:37:37Z</time></trkpt><trkpt lat="44.876766135345534" lon="9.448165478164135"><ele>527.0</ele><time>2026-05-01T10:37:38Z</time></trkpt><trkpt lat="44.87672667555466" lon="9.448280013423625"><ele>527.0</ele><time>2026-05-01T10:37:39Z</time></trkpt><trkpt lat="44.87669655793157" lon="9.448419939636684"><ele>522.2</ele><time>2026-05-01T10:37:40Z</time></trkpt><trkpt lat="44.87664919406215" lon="9.448552897261356"><ele>517.4000000000001</ele><time>2026-05-01T10:37:41Z</time></trkpt><trkpt lat="44.87658637567507" lon="9.448681343245354"><ele>512.5999999999999</ele><time>2026-05-01T10:37:42Z</time></trkpt><trkpt lat="44.87653755498346" lon="9.44881286861044"><ele>507.79999999999995</ele><time>2026-05-01T10:37:43Z</time></trkpt><trkpt lat="44.876475344033096" lon="9.448913662928282"><ele>503.0</ele><time>2026-05-01T10:37:44Z</time></trkpt><trkpt lat="44.87640211886995" lon="9.44899236313983"><ele>501.0</ele><time>2026-05-01T10:37:45Z</time></trkpt><trkpt lat="44.87631948648573" lon="9.449040531938104"><ele>498.99999999999994</ele><time>2026-05-01T10:37:46Z</time></trkpt><trkpt lat="44.87622235399398" lon="9.449081771793205"><ele>496.99999999999994</ele><time>2026-05-01T10:37:47Z</time></trkpt><trkpt lat="44.87612396615373" lon="9.449139027324758"><ele>495.0</ele><time>2026-05-01T10:37:48Z</time></trkpt><trkpt lat="44.87604439608488" lon="9.449230132841066"><ele>493.0</ele><time>2026-05-01T10:37:49Z</time></trkpt><trkpt lat="44.87599622684702" lon="9.449337545349682"><ele>492.00000000000006</ele><time>2026-05-01T10:37:50Z</time></trkpt><trkpt lat="44.87593619344263" lon="9.449406958801214"><ele>491.0</ele><time>2026-05-01T10:37:51Z</time></trkpt><trkpt lat="44.87589080041472" lon="9.449483427976702"><ele>490.0</ele><time>2026-05-01T10:37:52Z</time></trkpt><trkpt lat="44.87585024868717" lon="9.449553764989696"><ele>489.0</ele><time>2026-05-01T10:37:53Z</time></trkpt><trkpt lat="44.8757781501988" lon="9.449684580023975"><ele>488.00000000000006</ele><time>2026-05-01T10:37:55Z</time></trkpt><trkpt lat="44.8757371646438" lon="9.44980122295194"><ele>487.0</ele><time>2026-05-01T10:37:57Z</time></trkpt><trkpt lat="44.87571079173386" lon="9.449905741547745"><ele>486.40000000000003</ele><time>2026-05-01T10:38:00Z</time></trkpt><trkpt lat="44.87579568274662" lon="9.44999098309915"><ele>485.80000000000007</ele><time>2026-05-01T10:38:03Z</time></trkpt><trkpt lat="44.875892408517906" lon="9.450029232220714"><ele>485.2</ele><time>2026-05-01T10:38:04Z</time></trkpt><trkpt lat="44.87599266028331" lon="9.450057787941274"><ele>484.6</ele><time>2026-05-01T10:38:05Z</time></trkpt><trkpt lat="44.87608349625842" lon="9.450097833233507"><ele>484.0</ele><time>2026-05-01T10:38:06Z</time></trkpt><trkpt lat="44.87615694013079" lon="9.450134407363533"><ele>484.0</ele><time>2026-05-01T10:38:07Z</time></trkpt><trkpt lat="44.87623185426975" lon="9.450221997636437"><ele>484.0</ele><time>2026-05-01T10:38:09Z</time></trkpt><trkpt lat="44.876239629916014" lon="9.450366103119087"><ele>484.0</ele><time>2026-05-01T10:38:12Z</time></trkpt><trkpt lat="44.87622156988376" lon="9.450548379235759"><ele>484.0</ele><time>2026-05-01T10:38:14Z</time></trkpt><trkpt lat="44.87622735094517" lon="9.450657902295466"><ele>484.0</ele><time>2026-05-01T10:38:15Z</time></trkpt><trkpt lat="44.87620937655764" lon="9.450761269276983"><ele>482.71428571428567</ele><time>2026-05-01T10:38:16Z</time></trkpt><trkpt lat="44.876206153978934" lon="9.450864421642907"><ele>481.4285714285714</ele><time>2026-05-01T10:38:17Z</time></trkpt><trkpt lat="44.87620615397681" lon="9.45096418769787"><ele>480.1428571428571</ele><time>2026-05-01T10:38:18Z</time></trkpt><trkpt lat="44.876209882673244" lon="9.45106690000466"><ele>478.8571428571429</ele><time>2026-05-01T10:38:19Z</time></trkpt><trkpt lat="44.87622661492385" lon="9.45116516687434"><ele>477.5714285714286</ele><time>2026-05-01T10:38:20Z</time></trkpt><trkpt lat="44.87624657076676" lon="9.451262659239"><ele>476.28571428571433</ele><time>2026-05-01T10:38:21Z</time></trkpt><trkpt lat="44.87625602867781" lon="9.45136722746009"><ele>475.0</ele><time>2026-05-01T10:38:22Z</time></trkpt><trkpt lat="44.876270961798774" lon="9.451465024631542"><ele>473.8571428571429</ele><time>2026-05-01T10:38:23Z</time></trkpt><trkpt lat="44.87628385453783" lon="9.451568282149582"><ele>472.7142857142858</ele><time>2026-05-01T10:38:24Z</time></trkpt><trkpt lat="44.876271419857396" lon="9.451673695732962"><ele>471.57142857142856</ele><time>2026-05-01T10:38:25Z</time></trkpt><trkpt lat="44.87627399034869" lon="9.45177164528246"><ele>470.42857142857144</ele><time>2026-05-01T10:38:26Z</time></trkpt><trkpt lat="44.87628634317981" lon="9.451885318663749"><ele>469.2857142857143</ele><time>2026-05-01T10:38:27Z</time></trkpt><trkpt lat="44.87631677022979" lon="9.45196970383211"><ele>468.1428571428571</ele><time>2026-05-01T10:38:28Z</time></trkpt><trkpt lat="44.87632847740187" lon="9.452075939607628"><ele>466.99999999999994</ele><time>2026-05-01T10:38:29Z</time></trkpt><trkpt lat="44.87636576738067" lon="9.452167822710145"><ele>465.6</ele><time>2026-05-01T10:38:30Z</time></trkpt><trkpt lat="44.87640604410263" lon="9.452290675830458"><ele>464.20000000000005</ele><time>2026-05-01T10:38:32Z</time></trkpt><trkpt lat="44.87631005393733" lon="9.45244191603504"><ele>462.8</ele><time>2026-05-01T10:38:35Z</time></trkpt><trkpt lat="44.87624240785188" lon="9.4525609005241"><ele>461.4</ele><time>2026-05-01T10:38:37Z</time></trkpt><trkpt lat="44.876234684192454" lon="9.45265912450228"><ele>460.0</ele><time>2026-05-01T10:38:38Z</time></trkpt><trkpt lat="44.87621372364607" lon="9.452758044258818"><ele>460.0</ele><time>2026-05-01T10:38:39Z</time></trkpt><trkpt lat="44.876229973585446" lon="9.452892882005123"><ele>460.0</ele><time>2026-05-01T10:38:41Z</time></trkpt><trkpt lat="44.87632262448836" lon="9.452979892740435"><ele>460.0</ele><time>2026-05-01T10:38:44Z</time></trkpt><trkpt lat="44.87641316321603" lon="9.45303203012714"><ele>460.0</ele><time>2026-05-01T10:38:46Z</time></trkpt><trkpt lat="44.87647364666679" lon="9.45306352206064"><ele>460.0</ele><time>2026-05-01T10:38:48Z</time></trkpt><trkpt lat="44.876546745994695" lon="9.453120429839007"><ele>460.6</ele><time>2026-05-01T10:38:51Z</time></trkpt><trkpt lat="44.87660204047502" lon="9.453184102963192"><ele>461.2</ele><time>2026-05-01T10:38:53Z</time></trkpt><trkpt lat="44.87667957386632" lon="9.453318822917643"><ele>461.79999999999995</ele><time>2026-05-01T10:38:55Z</time></trkpt><trkpt lat="44.876706902073266" lon="9.453481291611942"><ele>462.4</ele><time>2026-05-01T10:38:57Z</time></trkpt><trkpt lat="44.876750578553555" lon="9.453561648381678"><ele>463.0</ele><time>2026-05-01T10:39:19Z</time></trkpt><trkpt lat="44.87682459728103" lon="9.453722428553554"><ele>461.1666666666667</ele><time>2026-05-01T10:39:21Z</time></trkpt><trkpt lat="44.87686737745545" lon="9.45382316246646"><ele>459.33333333333337</ele><time>2026-05-01T10:39:22Z</time></trkpt><trkpt lat="44.87691851458357" lon="9.453933122639778"><ele>457.5</ele><time>2026-05-01T10:39:23Z</time></trkpt><trkpt lat="44.876974754810846" lon="9.454052035585942"><ele>455.66666666666663</ele><time>2026-05-01T10:39:24Z</time></trkpt><trkpt lat="44.87701535559765" lon="9.454157942763821"><ele>453.8333333333333</ele><time>2026-05-01T10:39:25Z</time></trkpt><trkpt lat="44.87703924002582" lon="9.454266397137916"><ele>452.0</ele><time>2026-05-01T10:39:26Z</time></trkpt><trkpt lat="44.877044071637386" lon="9.454360575080715"><ele>452.0</ele><time>2026-05-01T10:39:27Z</time></trkpt><trkpt lat="44.877051107444046" lon="9.454466455874488"><ele>452.00000000000006</ele><time>2026-05-01T10:39:28Z</time></trkpt><trkpt lat="44.87705379017512" lon="9.45458409472508"><ele>452.00000000000006</ele><time>2026-05-01T10:39:29Z</time></trkpt><trkpt lat="44.87705049573629" lon="9.45473663617682"><ele>452.0</ele><time>2026-05-01T10:39:30Z</time></trkpt><trkpt lat="44.87705144243586" lon="9.45489087168633"><ele>452.0</ele><time>2026-05-01T10:39:31Z</time></trkpt><trkpt lat="44.87705182083099" lon="9.455039187679136"><ele>451.49999999999994</ele><time>2026-05-01T10:39:32Z</time></trkpt><trkpt lat="44.877053160314" lon="9.455164053846717"><ele>451.0</ele><time>2026-05-01T10:39:33Z</time></trkpt><trkpt lat="44.877057830255985" lon="9.455266960241628"><ele>450.5</ele><time>2026-05-01T10:39:34Z</time></trkpt><trkpt lat="44.87705777200394" lon="9.455360176424794"><ele>450.0</ele><time>2026-05-01T10:39:35Z</time></trkpt><trkpt lat="44.87707275283213" lon="9.455512830762837"><ele>449.49999999999994</ele><time>2026-05-01T10:39:37Z</time></trkpt><trkpt lat="44.87701402555699" lon="9.45563225635984"><ele>449.0</ele><time>2026-05-01T10:39:39Z</time></trkpt><trkpt lat="44.87689038506746" lon="9.455688458726515"><ele>448.66666666666663</ele><time>2026-05-01T10:39:41Z</time></trkpt><trkpt lat="44.87680514343397" lon="9.455709358477622"><ele>448.3333333333333</ele><time>2026-05-01T10:39:42Z</time></trkpt><trkpt lat="44.876739923177055" lon="9.455753373365042"><ele>448.0</ele><time>2026-05-01T10:39:43Z</time></trkpt><trkpt lat="44.876662136926235" lon="9.455786357859159"><ele>447.66666666666663</ele><time>2026-05-01T10:39:44Z</time></trkpt><trkpt lat="44.8765948493703" lon="9.455827012128934"><ele>447.3333333333333</ele><time>2026-05-01T10:39:45Z</time></trkpt><trkpt lat="44.87649563028477" lon="9.455911880926987"><ele>447.0</ele><time>2026-05-01T10:39:47Z</time></trkpt><trkpt lat="44.87642676588159" lon="9.456015501017902"><ele>448.25</ele><time>2026-05-01T10:39:49Z</time></trkpt><trkpt lat="44.87636848993787" lon="9.456148164890493"><ele>449.5</ele><time>2026-05-01T10:39:51Z</time></trkpt><trkpt lat="44.87636858373644" lon="9.456293712903866"><ele>450.75</ele><time>2026-05-01T10:39:53Z</time></trkpt><trkpt lat="44.876429543777746" lon="9.456429181829026"><ele>452.0</ele><time>2026-05-01T10:39:55Z</time></trkpt><trkpt lat="44.87648430236413" lon="9.456591189074869"><ele>452.0</ele><time>2026-05-01T10:39:57Z</time></trkpt><trkpt lat="44.8764890446962" lon="9.456766347280318"><ele>452.00000000000006</ele><time>2026-05-01T10:39:59Z</time></trkpt><trkpt lat="44.876452214111154" lon="9.456857761030264"><ele>452.00000000000006</ele><time>2026-05-01T10:40:01Z</time></trkpt><trkpt lat="44.87642488265215" lon="9.456950724638457"><ele>452.0</ele><time>2026-05-01T10:40:03Z</time></trkpt><trkpt lat="44.876421112901866" lon="9.457091730799197"><ele>452.0</ele><time>2026-05-01T10:40:05Z</time></trkpt><trkpt lat="44.87644750981825" lon="9.457249761866297"><ele>451.16666666666663</ele><time>2026-05-01T10:40:07Z</time></trkpt><trkpt lat="44.87645816880859" lon="9.457360374307214"><ele>450.3333333333333</ele><time>2026-05-01T10:40:08Z</time></trkpt><trkpt lat="44.87644870647605" lon="9.457490200326273"><ele>449.5</ele><time>2026-05-01T10:40:09Z</time></trkpt><trkpt lat="44.876420787443124" lon="9.457611592994182"><ele>448.66666666666663</ele><time>2026-05-01T10:40:10Z</time></trkpt><trkpt lat="44.876407040201684" lon="9.457711066810525"><ele>447.8333333333333</ele><time>2026-05-01T10:40:11Z</time></trkpt><trkpt lat="44.87643042858099" lon="9.457854641522752"><ele>447.0</ele><time>2026-05-01T10:40:12Z</time></trkpt><trkpt lat="44.87647319439013" lon="9.45801146254603"><ele>446.25</ele><time>2026-05-01T10:40:13Z</time></trkpt><trkpt lat="44.87650749688947" lon="9.458144239139726"><ele>445.5</ele><time>2026-05-01T10:40:14Z</time></trkpt><trkpt lat="44.87651667856947" lon="9.458291288512015"><ele>444.75</ele><time>2026-05-01T10:40:15Z</time></trkpt><trkpt lat="44.87653737870359" lon="9.458474933340208"><ele>444.0</ele><time>2026-05-01T10:40:16Z</time></trkpt><trkpt lat="44.87656343712809" lon="9.458637756659707"><ele>444.0</ele><time>2026-05-01T10:40:17Z</time></trkpt><trkpt lat="44.876586271679926" lon="9.458770922662088"><ele>444.0</ele><time>2026-05-01T10:40:18Z</time></trkpt><trkpt lat="44.87660419586557" lon="9.458927678618979"><ele>444.0</ele><time>2026-05-01T10:40:19Z</time></trkpt><trkpt lat="44.87661281902319" lon="9.459066173222782"><ele>444.0</ele><time>2026-05-01T10:40:20Z</time></trkpt><trkpt lat="44.87660330530407" lon="9.459213900856724"><ele>444.0</ele><time>2026-05-01T10:40:21Z</time></trkpt><trkpt lat="44.87658482432514" lon="9.459380254435379"><ele>444.0</ele><time>2026-05-01T10:40:22Z</time></trkpt><trkpt lat="44.87655274527955" lon="9.459523777895475"><ele>444.0</ele><time>2026-05-01T10:40:23Z</time></trkpt><trkpt lat="44.87653101272663" lon="9.459669063085245"><ele>444.0</ele><time>2026-05-01T10:40:24Z</time></trkpt><trkpt lat="44.87652227619107" lon="9.459789016797158"><ele>444.0</ele><time>2026-05-01T10:40:25Z</time></trkpt><trkpt lat="44.876528702155305" lon="9.459915880261303"><ele>444.0</ele><time>2026-05-01T10:40:26Z</time></trkpt><trkpt lat="44.876585266908855" lon="9.459990561930637"><ele>444.0</ele><time>2026-05-01T10:40:28Z</time></trkpt><trkpt lat="44.87667915514492" lon="9.460008502119022"><ele>444.0</ele><time>2026-05-01T10:40:30Z</time></trkpt><trkpt lat="44.87675997014053" lon="9.46000510560942"><ele>444.0</ele><time>2026-05-01T10:40:31Z</time></trkpt><trkpt lat="44.876850259611075" lon="9.459992694577727"><ele>444.0</ele><time>2026-05-01T10:40:32Z</time></trkpt><trkpt lat="44.87692898245508" lon="9.45998180624088"><ele>444.0</ele><time>2026-05-01T10:40:33Z</time></trkpt><trkpt lat="44.876991961715014" lon="9.459984964430005"><ele>444.0</ele><time>2026-05-01T10:40:34Z</time></trkpt><trkpt lat="44.877061817165306" lon="9.460078907393406"><ele>441.4</ele><time>2026-05-01T10:40:36Z</time></trkpt><trkpt lat="44.87707646052635" lon="9.460173445650161"><ele>438.79999999999995</ele><time>2026-05-01T10:40:37Z</time></trkpt><trkpt lat="44.877078765381086" lon="9.460299222292637"><ele>436.20000000000005</ele><time>2026-05-01T10:40:39Z</time></trkpt><trkpt lat="44.87704064886748" lon="9.460464309847946"><ele>433.6</ele><time>2026-05-01T10:40:51Z</time></trkpt><trkpt lat="44.87702639820277" lon="9.460635425070505"><ele>431.0</ele><time>2026-05-01T10:40:53Z</time></trkpt><trkpt lat="44.87702667576686" lon="9.460726057867634"><ele>431.0</ele><time>2026-05-01T10:40:54Z</time></trkpt><trkpt lat="44.87702649998191" lon="9.460821927143808"><ele>431.0</ele><time>2026-05-01T10:40:55Z</time></trkpt><trkpt lat="44.87702407427325" lon="9.460931172851488"><ele>431.0</ele><time>2026-05-01T10:40:56Z</time></trkpt><trkpt lat="44.87701838255894" lon="9.46103728974886"><ele>431.0</ele><time>2026-05-01T10:40:57Z</time></trkpt><trkpt lat="44.877002859935715" lon="9.461139986789806"><ele>431.0</ele><time>2026-05-01T10:40:58Z</time></trkpt><trkpt lat="44.87698750251764" lon="9.461236584784492"><ele>431.0</ele><time>2026-05-01T10:40:59Z</time></trkpt><trkpt lat="44.87696944574199" lon="9.461328458722251"><ele>431.0</ele><time>2026-05-01T10:41:00Z</time></trkpt><trkpt lat="44.87694774936469" lon="9.461421904093172"><ele>429.8</ele><time>2026-05-01T10:41:01Z</time></trkpt><trkpt lat="44.87694496056244" lon="9.46154031894768"><ele>428.6</ele><time>2026-05-01T10:41:03Z</time></trkpt><trkpt lat="44.87702757457236" lon="9.46160600740575"><ele>427.4</ele><time>2026-05-01T10:41:05Z</time></trkpt><trkpt lat="44.8771558147896" lon="9.461642405593766"><ele>426.2</ele><time>2026-05-01T10:41:07Z</time></trkpt><trkpt lat="44.877222569149104" lon="9.461670317886092"><ele>425.0</ele><time>2026-05-01T10:41:08Z</time></trkpt><trkpt lat="44.877291946695244" lon="9.461732028704786"><ele>424.99999999999994</ele><time>2026-05-01T10:41:09Z</time></trkpt><trkpt lat="44.87735705283381" lon="9.461785368535525"><ele>425.0</ele><time>2026-05-01T10:41:10Z</time></trkpt><trkpt lat="44.8774097188896" lon="9.461837364411535"><ele>425.0</ele><time>2026-05-01T10:41:11Z</time></trkpt><trkpt lat="44.877460095323784" lon="9.46189807240556"><ele>425.0</ele><time>2026-05-01T10:41:12Z</time></trkpt><trkpt lat="44.87753501345193" lon="9.462031237213159"><ele>424.99999999999994</ele><time>2026-05-01T10:41:14Z</time></trkpt><trkpt lat="44.87758092595531" lon="9.462169435281833"><ele>425.0</ele><time>2026-05-01T10:41:16Z</time></trkpt><trkpt lat="44.877575612313954" lon="9.462289471761004"><ele>424.6</ele><time>2026-05-01T10:41:18Z</time></trkpt><trkpt lat="44.87754814180413" lon="9.462389675893684"><ele>424.2</ele><time>2026-05-01T10:41:20Z</time></trkpt><trkpt lat="44.87761491478543" lon="9.462451838886487"><ele>423.79999999999995</ele><time>2026-05-01T10:41:34Z</time></trkpt><trkpt lat="44.87770239295737" lon="9.46248388888993"><ele>423.4</ele><time>2026-05-01T10:41:37Z</time></trkpt><trkpt lat="44.87778750573991" lon="9.462568843303282"><ele>423.0</ele><time>2026-05-01T10:41:39Z</time></trkpt><trkpt lat="44.877849841450775" lon="9.462694911376584"><ele>422.6666666666667</ele><time>2026-05-01T10:41:41Z</time></trkpt><trkpt lat="44.87785458925597" lon="9.462806734555905"><ele>422.33333333333337</ele><time>2026-05-01T10:41:44Z</time></trkpt><trkpt lat="44.877870559964286" lon="9.46289845367987"><ele>422.0</ele><time>2026-05-01T10:41:46Z</time></trkpt><trkpt lat="44.87791840295894" lon="9.463032293135782"><ele>421.6666666666667</ele><time>2026-05-01T10:41:48Z</time></trkpt><trkpt lat="44.87793266485859" lon="9.463153921249315"><ele>421.33333333333337</ele><time>2026-05-01T10:41:50Z</time></trkpt><trkpt lat="44.87793454482306" lon="9.46324969587844"><ele>421.0</ele><time>2026-05-01T10:41:52Z</time></trkpt><trkpt lat="44.87798004284837" lon="9.463323549954083"><ele>420.6666666666667</ele><time>2026-05-01T10:43:24Z</time></trkpt><trkpt lat="44.878009874786706" lon="9.46343203109028"><ele>420.33333333333337</ele><time>2026-05-01T10:43:28Z</time></trkpt><trkpt lat="44.87802035720562" lon="9.463559828704243"><ele>420.0</ele><time>2026-05-01T10:43:30Z</time></trkpt><trkpt lat="44.8780411031043" lon="9.463651247457252"><ele>419.66666666666663</ele><time>2026-05-01T10:46:07Z</time></trkpt><trkpt lat="44.878098454006974" lon="9.4637541197848"><ele>419.3333333333333</ele><time>2026-05-01T10:46:09Z</time></trkpt><trkpt lat="44.87816027503957" lon="9.463881621887897"><ele>419.0</ele><time>2026-05-01T10:46:11Z</time></trkpt><trkpt lat="44.87819382397461" lon="9.463963868614268"><ele>418.99999999999994</ele><time>2026-05-01T10:46:13Z</time></trkpt><trkpt lat="44.878250535167936" lon="9.464007452129739"><ele>419.0</ele><time>2026-05-01T10:50:40Z</time></trkpt><trkpt lat="44.87829375173588" lon="9.464140507505995"><ele>419.0</ele><time>2026-05-01T10:50:48Z</time></trkpt><trkpt lat="44.8782764617014" lon="9.464296724194755"><ele>419.0</ele><time>2026-05-01T10:50:50Z</time></trkpt><trkpt lat="44.87823851937158" lon="9.464378490041916"><ele>418.99999999999994</ele><time>2026-05-01T10:50:51Z</time></trkpt><trkpt lat="44.87819341981862" lon="9.464472851350482"><ele>419.0</ele><time>2026-05-01T10:50:52Z</time></trkpt><trkpt lat="44.87814090240283" lon="9.464602762329323"><ele>420.4</ele><time>2026-05-01T10:50:53Z</time></trkpt><trkpt lat="44.878058361668984" lon="9.464742945292835"><ele>421.79999999999995</ele><time>2026-05-01T10:50:54Z</time></trkpt><trkpt lat="44.87797096518532" lon="9.464877675088458"><ele>423.20000000000005</ele><time>2026-05-01T10:50:55Z</time></trkpt><trkpt lat="44.877916617112604" lon="9.464974577363428"><ele>424.6</ele><time>2026-05-01T10:50:56Z</time></trkpt><trkpt lat="44.87792860704566" lon="9.465082460083325"><ele>426.0</ele><time>2026-05-01T10:50:58Z</time></trkpt><trkpt lat="44.87796185712552" lon="9.465162167734565"><ele>426.0</ele><time>2026-05-01T10:50:59Z</time></trkpt><trkpt lat="44.877990900496464" lon="9.465298772656157"><ele>426.0</ele><time>2026-05-01T10:51:00Z</time></trkpt><trkpt lat="44.87801644638902" lon="9.465458066145697"><ele>426.0</ele><time>2026-05-01T10:51:01Z</time></trkpt><trkpt lat="44.87801782546083" lon="9.465593297728802"><ele>426.0</ele><time>2026-05-01T10:51:02Z</time></trkpt><trkpt lat="44.87799456565986" lon="9.465765964987549"><ele>426.0</ele><time>2026-05-01T10:51:03Z</time></trkpt><trkpt lat="44.877978420092845" lon="9.465899403408216"><ele>427.20000000000005</ele><time>2026-05-01T10:51:04Z</time></trkpt><trkpt lat="44.878032163989694" lon="9.466045362441898"><ele>428.40000000000003</ele><time>2026-05-01T10:51:06Z</time></trkpt><trkpt lat="44.878095813530805" lon="9.46608200342207"><ele>429.6</ele><time>2026-05-01T10:51:07Z</time></trkpt><trkpt lat="44.87818294784715" lon="9.466109816490487"><ele>430.8</ele><time>2026-05-01T10:51:08Z</time></trkpt><trkpt lat="44.87828413202082" lon="9.466138332267866"><ele>432.0</ele><time>2026-05-01T10:51:09Z</time></trkpt><trkpt lat="44.87839226884291" lon="9.466181595898458"><ele>435.1666666666667</ele><time>2026-05-01T10:51:10Z</time></trkpt><trkpt lat="44.87848957756481" lon="9.466233535122905"><ele>438.33333333333337</ele><time>2026-05-01T10:51:11Z</time></trkpt><trkpt lat="44.878561850386276" lon="9.466299359618107"><ele>441.5</ele><time>2026-05-01T10:51:12Z</time></trkpt><trkpt lat="44.87860399276533" lon="9.466380540249578"><ele>444.6666666666667</ele><time>2026-05-01T10:51:13Z</time></trkpt><trkpt lat="44.878610723229095" lon="9.466487255342221"><ele>447.83333333333337</ele><time>2026-05-01T10:51:14Z</time></trkpt><trkpt lat="44.878591789766894" lon="9.466617651523105"><ele>451.0</ele><time>2026-05-01T10:51:15Z</time></trkpt><trkpt lat="44.87856667892435" lon="9.466769499205432"><ele>449.4</ele><time>2026-05-01T10:51:16Z</time></trkpt><trkpt lat="44.87853208141558" lon="9.466922392751126"><ele>447.8</ele><time>2026-05-01T10:51:17Z</time></trkpt><trkpt lat="44.87847758802207" lon="9.467054648721001"><ele>446.19999999999993</ele><time>2026-05-01T10:51:18Z</time></trkpt><trkpt lat="44.878414655646814" lon="9.46718119888562"><ele>444.59999999999997</ele><time>2026-05-01T10:51:19Z</time></trkpt><trkpt lat="44.878373949812826" lon="9.467281380328762"><ele>443.0</ele><time>2026-05-01T10:51:20Z</time></trkpt><trkpt lat="44.878360385832366" lon="9.467368153078299"><ele>442.99999999999994</ele><time>2026-05-01T10:51:21Z</time></trkpt><trkpt lat="44.87837033721498" lon="9.467458044965639"><ele>443.0</ele><time>2026-05-01T10:51:22Z</time></trkpt><trkpt lat="44.87838587266783" lon="9.467560233481029"><ele>443.0</ele><time>2026-05-01T10:51:23Z</time></trkpt><trkpt lat="44.87837876337603" lon="9.467661353350428"><ele>443.0</ele><time>2026-05-01T10:51:24Z</time></trkpt><trkpt lat="44.87834253597101" lon="9.467794272964776"><ele>442.99999999999994</ele><time>2026-05-01T10:51:26Z</time></trkpt><trkpt lat="44.878340392126155" lon="9.467946246864589"><ele>443.0</ele><time>2026-05-01T10:51:28Z</time></trkpt><trkpt lat="44.878354415780606" lon="9.468120220277283"><ele>442.66666666666663</ele><time>2026-05-01T10:51:30Z</time></trkpt><trkpt lat="44.87835958567981" lon="9.468215821672517"><ele>442.3333333333333</ele><time>2026-05-01T10:51:31Z</time></trkpt><trkpt lat="44.87836784213102" lon="9.468312407132201"><ele>442.0</ele><time>2026-05-01T10:51:32Z</time></trkpt><trkpt lat="44.87837700642558" lon="9.4684104045376"><ele>441.66666666666663</ele><time>2026-05-01T10:51:33Z</time></trkpt><trkpt lat="44.8783904597129" lon="9.468566060598201"><ele>441.3333333333333</ele><time>2026-05-01T10:51:35Z</time></trkpt><trkpt lat="44.87840347156227" lon="9.468722077122262"><ele>441.0</ele><time>2026-05-01T10:51:37Z</time></trkpt><trkpt lat="44.878426710322024" lon="9.468865349779124"><ele>444.6666666666667</ele><time>2026-05-01T10:51:39Z</time></trkpt><trkpt lat="44.87848168931154" lon="9.469039258350138"><ele>448.33333333333337</ele><time>2026-05-01T10:51:41Z</time></trkpt><trkpt lat="44.87852998980387" lon="9.469139939362993"><ele>452.0</ele><time>2026-05-01T10:51:42Z</time></trkpt><trkpt lat="44.87856047594606" lon="9.469228443240342"><ele>455.6666666666667</ele><time>2026-05-01T10:51:43Z</time></trkpt><trkpt lat="44.878561536636546" lon="9.469322250537573"><ele>459.33333333333337</ele><time>2026-05-01T10:51:44Z</time></trkpt><trkpt lat="44.87853950515576" lon="9.469408830727982"><ele>463.0</ele><time>2026-05-01T10:51:45Z</time></trkpt><trkpt lat="44.878474932905355" lon="9.469479155217396"><ele>457.79999999999995</ele><time>2026-05-01T10:51:46Z</time></trkpt><trkpt lat="44.878372317540574" lon="9.469549812282184"><ele>452.59999999999997</ele><time>2026-05-01T10:51:47Z</time></trkpt><trkpt lat="44.87827492326079" lon="9.469627793314928"><ele>447.40000000000003</ele><time>2026-05-01T10:51:48Z</time></trkpt><trkpt lat="44.87821313381133" lon="9.469712529038159"><ele>442.20000000000005</ele><time>2026-05-01T10:51:49Z</time></trkpt><trkpt lat="44.8781711876986" lon="9.469795336218342"><ele>437.0</ele><time>2026-05-01T10:51:50Z</time></trkpt><trkpt lat="44.87817211583551" lon="9.469998482045934"><ele>437.0</ele><time>2026-05-01T10:51:52Z</time></trkpt><trkpt lat="44.878194811759876" lon="9.470138027265705"><ele>437.0</ele><time>2026-05-01T10:51:53Z</time></trkpt><trkpt lat="44.87821487199605" lon="9.470290286614551"><ele>437.0</ele><time>2026-05-01T10:51:54Z</time></trkpt><trkpt lat="44.878240478148285" lon="9.470470935882894"><ele>437.0</ele><time>2026-05-01T10:51:55Z</time></trkpt><trkpt lat="44.87827616603796" lon="9.47065937365715"><ele>435.25</ele><time>2026-05-01T10:51:56Z</time></trkpt><trkpt lat="44.8783108810793" lon="9.470862261072655"><ele>433.5</ele><time>2026-05-01T10:51:57Z</time></trkpt><trkpt lat="44.8783448713131" lon="9.471046588459089"><ele>431.75</ele><time>2026-05-01T10:51:58Z</time></trkpt><trkpt lat="44.878377000072845" lon="9.471218023799336"><ele>430.0</ele><time>2026-05-01T10:51:59Z</time></trkpt><trkpt lat="44.87841009877753" lon="9.471376889992298"><ele>436.2</ele><time>2026-05-01T10:52:00Z</time></trkpt><trkpt lat="44.87844714748641" lon="9.47151197652099"><ele>442.4</ele><time>2026-05-01T10:52:01Z</time></trkpt><trkpt lat="44.87848550532025" lon="9.471644514906737"><ele>448.6</ele><time>2026-05-01T10:52:02Z</time></trkpt><trkpt lat="44.87852867830234" lon="9.47177726932235"><ele>454.8</ele><time>2026-05-01T10:52:03Z</time></trkpt><trkpt lat="44.87856547352159" lon="9.471897954430744"><ele>461.0</ele><time>2026-05-01T10:52:04Z</time></trkpt><trkpt lat="44.87861828955549" lon="9.472011848675269"><ele>460.99999999999994</ele><time>2026-05-01T10:52:05Z</time></trkpt><trkpt lat="44.878675053278116" lon="9.472102837327196"><ele>461.0</ele><time>2026-05-01T10:52:06Z</time></trkpt><trkpt lat="44.878732793673095" lon="9.472172290605652"><ele>461.0</ele><time>2026-05-01T10:52:07Z</time></trkpt><trkpt lat="44.87878000433104" lon="9.472257271907585"><ele>461.0</ele><time>2026-05-01T10:52:08Z</time></trkpt><trkpt lat="44.87879419766702" lon="9.472379375137201"><ele>460.99999999999994</ele><time>2026-05-01T10:52:09Z</time></trkpt><trkpt lat="44.878780355296726" lon="9.472512522922505"><ele>461.0</ele><time>2026-05-01T10:52:10Z</time></trkpt><trkpt lat="44.87875497101563" lon="9.472610132968985"><ele>458.49999999999994</ele><time>2026-05-01T10:52:11Z</time></trkpt><trkpt lat="44.87870598244389" lon="9.472704333017909"><ele>456.0</ele><time>2026-05-01T10:52:12Z</time></trkpt><trkpt lat="44.87862321052871" lon="9.472799249500005"><ele>453.5</ele><time>2026-05-01T10:52:13Z</time></trkpt><trkpt lat="44.878548831549814" lon="9.472872495842653"><ele>451.0</ele><time>2026-05-01T10:52:14Z</time></trkpt><trkpt lat="44.8785046905254" lon="9.472947457471639"><ele>448.49999999999994</ele><time>2026-05-01T10:52:15Z</time></trkpt><trkpt lat="44.87847899854366" lon="9.473036837597988"><ele>446.0</ele><time>2026-05-01T10:52:16Z</time></trkpt><trkpt lat="44.87846879132302" lon="9.473136726972541"><ele>445.20000000000005</ele><time>2026-05-01T10:52:17Z</time></trkpt><trkpt lat="44.878476983624054" lon="9.473237874598857"><ele>444.40000000000003</ele><time>2026-05-01T10:52:18Z</time></trkpt><trkpt lat="44.878514759381595" lon="9.473367964801872"><ele>443.6</ele><time>2026-05-01T10:52:19Z</time></trkpt><trkpt lat="44.878543669128135" lon="9.47349216925867"><ele>442.8</ele><time>2026-05-01T10:52:20Z</time></trkpt><trkpt lat="44.878548948258036" lon="9.473637321544144"><ele>442.0</ele><time>2026-05-01T10:52:21Z</time></trkpt><trkpt lat="44.878521028126805" lon="9.47378381496573"><ele>440.0</ele><time>2026-05-01T10:52:22Z</time></trkpt><trkpt lat="44.878488238064996" lon="9.473918929701545"><ele>438.00000000000006</ele><time>2026-05-01T10:52:23Z</time></trkpt><trkpt lat="44.87846136264662" lon="9.474046330633927"><ele>436.00000000000006</ele><time>2026-05-01T10:52:24Z</time></trkpt><trkpt lat="44.8784421192566" lon="9.474170714204341"><ele>434.0</ele><time>2026-05-01T10:52:25Z</time></trkpt><trkpt lat="44.87842961594218" lon="9.474302777982802"><ele>432.0</ele><time>2026-05-01T10:52:26Z</time></trkpt><trkpt lat="44.87842236243433" lon="9.474430985327464"><ele>430.7142857142857</ele><time>2026-05-01T10:52:27Z</time></trkpt><trkpt lat="44.878424952606835" lon="9.474535274241"><ele>429.42857142857144</ele><time>2026-05-01T10:52:28Z</time></trkpt><trkpt lat="44.87844719774639" lon="9.474630331977709"><ele>428.1428571428571</ele><time>2026-05-01T10:52:29Z</time></trkpt><trkpt lat="44.87848025521018" lon="9.474714411150963"><ele>426.8571428571429</ele><time>2026-05-01T10:52:30Z</time></trkpt><trkpt lat="44.87852809836886" lon="9.474778832438503"><ele>425.5714285714286</ele><time>2026-05-01T10:52:31Z</time></trkpt><trkpt lat="44.87858596988544" lon="9.474828562963381"><ele>424.2857142857143</ele><time>2026-05-01T10:52:31.999Z</time></trkpt><trkpt lat="44.87865932264987" lon="9.474886641731715"><ele>423.0</ele><time>2026-05-01T10:52:32.999Z</time></trkpt><trkpt lat="44.87872443195502" lon="9.474965473296761"><ele>423.0</ele><time>2026-05-01T10:52:33.999Z</time></trkpt><trkpt lat="44.878774484061054" lon="9.475086562402144"><ele>423.0</ele><time>2026-05-01T10:52:34.999Z</time></trkpt><trkpt lat="44.8788045457538" lon="9.47522557116153"><ele>423.0</ele><time>2026-05-01T10:52:35.999Z</time></trkpt><trkpt lat="44.87883158724151" lon="9.475352713424199"><ele>423.0</ele><time>2026-05-01T10:52:36.999Z</time></trkpt><trkpt lat="44.87886743650443" lon="9.475479418204236"><ele>423.0</ele><time>2026-05-01T10:52:37.999Z</time></trkpt><trkpt lat="44.878886441177286" lon="9.475602655192521"><ele>422.0</ele><time>2026-05-01T10:52:38.999Z</time></trkpt><trkpt lat="44.878879104021394" lon="9.475728995022013"><ele>421.0</ele><time>2026-05-01T10:52:39.999Z</time></trkpt><trkpt lat="44.87884325800894" lon="9.475841702641931"><ele>420.0</ele><time>2026-05-01T10:52:40.999Z</time></trkpt><trkpt lat="44.878820393348285" lon="9.475939205605258"><ele>419.0</ele><time>2026-05-01T10:52:41.999Z</time></trkpt><trkpt lat="44.878810611206745" lon="9.476048027510837"><ele>418.0</ele><time>2026-05-01T10:52:42.999Z</time></trkpt><trkpt lat="44.87881441532128" lon="9.47615711776438"><ele>417.0</ele><time>2026-05-01T10:52:43.999Z</time></trkpt><trkpt lat="44.87883648103769" lon="9.476288046048166"><ele>414.8333333333333</ele><time>2026-05-01T10:52:44.999Z</time></trkpt><trkpt lat="44.87887918504581" lon="9.476406163772012"><ele>412.66666666666663</ele><time>2026-05-01T10:52:45.999Z</time></trkpt><trkpt lat="44.87892441315079" lon="9.476514753210525"><ele>410.5</ele><time>2026-05-01T10:52:46.999Z</time></trkpt><trkpt lat="44.878979569266185" lon="9.47659513126991"><ele>408.3333333333333</ele><time>2026-05-01T10:52:47.999Z</time></trkpt><trkpt lat="44.87904963354169" lon="9.476652170343167"><ele>406.16666666666663</ele><time>2026-05-01T10:52:48.999Z</time></trkpt><trkpt lat="44.8791321641933" lon="9.476674853007093"><ele>404.0</ele><time>2026-05-01T10:52:49.999Z</time></trkpt><trkpt lat="44.879214191937805" lon="9.47670137203989"><ele>403.99999999999994</ele><time>2026-05-01T10:52:50.999Z</time></trkpt><trkpt lat="44.87926655099323" lon="9.476769975184514"><ele>404.0</ele><time>2026-05-01T10:52:51.999Z</time></trkpt><trkpt lat="44.87929840666223" lon="9.476890045740843"><ele>404.0</ele><time>2026-05-01T10:52:52.999Z</time></trkpt><trkpt lat="44.87932158670196" lon="9.477031208678207"><ele>404.0</ele><time>2026-05-01T10:52:53.999Z</time></trkpt><trkpt lat="44.87936043376472" lon="9.477133996783692"><ele>403.99999999999994</ele><time>2026-05-01T10:52:54.999Z</time></trkpt><trkpt lat="44.87940992342212" lon="9.477223343189538"><ele>404.0</ele><time>2026-05-01T10:52:55.999Z</time></trkpt><trkpt lat="44.87947257647026" lon="9.477320519214523"><ele>404.6</ele><time>2026-05-01T10:52:56.999Z</time></trkpt><trkpt lat="44.87953991827023" lon="9.477411754075792"><ele>405.2</ele><time>2026-05-01T10:52:57.999Z</time></trkpt><trkpt lat="44.87960931113102" lon="9.477514533691583"><ele>405.8</ele><time>2026-05-01T10:52:58.999Z</time></trkpt><trkpt lat="44.87968892426617" lon="9.477618097455245"><ele>406.40000000000003</ele><time>2026-05-01T10:52:59.999Z</time></trkpt><trkpt lat="44.879761689294405" lon="9.477710700944028"><ele>407.0</ele><time>2026-05-01T10:53:01Z</time></trkpt><trkpt lat="44.87982217091586" lon="9.477792185367928"><ele>407.0</ele><time>2026-05-01T10:53:02Z</time></trkpt><trkpt lat="44.879870156221244" lon="9.477871775511263"><ele>407.0</ele><time>2026-05-01T10:53:03Z</time></trkpt><trkpt lat="44.879970107524066" lon="9.477963015955646"><ele>407.0</ele><time>2026-05-01T10:53:05Z</time></trkpt><trkpt lat="44.88004176596059" lon="9.477958482992445"><ele>407.0</ele><time>2026-05-01T10:53:06Z</time></trkpt><trkpt lat="44.88012504287276" lon="9.47793067208125"><ele>407.0</ele><time>2026-05-01T10:53:07Z</time></trkpt><trkpt lat="44.880224899045565" lon="9.47789694693785"><ele>408.0</ele><time>2026-05-01T10:53:08Z</time></trkpt><trkpt lat="44.880336944573095" lon="9.477886731761947"><ele>409.0</ele><time>2026-05-01T10:53:09Z</time></trkpt><trkpt lat="44.88045101167885" lon="9.47790123119713"><ele>410.0</ele><time>2026-05-01T10:53:10Z</time></trkpt><trkpt lat="44.880567236974606" lon="9.477930922990442"><ele>411.0</ele><time>2026-05-01T10:53:11Z</time></trkpt><trkpt lat="44.8806744070033" lon="9.477953099095348"><ele>408.5</ele><time>2026-05-01T10:53:12Z</time></trkpt><trkpt lat="44.88076696665012" lon="9.477975139497207"><ele>406.0</ele><time>2026-05-01T10:53:13Z</time></trkpt><trkpt lat="44.88084617778851" lon="9.478026319162375"><ele>403.5</ele><time>2026-05-01T10:53:14Z</time></trkpt><trkpt lat="44.88090252476126" lon="9.47809957025976"><ele>401.0</ele><time>2026-05-01T10:53:15Z</time></trkpt><trkpt lat="44.880927274402154" lon="9.47821073313418"><ele>398.5</ele><time>2026-05-01T10:53:16Z</time></trkpt><trkpt lat="44.88095930827723" lon="9.478293421294556"><ele>396.0</ele><time>2026-05-01T10:53:17Z</time></trkpt><trkpt lat="44.88108287825118" lon="9.478388175079223"><ele>396.0</ele><time>2026-05-01T10:53:19Z</time></trkpt><trkpt lat="44.88116145242179" lon="9.47845240740063"><ele>396.0</ele><time>2026-05-01T10:53:20Z</time></trkpt><trkpt lat="44.88123485026715" lon="9.478527741451156"><ele>396.0</ele><time>2026-05-01T10:53:21Z</time></trkpt><trkpt lat="44.881283916852354" lon="9.478602347739296"><ele>396.0</ele><time>2026-05-01T10:53:22Z</time></trkpt><trkpt lat="44.8813414684217" lon="9.478664304869735"><ele>396.0</ele><time>2026-05-01T10:53:23Z</time></trkpt><trkpt lat="44.8814195686019" lon="9.47870534175694"><ele>396.0</ele><time>2026-05-01T10:53:24Z</time></trkpt><trkpt lat="44.881523719420954" lon="9.478713224341679"><ele>396.0</ele><time>2026-05-01T10:53:25Z</time></trkpt><trkpt lat="44.881612258276064" lon="9.478742205503602"><ele>396.0</ele><time>2026-05-01T10:53:26Z</time></trkpt><trkpt lat="44.881692712996305" lon="9.478780792111872"><ele>396.0</ele><time>2026-05-01T10:53:27Z</time></trkpt><trkpt lat="44.88176813669454" lon="9.478819233047266"><ele>396.0</ele><time>2026-05-01T10:53:28Z</time></trkpt><trkpt lat="44.88184222812305" lon="9.4788737396356"><ele>396.0</ele><time>2026-05-01T10:53:29Z</time></trkpt><trkpt lat="44.881916296581664" lon="9.478940445442959"><ele>396.0</ele><time>2026-05-01T10:53:30Z</time></trkpt><trkpt lat="44.88198089833759" lon="9.478998852058666"><ele>392.8333333333333</ele><time>2026-05-01T10:53:31Z</time></trkpt><trkpt lat="44.88206287981468" lon="9.479084059437561"><ele>389.6666666666667</ele><time>2026-05-01T10:53:33Z</time></trkpt><trkpt lat="44.88212784283969" lon="9.479105795414332"><ele>386.5</ele><time>2026-05-01T10:53:36Z</time></trkpt><trkpt lat="44.88221815202071" lon="9.479107494518722"><ele>383.33333333333337</ele><time>2026-05-01T10:53:38Z</time></trkpt><trkpt lat="44.88228170444198" lon="9.479096803726867"><ele>380.1666666666667</ele><time>2026-05-01T10:53:39Z</time></trkpt><trkpt lat="44.88236572719635" lon="9.47909775208679"><ele>377.0</ele><time>2026-05-01T10:53:40Z</time></trkpt><trkpt lat="44.88245491699072" lon="9.47913401454141"><ele>377.0</ele><time>2026-05-01T10:53:41Z</time></trkpt><trkpt lat="44.88254678755101" lon="9.479219001937459"><ele>377.0</ele><time>2026-05-01T10:53:42Z</time></trkpt><trkpt lat="44.88264619447332" lon="9.479288039316545"><ele>377.0</ele><time>2026-05-01T10:53:43Z</time></trkpt><trkpt lat="44.88274192304305" lon="9.479327271968568"><ele>377.0</ele><time>2026-05-01T10:53:44Z</time></trkpt><trkpt lat="44.882837852353454" lon="9.479369745682531"><ele>377.0</ele><time>2026-05-01T10:53:45Z</time></trkpt><trkpt lat="44.88294625902083" lon="9.479392323124596"><ele>377.25</ele><time>2026-05-01T10:53:46Z</time></trkpt><trkpt lat="44.8830567087159" lon="9.47939476305295"><ele>377.5</ele><time>2026-05-01T10:53:47Z</time></trkpt><trkpt lat="44.88316383439053" lon="9.47942698297484"><ele>377.75</ele><time>2026-05-01T10:53:48Z</time></trkpt><trkpt lat="44.883262261531044" lon="9.479528062194888"><ele>378.0</ele><time>2026-05-01T10:53:49Z</time></trkpt><trkpt lat="44.88335463819191" lon="9.479609277807722"><ele>374.0</ele><time>2026-05-01T10:53:50Z</time></trkpt><trkpt lat="44.883464160134174" lon="9.479649238432948"><ele>370.0</ele><time>2026-05-01T10:53:51Z</time></trkpt><trkpt lat="44.883576508949346" lon="9.479668020893113"><ele>366.0</ele><time>2026-05-01T10:53:52Z</time></trkpt><trkpt lat="44.883689966002095" lon="9.479684343569373"><ele>362.0</ele><time>2026-05-01T10:53:53Z</time></trkpt><trkpt lat="44.88379613988829" lon="9.47969952245484"><ele>358.0</ele><time>2026-05-01T10:53:54Z</time></trkpt><trkpt lat="44.88388985892632" lon="9.479728647777154"><ele>358.0</ele><time>2026-05-01T10:53:55Z</time></trkpt><trkpt lat="44.88397201920887" lon="9.479800057599432"><ele>358.0</ele><time>2026-05-01T10:53:56Z</time></trkpt><trkpt lat="44.88403660502047" lon="9.479925198489594"><ele>358.0</ele><time>2026-05-01T10:53:57Z</time></trkpt><trkpt lat="44.884079255667984" lon="9.480104197126005"><ele>358.0</ele><time>2026-05-01T10:53:58Z</time></trkpt><trkpt lat="44.88412266685578" lon="9.480259990085413"><ele>358.0</ele><time>2026-05-01T10:53:59Z</time></trkpt><trkpt lat="44.88417111446273" lon="9.480379709683973"><ele>358.0</ele><time>2026-05-01T10:54:00Z</time></trkpt><trkpt lat="44.88421414936955" lon="9.480481655398597"><ele>358.0</ele><time>2026-05-01T10:54:01Z</time></trkpt><trkpt lat="44.88425414674503" lon="9.480583888942183"><ele>358.0</ele><time>2026-05-01T10:54:02Z</time></trkpt><trkpt lat="44.884289534924676" lon="9.480693405231522"><ele>358.0</ele><time>2026-05-01T10:54:03Z</time></trkpt><trkpt lat="44.884319308318" lon="9.480779364920235"><ele>358.0</ele><time>2026-05-01T10:54:04Z</time></trkpt><trkpt lat="44.88437741268917" lon="9.480913208441907"><ele>358.0</ele><time>2026-05-01T10:54:06Z</time></trkpt><trkpt lat="44.88441681573398" lon="9.481018518919935"><ele>358.0</ele><time>2026-05-01T10:54:08Z</time></trkpt><trkpt lat="44.88446605619916" lon="9.48112233228284"><ele>358.0</ele><time>2026-05-01T10:54:11Z</time></trkpt><trkpt lat="44.884519773699466" lon="9.481169594571893"><ele>358.0</ele><time>2026-05-01T10:54:13Z</time></trkpt><trkpt lat="44.884563043867686" lon="9.481258597537206"><ele>358.0</ele><time>2026-05-01T10:54:17Z</time></trkpt><trkpt lat="44.88463107604517" lon="9.481326065140896"><ele>358.0</ele><time>2026-05-01T10:54:20Z</time></trkpt><trkpt lat="44.88467779684241" lon="9.481400681093366"><ele>357.3333333333333</ele><time>2026-05-01T10:54:24Z</time></trkpt><trkpt lat="44.88472382153162" lon="9.481469727229571"><ele>356.66666666666663</ele><time>2026-05-01T10:54:53.999Z</time></trkpt><trkpt lat="44.88478296944106" lon="9.481556243273946"><ele>356.0</ele><time>2026-05-01T10:54:55.999Z</time></trkpt><trkpt lat="44.884850386507466" lon="9.481648929901898"><ele>355.3333333333333</ele><time>2026-05-01T10:54:57.999Z</time></trkpt><trkpt lat="44.88490644403947" lon="9.481738597918367"><ele>354.6666666666667</ele><time>2026-05-01T10:54:59.999Z</time></trkpt><trkpt lat="44.88495413075958" lon="9.481814915672704"><ele>354.0</ele><time>2026-05-01T10:55:01.999Z</time></trkpt><trkpt lat="44.88500901281385" lon="9.481885535771688"><ele>353.79999999999995</ele><time>2026-05-01T10:55:29.999Z</time></trkpt><trkpt lat="44.88511183301834" lon="9.482007195488059"><ele>353.59999999999997</ele><time>2026-05-01T10:55:31.999Z</time></trkpt><trkpt lat="44.88518887327413" lon="9.482064986803891"><ele>353.4</ele><time>2026-05-01T10:55:32.999Z</time></trkpt><trkpt lat="44.88527587955826" lon="9.482105523129121"><ele>353.2</ele><time>2026-05-01T10:55:33.999Z</time></trkpt><trkpt lat="44.885352429821495" lon="9.482118924886754"><ele>353.0</ele><time>2026-05-01T10:55:34.999Z</time></trkpt><trkpt lat="44.88542757747932" lon="9.482109225704484"><ele>354.2</ele><time>2026-05-01T10:55:35.999Z</time></trkpt><trkpt lat="44.88552376553824" lon="9.482082348787678"><ele>355.4</ele><time>2026-05-01T10:55:36.999Z</time></trkpt><trkpt lat="44.885630126405694" lon="9.482020419125424"><ele>356.59999999999997</ele><time>2026-05-01T10:55:37.999Z</time></trkpt><trkpt lat="44.885739491585156" lon="9.481941135214832"><ele>357.79999999999995</ele><time>2026-05-01T10:55:38.999Z</time></trkpt><trkpt lat="44.88583078487534" lon="9.481884928935688"><ele>359.0</ele><time>2026-05-01T10:55:39.999Z</time></trkpt><trkpt lat="44.885912032378975" lon="9.481860237769292"><ele>360.0</ele><time>2026-05-01T10:55:40.999Z</time></trkpt><trkpt lat="44.88597477642596" lon="9.481881321734347"><ele>361.0</ele><time>2026-05-01T10:55:41.999Z</time></trkpt><trkpt lat="44.88602183600085" lon="9.481950305887798"><ele>362.0</ele><time>2026-05-01T10:55:42.999Z</time></trkpt><trkpt lat="44.88604121759948" lon="9.482071455872346"><ele>363.0</ele><time>2026-05-01T10:55:43.999Z</time></trkpt><trkpt lat="44.88602301735765" lon="9.48222106167955"><ele>364.0</ele><time>2026-05-01T10:55:44.999Z</time></trkpt><trkpt lat="44.88600076726334" lon="9.482367490090681"><ele>365.0</ele><time>2026-05-01T10:55:45.999Z</time></trkpt><trkpt lat="44.886000113379666" lon="9.482492049000964"><ele>365.0</ele><time>2026-05-01T10:55:46.999Z</time></trkpt><trkpt lat="44.88603451614463" lon="9.482608767374193"><ele>365.0</ele><time>2026-05-01T10:55:47.999Z</time></trkpt><trkpt lat="44.8861155688077" lon="9.482716681155308"><ele>365.0</ele><time>2026-05-01T10:55:48.999Z</time></trkpt><trkpt lat="44.886223732694916" lon="9.482806886229726"><ele>365.0</ele><time>2026-05-01T10:55:49.999Z</time></trkpt><trkpt lat="44.88635347852876" lon="9.482880274293034"><ele>362.5</ele><time>2026-05-01T10:55:50.999Z</time></trkpt><trkpt lat="44.88646959536012" lon="9.482951905207013"><ele>360.0</ele><time>2026-05-01T10:55:51.999Z</time></trkpt><trkpt lat="44.8865713999305" lon="9.483039043323139"><ele>357.5</ele><time>2026-05-01T10:55:52.999Z</time></trkpt><trkpt lat="44.88667966537983" lon="9.483133680432905"><ele>355.0</ele><time>2026-05-01T10:55:53.999Z</time></trkpt><trkpt lat="44.886783551294094" lon="9.483228989563605"><ele>360.0</ele><time>2026-05-01T10:55:54.999Z</time></trkpt><trkpt lat="44.88688480341131" lon="9.483335686183116"><ele>365.0</ele><time>2026-05-01T10:55:55.999Z</time></trkpt><trkpt lat="44.886975283899346" lon="9.483434904178711"><ele>370.0</ele><time>2026-05-01T10:55:56.999Z</time></trkpt><trkpt lat="44.887039952666534" lon="9.483548180020533"><ele>375.0</ele><time>2026-05-01T10:55:57.999Z</time></trkpt><trkpt lat="44.88710176889876" lon="9.483693466757952"><ele>372.0</ele><time>2026-05-01T10:55:59Z</time></trkpt><trkpt lat="44.88714894155006" lon="9.483849571771682"><ele>369.0</ele><time>2026-05-01T10:56:00Z</time></trkpt><trkpt lat="44.887189877565234" lon="9.48399781480768"><ele>366.0</ele><time>2026-05-01T10:56:01Z</time></trkpt><trkpt lat="44.88722717695481" lon="9.484125358000718"><ele>363.0</ele><time>2026-05-01T10:56:02Z</time></trkpt><trkpt lat="44.88728286035368" lon="9.484229816935164"><ele>360.0</ele><time>2026-05-01T10:56:03Z</time></trkpt><trkpt lat="44.887365700147306" lon="9.48431501602203"><ele>360.0</ele><time>2026-05-01T10:56:04Z</time></trkpt><trkpt lat="44.88745793001784" lon="9.484390495402625"><ele>360.0</ele><time>2026-05-01T10:56:05Z</time></trkpt><trkpt lat="44.88756259633377" lon="9.484458283087697"><ele>360.0</ele><time>2026-05-01T10:56:06Z</time></trkpt><trkpt lat="44.88765357516933" lon="9.484550435881445"><ele>360.0</ele><time>2026-05-01T10:56:07Z</time></trkpt><trkpt lat="44.88773852777491" lon="9.484632738559158"><ele>360.0</ele><time>2026-05-01T10:56:08Z</time></trkpt><trkpt lat="44.887823392488244" lon="9.484690340875177"><ele>359.0</ele><time>2026-05-01T10:56:09Z</time></trkpt><trkpt lat="44.88790694904266" lon="9.484727917831583"><ele>358.0</ele><time>2026-05-01T10:56:10Z</time></trkpt><trkpt lat="44.88799771234035" lon="9.484756305566599"><ele>357.0</ele><time>2026-05-01T10:56:11Z</time></trkpt><trkpt lat="44.88809043499797" lon="9.48478919474896"><ele>356.0</ele><time>2026-05-01T10:56:12Z</time></trkpt><trkpt lat="44.88817014945861" lon="9.484884585024156"><ele>355.0</ele><time>2026-05-01T10:56:13Z</time></trkpt><trkpt lat="44.88824478220909" lon="9.484999728511127"><ele>355.0</ele><time>2026-05-01T10:56:14Z</time></trkpt><trkpt lat="44.88832055919717" lon="9.48509816374969"><ele>355.0</ele><time>2026-05-01T10:56:15Z</time></trkpt><trkpt lat="44.888400789057" lon="9.485177141578554"><ele>355.0</ele><time>2026-05-01T10:56:16Z</time></trkpt><trkpt lat="44.88849364640829" lon="9.485234765890533"><ele>355.0</ele><time>2026-05-01T10:56:17Z</time></trkpt><trkpt lat="44.888591972699324" lon="9.485268561942886"><ele>355.0</ele><time>2026-05-01T10:56:18Z</time></trkpt><trkpt lat="44.88868666412038" lon="9.485280317748876"><ele>354.6</ele><time>2026-05-01T10:56:19Z</time></trkpt><trkpt lat="44.888780132310984" lon="9.485270737926545"><ele>354.2</ele><time>2026-05-01T10:56:20Z</time></trkpt><trkpt lat="44.888872285823794" lon="9.485287546926905"><ele>353.79999999999995</ele><time>2026-05-01T10:56:21Z</time></trkpt><trkpt lat="44.88895388761994" lon="9.485360074769813"><ele>353.4</ele><time>2026-05-01T10:56:22Z</time></trkpt><trkpt lat="44.88901623055147" lon="9.485466966664376"><ele>353.0</ele><time>2026-05-01T10:56:23Z</time></trkpt><trkpt lat="44.88905705418813" lon="9.485598799699037"><ele>353.0</ele><time>2026-05-01T10:56:24Z</time></trkpt><trkpt lat="44.889088947983915" lon="9.485711211764125"><ele>353.0</ele><time>2026-05-01T10:56:25Z</time></trkpt><trkpt lat="44.889142140211135" lon="9.48581344299449"><ele>353.0</ele><time>2026-05-01T10:56:26Z</time></trkpt><trkpt lat="44.8892134239478" lon="9.485902456399064"><ele>353.0</ele><time>2026-05-01T10:56:27Z</time></trkpt><trkpt lat="44.88928992769225" lon="9.485968704025293"><ele>353.0</ele><time>2026-05-01T10:56:28Z</time></trkpt><trkpt lat="44.88936026119921" lon="9.486023621672803"><ele>353.0</ele><time>2026-05-01T10:56:29Z</time></trkpt><trkpt lat="44.88943403132677" lon="9.486034216488964"><ele>352.2</ele><time>2026-05-01T10:56:30Z</time></trkpt><trkpt lat="44.88952250756195" lon="9.486011034625465"><ele>351.4</ele><time>2026-05-01T10:56:31Z</time></trkpt><trkpt lat="44.88962075608155" lon="9.48602959942198"><ele>350.59999999999997</ele><time>2026-05-01T10:56:32Z</time></trkpt><trkpt lat="44.88972796724699" lon="9.486083021243832"><ele>349.79999999999995</ele><time>2026-05-01T10:56:33Z</time></trkpt><trkpt lat="44.88982326886795" lon="9.48619851777574"><ele>349.0</ele><time>2026-05-01T10:56:34Z</time></trkpt><trkpt lat="44.88991416209797" lon="9.486311972783168"><ele>349.0</ele><time>2026-05-01T10:56:35Z</time></trkpt><trkpt lat="44.889989473410964" lon="9.486409217330385"><ele>349.0</ele><time>2026-05-01T10:56:36Z</time></trkpt><trkpt lat="44.89005289747807" lon="9.48652711307858"><ele>349.0</ele><time>2026-05-01T10:56:37Z</time></trkpt><trkpt lat="44.89012791818399" lon="9.486638978469264"><ele>349.0</ele><time>2026-05-01T10:56:38Z</time></trkpt><trkpt lat="44.89018722028511" lon="9.486752785137085"><ele>349.0</ele><time>2026-05-01T10:56:39Z</time></trkpt><trkpt lat="44.89025351214213" lon="9.486852670385437"><ele>355.0</ele><time>2026-05-01T10:56:40Z</time></trkpt><trkpt lat="44.890311045391826" lon="9.486917105729912"><ele>361.0</ele><time>2026-05-01T10:56:41Z</time></trkpt><trkpt lat="44.89045397621567" lon="9.486938290411349"><ele>367.0</ele><time>2026-05-01T10:56:43Z</time></trkpt><trkpt lat="44.89056618891965" lon="9.486928462666933"><ele>373.0</ele><time>2026-05-01T10:56:43.999Z</time></trkpt><trkpt lat="44.890682244335494" lon="9.486962262830119"><ele>379.0</ele><time>2026-05-01T10:56:44.999Z</time></trkpt><trkpt lat="44.89079861980914" lon="9.487018731733453"><ele>379.0</ele><time>2026-05-01T10:56:45.999Z</time></trkpt><trkpt lat="44.89091139845062" lon="9.487092678410553"><ele>379.0</ele><time>2026-05-01T10:56:46.999Z</time></trkpt><trkpt lat="44.891021302899375" lon="9.4871940209257"><ele>379.0</ele><time>2026-05-01T10:56:47.999Z</time></trkpt><trkpt lat="44.89110976484322" lon="9.487323882145725"><ele>379.0</ele><time>2026-05-01T10:56:48.999Z</time></trkpt><trkpt lat="44.891200280711715" lon="9.48743055049629"><ele>376.0</ele><time>2026-05-01T10:56:49.999Z</time></trkpt><trkpt lat="44.89128913448344" lon="9.487502770808012"><ele>373.0</ele><time>2026-05-01T10:56:50.999Z</time></trkpt><trkpt lat="44.891365501518614" lon="9.48754328462496"><ele>370.0</ele><time>2026-05-01T10:56:51.999Z</time></trkpt><trkpt lat="44.89145652409099" lon="9.487574550808473"><ele>367.0</ele><time>2026-05-01T10:56:52.999Z</time></trkpt><trkpt lat="44.89155184412156" lon="9.487577702111537"><ele>364.0</ele><time>2026-05-01T10:56:53.999Z</time></trkpt><trkpt lat="44.89164690756655" lon="9.487612581662905"><ele>364.0</ele><time>2026-05-01T10:56:54.999Z</time></trkpt><trkpt lat="44.89173851152593" lon="9.48772627219816"><ele>364.0</ele><time>2026-05-01T10:56:55.999Z</time></trkpt><trkpt lat="44.89180175402549" lon="9.487826651682052"><ele>364.0</ele><time>2026-05-01T10:56:56.999Z</time></trkpt><trkpt lat="44.89186143875082" lon="9.487864492766017"><ele>364.0</ele><time>2026-05-01T10:56:57.999Z</time></trkpt><trkpt lat="44.89192975650267" lon="9.487835539119995"><ele>364.0</ele><time>2026-05-01T10:56:58.999Z</time></trkpt><trkpt lat="44.89199693017473" lon="9.487787842747736"><ele>364.0</ele><time>2026-05-01T10:56:59.999Z</time></trkpt><trkpt lat="44.89207140608467" lon="9.487745949471295"><ele>364.5</ele><time>2026-05-01T10:57:00.999Z</time></trkpt><trkpt lat="44.89214327626813" lon="9.48773269116173"><ele>365.0</ele><time>2026-05-01T10:57:01.999Z</time></trkpt><trkpt lat="44.89222082805556" lon="9.487758506074233"><ele>365.5</ele><time>2026-05-01T10:57:02.999Z</time></trkpt><trkpt lat="44.89229935464616" lon="9.487839045863186"><ele>366.0</ele><time>2026-05-01T10:57:03.999Z</time></trkpt><trkpt lat="44.89236081605922" lon="9.487955709145382"><ele>366.5</ele><time>2026-05-01T10:57:04.999Z</time></trkpt><trkpt lat="44.89239618782257" lon="9.488080088601365"><ele>367.0</ele><time>2026-05-01T10:57:05.999Z</time></trkpt><trkpt lat="44.89244264905831" lon="9.488199708686762"><ele>364.6</ele><time>2026-05-01T10:57:06.999Z</time></trkpt><trkpt lat="44.8925386859465" lon="9.48832284905441"><ele>362.20000000000005</ele><time>2026-05-01T10:57:07.999Z</time></trkpt><trkpt lat="44.892622325624544" lon="9.488427535700962"><ele>359.8</ele><time>2026-05-01T10:57:08.999Z</time></trkpt><trkpt lat="44.892693492620936" lon="9.488515677903372"><ele>357.4</ele><time>2026-05-01T10:57:09.999Z</time></trkpt><trkpt lat="44.89275220330171" lon="9.488578460910658"><ele>355.0</ele><time>2026-05-01T10:57:10.999Z</time></trkpt><trkpt lat="44.89287820240414" lon="9.488569380516278"><ele>354.4</ele><time>2026-05-01T10:57:12.999Z</time></trkpt><trkpt lat="44.892946241327" lon="9.488474407943196"><ele>353.8</ele><time>2026-05-01T10:57:13.999Z</time></trkpt><trkpt lat="44.893004200761915" lon="9.488364306025316"><ele>353.20000000000005</ele><time>2026-05-01T10:57:14.999Z</time></trkpt><trkpt lat="44.89309421225583" lon="9.488269075139282"><ele>352.6</ele><time>2026-05-01T10:57:15.999Z</time></trkpt><trkpt lat="44.893190879511465" lon="9.48822180319828"><ele>352.0</ele><time>2026-05-01T10:57:16.999Z</time></trkpt><trkpt lat="44.893273160553356" lon="9.488184218881978"><ele>352.0</ele><time>2026-05-01T10:57:17.999Z</time></trkpt><trkpt lat="44.89333346417602" lon="9.488132571873575"><ele>352.0</ele><time>2026-05-01T10:57:18.999Z</time></trkpt><trkpt lat="44.8933756577521" lon="9.488057680760981"><ele>352.0</ele><time>2026-05-01T10:57:19.999Z</time></trkpt><trkpt lat="44.89339825850461" lon="9.487948415816257"><ele>352.0</ele><time>2026-05-01T10:57:20.999Z</time></trkpt><trkpt lat="44.893441604905696" lon="9.487832675642002"><ele>352.0</ele><time>2026-05-01T10:57:21.999Z</time></trkpt><trkpt lat="44.893523868853144" lon="9.487743032895052"><ele>352.0</ele><time>2026-05-01T10:57:22.999Z</time></trkpt><trkpt lat="44.89360378059955" lon="9.48766754512304"><ele>353.5</ele><time>2026-05-01T10:57:23.999Z</time></trkpt><trkpt lat="44.89368809637213" lon="9.487619338719847"><ele>355.0</ele><time>2026-05-01T10:57:24.999Z</time></trkpt><trkpt lat="44.89375177426069" lon="9.487550528264753"><ele>356.5</ele><time>2026-05-01T10:57:25.999Z</time></trkpt><trkpt lat="44.8938196032619" lon="9.48748755727897"><ele>358.0</ele><time>2026-05-01T10:57:26.999Z</time></trkpt><trkpt lat="44.893898848448906" lon="9.487477855226157"><ele>359.5</ele><time>2026-05-01T10:57:27.999Z</time></trkpt><trkpt lat="44.89398136913505" lon="9.48751223306393"><ele>361.0</ele><time>2026-05-01T10:57:28.999Z</time></trkpt><trkpt lat="44.89403338451632" lon="9.487606396237783"><ele>361.0</ele><time>2026-05-01T10:57:29.999Z</time></trkpt><trkpt lat="44.89404534062666" lon="9.487732878582191"><ele>361.0</ele><time>2026-05-01T10:57:30.999Z</time></trkpt><trkpt lat="44.8940220117053" lon="9.487880106617796"><ele>361.0</ele><time>2026-05-01T10:57:31.999Z</time></trkpt><trkpt lat="44.89399204688717" lon="9.487995749654168"><ele>361.0</ele><time>2026-05-01T10:57:32.999Z</time></trkpt><trkpt lat="44.8939831264747" lon="9.488126292005763"><ele>361.0</ele><time>2026-05-01T10:57:33.999Z</time></trkpt><trkpt lat="44.893996470222945" lon="9.488271142789772"><ele>360.20000000000005</ele><time>2026-05-01T10:57:34.999Z</time></trkpt><trkpt lat="44.89402562910894" lon="9.488401120367842"><ele>359.40000000000003</ele><time>2026-05-01T10:57:35.999Z</time></trkpt><trkpt lat="44.89407561031558" lon="9.488525186448951"><ele>358.6</ele><time>2026-05-01T10:57:36.999Z</time></trkpt><trkpt lat="44.894131157219014" lon="9.488643812951603"><ele>357.8</ele><time>2026-05-01T10:57:37.999Z</time></trkpt><trkpt lat="44.89419890898606" lon="9.488770301646017"><ele>357.0</ele><time>2026-05-01T10:57:38.999Z</time></trkpt><trkpt lat="44.89426133349546" lon="9.488916325617495"><ele>362.0</ele><time>2026-05-01T10:57:39.999Z</time></trkpt><trkpt lat="44.89431525614377" lon="9.489069137836301"><ele>367.0</ele><time>2026-05-01T10:57:40.999Z</time></trkpt><trkpt lat="44.89435394569041" lon="9.489231828298266"><ele>372.0</ele><time>2026-05-01T10:57:41.999Z</time></trkpt><trkpt lat="44.894384944496046" lon="9.489396264342806"><ele>377.0</ele><time>2026-05-01T10:57:43Z</time></trkpt><trkpt lat="44.89439627382721" lon="9.489578640339206"><ele>375.75</ele><time>2026-05-01T10:57:44Z</time></trkpt><trkpt lat="44.89439804270791" lon="9.489785373757314"><ele>374.5</ele><time>2026-05-01T10:57:45Z</time></trkpt><trkpt lat="44.894400091134905" lon="9.489966488746932"><ele>373.25</ele><time>2026-05-01T10:57:46Z</time></trkpt><trkpt lat="44.894375908142436" lon="9.490137357975541"><ele>372.0</ele><time>2026-05-01T10:57:47Z</time></trkpt><trkpt lat="44.89433559711993" lon="9.490286123103349"><ele>373.40000000000003</ele><time>2026-05-01T10:57:48Z</time></trkpt><trkpt lat="44.894285976635466" lon="9.490440953253554"><ele>374.8</ele><time>2026-05-01T10:57:49Z</time></trkpt><trkpt lat="44.89424172101909" lon="9.490595126991694"><ele>376.2</ele><time>2026-05-01T10:57:50Z</time></trkpt><trkpt lat="44.89421714845683" lon="9.490738405444322"><ele>377.6</ele><time>2026-05-01T10:57:51Z</time></trkpt><trkpt lat="44.89419107928473" lon="9.490878692655391"><ele>379.0</ele><time>2026-05-01T10:57:52Z</time></trkpt><trkpt lat="44.894169868673764" lon="9.491016937912082"><ele>379.3333333333333</ele><time>2026-05-01T10:57:53Z</time></trkpt><trkpt lat="44.894147847617035" lon="9.491133407797472"><ele>379.66666666666663</ele><time>2026-05-01T10:57:54Z</time></trkpt><trkpt lat="44.89412847419586" lon="9.491250361329513"><ele>380.0</ele><time>2026-05-01T10:57:55Z</time></trkpt><trkpt lat="44.894122755633425" lon="9.4913630786309"><ele>380.3333333333333</ele><time>2026-05-01T10:57:56Z</time></trkpt><trkpt lat="44.894143864409536" lon="9.491466238745007"><ele>380.6666666666667</ele><time>2026-05-01T10:57:57Z</time></trkpt><trkpt lat="44.89419711462112" lon="9.491560690399423"><ele>381.0</ele><time>2026-05-01T10:57:58Z</time></trkpt><trkpt lat="44.894275163479264" lon="9.491660850733414"><ele>381.0</ele><time>2026-05-01T10:57:59Z</time></trkpt><trkpt lat="44.89433671957571" lon="9.491771563414613"><ele>381.0</ele><time>2026-05-01T10:58:00Z</time></trkpt><trkpt lat="44.8943425026596" lon="9.491918878950727"><ele>381.0</ele><time>2026-05-01T10:58:01Z</time></trkpt><trkpt lat="44.894309084479836" lon="9.49206451715498"><ele>381.0</ele><time>2026-05-01T10:58:02Z</time></trkpt><trkpt lat="44.89424030638944" lon="9.492186736679844"><ele>381.0</ele><time>2026-05-01T10:58:03Z</time></trkpt><trkpt lat="44.89418932780022" lon="9.49229219766771"><ele>377.4</ele><time>2026-05-01T10:58:04Z</time></trkpt><trkpt lat="44.894195751881824" lon="9.492422899481115"><ele>373.8</ele><time>2026-05-01T10:58:05Z</time></trkpt><trkpt lat="44.89424717645463" lon="9.492543798043277"><ele>370.2</ele><time>2026-05-01T10:58:06Z</time></trkpt><trkpt lat="44.894331521613594" lon="9.492645950198249"><ele>366.59999999999997</ele><time>2026-05-01T10:58:07Z</time></trkpt><trkpt lat="44.894427798024786" lon="9.492738510377226"><ele>363.0</ele><time>2026-05-01T10:58:08Z</time></trkpt><trkpt lat="44.894510368147124" lon="9.492800112298289"><ele>363.0</ele><time>2026-05-01T10:58:09Z</time></trkpt><trkpt lat="44.89460096858406" lon="9.492833049616474"><ele>363.0</ele><time>2026-05-01T10:58:10Z</time></trkpt><trkpt lat="44.894716762154474" lon="9.49282710342431"><ele>363.0</ele><time>2026-05-01T10:58:11Z</time></trkpt><trkpt lat="44.89484586101005" lon="9.492794764304945"><ele>363.0</ele><time>2026-05-01T10:58:12Z</time></trkpt><trkpt lat="44.8949794175573" lon="9.492750901275205"><ele>360.75</ele><time>2026-05-01T10:58:13Z</time></trkpt><trkpt lat="44.895116465911116" lon="9.492710041998647"><ele>358.5</ele><time>2026-05-01T10:58:14Z</time></trkpt><trkpt lat="44.895253479490016" lon="9.492669432934848"><ele>356.25</ele><time>2026-05-01T10:58:15Z</time></trkpt><trkpt lat="44.895385706473206" lon="9.492635704219559"><ele>354.0</ele><time>2026-05-01T10:58:16Z</time></trkpt><trkpt lat="44.89551384986467" lon="9.49260937637155"><ele>354.0</ele><time>2026-05-01T10:58:17Z</time></trkpt><trkpt lat="44.89566293814289" lon="9.492598926219635"><ele>354.0</ele><time>2026-05-01T10:58:18Z</time></trkpt><trkpt lat="44.8958269192309" lon="9.492618644025507"><ele>354.0</ele><time>2026-05-01T10:58:19Z</time></trkpt><trkpt lat="44.89596858677272" lon="9.492637938372928"><ele>351.5</ele><time>2026-05-01T10:58:20Z</time></trkpt><trkpt lat="44.896094935918306" lon="9.492653276796805"><ele>349.0</ele><time>2026-05-01T10:58:21Z</time></trkpt><trkpt lat="44.896213167330046" lon="9.492664318283795"><ele>346.5</ele><time>2026-05-01T10:58:22Z</time></trkpt><trkpt lat="44.896330075159995" lon="9.49266685903642"><ele>344.0</ele><time>2026-05-01T10:58:23Z</time></trkpt><trkpt lat="44.89643323182106" lon="9.492656904652549"><ele>344.0</ele><time>2026-05-01T10:58:24Z</time></trkpt><trkpt lat="44.89653880722893" lon="9.492593745039192"><ele>344.0</ele><time>2026-05-01T10:58:25Z</time></trkpt><trkpt lat="44.89664588586129" lon="9.49249628036694"><ele>344.0</ele><time>2026-05-01T10:58:26Z</time></trkpt><trkpt lat="44.89675471354067" lon="9.492408328517646"><ele>344.0</ele><time>2026-05-01T10:58:27Z</time></trkpt><trkpt lat="44.89686974667332" lon="9.492375568801467"><ele>340.75</ele><time>2026-05-01T10:58:28Z</time></trkpt><trkpt lat="44.89699296869835" lon="9.492397767484242"><ele>337.5</ele><time>2026-05-01T10:58:29Z</time></trkpt><trkpt lat="44.89710965064238" lon="9.492467823496298"><ele>334.25</ele><time>2026-05-01T10:58:30Z</time></trkpt><trkpt lat="44.8972215529954" lon="9.492487142280567"><ele>331.0</ele><time>2026-05-01T10:58:31Z</time></trkpt><trkpt lat="44.897352329432586" lon="9.492461741755665"><ele>331.0</ele><time>2026-05-01T10:58:32Z</time></trkpt><trkpt lat="44.897482892329" lon="9.492433796532385"><ele>331.0</ele><time>2026-05-01T10:58:33Z</time></trkpt><trkpt lat="44.89759196068487" lon="9.49241434923135"><ele>331.0</ele><time>2026-05-01T10:58:34Z</time></trkpt><trkpt lat="44.89767952831373" lon="9.492362158386939"><ele>331.0</ele><time>2026-05-01T10:58:35Z</time></trkpt><trkpt lat="44.897743698625334" lon="9.49227708891508"><ele>331.0</ele><time>2026-05-01T10:58:36Z</time></trkpt><trkpt lat="44.89778243446802" lon="9.492164091983417"><ele>329.8</ele><time>2026-05-01T10:58:37Z</time></trkpt><trkpt lat="44.89781877325667" lon="9.49201787774249"><ele>328.6</ele><time>2026-05-01T10:58:38Z</time></trkpt><trkpt lat="44.89787658390122" lon="9.491869248190994"><ele>327.4</ele><time>2026-05-01T10:58:39Z</time></trkpt><trkpt lat="44.897953929729965" lon="9.491754160943055"><ele>326.2</ele><time>2026-05-01T10:58:40Z</time></trkpt><trkpt lat="44.89803423953174" lon="9.49166799411794"><ele>325.0</ele><time>2026-05-01T10:58:41Z</time></trkpt><trkpt lat="44.89811732065666" lon="9.491603816026718"><ele>325.0</ele><time>2026-05-01T10:58:42Z</time></trkpt><trkpt lat="44.89819728844667" lon="9.491555768925544"><ele>325.0</ele><time>2026-05-01T10:58:43Z</time></trkpt><trkpt lat="44.89828526394055" lon="9.491543362656074"><ele>325.0</ele><time>2026-05-01T10:58:44Z</time></trkpt><trkpt lat="44.89837858292251" lon="9.491542244680188"><ele>325.0</ele><time>2026-05-01T10:58:45Z</time></trkpt><trkpt lat="44.8984826047533" lon="9.491546050302688"><ele>325.0</ele><time>2026-05-01T10:58:46Z</time></trkpt><trkpt lat="44.89858541518315" lon="9.491553835660019"><ele>322.6</ele><time>2026-05-01T10:58:47Z</time></trkpt><trkpt lat="44.898688702211885" lon="9.491558964639886"><ele>320.2</ele><time>2026-05-01T10:58:48Z</time></trkpt><trkpt lat="44.898792373119576" lon="9.491567558607713"><ele>317.8</ele><time>2026-05-01T10:58:49Z</time></trkpt><trkpt lat="44.89889427505546" lon="9.491595583567943"><ele>315.4</ele><time>2026-05-01T10:58:49.999Z</time></trkpt><trkpt lat="44.89899416992803" lon="9.491660312978341"><ele>313.0</ele><time>2026-05-01T10:58:50.999Z</time></trkpt><trkpt lat="44.89908177902829" lon="9.491735721826734"><ele>313.0</ele><time>2026-05-01T10:58:51.999Z</time></trkpt><trkpt lat="44.899160899755664" lon="9.491795261812122"><ele>313.0</ele><time>2026-05-01T10:58:52.999Z</time></trkpt><trkpt lat="44.89923852040852" lon="9.491819251511238"><ele>313.0</ele><time>2026-05-01T10:58:53.999Z</time></trkpt><trkpt lat="44.89932225600391" lon="9.491786659524742"><ele>313.0</ele><time>2026-05-01T10:58:54.999Z</time></trkpt><trkpt lat="44.89939926218909" lon="9.491679486808017"><ele>313.0</ele><time>2026-05-01T10:58:55.999Z</time></trkpt><trkpt lat="44.899477187781194" lon="9.491530833385214"><ele>315.0</ele><time>2026-05-01T10:58:56.999Z</time></trkpt><trkpt lat="44.89956145563813" lon="9.491396758514947"><ele>317.0</ele><time>2026-05-01T10:58:57.999Z</time></trkpt><trkpt lat="44.89964972156994" lon="9.491284595680654"><ele>319.0</ele><time>2026-05-01T10:58:58.999Z</time></trkpt><trkpt lat="44.89974638420513" lon="9.491189364097005"><ele>321.0</ele><time>2026-05-01T10:58:59.999Z</time></trkpt><trkpt lat="44.8998533201393" lon="9.491131307239415"><ele>321.0</ele><time>2026-05-01T10:59:00.999Z</time></trkpt><trkpt lat="44.89996068669099" lon="9.491120087140631"><ele>321.0</ele><time>2026-05-01T10:59:01.999Z</time></trkpt><trkpt lat="44.90005333374694" lon="9.491136280366701"><ele>321.0</ele><time>2026-05-01T10:59:02.999Z</time></trkpt><trkpt lat="44.90012591974398" lon="9.491155638501096"><ele>321.0</ele><time>2026-05-01T10:59:03.999Z</time></trkpt><trkpt lat="44.90019033593335" lon="9.491192004304816"><ele>321.0</ele><time>2026-05-01T10:59:15.999Z</time></trkpt><trkpt lat="44.900142176787526" lon="9.491265163931548"><ele>321.0</ele><time>2026-05-01T10:59:19.999Z</time></trkpt><trkpt lat="44.90004751061534" lon="9.491280765373386"><ele>317.2</ele><time>2026-05-01T10:59:21.999Z</time></trkpt><trkpt lat="44.899953330511345" lon="9.491323952437849"><ele>313.40000000000003</ele><time>2026-05-01T10:59:22.999Z</time></trkpt><trkpt lat="44.899874888426346" lon="9.491395884491148"><ele>309.6</ele><time>2026-05-01T10:59:23.999Z</time></trkpt><trkpt lat="44.8998269075187" lon="9.491511154404558"><ele>305.8</ele><time>2026-05-01T10:59:24.999Z</time></trkpt><trkpt lat="44.89979481614001" lon="9.491632937518965"><ele>302.0</ele><time>2026-05-01T10:59:25.999Z</time></trkpt><trkpt lat="44.8997632288295" lon="9.49175530926612"><ele>302.0</ele><time>2026-05-01T10:59:26.999Z</time></trkpt><trkpt lat="44.89972006394276" lon="9.491887296853529"><ele>302.0</ele><time>2026-05-01T10:59:27.999Z</time></trkpt><trkpt lat="44.8996695353263" lon="9.492022883900772"><ele>302.0</ele><time>2026-05-01T10:59:28.999Z</time></trkpt><trkpt lat="44.89960362179953" lon="9.492154429929416"><ele>302.0</ele><time>2026-05-01T10:59:29.999Z</time></trkpt><trkpt lat="44.89951861260106" lon="9.49227393268053"><ele>302.0</ele><time>2026-05-01T10:59:30.999Z</time></trkpt><trkpt lat="44.89942503872618" lon="9.492396965483781"><ele>301.6</ele><time>2026-05-01T10:59:31.999Z</time></trkpt><trkpt lat="44.89934234506208" lon="9.492513436680484"><ele>301.2</ele><time>2026-05-01T10:59:32.999Z</time></trkpt><trkpt lat="44.899263204835314" lon="9.49262818201205"><ele>300.8</ele><time>2026-05-01T10:59:33.999Z</time></trkpt><trkpt lat="44.899187424992896" lon="9.492737378586385"><ele>300.4</ele><time>2026-05-01T10:59:34.999Z</time></trkpt><trkpt lat="44.89911059902508" lon="9.492838568067759"><ele>300.0</ele><time>2026-05-01T10:59:35.999Z</time></trkpt><trkpt lat="44.89903905941511" lon="9.492929122741463"><ele>298.5</ele><time>2026-05-01T10:59:36.999Z</time></trkpt><trkpt lat="44.89896809004181" lon="9.493009942875034"><ele>297.0</ele><time>2026-05-01T10:59:38Z</time></trkpt><trkpt lat="44.89890275953554" lon="9.49305976103892"><ele>295.5</ele><time>2026-05-01T10:59:39Z</time></trkpt><trkpt lat="44.89882099012405" lon="9.493131305774572"><ele>294.0</ele><time>2026-05-01T10:59:41Z</time></trkpt><trkpt lat="44.89882217383365" lon="9.49323056518195"><ele>292.5</ele><time>2026-05-01T10:59:43Z</time></trkpt><trkpt lat="44.8988650443063" lon="9.493307543764734"><ele>291.0</ele><time>2026-05-01T10:59:44Z</time></trkpt><trkpt lat="44.89893787413865" lon="9.493384501867824"><ele>291.0</ele><time>2026-05-01T10:59:45Z</time></trkpt><trkpt lat="44.89901178534087" lon="9.493477692090185"><ele>291.0</ele><time>2026-05-01T10:59:46Z</time></trkpt><trkpt lat="44.89908232152777" lon="9.493583118549742"><ele>291.0</ele><time>2026-05-01T10:59:47Z</time></trkpt><trkpt lat="44.899169040667516" lon="9.493669263601848"><ele>291.0</ele><time>2026-05-01T10:59:48Z</time></trkpt><trkpt lat="44.89926121290049" lon="9.493745147890973"><ele>291.0</ele><time>2026-05-01T10:59:49Z</time></trkpt><trkpt lat="44.89933623963951" lon="9.493810204909849"><ele>289.6666666666667</ele><time>2026-05-01T10:59:50Z</time></trkpt><trkpt lat="44.89939302934618" lon="9.493859470850012"><ele>288.3333333333333</ele><time>2026-05-01T10:59:51Z</time></trkpt><trkpt lat="44.89949587953963" lon="9.493859146906134"><ele>287.0</ele><time>2026-05-01T10:59:53Z</time></trkpt><trkpt lat="44.89956704319413" lon="9.493805188839529"><ele>285.66666666666663</ele><time>2026-05-01T10:59:54Z</time></trkpt><trkpt lat="44.89967060179206" lon="9.493806646362895"><ele>284.3333333333333</ele><time>2026-05-01T10:59:56Z</time></trkpt><trkpt lat="44.89970802302964" lon="9.493914035755202"><ele>283.0</ele><time>2026-05-01T10:59:58Z</time></trkpt><trkpt lat="44.89971476819274" lon="9.494020910281446"><ele>283.0</ele><time>2026-05-01T11:00:02Z</time></trkpt><trkpt lat="44.89964956519123" lon="9.494125537628975"><ele>283.0</ele><time>2026-05-01T11:00:04Z</time></trkpt><trkpt lat="44.899587384365404" lon="9.494227259687573"><ele>283.0</ele><time>2026-05-01T11:00:06Z</time></trkpt><trkpt lat="44.89953854612801" lon="9.49435787883494"><ele>283.0</ele><time>2026-05-01T11:00:08Z</time></trkpt><trkpt lat="44.89949633194379" lon="9.494483609563439"><ele>283.0</ele><time>2026-05-01T11:00:10Z</time></trkpt><trkpt lat="44.89947700340469" lon="9.494575201125775"><ele>284.0</ele><time>2026-05-01T11:00:11Z</time></trkpt><trkpt lat="44.899468607383845" lon="9.494696069009496"><ele>285.0</ele><time>2026-05-01T11:00:13Z</time></trkpt><trkpt lat="44.89947588416487" lon="9.494790288722534"><ele>286.0</ele><time>2026-05-01T11:00:15Z</time></trkpt><trkpt lat="44.899530761966986" lon="9.494964371247535"><ele>287.0</ele><time>2026-05-01T11:00:17Z</time></trkpt><trkpt lat="44.89959808819939" lon="9.495050878422004"><ele>288.0</ele><time>2026-05-01T11:00:18Z</time></trkpt><trkpt lat="44.8996931819611" lon="9.49513847523192"><ele>288.0</ele><time>2026-05-01T11:00:19Z</time></trkpt><trkpt lat="44.899787889810916" lon="9.495238987441725"><ele>288.0</ele><time>2026-05-01T11:00:20Z</time></trkpt><trkpt lat="44.89985511308142" lon="9.495370689326842"><ele>288.0</ele><time>2026-05-01T11:00:21Z</time></trkpt><trkpt lat="44.899889627421885" lon="9.495479160940029"><ele>288.0</ele><time>2026-05-01T11:00:22Z</time></trkpt><trkpt lat="44.89991378358826" lon="9.495563048645192"><ele>288.0</ele><time>2026-05-01T11:00:23Z</time></trkpt><trkpt lat="44.89994010984244" lon="9.495678087857755"><ele>289.6</ele><time>2026-05-01T11:00:25Z</time></trkpt><trkpt lat="44.90000678643426" lon="9.495817316599457"><ele>291.20000000000005</ele><time>2026-05-01T11:00:42Z</time></trkpt><trkpt lat="44.900036106719114" lon="9.495905611440433"><ele>292.8</ele><time>2026-05-01T11:00:43Z</time></trkpt><trkpt lat="44.90008411762928" lon="9.496023832863276"><ele>294.40000000000003</ele><time>2026-05-01T11:00:45Z</time></trkpt><trkpt lat="44.9001581620866" lon="9.496114961436236"><ele>296.0</ele><time>2026-05-01T11:00:48Z</time></trkpt><trkpt lat="44.90022509911393" lon="9.496170678542088"><ele>297.2</ele><time>2026-05-01T11:00:50Z</time></trkpt><trkpt lat="44.900294112160395" lon="9.496225971229885"><ele>298.40000000000003</ele><time>2026-05-01T11:00:52Z</time></trkpt><trkpt lat="44.90037983991026" lon="9.496335785957617"><ele>299.6</ele><time>2026-05-01T11:00:54Z</time></trkpt><trkpt lat="44.900418616225885" lon="9.496506001809474"><ele>300.8</ele><time>2026-05-01T11:00:55.999Z</time></trkpt><trkpt lat="44.90041819987901" lon="9.49660203068638"><ele>302.0</ele><time>2026-05-01T11:00:56.999Z</time></trkpt><trkpt lat="44.90043430117369" lon="9.496708020557985"><ele>303.1666666666667</ele><time>2026-05-01T11:00:57.999Z</time></trkpt><trkpt lat="44.900450002333734" lon="9.496811559334665"><ele>304.33333333333337</ele><time>2026-05-01T11:00:58.999Z</time></trkpt><trkpt lat="44.900364504750705" lon="9.496930399542862"><ele>305.5</ele><time>2026-05-01T11:01:00.999Z</time></trkpt><trkpt lat="44.90028485486809" lon="9.496970157971155"><ele>306.6666666666667</ele><time>2026-05-01T11:01:02.999Z</time></trkpt><trkpt lat="44.90034750761263" lon="9.49689419663541"><ele>307.8333333333333</ele><time>2026-05-01T11:01:40.999Z</time></trkpt><trkpt lat="44.90040004608709" lon="9.496824690072039"><ele>309.0</ele><time>2026-05-01T11:01:55Z</time></trkpt><trkpt lat="44.900422145721535" lon="9.496675540881155"><ele>309.0</ele><time>2026-05-01T11:01:57Z</time></trkpt><trkpt lat="44.9004025827662" lon="9.496581009162881"><ele>309.0</ele><time>2026-05-01T11:01:58Z</time></trkpt><trkpt lat="44.9003661034239" lon="9.496426788961045"><ele>309.0</ele><time>2026-05-01T11:02:00Z</time></trkpt><trkpt lat="44.90031397181042" lon="9.49629131169748"><ele>309.0</ele><time>2026-05-01T11:02:02Z</time></trkpt><trkpt lat="44.900258874363125" lon="9.496229224537487"><ele>309.0</ele><time>2026-05-01T11:02:03Z</time></trkpt><trkpt lat="44.90018272249842" lon="9.496156345670048"><ele>307.8333333333333</ele><time>2026-05-01T11:02:04Z</time></trkpt><trkpt lat="44.900119926318986" lon="9.496086449637628"><ele>306.6666666666667</ele><time>2026-05-01T11:02:05Z</time></trkpt><trkpt lat="44.900067984345476" lon="9.496019016661137"><ele>305.5</ele><time>2026-05-01T11:02:06Z</time></trkpt><trkpt lat="44.90000202246334" lon="9.495896134392561"><ele>304.33333333333337</ele><time>2026-05-01T11:02:08Z</time></trkpt><trkpt lat="44.899973395003066" lon="9.495814830046635"><ele>303.1666666666667</ele><time>2026-05-01T11:02:10Z</time></trkpt><trkpt lat="44.900008212999275" lon="9.495715273231083"><ele>302.0</ele><time>2026-05-01T11:02:13Z</time></trkpt><trkpt lat="44.90007055134797" lon="9.495685661316852"><ele>302.0</ele><time>2026-05-01T11:02:16Z</time></trkpt><trkpt lat="44.9001589685239" lon="9.49564587668355"><ele>302.0</ele><time>2026-05-01T11:02:39Z</time></trkpt><trkpt lat="44.900227456417845" lon="9.495580385529756"><ele>302.0</ele><time>2026-05-01T11:02:40Z</time></trkpt><trkpt lat="44.90032330428807" lon="9.495469106544022"><ele>302.0</ele><time>2026-05-01T11:02:41Z</time></trkpt><trkpt lat="44.90043442456196" lon="9.495350863293142"><ele>302.0</ele><time>2026-05-01T11:02:42Z</time></trkpt><trkpt lat="44.900560802280054" lon="9.495213254619825"><ele>300.33333333333337</ele><time>2026-05-01T11:02:43Z</time></trkpt><trkpt lat="44.90071214149496" lon="9.495059984232098"><ele>298.6666666666667</ele><time>2026-05-01T11:02:44Z</time></trkpt><trkpt lat="44.900874175227585" lon="9.494906775918857"><ele>297.0</ele><time>2026-05-01T11:02:45Z</time></trkpt><trkpt lat="44.90101645669822" lon="9.4948081947857"><ele>297.75</ele><time>2026-05-01T11:02:46Z</time></trkpt><trkpt lat="44.901129629199175" lon="9.494746930018053"><ele>298.5</ele><time>2026-05-01T11:02:47Z</time></trkpt><trkpt lat="44.90124598278204" lon="9.49466071221456"><ele>299.25</ele><time>2026-05-01T11:02:48Z</time></trkpt><trkpt lat="44.90137258729349" lon="9.494554811264491"><ele>300.0</ele><time>2026-05-01T11:02:49Z</time></trkpt><trkpt lat="44.90149335648221" lon="9.494470506966668"><ele>300.0</ele><time>2026-05-01T11:02:50Z</time></trkpt><trkpt lat="44.90159769515046" lon="9.494402083903982"><ele>300.0</ele><time>2026-05-01T11:02:51Z</time></trkpt><trkpt lat="44.90169115270423" lon="9.494357261070409"><ele>300.0</ele><time>2026-05-01T11:02:52Z</time></trkpt><trkpt lat="44.90177556362096" lon="9.494333585682684"><ele>300.0</ele><time>2026-05-01T11:02:53Z</time></trkpt><trkpt lat="44.901848825577986" lon="9.494343760370942"><ele>300.0</ele><time>2026-05-01T11:02:54Z</time></trkpt><trkpt lat="44.90190676939688" lon="9.494403013651626"><ele>300.0</ele><time>2026-05-01T11:02:55Z</time></trkpt><trkpt lat="44.90195152102302" lon="9.49447818928353"><ele>301.5</ele><time>2026-05-01T11:02:56Z</time></trkpt><trkpt lat="44.90199566206597" lon="9.494615729176422"><ele>303.0</ele><time>2026-05-01T11:02:58Z</time></trkpt><trkpt lat="44.90204381177839" lon="9.494683588318116"><ele>304.5</ele><time>2026-05-01T11:03:07.999Z</time></trkpt><trkpt lat="44.902087181409904" lon="9.494763506483709"><ele>306.0</ele><time>2026-05-01T11:03:08.999Z</time></trkpt><trkpt lat="44.902132670127436" lon="9.49485895062913"><ele>307.5</ele><time>2026-05-01T11:03:09.999Z</time></trkpt><trkpt lat="44.90219704962119" lon="9.494963324876759"><ele>309.0</ele><time>2026-05-01T11:03:10.999Z</time></trkpt><trkpt lat="44.90225482194512" lon="9.495073629456595"><ele>309.0</ele><time>2026-05-01T11:03:11.999Z</time></trkpt><trkpt lat="44.90230501412885" lon="9.495197385887945"><ele>309.0</ele><time>2026-05-01T11:03:12.999Z</time></trkpt><trkpt lat="44.90233753980697" lon="9.495331877234785"><ele>309.0</ele><time>2026-05-01T11:03:13.999Z</time></trkpt><trkpt lat="44.90235291854094" lon="9.495478706221466"><ele>309.0</ele><time>2026-05-01T11:03:14.999Z</time></trkpt><trkpt lat="44.902371755994956" lon="9.495628045272564"><ele>309.0</ele><time>2026-05-01T11:03:16Z</time></trkpt><trkpt lat="44.90239538010467" lon="9.495748307106513"><ele>310.4</ele><time>2026-05-01T11:03:17Z</time></trkpt><trkpt lat="44.90242775870763" lon="9.49584431819218"><ele>311.79999999999995</ele><time>2026-05-01T11:03:18Z</time></trkpt><trkpt lat="44.902484236819205" lon="9.495919778988856"><ele>313.20000000000005</ele><time>2026-05-01T11:03:19Z</time></trkpt><trkpt lat="44.9025730230511" lon="9.495978493987561"><ele>314.6</ele><time>2026-05-01T11:03:20Z</time></trkpt><trkpt lat="44.90266814377281" lon="9.49603845993982"><ele>316.0</ele><time>2026-05-01T11:03:21Z</time></trkpt><trkpt lat="44.90273961773552" lon="9.49617138416367"><ele>320.5</ele><time>2026-05-01T11:03:22Z</time></trkpt><trkpt lat="44.902798027928114" lon="9.496347883619302"><ele>325.0</ele><time>2026-05-01T11:03:23Z</time></trkpt><trkpt lat="44.902864869865105" lon="9.496532632630048"><ele>329.5</ele><time>2026-05-01T11:03:24Z</time></trkpt><trkpt lat="44.90295357760478" lon="9.496675641228267"><ele>334.0</ele><time>2026-05-01T11:03:25Z</time></trkpt><trkpt lat="44.9030374736752" lon="9.496754828142832"><ele>334.0</ele><time>2026-05-01T11:03:26Z</time></trkpt><trkpt lat="44.90313000841264" lon="9.496787198448182"><ele>334.0</ele><time>2026-05-01T11:03:27Z</time></trkpt><trkpt lat="44.90323581438158" lon="9.49677737906516"><ele>334.0</ele><time>2026-05-01T11:03:28Z</time></trkpt><trkpt lat="44.903318178826744" lon="9.496771117206325"><ele>334.0</ele><time>2026-05-01T11:03:29Z</time></trkpt><trkpt lat="44.90341697313166" lon="9.496793844429327"><ele>334.0</ele><time>2026-05-01T11:03:31Z</time></trkpt><trkpt lat="44.903476181058" lon="9.496944939865655"><ele>335.16666666666663</ele><time>2026-05-01T11:03:33Z</time></trkpt><trkpt lat="44.903460589920755" lon="9.49704668082762"><ele>336.3333333333333</ele><time>2026-05-01T11:03:34Z</time></trkpt><trkpt lat="44.90342322760039" lon="9.497183871176542"><ele>337.5</ele><time>2026-05-01T11:03:36Z</time></trkpt><trkpt lat="44.90338925502018" lon="9.497260624844207"><ele>338.6666666666667</ele><time>2026-05-01T11:03:38Z</time></trkpt><trkpt lat="44.90334892952665" lon="9.49739075868933"><ele>339.83333333333337</ele><time>2026-05-01T11:03:40Z</time></trkpt><trkpt lat="44.903315474332594" lon="9.497502735074285"><ele>341.0</ele><time>2026-05-01T11:03:42Z</time></trkpt><trkpt lat="44.903276629681166" lon="9.497575054593023"><ele>341.0</ele><time>2026-05-01T11:03:44Z</time></trkpt><trkpt lat="44.903252682775296" lon="9.497669818924653"><ele>341.0</ele><time>2026-05-01T11:03:47Z</time></trkpt><trkpt lat="44.90321666596121" lon="9.497791122357096"><ele>341.0</ele><time>2026-05-01T11:03:49Z</time></trkpt><trkpt lat="44.903192231762986" lon="9.497913537235144"><ele>341.0</ele><time>2026-05-01T11:03:50Z</time></trkpt><trkpt lat="44.90317072348393" lon="9.498051274749"><ele>341.0</ele><time>2026-05-01T11:03:51Z</time></trkpt><trkpt lat="44.9031281039824" lon="9.49819977349413"><ele>341.33333333333337</ele><time>2026-05-01T11:03:52Z</time></trkpt><trkpt lat="44.90306922877008" lon="9.498337735362638"><ele>341.6666666666667</ele><time>2026-05-01T11:03:53Z</time></trkpt><trkpt lat="44.903012818294876" lon="9.49845281158512"><ele>342.0</ele><time>2026-05-01T11:03:54Z</time></trkpt><trkpt lat="44.902968501091785" lon="9.498567788318281"><ele>342.3333333333333</ele><time>2026-05-01T11:03:55Z</time></trkpt><trkpt lat="44.902919479128705" lon="9.498648511127476"><ele>342.66666666666663</ele><time>2026-05-01T11:03:56Z</time></trkpt><trkpt lat="44.90286261008645" lon="9.4986951308925"><ele>343.0</ele><time>2026-05-01T11:03:57Z</time></trkpt><trkpt lat="44.902768914276656" lon="9.498809796330756"><ele>343.7142857142857</ele><time>2026-05-01T11:03:59Z</time></trkpt><trkpt lat="44.90273506518536" lon="9.498906113472106"><ele>344.42857142857144</ele><time>2026-05-01T11:04:00Z</time></trkpt><trkpt lat="44.902693751527025" lon="9.498987126545025"><ele>345.1428571428571</ele><time>2026-05-01T11:04:01Z</time></trkpt><trkpt lat="44.902633881756685" lon="9.49904125381944"><ele>345.8571428571429</ele><time>2026-05-01T11:04:02Z</time></trkpt><trkpt lat="44.902568731660025" lon="9.499051742700198"><ele>346.57142857142856</ele><time>2026-05-01T11:04:03Z</time></trkpt><trkpt lat="44.902501681122146" lon="9.499028929815376"><ele>347.2857142857143</ele><time>2026-05-01T11:04:04Z</time></trkpt><trkpt lat="44.902422213039614" lon="9.498992005810416"><ele>348.0</ele><time>2026-05-01T11:04:05Z</time></trkpt><trkpt lat="44.90233137229708" lon="9.498969722718883"><ele>348.0</ele><time>2026-05-01T11:04:06Z</time></trkpt><trkpt lat="44.902232878606924" lon="9.498970458519898"><ele>348.0</ele><time>2026-05-01T11:04:07Z</time></trkpt><trkpt lat="44.90214593141729" lon="9.498991873129311"><ele>348.0</ele><time>2026-05-01T11:04:08Z</time></trkpt><trkpt lat="44.90207195387362" lon="9.49903385998415"><ele>348.0</ele><time>2026-05-01T11:04:09Z</time></trkpt><trkpt lat="44.90201497699252" lon="9.499104223262403"><ele>348.0</ele><time>2026-05-01T11:04:10Z</time></trkpt><trkpt lat="44.90194687819885" lon="9.499192276947365"><ele>348.0</ele><time>2026-05-01T11:04:11Z</time></trkpt><trkpt lat="44.90189217967481" lon="9.49930279455848"><ele>348.0</ele><time>2026-05-01T11:04:12Z</time></trkpt><trkpt lat="44.90184661605665" lon="9.499413313272234"><ele>348.0</ele><time>2026-05-01T11:04:13Z</time></trkpt><trkpt lat="44.901852118199464" lon="9.499610810072822"><ele>348.0</ele><time>2026-05-01T11:04:15Z</time></trkpt><trkpt lat="44.90184195985098" lon="9.499748965043652"><ele>348.0</ele><time>2026-05-01T11:04:16Z</time></trkpt><trkpt lat="44.901841921509025" lon="9.499897799836672"><ele>348.0</ele><time>2026-05-01T11:04:17Z</time></trkpt><trkpt lat="44.901869280886025" lon="9.500035633536951"><ele>350.59999999999997</ele><time>2026-05-01T11:04:18Z</time></trkpt><trkpt lat="44.901888647990575" lon="9.500187821709892"><ele>353.2</ele><time>2026-05-01T11:04:19Z</time></trkpt><trkpt lat="44.90189351110287" lon="9.500330912034492"><ele>355.8</ele><time>2026-05-01T11:04:20Z</time></trkpt><trkpt lat="44.90187036505929" lon="9.50048003598003"><ele>358.4</ele><time>2026-05-01T11:04:22Z</time></trkpt><trkpt lat="44.901834446659535" lon="9.50058174453957"><ele>361.0</ele><time>2026-05-01T11:04:23Z</time></trkpt><trkpt lat="44.90177878414163" lon="9.500660373829856"><ele>363.66666666666663</ele><time>2026-05-01T11:04:24Z</time></trkpt><trkpt lat="44.901718065807685" lon="9.500736150577707"><ele>366.3333333333333</ele><time>2026-05-01T11:04:25Z</time></trkpt><trkpt lat="44.90165764010715" lon="9.500789395975119"><ele>369.0</ele><time>2026-05-01T11:04:26Z</time></trkpt><trkpt lat="44.901581113622456" lon="9.500838207836898"><ele>371.6666666666667</ele><time>2026-05-01T11:04:27Z</time></trkpt><trkpt lat="44.90151427609025" lon="9.500910174970667"><ele>374.33333333333337</ele><time>2026-05-01T11:04:28Z</time></trkpt><trkpt lat="44.90152061448812" lon="9.501043774321454"><ele>377.0</ele><time>2026-05-01T11:04:30Z</time></trkpt><trkpt lat="44.901548701168544" lon="9.501157116358282"><ele>377.0</ele><time>2026-05-01T11:04:31Z</time></trkpt><trkpt lat="44.90155820806216" lon="9.501248289559404"><ele>377.0</ele><time>2026-05-01T11:04:32Z</time></trkpt><trkpt lat="44.901501823611596" lon="9.50137257746988"><ele>377.0</ele><time>2026-05-01T11:04:34Z</time></trkpt><trkpt lat="44.90144446513369" lon="9.501463135089411"><ele>377.0</ele><time>2026-05-01T11:04:36Z</time></trkpt><trkpt lat="44.901402134150594" lon="9.501554991571782"><ele>377.0</ele><time>2026-05-01T11:04:38Z</time></trkpt><trkpt lat="44.90133099568796" lon="9.501691858757905"><ele>377.8</ele><time>2026-05-01T11:04:40Z</time></trkpt><trkpt lat="44.90128651602725" lon="9.50177767074575"><ele>378.6</ele><time>2026-05-01T11:04:41Z</time></trkpt><trkpt lat="44.90123939292393" lon="9.501875080037285"><ele>379.40000000000003</ele><time>2026-05-01T11:04:42Z</time></trkpt><trkpt lat="44.90118219484345" lon="9.501991079583966"><ele>380.20000000000005</ele><time>2026-05-01T11:04:43Z</time></trkpt><trkpt lat="44.901127185711914" lon="9.502115494618119"><ele>381.0</ele><time>2026-05-01T11:04:44Z</time></trkpt><trkpt lat="44.901083294106186" lon="9.502242495830329"><ele>384.0</ele><time>2026-05-01T11:04:45Z</time></trkpt><trkpt lat="44.90105080397485" lon="9.50237376282523"><ele>387.0</ele><time>2026-05-01T11:04:46Z</time></trkpt><trkpt lat="44.90104820814135" lon="9.502489206210077"><ele>390.0</ele><time>2026-05-01T11:04:47Z</time></trkpt><trkpt lat="44.90105451906642" lon="9.502619673716406"><ele>393.0</ele><time>2026-05-01T11:04:48Z</time></trkpt><trkpt lat="44.90107744102503" lon="9.50274247046257"><ele>396.0</ele><time>2026-05-01T11:04:49Z</time></trkpt><trkpt lat="44.901122983339626" lon="9.502880880014255"><ele>398.0</ele><time>2026-05-01T11:04:50Z</time></trkpt><trkpt lat="44.90117383558372" lon="9.503038664288313"><ele>400.0</ele><time>2026-05-01T11:04:51Z</time></trkpt><trkpt lat="44.901209450615575" lon="9.503212440917531"><ele>402.0</ele><time>2026-05-01T11:04:52Z</time></trkpt><trkpt lat="44.90122938310224" lon="9.503376813380033"><ele>404.0</ele><time>2026-05-01T11:04:53Z</time></trkpt><trkpt lat="44.90125286804097" lon="9.50352977660081"><ele>403.99999999999994</ele><time>2026-05-01T11:04:54Z</time></trkpt><trkpt lat="44.901280464359075" lon="9.503665549024106"><ele>404.0</ele><time>2026-05-01T11:04:55Z</time></trkpt><trkpt lat="44.90130156037852" lon="9.503771245140724"><ele>404.0</ele><time>2026-05-01T11:04:56Z</time></trkpt><trkpt lat="44.90127677156583" lon="9.503894795327554"><ele>404.0</ele><time>2026-05-01T11:04:58Z</time></trkpt><trkpt lat="44.901189176521726" lon="9.50392891893051"><ele>403.99999999999994</ele><time>2026-05-01T11:05:00Z</time></trkpt><trkpt lat="44.90112694733992" lon="9.503959148585347"><ele>404.0</ele><time>2026-05-01T11:05:01Z</time></trkpt><trkpt lat="44.90104054995372" lon="9.504052237743897"><ele>403.6</ele><time>2026-05-01T11:05:03Z</time></trkpt><trkpt lat="44.9010057770554" lon="9.504141742447523"><ele>403.2</ele><time>2026-05-01T11:05:06Z</time></trkpt><trkpt lat="44.90099725518623" lon="9.504270851213304"><ele>402.8</ele><time>2026-05-01T11:05:15.999Z</time></trkpt><trkpt lat="44.90092489083389" lon="9.504429686467603"><ele>402.40000000000003</ele><time>2026-05-01T11:05:17.999Z</time></trkpt><trkpt lat="44.9009021615831" lon="9.50454459308398"><ele>402.0</ele><time>2026-05-01T11:05:18.999Z</time></trkpt><trkpt lat="44.900878188577636" lon="9.504686059964646"><ele>402.0</ele><time>2026-05-01T11:05:19.999Z</time></trkpt><trkpt lat="44.900834793544256" lon="9.504835839189692"><ele>402.0</ele><time>2026-05-01T11:05:20.999Z</time></trkpt><trkpt lat="44.9007842364087" lon="9.504998887560884"><ele>402.0</ele><time>2026-05-01T11:05:22Z</time></trkpt><trkpt lat="44.90073111686516" lon="9.505139197057801"><ele>402.0</ele><time>2026-05-01T11:05:23Z</time></trkpt><trkpt lat="44.900685871785164" lon="9.50525922420657"><ele>402.0</ele><time>2026-05-01T11:05:24Z</time></trkpt><trkpt lat="44.90065219771288" lon="9.505357955490366"><ele>402.0</ele><time>2026-05-01T11:05:26Z</time></trkpt><trkpt lat="44.900670899478605" lon="9.505454751961764"><ele>402.0</ele><time>2026-05-01T11:05:28Z</time></trkpt><trkpt lat="44.900657692687474" lon="9.505635091271499"><ele>402.0</ele><time>2026-05-01T11:05:30Z</time></trkpt><trkpt lat="44.900652656010664" lon="9.505770655354988"><ele>402.0</ele><time>2026-05-01T11:05:31Z</time></trkpt><trkpt lat="44.900668920620866" lon="9.505902365078676"><ele>402.8333333333333</ele><time>2026-05-01T11:05:32Z</time></trkpt><trkpt lat="44.90069528861322" lon="9.506019831637841"><ele>403.66666666666663</ele><time>2026-05-01T11:05:33Z</time></trkpt><trkpt lat="44.90072469959309" lon="9.506127543790388"><ele>404.5</ele><time>2026-05-01T11:05:34Z</time></trkpt><trkpt lat="44.900752722898254" lon="9.506257411078835"><ele>405.3333333333333</ele><time>2026-05-01T11:05:35Z</time></trkpt><trkpt lat="44.900789481142176" lon="9.506381258902737"><ele>406.16666666666663</ele><time>2026-05-01T11:05:36Z</time></trkpt><trkpt lat="44.90081359805923" lon="9.506485257155775"><ele>407.0</ele><time>2026-05-01T11:05:37Z</time></trkpt><trkpt lat="44.90083802689308" lon="9.506600465095213"><ele>409.0</ele><time>2026-05-01T11:05:38Z</time></trkpt><trkpt lat="44.90085152739193" lon="9.506715572927058"><ele>411.0</ele><time>2026-05-01T11:05:39Z</time></trkpt><trkpt lat="44.90084866378046" lon="9.506850893726915"><ele>413.0</ele><time>2026-05-01T11:05:40Z</time></trkpt><trkpt lat="44.900850461401284" lon="9.506978157333304"><ele>415.0</ele><time>2026-05-01T11:05:41Z</time></trkpt><trkpt lat="44.90086087385311" lon="9.507101060986326"><ele>417.0</ele><time>2026-05-01T11:05:42Z</time></trkpt><trkpt lat="44.900864031749265" lon="9.507244768984458"><ele>419.0</ele><time>2026-05-01T11:05:44Z</time></trkpt><trkpt lat="44.900833754116746" lon="9.507378703429248"><ele>421.0</ele><time>2026-05-01T11:05:47Z</time></trkpt><trkpt lat="44.90083681606898" lon="9.507482991503077"><ele>423.0</ele><time>2026-05-01T11:06:15Z</time></trkpt><trkpt lat="44.90081252396027" lon="9.507576249615104"><ele>425.0</ele><time>2026-05-01T11:06:16Z</time></trkpt><trkpt lat="44.90077317039264" lon="9.50766088513079"><ele>427.0</ele><time>2026-05-01T11:06:17Z</time></trkpt><trkpt lat="44.90071537414025" lon="9.507720297378043"><ele>429.0</ele><time>2026-05-01T11:06:18Z</time></trkpt><trkpt lat="44.9006200717798" lon="9.507747848224227"><ele>429.0</ele><time>2026-05-01T11:06:19Z</time></trkpt><trkpt lat="44.900518002868424" lon="9.507784709084438"><ele>429.0</ele><time>2026-05-01T11:06:20Z</time></trkpt><trkpt lat="44.90040152785608" lon="9.50785912279795"><ele>429.0</ele><time>2026-05-01T11:06:21Z</time></trkpt><trkpt lat="44.90027905894437" lon="9.507939875776833"><ele>429.0</ele><time>2026-05-01T11:06:22Z</time></trkpt><trkpt lat="44.90019344084611" lon="9.50799781351941"><ele>430.79999999999995</ele><time>2026-05-01T11:06:23Z</time></trkpt><trkpt lat="44.900120965810956" lon="9.508048561232021"><ele>432.59999999999997</ele><time>2026-05-01T11:06:24Z</time></trkpt><trkpt lat="44.900052988002805" lon="9.508116576966971"><ele>434.4</ele><time>2026-05-01T11:06:25Z</time></trkpt><trkpt lat="44.89998655007042" lon="9.508207839731739"><ele>436.2</ele><time>2026-05-01T11:06:26Z</time></trkpt><trkpt lat="44.89991621082574" lon="9.508297612302426"><ele>438.0</ele><time>2026-05-01T11:06:27Z</time></trkpt><trkpt lat="44.89980637393706" lon="9.508387236837375"><ele>438.0</ele><time>2026-05-01T11:06:28Z</time></trkpt><trkpt lat="44.899703177558294" lon="9.50845313084175"><ele>437.99999999999994</ele><time>2026-05-01T11:06:29Z</time></trkpt><trkpt lat="44.89959405769665" lon="9.508497488731669"><ele>437.99999999999994</ele><time>2026-05-01T11:06:30Z</time></trkpt><trkpt lat="44.89947831502437" lon="9.508516050411572"><ele>438.0</ele><time>2026-05-01T11:06:31Z</time></trkpt><trkpt lat="44.899373975648736" lon="9.50849546353697"><ele>438.0</ele><time>2026-05-01T11:06:32Z</time></trkpt><trkpt lat="44.899308762519894" lon="9.508493744057427"><ele>439.59999999999997</ele><time>2026-05-01T11:06:33Z</time></trkpt><trkpt lat="44.89921040986646" lon="9.50856389940946"><ele>441.19999999999993</ele><time>2026-05-01T11:06:35Z</time></trkpt><trkpt lat="44.899143248099" lon="9.508631826365368"><ele>442.8</ele><time>2026-05-01T11:06:36Z</time></trkpt><trkpt lat="44.899045072045894" lon="9.508715163753447"><ele>444.4</ele><time>2026-05-01T11:06:37Z</time></trkpt><trkpt lat="44.89895202566734" lon="9.508788185816888"><ele>446.0</ele><time>2026-05-01T11:06:38Z</time></trkpt><trkpt lat="44.89887400264877" lon="9.508871049069228"><ele>447.4</ele><time>2026-05-01T11:06:39Z</time></trkpt><trkpt lat="44.89878926802889" lon="9.508963939864291"><ele>448.8</ele><time>2026-05-01T11:06:40Z</time></trkpt><trkpt lat="44.8986930199616" lon="9.509023979173534"><ele>450.19999999999993</ele><time>2026-05-01T11:06:41Z</time></trkpt><trkpt lat="44.89858914904551" lon="9.509056295222262"><ele>451.59999999999997</ele><time>2026-05-01T11:06:42Z</time></trkpt><trkpt lat="44.89847313253668" lon="9.509092004416354"><ele>453.0</ele><time>2026-05-01T11:06:43Z</time></trkpt><trkpt lat="44.89836227620452" lon="9.509147379206453"><ele>454.8333333333333</ele><time>2026-05-01T11:06:44Z</time></trkpt><trkpt lat="44.8982677483153" lon="9.509181846450579"><ele>456.66666666666663</ele><time>2026-05-01T11:06:45Z</time></trkpt><trkpt lat="44.89820467532224" lon="9.509212052562097"><ele>458.5</ele><time>2026-05-01T11:06:46Z</time></trkpt><trkpt lat="44.89812864006207" lon="9.50932942260324"><ele>460.3333333333333</ele><time>2026-05-01T11:06:48Z</time></trkpt><trkpt lat="44.89810493708421" lon="9.509427036048972"><ele>462.16666666666663</ele><time>2026-05-01T11:06:49Z</time></trkpt><trkpt lat="44.898083454351976" lon="9.509549627414254"><ele>464.0</ele><time>2026-05-01T11:06:50Z</time></trkpt><trkpt lat="44.89807050742569" lon="9.509685863463384"><ele>465.75</ele><time>2026-05-01T11:06:51Z</time></trkpt><trkpt lat="44.89805611383141" lon="9.509824802769915"><ele>467.5</ele><time>2026-05-01T11:06:52Z</time></trkpt><trkpt lat="44.8980370824524" lon="9.50999208635643"><ele>469.25</ele><time>2026-05-01T11:06:53Z</time></trkpt><trkpt lat="44.89800484843324" lon="9.510183745279145"><ele>471.0</ele><time>2026-05-01T11:06:54Z</time></trkpt><trkpt lat="44.89797085774444" lon="9.51039848285125"><ele>474.33333333333337</ele><time>2026-05-01T11:06:55Z</time></trkpt><trkpt lat="44.89792489126696" lon="9.51063545768556"><ele>477.6666666666667</ele><time>2026-05-01T11:06:56Z</time></trkpt><trkpt lat="44.89787456884845" lon="9.510882086171089"><ele>481.0</ele><time>2026-05-01T11:06:57Z</time></trkpt><trkpt lat="44.89781520959589" lon="9.511134942813397"><ele>483.33333333333337</ele><time>2026-05-01T11:06:58Z</time></trkpt><trkpt lat="44.897755433846356" lon="9.51135485579702"><ele>485.66666666666663</ele><time>2026-05-01T11:06:59Z</time></trkpt><trkpt lat="44.897701096546974" lon="9.511555978385044"><ele>488.0</ele><time>2026-05-01T11:07:00Z</time></trkpt><trkpt lat="44.897665753831255" lon="9.511739789443928"><ele>488.0</ele><time>2026-05-01T11:07:01Z</time></trkpt><trkpt lat="44.89764831374278" lon="9.51187350032402"><ele>487.99999999999994</ele><time>2026-05-01T11:07:02Z</time></trkpt><trkpt lat="44.89762562544107" lon="9.512019729382086"><ele>487.99999999999994</ele><time>2026-05-01T11:07:03Z</time></trkpt><trkpt lat="44.89760321442055" lon="9.512172566386129"><ele>488.0</ele><time>2026-05-01T11:07:04Z</time></trkpt><trkpt lat="44.89758340479737" lon="9.512330112480013"><ele>488.0</ele><time>2026-05-01T11:07:05Z</time></trkpt><trkpt lat="44.89756366131525" lon="9.51249264163229"><ele>490.2</ele><time>2026-05-01T11:07:06Z</time></trkpt><trkpt lat="44.897556211278506" lon="9.512652094855168"><ele>492.4</ele><time>2026-05-01T11:07:07Z</time></trkpt><trkpt lat="44.89756232680407" lon="9.512801170250361"><ele>494.59999999999997</ele><time>2026-05-01T11:07:08Z</time></trkpt><trkpt lat="44.89758862641244" lon="9.51293647253063"><ele>496.79999999999995</ele><time>2026-05-01T11:07:09Z</time></trkpt><trkpt lat="44.89763337076609" lon="9.51305769806931"><ele>499.0</ele><time>2026-05-01T11:07:10Z</time></trkpt><trkpt lat="44.89769367804019" lon="9.513160495704666"><ele>501.2</ele><time>2026-05-01T11:07:11Z</time></trkpt><trkpt lat="44.89777199928986" lon="9.513257646484515"><ele>503.4</ele><time>2026-05-01T11:07:12Z</time></trkpt><trkpt lat="44.89784071167307" lon="9.513340297855084"><ele>505.6</ele><time>2026-05-01T11:07:13Z</time></trkpt><trkpt lat="44.897909025597535" lon="9.513436559083662"><ele>507.8</ele><time>2026-05-01T11:07:14Z</time></trkpt><trkpt lat="44.897985708365866" lon="9.513525499067441"><ele>510.0</ele><time>2026-05-01T11:07:15Z</time></trkpt><trkpt lat="44.89806204634831" lon="9.513609403210488"><ele>510.0</ele><time>2026-05-01T11:07:16Z</time></trkpt><trkpt lat="44.89812575766468" lon="9.513705469279548"><ele>510.0</ele><time>2026-05-01T11:07:17Z</time></trkpt><trkpt lat="44.898189533267654" lon="9.51381134441118"><ele>510.0</ele><time>2026-05-01T11:07:18Z</time></trkpt><trkpt lat="44.89824028668287" lon="9.513927553061583"><ele>510.0</ele><time>2026-05-01T11:07:19Z</time></trkpt><trkpt lat="44.89829551641395" lon="9.514045157697344"><ele>510.0</ele><time>2026-05-01T11:07:20Z</time></trkpt><trkpt lat="44.898351298112736" lon="9.514158609750773"><ele>511.5</ele><time>2026-05-01T11:07:21Z</time></trkpt><trkpt lat="44.8984115537455" lon="9.514279614160884"><ele>513.0</ele><time>2026-05-01T11:07:22Z</time></trkpt><trkpt lat="44.89846936584914" lon="9.514411688191583"><ele>514.5</ele><time>2026-05-01T11:07:23Z</time></trkpt><trkpt lat="44.89852336348107" lon="9.5145631055469"><ele>516.0</ele><time>2026-05-01T11:07:24Z</time></trkpt><trkpt lat="44.89856236490029" lon="9.514725136900953"><ele>518.5</ele><time>2026-05-01T11:07:25Z</time></trkpt><trkpt lat="44.89858893719595" lon="9.514874173031107"><ele>521.0</ele><time>2026-05-01T11:07:26Z</time></trkpt><trkpt lat="44.89860852687627" lon="9.515049323794152"><ele>523.5</ele><time>2026-05-01T11:07:27Z</time></trkpt><trkpt lat="44.898627946534674" lon="9.515229998405571"><ele>526.0</ele><time>2026-05-01T11:07:28Z</time></trkpt><trkpt lat="44.89864248594479" lon="9.515396610097968"><ele>527.3333333333334</ele><time>2026-05-01T11:07:29Z</time></trkpt><trkpt lat="44.89864972344384" lon="9.515529040411352"><ele>528.6666666666667</ele><time>2026-05-01T11:07:30Z</time></trkpt><trkpt lat="44.8986511349656" lon="9.515642047751266"><ele>530.0</ele><time>2026-05-01T11:07:31Z</time></trkpt><trkpt lat="44.898657006793904" lon="9.515800517330929"><ele>531.3333333333334</ele><time>2026-05-01T11:07:33Z</time></trkpt><trkpt lat="44.8986720193708" lon="9.51589252023185"><ele>532.6666666666666</ele><time>2026-05-01T11:07:35Z</time></trkpt><trkpt lat="44.898626890910215" lon="9.515994125143827"><ele>534.0</ele><time>2026-05-01T11:07:52Z</time></trkpt><trkpt lat="44.8985224392141" lon="9.51607597388364"><ele>534.0</ele><time>2026-05-01T11:07:54Z</time></trkpt><trkpt lat="44.89844467315698" lon="9.516098392974"><ele>534.0</ele><time>2026-05-01T11:07:55Z</time></trkpt><trkpt lat="44.89836412034088" lon="9.51614828067808"><ele>534.0</ele><time>2026-05-01T11:07:56Z</time></trkpt><trkpt lat="44.898278770431475" lon="9.516206920195968"><ele>534.0</ele><time>2026-05-01T11:07:57Z</time></trkpt><trkpt lat="44.89819179660342" lon="9.516274489898764"><ele>534.0</ele><time>2026-05-01T11:07:58Z</time></trkpt><trkpt lat="44.898106623291284" lon="9.516361323539599"><ele>533.6</ele><time>2026-05-01T11:07:59Z</time></trkpt><trkpt lat="44.89802728517695" lon="9.516469346754626"><ele>533.2</ele><time>2026-05-01T11:08:00Z</time></trkpt><trkpt lat="44.89795427047292" lon="9.516584642312711"><ele>532.8000000000001</ele><time>2026-05-01T11:08:01Z</time></trkpt><trkpt lat="44.89788699447134" lon="9.516685345827462"><ele>532.4</ele><time>2026-05-01T11:08:02Z</time></trkpt><trkpt lat="44.89781918532036" lon="9.516755252856685"><ele>532.0</ele><time>2026-05-01T11:08:03Z</time></trkpt><trkpt lat="44.89774418385621" lon="9.516792891167047"><ele>532.0</ele><time>2026-05-01T11:08:04Z</time></trkpt><trkpt lat="44.89765084687529" lon="9.516788396350739"><ele>532.0</ele><time>2026-05-01T11:08:05Z</time></trkpt><trkpt lat="44.89754724686636" lon="9.516749766628385"><ele>532.0</ele><time>2026-05-01T11:08:06Z</time></trkpt><trkpt lat="44.89744149595084" lon="9.51666719616087"><ele>532.0</ele><time>2026-05-01T11:08:07Z</time></trkpt><trkpt lat="44.89732879591372" lon="9.516568917914551"><ele>534.25</ele><time>2026-05-01T11:08:08Z</time></trkpt><trkpt lat="44.897209100288954" lon="9.516468637864355"><ele>536.5</ele><time>2026-05-01T11:08:09Z</time></trkpt><trkpt lat="44.89708308968103" lon="9.516368311665643"><ele>538.75</ele><time>2026-05-01T11:08:10Z</time></trkpt><trkpt lat="44.89695982615053" lon="9.516297141185337"><ele>541.0</ele><time>2026-05-01T11:08:11Z</time></trkpt><trkpt lat="44.89682721590442" lon="9.51627180540159"><ele>537.6666666666667</ele><time>2026-05-01T11:08:12Z</time></trkpt><trkpt lat="44.89667926295348" lon="9.516297465967195"><ele>534.3333333333334</ele><time>2026-05-01T11:08:13Z</time></trkpt><trkpt lat="44.89651124807124" lon="9.516361641274246"><ele>531.0</ele><time>2026-05-01T11:08:14Z</time></trkpt><trkpt lat="44.89634982741395" lon="9.516428072674039"><ele>531.0</ele><time>2026-05-01T11:08:15Z</time></trkpt><trkpt lat="44.896212155048204" lon="9.516483317362894"><ele>531.0</ele><time>2026-05-01T11:08:16Z</time></trkpt><trkpt lat="44.896073233022356" lon="9.51648652419706"><ele>531.0</ele><time>2026-05-01T11:08:17Z</time></trkpt><trkpt lat="44.89597710767952" lon="9.516519540613965"><ele>531.0</ele><time>2026-05-01T11:08:18Z</time></trkpt><trkpt lat="44.89590113256524" lon="9.516545744492618"><ele>531.0</ele><time>2026-05-01T11:08:19Z</time></trkpt><trkpt lat="44.895804698331915" lon="9.516533655899355"><ele>531.0</ele><time>2026-05-01T11:08:21Z</time></trkpt><trkpt lat="44.89591830995385" lon="9.516542014559482"><ele>531.0</ele><time>2026-05-01T11:08:26Z</time></trkpt><trkpt lat="44.89602093416583" lon="9.516480741278894"><ele>531.0</ele><time>2026-05-01T11:08:27Z</time></trkpt><trkpt lat="44.896115705310535" lon="9.516446114841544"><ele>531.0</ele><time>2026-05-01T11:08:28Z</time></trkpt><trkpt lat="44.89617934319265" lon="9.516428041103218"><ele>531.0</ele><time>2026-05-01T11:08:29Z</time></trkpt><trkpt lat="44.89624358455843" lon="9.516423930978636"><ele>531.0</ele><time>2026-05-01T11:08:31Z</time></trkpt><trkpt lat="44.89626193988355" lon="9.51655231805334"><ele>531.0</ele><time>2026-05-01T11:08:33Z</time></trkpt><trkpt lat="44.89620779407462" lon="9.516728687875325"><ele>531.0</ele><time>2026-05-01T11:08:35Z</time></trkpt><trkpt lat="44.89615817440077" lon="9.516835074004899"><ele>531.0</ele><time>2026-05-01T11:08:36Z</time></trkpt><trkpt lat="44.89611368632378" lon="9.516951541453684"><ele>529.5</ele><time>2026-05-01T11:08:37Z</time></trkpt><trkpt lat="44.89607658935654" lon="9.517107563437946"><ele>528.0</ele><time>2026-05-01T11:08:38Z</time></trkpt><trkpt lat="44.89605584229715" lon="9.517297027282638"><ele>526.5</ele><time>2026-05-01T11:08:39Z</time></trkpt><trkpt lat="44.89605627681493" lon="9.517483963952001"><ele>525.0</ele><time>2026-05-01T11:08:40Z</time></trkpt><trkpt lat="44.89606188383887" lon="9.517632534857592"><ele>525.0</ele><time>2026-05-01T11:08:41Z</time></trkpt><trkpt lat="44.89606271874586" lon="9.517756827872718"><ele>525.0</ele><time>2026-05-01T11:08:42Z</time></trkpt><trkpt lat="44.89605581445437" lon="9.517847099865008"><ele>525.0</ele><time>2026-05-01T11:08:43Z</time></trkpt><trkpt lat="44.89598236593777" lon="9.51799503734228"><ele>525.0</ele><time>2026-05-01T11:08:45Z</time></trkpt><trkpt lat="44.89591618589275" lon="9.518075001774566"><ele>525.0</ele><time>2026-05-01T11:08:46Z</time></trkpt><trkpt lat="44.89584467520558" lon="9.518178094273683"><ele>524.3333333333334</ele><time>2026-05-01T11:08:47Z</time></trkpt><trkpt lat="44.89578004369776" lon="9.518272981628337"><ele>523.6666666666666</ele><time>2026-05-01T11:08:48Z</time></trkpt><trkpt lat="44.89570972926257" lon="9.518363260215994"><ele>523.0</ele><time>2026-05-01T11:08:49Z</time></trkpt><trkpt lat="44.895656014501434" lon="9.518439275630863"><ele>522.3333333333333</ele><time>2026-05-01T11:08:50Z</time></trkpt><trkpt lat="44.89559421998343" lon="9.518502002451163"><ele>521.6666666666666</ele><time>2026-05-01T11:08:51Z</time></trkpt><trkpt lat="44.89553623709028" lon="9.518551974396084"><ele>521.0</ele><time>2026-05-01T11:08:52Z</time></trkpt><trkpt lat="44.89544990345075" lon="9.51858723024292"><ele>521.0</ele><time>2026-05-01T11:08:53Z</time></trkpt><trkpt lat="44.89536422942603" lon="9.518626181832936"><ele>521.0</ele><time>2026-05-01T11:08:54Z</time></trkpt><trkpt lat="44.8952878061337" lon="9.518678714231678"><ele>521.0</ele><time>2026-05-01T11:08:55Z</time></trkpt><trkpt lat="44.89521151398601" lon="9.518752002333578"><ele>521.0</ele><time>2026-05-01T11:08:56Z</time></trkpt><trkpt lat="44.8951430610485" lon="9.518818662122756"><ele>521.0</ele><time>2026-05-01T11:08:57Z</time></trkpt><trkpt lat="44.8950782988258" lon="9.518870467850725"><ele>521.0</ele><time>2026-05-01T11:08:58Z</time></trkpt><trkpt lat="44.89501691272305" lon="9.518899456373164"><ele>518.2</ele><time>2026-05-01T11:08:59Z</time></trkpt><trkpt lat="44.89493867401588" lon="9.518913569682551"><ele>515.4000000000001</ele><time>2026-05-01T11:09:00Z</time></trkpt><trkpt lat="44.89484993599547" lon="9.518898242408838"><ele>512.6</ele><time>2026-05-01T11:09:01Z</time></trkpt><trkpt lat="44.89475984930394" lon="9.518846774877307"><ele>509.8</ele><time>2026-05-01T11:09:02Z</time></trkpt><trkpt lat="44.89467218629549" lon="9.518797803995884"><ele>507.0</ele><time>2026-05-01T11:09:03Z</time></trkpt><trkpt lat="44.8945590721571" lon="9.518741884591005"><ele>507.0</ele><time>2026-05-01T11:09:04Z</time></trkpt><trkpt lat="44.89445676035466" lon="9.51868165852537"><ele>507.0</ele><time>2026-05-01T11:09:05Z</time></trkpt><trkpt lat="44.8943652774111" lon="9.518632652693524"><ele>507.0</ele><time>2026-05-01T11:09:06Z</time></trkpt><trkpt lat="44.89428020304841" lon="9.518593357359519"><ele>507.0</ele><time>2026-05-01T11:09:07Z</time></trkpt><trkpt lat="44.894216948534286" lon="9.518553022188929"><ele>507.0</ele><time>2026-05-01T11:09:08Z</time></trkpt><trkpt lat="44.8941520213087" lon="9.518507944075665"><ele>507.0</ele><time>2026-05-01T11:09:09Z</time></trkpt><trkpt lat="44.894088733584674" lon="9.518453065994438"><ele>507.0</ele><time>2026-05-01T11:09:10Z</time></trkpt><trkpt lat="44.894029070202116" lon="9.518369520534964"><ele>507.0</ele><time>2026-05-01T11:09:11Z</time></trkpt><trkpt lat="44.893978151050355" lon="9.518266717705574"><ele>507.0</ele><time>2026-05-01T11:09:12Z</time></trkpt><trkpt lat="44.89392725253289" lon="9.518152662020734"><ele>507.0</ele><time>2026-05-01T11:09:13Z</time></trkpt><trkpt lat="44.89386380505357" lon="9.518060946721505"><ele>507.0</ele><time>2026-05-01T11:09:14Z</time></trkpt><trkpt lat="44.89380904559391" lon="9.51798721708222"><ele>507.0</ele><time>2026-05-01T11:09:15Z</time></trkpt><trkpt lat="44.8937370808771" lon="9.51793603294969"><ele>507.0</ele><time>2026-05-01T11:09:16Z</time></trkpt><trkpt lat="44.893660377251294" lon="9.517910300522628"><ele>507.00000000000006</ele><time>2026-05-01T11:09:17Z</time></trkpt><trkpt lat="44.893564756951754" lon="9.517915110619338"><ele>507.00000000000006</ele><time>2026-05-01T11:09:18Z</time></trkpt><trkpt lat="44.893474542694484" lon="9.517940502161045"><ele>507.0</ele><time>2026-05-01T11:09:18.999Z</time></trkpt><trkpt lat="44.89338665353651" lon="9.518011709160408"><ele>507.0</ele><time>2026-05-01T11:09:19.999Z</time></trkpt><trkpt lat="44.89330324054672" lon="9.518095609707636"><ele>505.3333333333333</ele><time>2026-05-01T11:09:20.999Z</time></trkpt><trkpt lat="44.89323415048598" lon="9.518147122271833"><ele>503.66666666666663</ele><time>2026-05-01T11:09:21.999Z</time></trkpt><trkpt lat="44.89317284546614" lon="9.518188131985422"><ele>502.0</ele><time>2026-05-01T11:09:22.999Z</time></trkpt><trkpt lat="44.89311182882936" lon="9.518225673048201"><ele>500.3333333333333</ele><time>2026-05-01T11:09:23.999Z</time></trkpt><trkpt lat="44.8930350082793" lon="9.518264531985059"><ele>498.66666666666663</ele><time>2026-05-01T11:09:24.999Z</time></trkpt><trkpt lat="44.89293892583807" lon="9.518298149050842"><ele>497.0</ele><time>2026-05-01T11:09:25.999Z</time></trkpt><trkpt lat="44.892842071653085" lon="9.518324265189573"><ele>497.0</ele><time>2026-05-01T11:09:26.999Z</time></trkpt><trkpt lat="44.89273116437734" lon="9.518352603540576"><ele>497.00000000000006</ele><time>2026-05-01T11:09:27.999Z</time></trkpt><trkpt lat="44.89264296437702" lon="9.518385894489784"><ele>497.00000000000006</ele><time>2026-05-01T11:09:28.999Z</time></trkpt><trkpt lat="44.89254302530465" lon="9.518430400164148"><ele>497.0</ele><time>2026-05-01T11:09:29.999Z</time></trkpt><trkpt lat="44.89243823184647" lon="9.518472615397815"><ele>497.0</ele><time>2026-05-01T11:09:30.999Z</time></trkpt><trkpt lat="44.89232947310829" lon="9.518484725171037"><ele>495.5</ele><time>2026-05-01T11:09:31.999Z</time></trkpt><trkpt lat="44.892214338004266" lon="9.518539030174408"><ele>494.0</ele><time>2026-05-01T11:09:32.999Z</time></trkpt><trkpt lat="44.892090233077816" lon="9.518603143021265"><ele>492.5</ele><time>2026-05-01T11:09:33.999Z</time></trkpt><trkpt lat="44.891964369826134" lon="9.518676184173875"><ele>491.0</ele><time>2026-05-01T11:09:34.999Z</time></trkpt><trkpt lat="44.89185136339176" lon="9.518743804475696"><ele>488.25</ele><time>2026-05-01T11:09:35.999Z</time></trkpt><trkpt lat="44.8917396828742" lon="9.518838084909587"><ele>485.5</ele><time>2026-05-01T11:09:36.999Z</time></trkpt><trkpt lat="44.89162297798777" lon="9.518948350793668"><ele>482.75</ele><time>2026-05-01T11:09:37.999Z</time></trkpt><trkpt lat="44.89151216742928" lon="9.519039815071007"><ele>480.0</ele><time>2026-05-01T11:09:38.999Z</time></trkpt><trkpt lat="44.89141448528637" lon="9.519137931835553"><ele>480.0</ele><time>2026-05-01T11:09:39.999Z</time></trkpt><trkpt lat="44.89133192096438" lon="9.519246972183113"><ele>480.0</ele><time>2026-05-01T11:09:40.999Z</time></trkpt><trkpt lat="44.8912471340219" lon="9.519383066423101"><ele>480.0</ele><time>2026-05-01T11:09:42Z</time></trkpt><trkpt lat="44.89117977318627" lon="9.519538959545384"><ele>480.0</ele><time>2026-05-01T11:09:43Z</time></trkpt><trkpt lat="44.89111829681427" lon="9.519653130904494"><ele>478.2</ele><time>2026-05-01T11:09:44Z</time></trkpt><trkpt lat="44.891033453899176" lon="9.51975768379093"><ele>476.4</ele><time>2026-05-01T11:09:45Z</time></trkpt><trkpt lat="44.89096696376514" lon="9.519873637810434"><ele>474.6</ele><time>2026-05-01T11:09:46Z</time></trkpt><trkpt lat="44.89093130679466" lon="9.520025375240067"><ele>472.8</ele><time>2026-05-01T11:09:47Z</time></trkpt><trkpt lat="44.89089540285136" lon="9.52016819099371"><ele>471.0</ele><time>2026-05-01T11:09:48Z</time></trkpt><trkpt lat="44.89085143253251" lon="9.52028682832853"><ele>468.20000000000005</ele><time>2026-05-01T11:09:49Z</time></trkpt><trkpt lat="44.8908100975043" lon="9.520411087612212"><ele>465.40000000000003</ele><time>2026-05-01T11:09:50Z</time></trkpt><trkpt lat="44.89074622271343" lon="9.520513467197526"><ele>462.6</ele><time>2026-05-01T11:09:51Z</time></trkpt><trkpt lat="44.890675971858634" lon="9.52059499480158"><ele>459.8</ele><time>2026-05-01T11:09:52Z</time></trkpt><trkpt lat="44.8905987958108" lon="9.520655154886867"><ele>457.0</ele><time>2026-05-01T11:09:53Z</time></trkpt><trkpt lat="44.89051845983032" lon="9.520704840605864"><ele>457.0</ele><time>2026-05-01T11:09:54Z</time></trkpt><trkpt lat="44.89041436447849" lon="9.5207454814748"><ele>457.00000000000006</ele><time>2026-05-01T11:09:55Z</time></trkpt><trkpt lat="44.890311288051436" lon="9.520758666615022"><ele>457.00000000000006</ele><time>2026-05-01T11:09:56Z</time></trkpt><trkpt lat="44.89020081953166" lon="9.520780954479289"><ele>457.0</ele><time>2026-05-01T11:09:57Z</time></trkpt><trkpt lat="44.89009255819361" lon="9.520816046768726"><ele>457.0</ele><time>2026-05-01T11:09:58Z</time></trkpt><trkpt lat="44.88998460588212" lon="9.520857142672925"><ele>457.0</ele><time>2026-05-01T11:09:59Z</time></trkpt><trkpt lat="44.889870794916526" lon="9.52091144763876"><ele>457.00000000000006</ele><time>2026-05-01T11:10:00Z</time></trkpt><trkpt lat="44.88975609607282" lon="9.520971885418643"><ele>457.00000000000006</ele><time>2026-05-01T11:10:01Z</time></trkpt><trkpt lat="44.88965654960286" lon="9.521046597376769"><ele>457.0</ele><time>2026-05-01T11:10:02Z</time></trkpt><trkpt lat="44.88957891275964" lon="9.521106051654689"><ele>457.0</ele><time>2026-05-01T11:10:03Z</time></trkpt><trkpt lat="44.889501775705625" lon="9.521143672496144"><ele>457.00000000000006</ele><time>2026-05-01T11:10:04Z</time></trkpt><trkpt lat="44.88942262013071" lon="9.521157566601183"><ele>457.0</ele><time>2026-05-01T11:10:05Z</time></trkpt><trkpt lat="44.889339848432535" lon="9.521151582170098"><ele>457.0</ele><time>2026-05-01T11:10:06Z</time></trkpt><trkpt lat="44.88928482672071" lon="9.521107250684928"><ele>457.0</ele><time>2026-05-01T11:10:07Z</time></trkpt><trkpt lat="44.889186375297655" lon="9.521046833867626"><ele>457.00000000000006</ele><time>2026-05-01T11:10:09Z</time></trkpt><trkpt lat="44.889134546895534" lon="9.521099781788488"><ele>457.0</ele><time>2026-05-01T11:10:10Z</time></trkpt><trkpt lat="44.88910702911648" lon="9.521184452007342"><ele>453.0</ele><time>2026-05-01T11:10:11Z</time></trkpt><trkpt lat="44.889147811366556" lon="9.52128695393177"><ele>449.00000000000006</ele><time>2026-05-01T11:10:12Z</time></trkpt><trkpt lat="44.88919195764469" lon="9.521354065410305"><ele>445.00000000000006</ele><time>2026-05-01T11:10:13Z</time></trkpt><trkpt lat="44.889271849199105" lon="9.521399764982663"><ele>441.0</ele><time>2026-05-01T11:10:15Z</time></trkpt><trkpt lat="44.889373645366646" lon="9.521429773269121"><ele>437.0</ele><time>2026-05-01T11:10:17Z</time></trkpt><trkpt lat="44.8894908008762" lon="9.52146605726216"><ele>437.0</ele><time>2026-05-01T11:10:19Z</time></trkpt><trkpt lat="44.88955571534399" lon="9.521498873349255"><ele>437.0</ele><time>2026-05-01T11:10:20Z</time></trkpt><trkpt lat="44.889615883438346" lon="9.521532108423369"><ele>437.0</ele><time>2026-05-01T11:10:21Z</time></trkpt><trkpt lat="44.88967446179785" lon="9.52158020473824"><ele>437.0</ele><time>2026-05-01T11:10:22Z</time></trkpt><trkpt lat="44.88972697203622" lon="9.521634654875786"><ele>437.0</ele><time>2026-05-01T11:10:23Z</time></trkpt><trkpt lat="44.88977452546242" lon="9.521701470450045"><ele>437.0</ele><time>2026-05-01T11:10:24Z</time></trkpt><trkpt lat="44.88982087829252" lon="9.521776114110295"><ele>437.0</ele><time>2026-05-01T11:10:25Z</time></trkpt><trkpt lat="44.889863675334226" lon="9.521858592599893"><ele>436.99999999999994</ele><time>2026-05-01T11:10:26Z</time></trkpt><trkpt lat="44.88990349204416" lon="9.52195896114075"><ele>437.0</ele><time>2026-05-01T11:10:27Z</time></trkpt><trkpt lat="44.889946633633684" lon="9.522040930950299"><ele>437.0</ele><time>2026-05-01T11:10:28Z</time></trkpt><trkpt lat="44.890000591680845" lon="9.52210448523008"><ele>437.0</ele><time>2026-05-01T11:10:29Z</time></trkpt><trkpt lat="44.89006157157016" lon="9.52218504345666"><ele>436.99999999999994</ele><time>2026-05-01T11:10:30Z</time></trkpt><trkpt lat="44.890134347246814" lon="9.522267116243425"><ele>437.0</ele><time>2026-05-01T11:10:31Z</time></trkpt><trkpt lat="44.890206370842094" lon="9.5223217725097"><ele>434.66666666666663</ele><time>2026-05-01T11:10:32Z</time></trkpt><trkpt lat="44.89028218906677" lon="9.522368585432137"><ele>432.3333333333333</ele><time>2026-05-01T11:10:33Z</time></trkpt><trkpt lat="44.89036026223826" lon="9.522409264815812"><ele>430.0</ele><time>2026-05-01T11:10:34Z</time></trkpt><trkpt lat="44.890436794851425" lon="9.522426405310524"><ele>427.66666666666663</ele><time>2026-05-01T11:10:35Z</time></trkpt><trkpt lat="44.890526858273" lon="9.522423321994623"><ele>425.3333333333333</ele><time>2026-05-01T11:10:36Z</time></trkpt><trkpt lat="44.89061953735185" lon="9.522430453412404"><ele>423.0</ele><time>2026-05-01T11:10:37Z</time></trkpt><trkpt lat="44.8907089380704" lon="9.522450338977078"><ele>423.0</ele><time>2026-05-01T11:10:38Z</time></trkpt><trkpt lat="44.89079102779063" lon="9.522463467094893"><ele>423.0</ele><time>2026-05-01T11:10:39Z</time></trkpt><trkpt lat="44.890871367745696" lon="9.522486009140993"><ele>423.0</ele><time>2026-05-01T11:10:40Z</time></trkpt><trkpt lat="44.89094544760913" lon="9.522519058200535"><ele>423.0</ele><time>2026-05-01T11:10:41Z</time></trkpt><trkpt lat="44.891003381458106" lon="9.52256535795653"><ele>423.0</ele><time>2026-05-01T11:10:42Z</time></trkpt><trkpt lat="44.89105526791493" lon="9.522624564423664"><ele>423.0</ele><time>2026-05-01T11:10:43Z</time></trkpt><trkpt lat="44.89110788470041" lon="9.522776787894243"><ele>423.0</ele><time>2026-05-01T11:10:45Z</time></trkpt><trkpt lat="44.89108575389607" lon="9.522918492133929"><ele>423.0</ele><time>2026-05-01T11:10:47Z</time></trkpt><trkpt lat="44.891052556485924" lon="9.523009867633194"><ele>423.0</ele><time>2026-05-01T11:10:50Z</time></trkpt><trkpt lat="44.890993454689905" lon="9.522927991006277"><ele>423.0</ele><time>2026-05-01T11:10:52Z</time></trkpt><trkpt lat="44.89103718107623" lon="9.52286302510554"><ele>423.0</ele><time>2026-05-01T11:10:54Z</time></trkpt><trkpt lat="44.89094753148181" lon="9.52284816398475"><ele>423.0</ele><time>2026-05-01T11:10:58Z</time></trkpt><trkpt lat="44.89084125575122" lon="9.522797412089297"><ele>423.0</ele><time>2026-05-01T11:11:00Z</time></trkpt><trkpt lat="44.89072177159157" lon="9.52274425017084"><ele>423.0</ele><time>2026-05-01T11:11:02Z</time></trkpt><trkpt lat="44.89059262805563" lon="9.522752593776122"><ele>423.0</ele><time>2026-05-01T11:11:04Z</time></trkpt><trkpt lat="44.89052432594172" lon="9.52277312911364"><ele>423.0</ele><time>2026-05-01T11:11:05Z</time></trkpt><trkpt lat="44.89045618753746" lon="9.522820881497495"><ele>423.0</ele><time>2026-05-01T11:11:06Z</time></trkpt><trkpt lat="44.8904020594587" lon="9.522883154243539"><ele>422.1666666666667</ele><time>2026-05-01T11:11:07Z</time></trkpt><trkpt lat="44.8903284045358" lon="9.522934549445901"><ele>421.33333333333337</ele><time>2026-05-01T11:11:08Z</time></trkpt><trkpt lat="44.8902659228182" lon="9.523002039427881"><ele>420.5</ele><time>2026-05-01T11:11:09Z</time></trkpt><trkpt lat="44.89019716628654" lon="9.523077864057438"><ele>419.6666666666667</ele><time>2026-05-01T11:11:10Z</time></trkpt><trkpt lat="44.890126775916244" lon="9.523150162615929"><ele>418.83333333333337</ele><time>2026-05-01T11:11:11Z</time></trkpt><trkpt lat="44.89003884822256" lon="9.52321201781543"><ele>418.0</ele><time>2026-05-01T11:11:12Z</time></trkpt><trkpt lat="44.889953528931" lon="9.523260520253205"><ele>416.1666666666667</ele><time>2026-05-01T11:11:13Z</time></trkpt><trkpt lat="44.88986389843769" lon="9.523310883057016"><ele>414.33333333333337</ele><time>2026-05-01T11:11:14Z</time></trkpt><trkpt lat="44.8897747016654" lon="9.523356343926315"><ele>412.5</ele><time>2026-05-01T11:11:15Z</time></trkpt><trkpt lat="44.8896928873185" lon="9.523390648242344"><ele>410.66666666666663</ele><time>2026-05-01T11:11:16Z</time></trkpt><trkpt lat="44.88961956238222" lon="9.523413828148804"><ele>408.8333333333333</ele><time>2026-05-01T11:11:17Z</time></trkpt><trkpt lat="44.889540410921555" lon="9.52342257340583"><ele>407.0</ele><time>2026-05-01T11:11:18Z</time></trkpt><trkpt lat="44.889454840628396" lon="9.523411023889334"><ele>406.99999999999994</ele><time>2026-05-01T11:11:19Z</time></trkpt><trkpt lat="44.88935505123208" lon="9.52340571595556"><ele>407.0</ele><time>2026-05-01T11:11:20Z</time></trkpt><trkpt lat="44.88926154430473" lon="9.52340488200004"><ele>407.0</ele><time>2026-05-01T11:11:21Z</time></trkpt><trkpt lat="44.88917188002694" lon="9.523419356929068"><ele>407.0</ele><time>2026-05-01T11:11:22Z</time></trkpt><trkpt lat="44.88909955965989" lon="9.52343758834337"><ele>406.99999999999994</ele><time>2026-05-01T11:11:23Z</time></trkpt><trkpt lat="44.88903421328259" lon="9.523488697894479"><ele>407.0</ele><time>2026-05-01T11:11:24Z</time></trkpt><trkpt lat="44.88896022700132" lon="9.523516030240458"><ele>406.8</ele><time>2026-05-01T11:11:24.999Z</time></trkpt><trkpt lat="44.8889125071262" lon="9.523636411997638"><ele>406.6</ele><time>2026-05-01T11:11:25.999Z</time></trkpt><trkpt lat="44.88886816142741" lon="9.523730251048747"><ele>406.40000000000003</ele><time>2026-05-01T11:11:26.999Z</time></trkpt><trkpt lat="44.888806658562956" lon="9.52378065983017"><ele>406.20000000000005</ele><time>2026-05-01T11:11:27.999Z</time></trkpt><trkpt lat="44.88867592882607" lon="9.52374246239379"><ele>406.0</ele><time>2026-05-01T11:11:29.999Z</time></trkpt><trkpt lat="44.888581624276036" lon="9.523704953392228"><ele>406.00000000000006</ele><time>2026-05-01T11:11:30.999Z</time></trkpt><trkpt lat="44.888507689161216" lon="9.523688788951771"><ele>406.0</ele><time>2026-05-01T11:11:31.999Z</time></trkpt><trkpt lat="44.888428507755044" lon="9.5237048353949"><ele>406.0</ele><time>2026-05-01T11:11:32.999Z</time></trkpt><trkpt lat="44.88836366024023" lon="9.523777212843072"><ele>406.0</ele><time>2026-05-01T11:11:33.999Z</time></trkpt><trkpt lat="44.888345305384895" lon="9.523915262981422"><ele>406.00000000000006</ele><time>2026-05-01T11:11:34.999Z</time></trkpt><trkpt lat="44.88838539940533" lon="9.524055882120587"><ele>406.0</ele><time>2026-05-01T11:11:35.999Z</time></trkpt><trkpt lat="44.88842678539343" lon="9.524191426245434"><ele>403.1666666666667</ele><time>2026-05-01T11:11:36.999Z</time></trkpt><trkpt lat="44.88847794349578" lon="9.524306171603707"><ele>400.33333333333337</ele><time>2026-05-01T11:11:37.999Z</time></trkpt><trkpt lat="44.88851437270046" lon="9.524398062048933"><ele>397.5</ele><time>2026-05-01T11:11:38.999Z</time></trkpt><trkpt lat="44.88852189557005" lon="9.52449396719065"><ele>394.66666666666663</ele><time>2026-05-01T11:11:39.999Z</time></trkpt><trkpt lat="44.888488840171036" lon="9.524644457655308"><ele>391.8333333333333</ele><time>2026-05-01T11:11:41.999Z</time></trkpt><trkpt lat="44.88843048356852" lon="9.524698758578086"><ele>389.0</ele><time>2026-05-01T11:11:42.999Z</time></trkpt><trkpt lat="44.88837565752199" lon="9.524812108552693"><ele>389.0</ele><time>2026-05-01T11:11:43.999Z</time></trkpt><trkpt lat="44.88833765580359" lon="9.524903830122565"><ele>389.0</ele><time>2026-05-01T11:11:44.999Z</time></trkpt><trkpt lat="44.88838956339231" lon="9.525056605141673"><ele>389.0</ele><time>2026-05-01T11:11:45.999Z</time></trkpt><trkpt lat="44.88843475594649" lon="9.525193214591669"><ele>389.0</ele><time>2026-05-01T11:11:46.999Z</time></trkpt><trkpt lat="44.88849837151568" lon="9.52531564217721"><ele>389.0</ele><time>2026-05-01T11:11:47.999Z</time></trkpt><trkpt lat="44.888574668342294" lon="9.525412589179235"><ele>383.6</ele><time>2026-05-01T11:11:48.999Z</time></trkpt><trkpt lat="44.88864713919221" lon="9.525483412844302"><ele>378.2</ele><time>2026-05-01T11:11:49.999Z</time></trkpt><trkpt lat="44.88869302251999" lon="9.52555854763969"><ele>372.8</ele><time>2026-05-01T11:11:50.999Z</time></trkpt><trkpt lat="44.88872258771002" lon="9.525728019638825"><ele>367.40000000000003</ele><time>2026-05-01T11:11:52.999Z</time></trkpt><trkpt lat="44.88864649042955" lon="9.525824149763505"><ele>362.0</ele><time>2026-05-01T11:11:53.999Z</time></trkpt><trkpt lat="44.88858801944163" lon="9.525926185758225"><ele>362.0</ele><time>2026-05-01T11:11:54.999Z</time></trkpt><trkpt lat="44.88852638712714" lon="9.526045667705368"><ele>362.0</ele><time>2026-05-01T11:11:55.999Z</time></trkpt><trkpt lat="44.88849680117123" lon="9.526151509167915"><ele>362.0</ele><time>2026-05-01T11:11:56.999Z</time></trkpt><trkpt lat="44.88849439606528" lon="9.526269347210114"><ele>362.0</ele><time>2026-05-01T11:11:57.999Z</time></trkpt><trkpt lat="44.888568515435665" lon="9.52639972854501"><ele>362.0</ele><time>2026-05-01T11:11:59Z</time></trkpt><trkpt lat="44.888634510839665" lon="9.526536271813704"><ele>360.8</ele><time>2026-05-01T11:12:00Z</time></trkpt><trkpt lat="44.88870472855944" lon="9.526681264213295"><ele>359.6</ele><time>2026-05-01T11:12:01Z</time></trkpt><trkpt lat="44.88869087840195" lon="9.52684167813216"><ele>358.40000000000003</ele><time>2026-05-01T11:12:03Z</time></trkpt><trkpt lat="44.88864999813511" lon="9.52691362856966"><ele>357.20000000000005</ele><time>2026-05-01T11:12:04Z</time></trkpt><trkpt lat="44.888600166906066" lon="9.527000295584584"><ele>356.0</ele><time>2026-05-01T11:12:05Z</time></trkpt><trkpt lat="44.88855619676741" lon="9.52707954508625"><ele>354.0</ele><time>2026-05-01T11:12:06Z</time></trkpt><trkpt lat="44.88848606571534" lon="9.527198919403181"><ele>352.0</ele><time>2026-05-01T11:12:07Z</time></trkpt><trkpt lat="44.888419988020175" lon="9.527323785037746"><ele>350.0</ele><time>2026-05-01T11:12:08Z</time></trkpt><trkpt lat="44.88835806478734" lon="9.527448495578318"><ele>348.0</ele><time>2026-05-01T11:12:09Z</time></trkpt><trkpt lat="44.888299064681014" lon="9.527578132920434"><ele>346.0</ele><time>2026-05-01T11:12:10Z</time></trkpt><trkpt lat="44.88824284480909" lon="9.527719779007615"><ele>348.6</ele><time>2026-05-01T11:12:11Z</time></trkpt><trkpt lat="44.88819551756048" lon="9.527860220189977"><ele>351.20000000000005</ele><time>2026-05-01T11:12:12Z</time></trkpt><trkpt lat="44.88817335180856" lon="9.527995537684147"><ele>353.79999999999995</ele><time>2026-05-01T11:12:13Z</time></trkpt><trkpt lat="44.888127008659765" lon="9.528091397888442"><ele>356.4</ele><time>2026-05-01T11:12:14Z</time></trkpt><trkpt lat="44.88810120983757" lon="9.528187837920296"><ele>359.0</ele><time>2026-05-01T11:12:15Z</time></trkpt><trkpt lat="44.88805409464123" lon="9.528337208297176"><ele>359.0</ele><time>2026-05-01T11:12:17Z</time></trkpt><trkpt lat="44.88798289468721" lon="9.528473325527981"><ele>359.0</ele><time>2026-05-01T11:12:19Z</time></trkpt><trkpt lat="44.887911868081055" lon="9.52853481122333"><ele>359.0</ele><time>2026-05-01T11:12:21Z</time></trkpt><trkpt lat="44.88782325303309" lon="9.528525883884011"><ele>359.0</ele><time>2026-05-01T11:12:23Z</time></trkpt><trkpt lat="44.88771538065649" lon="9.5284972920929"><ele>359.0</ele><time>2026-05-01T11:12:25Z</time></trkpt><trkpt lat="44.88764305919338" lon="9.528511729819614"><ele>362.0</ele><time>2026-05-01T11:12:26Z</time></trkpt><trkpt lat="44.88752813705727" lon="9.528491979891164"><ele>365.0</ele><time>2026-05-01T11:12:28Z</time></trkpt><trkpt lat="44.887438172682394" lon="9.528518939024263"><ele>368.0</ele><time>2026-05-01T11:12:30Z</time></trkpt><trkpt lat="44.88734190065883" lon="9.528565830157058"><ele>371.0</ele><time>2026-05-01T11:12:32Z</time></trkpt><trkpt lat="44.88727263837971" lon="9.528615541577421"><ele>374.0</ele><time>2026-05-01T11:12:33Z</time></trkpt><trkpt lat="44.88719122676285" lon="9.52867789886039"><ele>372.6</ele><time>2026-05-01T11:12:34Z</time></trkpt><trkpt lat="44.88709404678059" lon="9.528748297562661"><ele>371.2</ele><time>2026-05-01T11:12:35Z</time></trkpt><trkpt lat="44.88698389021652" lon="9.52882044081796"><ele>369.8</ele><time>2026-05-01T11:12:36Z</time></trkpt><trkpt lat="44.88687553672547" lon="9.528882850973165"><ele>368.40000000000003</ele><time>2026-05-01T11:12:37Z</time></trkpt><trkpt lat="44.886779870328645" lon="9.528924030921752"><ele>367.0</ele><time>2026-05-01T11:12:38Z</time></trkpt><trkpt lat="44.88669190936678" lon="9.528929818400012"><ele>367.0</ele><time>2026-05-01T11:12:39Z</time></trkpt><trkpt lat="44.886592562447476" lon="9.528937148856928"><ele>367.0</ele><time>2026-05-01T11:12:40Z</time></trkpt><trkpt lat="44.88647762519319" lon="9.528929284922706"><ele>367.0</ele><time>2026-05-01T11:12:41Z</time></trkpt><trkpt lat="44.886356698210285" lon="9.528914920799778"><ele>367.0</ele><time>2026-05-01T11:12:42Z</time></trkpt><trkpt lat="44.886235772977884" lon="9.528889974729994"><ele>367.0</ele><time>2026-05-01T11:12:43Z</time></trkpt><trkpt lat="44.88611667991655" lon="9.528873435954457"><ele>367.0</ele><time>2026-05-01T11:12:44Z</time></trkpt><trkpt lat="44.88599902574616" lon="9.52885065707148"><ele>367.0</ele><time>2026-05-01T11:12:45Z</time></trkpt><trkpt lat="44.8859015880549" lon="9.528840329511807"><ele>367.0</ele><time>2026-05-01T11:12:46Z</time></trkpt><trkpt lat="44.88580928993161" lon="9.528843361489491"><ele>367.0</ele><time>2026-05-01T11:12:47Z</time></trkpt><trkpt lat="44.885736359627764" lon="9.528862877398137"><ele>369.6</ele><time>2026-05-01T11:12:48Z</time></trkpt><trkpt lat="44.885669014979094" lon="9.528923833459892"><ele>372.20000000000005</ele><time>2026-05-01T11:12:49Z</time></trkpt><trkpt lat="44.88563201264508" lon="9.529012154311165"><ele>374.8</ele><time>2026-05-01T11:12:50Z</time></trkpt><trkpt lat="44.885637292249726" lon="9.529150876516194"><ele>377.4</ele><time>2026-05-01T11:12:51Z</time></trkpt><trkpt lat="44.885631199133826" lon="9.529303092157518"><ele>380.0</ele><time>2026-05-01T11:12:52Z</time></trkpt><trkpt lat="44.885590572573214" lon="9.529460570786641"><ele>376.5</ele><time>2026-05-01T11:12:53Z</time></trkpt><trkpt lat="44.88553662614882" lon="9.529592267268846"><ele>373.0</ele><time>2026-05-01T11:12:54Z</time></trkpt><trkpt lat="44.88546633554659" lon="9.529713043788046"><ele>369.5</ele><time>2026-05-01T11:12:55Z</time></trkpt><trkpt lat="44.885375158894796" lon="9.529847899632811"><ele>366.0</ele><time>2026-05-01T11:12:56Z</time></trkpt><trkpt lat="44.88529372433131" lon="9.52994741379388"><ele>366.0</ele><time>2026-05-01T11:12:57Z</time></trkpt><trkpt lat="44.88522612272441" lon="9.530013526809547"><ele>366.0</ele><time>2026-05-01T11:12:58Z</time></trkpt><trkpt lat="44.885162741301535" lon="9.530054770327398"><ele>366.0</ele><time>2026-05-01T11:12:59Z</time></trkpt><trkpt lat="44.885058037979285" lon="9.53011778260342"><ele>366.0</ele><time>2026-05-01T11:13:00Z</time></trkpt><trkpt lat="44.88493535883869" lon="9.530169775380854"><ele>366.0</ele><time>2026-05-01T11:13:01Z</time></trkpt><trkpt lat="44.88479732856908" lon="9.530201600806889"><ele>370.75</ele><time>2026-05-01T11:13:02Z</time></trkpt><trkpt lat="44.8846873715058" lon="9.530219826156445"><ele>375.5</ele><time>2026-05-01T11:13:03Z</time></trkpt><trkpt lat="44.884570128555346" lon="9.530232211824487"><ele>380.25</ele><time>2026-05-01T11:13:04Z</time></trkpt><trkpt lat="44.88444680161419" lon="9.530240537024955"><ele>385.0</ele><time>2026-05-01T11:13:05Z</time></trkpt><trkpt lat="44.88433041447298" lon="9.530247554559365"><ele>387.0</ele><time>2026-05-01T11:13:06Z</time></trkpt><trkpt lat="44.884207365341744" lon="9.530256378148962"><ele>389.0</ele><time>2026-05-01T11:13:07Z</time></trkpt><trkpt lat="44.88408685200453" lon="9.530299231379319"><ele>391.0</ele><time>2026-05-01T11:13:08Z</time></trkpt><trkpt lat="44.88395599547067" lon="9.530327411057282"><ele>393.0</ele><time>2026-05-01T11:13:09Z</time></trkpt><trkpt lat="44.88381914489052" lon="9.530340387406637"><ele>393.0</ele><time>2026-05-01T11:13:10Z</time></trkpt><trkpt lat="44.88368347117968" lon="9.530363384362914"><ele>393.0</ele><time>2026-05-01T11:13:11Z</time></trkpt><trkpt lat="44.88355623159578" lon="9.530371561604593"><ele>393.0</ele><time>2026-05-01T11:13:12Z</time></trkpt><trkpt lat="44.88343859707066" lon="9.530380861844652"><ele>393.0</ele><time>2026-05-01T11:13:13Z</time></trkpt><trkpt lat="44.88333337246236" lon="9.530390973082952"><ele>392.75</ele><time>2026-05-01T11:13:14Z</time></trkpt><trkpt lat="44.88323125110016" lon="9.530392026529098"><ele>392.5</ele><time>2026-05-01T11:13:15Z</time></trkpt><trkpt lat="44.883107378511596" lon="9.53037307384489"><ele>392.25</ele><time>2026-05-01T11:13:16Z</time></trkpt><trkpt lat="44.88296981159534" lon="9.530355653835521"><ele>392.0</ele><time>2026-05-01T11:13:17Z</time></trkpt><trkpt lat="44.88283308236969" lon="9.530337769692775"><ele>392.0</ele><time>2026-05-01T11:13:18Z</time></trkpt><trkpt lat="44.88271242595384" lon="9.530320576114896"><ele>392.0</ele><time>2026-05-01T11:13:19Z</time></trkpt><trkpt lat="44.88258593953408" lon="9.530324823344134"><ele>392.0</ele><time>2026-05-01T11:13:20Z</time></trkpt><trkpt lat="44.882460538501256" lon="9.530360094769097"><ele>392.0</ele><time>2026-05-01T11:13:21Z</time></trkpt><trkpt lat="44.882333688340594" lon="9.530408229807069"><ele>390.25</ele><time>2026-05-01T11:13:22Z</time></trkpt><trkpt lat="44.882217114864076" lon="9.530462393019873"><ele>388.5</ele><time>2026-05-01T11:13:23Z</time></trkpt><trkpt lat="44.88211125883947" lon="9.530525854680027"><ele>386.75</ele><time>2026-05-01T11:13:24Z</time></trkpt><trkpt lat="44.88202268179926" lon="9.530630164197607"><ele>385.0</ele><time>2026-05-01T11:13:25Z</time></trkpt><trkpt lat="44.88196564211625" lon="9.530763164690375"><ele>385.0</ele><time>2026-05-01T11:13:26Z</time></trkpt><trkpt lat="44.88196460074389" lon="9.53091999747966"><ele>385.0</ele><time>2026-05-01T11:13:27Z</time></trkpt><trkpt lat="44.88194820544868" lon="9.53105983560676"><ele>385.0</ele><time>2026-05-01T11:13:28Z</time></trkpt><trkpt lat="44.88193311655742" lon="9.531154655893207"><ele>385.0</ele><time>2026-05-01T11:13:29Z</time></trkpt><trkpt lat="44.88185060612852" lon="9.531159760408704"><ele>385.0</ele><time>2026-05-01T11:13:29.999Z</time></trkpt><trkpt lat="44.881771189142114" lon="9.531301056510538"><ele>385.50000000000006</ele><time>2026-05-01T11:13:31.999Z</time></trkpt><trkpt lat="44.881742769749344" lon="9.531414975561235"><ele>386.0</ele><time>2026-05-01T11:13:32.999Z</time></trkpt><trkpt lat="44.88168128539384" lon="9.531490033455427"><ele>386.5</ele><time>2026-05-01T11:13:33.999Z</time></trkpt><trkpt lat="44.88163751667846" lon="9.53155487804443"><ele>387.0</ele><time>2026-05-01T11:13:34.999Z</time></trkpt><trkpt lat="44.88158729865827" lon="9.531629276686552"><ele>387.50000000000006</ele><time>2026-05-01T11:14:18Z</time></trkpt><trkpt lat="44.881517101387075" lon="9.531733805012866"><ele>388.0</ele><time>2026-05-01T11:14:20Z</time></trkpt><trkpt lat="44.881426031729774" lon="9.53182179955859"><ele>388.00000000000006</ele><time>2026-05-01T11:14:22Z</time></trkpt><trkpt lat="44.88137787992927" lon="9.531910943013688"><ele>388.0</ele><time>2026-05-01T11:14:24Z</time></trkpt><trkpt lat="44.881373065053225" lon="9.53205976229401"><ele>388.0</ele><time>2026-05-01T11:14:26Z</time></trkpt><trkpt lat="44.88137161726518" lon="9.532156403405608"><ele>388.0</ele><time>2026-05-01T11:14:27Z</time></trkpt><trkpt lat="44.88136197766974" lon="9.532262377953018"><ele>388.00000000000006</ele><time>2026-05-01T11:14:28Z</time></trkpt><trkpt lat="44.88133647042207" lon="9.532365904735165"><ele>388.0</ele><time>2026-05-01T11:14:29Z</time></trkpt><trkpt lat="44.88129852095461" lon="9.532464852409573"><ele>386.33333333333337</ele><time>2026-05-01T11:14:30Z</time></trkpt><trkpt lat="44.88126399417348" lon="9.532574288754091"><ele>384.6666666666667</ele><time>2026-05-01T11:14:31Z</time></trkpt><trkpt lat="44.88122714758442" lon="9.532688334413187"><ele>383.0</ele><time>2026-05-01T11:14:32Z</time></trkpt><trkpt lat="44.88118133404421" lon="9.53278891199157"><ele>381.33333333333337</ele><time>2026-05-01T11:14:33Z</time></trkpt><trkpt lat="44.88111552298578" lon="9.532879943001296"><ele>379.6666666666667</ele><time>2026-05-01T11:14:34Z</time></trkpt><trkpt lat="44.881039024005986" lon="9.532956851065151"><ele>378.0</ele><time>2026-05-01T11:14:35Z</time></trkpt><trkpt lat="44.88097471376253" lon="9.533040671015694"><ele>376.8333333333333</ele><time>2026-05-01T11:14:36Z</time></trkpt><trkpt lat="44.88091984817279" lon="9.533134807917877"><ele>375.6666666666667</ele><time>2026-05-01T11:14:37Z</time></trkpt><trkpt lat="44.88088099890303" lon="9.533226550651138"><ele>374.5</ele><time>2026-05-01T11:14:38Z</time></trkpt><trkpt lat="44.88078164392599" lon="9.533276851633527"><ele>373.33333333333337</ele><time>2026-05-01T11:14:40Z</time></trkpt><trkpt lat="44.880717517539075" lon="9.533217594395113"><ele>372.1666666666667</ele><time>2026-05-01T11:14:41Z</time></trkpt><trkpt lat="44.88067591547024" lon="9.533106760239628"><ele>371.0</ele><time>2026-05-01T11:14:42Z</time></trkpt><trkpt lat="44.88065119599814" lon="9.532991869453456"><ele>371.0</ele><time>2026-05-01T11:14:43Z</time></trkpt><trkpt lat="44.88063034702356" lon="9.532856337537572"><ele>371.0</ele><time>2026-05-01T11:14:44Z</time></trkpt><trkpt lat="44.88060315512772" lon="9.532746905676607"><ele>371.0</ele><time>2026-05-01T11:14:45Z</time></trkpt><trkpt lat="44.88057816065402" lon="9.53264008786448"><ele>371.0</ele><time>2026-05-01T11:14:46Z</time></trkpt><trkpt lat="44.88057067368513" lon="9.532517381701824"><ele>371.0</ele><time>2026-05-01T11:14:47Z</time></trkpt><trkpt lat="44.880591036993756" lon="9.532389981606862"><ele>371.0</ele><time>2026-05-01T11:14:48Z</time></trkpt><trkpt lat="44.88062302068494" lon="9.532257568543526"><ele>371.0</ele><time>2026-05-01T11:14:49Z</time></trkpt><trkpt lat="44.880636571848854" lon="9.532116500926424"><ele>371.0</ele><time>2026-05-01T11:14:50Z</time></trkpt><trkpt lat="44.88061729647029" lon="9.53197332427431"><ele>371.0</ele><time>2026-05-01T11:14:51Z</time></trkpt><trkpt lat="44.88058719455226" lon="9.531831790632873"><ele>371.0</ele><time>2026-05-01T11:14:52Z</time></trkpt><trkpt lat="44.88053009088098" lon="9.53169149586785"><ele>371.0</ele><time>2026-05-01T11:14:53Z</time></trkpt><trkpt lat="44.880472368234386" lon="9.53154075504276"><ele>371.6</ele><time>2026-05-01T11:14:54Z</time></trkpt><trkpt lat="44.880401813906744" lon="9.531411259625237"><ele>372.20000000000005</ele><time>2026-05-01T11:14:55Z</time></trkpt><trkpt lat="44.880346508911764" lon="9.531291054661482"><ele>372.79999999999995</ele><time>2026-05-01T11:14:56Z</time></trkpt><trkpt lat="44.88029723423684" lon="9.531165652000482"><ele>373.4</ele><time>2026-05-01T11:14:57Z</time></trkpt><trkpt lat="44.8802471542595" lon="9.531036972896425"><ele>374.0</ele><time>2026-05-01T11:14:58Z</time></trkpt><trkpt lat="44.880201842848464" lon="9.530917161206192"><ele>374.4</ele><time>2026-05-01T11:14:59Z</time></trkpt><trkpt lat="44.88016541167943" lon="9.530803281269145"><ele>374.79999999999995</ele><time>2026-05-01T11:15:00Z</time></trkpt><trkpt lat="44.880141855536095" lon="9.530702262063441"><ele>375.20000000000005</ele><time>2026-05-01T11:15:01Z</time></trkpt><trkpt lat="44.88013037819336" lon="9.530530628698319"><ele>375.6</ele><time>2026-05-01T11:15:03Z</time></trkpt><trkpt lat="44.88016660151139" lon="9.530450107505143"><ele>376.0</ele><time>2026-05-01T11:15:04Z</time></trkpt><trkpt lat="44.8801999463145" lon="9.530301466203074"><ele>376.3333333333333</ele><time>2026-05-01T11:15:06Z</time></trkpt><trkpt lat="44.88015971357985" lon="9.5302318223312"><ele>376.66666666666663</ele><time>2026-05-01T11:15:07Z</time></trkpt><trkpt lat="44.880076842397116" lon="9.53020923477096"><ele>377.0</ele><time>2026-05-01T11:15:08Z</time></trkpt><trkpt lat="44.87999604018505" lon="9.53026220308471"><ele>377.3333333333333</ele><time>2026-05-01T11:15:09Z</time></trkpt><trkpt lat="44.87996100193331" lon="9.530422961546472"><ele>377.6666666666667</ele><time>2026-05-01T11:15:10Z</time></trkpt><trkpt lat="44.8799121803923" lon="9.530528102170923"><ele>378.0</ele><time>2026-05-01T11:15:11Z</time></trkpt><trkpt lat="44.879868602355685" lon="9.530653882114043"><ele>372.79999999999995</ele><time>2026-05-01T11:15:12Z</time></trkpt><trkpt lat="44.87982642500469" lon="9.53078067465823"><ele>367.6</ele><time>2026-05-01T11:15:13Z</time></trkpt><trkpt lat="44.879785475551934" lon="9.530914985963882"><ele>362.4</ele><time>2026-05-01T11:15:14Z</time></trkpt><trkpt lat="44.87975217608358" lon="9.531043399879323"><ele>357.20000000000005</ele><time>2026-05-01T11:15:15Z</time></trkpt><trkpt lat="44.87972597959264" lon="9.53117823746011"><ele>352.0</ele><time>2026-05-01T11:15:16Z</time></trkpt><trkpt lat="44.87970656268424" lon="9.531341443517306"><ele>351.0</ele><time>2026-05-01T11:15:17Z</time></trkpt><trkpt lat="44.87970230220227" lon="9.531520477601461"><ele>350.0</ele><time>2026-05-01T11:15:18Z</time></trkpt><trkpt lat="44.87971968617241" lon="9.531693638901057"><ele>349.0</ele><time>2026-05-01T11:15:19Z</time></trkpt><trkpt lat="44.87975304595317" lon="9.531836595765096"><ele>348.0</ele><time>2026-05-01T11:15:20Z</time></trkpt><trkpt lat="44.879769013805145" lon="9.531972756232545"><ele>347.59999999999997</ele><time>2026-05-01T11:15:21Z</time></trkpt><trkpt lat="44.87976267333261" lon="9.532115164317885"><ele>347.2</ele><time>2026-05-01T11:15:22Z</time></trkpt><trkpt lat="44.879711799493506" lon="9.532234515471814"><ele>346.8</ele><time>2026-05-01T11:15:23Z</time></trkpt><trkpt lat="44.87964115188128" lon="9.532359594836167"><ele>346.4</ele><time>2026-05-01T11:15:24Z</time></trkpt><trkpt lat="44.879567187555004" lon="9.532487915682113"><ele>346.0</ele><time>2026-05-01T11:15:25Z</time></trkpt><trkpt lat="44.87949469324804" lon="9.532612553124663"><ele>346.0</ele><time>2026-05-01T11:15:26Z</time></trkpt><trkpt lat="44.87941172602036" lon="9.532720975503272"><ele>346.0</ele><time>2026-05-01T11:15:27Z</time></trkpt><trkpt lat="44.8793144923836" lon="9.532819087311838"><ele>346.0</ele><time>2026-05-01T11:15:28Z</time></trkpt><trkpt lat="44.87921547545469" lon="9.532918057008647"><ele>346.0</ele><time>2026-05-01T11:15:29Z</time></trkpt><trkpt lat="44.8791269411909" lon="9.533036876253059"><ele>342.0</ele><time>2026-05-01T11:15:30Z</time></trkpt><trkpt lat="44.87907192399149" lon="9.533194345949378"><ele>338.0</ele><time>2026-05-01T11:15:31Z</time></trkpt><trkpt lat="44.87899152410103" lon="9.533343486037355"><ele>334.0</ele><time>2026-05-01T11:15:32Z</time></trkpt><trkpt lat="44.878919447557855" lon="9.533522311205154"><ele>330.0</ele><time>2026-05-01T11:15:33Z</time></trkpt><trkpt lat="44.87884766117854" lon="9.533701638570026"><ele>329.0</ele><time>2026-05-01T11:15:34Z</time></trkpt><trkpt lat="44.87878658641359" lon="9.533870523695155"><ele>328.0</ele><time>2026-05-01T11:15:35Z</time></trkpt><trkpt lat="44.878747667978274" lon="9.534045509248429"><ele>327.0</ele><time>2026-05-01T11:15:36Z</time></trkpt><trkpt lat="44.878681680201346" lon="9.53419706430258"><ele>326.0</ele><time>2026-05-01T11:15:37Z</time></trkpt><trkpt lat="44.87863245827811" lon="9.534355665701447"><ele>326.0</ele><time>2026-05-01T11:15:38Z</time></trkpt><trkpt lat="44.878580941717836" lon="9.53452391146831"><ele>326.0</ele><time>2026-05-01T11:15:39Z</time></trkpt><trkpt lat="44.8785343609832" lon="9.534679983666933"><ele>326.0</ele><time>2026-05-01T11:15:40Z</time></trkpt><trkpt lat="44.878491248249404" lon="9.534824435848137"><ele>326.0</ele><time>2026-05-01T11:15:41Z</time></trkpt><trkpt lat="44.878453714487314" lon="9.534960186086243"><ele>322.0</ele><time>2026-05-01T11:15:42Z</time></trkpt><trkpt lat="44.87842292384119" lon="9.535072024609944"><ele>318.0</ele><time>2026-05-01T11:15:43Z</time></trkpt><trkpt lat="44.87839397664791" lon="9.535165991103039"><ele>314.0</ele><time>2026-05-01T11:15:44Z</time></trkpt><trkpt lat="44.87832288155913" lon="9.535228719085424"><ele>310.0</ele><time>2026-05-01T11:15:46Z</time></trkpt><trkpt lat="44.87822140259569" lon="9.535128622740576"><ele>306.0</ele><time>2026-05-01T11:15:48Z</time></trkpt><trkpt lat="44.87822350678725" lon="9.535016464910179"><ele>302.0</ele><time>2026-05-01T11:15:49Z</time></trkpt><trkpt lat="44.878198347942146" lon="9.534912736795409"><ele>302.0</ele><time>2026-05-01T11:15:50Z</time></trkpt><trkpt lat="44.878196564546165" lon="9.534786997448965"><ele>302.0</ele><time>2026-05-01T11:15:51Z</time></trkpt><trkpt lat="44.87817512802855" lon="9.534665648073517"><ele>302.0</ele><time>2026-05-01T11:15:52Z</time></trkpt><trkpt lat="44.878148279085124" lon="9.534543528472659"><ele>302.0</ele><time>2026-05-01T11:15:53Z</time></trkpt><trkpt lat="44.878128423563844" lon="9.534425804497443"><ele>302.0</ele><time>2026-05-01T11:15:54Z</time></trkpt><trkpt lat="44.878110272241194" lon="9.534320460197792"><ele>302.0</ele><time>2026-05-01T11:15:55Z</time></trkpt><trkpt lat="44.87809410402061" lon="9.534233148420611"><ele>302.0</ele><time>2026-05-01T11:15:56Z</time></trkpt><trkpt lat="44.87803290986946" lon="9.534126003637077"><ele>302.0</ele><time>2026-05-01T11:15:58Z</time></trkpt><trkpt lat="44.877956211471464" lon="9.53413718754706"><ele>302.0</ele><time>2026-05-01T11:15:59Z</time></trkpt><trkpt lat="44.877898206593514" lon="9.534219315252274"><ele>302.0</ele><time>2026-05-01T11:16:00Z</time></trkpt><trkpt lat="44.87785611699912" lon="9.534330185924873"><ele>302.0</ele><time>2026-05-01T11:16:01Z</time></trkpt><trkpt lat="44.87781074212098" lon="9.534401252824692"><ele>302.0</ele><time>2026-05-01T11:16:02Z</time></trkpt><trkpt lat="44.87776129954922" lon="9.53445816217261"><ele>302.0</ele><time>2026-05-01T11:16:03Z</time></trkpt><trkpt lat="44.877695522675516" lon="9.534495385634584"><ele>302.0</ele><time>2026-05-01T11:16:04Z</time></trkpt><trkpt lat="44.877636625075795" lon="9.53454399016939"><ele>302.0</ele><time>2026-05-01T11:16:05Z</time></trkpt><trkpt lat="44.877578359827396" lon="9.534599522281704"><ele>302.0</ele><time>2026-05-01T11:16:06Z</time></trkpt><trkpt lat="44.87753821759355" lon="9.534709888430788"><ele>302.0</ele><time>2026-05-01T11:16:07Z</time></trkpt><trkpt lat="44.8775117382201" lon="9.53482995679016"><ele>302.0</ele><time>2026-05-01T11:16:08Z</time></trkpt><trkpt lat="44.87745396471567" lon="9.53493344784432"><ele>298.83333333333337</ele><time>2026-05-01T11:16:09Z</time></trkpt><trkpt lat="44.87740039588927" lon="9.535030777692592"><ele>295.6666666666667</ele><time>2026-05-01T11:16:10Z</time></trkpt><trkpt lat="44.877360039814356" lon="9.53513690951454"><ele>292.5</ele><time>2026-05-01T11:16:11Z</time></trkpt><trkpt lat="44.877336399414055" lon="9.535241359831446"><ele>289.3333333333333</ele><time>2026-05-01T11:16:12Z</time></trkpt><trkpt lat="44.877334078565966" lon="9.535348247462265"><ele>286.16666666666663</ele><time>2026-05-01T11:16:13Z</time></trkpt><trkpt lat="44.87736487705571" lon="9.535474279003498"><ele>283.0</ele><time>2026-05-01T11:16:14Z</time></trkpt><trkpt lat="44.87741433058415" lon="9.535626475608058"><ele>281.6</ele><time>2026-05-01T11:16:15Z</time></trkpt><trkpt lat="44.87742777483114" lon="9.535776394859584"><ele>280.20000000000005</ele><time>2026-05-01T11:16:16Z</time></trkpt><trkpt lat="44.87745570188092" lon="9.535920349711935"><ele>278.8</ele><time>2026-05-01T11:16:17Z</time></trkpt><trkpt lat="44.87745648330693" lon="9.536065211164502"><ele>277.40000000000003</ele><time>2026-05-01T11:16:18Z</time></trkpt><trkpt lat="44.877489089067446" lon="9.536214472839857"><ele>276.0</ele><time>2026-05-01T11:16:19Z</time></trkpt><trkpt lat="44.87751394541199" lon="9.536356151507869"><ele>274.40000000000003</ele><time>2026-05-01T11:16:20Z</time></trkpt><trkpt lat="44.87755201474076" lon="9.53648744316982"><ele>272.8</ele><time>2026-05-01T11:16:21Z</time></trkpt><trkpt lat="44.877584188377035" lon="9.53661123022845"><ele>271.20000000000005</ele><time>2026-05-01T11:16:22Z</time></trkpt><trkpt lat="44.87758378932938" lon="9.536737695987028"><ele>269.6</ele><time>2026-05-01T11:16:23Z</time></trkpt><trkpt lat="44.877601570915324" lon="9.53685244901678"><ele>268.0</ele><time>2026-05-01T11:16:24Z</time></trkpt><trkpt lat="44.87756088180237" lon="9.536962743469205"><ele>268.0</ele><time>2026-05-01T11:16:25Z</time></trkpt><trkpt lat="44.87750405687826" lon="9.537044474649536"><ele>268.0</ele><time>2026-05-01T11:16:26Z</time></trkpt><trkpt lat="44.877455769016635" lon="9.537130080522882"><ele>268.0</ele><time>2026-05-01T11:16:27Z</time></trkpt><trkpt lat="44.87738459586251" lon="9.537204457642959"><ele>268.0</ele><time>2026-05-01T11:16:28Z</time></trkpt><trkpt lat="44.877354540638805" lon="9.537321415078633"><ele>268.0</ele><time>2026-05-01T11:16:29Z</time></trkpt><trkpt lat="44.87731517443325" lon="9.537416733787824"><ele>268.0</ele><time>2026-05-01T11:16:30Z</time></trkpt><trkpt lat="44.87730254265188" lon="9.537518836663278"><ele>267.6</ele><time>2026-05-01T11:16:31Z</time></trkpt><trkpt lat="44.87735086446333" lon="9.537623468827478"><ele>267.20000000000005</ele><time>2026-05-01T11:16:32Z</time></trkpt><trkpt lat="44.87739800369542" lon="9.537741412448005"><ele>266.8</ele><time>2026-05-01T11:16:33Z</time></trkpt><trkpt lat="44.87742181113166" lon="9.537898132992453"><ele>266.40000000000003</ele><time>2026-05-01T11:16:34Z</time></trkpt><trkpt lat="44.87744697405139" lon="9.538078680900178"><ele>266.0</ele><time>2026-05-01T11:16:35Z</time></trkpt><trkpt lat="44.87746023026364" lon="9.53826014243494"><ele>265.0</ele><time>2026-05-01T11:16:36Z</time></trkpt><trkpt lat="44.87746564225462" lon="9.538442549042607"><ele>264.0</ele><time>2026-05-01T11:16:37Z</time></trkpt><trkpt lat="44.87745842866604" lon="9.538619137394125"><ele>263.0</ele><time>2026-05-01T11:16:38Z</time></trkpt><trkpt lat="44.87743206035507" lon="9.5388129336789"><ele>262.0</ele><time>2026-05-01T11:16:39Z</time></trkpt><trkpt lat="44.87739265161625" lon="9.53902276864219"><ele>261.75</ele><time>2026-05-01T11:16:40Z</time></trkpt><trkpt lat="44.87736252532454" lon="9.53919424627824"><ele>261.5</ele><time>2026-05-01T11:16:41Z</time></trkpt><trkpt lat="44.87733683265423" lon="9.539349547444159"><ele>261.25</ele><time>2026-05-01T11:16:42Z</time></trkpt><trkpt lat="44.877341101732696" lon="9.539521580634352"><ele>261.0</ele><time>2026-05-01T11:16:43Z</time></trkpt><trkpt lat="44.87734645171612" lon="9.53969769636066"><ele>258.75</ele><time>2026-05-01T11:16:44Z</time></trkpt><trkpt lat="44.87735254790879" lon="9.539874598309066"><ele>256.5</ele><time>2026-05-01T11:16:45Z</time></trkpt><trkpt lat="44.87739610940004" lon="9.540023030938572"><ele>254.25</ele><time>2026-05-01T11:16:46Z</time></trkpt><trkpt lat="44.87743085036475" lon="9.5401544197413"><ele>252.0</ele><time>2026-05-01T11:16:47Z</time></trkpt><trkpt lat="44.877497745502005" lon="9.540284453632026"><ele>250.0</ele><time>2026-05-01T11:16:48Z</time></trkpt><trkpt lat="44.87755851178185" lon="9.540427238248542"><ele>248.0</ele><time>2026-05-01T11:16:49Z</time></trkpt><trkpt lat="44.877605634935875" lon="9.54055314342427"><ele>246.0</ele><time>2026-05-01T11:16:50Z</time></trkpt><trkpt lat="44.87760776223913" lon="9.54067758051162"><ele>244.0</ele><time>2026-05-01T11:16:51Z</time></trkpt><trkpt lat="44.87758333879779" lon="9.540835360261768"><ele>242.0</ele><time>2026-05-01T11:16:52Z</time></trkpt><trkpt lat="44.877536914348106" lon="9.541017487505647"><ele>242.0</ele><time>2026-05-01T11:16:53Z</time></trkpt><trkpt lat="44.8774969052537" lon="9.541180847691004"><ele>242.0</ele><time>2026-05-01T11:16:54Z</time></trkpt><trkpt lat="44.877443121226115" lon="9.541316428900238"><ele>242.0</ele><time>2026-05-01T11:16:55Z</time></trkpt><trkpt lat="44.87737359806739" lon="9.54142101098775"><ele>242.0</ele><time>2026-05-01T11:16:56Z</time></trkpt><trkpt lat="44.87727252869593" lon="9.54146627336365"><ele>242.0</ele><time>2026-05-01T11:16:57Z</time></trkpt><trkpt lat="44.87715768772517" lon="9.541550583609991"><ele>241.25</ele><time>2026-05-01T11:16:58Z</time></trkpt><trkpt lat="44.877057950357276" lon="9.541644098257791"><ele>240.5</ele><time>2026-05-01T11:16:59Z</time></trkpt><trkpt lat="44.87697699127982" lon="9.541792361199107"><ele>239.75</ele><time>2026-05-01T11:17:00Z</time></trkpt><trkpt lat="44.87686359803511" lon="9.541942854108427"><ele>239.0</ele><time>2026-05-01T11:17:01Z</time></trkpt><trkpt lat="44.876756127967596" lon="9.542115082219665"><ele>239.0</ele><time>2026-05-01T11:17:02Z</time></trkpt><trkpt lat="44.87664951221441" lon="9.542295620028085"><ele>239.0</ele><time>2026-05-01T11:17:03Z</time></trkpt><trkpt lat="44.87655967639827" lon="9.54245469064371"><ele>239.0</ele><time>2026-05-01T11:17:04Z</time></trkpt><trkpt lat="44.8764772388545" lon="9.542592120585587"><ele>239.0</ele><time>2026-05-01T11:17:05Z</time></trkpt><trkpt lat="44.876356305701414" lon="9.54265303023538"><ele>239.0</ele><time>2026-05-01T11:17:06Z</time></trkpt><trkpt lat="44.87628063709505" lon="9.542740848821765"><ele>238.99999999999997</ele><time>2026-05-01T11:17:07Z</time></trkpt><trkpt lat="44.87621917954693" lon="9.542828594372372"><ele>238.99999999999997</ele><time>2026-05-01T11:17:08Z</time></trkpt><trkpt lat="44.876205743197346" lon="9.542991984243784"><ele>239.0</ele><time>2026-05-01T11:17:09Z</time></trkpt><trkpt lat="44.87618527346552" lon="9.543183540760005"><ele>239.0</ele><time>2026-05-01T11:17:10Z</time></trkpt><trkpt lat="44.87614685525575" lon="9.54336691274823"><ele>235.25</ele><time>2026-05-01T11:17:11Z</time></trkpt><trkpt lat="44.876115253165764" lon="9.54352780532044"><ele>231.5</ele><time>2026-05-01T11:17:12Z</time></trkpt><trkpt lat="44.876063003789426" lon="9.543686043202044"><ele>227.75</ele><time>2026-05-01T11:17:13Z</time></trkpt><trkpt lat="44.87599926676909" lon="9.543851586137864"><ele>224.0</ele><time>2026-05-01T11:17:14Z</time></trkpt><trkpt lat="44.87592381199356" lon="9.54399469990773"><ele>224.0</ele><time>2026-05-01T11:17:15Z</time></trkpt><trkpt lat="44.87582860675785" lon="9.544121191400345"><ele>224.0</ele><time>2026-05-01T11:17:16Z</time></trkpt><trkpt lat="44.87574131945031" lon="9.544291162443411"><ele>224.0</ele><time>2026-05-01T11:17:17Z</time></trkpt><trkpt lat="44.875683970642875" lon="9.544478344126894"><ele>224.0</ele><time>2026-05-01T11:17:18Z</time></trkpt><trkpt lat="44.87563066292694" lon="9.544659967060868"><ele>221.25</ele><time>2026-05-01T11:17:19Z</time></trkpt><trkpt lat="44.87557291826617" lon="9.54482205348761"><ele>218.5</ele><time>2026-05-01T11:17:20Z</time></trkpt><trkpt lat="44.875513342986146" lon="9.544983868109231"><ele>215.75</ele><time>2026-05-01T11:17:21Z</time></trkpt><trkpt lat="44.87545164930923" lon="9.545148475673335"><ele>213.0</ele><time>2026-05-01T11:17:22Z</time></trkpt><trkpt lat="44.87539994816846" lon="9.545303376516962"><ele>210.5</ele><time>2026-05-01T11:17:23Z</time></trkpt><trkpt lat="44.87535004020453" lon="9.545457622300338"><ele>208.0</ele><time>2026-05-01T11:17:24Z</time></trkpt><trkpt lat="44.875311281810575" lon="9.545623560631622"><ele>205.5</ele><time>2026-05-01T11:17:25Z</time></trkpt><trkpt lat="44.875254026194845" lon="9.545776474522363"><ele>203.0</ele><time>2026-05-01T11:17:26Z</time></trkpt><trkpt lat="44.87520143802052" lon="9.54592395163451"><ele>203.0</ele><time>2026-05-01T11:17:27Z</time></trkpt><trkpt lat="44.87513360405561" lon="9.546052014120258"><ele>203.0</ele><time>2026-05-01T11:17:28Z</time></trkpt><trkpt lat="44.87506990869662" lon="9.546168686867723"><ele>203.0</ele><time>2026-05-01T11:17:29Z</time></trkpt><trkpt lat="44.875000820038274" lon="9.546275870849524"><ele>203.0</ele><time>2026-05-01T11:17:30Z</time></trkpt><trkpt lat="44.874922618936345" lon="9.546393244248112"><ele>203.0</ele><time>2026-05-01T11:17:31Z</time></trkpt><trkpt lat="44.87484531579785" lon="9.54651421099445"><ele>204.75</ele><time>2026-05-01T11:17:32Z</time></trkpt><trkpt lat="44.87477354030895" lon="9.546637594484066"><ele>206.5</ele><time>2026-05-01T11:17:33Z</time></trkpt><trkpt lat="44.87471134005967" lon="9.546777398750285"><ele>208.25</ele><time>2026-05-01T11:17:34Z</time></trkpt><trkpt lat="44.87466786336229" lon="9.546931479129281"><ele>210.0</ele><time>2026-05-01T11:17:35Z</time></trkpt><trkpt lat="44.87463199401886" lon="9.547087287762961"><ele>210.0</ele><time>2026-05-01T11:17:36Z</time></trkpt><trkpt lat="44.87459264840331" lon="9.547250278305432"><ele>210.0</ele><time>2026-05-01T11:17:37Z</time></trkpt><trkpt lat="44.87455075413267" lon="9.54741295548721"><ele>210.0</ele><time>2026-05-01T11:17:38Z</time></trkpt><trkpt lat="44.8745173216229" lon="9.547553757028401"><ele>210.0</ele><time>2026-05-01T11:17:39Z</time></trkpt><trkpt lat="44.87449074292138" lon="9.54769516788806"><ele>210.0</ele><time>2026-05-01T11:17:40Z</time></trkpt><trkpt lat="44.874493534520944" lon="9.547823825314786"><ele>210.0</ele><time>2026-05-01T11:17:40.999Z</time></trkpt><trkpt lat="44.874486922421305" lon="9.547938585866943"><ele>210.0</ele><time>2026-05-01T11:17:41.999Z</time></trkpt><trkpt lat="44.874509752866885" lon="9.54805450263077"><ele>210.0</ele><time>2026-05-01T11:17:42.999Z</time></trkpt><trkpt lat="44.87455988363349" lon="9.548146894799915"><ele>210.0</ele><time>2026-05-01T11:17:43.999Z</time></trkpt><trkpt lat="44.874615507680176" lon="9.548241380122162"><ele>210.0</ele><time>2026-05-01T11:17:44.999Z</time></trkpt><trkpt lat="44.87468834001945" lon="9.548334329527947"><ele>207.6</ele><time>2026-05-01T11:17:45.999Z</time></trkpt><trkpt lat="44.874750986021475" lon="9.5484148251904"><ele>205.2</ele><time>2026-05-01T11:17:46.999Z</time></trkpt><trkpt lat="44.87479982878505" lon="9.548492480613215"><ele>202.8</ele><time>2026-05-01T11:17:47.999Z</time></trkpt><trkpt lat="44.874924394816226" lon="9.548489059116722"><ele>200.4</ele><time>2026-05-01T11:17:49.999Z</time></trkpt><trkpt lat="44.87499145998143" lon="9.548389097070004"><ele>198.0</ele><time>2026-05-01T11:17:51Z</time></trkpt><trkpt lat="44.87505473079219" lon="9.548269219112209"><ele>193.4</ele><time>2026-05-01T11:17:52Z</time></trkpt><trkpt lat="44.87513154009142" lon="9.548167423993277"><ele>188.8</ele><time>2026-05-01T11:17:53Z</time></trkpt><trkpt lat="44.87520480594584" lon="9.548089185638949"><ele>184.2</ele><time>2026-05-01T11:17:54Z</time></trkpt><trkpt lat="44.87526709697477" lon="9.548021255591602"><ele>179.6</ele><time>2026-05-01T11:17:55Z</time></trkpt><trkpt lat="44.875350296724136" lon="9.547961818479143"><ele>175.0</ele><time>2026-05-01T11:17:57Z</time></trkpt><trkpt lat="44.875349609519084" lon="9.54807896608623"><ele>175.0</ele><time>2026-05-01T11:18:00Z</time></trkpt><trkpt lat="44.875301790381485" lon="9.54822752926538"><ele>175.0</ele><time>2026-05-01T11:18:01Z</time></trkpt><trkpt lat="44.87523776282647" lon="9.548352546725331"><ele>175.0</ele><time>2026-05-01T11:18:02Z</time></trkpt><trkpt lat="44.875163147681256" lon="9.548479954609412"><ele>175.0</ele><time>2026-05-01T11:18:03.001Z</time></trkpt><trkpt lat="44.87509721784571" lon="9.548620070995845"><ele>174.25</ele><time>2026-05-01T11:18:04.001Z</time></trkpt><trkpt lat="44.875061151210275" lon="9.548785499909316"><ele>173.5</ele><time>2026-05-01T11:18:05.001Z</time></trkpt><trkpt lat="44.87507922041038" lon="9.54894079234103"><ele>172.75</ele><time>2026-05-01T11:18:06.001Z</time></trkpt><trkpt lat="44.87508666751025" lon="9.549102551767701"><ele>172.0</ele><time>2026-05-01T11:18:07.001Z</time></trkpt><trkpt lat="44.875112646033855" lon="9.549253133949474"><ele>172.0</ele><time>2026-05-01T11:18:08.001Z</time></trkpt><trkpt lat="44.87513805166943" lon="9.549376140530004"><ele>172.0</ele><time>2026-05-01T11:18:09.001Z</time></trkpt><trkpt lat="44.875161244568076" lon="9.54948378834854"><ele>172.0</ele><time>2026-05-01T11:18:10.001Z</time></trkpt><trkpt lat="44.8751814006887" lon="9.54957248642526"><ele>172.0</ele><time>2026-05-01T11:18:11.001Z</time></trkpt><trkpt lat="44.87522680754905" lon="9.549657690064596"><ele>172.0</ele><time>2026-05-01T11:18:13.001Z</time></trkpt><trkpt lat="44.87521271476252" lon="9.549759458336343"><ele>172.0</ele><time>2026-05-01T11:18:14.001Z</time></trkpt><trkpt lat="44.8751638836489" lon="9.54986850681243"><ele>171.83333333333334</ele><time>2026-05-01T11:18:16.001Z</time></trkpt><trkpt lat="44.87510959692152" lon="9.54993420118851"><ele>171.66666666666669</ele><time>2026-05-01T11:18:17.001Z</time></trkpt><trkpt lat="44.875026028566026" lon="9.549948215554274"><ele>171.5</ele><time>2026-05-01T11:18:18.001Z</time></trkpt><trkpt lat="44.87494500328756" lon="9.54993694437507"><ele>171.33333333333334</ele><time>2026-05-01T11:18:19.001Z</time></trkpt><trkpt lat="44.87487035814114" lon="9.549907474032116"><ele>171.16666666666666</ele><time>2026-05-01T11:18:20.001Z</time></trkpt><trkpt lat="44.874786418739" lon="9.54986817185151"><ele>171.0</ele><time>2026-05-01T11:18:21.001Z</time></trkpt><trkpt lat="44.8746906749786" lon="9.54983515440313"><ele>170.4</ele><time>2026-05-01T11:18:22.001Z</time></trkpt><trkpt lat="44.8745855475129" lon="9.549806568474848"><ele>169.8</ele><time>2026-05-01T11:18:23.001Z</time></trkpt><trkpt lat="44.874479842702584" lon="9.549776611117656"><ele>169.20000000000002</ele><time>2026-05-01T11:18:24.001Z</time></trkpt><trkpt lat="44.874370158689814" lon="9.549734752755327"><ele>168.60000000000002</ele><time>2026-05-01T11:18:25.001Z</time></trkpt><trkpt lat="44.874256513790705" lon="9.549683091820217"><ele>168.0</ele><time>2026-05-01T11:18:26.001Z</time></trkpt><trkpt lat="44.87415122197448" lon="9.549622108584522"><ele>170.0</ele><time>2026-05-01T11:18:27.001Z</time></trkpt><trkpt lat="44.87404970221622" lon="9.549541324748224"><ele>172.0</ele><time>2026-05-01T11:18:28.001Z</time></trkpt><trkpt lat="44.8739465846971" lon="9.54944573975999"><ele>174.0</ele><time>2026-05-01T11:18:29.001Z</time></trkpt><trkpt lat="44.87385222614727" lon="9.549334559532694"><ele>176.0</ele><time>2026-05-01T11:18:30.001Z</time></trkpt><trkpt lat="44.87377238557653" lon="9.549207340537496"><ele>176.0</ele><time>2026-05-01T11:18:31.001Z</time></trkpt><trkpt lat="44.87371502305137" lon="9.549051199097605"><ele>176.0</ele><time>2026-05-01T11:18:32.001Z</time></trkpt><trkpt lat="44.87367420442564" lon="9.54887667973193"><ele>176.0</ele><time>2026-05-01T11:18:33.001Z</time></trkpt><trkpt lat="44.87365212004863" lon="9.548701472528851"><ele>176.0</ele><time>2026-05-01T11:18:34.001Z</time></trkpt><trkpt lat="44.87365131885801" lon="9.54853916691681"><ele>178.20000000000002</ele><time>2026-05-01T11:18:35.001Z</time></trkpt><trkpt lat="44.87365854674979" lon="9.548385042618602"><ele>180.4</ele><time>2026-05-01T11:18:36.001Z</time></trkpt><trkpt lat="44.873657654460644" lon="9.548241282520669"><ele>182.6</ele><time>2026-05-01T11:18:37.001Z</time></trkpt><trkpt lat="44.87364330590642" lon="9.548109505975654"><ele>184.8</ele><time>2026-05-01T11:18:38.001Z</time></trkpt><trkpt lat="44.873602853757625" lon="9.548003373451127"><ele>187.0</ele><time>2026-05-01T11:18:39.001Z</time></trkpt><trkpt lat="44.873549925031355" lon="9.547910640776408"><ele>187.0</ele><time>2026-05-01T11:18:40.001Z</time></trkpt><trkpt lat="44.87344604472181" lon="9.547912875234672"><ele>187.0</ele><time>2026-05-01T11:18:41.001Z</time></trkpt><trkpt lat="44.873351631847854" lon="9.547914431422596"><ele>187.0</ele><time>2026-05-01T11:18:42.001Z</time></trkpt><trkpt lat="44.8732524618455" lon="9.547913322490569"><ele>187.0</ele><time>2026-05-01T11:18:43.001Z</time></trkpt><trkpt lat="44.873156948230815" lon="9.547943525616617"><ele>187.0</ele><time>2026-05-01T11:18:44.001Z</time></trkpt><trkpt lat="44.87308245292105" lon="9.548023571377648"><ele>182.5</ele><time>2026-05-01T11:18:45.001Z</time></trkpt><trkpt lat="44.873016231138884" lon="9.548145477606548"><ele>178.0</ele><time>2026-05-01T11:18:46.001Z</time></trkpt><trkpt lat="44.87293890864634" lon="9.548269253872073"><ele>173.5</ele><time>2026-05-01T11:18:47.001Z</time></trkpt><trkpt lat="44.87285264824715" lon="9.548386058811348"><ele>169.0</ele><time>2026-05-01T11:18:48.001Z</time></trkpt><trkpt lat="44.87274264739975" lon="9.548490271809255"><ele>169.0</ele><time>2026-05-01T11:18:49.001Z</time></trkpt><trkpt lat="44.872623282047634" lon="9.548574685371177"><ele>169.0</ele><time>2026-05-01T11:18:50.001Z</time></trkpt><trkpt lat="44.87249171453726" lon="9.548640100912552"><ele>169.0</ele><time>2026-05-01T11:18:51.001Z</time></trkpt><trkpt lat="44.87235278613171" lon="9.548682523294381"><ele>169.0</ele><time>2026-05-01T11:18:52.001Z</time></trkpt><trkpt lat="44.872217319697036" lon="9.548688149966265"><ele>169.25</ele><time>2026-05-01T11:18:53.001Z</time></trkpt><trkpt lat="44.872090116612405" lon="9.548707281022336"><ele>169.5</ele><time>2026-05-01T11:18:54.001Z</time></trkpt><trkpt lat="44.8719481222633" lon="9.54874544463701"><ele>169.75</ele><time>2026-05-01T11:18:55.001Z</time></trkpt><trkpt lat="44.8718019297753" lon="9.548754981864834"><ele>170.0</ele><time>2026-05-01T11:18:56.001Z</time></trkpt><trkpt lat="44.87165427758047" lon="9.548774761287246"><ele>170.0</ele><time>2026-05-01T11:18:57.001Z</time></trkpt><trkpt lat="44.87150040624297" lon="9.548761831220808"><ele>170.0</ele><time>2026-05-01T11:18:58.001Z</time></trkpt><trkpt lat="44.87133757912463" lon="9.548733798672615"><ele>170.0</ele><time>2026-05-01T11:18:59.001Z</time></trkpt><trkpt lat="44.87117467311337" lon="9.548698563110454"><ele>170.0</ele><time>2026-05-01T11:19:00.001Z</time></trkpt><trkpt lat="44.871009219811434" lon="9.548662222165039"><ele>170.0</ele><time>2026-05-01T11:19:01.001Z</time></trkpt><trkpt lat="44.870839877039" lon="9.548622075641594"><ele>170.0</ele><time>2026-05-01T11:19:02.001Z</time></trkpt><trkpt lat="44.8706707768513" lon="9.548575258920039"><ele>170.0</ele><time>2026-05-01T11:19:03.001Z</time></trkpt><trkpt lat="44.87051212771738" lon="9.548526101872854"><ele>170.0</ele><time>2026-05-01T11:19:04.001Z</time></trkpt><trkpt lat="44.87033726892269" lon="9.548465715703715"><ele>170.0</ele><time>2026-05-01T11:19:05.001Z</time></trkpt><trkpt lat="44.870158937047165" lon="9.548397939375205"><ele>170.33333333333331</ele><time>2026-05-01T11:19:06.001Z</time></trkpt><trkpt lat="44.86998109116816" lon="9.548326949829514"><ele>170.66666666666666</ele><time>2026-05-01T11:19:07.001Z</time></trkpt><trkpt lat="44.869805911271925" lon="9.548253147588953"><ele>171.0</ele><time>2026-05-01T11:19:08.001Z</time></trkpt><trkpt lat="44.86964553804733" lon="9.548179252121413"><ele>171.0</ele><time>2026-05-01T11:19:09.001Z</time></trkpt><trkpt lat="44.869493321241045" lon="9.548103347515582"><ele>171.0</ele><time>2026-05-01T11:19:10.001Z</time></trkpt><trkpt lat="44.86935091161838" lon="9.548030923421535"><ele>171.0</ele><time>2026-05-01T11:19:11.001Z</time></trkpt><trkpt lat="44.86920899325616" lon="9.547958749181237"><ele>171.0</ele><time>2026-05-01T11:19:12.001Z</time></trkpt><trkpt lat="44.869073905529" lon="9.547896756488099"><ele>171.0</ele><time>2026-05-01T11:19:13.001Z</time></trkpt><trkpt lat="44.86894297822658" lon="9.547860268412487"><ele>171.0</ele><time>2026-05-01T11:19:14.001Z</time></trkpt><trkpt lat="44.86881724219059" lon="9.547808080209009"><ele>171.0</ele><time>2026-05-01T11:19:15.001Z</time></trkpt><trkpt lat="44.8686942297002" lon="9.547767161568185"><ele>170.75</ele><time>2026-05-01T11:19:16.001Z</time></trkpt><trkpt lat="44.86856665955638" lon="9.547716062244529"><ele>170.5</ele><time>2026-05-01T11:19:17.001Z</time></trkpt><trkpt lat="44.868442487237495" lon="9.547664385840932"><ele>170.25</ele><time>2026-05-01T11:19:18.001Z</time></trkpt><trkpt lat="44.86832001649747" lon="9.547616107452845"><ele>170.0</ele><time>2026-05-01T11:19:19.001Z</time></trkpt><trkpt lat="44.86820090540501" lon="9.547575900287855"><ele>170.0</ele><time>2026-05-01T11:19:20.001Z</time></trkpt><trkpt lat="44.86808663795769" lon="9.547523132670543"><ele>170.0</ele><time>2026-05-01T11:19:21.001Z</time></trkpt><trkpt lat="44.86797321679117" lon="9.54746448568774"><ele>170.0</ele><time>2026-05-01T11:19:22.001Z</time></trkpt><trkpt lat="44.867864880368174" lon="9.547383543339517"><ele>170.0</ele><time>2026-05-01T11:19:23.001Z</time></trkpt><trkpt lat="44.86775375531802" lon="9.547316694528249"><ele>170.0</ele><time>2026-05-01T11:19:24.001Z</time></trkpt><trkpt lat="44.86764140894007" lon="9.547276415650122"><ele>170.0</ele><time>2026-05-01T11:19:25.001Z</time></trkpt><trkpt lat="44.86754418441302" lon="9.547209587721346"><ele>170.0</ele><time>2026-05-01T11:19:26.001Z</time></trkpt><trkpt lat="44.86745280835354" lon="9.547134769273047"><ele>170.0</ele><time>2026-05-01T11:19:27.001Z</time></trkpt><trkpt lat="44.8673524167052" lon="9.54706110478429"><ele>170.0</ele><time>2026-05-01T11:19:28.001Z</time></trkpt><trkpt lat="44.8672489899177" lon="9.546986242357823"><ele>170.75</ele><time>2026-05-01T11:19:29.001Z</time></trkpt><trkpt lat="44.86714590848914" lon="9.546914591111502"><ele>171.5</ele><time>2026-05-01T11:19:30.001Z</time></trkpt><trkpt lat="44.86703636679676" lon="9.54685605948421"><ele>172.25</ele><time>2026-05-01T11:19:31.001Z</time></trkpt><trkpt lat="44.86691879012387" lon="9.546811452035966"><ele>173.0</ele><time>2026-05-01T11:19:32.001Z</time></trkpt><trkpt lat="44.8667951999057" lon="9.546770434961307"><ele>173.0</ele><time>2026-05-01T11:19:33.001Z</time></trkpt><trkpt lat="44.866672383797045" lon="9.546716934728943"><ele>173.0</ele><time>2026-05-01T11:19:34.001Z</time></trkpt><trkpt lat="44.86654389942401" lon="9.546657306746157"><ele>173.0</ele><time>2026-05-01T11:19:35.001Z</time></trkpt><trkpt lat="44.866415209681854" lon="9.546596631526798"><ele>173.0</ele><time>2026-05-01T11:19:36.001Z</time></trkpt><trkpt lat="44.86628066047542" lon="9.546542507877028"><ele>173.0</ele><time>2026-05-01T11:19:37.001Z</time></trkpt><trkpt lat="44.8661477430771" lon="9.546494156451054"><ele>173.0</ele><time>2026-05-01T11:19:38.001Z</time></trkpt><trkpt lat="44.8660201744998" lon="9.546449332862682"><ele>173.0</ele><time>2026-05-01T11:19:39.001Z</time></trkpt><trkpt lat="44.865892801215814" lon="9.546406282297857"><ele>173.0</ele><time>2026-05-01T11:19:40.001Z</time></trkpt><trkpt lat="44.865765525140326" lon="9.546369984400437"><ele>173.0</ele><time>2026-05-01T11:19:41.001Z</time></trkpt><trkpt lat="44.86563566094104" lon="9.546349780242108"><ele>173.0</ele><time>2026-05-01T11:19:42.001Z</time></trkpt><trkpt lat="44.86550974787488" lon="9.54633260542821"><ele>173.0</ele><time>2026-05-01T11:19:43.001Z</time></trkpt><trkpt lat="44.86539023728138" lon="9.54630673206822"><ele>173.0</ele><time>2026-05-01T11:19:44.001Z</time></trkpt><trkpt lat="44.86526867891466" lon="9.546281748719743"><ele>173.0</ele><time>2026-05-01T11:19:45.001Z</time></trkpt><trkpt lat="44.865145014743895" lon="9.546257683839269"><ele>173.0</ele><time>2026-05-01T11:19:46Z</time></trkpt><trkpt lat="44.865012816149665" lon="9.546232485291998"><ele>173.0</ele><time>2026-05-01T11:19:47Z</time></trkpt><trkpt lat="44.86488416296577" lon="9.546174023538148"><ele>173.0</ele><time>2026-05-01T11:19:48Z</time></trkpt><trkpt lat="44.86475000223847" lon="9.546135878215676"><ele>173.5</ele><time>2026-05-01T11:19:49Z</time></trkpt><trkpt lat="44.86461330187359" lon="9.546097860136785"><ele>174.0</ele><time>2026-05-01T11:19:50Z</time></trkpt><trkpt lat="44.864476662071006" lon="9.546066146004769"><ele>174.5</ele><time>2026-05-01T11:19:51Z</time></trkpt><trkpt lat="44.8643365778266" lon="9.546037290131675"><ele>175.0</ele><time>2026-05-01T11:19:52Z</time></trkpt><trkpt lat="44.86420011322" lon="9.54600902757341"><ele>175.0</ele><time>2026-05-01T11:19:53Z</time></trkpt><trkpt lat="44.86406189568591" lon="9.54597862141325"><ele>175.0</ele><time>2026-05-01T11:19:54Z</time></trkpt><trkpt lat="44.86392529341788" lon="9.545937768669924"><ele>175.0</ele><time>2026-05-01T11:19:55Z</time></trkpt><trkpt lat="44.86379373166787" lon="9.5458898385102"><ele>175.0</ele><time>2026-05-01T11:19:56Z</time></trkpt><trkpt lat="44.86366899300542" lon="9.54583314402661"><ele>175.0</ele><time>2026-05-01T11:19:57Z</time></trkpt><trkpt lat="44.86354257326128" lon="9.545761459760689"><ele>175.0</ele><time>2026-05-01T11:19:58Z</time></trkpt><trkpt lat="44.86341644585398" lon="9.545679258198513"><ele>175.0</ele><time>2026-05-01T11:19:59Z</time></trkpt><trkpt lat="44.86328093192365" lon="9.545605397091796"><ele>175.0</ele><time>2026-05-01T11:20:00Z</time></trkpt><trkpt lat="44.86314547303068" lon="9.54553519219158"><ele>174.75</ele><time>2026-05-01T11:20:01Z</time></trkpt><trkpt lat="44.86302260505558" lon="9.54543398075862"><ele>174.5</ele><time>2026-05-01T11:20:02Z</time></trkpt><trkpt lat="44.86289426169107" lon="9.545351827987362"><ele>174.25</ele><time>2026-05-01T11:20:03.001Z</time></trkpt><trkpt lat="44.86276800477779" lon="9.54525958214275"><ele>174.0</ele><time>2026-05-01T11:20:04.001Z</time></trkpt><trkpt lat="44.86263611406571" lon="9.54517061961694"><ele>174.5</ele><time>2026-05-01T11:20:05.001Z</time></trkpt><trkpt lat="44.86251711280163" lon="9.545042016103508"><ele>175.0</ele><time>2026-05-01T11:20:06.001Z</time></trkpt><trkpt lat="44.8624012328274" lon="9.544910553828347"><ele>175.5</ele><time>2026-05-01T11:20:07.001Z</time></trkpt><trkpt lat="44.86228341825194" lon="9.54478052506596"><ele>176.0</ele><time>2026-05-01T11:20:08.001Z</time></trkpt><trkpt lat="44.86218034285392" lon="9.544638107351826"><ele>176.0</ele><time>2026-05-01T11:20:09.001Z</time></trkpt><trkpt lat="44.862072084739566" lon="9.544522272861544"><ele>176.0</ele><time>2026-05-01T11:20:10.001Z</time></trkpt><trkpt lat="44.861969110348056" lon="9.544413756033457"><ele>176.0</ele><time>2026-05-01T11:20:11.001Z</time></trkpt><trkpt lat="44.86187011384091" lon="9.544311881229014"><ele>176.0</ele><time>2026-05-01T11:20:12.001Z</time></trkpt><trkpt lat="44.86177452509213" lon="9.544213148552277"><ele>175.8</ele><time>2026-05-01T11:20:13.001Z</time></trkpt><trkpt lat="44.86168512578353" lon="9.54411646260137"><ele>175.60000000000002</ele><time>2026-05-01T11:20:14.001Z</time></trkpt><trkpt lat="44.86160468850702" lon="9.544024891995283"><ele>175.4</ele><time>2026-05-01T11:20:15.001Z</time></trkpt><trkpt lat="44.86153698026643" lon="9.543944726462277"><ele>175.2</ele><time>2026-05-01T11:20:16.001Z</time></trkpt><trkpt lat="44.86146655382221" lon="9.543856830626751"><ele>175.0</ele><time>2026-05-01T11:20:18.001Z</time></trkpt><trkpt lat="44.861312415436025" lon="9.543967127658904"><ele>175.0</ele><time>2026-05-01T11:20:23.001Z</time></trkpt><trkpt lat="44.861267334739324" lon="9.544037456923249"><ele>175.0</ele><time>2026-05-01T11:20:24.001Z</time></trkpt><trkpt lat="44.861212637898774" lon="9.544111172134452"><ele>175.0</ele><time>2026-05-01T11:20:25.001Z</time></trkpt><trkpt lat="44.86114430546447" lon="9.544204374581236"><ele>175.0</ele><time>2026-05-01T11:20:26.001Z</time></trkpt><trkpt lat="44.861055055439905" lon="9.544319540595218"><ele>175.0</ele><time>2026-05-01T11:20:27.001Z</time></trkpt><trkpt lat="44.860958300936076" lon="9.544443754663666"><ele>173.75</ele><time>2026-05-01T11:20:28.001Z</time></trkpt><trkpt lat="44.86085696136073" lon="9.54457220322408"><ele>172.5</ele><time>2026-05-01T11:20:29.001Z</time></trkpt><trkpt lat="44.860746600645385" lon="9.54469083270316"><ele>171.25</ele><time>2026-05-01T11:20:30.001Z</time></trkpt><trkpt lat="44.860619511450764" lon="9.544801231083245"><ele>170.0</ele><time>2026-05-01T11:20:31.001Z</time></trkpt><trkpt lat="44.860493572142985" lon="9.544908148278921"><ele>170.0</ele><time>2026-05-01T11:20:32.001Z</time></trkpt><trkpt lat="44.86038372585984" lon="9.545000445094734"><ele>170.0</ele><time>2026-05-01T11:20:33.001Z</time></trkpt><trkpt lat="44.86027820578202" lon="9.545089836701418"><ele>170.0</ele><time>2026-05-01T11:20:34.001Z</time></trkpt><trkpt lat="44.86016673500723" lon="9.545186720727939"><ele>170.0</ele><time>2026-05-01T11:20:35.001Z</time></trkpt><trkpt lat="44.8600488522871" lon="9.545289177663356"><ele>167.75</ele><time>2026-05-01T11:20:36.001Z</time></trkpt><trkpt lat="44.85992557422436" lon="9.545396323762665"><ele>165.5</ele><time>2026-05-01T11:20:37.001Z</time></trkpt><trkpt lat="44.859799924357645" lon="9.545505375198069"><ele>163.25</ele><time>2026-05-01T11:20:38.001Z</time></trkpt><trkpt lat="44.85967425133243" lon="9.545627743568769"><ele>161.0</ele><time>2026-05-01T11:20:39.001Z</time></trkpt><trkpt lat="44.85954255605935" lon="9.545748878457275"><ele>161.0</ele><time>2026-05-01T11:20:40.001Z</time></trkpt><trkpt lat="44.85940235758997" lon="9.545872122399539"><ele>161.0</ele><time>2026-05-01T11:20:41.001Z</time></trkpt><trkpt lat="44.85926685536783" lon="9.54599441559965"><ele>161.0</ele><time>2026-05-01T11:20:42.001Z</time></trkpt><trkpt lat="44.85911423135778" lon="9.546100503711996"><ele>161.33333333333331</ele><time>2026-05-01T11:20:43.001Z</time></trkpt><trkpt lat="44.85897213816587" lon="9.546224132968026"><ele>161.66666666666666</ele><time>2026-05-01T11:20:44.001Z</time></trkpt><trkpt lat="44.85882349804713" lon="9.54637926723775"><ele>162.0</ele><time>2026-05-01T11:20:45.001Z</time></trkpt><trkpt lat="44.858665213466196" lon="9.546512621876705"><ele>162.0</ele><time>2026-05-01T11:20:46.001Z</time></trkpt><trkpt lat="44.85850639714612" lon="9.54664990999995"><ele>162.0</ele><time>2026-05-01T11:20:47.001Z</time></trkpt><trkpt lat="44.858349546600046" lon="9.546785773593646"><ele>162.0</ele><time>2026-05-01T11:20:48.001Z</time></trkpt><trkpt lat="44.85804323940013" lon="9.547056863590225"><ele>164.0</ele><time>2026-05-01T11:20:50.001Z</time></trkpt><trkpt lat="44.85788646962932" lon="9.54719909634697"><ele>166.0</ele><time>2026-05-01T11:20:51.001Z</time></trkpt><trkpt lat="44.85771525769056" lon="9.547318320125832"><ele>168.0</ele><time>2026-05-01T11:20:52.001Z</time></trkpt><trkpt lat="44.85757959321805" lon="9.547458816552144"><ele>170.33333333333334</ele><time>2026-05-01T11:20:53.001Z</time></trkpt><trkpt lat="44.85744106770978" lon="9.547554869888982"><ele>172.66666666666669</ele><time>2026-05-01T11:20:54.001Z</time></trkpt><trkpt lat="44.85732157369978" lon="9.547683982232263"><ele>175.0</ele><time>2026-05-01T11:20:55.001Z</time></trkpt><trkpt lat="44.85719256588982" lon="9.547776781671647"><ele>175.0</ele><time>2026-05-01T11:20:56.001Z</time></trkpt><trkpt lat="44.85705935294151" lon="9.547815606858192"><ele>175.0</ele><time>2026-05-01T11:20:57.001Z</time></trkpt><trkpt lat="44.856931037523964" lon="9.547817925623914"><ele>175.0</ele><time>2026-05-01T11:20:58.001Z</time></trkpt><trkpt lat="44.856807155380764" lon="9.5477528537487"><ele>175.0</ele><time>2026-05-01T11:20:59.001Z</time></trkpt><trkpt lat="44.85666623027741" lon="9.547690764450353"><ele>176.0</ele><time>2026-05-01T11:21:00.001Z</time></trkpt><trkpt lat="44.85652817152068" lon="9.54761604288815"><ele>177.0</ele><time>2026-05-01T11:21:01.001Z</time></trkpt><trkpt lat="44.85639040493654" lon="9.547557238019651"><ele>178.0</ele><time>2026-05-01T11:21:02.001Z</time></trkpt><trkpt lat="44.85627751112678" lon="9.547446262651047"><ele>179.0</ele><time>2026-05-01T11:21:03.001Z</time></trkpt><trkpt lat="44.856207250844705" lon="9.547282963639404"><ele>179.0</ele><time>2026-05-01T11:21:04.001Z</time></trkpt><trkpt lat="44.85616147582303" lon="9.547123048629263"><ele>179.0</ele><time>2026-05-01T11:21:05.001Z</time></trkpt><trkpt lat="44.85610074775588" lon="9.54699273979606"><ele>179.0</ele><time>2026-05-01T11:21:06.001Z</time></trkpt><trkpt lat="44.856047370722315" lon="9.54687943636279"><ele>179.0</ele><time>2026-05-01T11:21:07.001Z</time></trkpt><trkpt lat="44.8559667155401" lon="9.546814305913028"><ele>179.0</ele><time>2026-05-01T11:21:08.001Z</time></trkpt><trkpt lat="44.85587306410889" lon="9.546788190402085"><ele>179.79999999999998</ele><time>2026-05-01T11:21:09.001Z</time></trkpt><trkpt lat="44.85578593521936" lon="9.54682292986167"><ele>180.6</ele><time>2026-05-01T11:21:10.001Z</time></trkpt><trkpt lat="44.855720740876265" lon="9.546881270926232"><ele>181.4</ele><time>2026-05-01T11:21:11.001Z</time></trkpt><trkpt lat="44.85561988263665" lon="9.546959252088868"><ele>182.2</ele><time>2026-05-01T11:21:13.001Z</time></trkpt><trkpt lat="44.85552838406246" lon="9.546883816966638"><ele>183.0</ele><time>2026-05-01T11:21:14.001Z</time></trkpt><trkpt lat="44.85544310431797" lon="9.546776460267067"><ele>183.0</ele><time>2026-05-01T11:21:15.001Z</time></trkpt><trkpt lat="44.85533833239945" lon="9.546635857530774"><ele>183.0</ele><time>2026-05-01T11:21:16.001Z</time></trkpt><trkpt lat="44.855208406074" lon="9.54647598485873"><ele>183.0</ele><time>2026-05-01T11:21:17.001Z</time></trkpt><trkpt lat="44.855056179049534" lon="9.546294741057395"><ele>183.0</ele><time>2026-05-01T11:21:18.001Z</time></trkpt><trkpt lat="44.854900749178356" lon="9.54610427486792"><ele>183.0</ele><time>2026-05-01T11:21:19.001Z</time></trkpt><trkpt lat="44.854747625310424" lon="9.545912330062249"><ele>183.0</ele><time>2026-05-01T11:21:20.001Z</time></trkpt><trkpt lat="44.85460669258025" lon="9.545723248301023"><ele>183.0</ele><time>2026-05-01T11:21:21.001Z</time></trkpt><trkpt lat="44.854490178638876" lon="9.545498073074764"><ele>183.0</ele><time>2026-05-01T11:21:22.001Z</time></trkpt><trkpt lat="44.85436492488492" lon="9.54526329648557"><ele>183.0</ele><time>2026-05-01T11:21:23.001Z</time></trkpt><trkpt lat="44.85422779415525" lon="9.545035128418736"><ele>182.66666666666666</ele><time>2026-05-01T11:21:24.001Z</time></trkpt><trkpt lat="44.85411212059475" lon="9.544813091587072"><ele>182.33333333333331</ele><time>2026-05-01T11:21:25.001Z</time></trkpt><trkpt lat="44.85401316680442" lon="9.544612604159951"><ele>182.0</ele><time>2026-05-01T11:21:26.001Z</time></trkpt><trkpt lat="44.85395426294307" lon="9.544388388890981"><ele>182.0</ele><time>2026-05-01T11:21:27.001Z</time></trkpt><trkpt lat="44.85391167764591" lon="9.544146372341764"><ele>182.0</ele><time>2026-05-01T11:21:28.001Z</time></trkpt><trkpt lat="44.85387190959041" lon="9.543896692828078"><ele>182.0</ele><time>2026-05-01T11:21:29.001Z</time></trkpt><trkpt lat="44.853822185119775" lon="9.54366835200379"><ele>181.5</ele><time>2026-05-01T11:21:30.001Z</time></trkpt><trkpt lat="44.85378746816567" lon="9.54345844227693"><ele>181.0</ele><time>2026-05-01T11:21:31.001Z</time></trkpt><trkpt lat="44.85376962493999" lon="9.543252593095033"><ele>180.5</ele><time>2026-05-01T11:21:32.001Z</time></trkpt><trkpt lat="44.85373066795052" lon="9.543056429727725"><ele>180.0</ele><time>2026-05-01T11:21:33.001Z</time></trkpt><trkpt lat="44.85366543267802" lon="9.542887642955383"><ele>178.5</ele><time>2026-05-01T11:21:34.001Z</time></trkpt><trkpt lat="44.853593416537194" lon="9.542726685947985"><ele>177.0</ele><time>2026-05-01T11:21:35.001Z</time></trkpt><trkpt lat="44.85351642999731" lon="9.542563113427642"><ele>175.5</ele><time>2026-05-01T11:21:36.001Z</time></trkpt><trkpt lat="44.85341423994394" lon="9.542422233427994"><ele>174.0</ele><time>2026-05-01T11:21:37.001Z</time></trkpt><trkpt lat="44.85330764895643" lon="9.542305030329528"><ele>175.25</ele><time>2026-05-01T11:21:38.001Z</time></trkpt><trkpt lat="44.853200344668494" lon="9.542207921329762"><ele>176.5</ele><time>2026-05-01T11:21:39.001Z</time></trkpt><trkpt lat="44.8530890175756" lon="9.542121524736421"><ele>177.75</ele><time>2026-05-01T11:21:40.001Z</time></trkpt><trkpt lat="44.85297287011968" lon="9.542035740018221"><ele>179.0</ele><time>2026-05-01T11:21:41.001Z</time></trkpt><trkpt lat="44.85284648469117" lon="9.54196889412159"><ele>179.0</ele><time>2026-05-01T11:21:42.001Z</time></trkpt><trkpt lat="44.85272457185341" lon="9.541877755959243"><ele>179.0</ele><time>2026-05-01T11:21:43.001Z</time></trkpt><trkpt lat="44.85259667150495" lon="9.541791315611093"><ele>179.0</ele><time>2026-05-01T11:21:44.001Z</time></trkpt><trkpt lat="44.85246437089843" lon="9.541703657014793"><ele>179.0</ele><time>2026-05-01T11:21:45.001Z</time></trkpt><trkpt lat="44.85234379051698" lon="9.541628823826459"><ele>181.79999999999998</ele><time>2026-05-01T11:21:46.001Z</time></trkpt><trkpt lat="44.852243862465926" lon="9.541565385053591"><ele>184.6</ele><time>2026-05-01T11:21:47.001Z</time></trkpt><trkpt lat="44.85216693550815" lon="9.541492309899352"><ele>187.4</ele><time>2026-05-01T11:21:48.001Z</time></trkpt><trkpt lat="44.85209727573528" lon="9.541448121835732"><ele>190.2</ele><time>2026-05-01T11:21:49.001Z</time></trkpt><trkpt lat="44.85199548480329" lon="9.541384226488987"><ele>193.0</ele><time>2026-05-01T11:21:51.001Z</time></trkpt><trkpt lat="44.85192663474837" lon="9.541341009070912"><ele>193.0</ele><time>2026-05-01T11:21:53.001Z</time></trkpt><trkpt lat="44.851833140758586" lon="9.541395454205928"><ele>193.0</ele><time>2026-05-01T11:21:55.001Z</time></trkpt><trkpt lat="44.85175434075224" lon="9.541357235170503"><ele>193.0</ele><time>2026-05-01T11:21:57.001Z</time></trkpt><trkpt lat="44.851653138565496" lon="9.541347607211014"><ele>193.0</ele><time>2026-05-01T11:21:59.001Z</time></trkpt><trkpt lat="44.85155564014317" lon="9.541311125930772"><ele>193.0</ele><time>2026-05-01T11:22:01.001Z</time></trkpt><trkpt lat="44.85144825890773" lon="9.541270010784102"><ele>192.49999999999997</ele><time>2026-05-01T11:22:03.001Z</time></trkpt><trkpt lat="44.85133461340021" lon="9.541222238882757"><ele>192.0</ele><time>2026-05-01T11:22:05.001Z</time></trkpt><trkpt lat="44.85126895962554" lon="9.54119468878401"><ele>191.5</ele><time>2026-05-01T11:22:06.001Z</time></trkpt><trkpt lat="44.851184417976654" lon="9.54115609401464"><ele>191.0</ele><time>2026-05-01T11:22:07.001Z</time></trkpt><trkpt lat="44.85110060541568" lon="9.54112310189058"><ele>190.5</ele><time>2026-05-01T11:22:08.001Z</time></trkpt><trkpt lat="44.8510255988757" lon="9.541117445978143"><ele>190.0</ele><time>2026-05-01T11:22:09.001Z</time></trkpt><trkpt lat="44.850962515769936" lon="9.54114703326427"><ele>191.75</ele><time>2026-05-01T11:22:10.001Z</time></trkpt><trkpt lat="44.8509048909088" lon="9.541308861319948"><ele>193.5</ele><time>2026-05-01T11:22:12.001Z</time></trkpt><trkpt lat="44.85091063023686" lon="9.541433206823335"><ele>195.25</ele><time>2026-05-01T11:22:13.001Z</time></trkpt><trkpt lat="44.850937050457254" lon="9.541591892854798"><ele>197.0</ele><time>2026-05-01T11:22:14.001Z</time></trkpt><trkpt lat="44.850969879286986" lon="9.541791107593541"><ele>197.0</ele><time>2026-05-01T11:22:15.001Z</time></trkpt><trkpt lat="44.85099299579357" lon="9.542001198332661"><ele>197.0</ele><time>2026-05-01T11:22:16.001Z</time></trkpt><trkpt lat="44.85101655429657" lon="9.54220286630698"><ele>197.0</ele><time>2026-05-01T11:22:17.001Z</time></trkpt><trkpt lat="44.85103603426438" lon="9.542371990373073"><ele>197.0</ele><time>2026-05-01T11:22:18.001Z</time></trkpt><trkpt lat="44.85102234369596" lon="9.542533486626615"><ele>201.0</ele><time>2026-05-01T11:22:19.001Z</time></trkpt><trkpt lat="44.850995971898804" lon="9.542695539359"><ele>205.0</ele><time>2026-05-01T11:22:20.001Z</time></trkpt><trkpt lat="44.850960085818336" lon="9.542890197132444"><ele>209.0</ele><time>2026-05-01T11:22:21.001Z</time></trkpt><trkpt lat="44.85091741313747" lon="9.54311239866567"><ele>213.0</ele><time>2026-05-01T11:22:22.001Z</time></trkpt><trkpt lat="44.850860701522386" lon="9.54334887715026"><ele>214.0</ele><time>2026-05-01T11:22:23.001Z</time></trkpt><trkpt lat="44.85081384748252" lon="9.543574863028516"><ele>215.0</ele><time>2026-05-01T11:22:24.001Z</time></trkpt><trkpt lat="44.85077425645021" lon="9.54377850275575"><ele>216.0</ele><time>2026-05-01T11:22:25.001Z</time></trkpt><trkpt lat="44.85073797560523" lon="9.543959153894571"><ele>217.75</ele><time>2026-05-01T11:22:26.001Z</time></trkpt><trkpt lat="44.85069797270996" lon="9.544136320899536"><ele>219.5</ele><time>2026-05-01T11:22:27.001Z</time></trkpt><trkpt lat="44.850663180405924" lon="9.544312386472683"><ele>221.25</ele><time>2026-05-01T11:22:28.001Z</time></trkpt><trkpt lat="44.85063149042045" lon="9.544469594304674"><ele>223.0</ele><time>2026-05-01T11:22:29.001Z</time></trkpt><trkpt lat="44.85060151814251" lon="9.544608185529036"><ele>224.8</ele><time>2026-05-01T11:22:30.001Z</time></trkpt><trkpt lat="44.85058572875612" lon="9.544728232803074"><ele>226.60000000000002</ele><time>2026-05-01T11:22:31.001Z</time></trkpt><trkpt lat="44.850587400695936" lon="9.544841236175559"><ele>228.39999999999998</ele><time>2026-05-01T11:22:32.001Z</time></trkpt><trkpt lat="44.85066453499935" lon="9.544920727259091"><ele>230.2</ele><time>2026-05-01T11:22:33.001Z</time></trkpt><trkpt lat="44.850753973710056" lon="9.544960763390892"><ele>232.0</ele><time>2026-05-01T11:22:34.001Z</time></trkpt><trkpt lat="44.85085266330924" lon="9.544977117312495"><ele>233.25</ele><time>2026-05-01T11:22:35.001Z</time></trkpt><trkpt lat="44.85096322863194" lon="9.544974604684727"><ele>234.5</ele><time>2026-05-01T11:22:36.001Z</time></trkpt><trkpt lat="44.85108639785224" lon="9.544938694737732"><ele>235.75</ele><time>2026-05-01T11:22:37.001Z</time></trkpt><trkpt lat="44.85121688414909" lon="9.544856996514065"><ele>237.0</ele><time>2026-05-01T11:22:38.001Z</time></trkpt><trkpt lat="44.85134736467703" lon="9.544750416505947"><ele>237.0</ele><time>2026-05-01T11:22:39.001Z</time></trkpt><trkpt lat="44.85146320633953" lon="9.544651693375142"><ele>237.0</ele><time>2026-05-01T11:22:40.001Z</time></trkpt><trkpt lat="44.851563381154605" lon="9.544596963325393"><ele>237.0</ele><time>2026-05-01T11:22:41.001Z</time></trkpt><trkpt lat="44.85166756218355" lon="9.544584995102744"><ele>237.0</ele><time>2026-05-01T11:22:42.001Z</time></trkpt><trkpt lat="44.851753535522676" lon="9.544616744340978"><ele>237.0</ele><time>2026-05-01T11:22:43.001Z</time></trkpt><trkpt lat="44.85178412927137" lon="9.544701703263396"><ele>237.0</ele><time>2026-05-01T11:22:44.001Z</time></trkpt><trkpt lat="44.851772705331435" lon="9.544789992116716"><ele>237.0</ele><time>2026-05-01T11:22:45.001Z</time></trkpt><trkpt lat="44.8517377746934" lon="9.544890136664115"><ele>237.0</ele><time>2026-05-01T11:22:46.001Z</time></trkpt><trkpt lat="44.85169312904709" lon="9.545016846305717"><ele>237.0</ele><time>2026-05-01T11:22:47.001Z</time></trkpt><trkpt lat="44.85166490492388" lon="9.545192491939133"><ele>237.0</ele><time>2026-05-01T11:22:48.001Z</time></trkpt><trkpt lat="44.8516764282667" lon="9.54537115170127"><ele>236.66666666666669</ele><time>2026-05-01T11:22:49.001Z</time></trkpt><trkpt lat="44.85172695933784" lon="9.545577269688039"><ele>236.33333333333334</ele><time>2026-05-01T11:22:50.001Z</time></trkpt><trkpt lat="44.851781592382274" lon="9.545836529722493"><ele>236.0</ele><time>2026-05-01T11:22:51.001Z</time></trkpt><trkpt lat="44.851839480888486" lon="9.546093907276886"><ele>237.75</ele><time>2026-05-01T11:22:52.001Z</time></trkpt><trkpt lat="44.851895766740064" lon="9.546322518061404"><ele>239.5</ele><time>2026-05-01T11:22:53.001Z</time></trkpt><trkpt lat="44.8519198636503" lon="9.546514345286491"><ele>241.25</ele><time>2026-05-01T11:22:54.001Z</time></trkpt><trkpt lat="44.85194320924156" lon="9.546692477088335"><ele>243.0</ele><time>2026-05-01T11:22:55.001Z</time></trkpt><trkpt lat="44.851976353586245" lon="9.546862480131576"><ele>243.0</ele><time>2026-05-01T11:22:56.001Z</time></trkpt><trkpt lat="44.8520117366129" lon="9.547026641181242"><ele>243.0</ele><time>2026-05-01T11:22:57.001Z</time></trkpt><trkpt lat="44.85199935336326" lon="9.547178427806884"><ele>243.0</ele><time>2026-05-01T11:22:58.001Z</time></trkpt><trkpt lat="44.851972930814526" lon="9.547301868835458"><ele>243.0</ele><time>2026-05-01T11:22:59.001Z</time></trkpt><trkpt lat="44.85192983107376" lon="9.547425416523948"><ele>243.0</ele><time>2026-05-01T11:23:00.001Z</time></trkpt><trkpt lat="44.85187874472419" lon="9.547521008794847"><ele>246.66666666666666</ele><time>2026-05-01T11:23:01.001Z</time></trkpt><trkpt lat="44.85178149733846" lon="9.547497697083735"><ele>250.33333333333331</ele><time>2026-05-01T11:23:03.001Z</time></trkpt><trkpt lat="44.85176416595689" lon="9.547401779359175"><ele>254.0</ele><time>2026-05-01T11:23:04.001Z</time></trkpt><trkpt lat="44.85175997037045" lon="9.547296177636227"><ele>257.66666666666663</ele><time>2026-05-01T11:23:05.001Z</time></trkpt><trkpt lat="44.85175574533658" lon="9.547180112445877"><ele>261.3333333333333</ele><time>2026-05-01T11:23:06.001Z</time></trkpt><trkpt lat="44.851723745670974" lon="9.547070921609805"><ele>265.0</ele><time>2026-05-01T11:23:07.001Z</time></trkpt><trkpt lat="44.85165205560272" lon="9.546980501054882"><ele>265.0</ele><time>2026-05-01T11:23:08.001Z</time></trkpt><trkpt lat="44.851565491732174" lon="9.54691386240503"><ele>265.0</ele><time>2026-05-01T11:23:09.001Z</time></trkpt><trkpt lat="44.851459738476365" lon="9.546925692651246"><ele>265.0</ele><time>2026-05-01T11:23:10.001Z</time></trkpt><trkpt lat="44.851379477524354" lon="9.547029485234946"><ele>265.0</ele><time>2026-05-01T11:23:11.001Z</time></trkpt><trkpt lat="44.85132073572047" lon="9.54715157357462"><ele>265.0</ele><time>2026-05-01T11:23:12.001Z</time></trkpt><trkpt lat="44.85124827916304" lon="9.547281213407"><ele>267.25</ele><time>2026-05-01T11:23:13.001Z</time></trkpt><trkpt lat="44.85123320908903" lon="9.547435483128313"><ele>269.5</ele><time>2026-05-01T11:23:14.001Z</time></trkpt><trkpt lat="44.85123528197465" lon="9.547579031574523"><ele>271.75</ele><time>2026-05-01T11:23:15.001Z</time></trkpt><trkpt lat="44.851247448421724" lon="9.547755266046066"><ele>274.0</ele><time>2026-05-01T11:23:16.001Z</time></trkpt><trkpt lat="44.851252199050585" lon="9.547969560585424"><ele>275.0</ele><time>2026-05-01T11:23:17.001Z</time></trkpt><trkpt lat="44.85125681205771" lon="9.548200817856447"><ele>276.0</ele><time>2026-05-01T11:23:18.001Z</time></trkpt><trkpt lat="44.851257971004074" lon="9.548419914430696"><ele>277.0</ele><time>2026-05-01T11:23:19.001Z</time></trkpt><trkpt lat="44.851253628737496" lon="9.548637864817895"><ele>279.25</ele><time>2026-05-01T11:23:20.001Z</time></trkpt><trkpt lat="44.85123834674422" lon="9.548826679684373"><ele>281.5</ele><time>2026-05-01T11:23:21.001Z</time></trkpt><trkpt lat="44.85119070185605" lon="9.54896479987903"><ele>283.75</ele><time>2026-05-01T11:23:22.001Z</time></trkpt><trkpt lat="44.85112087274441" lon="9.549066854012041"><ele>286.0</ele><time>2026-05-01T11:23:23.001Z</time></trkpt><trkpt lat="44.8510294538479" lon="9.549153068321004"><ele>287.2</ele><time>2026-05-01T11:23:24.001Z</time></trkpt><trkpt lat="44.85093696551608" lon="9.549260069552533"><ele>288.40000000000003</ele><time>2026-05-01T11:23:25.001Z</time></trkpt><trkpt lat="44.85086247625668" lon="9.549361019208233"><ele>289.6</ele><time>2026-05-01T11:23:26.001Z</time></trkpt><trkpt lat="44.85083487385151" lon="9.549486243035448"><ele>290.8</ele><time>2026-05-01T11:23:27.001Z</time></trkpt><trkpt lat="44.85081967840818" lon="9.549583288241442"><ele>292.0</ele><time>2026-05-01T11:23:28.001Z</time></trkpt><trkpt lat="44.850864041098895" lon="9.549683605608541"><ele>293.5</ele><time>2026-05-01T11:23:29.001Z</time></trkpt><trkpt lat="44.85098593106975" lon="9.549725595975923"><ele>295.0</ele><time>2026-05-01T11:23:30.001Z</time></trkpt><trkpt lat="44.85108012613585" lon="9.549802631935156"><ele>296.5</ele><time>2026-05-01T11:23:31.001Z</time></trkpt><trkpt lat="44.8511587717606" lon="9.549888308849901"><ele>298.0</ele><time>2026-05-01T11:23:32.001Z</time></trkpt><trkpt lat="44.851193885615054" lon="9.550071451089698"><ele>298.0</ele><time>2026-05-01T11:23:33.001Z</time></trkpt><trkpt lat="44.851275480433145" lon="9.550207032012736"><ele>298.0</ele><time>2026-05-01T11:23:34.001Z</time></trkpt><trkpt lat="44.851365841281876" lon="9.550314167888244"><ele>298.0</ele><time>2026-05-01T11:23:35.001Z</time></trkpt><trkpt lat="44.85142589254827" lon="9.5504190420431"><ele>298.0</ele><time>2026-05-01T11:23:36.001Z</time></trkpt><trkpt lat="44.85145641328101" lon="9.550514472495523"><ele>298.0</ele><time>2026-05-01T11:23:37.001Z</time></trkpt><trkpt lat="44.85142798928551" lon="9.550616211173347"><ele>301.0</ele><time>2026-05-01T11:23:38.001Z</time></trkpt><trkpt lat="44.851403653979084" lon="9.550757140194913"><ele>304.0</ele><time>2026-05-01T11:23:39.001Z</time></trkpt><trkpt lat="44.851425355839424" lon="9.550903571786028"><ele>307.0</ele><time>2026-05-01T11:23:40.001Z</time></trkpt><trkpt lat="44.85147994794747" lon="9.551045269092256"><ele>310.0</ele><time>2026-05-01T11:23:41.001Z</time></trkpt><trkpt lat="44.85156299595323" lon="9.551179812503413"><ele>313.0</ele><time>2026-05-01T11:23:42.001Z</time></trkpt><trkpt lat="44.851636877838125" lon="9.551340743800992"><ele>316.0</ele><time>2026-05-01T11:23:43.001Z</time></trkpt><trkpt lat="44.8517063172258" lon="9.55148538540629"><ele>319.0</ele><time>2026-05-01T11:23:44.001Z</time></trkpt><trkpt lat="44.85173896493765" lon="9.551622445436806"><ele>322.0</ele><time>2026-05-01T11:23:45.001Z</time></trkpt><trkpt lat="44.85173769667085" lon="9.551764155121244"><ele>322.0</ele><time>2026-05-01T11:23:46.001Z</time></trkpt><trkpt lat="44.85174347306812" lon="9.551927211437606"><ele>322.0</ele><time>2026-05-01T11:23:47.001Z</time></trkpt><trkpt lat="44.85174078873088" lon="9.552090836127379"><ele>322.0</ele><time>2026-05-01T11:23:48.001Z</time></trkpt><trkpt lat="44.85171713626466" lon="9.552265798411309"><ele>322.0</ele><time>2026-05-01T11:23:49.001Z</time></trkpt><trkpt lat="44.85169271027333" lon="9.552445155616919"><ele>323.25</ele><time>2026-05-01T11:23:50.001Z</time></trkpt><trkpt lat="44.85170470248943" lon="9.552607524473892"><ele>324.5</ele><time>2026-05-01T11:23:51.001Z</time></trkpt><trkpt lat="44.85174724315189" lon="9.552761297659771"><ele>325.75</ele><time>2026-05-01T11:23:52.001Z</time></trkpt><trkpt lat="44.85181372548379" lon="9.552912447072384"><ele>327.0</ele><time>2026-05-01T11:23:53.001Z</time></trkpt><trkpt lat="44.85184266273724" lon="9.553042436339855"><ele>329.5</ele><time>2026-05-01T11:23:54.001Z</time></trkpt><trkpt lat="44.851789966115106" lon="9.553161139188738"><ele>332.0</ele><time>2026-05-01T11:23:55.001Z</time></trkpt><trkpt lat="44.851756511189954" lon="9.553320805874273"><ele>334.5</ele><time>2026-05-01T11:23:56.001Z</time></trkpt><trkpt lat="44.8517372622726" lon="9.553512343112349"><ele>337.0</ele><time>2026-05-01T11:23:57.001Z</time></trkpt><trkpt lat="44.85170980901662" lon="9.553702831532007"><ele>338.5</ele><time>2026-05-01T11:23:58.001Z</time></trkpt><trkpt lat="44.851703183633234" lon="9.553874673375907"><ele>340.0</ele><time>2026-05-01T11:23:59.001Z</time></trkpt><trkpt lat="44.85172355280702" lon="9.554035201306176"><ele>341.5</ele><time>2026-05-01T11:24:00.001Z</time></trkpt><trkpt lat="44.85176236682464" lon="9.554176696743747"><ele>343.0</ele><time>2026-05-01T11:24:01.001Z</time></trkpt><trkpt lat="44.85184023950046" lon="9.554279192702943"><ele>343.0</ele><time>2026-05-01T11:24:02.001Z</time></trkpt><trkpt lat="44.85195657323146" lon="9.554330155619182"><ele>343.0</ele><time>2026-05-01T11:24:03.001Z</time></trkpt><trkpt lat="44.85209262067802" lon="9.554359694176998"><ele>343.0</ele><time>2026-05-01T11:24:04.001Z</time></trkpt><trkpt lat="44.8522196314209" lon="9.554446837541782"><ele>343.0</ele><time>2026-05-01T11:24:05.001Z</time></trkpt><trkpt lat="44.8523114894254" lon="9.554521368157461"><ele>342.16666666666663</ele><time>2026-05-01T11:24:06.001Z</time></trkpt><trkpt lat="44.85238597166556" lon="9.554607479733127"><ele>341.3333333333333</ele><time>2026-05-01T11:24:07.001Z</time></trkpt><trkpt lat="44.852436438936344" lon="9.554701382279731"><ele>340.5</ele><time>2026-05-01T11:24:08.001Z</time></trkpt><trkpt lat="44.852491171384955" lon="9.554793524616068"><ele>339.6666666666667</ele><time>2026-05-01T11:24:09.001Z</time></trkpt><trkpt lat="44.85254306114706" lon="9.554885653266647"><ele>338.83333333333337</ele><time>2026-05-01T11:24:10.001Z</time></trkpt><trkpt lat="44.85258703747961" lon="9.554970580968911"><ele>338.0</ele><time>2026-05-01T11:24:11.001Z</time></trkpt><trkpt lat="44.85262546285426" lon="9.555051470786594"><ele>338.0</ele><time>2026-05-01T11:24:12.001Z</time></trkpt><trkpt lat="44.85265473929539" lon="9.555133458370452"><ele>338.0</ele><time>2026-05-01T11:24:13.001Z</time></trkpt><trkpt lat="44.85268249202848" lon="9.555221930753206"><ele>338.0</ele><time>2026-05-01T11:24:14.001Z</time></trkpt><trkpt lat="44.85270592274682" lon="9.555320203791943"><ele>338.0</ele><time>2026-05-01T11:24:15.001Z</time></trkpt><trkpt lat="44.85273227401379" lon="9.555409002934665"><ele>338.0</ele><time>2026-05-01T11:24:16.001Z</time></trkpt><trkpt lat="44.85268356474873" lon="9.555497961568145"><ele>338.0</ele><time>2026-05-01T11:24:17.001Z</time></trkpt><trkpt lat="44.8526391240185" lon="9.555597539588877"><ele>338.0</ele><time>2026-05-01T11:24:18.001Z</time></trkpt><trkpt lat="44.852597297723776" lon="9.555735467160849"><ele>345.25</ele><time>2026-05-01T11:24:19.001Z</time></trkpt><trkpt lat="44.85254513077203" lon="9.555887929052004"><ele>352.5</ele><time>2026-05-01T11:24:20.001Z</time></trkpt><trkpt lat="44.85250322540637" lon="9.55606970231505"><ele>359.75</ele><time>2026-05-01T11:24:21.001Z</time></trkpt><trkpt lat="44.85244768836638" lon="9.55625878330472"><ele>367.0</ele><time>2026-05-01T11:24:22.001Z</time></trkpt><trkpt lat="44.85240940597868" lon="9.556442788399858"><ele>367.75</ele><time>2026-05-01T11:24:23.001Z</time></trkpt><trkpt lat="44.852360964255354" lon="9.556597570850515"><ele>368.5</ele><time>2026-05-01T11:24:24.001Z</time></trkpt><trkpt lat="44.8522977013624" lon="9.556736046002044"><ele>369.25</ele><time>2026-05-01T11:24:25.001Z</time></trkpt><trkpt lat="44.85222598313905" lon="9.556867267515809"><ele>370.0</ele><time>2026-05-01T11:24:26.001Z</time></trkpt><trkpt lat="44.852149502382275" lon="9.556975144188197"><ele>369.75</ele><time>2026-05-01T11:24:27.001Z</time></trkpt><trkpt lat="44.85207481332573" lon="9.557084904622018"><ele>369.5</ele><time>2026-05-01T11:24:28.001Z</time></trkpt><trkpt lat="44.85200295477025" lon="9.55720925532438"><ele>369.25</ele><time>2026-05-01T11:24:29.001Z</time></trkpt><trkpt lat="44.8519352475474" lon="9.557366370206262"><ele>369.0</ele><time>2026-05-01T11:24:30.001Z</time></trkpt><trkpt lat="44.85187177096114" lon="9.557532343877869"><ele>369.0</ele><time>2026-05-01T11:24:31.001Z</time></trkpt><trkpt lat="44.85181685973407" lon="9.557686444481542"><ele>369.0</ele><time>2026-05-01T11:24:32.001Z</time></trkpt><trkpt lat="44.851792415055144" lon="9.557821258008394"><ele>369.0</ele><time>2026-05-01T11:24:33.001Z</time></trkpt><trkpt lat="44.85180065770741" lon="9.557938168786684"><ele>369.0</ele><time>2026-05-01T11:24:34.001Z</time></trkpt><trkpt lat="44.85183418609839" lon="9.558063021957535"><ele>369.0</ele><time>2026-05-01T11:24:35.001Z</time></trkpt><trkpt lat="44.85188149598713" lon="9.558209971146665"><ele>368.75</ele><time>2026-05-01T11:24:36.001Z</time></trkpt><trkpt lat="44.85192081745858" lon="9.558378704143"><ele>368.5</ele><time>2026-05-01T11:24:37.001Z</time></trkpt><trkpt lat="44.851922353688295" lon="9.55853237268609"><ele>368.25</ele><time>2026-05-01T11:24:38.001Z</time></trkpt><trkpt lat="44.85188657373114" lon="9.558669653451505"><ele>368.0</ele><time>2026-05-01T11:24:39.001Z</time></trkpt><trkpt lat="44.851814534854704" lon="9.558798094391712"><ele>373.25</ele><time>2026-05-01T11:24:40.001Z</time></trkpt><trkpt lat="44.851740480625985" lon="9.558955721056606"><ele>378.5</ele><time>2026-05-01T11:24:41.001Z</time></trkpt><trkpt lat="44.85166683150761" lon="9.55911248537968"><ele>383.75</ele><time>2026-05-01T11:24:42.001Z</time></trkpt><trkpt lat="44.851601134210995" lon="9.559242403220669"><ele>389.0</ele><time>2026-05-01T11:24:43.001Z</time></trkpt><trkpt lat="44.851546155292894" lon="9.559358040363874"><ele>388.99999999999994</ele><time>2026-05-01T11:24:44.001Z</time></trkpt><trkpt lat="44.851503652394946" lon="9.559475434184792"><ele>389.0</ele><time>2026-05-01T11:24:45.001Z</time></trkpt><trkpt lat="44.851499843961825" lon="9.559594374528224"><ele>389.0</ele><time>2026-05-01T11:24:46.001Z</time></trkpt><trkpt lat="44.85150305850467" lon="9.559702844437469"><ele>389.0</ele><time>2026-05-01T11:24:47.001Z</time></trkpt><trkpt lat="44.85153735294417" lon="9.559818454369765"><ele>388.99999999999994</ele><time>2026-05-01T11:24:48.001Z</time></trkpt><trkpt lat="44.85155474838056" lon="9.559957042879082"><ele>389.0</ele><time>2026-05-01T11:24:49.001Z</time></trkpt><trkpt lat="44.85156708097949" lon="9.56010519303591"><ele>391.4</ele><time>2026-05-01T11:24:50.001Z</time></trkpt><trkpt lat="44.85157250240264" lon="9.560272119193215"><ele>393.79999999999995</ele><time>2026-05-01T11:24:51.001Z</time></trkpt><trkpt lat="44.851574353741434" lon="9.560429253592517"><ele>396.20000000000005</ele><time>2026-05-01T11:24:52.001Z</time></trkpt><trkpt lat="44.85155711383805" lon="9.560544522448321"><ele>398.6</ele><time>2026-05-01T11:24:53.001Z</time></trkpt><trkpt lat="44.85152745237794" lon="9.56063246418863"><ele>401.0</ele><time>2026-05-01T11:24:54.001Z</time></trkpt><trkpt lat="44.851439438772005" lon="9.560632666046246"><ele>402.49999999999994</ele><time>2026-05-01T11:24:55.001Z</time></trkpt><trkpt lat="44.85137727186846" lon="9.560679273419082"><ele>404.0</ele><time>2026-05-01T11:24:57.001Z</time></trkpt><trkpt lat="44.85131199970436" lon="9.560831176187898"><ele>405.5</ele><time>2026-05-01T11:25:05.001Z</time></trkpt><trkpt lat="44.85127841046256" lon="9.560941036309636"><ele>407.0</ele><time>2026-05-01T11:25:06.001Z</time></trkpt><trkpt lat="44.8512477972453" lon="9.561053822703363"><ele>408.49999999999994</ele><time>2026-05-01T11:25:07.001Z</time></trkpt><trkpt lat="44.851241012559825" lon="9.56116795735146"><ele>410.0</ele><time>2026-05-01T11:25:08.001Z</time></trkpt><trkpt lat="44.851283663632195" lon="9.561282259217402"><ele>412.0</ele><time>2026-05-01T11:25:09.001Z</time></trkpt><trkpt lat="44.851311776619376" lon="9.561428617217635"><ele>414.0</ele><time>2026-05-01T11:25:10.001Z</time></trkpt><trkpt lat="44.851334471024344" lon="9.561601458094202"><ele>416.0</ele><time>2026-05-01T11:25:11.001Z</time></trkpt><trkpt lat="44.85135592651592" lon="9.561775854637721"><ele>418.0</ele><time>2026-05-01T11:25:12.001Z</time></trkpt><trkpt lat="44.85141093502749" lon="9.561939991745485"><ele>419.6666666666667</ele><time>2026-05-01T11:25:13.001Z</time></trkpt><trkpt lat="44.85148351868896" lon="9.562119323535647"><ele>421.33333333333337</ele><time>2026-05-01T11:25:14.001Z</time></trkpt><trkpt lat="44.851552458659654" lon="9.562274463793301"><ele>423.0</ele><time>2026-05-01T11:25:15.001Z</time></trkpt><trkpt lat="44.851668683860105" lon="9.56252126529214"><ele>423.0</ele><time>2026-05-01T11:25:17.001Z</time></trkpt><trkpt lat="44.85173139157537" lon="9.562577357785877"><ele>423.0</ele><time>2026-05-01T11:25:18.001Z</time></trkpt><trkpt lat="44.85177455177689" lon="9.562677874569278"><ele>423.0</ele><time>2026-05-01T11:25:20.001Z</time></trkpt><trkpt lat="44.851758213112284" lon="9.562781531372918"><ele>423.0</ele><time>2026-05-01T11:26:58.001Z</time></trkpt><trkpt lat="44.85176415192529" lon="9.562892673788602"><ele>423.0</ele><time>2026-05-01T11:27:00.001Z</time></trkpt><trkpt lat="44.851754834003785" lon="9.563048227069453"><ele>423.0</ele><time>2026-05-01T11:27:02.001Z</time></trkpt><trkpt lat="44.85175274336358" lon="9.56313866768599"><ele>423.6666666666667</ele><time>2026-05-01T11:27:03.001Z</time></trkpt><trkpt lat="44.85176265100194" lon="9.563242569331788"><ele>424.33333333333337</ele><time>2026-05-01T11:27:04.001Z</time></trkpt><trkpt lat="44.85178379230542" lon="9.563342813215545"><ele>425.0</ele><time>2026-05-01T11:27:05.001Z</time></trkpt><trkpt lat="44.85181658528816" lon="9.563440865688184"><ele>425.6666666666667</ele><time>2026-05-01T11:27:06.001Z</time></trkpt><trkpt lat="44.851863218971616" lon="9.563530645517833"><ele>426.33333333333337</ele><time>2026-05-01T11:27:07.001Z</time></trkpt><trkpt lat="44.85191806758459" lon="9.563614276534754"><ele>427.0</ele><time>2026-05-01T11:27:08.001Z</time></trkpt><trkpt lat="44.851975314465285" lon="9.563698040496288"><ele>429.83333333333337</ele><time>2026-05-01T11:27:09.001Z</time></trkpt><trkpt lat="44.852039672856804" lon="9.563790443351026"><ele>432.6666666666667</ele><time>2026-05-01T11:27:10.001Z</time></trkpt><trkpt lat="44.85211224313029" lon="9.56388905026019"><ele>435.5</ele><time>2026-05-01T11:27:11.001Z</time></trkpt><trkpt lat="44.85218059896353" lon="9.563985908731699"><ele>438.33333333333337</ele><time>2026-05-01T11:27:12.001Z</time></trkpt><trkpt lat="44.852235424174346" lon="9.564086550600269"><ele>441.1666666666667</ele><time>2026-05-01T11:27:13.001Z</time></trkpt><trkpt lat="44.85226383447704" lon="9.564174773196736"><ele>444.0</ele><time>2026-05-01T11:27:14.001Z</time></trkpt><trkpt lat="44.85223206547329" lon="9.5643300490982"><ele>444.0</ele><time>2026-05-01T11:27:16.001Z</time></trkpt><trkpt lat="44.85219044619886" lon="9.564398538818969"><ele>444.0</ele><time>2026-05-01T11:27:17.001Z</time></trkpt><trkpt lat="44.85212317973822" lon="9.564460408184589"><ele>444.0</ele><time>2026-05-01T11:27:18.001Z</time></trkpt><trkpt lat="44.85202697453163" lon="9.564498960432772"><ele>444.0</ele><time>2026-05-01T11:27:19.001Z</time></trkpt><trkpt lat="44.85191849997312" lon="9.564513747374278"><ele>444.0</ele><time>2026-05-01T11:27:20.001Z</time></trkpt><trkpt lat="44.851825449655216" lon="9.564545706173151"><ele>444.0</ele><time>2026-05-01T11:27:21.001Z</time></trkpt><trkpt lat="44.85174373132731" lon="9.564576325367076"><ele>446.3333333333333</ele><time>2026-05-01T11:27:22.001Z</time></trkpt><trkpt lat="44.851665963320805" lon="9.564611808686617"><ele>448.66666666666663</ele><time>2026-05-01T11:27:23.001Z</time></trkpt><trkpt lat="44.851593723135444" lon="9.564663478173173"><ele>451.0</ele><time>2026-05-01T11:27:24.001Z</time></trkpt><trkpt lat="44.851536401451256" lon="9.564738362962084"><ele>453.3333333333333</ele><time>2026-05-01T11:27:25.001Z</time></trkpt><trkpt lat="44.851513721456946" lon="9.564859761417285"><ele>455.66666666666663</ele><time>2026-05-01T11:27:26.001Z</time></trkpt><trkpt lat="44.85147177324364" lon="9.564947282542944"><ele>458.0</ele><time>2026-05-01T11:27:27.001Z</time></trkpt><trkpt lat="44.85143814911614" lon="9.565043919114702"><ele>457.99999999999994</ele><time>2026-05-01T11:27:28.001Z</time></trkpt><trkpt lat="44.8513985146185" lon="9.565158535754298"><ele>458.0</ele><time>2026-05-01T11:27:29.001Z</time></trkpt><trkpt lat="44.85136715480045" lon="9.565252788775691"><ele>458.0</ele><time>2026-05-01T11:27:30.001Z</time></trkpt><trkpt lat="44.85133911407876" lon="9.565337066046807"><ele>458.0</ele><time>2026-05-01T11:27:31.001Z</time></trkpt><trkpt lat="44.85130967390634" lon="9.565428715737156"><ele>457.99999999999994</ele><time>2026-05-01T11:27:32.001Z</time></trkpt><trkpt lat="44.85128406847819" lon="9.565532132967004"><ele>458.0</ele><time>2026-05-01T11:27:33.001Z</time></trkpt><trkpt lat="44.85126289876685" lon="9.565647852262886"><ele>460.66666666666663</ele><time>2026-05-01T11:27:34.001Z</time></trkpt><trkpt lat="44.85121731644491" lon="9.565755154465515"><ele>463.3333333333333</ele><time>2026-05-01T11:27:35.001Z</time></trkpt><trkpt lat="44.85118168056378" lon="9.565873134491039"><ele>466.0</ele><time>2026-05-01T11:27:36.001Z</time></trkpt><trkpt lat="44.851159887351045" lon="9.565973263784098"><ele>468.66666666666663</ele><time>2026-05-01T11:27:37.001Z</time></trkpt><trkpt lat="44.851104975816995" lon="9.566037273985945"><ele>471.3333333333333</ele><time>2026-05-01T11:27:38.001Z</time></trkpt><trkpt lat="44.851033871096156" lon="9.566072968211556"><ele>474.0</ele><time>2026-05-01T11:27:39.001Z</time></trkpt><trkpt lat="44.8509657300931" lon="9.566043228669146"><ele>472.6</ele><time>2026-05-01T11:27:40.001Z</time></trkpt><trkpt lat="44.85089704742172" lon="9.566053728315149"><ele>471.2</ele><time>2026-05-01T11:27:42.001Z</time></trkpt><trkpt lat="44.8508150737491" lon="9.566083591798382"><ele>469.80000000000007</ele><time>2026-05-01T11:27:56.001Z</time></trkpt><trkpt lat="44.85074422016171" lon="9.5661846481297"><ele>468.40000000000003</ele><time>2026-05-01T11:27:58.001Z</time></trkpt><trkpt lat="44.85070254175685" lon="9.566354174435114"><ele>467.0</ele><time>2026-05-01T11:28:00.001Z</time></trkpt><trkpt lat="44.85068393268113" lon="9.566502675983392"><ele>467.0</ele><time>2026-05-01T11:28:02.001Z</time></trkpt><trkpt lat="44.85066970099255" lon="9.566670471803889"><ele>467.0</ele><time>2026-05-01T11:28:04.001Z</time></trkpt><trkpt lat="44.85066221385634" lon="9.566758746169214"><ele>467.0</ele><time>2026-05-01T11:28:05.001Z</time></trkpt><trkpt lat="44.850629484380235" lon="9.567138351042376"><ele>469.66666666666663</ele><time>2026-05-01T11:28:06.001Z</time></trkpt><trkpt lat="44.85068461350143" lon="9.567316323824643"><ele>472.33333333333337</ele><time>2026-05-01T11:28:08.001Z</time></trkpt><trkpt lat="44.850665191324794" lon="9.567423972295709"><ele>475.0</ele><time>2026-05-01T11:28:10.001Z</time></trkpt><trkpt lat="44.85107156267829" lon="9.56748414940375"><ele>479.00000000000006</ele><time>2026-05-01T11:28:11.001Z</time></trkpt><trkpt lat="44.851066545155845" lon="9.567603335955832"><ele>483.0</ele><time>2026-05-01T11:28:12.001Z</time></trkpt><trkpt lat="44.851056293431654" lon="9.567717010119916"><ele>487.0</ele><time>2026-05-01T11:28:13.001Z</time></trkpt><trkpt lat="44.851057853571476" lon="9.567822402458052"><ele>491.0</ele><time>2026-05-01T11:28:14.001Z</time></trkpt><trkpt lat="44.85107088515236" lon="9.56793696368479"><ele>495.00000000000006</ele><time>2026-05-01T11:28:15.001Z</time></trkpt><trkpt lat="44.851090441977135" lon="9.568048271432776"><ele>499.0</ele><time>2026-05-01T11:28:16.001Z</time></trkpt><trkpt lat="44.851114890408525" lon="9.568140355700038"><ele>500.33333333333337</ele><time>2026-05-01T11:28:17.001Z</time></trkpt><trkpt lat="44.85111876887881" lon="9.568233499760865"><ele>501.6666666666667</ele><time>2026-05-01T11:28:18.001Z</time></trkpt><trkpt lat="44.85106952511465" lon="9.568382010382086"><ele>503.0</ele><time>2026-05-01T11:28:20.001Z</time></trkpt><trkpt lat="44.85104134035938" lon="9.568470591158901"><ele>504.33333333333337</ele><time>2026-05-01T11:28:21.001Z</time></trkpt><trkpt lat="44.85101085958142" lon="9.568563532587053"><ele>505.6666666666667</ele><time>2026-05-01T11:28:22.001Z</time></trkpt><trkpt lat="44.850974016679174" lon="9.568642668218407"><ele>507.0</ele><time>2026-05-01T11:28:23.001Z</time></trkpt><trkpt lat="44.850906831227604" lon="9.56880075560861"><ele>507.0</ele><time>2026-05-01T11:28:25.001Z</time></trkpt><trkpt lat="44.85087084664253" lon="9.568897828224465"><ele>507.00000000000006</ele><time>2026-05-01T11:28:26.001Z</time></trkpt><trkpt lat="44.85081070041255" lon="9.56901914024017"><ele>507.00000000000006</ele><time>2026-05-01T11:28:28.001Z</time></trkpt><trkpt lat="44.85072197213172" lon="9.569088134493894"><ele>507.0</ele><time>2026-05-01T11:28:30.001Z</time></trkpt><trkpt lat="44.850648399594846" lon="9.569199898804738"><ele>507.0</ele><time>2026-05-01T11:28:32.001Z</time></trkpt><trkpt lat="44.850621241087595" lon="9.569299235579278"><ele>507.0</ele><time>2026-05-01T11:28:34.001Z</time></trkpt><trkpt lat="44.850588122127256" lon="9.569375230827355"><ele>507.0</ele><time>2026-05-01T11:28:36.001Z</time></trkpt><trkpt lat="44.850543030651444" lon="9.569483152326509"><ele>507.0</ele><time>2026-05-01T11:28:38.001Z</time></trkpt><trkpt lat="44.85048345964217" lon="9.569633270689787"><ele>507.0</ele><time>2026-05-01T11:28:40.001Z</time></trkpt><trkpt lat="44.85045063655282" lon="9.569731025564714"><ele>507.0</ele><time>2026-05-01T11:28:41.001Z</time></trkpt><trkpt lat="44.850429129840066" lon="9.569831433879854"><ele>507.0</ele><time>2026-05-01T11:28:42.001Z</time></trkpt><trkpt lat="44.85040644425758" lon="9.56994123664187"><ele>509.8</ele><time>2026-05-01T11:28:43.001Z</time></trkpt><trkpt lat="44.850377352767325" lon="9.57002956435369"><ele>512.6</ele><time>2026-05-01T11:28:44.001Z</time></trkpt><trkpt lat="44.85034279316817" lon="9.570201097572522"><ele>515.4000000000001</ele><time>2026-05-01T11:28:46.001Z</time></trkpt><trkpt lat="44.8503426880379" lon="9.570302145354097"><ele>518.2</ele><time>2026-05-01T11:28:47.001Z</time></trkpt><trkpt lat="44.85034512529006" lon="9.570410805418115"><ele>521.0</ele><time>2026-05-01T11:28:48.001Z</time></trkpt><trkpt lat="44.85037960559201" lon="9.570553853846304"><ele>522.5</ele><time>2026-05-01T11:28:50.001Z</time></trkpt><trkpt lat="44.85049080767628" lon="9.57064493470353"><ele>524.0</ele><time>2026-05-01T11:28:52.001Z</time></trkpt><trkpt lat="44.85055874279705" lon="9.570682249624525"><ele>525.5</ele><time>2026-05-01T11:28:53.001Z</time></trkpt><trkpt lat="44.85062811110305" lon="9.570645274058016"><ele>527.0</ele><time>2026-05-01T11:28:56.001Z</time></trkpt><trkpt lat="44.85054980892728" lon="9.570673706955468"><ele>528.5</ele><time>2026-05-01T11:29:27.001Z</time></trkpt><trkpt lat="44.850630994877925" lon="9.570705167747823"><ele>530.0</ele><time>2026-05-01T11:30:38.001Z</time></trkpt><trkpt lat="44.850723806145034" lon="9.570738832420448"><ele>530.0</ele><time>2026-05-01T11:30:40.001Z</time></trkpt><trkpt lat="44.850811207515775" lon="9.570810124968913"><ele>530.0</ele><time>2026-05-01T11:30:42.001Z</time></trkpt><trkpt lat="44.85085317376486" lon="9.57095814347805"><ele>530.0</ele><time>2026-05-01T11:30:44.001Z</time></trkpt><trkpt lat="44.850849643223654" lon="9.571061657463945"><ele>530.0</ele><time>2026-05-01T11:30:45.001Z</time></trkpt><trkpt lat="44.85083802049991" lon="9.571161917234747"><ele>530.0</ele><time>2026-05-01T11:30:46.001Z</time></trkpt><trkpt lat="44.85081837673984" lon="9.571252835257587"><ele>530.0</ele><time>2026-05-01T11:30:47.001Z</time></trkpt><trkpt lat="44.85079739712009" lon="9.571346742210366"><ele>532.0</ele><time>2026-05-01T11:30:48.001Z</time></trkpt><trkpt lat="44.85077631570875" lon="9.571438391153842"><ele>534.0</ele><time>2026-05-01T11:30:49.001Z</time></trkpt><trkpt lat="44.85070414603595" lon="9.571595287382324"><ele>536.0</ele><time>2026-05-01T11:30:51.001Z</time></trkpt><trkpt lat="44.850648506000596" lon="9.571679088734026"><ele>538.0</ele><time>2026-05-01T11:30:52.001Z</time></trkpt><trkpt lat="44.85060192022556" lon="9.571763787384722"><ele>540.0</ele><time>2026-05-01T11:30:53.001Z</time></trkpt><trkpt lat="44.85055696268564" lon="9.571866347228344"><ele>542.0</ele><time>2026-05-01T11:30:54.001Z</time></trkpt><trkpt lat="44.85051253413127" lon="9.571960744636117"><ele>543.8000000000001</ele><time>2026-05-01T11:30:55.001Z</time></trkpt><trkpt lat="44.85048091348638" lon="9.572048633479596"><ele>545.6</ele><time>2026-05-01T11:30:56.001Z</time></trkpt><trkpt lat="44.85048486376597" lon="9.572207102564587"><ele>547.4000000000001</ele><time>2026-05-01T11:30:58.001Z</time></trkpt><trkpt lat="44.8504982663622" lon="9.57239613630031"><ele>549.2</ele><time>2026-05-01T11:31:00.001Z</time></trkpt><trkpt lat="44.85052253697816" lon="9.57249313688339"><ele>551.0</ele><time>2026-05-01T11:31:01.001Z</time></trkpt><trkpt lat="44.85057750277927" lon="9.572658942542937"><ele>551.0</ele><time>2026-05-01T11:31:03.001Z</time></trkpt><trkpt lat="44.85067368819733" lon="9.572750090168725"><ele>551.0</ele><time>2026-05-01T11:31:05.001Z</time></trkpt><trkpt lat="44.85074640237577" lon="9.572774870424922"><ele>551.0</ele><time>2026-05-01T11:31:06.001Z</time></trkpt><trkpt lat="44.850820189359915" lon="9.572799488438164"><ele>551.0</ele><time>2026-05-01T11:31:07.001Z</time></trkpt><trkpt lat="44.85093162501417" lon="9.572850352183933"><ele>551.0</ele><time>2026-05-01T11:31:09.001Z</time></trkpt><trkpt lat="44.850979044693005" lon="9.572934842197219"><ele>551.2</ele><time>2026-05-01T11:31:11.001Z</time></trkpt><trkpt lat="44.85100928448749" lon="9.57302752102977"><ele>551.4000000000001</ele><time>2026-05-01T11:31:14.001Z</time></trkpt><trkpt lat="44.85097051352093" lon="9.573167302516227"><ele>551.6</ele><time>2026-05-01T11:31:27.001Z</time></trkpt><trkpt lat="44.850945284468196" lon="9.573296513681425"><ele>551.8000000000001</ele><time>2026-05-01T11:31:28.001Z</time></trkpt><trkpt lat="44.85091876810114" lon="9.573461307631666"><ele>552.0</ele><time>2026-05-01T11:31:29.001Z</time></trkpt><trkpt lat="44.850880470532104" lon="9.573637963458728"><ele>553.0</ele><time>2026-05-01T11:31:30.001Z</time></trkpt><trkpt lat="44.85083353122974" lon="9.57379880898258"><ele>554.0</ele><time>2026-05-01T11:31:31.001Z</time></trkpt><trkpt lat="44.85079153643858" lon="9.573934051046358"><ele>555.0</ele><time>2026-05-01T11:31:32.001Z</time></trkpt><trkpt lat="44.85074151435681" lon="9.574097500320384"><ele>556.0</ele><time>2026-05-01T11:31:34.001Z</time></trkpt><trkpt lat="44.85068396646458" lon="9.574171089645759"><ele>557.0</ele><time>2026-05-01T11:31:35.001Z</time></trkpt><trkpt lat="44.85063120250762" lon="9.57423461402388"><ele>557.0</ele><time>2026-05-01T11:31:36.001Z</time></trkpt><trkpt lat="44.85057992433464" lon="9.574342991435628"><ele>557.0</ele><time>2026-05-01T11:31:38.001Z</time></trkpt><trkpt lat="44.85058095962068" lon="9.5744371231745"><ele>557.0</ele><time>2026-05-01T11:31:40.001Z</time></trkpt><trkpt lat="44.85060035149177" lon="9.574553748927206"><ele>557.0</ele><time>2026-05-01T11:33:33.001Z</time></trkpt><trkpt lat="44.85059860447941" lon="9.574711825809455"><ele>557.0</ele><time>2026-05-01T11:33:35.001Z</time></trkpt><trkpt lat="44.85060276472788" lon="9.574880278695007"><ele>559.5</ele><time>2026-05-01T11:33:37.001Z</time></trkpt><trkpt lat="44.85059885613692" lon="9.575036300892751"><ele>562.0</ele><time>2026-05-01T11:33:39.001Z</time></trkpt><trkpt lat="44.85059580041499" lon="9.575202239900987"><ele>564.5</ele><time>2026-05-01T11:33:41.001Z</time></trkpt><trkpt lat="44.85060796252989" lon="9.575351774341671"><ele>567.0</ele><time>2026-05-01T11:33:43.001Z</time></trkpt><trkpt lat="44.850641623786416" lon="9.575515300170993"><ele>569.0</ele><time>2026-05-01T11:33:45.001Z</time></trkpt><trkpt lat="44.85065315797796" lon="9.575606721913"><ele>571.0</ele><time>2026-05-01T11:33:46.001Z</time></trkpt><trkpt lat="44.850668898862494" lon="9.575698605758749"><ele>573.0</ele><time>2026-05-01T11:33:47.001Z</time></trkpt><trkpt lat="44.85069811442261" lon="9.575877631936173"><ele>575.0</ele><time>2026-05-01T11:33:49.001Z</time></trkpt><trkpt lat="44.85073455841851" lon="9.576050509108107"><ele>577.0</ele><time>2026-05-01T11:33:51.001Z</time></trkpt><trkpt lat="44.85079905808472" lon="9.576189393018113"><ele>578.8000000000001</ele><time>2026-05-01T11:33:53.001Z</time></trkpt><trkpt lat="44.85083411607515" lon="9.576279126771219"><ele>580.6</ele><time>2026-05-01T11:33:54.001Z</time></trkpt><trkpt lat="44.85090681506009" lon="9.576453645460976"><ele>582.4000000000001</ele><time>2026-05-01T11:33:56.001Z</time></trkpt><trkpt lat="44.850975751098254" lon="9.576606708518417"><ele>584.2</ele><time>2026-05-01T11:33:58.001Z</time></trkpt><trkpt lat="44.85101785680961" lon="9.5766877238215"><ele>586.0</ele><time>2026-05-01T11:33:59.001Z</time></trkpt><trkpt lat="44.851064929474504" lon="9.576762051231674"><ele>588.75</ele><time>2026-05-01T11:34:00.001Z</time></trkpt><trkpt lat="44.85115323999647" lon="9.576890553469301"><ele>591.5</ele><time>2026-05-01T11:34:02.001Z</time></trkpt><trkpt lat="44.851290269810995" lon="9.57697115033623"><ele>594.25</ele><time>2026-05-01T11:34:04.001Z</time></trkpt><trkpt lat="44.85137466799704" lon="9.57701568081559"><ele>597.0</ele><time>2026-05-01T11:34:05.001Z</time></trkpt><trkpt lat="44.85145729246652" lon="9.577059124816438"><ele>598.3333333333334</ele><time>2026-05-01T11:34:06.001Z</time></trkpt><trkpt lat="44.85153779607304" lon="9.577108397137533"><ele>599.6666666666666</ele><time>2026-05-01T11:34:07.001Z</time></trkpt><trkpt lat="44.85162394922498" lon="9.577150879800376"><ele>601.0</ele><time>2026-05-01T11:34:08.001Z</time></trkpt><trkpt lat="44.851711403407016" lon="9.5771703088695"><ele>602.3333333333333</ele><time>2026-05-01T11:34:09.001Z</time></trkpt><trkpt lat="44.85177572965164" lon="9.577167332149928"><ele>603.6666666666666</ele><time>2026-05-01T11:34:10.001Z</time></trkpt><trkpt lat="44.85183743793785" lon="9.577149612468181"><ele>605.0</ele><time>2026-05-01T11:34:11.001Z</time></trkpt><trkpt lat="44.85191470511823" lon="9.577123377300811"><ele>607.5</ele><time>2026-05-01T11:34:12.001Z</time></trkpt><trkpt lat="44.851984435642336" lon="9.577112077333098"><ele>610.0</ele><time>2026-05-01T11:34:13.001Z</time></trkpt><trkpt lat="44.85205792256623" lon="9.57709397664811"><ele>612.5</ele><time>2026-05-01T11:34:14.001Z</time></trkpt><trkpt lat="44.852121936928654" lon="9.577060464304353"><ele>615.0</ele><time>2026-05-01T11:34:46Z</time></trkpt><trkpt lat="44.85216283085032" lon="9.577152689382608"><ele>617.5</ele><time>2026-05-01T11:34:51Z</time></trkpt><trkpt lat="44.85220603275022" lon="9.577272961873364"><ele>620.0</ele><time>2026-05-01T11:34:53Z</time></trkpt><trkpt lat="44.85229904635701" lon="9.577429477932448"><ele>620.0</ele><time>2026-05-01T11:34:55Z</time></trkpt><trkpt lat="44.85236201083882" lon="9.57755301619829"><ele>620.0</ele><time>2026-05-01T11:34:57Z</time></trkpt><trkpt lat="44.8523789763393" lon="9.57769663495271"><ele>620.0</ele><time>2026-05-01T11:34:59Z</time></trkpt><trkpt lat="44.85236776778533" lon="9.57783905364243"><ele>620.0</ele><time>2026-05-01T11:35:01Z</time></trkpt><trkpt lat="44.85235775156076" lon="9.577981671046395"><ele>620.0</ele><time>2026-05-01T11:35:03Z</time></trkpt><trkpt lat="44.85234453442388" lon="9.578068900945887"><ele>621.2</ele><time>2026-05-01T11:35:04Z</time></trkpt><trkpt lat="44.85229656827552" lon="9.578221068249837"><ele>622.4</ele><time>2026-05-01T11:35:06Z</time></trkpt><trkpt lat="44.852256035615746" lon="9.578362795136593"><ele>623.6</ele><time>2026-05-01T11:35:08Z</time></trkpt><trkpt lat="44.85223639994586" lon="9.578467674402587"><ele>624.8</ele><time>2026-05-01T11:35:09Z</time></trkpt><trkpt lat="44.85222358642108" lon="9.578567764787234"><ele>626.0</ele><time>2026-05-01T11:35:10Z</time></trkpt><trkpt lat="44.85222096228132" lon="9.578675329646897"><ele>626.1666666666666</ele><time>2026-05-01T11:35:11Z</time></trkpt><trkpt lat="44.85221981385219" lon="9.578776973722448"><ele>626.3333333333333</ele><time>2026-05-01T11:35:12Z</time></trkpt><trkpt lat="44.852220371501815" lon="9.57888255916305"><ele>626.5</ele><time>2026-05-01T11:35:13Z</time></trkpt><trkpt lat="44.85222498051325" lon="9.578988301277024"><ele>626.6666666666666</ele><time>2026-05-01T11:35:14Z</time></trkpt><trkpt lat="44.852228979677015" lon="9.579085224226395"><ele>626.8333333333334</ele><time>2026-05-01T11:35:15Z</time></trkpt><trkpt lat="44.85221930494681" lon="9.579223134649174"><ele>627.0</ele><time>2026-05-01T11:35:17Z</time></trkpt><trkpt lat="44.85216325682938" lon="9.579268887091802"><ele>627.0</ele><time>2026-05-01T11:35:19Z</time></trkpt><trkpt lat="44.852081275621615" lon="9.5792837557003"><ele>627.0</ele><time>2026-05-01T11:35:21Z</time></trkpt><trkpt lat="44.85197464173279" lon="9.579337602248138"><ele>627.0</ele><time>2026-05-01T11:35:23.001Z</time></trkpt><trkpt lat="44.851882524768406" lon="9.579403688317354"><ele>627.0</ele><time>2026-05-01T11:35:25.001Z</time></trkpt><trkpt lat="44.85182785618055" lon="9.579457942359301"><ele>627.0</ele><time>2026-05-01T11:35:28.001Z</time></trkpt><trkpt lat="44.85173296794363" lon="9.579552924400597"><ele>626.3333333333334</ele><time>2026-05-01T11:35:45.001Z</time></trkpt><trkpt lat="44.85166939721123" lon="9.579607977488218"><ele>625.6666666666666</ele><time>2026-05-01T11:35:46.001Z</time></trkpt><trkpt lat="44.85160643140622" lon="9.57967954659806"><ele>625.0</ele><time>2026-05-01T11:35:47.001Z</time></trkpt><trkpt lat="44.851549896396314" lon="9.5797596084898"><ele>624.3333333333333</ele><time>2026-05-01T11:35:48.001Z</time></trkpt><trkpt lat="44.85149389458256" lon="9.579846407590816"><ele>623.6666666666666</ele><time>2026-05-01T11:35:49.001Z</time></trkpt><trkpt lat="44.85143089858235" lon="9.579905140778438"><ele>623.0</ele><time>2026-05-01T11:35:50.001Z</time></trkpt><trkpt lat="44.851363689753555" lon="9.579954169114039"><ele>623.0</ele><time>2026-05-01T11:35:51.001Z</time></trkpt><trkpt lat="44.8512852342673" lon="9.580016543224929"><ele>623.0</ele><time>2026-05-01T11:35:52.001Z</time></trkpt><trkpt lat="44.851225543299805" lon="9.580053906104645"><ele>623.0</ele><time>2026-05-01T11:35:53.001Z</time></trkpt><trkpt lat="44.85108256833958" lon="9.580071954873944"><ele>623.0</ele><time>2026-05-01T11:35:55.001Z</time></trkpt><trkpt lat="44.85101387250298" lon="9.580072175866338"><ele>623.0</ele><time>2026-05-01T11:35:56.001Z</time></trkpt><trkpt lat="44.8509477298375" lon="9.580062603105336"><ele>623.0</ele><time>2026-05-01T11:35:57.001Z</time></trkpt><trkpt lat="44.8508388365442" lon="9.580002397387716"><ele>623.0</ele><time>2026-05-01T11:35:59.001Z</time></trkpt><trkpt lat="44.85079175799469" lon="9.579941281694552"><ele>623.0</ele><time>2026-05-01T11:36:00.001Z</time></trkpt><trkpt lat="44.85071514495343" lon="9.579823935144338"><ele>623.0</ele><time>2026-05-01T11:36:02.001Z</time></trkpt><trkpt lat="44.8506577344574" lon="9.57978456643572"><ele>623.0</ele><time>2026-05-01T11:36:03.001Z</time></trkpt><trkpt lat="44.850593411030765" lon="9.579762282438407"><ele>623.0</ele><time>2026-05-01T11:36:04.001Z</time></trkpt><trkpt lat="44.850494717663835" lon="9.579689020157991"><ele>623.0</ele><time>2026-05-01T11:36:06.001Z</time></trkpt><trkpt lat="44.85042564393748" lon="9.579549469377909"><ele>621.8333333333333</ele><time>2026-05-01T11:36:08.001Z</time></trkpt><trkpt lat="44.85040660364584" lon="9.579454045070332"><ele>620.6666666666666</ele><time>2026-05-01T11:36:09.001Z</time></trkpt><trkpt lat="44.850386462600355" lon="9.579353427903506"><ele>619.5</ele><time>2026-05-01T11:36:10.001Z</time></trkpt><trkpt lat="44.85036122681514" lon="9.579251744373865"><ele>618.3333333333334</ele><time>2026-05-01T11:36:11.001Z</time></trkpt><trkpt lat="44.85033306490642" lon="9.57914430206353"><ele>617.1666666666667</ele><time>2026-05-01T11:36:12.001Z</time></trkpt><trkpt lat="44.850300693959994" lon="9.579034660738365"><ele>616.0</ele><time>2026-05-01T11:36:13.001Z</time></trkpt><trkpt lat="44.85025548743368" lon="9.578941152138725"><ele>616.0</ele><time>2026-05-01T11:36:14.001Z</time></trkpt><trkpt lat="44.85019760302012" lon="9.578865962495762"><ele>616.0</ele><time>2026-05-01T11:36:15.001Z</time></trkpt><trkpt lat="44.850138589647585" lon="9.578804598524084"><ele>616.0</ele><time>2026-05-01T11:36:16.001Z</time></trkpt><trkpt lat="44.850073067337675" lon="9.578753179993312"><ele>616.0</ele><time>2026-05-01T11:36:17.001Z</time></trkpt><trkpt lat="44.850007760328005" lon="9.578701055360751"><ele>616.0</ele><time>2026-05-01T11:36:18.001Z</time></trkpt><trkpt lat="44.8499499032609" lon="9.57864835353661"><ele>616.0</ele><time>2026-05-01T11:36:19.001Z</time></trkpt><trkpt lat="44.84986189756397" lon="9.578573747904384"><ele>615.4</ele><time>2026-05-01T11:36:21.001Z</time></trkpt><trkpt lat="44.8498176769889" lon="9.578468893993296"><ele>614.8</ele><time>2026-05-01T11:36:23.001Z</time></trkpt><trkpt lat="44.84977231300612" lon="9.578395498861044"><ele>614.1999999999999</ele><time>2026-05-01T11:36:25.001Z</time></trkpt><trkpt lat="44.84965997528717" lon="9.578507313542191"><ele>613.6</ele><time>2026-05-01T11:36:26.001Z</time></trkpt><trkpt lat="44.84958403477424" lon="9.57864574743029"><ele>613.0</ele><time>2026-05-01T11:36:28.001Z</time></trkpt><trkpt lat="44.849559159272275" lon="9.578743313755753"><ele>613.0</ele><time>2026-05-01T11:36:29.001Z</time></trkpt><trkpt lat="44.84953370623553" lon="9.578841843463586"><ele>613.0</ele><time>2026-05-01T11:36:30.001Z</time></trkpt><trkpt lat="44.84950211726971" lon="9.578937423904367"><ele>613.0</ele><time>2026-05-01T11:36:31.001Z</time></trkpt><trkpt lat="44.84947757992226" lon="9.579039961735745"><ele>613.0</ele><time>2026-05-01T11:36:32.001Z</time></trkpt><trkpt lat="44.84945850313143" lon="9.579137280942112"><ele>613.0</ele><time>2026-05-01T11:36:33Z</time></trkpt><trkpt lat="44.84945206229911" lon="9.579248743302943"><ele>613.0</ele><time>2026-05-01T11:36:34Z</time></trkpt><trkpt lat="44.84945518633895" lon="9.579343725921058"><ele>613.0</ele><time>2026-05-01T11:36:35Z</time></trkpt><trkpt lat="44.84947492026005" lon="9.579434032712136"><ele>613.1999999999999</ele><time>2026-05-01T11:36:36Z</time></trkpt><trkpt lat="44.84951696603195" lon="9.579582840887538"><ele>613.4</ele><time>2026-05-01T11:36:38Z</time></trkpt><trkpt lat="44.84952823750085" lon="9.579691311429464"><ele>613.5999999999999</ele><time>2026-05-01T11:36:40Z</time></trkpt><trkpt lat="44.8495435539115" lon="9.579814609689812"><ele>613.8</ele><time>2026-05-01T11:36:42Z</time></trkpt><trkpt lat="44.84953260128841" lon="9.579912578545631"><ele>614.0</ele><time>2026-05-01T11:36:45Z</time></trkpt><trkpt lat="44.84952370518541" lon="9.57969616566654"><ele>614.0</ele><time>2026-05-01T11:38:16.001Z</time></trkpt><trkpt lat="44.84950903852136" lon="9.57960813966159"><ele>614.0</ele><time>2026-05-01T11:38:17.001Z</time></trkpt><trkpt lat="44.849494882839046" lon="9.57945519414801"><ele>614.0</ele><time>2026-05-01T11:38:19.001Z</time></trkpt><trkpt lat="44.849475482340274" lon="9.579364900720366"><ele>614.0</ele><time>2026-05-01T11:38:20.001Z</time></trkpt><trkpt lat="44.8494588682985" lon="9.579189060624119"><ele>614.0</ele><time>2026-05-01T11:38:22.001Z</time></trkpt><trkpt lat="44.84947095300204" lon="9.579096398484008"><ele>614.0</ele><time>2026-05-01T11:38:23.001Z</time></trkpt><trkpt lat="44.84948333058949" lon="9.578996197254087"><ele>613.8333333333333</ele><time>2026-05-01T11:38:24.001Z</time></trkpt><trkpt lat="44.849519378147455" lon="9.578864756307533"><ele>613.6666666666666</ele><time>2026-05-01T11:38:26.001Z</time></trkpt><trkpt lat="44.84954508148008" lon="9.578782612794203"><ele>613.5</ele><time>2026-05-01T11:38:27.001Z</time></trkpt><trkpt lat="44.8495742261683" lon="9.578699604118606"><ele>613.3333333333334</ele><time>2026-05-01T11:38:28.001Z</time></trkpt><trkpt lat="44.84962034762249" lon="9.578580662872385"><ele>613.1666666666667</ele><time>2026-05-01T11:38:30.001Z</time></trkpt><trkpt lat="44.849692831396816" lon="9.578509381527997"><ele>613.0</ele><time>2026-05-01T11:38:34.001Z</time></trkpt><trkpt lat="44.84976027988319" lon="9.578490393901843"><ele>613.0</ele><time>2026-05-01T11:38:36.001Z</time></trkpt><trkpt lat="44.84982060162355" lon="9.578516305087279"><ele>613.0</ele><time>2026-05-01T11:42:32.001Z</time></trkpt><trkpt lat="44.8498879073963" lon="9.578631180750012"><ele>613.0</ele><time>2026-05-01T11:42:34.001Z</time></trkpt><trkpt lat="44.8499854228738" lon="9.578712591784486"><ele>613.0</ele><time>2026-05-01T11:42:36.001Z</time></trkpt><trkpt lat="44.85009664971857" lon="9.578768261935203"><ele>613.0</ele><time>2026-05-01T11:42:38.001Z</time></trkpt><trkpt lat="44.85021197462558" lon="9.578869087041372"><ele>613.6</ele><time>2026-05-01T11:42:40.001Z</time></trkpt><trkpt lat="44.850280377173895" lon="9.578904607505757"><ele>614.1999999999999</ele><time>2026-05-01T11:42:41.001Z</time></trkpt><trkpt lat="44.85032123766119" lon="9.579031091286849"><ele>614.8</ele><time>2026-05-01T11:42:42.001Z</time></trkpt><trkpt lat="44.85035991197842" lon="9.579148876154317"><ele>615.4</ele><time>2026-05-01T11:42:43.001Z</time></trkpt><trkpt lat="44.85038122099651" lon="9.579284985511242"><ele>616.0</ele><time>2026-05-01T11:42:44.001Z</time></trkpt><trkpt lat="44.85040543422244" lon="9.579423062066057"><ele>617.1666666666667</ele><time>2026-05-01T11:42:45.001Z</time></trkpt><trkpt lat="44.85043184905659" lon="9.579556821096688"><ele>618.3333333333334</ele><time>2026-05-01T11:42:46.001Z</time></trkpt><trkpt lat="44.85046013234689" lon="9.579659417485331"><ele>619.5</ele><time>2026-05-01T11:42:47.001Z</time></trkpt><trkpt lat="44.85055442356075" lon="9.579766562827409"><ele>620.6666666666666</ele><time>2026-05-01T11:42:49.001Z</time></trkpt><trkpt lat="44.85062689595848" lon="9.579785843547164"><ele>621.8333333333333</ele><time>2026-05-01T11:42:50.001Z</time></trkpt><trkpt lat="44.85069253198002" lon="9.579822965792625"><ele>623.0</ele><time>2026-05-01T11:42:50.999Z</time></trkpt><trkpt lat="44.85075738131858" lon="9.579870173805263"><ele>623.0</ele><time>2026-05-01T11:42:51.999Z</time></trkpt><trkpt lat="44.85082181156327" lon="9.579935461738378"><ele>623.0</ele><time>2026-05-01T11:42:52.999Z</time></trkpt><trkpt lat="44.850879180892015" lon="9.580021316800087"><ele>623.0</ele><time>2026-05-01T11:42:53.999Z</time></trkpt><trkpt lat="44.85094679850354" lon="9.580063698445144"><ele>623.0</ele><time>2026-05-01T11:42:54.999Z</time></trkpt><trkpt lat="44.85103504757212" lon="9.580066563298617"><ele>623.0</ele><time>2026-05-01T11:42:55.999Z</time></trkpt><trkpt lat="44.85112789887905" lon="9.580053997651921"><ele>623.0</ele><time>2026-05-01T11:42:56.999Z</time></trkpt><trkpt lat="44.85122529189163" lon="9.580046768234755"><ele>623.0</ele><time>2026-05-01T11:42:58Z</time></trkpt><trkpt lat="44.851305838361" lon="9.5800164858276"><ele>623.0</ele><time>2026-05-01T11:42:59Z</time></trkpt><trkpt lat="44.851360984031004" lon="9.579971991473961"><ele>623.0</ele><time>2026-05-01T11:42:59.999Z</time></trkpt><trkpt lat="44.85140901217058" lon="9.57991110339254"><ele>623.0</ele><time>2026-05-01T11:43:01Z</time></trkpt><trkpt lat="44.85146809030977" lon="9.57985429832704"><ele>623.0</ele><time>2026-05-01T11:43:02Z</time></trkpt><trkpt lat="44.851532461455385" lon="9.579782021807278"><ele>623.0</ele><time>2026-05-01T11:43:03Z</time></trkpt><trkpt lat="44.85158481160257" lon="9.579714078803166"><ele>623.0</ele><time>2026-05-01T11:43:04Z</time></trkpt><trkpt lat="44.85167185277403" lon="9.579563710624502"><ele>622.6666666666666</ele><time>2026-05-01T11:43:06Z</time></trkpt><trkpt lat="44.851748360555824" lon="9.57949468178478"><ele>622.3333333333333</ele><time>2026-05-01T11:43:07Z</time></trkpt><trkpt lat="44.85183833542199" lon="9.57942177879724"><ele>622.0</ele><time>2026-05-01T11:43:08Z</time></trkpt><trkpt lat="44.85191294333742" lon="9.579359858845734"><ele>621.6666666666666</ele><time>2026-05-01T11:43:09Z</time></trkpt><trkpt lat="44.851986922042585" lon="9.579303556416786"><ele>621.3333333333334</ele><time>2026-05-01T11:43:10Z</time></trkpt><trkpt lat="44.85205997671267" lon="9.579270345584913"><ele>621.0</ele><time>2026-05-01T11:43:11Z</time></trkpt><trkpt lat="44.852129280730495" lon="9.579251977838036"><ele>621.8333333333334</ele><time>2026-05-01T11:43:12Z</time></trkpt><trkpt lat="44.85220660787225" lon="9.579253801084118"><ele>622.6666666666666</ele><time>2026-05-01T11:43:15Z</time></trkpt><trkpt lat="44.852233493956746" lon="9.57914849662502"><ele>623.5</ele><time>2026-05-01T11:43:35Z</time></trkpt><trkpt lat="44.852224825198704" lon="9.579034134236423"><ele>624.3333333333333</ele><time>2026-05-01T11:43:38Z</time></trkpt><trkpt lat="44.852221434058755" lon="9.578914115371683"><ele>625.1666666666666</ele><time>2026-05-01T11:43:40Z</time></trkpt><trkpt lat="44.85221562112861" lon="9.57878602559854"><ele>626.0</ele><time>2026-05-01T11:43:42Z</time></trkpt><trkpt lat="44.85221585973732" lon="9.578621728978728"><ele>626.0</ele><time>2026-05-01T11:43:44Z</time></trkpt><trkpt lat="44.85222023154715" lon="9.57852351749779"><ele>626.0</ele><time>2026-05-01T11:43:45Z</time></trkpt><trkpt lat="44.852236465130886" lon="9.578429635712498"><ele>626.0</ele><time>2026-05-01T11:43:46Z</time></trkpt><trkpt lat="44.85225491730734" lon="9.578337232684945"><ele>626.0</ele><time>2026-05-01T11:43:47Z</time></trkpt><trkpt lat="44.85229934578737" lon="9.5781832966256"><ele>626.0</ele><time>2026-05-01T11:43:49Z</time></trkpt><trkpt lat="44.852343151880454" lon="9.57804879714124"><ele>626.0</ele><time>2026-05-01T11:43:51Z</time></trkpt><trkpt lat="44.85236608138298" lon="9.577869854382694"><ele>625.0</ele><time>2026-05-01T11:43:53Z</time></trkpt><trkpt lat="44.852371902574575" lon="9.577781320260957"><ele>624.0</ele><time>2026-05-01T11:43:54Z</time></trkpt><trkpt lat="44.85236879189357" lon="9.577651854900012"><ele>623.0</ele><time>2026-05-01T11:43:56Z</time></trkpt><trkpt lat="44.85232799386088" lon="9.577539343130365"><ele>622.0</ele><time>2026-05-01T11:43:59Z</time></trkpt><trkpt lat="44.852268186025626" lon="9.577433051446867"><ele>621.0</ele><time>2026-05-01T11:44:02Z</time></trkpt><trkpt lat="44.8521919613907" lon="9.577328173240131"><ele>620.0</ele><time>2026-05-01T11:44:05Z</time></trkpt><trkpt lat="44.8521463729694" lon="9.577209629283647"><ele>620.0</ele><time>2026-05-01T11:44:07Z</time></trkpt><trkpt lat="44.85212523043682" lon="9.57712556140085"><ele>620.0</ele><time>2026-05-01T11:44:09Z</time></trkpt><trkpt lat="44.85205760071491" lon="9.577129047309908"><ele>620.0</ele><time>2026-05-01T11:44:12Z</time></trkpt><trkpt lat="44.85199391063022" lon="9.577152131154334"><ele>620.0</ele><time>2026-05-01T11:44:13.001Z</time></trkpt><trkpt lat="44.851929311131876" lon="9.57717080624948"><ele>620.0</ele><time>2026-05-01T11:44:14.001Z</time></trkpt><trkpt lat="44.85186085807636" lon="9.577170949227188"><ele>620.0</ele><time>2026-05-01T11:44:15.001Z</time></trkpt><trkpt lat="44.8517958902945" lon="9.57718049102898"><ele>620.0</ele><time>2026-05-01T11:44:16.001Z</time></trkpt><trkpt lat="44.85172919255481" lon="9.577192554491004"><ele>617.8571428571429</ele><time>2026-05-01T11:44:17.001Z</time></trkpt><trkpt lat="44.85166188674068" lon="9.577195101144381"><ele>615.7142857142857</ele><time>2026-05-01T11:44:18.001Z</time></trkpt><trkpt lat="44.85158608826424" lon="9.57717447871707"><ele>613.5714285714286</ele><time>2026-05-01T11:44:19.001Z</time></trkpt><trkpt lat="44.85151357408494" lon="9.577140673793139"><ele>611.4285714285714</ele><time>2026-05-01T11:44:20.001Z</time></trkpt><trkpt lat="44.85144967711121" lon="9.577098904517648"><ele>609.2857142857143</ele><time>2026-05-01T11:44:21.001Z</time></trkpt><trkpt lat="44.85138486894042" lon="9.5770525102616"><ele>607.1428571428571</ele><time>2026-05-01T11:44:22.001Z</time></trkpt><trkpt lat="44.85131773966228" lon="9.577013884724503"><ele>605.0</ele><time>2026-05-01T11:44:23.001Z</time></trkpt><trkpt lat="44.8512549612157" lon="9.576982488488227"><ele>603.6666666666666</ele><time>2026-05-01T11:44:24.001Z</time></trkpt><trkpt lat="44.851197125944" lon="9.576945318560417"><ele>602.3333333333333</ele><time>2026-05-01T11:44:25.001Z</time></trkpt><trkpt lat="44.85113941093609" lon="9.576905272335841"><ele>601.0</ele><time>2026-05-01T11:44:26.001Z</time></trkpt><trkpt lat="44.85104408854863" lon="9.576787773347286"><ele>599.6666666666666</ele><time>2026-05-01T11:44:28.001Z</time></trkpt><trkpt lat="44.85100393008582" lon="9.576693877329742"><ele>598.3333333333334</ele><time>2026-05-01T11:44:29.001Z</time></trkpt><trkpt lat="44.8509650135801" lon="9.576603191021734"><ele>597.0</ele><time>2026-05-01T11:44:30.001Z</time></trkpt><trkpt lat="44.85092306916079" lon="9.57652674990424"><ele>594.8000000000001</ele><time>2026-05-01T11:44:31.001Z</time></trkpt><trkpt lat="44.85086640046966" lon="9.576403103839766"><ele>592.6</ele><time>2026-05-01T11:44:33.001Z</time></trkpt><trkpt lat="44.850801822145556" lon="9.576264023235"><ele>590.4000000000001</ele><time>2026-05-01T11:44:35.001Z</time></trkpt><trkpt lat="44.85074922382928" lon="9.576126818382871"><ele>588.2</ele><time>2026-05-01T11:44:37.001Z</time></trkpt><trkpt lat="44.850696376735" lon="9.57598887322184"><ele>586.0</ele><time>2026-05-01T11:44:39.001Z</time></trkpt><trkpt lat="44.85067694023963" lon="9.575883160524025"><ele>584.2</ele><time>2026-05-01T11:44:41.001Z</time></trkpt><trkpt lat="44.85065446529498" lon="9.575748169549346"><ele>582.4000000000001</ele><time>2026-05-01T11:44:43.001Z</time></trkpt><trkpt lat="44.85063280612368" lon="9.575585935067375"><ele>580.6</ele><time>2026-05-01T11:44:45.001Z</time></trkpt><trkpt lat="44.85060460002687" lon="9.575447275497522"><ele>578.8000000000001</ele><time>2026-05-01T11:44:47.001Z</time></trkpt><trkpt lat="44.8505807481944" lon="9.575313689325649"><ele>577.0</ele><time>2026-05-01T11:44:49.001Z</time></trkpt><trkpt lat="44.850575313910106" lon="9.575187046804189"><ele>575.0</ele><time>2026-05-01T11:44:51.001Z</time></trkpt><trkpt lat="44.850590668599715" lon="9.575009418893453"><ele>573.0</ele><time>2026-05-01T11:44:53.001Z</time></trkpt><trkpt lat="44.85058576087046" lon="9.574910086550522"><ele>571.0</ele><time>2026-05-01T11:44:54.001Z</time></trkpt><trkpt lat="44.85058627689076" lon="9.574782501060605"><ele>569.0</ele><time>2026-05-01T11:44:55.001Z</time></trkpt><trkpt lat="44.85058754846408" lon="9.5746616118626"><ele>567.0</ele><time>2026-05-01T11:44:56.001Z</time></trkpt><trkpt lat="44.85058200214786" lon="9.574550742720094"><ele>565.3333333333334</ele><time>2026-05-01T11:44:56.999Z</time></trkpt><trkpt lat="44.85057707186571" lon="9.574369184764219"><ele>563.6666666666666</ele><time>2026-05-01T11:44:58.999Z</time></trkpt><trkpt lat="44.85058897580724" lon="9.574278476935733"><ele>562.0</ele><time>2026-05-01T11:44:59.999Z</time></trkpt><trkpt lat="44.8506196446371" lon="9.574199982964181"><ele>560.3333333333333</ele><time>2026-05-01T11:45:00.999Z</time></trkpt><trkpt lat="44.85066857288339" lon="9.574141278826051"><ele>558.6666666666666</ele><time>2026-05-01T11:45:01.999Z</time></trkpt><trkpt lat="44.8507737749956" lon="9.574050057238129"><ele>557.0</ele><time>2026-05-01T11:45:03.999Z</time></trkpt><trkpt lat="44.85080086192907" lon="9.5739134656425"><ele>557.0</ele><time>2026-05-01T11:45:05.999Z</time></trkpt><trkpt lat="44.850837707920356" lon="9.573744509402186"><ele>557.0</ele><time>2026-05-01T11:45:07.999Z</time></trkpt><trkpt lat="44.85086205222279" lon="9.573653272191184"><ele>557.0</ele><time>2026-05-01T11:45:08.999Z</time></trkpt><trkpt lat="44.85089691705465" lon="9.57353545342604"><ele>557.0</ele><time>2026-05-01T11:45:09.999Z</time></trkpt><trkpt lat="44.85092312386436" lon="9.573431780477101"><ele>557.0</ele><time>2026-05-01T11:45:10.999Z</time></trkpt><trkpt lat="44.85095119369895" lon="9.573296658273577"><ele>556.0</ele><time>2026-05-01T11:45:11.999Z</time></trkpt><trkpt lat="44.850973010382845" lon="9.573170097073545"><ele>555.0</ele><time>2026-05-01T11:45:12.999Z</time></trkpt><trkpt lat="44.85099725957414" lon="9.573055439193368"><ele>554.0</ele><time>2026-05-01T11:45:13.999Z</time></trkpt><trkpt lat="44.85100148036622" lon="9.572920124552759"><ele>553.0</ele><time>2026-05-01T11:45:16Z</time></trkpt><trkpt lat="44.85093367751996" lon="9.572852658888104"><ele>552.0</ele><time>2026-05-01T11:45:18Z</time></trkpt><trkpt lat="44.85085368970747" lon="9.572813331924607"><ele>551.0</ele><time>2026-05-01T11:45:20Z</time></trkpt><trkpt lat="44.85077412006233" lon="9.572792851093256"><ele>551.0</ele><time>2026-05-01T11:45:22Z</time></trkpt><trkpt lat="44.85068808175379" lon="9.572747380031675"><ele>551.0</ele><time>2026-05-01T11:45:24Z</time></trkpt><trkpt lat="44.8506078957332" lon="9.572695038600918"><ele>551.0</ele><time>2026-05-01T11:45:26Z</time></trkpt><trkpt lat="44.850545629880884" lon="9.572586089701437"><ele>551.0</ele><time>2026-05-01T11:45:28Z</time></trkpt><trkpt lat="44.85051898271237" lon="9.572464357520882"><ele>551.0</ele><time>2026-05-01T11:45:30Z</time></trkpt><trkpt lat="44.85049628937414" lon="9.572320920741289"><ele>551.0</ele><time>2026-05-01T11:45:32Z</time></trkpt><trkpt lat="44.8504842583244" lon="9.572161056532138"><ele>551.0</ele><time>2026-05-01T11:45:34Z</time></trkpt><trkpt lat="44.85048846632717" lon="9.572013320869305"><ele>551.0</ele><time>2026-05-01T11:45:36Z</time></trkpt><trkpt lat="44.85052127293002" lon="9.571935504217105"><ele>551.0</ele><time>2026-05-01T11:45:38Z</time></trkpt><trkpt lat="44.85057451064362" lon="9.571829777023352"><ele>551.0</ele><time>2026-05-01T11:45:46Z</time></trkpt><trkpt lat="44.85061966936858" lon="9.571741180776154"><ele>549.5</ele><time>2026-05-01T11:45:48Z</time></trkpt><trkpt lat="44.85067654190382" lon="9.571617011890542"><ele>548.0</ele><time>2026-05-01T11:45:50Z</time></trkpt><trkpt lat="44.85075895464719" lon="9.571488604858553"><ele>546.5</ele><time>2026-05-01T11:45:52Z</time></trkpt><trkpt lat="44.85079213064989" lon="9.57140133259177"><ele>545.0</ele><time>2026-05-01T11:45:53Z</time></trkpt><trkpt lat="44.850817069328805" lon="9.571300608238914"><ele>543.5</ele><time>2026-05-01T11:45:54Z</time></trkpt><trkpt lat="44.850832526430125" lon="9.571202912885369"><ele>542.0</ele><time>2026-05-01T11:45:55Z</time></trkpt><trkpt lat="44.85084145813575" lon="9.571041737303261"><ele>540.0</ele><time>2026-05-01T11:45:57Z</time></trkpt><trkpt lat="44.85083846600199" lon="9.570951875016277"><ele>538.0</ele><time>2026-05-01T11:45:58Z</time></trkpt><trkpt lat="44.85080374702704" lon="9.57083499837896"><ele>536.0</ele><time>2026-05-01T11:46:00Z</time></trkpt><trkpt lat="44.850732953179644" lon="9.570753986404869"><ele>534.0</ele><time>2026-05-01T11:46:02Z</time></trkpt><trkpt lat="44.850635524710675" lon="9.570731082293689"><ele>532.0</ele><time>2026-05-01T11:46:04Z</time></trkpt><trkpt lat="44.85055680122952" lon="9.570693369671046"><ele>530.0</ele><time>2026-05-01T11:46:06Z</time></trkpt><trkpt lat="44.85049132888523" lon="9.57066839815907"><ele>530.0</ele><time>2026-05-01T11:46:08Z</time></trkpt><trkpt lat="44.85041162779947" lon="9.570606886968795"><ele>530.0</ele><time>2026-05-01T11:46:10Z</time></trkpt><trkpt lat="44.85034370695087" lon="9.570508853783936"><ele>530.0</ele><time>2026-05-01T11:46:12Z</time></trkpt><trkpt lat="44.850313053239596" lon="9.570370556306603"><ele>530.0</ele><time>2026-05-01T11:46:14Z</time></trkpt><trkpt lat="44.85031974592988" lon="9.570280203591198"><ele>530.0</ele><time>2026-05-01T11:46:15Z</time></trkpt><trkpt lat="44.85032061607478" lon="9.570178117220607"><ele>530.0</ele><time>2026-05-01T11:46:16Z</time></trkpt><trkpt lat="44.85033235112057" lon="9.570075280650055"><ele>528.5</ele><time>2026-05-01T11:46:17Z</time></trkpt><trkpt lat="44.85035847997309" lon="9.569963254020259"><ele>527.0</ele><time>2026-05-01T11:46:18Z</time></trkpt><trkpt lat="44.85039736393902" lon="9.569872575620586"><ele>525.5</ele><time>2026-05-01T11:46:19.001Z</time></trkpt><trkpt lat="44.850443540417636" lon="9.569753861111352"><ele>524.0</ele><time>2026-05-01T11:46:20.001Z</time></trkpt><trkpt lat="44.85048190747139" lon="9.569644471804205"><ele>522.5</ele><time>2026-05-01T11:46:21.001Z</time></trkpt><trkpt lat="44.85050236247456" lon="9.569524201809779"><ele>521.0</ele><time>2026-05-01T11:46:22.001Z</time></trkpt><trkpt lat="44.85053903576014" lon="9.56942708728257"><ele>518.6666666666666</ele><time>2026-05-01T11:46:23.001Z</time></trkpt><trkpt lat="44.85058853105939" lon="9.56933455537112"><ele>516.3333333333333</ele><time>2026-05-01T11:46:24.001Z</time></trkpt><trkpt lat="44.85063217773547" lon="9.569245817423742"><ele>514.0</ele><time>2026-05-01T11:46:25.001Z</time></trkpt><trkpt lat="44.85067046252671" lon="9.569169920095074"><ele>511.66666666666663</ele><time>2026-05-01T11:46:26.001Z</time></trkpt><trkpt lat="44.85070232255882" lon="9.56909159802813"><ele>509.3333333333333</ele><time>2026-05-01T11:46:27.001Z</time></trkpt><trkpt lat="44.85078711745703" lon="9.568989350152666"><ele>507.0</ele><time>2026-05-01T11:46:29.001Z</time></trkpt><trkpt lat="44.85087915345426" lon="9.56891158458199"><ele>507.0</ele><time>2026-05-01T11:46:31.001Z</time></trkpt><trkpt lat="44.85092102733985" lon="9.568745249164543"><ele>507.00000000000006</ele><time>2026-05-01T11:46:33.001Z</time></trkpt><trkpt lat="44.85094646677078" lon="9.568639332776504"><ele>507.00000000000006</ele><time>2026-05-01T11:46:34.001Z</time></trkpt><trkpt lat="44.850985457710095" lon="9.568558685913155"><ele>507.0</ele><time>2026-05-01T11:46:35.001Z</time></trkpt><trkpt lat="44.85102549165281" lon="9.568477380368861"><ele>507.0</ele><time>2026-05-01T11:46:36.001Z</time></trkpt><trkpt lat="44.85107582387544" lon="9.568320004203738"><ele>507.40000000000003</ele><time>2026-05-01T11:46:38.001Z</time></trkpt><trkpt lat="44.85110136169507" lon="9.568171390018625"><ele>507.80000000000007</ele><time>2026-05-01T11:46:40.001Z</time></trkpt><trkpt lat="44.85107966070777" lon="9.568014191805702"><ele>508.2</ele><time>2026-05-01T11:46:42.001Z</time></trkpt><trkpt lat="44.85104432370655" lon="9.567843476768523"><ele>508.6</ele><time>2026-05-01T11:46:44.001Z</time></trkpt><trkpt lat="44.851040148071895" lon="9.567733184529414"><ele>509.0</ele><time>2026-05-01T11:46:45.001Z</time></trkpt><trkpt lat="44.85104298816052" lon="9.567616215515043"><ele>507.3333333333333</ele><time>2026-05-01T11:46:46.001Z</time></trkpt><trkpt lat="44.85104259148676" lon="9.567504916561466"><ele>505.66666666666663</ele><time>2026-05-01T11:46:47.001Z</time></trkpt><trkpt lat="44.851039838029386" lon="9.567412987642653"><ele>504.0</ele><time>2026-05-01T11:46:48.001Z</time></trkpt><trkpt lat="44.851033663159534" lon="9.56722517018619"><ele>502.33333333333337</ele><time>2026-05-01T11:46:50.001Z</time></trkpt><trkpt lat="44.851033598738354" lon="9.567119855588198"><ele>500.6666666666667</ele><time>2026-05-01T11:46:51.001Z</time></trkpt><trkpt lat="44.850971863303116" lon="9.5670611687736"><ele>499.0</ele><time>2026-05-01T11:46:52.001Z</time></trkpt><trkpt lat="44.850906910741436" lon="9.56691298863356"><ele>491.0</ele><time>2026-05-01T11:46:54.001Z</time></trkpt><trkpt lat="44.85084895603867" lon="9.566761265476611"><ele>483.0</ele><time>2026-05-01T11:46:56.001Z</time></trkpt><trkpt lat="44.85081321469993" lon="9.566615934021904"><ele>475.0</ele><time>2026-05-01T11:46:58.001Z</time></trkpt><trkpt lat="44.850781620783145" lon="9.566476267850538"><ele>467.0</ele><time>2026-05-01T11:47:00.001Z</time></trkpt><trkpt lat="44.8507448528629" lon="9.566302049124758"><ele>466.99999999999994</ele><time>2026-05-01T11:47:02.001Z</time></trkpt><trkpt lat="44.850764952632595" lon="9.56621024532657"><ele>467.0</ele><time>2026-05-01T11:47:02.999Z</time></trkpt><trkpt lat="44.85084388846786" lon="9.566121427940928"><ele>467.0</ele><time>2026-05-01T11:47:04.999Z</time></trkpt><trkpt lat="44.85089837437789" lon="9.566074686597567"><ele>467.0</ele><time>2026-05-01T11:47:06.999Z</time></trkpt><trkpt lat="44.85096200378583" lon="9.566091290760674"><ele>466.99999999999994</ele><time>2026-05-01T11:48:58.001Z</time></trkpt><trkpt lat="44.85087599448184" lon="9.566106129537223"><ele>467.0</ele><time>2026-05-01T11:49:15Z</time></trkpt><trkpt lat="44.8508021499016" lon="9.566137775706618"><ele>466.99999999999994</ele><time>2026-05-01T11:49:18Z</time></trkpt><trkpt lat="44.85075220372887" lon="9.566205466871526"><ele>467.0</ele><time>2026-05-01T11:49:20Z</time></trkpt><trkpt lat="44.85072408896146" lon="9.566348808001212"><ele>467.0</ele><time>2026-05-01T11:49:23Z</time></trkpt><trkpt lat="44.850717762140036" lon="9.566482293116849"><ele>467.0</ele><time>2026-05-01T11:49:25Z</time></trkpt><trkpt lat="44.85070933052351" lon="9.56657122784893"><ele>466.99999999999994</ele><time>2026-05-01T11:49:26Z</time></trkpt><trkpt lat="44.85069527353963" lon="9.566666681968899"><ele>467.0</ele><time>2026-05-01T11:49:27Z</time></trkpt><trkpt lat="44.85069558449809" lon="9.566760602519437"><ele>467.0</ele><time>2026-05-01T11:49:28Z</time></trkpt><trkpt lat="44.85067726498322" lon="9.566904063709146"><ele>467.00000000000006</ele><time>2026-05-01T11:49:30Z</time></trkpt><trkpt lat="44.85060472833914" lon="9.566977353780878"><ele>467.00000000000006</ele><time>2026-05-01T11:49:32Z</time></trkpt><trkpt lat="44.85059715382763" lon="9.567088178599619"><ele>467.0</ele><time>2026-05-01T11:49:36Z</time></trkpt><trkpt lat="44.85066747959351" lon="9.567199055884977"><ele>467.0</ele><time>2026-05-01T11:49:38Z</time></trkpt><trkpt lat="44.850723634363966" lon="9.567278522858112"><ele>469.0</ele><time>2026-05-01T11:49:40Z</time></trkpt><trkpt lat="44.85059389655351" lon="9.567390809794745"><ele>471.0</ele><time>2026-05-01T11:49:42Z</time></trkpt><trkpt lat="44.85049193511284" lon="9.5674108254473"><ele>473.0</ele><time>2026-05-01T11:49:44.001Z</time></trkpt><trkpt lat="44.85035826811065" lon="9.567451884684834"><ele>475.0</ele><time>2026-05-01T11:49:46.001Z</time></trkpt><trkpt lat="44.85028143199719" lon="9.567488230071305"><ele>475.00000000000006</ele><time>2026-05-01T11:49:47.001Z</time></trkpt><trkpt lat="44.85020258182249" lon="9.567509847271577"><ele>475.0</ele><time>2026-05-01T11:49:48.001Z</time></trkpt><trkpt lat="44.85012586956583" lon="9.567559804434634"><ele>475.0</ele><time>2026-05-01T11:49:49.001Z</time></trkpt><trkpt lat="44.850060800681" lon="9.56761832548824"><ele>475.0</ele><time>2026-05-01T11:49:50.001Z</time></trkpt><trkpt lat="44.84999866428441" lon="9.567697588460016"><ele>475.00000000000006</ele><time>2026-05-01T11:49:51.001Z</time></trkpt><trkpt lat="44.84995156447067" lon="9.567783484579634"><ele>475.0</ele><time>2026-05-01T11:49:52.001Z</time></trkpt><trkpt lat="44.84990703359232" lon="9.567872997657599"><ele>475.83333333333337</ele><time>2026-05-01T11:49:53.001Z</time></trkpt><trkpt lat="44.849863954066656" lon="9.567967303646993"><ele>476.6666666666667</ele><time>2026-05-01T11:49:54.001Z</time></trkpt><trkpt lat="44.84981866895928" lon="9.56805672972554"><ele>477.5</ele><time>2026-05-01T11:49:55.001Z</time></trkpt><trkpt lat="44.84973413420292" lon="9.568111318485686"><ele>478.33333333333337</ele><time>2026-05-01T11:49:56.001Z</time></trkpt><trkpt lat="44.84968789546632" lon="9.56818273402134"><ele>479.1666666666667</ele><time>2026-05-01T11:49:57.001Z</time></trkpt><trkpt lat="44.84966754071175" lon="9.568282181430607"><ele>480.0</ele><time>2026-05-01T11:49:58.001Z</time></trkpt><trkpt lat="44.84963868912143" lon="9.568385388810421"><ele>480.0</ele><time>2026-05-01T11:49:59.001Z</time></trkpt><trkpt lat="44.84961323011759" lon="9.568487459276513"><ele>480.0</ele><time>2026-05-01T11:50:00.001Z</time></trkpt><trkpt lat="44.84954980248593" lon="9.568647950836228"><ele>480.0</ele><time>2026-05-01T11:50:02.001Z</time></trkpt><trkpt lat="44.84951957427176" lon="9.568741174892097"><ele>480.0</ele><time>2026-05-01T11:50:03.001Z</time></trkpt><trkpt lat="44.849496546325064" lon="9.568835239780375"><ele>480.0</ele><time>2026-05-01T11:50:04.001Z</time></trkpt><trkpt lat="44.84946980145042" lon="9.568922119418676"><ele>480.0</ele><time>2026-05-01T11:50:05.001Z</time></trkpt><trkpt lat="44.849409405240365" lon="9.569050578046046"><ele>480.3333333333333</ele><time>2026-05-01T11:50:07.001Z</time></trkpt><trkpt lat="44.84934032001661" lon="9.569101521201985"><ele>480.66666666666663</ele><time>2026-05-01T11:50:09.001Z</time></trkpt><trkpt lat="44.84927710494664" lon="9.56903889577237"><ele>481.0</ele><time>2026-05-01T11:50:11.001Z</time></trkpt><trkpt lat="44.849226626367134" lon="9.568920142122645"><ele>481.3333333333333</ele><time>2026-05-01T11:50:14.001Z</time></trkpt><trkpt lat="44.84918750945567" lon="9.56884707630484"><ele>481.66666666666663</ele><time>2026-05-01T11:50:16.001Z</time></trkpt><trkpt lat="44.84914752949534" lon="9.568773506007572"><ele>482.0</ele><time>2026-05-01T11:50:39.001Z</time></trkpt><trkpt lat="44.84906483552283" lon="9.56873195112958"><ele>481.99999999999994</ele><time>2026-05-01T11:50:45.001Z</time></trkpt><trkpt lat="44.84900352858369" lon="9.568709525080166"><ele>482.0</ele><time>2026-05-01T11:50:46.001Z</time></trkpt><trkpt lat="44.84893678494935" lon="9.568657722429927"><ele>482.0</ele><time>2026-05-01T11:50:47.001Z</time></trkpt><trkpt lat="44.84885429373824" lon="9.568647721651727"><ele>482.0</ele><time>2026-05-01T11:50:48.002Z</time></trkpt><trkpt lat="44.84879773778839" lon="9.56856868033705"><ele>481.99999999999994</ele><time>2026-05-01T11:50:49.002Z</time></trkpt><trkpt lat="44.84876469322906" lon="9.568469610807787"><ele>482.0</ele><time>2026-05-01T11:50:50.002Z</time></trkpt><trkpt lat="44.84871420516846" lon="9.568361013628241"><ele>479.99999999999994</ele><time>2026-05-01T11:50:51.002Z</time></trkpt><trkpt lat="44.848647908355815" lon="9.568281998499405"><ele>478.0</ele><time>2026-05-01T11:50:52.002Z</time></trkpt><trkpt lat="44.84856346196671" lon="9.56826239511279"><ele>476.0</ele><time>2026-05-01T11:50:53.002Z</time></trkpt><trkpt lat="44.848486486807516" lon="9.568313344538"><ele>474.0</ele><time>2026-05-01T11:50:54.002Z</time></trkpt><trkpt lat="44.848421291785364" lon="9.568340769301209"><ele>471.99999999999994</ele><time>2026-05-01T11:50:55.002Z</time></trkpt><trkpt lat="44.848362906634996" lon="9.56839197607266"><ele>470.0</ele><time>2026-05-01T11:50:56.002Z</time></trkpt><trkpt lat="44.848302746958" lon="9.568467382097035"><ele>469.99999999999994</ele><time>2026-05-01T11:50:57.002Z</time></trkpt><trkpt lat="44.84824020173238" lon="9.568541910142837"><ele>470.0</ele><time>2026-05-01T11:50:58.002Z</time></trkpt><trkpt lat="44.848175355592524" lon="9.568615978959325"><ele>470.0</ele><time>2026-05-01T11:50:59.002Z</time></trkpt><trkpt lat="44.848111019757916" lon="9.56870736294564"><ele>470.0</ele><time>2026-05-01T11:51:00.002Z</time></trkpt><trkpt lat="44.848045765897226" lon="9.568794748525027"><ele>469.99999999999994</ele><time>2026-05-01T11:51:01.002Z</time></trkpt><trkpt lat="44.84797550809916" lon="9.568875684489925"><ele>470.0</ele><time>2026-05-01T11:51:02.002Z</time></trkpt><trkpt lat="44.847903837137956" lon="9.568961658247408"><ele>470.8</ele><time>2026-05-01T11:51:03.002Z</time></trkpt><trkpt lat="44.84782570757719" lon="9.569061297466558"><ele>471.6</ele><time>2026-05-01T11:51:04.002Z</time></trkpt><trkpt lat="44.84774955458697" lon="9.569170352952582"><ele>472.4</ele><time>2026-05-01T11:51:05.002Z</time></trkpt><trkpt lat="44.84767093608649" lon="9.569268260793715"><ele>473.2</ele><time>2026-05-01T11:51:06.002Z</time></trkpt><trkpt lat="44.847595909307536" lon="9.569314510485967"><ele>474.0</ele><time>2026-05-01T11:51:07.002Z</time></trkpt><trkpt lat="44.847521646066234" lon="9.56933733098143"><ele>474.0</ele><time>2026-05-01T11:51:08.002Z</time></trkpt><trkpt lat="44.847445952947055" lon="9.56934159318643"><ele>474.0</ele><time>2026-05-01T11:51:09.002Z</time></trkpt><trkpt lat="44.8473624692689" lon="9.569358387497607"><ele>474.0</ele><time>2026-05-01T11:51:10.002Z</time></trkpt><trkpt lat="44.84727524999949" lon="9.569385069424351"><ele>474.0</ele><time>2026-05-01T11:51:11.002Z</time></trkpt><trkpt lat="44.84720676844069" lon="9.569424845207138"><ele>474.0</ele><time>2026-05-01T11:51:12.002Z</time></trkpt><trkpt lat="44.847140576618344" lon="9.569500115931316"><ele>474.0</ele><time>2026-05-01T11:51:13.002Z</time></trkpt><trkpt lat="44.84709308166777" lon="9.569610575139524"><ele>476.1666666666667</ele><time>2026-05-01T11:51:14.002Z</time></trkpt><trkpt lat="44.84701190949452" lon="9.569682407605086"><ele>478.33333333333337</ele><time>2026-05-01T11:51:15Z</time></trkpt><trkpt lat="44.84694716133832" lon="9.569720278163139"><ele>480.5</ele><time>2026-05-01T11:51:16Z</time></trkpt><trkpt lat="44.84687626040287" lon="9.569744155408229"><ele>482.6666666666667</ele><time>2026-05-01T11:51:17Z</time></trkpt><trkpt lat="44.84680572393166" lon="9.569712123868666"><ele>484.83333333333337</ele><time>2026-05-01T11:51:18Z</time></trkpt><trkpt lat="44.84672843877345" lon="9.56968175642162"><ele>487.0</ele><time>2026-05-01T11:51:19Z</time></trkpt><trkpt lat="44.84665155556328" lon="9.569642967024402"><ele>488.40000000000003</ele><time>2026-05-01T11:51:20Z</time></trkpt><trkpt lat="44.84656358317733" lon="9.569640103249839"><ele>489.80000000000007</ele><time>2026-05-01T11:51:21Z</time></trkpt><trkpt lat="44.846441415174624" lon="9.5696195773917"><ele>491.2</ele><time>2026-05-01T11:51:23Z</time></trkpt><trkpt lat="44.84637350253349" lon="9.569654487784321"><ele>492.6</ele><time>2026-05-01T11:51:24Z</time></trkpt><trkpt lat="44.84628453524583" lon="9.569708733129064"><ele>494.0</ele><time>2026-05-01T11:51:25Z</time></trkpt><trkpt lat="44.84618290228781" lon="9.569743584341522"><ele>494.0</ele><time>2026-05-01T11:51:26Z</time></trkpt><trkpt lat="44.84608245231286" lon="9.569790919064626"><ele>494.0</ele><time>2026-05-01T11:51:27Z</time></trkpt><trkpt lat="44.84598756997888" lon="9.569785478736845"><ele>494.0</ele><time>2026-05-01T11:51:28Z</time></trkpt><trkpt lat="44.845902118182465" lon="9.569786051640465"><ele>494.0</ele><time>2026-05-01T11:51:29Z</time></trkpt><trkpt lat="44.845852004377434" lon="9.569843637407441"><ele>494.0</ele><time>2026-05-01T11:51:30Z</time></trkpt><trkpt lat="44.84581264429668" lon="9.570022790171087"><ele>494.49999999999994</ele><time>2026-05-01T11:51:32Z</time></trkpt><trkpt lat="44.84580723045605" lon="9.57012143496748"><ele>495.0</ele><time>2026-05-01T11:51:33Z</time></trkpt><trkpt lat="44.845778711805046" lon="9.570237336995278"><ele>495.5</ele><time>2026-05-01T11:51:34Z</time></trkpt><trkpt lat="44.845756326332946" lon="9.570339401038007"><ele>496.0</ele><time>2026-05-01T11:51:35Z</time></trkpt><trkpt lat="44.84567455667014" lon="9.570447378785751"><ele>496.49999999999994</ele><time>2026-05-01T11:51:37Z</time></trkpt><trkpt lat="44.84561414146685" lon="9.570474206785924"><ele>497.0</ele><time>2026-05-01T11:51:38.001Z</time></trkpt><trkpt lat="44.84552707692699" lon="9.570435319969008"><ele>496.99999999999994</ele><time>2026-05-01T11:51:39.001Z</time></trkpt><trkpt lat="44.845446374730585" lon="9.570374324690423"><ele>497.0</ele><time>2026-05-01T11:51:40.001Z</time></trkpt><trkpt lat="44.845382257383136" lon="9.570339433541992"><ele>497.0</ele><time>2026-05-01T11:51:41.001Z</time></trkpt><trkpt lat="44.84530544651735" lon="9.570347496523938"><ele>497.0</ele><time>2026-05-01T11:51:42.001Z</time></trkpt><trkpt lat="44.84522495503676" lon="9.570355447400003"><ele>496.99999999999994</ele><time>2026-05-01T11:51:43.001Z</time></trkpt><trkpt lat="44.845144735854845" lon="9.570394400408032"><ele>497.0</ele><time>2026-05-01T11:51:44.001Z</time></trkpt><trkpt lat="44.84506792250602" lon="9.570400615858482"><ele>496.16666666666663</ele><time>2026-05-01T11:51:45.001Z</time></trkpt><trkpt lat="44.84499485505543" lon="9.57039629998764"><ele>495.3333333333333</ele><time>2026-05-01T11:51:46.001Z</time></trkpt><trkpt lat="44.84492911963956" lon="9.570359460892801"><ele>494.5</ele><time>2026-05-01T11:51:47.001Z</time></trkpt><trkpt lat="44.84481910048121" lon="9.570387766255248"><ele>493.66666666666663</ele><time>2026-05-01T11:51:49.001Z</time></trkpt><trkpt lat="44.844748073785986" lon="9.570417091203499"><ele>492.8333333333333</ele><time>2026-05-01T11:51:50.001Z</time></trkpt><trkpt lat="44.84466779098269" lon="9.570352042701826"><ele>492.0</ele><time>2026-05-01T11:51:52.001Z</time></trkpt><trkpt lat="44.844675124157476" lon="9.57024525122426"><ele>492.0</ele><time>2026-05-01T11:51:53.001Z</time></trkpt><trkpt lat="44.84463862102097" lon="9.570131630394073"><ele>492.0</ele><time>2026-05-01T11:51:54.001Z</time></trkpt><trkpt lat="44.8446178938195" lon="9.570019702151122"><ele>492.0</ele><time>2026-05-01T11:51:55.001Z</time></trkpt><trkpt lat="44.844607857078024" lon="9.569892067438797"><ele>492.0</ele><time>2026-05-01T11:51:56.001Z</time></trkpt><trkpt lat="44.84457849767807" lon="9.569769169932181"><ele>492.0</ele><time>2026-05-01T11:51:57.001Z</time></trkpt><trkpt lat="44.84452949812136" lon="9.569661429017302"><ele>492.0</ele><time>2026-05-01T11:51:58.001Z</time></trkpt><trkpt lat="44.84446615683386" lon="9.569594912194026"><ele>492.0</ele><time>2026-05-01T11:51:59.001Z</time></trkpt><trkpt lat="44.84439290075265" lon="9.569551196169"><ele>492.0</ele><time>2026-05-01T11:52:00.001Z</time></trkpt><trkpt lat="44.844305859509944" lon="9.569534465446438"><ele>492.0</ele><time>2026-05-01T11:52:01.001Z</time></trkpt><trkpt lat="44.844215423026306" lon="9.569537863486445"><ele>492.0</ele><time>2026-05-01T11:52:02.001Z</time></trkpt><trkpt lat="44.84413572844093" lon="9.56947435511464"><ele>492.0</ele><time>2026-05-01T11:52:03.001Z</time></trkpt><trkpt lat="44.84406086316833" lon="9.569400307841098"><ele>492.0</ele><time>2026-05-01T11:52:04.001Z</time></trkpt><trkpt lat="44.84398891338442" lon="9.569336335906277"><ele>491.8333333333333</ele><time>2026-05-01T11:52:05.001Z</time></trkpt><trkpt lat="44.84390973200756" lon="9.569265934221828"><ele>491.66666666666663</ele><time>2026-05-01T11:52:07.001Z</time></trkpt><trkpt lat="44.8438265672862" lon="9.569316038599235"><ele>491.5</ele><time>2026-05-01T11:52:09.001Z</time></trkpt><trkpt lat="44.843753340093414" lon="9.569350722553326"><ele>491.3333333333333</ele><time>2026-05-01T11:52:12.001Z</time></trkpt><trkpt lat="44.8436836552061" lon="9.569384497225192"><ele>491.16666666666663</ele><time>2026-05-01T11:52:16.001Z</time></trkpt><trkpt lat="44.84362128142007" lon="9.569412325966058"><ele>491.0</ele><time>2026-05-01T11:52:19.001Z</time></trkpt><trkpt lat="44.84353625052131" lon="9.569440891414086"><ele>490.99999999999994</ele><time>2026-05-01T11:52:22.001Z</time></trkpt><trkpt lat="44.84346425653835" lon="9.569496344901589"><ele>491.0</ele><time>2026-05-01T11:52:25.001Z</time></trkpt><trkpt lat="44.84339714153239" lon="9.569538403615464"><ele>491.0</ele><time>2026-05-01T11:52:28.001Z</time></trkpt><trkpt lat="44.84330870480174" lon="9.569564290851607"><ele>491.0</ele><time>2026-05-01T11:53:00.002Z</time></trkpt><trkpt lat="44.84320946559075" lon="9.569618108882688"><ele>490.99999999999994</ele><time>2026-05-01T11:53:02.002Z</time></trkpt><trkpt lat="44.84312712907458" lon="9.569689040806905"><ele>491.0</ele><time>2026-05-01T11:53:04.002Z</time></trkpt><trkpt lat="44.84315187126745" lon="9.569876590707619"><ele>492.71428571428567</ele><time>2026-05-01T11:53:08.002Z</time></trkpt><trkpt lat="44.843196986955" lon="9.569952812241693"><ele>494.4285714285714</ele><time>2026-05-01T11:53:09.002Z</time></trkpt><trkpt lat="44.843207189675034" lon="9.570049779452392"><ele>496.1428571428571</ele><time>2026-05-01T11:53:10.002Z</time></trkpt><trkpt lat="44.84321322656067" lon="9.570144386983522"><ele>497.8571428571429</ele><time>2026-05-01T11:53:11.002Z</time></trkpt><trkpt lat="44.84321711098837" lon="9.570248198141343"><ele>499.5714285714286</ele><time>2026-05-01T11:53:12.002Z</time></trkpt><trkpt lat="44.84321745397551" lon="9.570361250925409"><ele>501.28571428571433</ele><time>2026-05-01T11:53:13.002Z</time></trkpt><trkpt lat="44.84323066966502" lon="9.570482304186795"><ele>503.0</ele><time>2026-05-01T11:53:14.002Z</time></trkpt><trkpt lat="44.84322679428076" lon="9.570625487350295"><ele>503.4</ele><time>2026-05-01T11:53:15.002Z</time></trkpt><trkpt lat="44.84322459706914" lon="9.570774751470909"><ele>503.79999999999995</ele><time>2026-05-01T11:53:16.002Z</time></trkpt><trkpt lat="44.84322104185502" lon="9.570911306049366"><ele>504.2</ele><time>2026-05-01T11:53:17.002Z</time></trkpt><trkpt lat="44.84321437534631" lon="9.5710587416402"><ele>504.6</ele><time>2026-05-01T11:53:18.002Z</time></trkpt><trkpt lat="44.84321169963605" lon="9.57121160126291"><ele>505.0</ele><time>2026-05-01T11:53:19.002Z</time></trkpt><trkpt lat="44.843216004096" lon="9.571353761496242"><ele>505.2</ele><time>2026-05-01T11:53:20.002Z</time></trkpt><trkpt lat="44.84322648571267" lon="9.571479084560469"><ele>505.4</ele><time>2026-05-01T11:53:21.001Z</time></trkpt><trkpt lat="44.84324132444461" lon="9.571627480641649"><ele>505.6</ele><time>2026-05-01T11:53:22.001Z</time></trkpt><trkpt lat="44.843264352861944" lon="9.571790899738655"><ele>505.8</ele><time>2026-05-01T11:53:23.001Z</time></trkpt><trkpt lat="44.84328244058659" lon="9.571956700193082"><ele>506.0</ele><time>2026-05-01T11:53:24.001Z</time></trkpt><trkpt lat="44.84329196368369" lon="9.572120676179072"><ele>506.0</ele><time>2026-05-01T11:53:25.001Z</time></trkpt><trkpt lat="44.84326749608753" lon="9.572288244938338"><ele>506.0</ele><time>2026-05-01T11:53:26.001Z</time></trkpt><trkpt lat="44.84324513664739" lon="9.572463307309851"><ele>506.0</ele><time>2026-05-01T11:53:27.001Z</time></trkpt><trkpt lat="44.84322262115792" lon="9.572651654091434"><ele>506.0</ele><time>2026-05-01T11:53:28.001Z</time></trkpt><trkpt lat="44.843215580123235" lon="9.572844561489804"><ele>506.75</ele><time>2026-05-01T11:53:29.001Z</time></trkpt><trkpt lat="44.84321644629679" lon="9.573038817549646"><ele>507.5</ele><time>2026-05-01T11:53:30.001Z</time></trkpt><trkpt lat="44.843215708660445" lon="9.57323494251444"><ele>508.25</ele><time>2026-05-01T11:53:31.001Z</time></trkpt><trkpt lat="44.84321469605862" lon="9.573442206037013"><ele>509.0</ele><time>2026-05-01T11:53:32.001Z</time></trkpt><trkpt lat="44.8432247608368" lon="9.573670037515408"><ele>508.66666666666663</ele><time>2026-05-01T11:53:33.001Z</time></trkpt><trkpt lat="44.84321025045615" lon="9.57390354276492"><ele>508.33333333333337</ele><time>2026-05-01T11:53:34.001Z</time></trkpt><trkpt lat="44.84320281696301" lon="9.574138984677976"><ele>508.0</ele><time>2026-05-01T11:53:35Z</time></trkpt><trkpt lat="44.843180172226326" lon="9.574366459008994"><ele>508.5</ele><time>2026-05-01T11:53:36.001Z</time></trkpt><trkpt lat="44.843148183156686" lon="9.574586198020716"><ele>509.0</ele><time>2026-05-01T11:53:37.001Z</time></trkpt><trkpt lat="44.84314626008546" lon="9.574788934396326"><ele>509.5</ele><time>2026-05-01T11:53:38.001Z</time></trkpt><trkpt lat="44.84314001761342" lon="9.574965795988167"><ele>510.0</ele><time>2026-05-01T11:53:39.001Z</time></trkpt><trkpt lat="44.843142028203815" lon="9.575122407247571"><ele>510.0</ele><time>2026-05-01T11:53:40.001Z</time></trkpt><trkpt lat="44.84315838760396" lon="9.575251556887475"><ele>510.0</ele><time>2026-05-01T11:53:41.001Z</time></trkpt><trkpt lat="44.8432160975367" lon="9.575371551203682"><ele>510.0</ele><time>2026-05-01T11:53:42.001Z</time></trkpt><trkpt lat="44.843297228394256" lon="9.57550987943441"><ele>510.0</ele><time>2026-05-01T11:53:43.001Z</time></trkpt><trkpt lat="44.84337819748855" lon="9.575676337388627"><ele>510.0</ele><time>2026-05-01T11:53:44.001Z</time></trkpt><trkpt lat="44.8434626550068" lon="9.575847544786344"><ele>510.0</ele><time>2026-05-01T11:53:45.001Z</time></trkpt><trkpt lat="44.84352847703352" lon="9.575979096104847"><ele>510.0</ele><time>2026-05-01T11:53:46.001Z</time></trkpt><trkpt lat="44.84360413940719" lon="9.57607361698765"><ele>510.0</ele><time>2026-05-01T11:53:47.001Z</time></trkpt><trkpt lat="44.8436859297234" lon="9.576132560285613"><ele>510.0</ele><time>2026-05-01T11:53:48.001Z</time></trkpt><trkpt lat="44.84378585141597" lon="9.57616895767448"><ele>510.0</ele><time>2026-05-01T11:53:49.001Z</time></trkpt><trkpt lat="44.84390921872093" lon="9.576184291219787"><ele>510.0</ele><time>2026-05-01T11:53:50.001Z</time></trkpt><trkpt lat="44.84403604102642" lon="9.576197870565059"><ele>510.0</ele><time>2026-05-01T11:53:51.001Z</time></trkpt><trkpt lat="44.84415086696518" lon="9.576206338445253"><ele>508.8333333333333</ele><time>2026-05-01T11:53:52.001Z</time></trkpt><trkpt lat="44.84425589296496" lon="9.576229812262943"><ele>507.66666666666663</ele><time>2026-05-01T11:53:53.001Z</time></trkpt><trkpt lat="44.844336693875114" lon="9.57630171235639"><ele>506.5</ele><time>2026-05-01T11:53:54.001Z</time></trkpt><trkpt lat="44.84438729838765" lon="9.576397081615752"><ele>505.3333333333333</ele><time>2026-05-01T11:53:55.001Z</time></trkpt><trkpt lat="44.84438882913243" lon="9.57651432527007"><ele>504.16666666666663</ele><time>2026-05-01T11:53:56.001Z</time></trkpt><trkpt lat="44.84436514136893" lon="9.57661920307571"><ele>503.0</ele><time>2026-05-01T11:53:57.001Z</time></trkpt><trkpt lat="44.84433381904832" lon="9.576736729727083"><ele>501.79999999999995</ele><time>2026-05-01T11:53:58.001Z</time></trkpt><trkpt lat="44.84430885065094" lon="9.576879426051324"><ele>500.59999999999997</ele><time>2026-05-01T11:53:59.001Z</time></trkpt><trkpt lat="44.84427041514879" lon="9.577020292980494"><ele>499.40000000000003</ele><time>2026-05-01T11:54:00.001Z</time></trkpt><trkpt lat="44.844242770208645" lon="9.57714114331765"><ele>498.20000000000005</ele><time>2026-05-01T11:54:01.001Z</time></trkpt><trkpt lat="44.84423825696763" lon="9.57725647565127"><ele>497.0</ele><time>2026-05-01T11:54:02.001Z</time></trkpt><trkpt lat="44.84425779160529" lon="9.577382829087037"><ele>499.75</ele><time>2026-05-01T11:54:03.001Z</time></trkpt><trkpt lat="44.84431335720298" lon="9.577527553405933"><ele>502.5</ele><time>2026-05-01T11:54:04.001Z</time></trkpt><trkpt lat="44.84438291609498" lon="9.577678516675975"><ele>505.25</ele><time>2026-05-01T11:54:05.001Z</time></trkpt><trkpt lat="44.84446049712032" lon="9.577819522646292"><ele>508.0</ele><time>2026-05-01T11:54:06.001Z</time></trkpt><trkpt lat="44.84455929398602" lon="9.57795455807882"><ele>508.0</ele><time>2026-05-01T11:54:07.001Z</time></trkpt><trkpt lat="44.84466099628124" lon="9.578085478255522"><ele>508.0</ele><time>2026-05-01T11:54:08.001Z</time></trkpt><trkpt lat="44.844715554923994" lon="9.578227655943234"><ele>508.0</ele><time>2026-05-01T11:54:09.001Z</time></trkpt><trkpt lat="44.84471816085131" lon="9.578359694303726"><ele>508.0</ele><time>2026-05-01T11:54:10.001Z</time></trkpt><trkpt lat="44.84468721714846" lon="9.578499098741824"><ele>508.0</ele><time>2026-05-01T11:54:11.001Z</time></trkpt><trkpt lat="44.844642193844784" lon="9.5786703277134"><ele>508.0</ele><time>2026-05-01T11:54:12.001Z</time></trkpt><trkpt lat="44.844595606582274" lon="9.578850039786575"><ele>508.0</ele><time>2026-05-01T11:54:13.001Z</time></trkpt><trkpt lat="44.844584325582005" lon="9.579019960732989"><ele>508.0</ele><time>2026-05-01T11:54:14.001Z</time></trkpt><trkpt lat="44.84458429482028" lon="9.579188567110961"><ele>508.25</ele><time>2026-05-01T11:54:15.001Z</time></trkpt><trkpt lat="44.84461494294677" lon="9.579356266682252"><ele>508.5</ele><time>2026-05-01T11:54:16.001Z</time></trkpt><trkpt lat="44.84468103547988" lon="9.579511861881569"><ele>508.75</ele><time>2026-05-01T11:54:17.001Z</time></trkpt><trkpt lat="44.844776876961724" lon="9.579661945524691"><ele>509.0</ele><time>2026-05-01T11:54:18.001Z</time></trkpt><trkpt lat="44.844878300366034" lon="9.579836213652738"><ele>508.66666666666663</ele><time>2026-05-01T11:54:19.001Z</time></trkpt><trkpt lat="44.844981242928135" lon="9.580025306717049"><ele>508.33333333333337</ele><time>2026-05-01T11:54:20.001Z</time></trkpt><trkpt lat="44.845084197464914" lon="9.580223164321197"><ele>508.0</ele><time>2026-05-01T11:54:21.001Z</time></trkpt><trkpt lat="44.84518643444553" lon="9.580426575578068"><ele>508.0</ele><time>2026-05-01T11:54:22.001Z</time></trkpt><trkpt lat="44.84528965727196" lon="9.580628733319559"><ele>508.0</ele><time>2026-05-01T11:54:23.001Z</time></trkpt><trkpt lat="44.84536696742732" lon="9.580859431927994"><ele>508.0</ele><time>2026-05-01T11:54:24.001Z</time></trkpt><trkpt lat="44.8454562951259" lon="9.581091649796141"><ele>507.75</ele><time>2026-05-01T11:54:25.001Z</time></trkpt><trkpt lat="44.845563259587024" lon="9.581288151081152"><ele>507.5</ele><time>2026-05-01T11:54:26.001Z</time></trkpt><trkpt lat="44.84564411572522" lon="9.581457775249321"><ele>507.25</ele><time>2026-05-01T11:54:27.001Z</time></trkpt><trkpt lat="44.845713089722466" lon="9.581604651568977"><ele>507.0</ele><time>2026-05-01T11:54:28.001Z</time></trkpt><trkpt lat="44.84577886061824" lon="9.581719395775043"><ele>507.0</ele><time>2026-05-01T11:54:29.001Z</time></trkpt><trkpt lat="44.845867850695086" lon="9.581763447209857"><ele>507.00000000000006</ele><time>2026-05-01T11:54:30.001Z</time></trkpt><trkpt lat="44.84596571222187" lon="9.581810992096509"><ele>507.00000000000006</ele><time>2026-05-01T11:54:31.001Z</time></trkpt><trkpt lat="44.84606820311817" lon="9.58185519451778"><ele>507.0</ele><time>2026-05-01T11:54:32.001Z</time></trkpt><trkpt lat="44.84611152775466" lon="9.581943131326106"><ele>507.0</ele><time>2026-05-01T11:54:33.001Z</time></trkpt><trkpt lat="44.84613618382855" lon="9.582036589325568"><ele>508.40000000000003</ele><time>2026-05-01T11:54:34.001Z</time></trkpt><trkpt lat="44.846067713295724" lon="9.582154599664715"><ele>509.80000000000007</ele><time>2026-05-01T11:54:35.001Z</time></trkpt><trkpt lat="44.8460237889484" lon="9.582296413139336"><ele>511.2</ele><time>2026-05-01T11:54:36.001Z</time></trkpt><trkpt lat="44.845961451808755" lon="9.582421291369336"><ele>512.6</ele><time>2026-05-01T11:54:37.001Z</time></trkpt><trkpt lat="44.84588856252545" lon="9.582504524207838"><ele>514.0</ele><time>2026-05-01T11:54:38.001Z</time></trkpt><trkpt lat="44.84579634699934" lon="9.582579643792469"><ele>514.0</ele><time>2026-05-01T11:54:39.001Z</time></trkpt><trkpt lat="44.8457083390891" lon="9.582691752070538"><ele>514.0</ele><time>2026-05-01T11:54:40.001Z</time></trkpt><trkpt lat="44.84561266794377" lon="9.582800423971351"><ele>514.0</ele><time>2026-05-01T11:54:41.001Z</time></trkpt><trkpt lat="44.84551993910906" lon="9.582951766639523"><ele>514.0</ele><time>2026-05-01T11:54:42.001Z</time></trkpt><trkpt lat="44.84541830742052" lon="9.583110497768306"><ele>514.0</ele><time>2026-05-01T11:54:43.001Z</time></trkpt><trkpt lat="44.845306900915816" lon="9.583247357850668"><ele>514.0</ele><time>2026-05-01T11:54:44.001Z</time></trkpt><trkpt lat="44.845221338298984" lon="9.583369642187002"><ele>514.0</ele><time>2026-05-01T11:54:45.001Z</time></trkpt><trkpt lat="44.84514788374076" lon="9.583470007279535"><ele>514.0</ele><time>2026-05-01T11:54:46.001Z</time></trkpt><trkpt lat="44.845082551219626" lon="9.583557892561055"><ele>514.0</ele><time>2026-05-01T11:54:47.001Z</time></trkpt><trkpt lat="44.845034812568585" lon="9.583654111005709"><ele>514.0</ele><time>2026-05-01T11:54:48.001Z</time></trkpt><trkpt lat="44.84498039860152" lon="9.583707916586553"><ele>514.0</ele><time>2026-05-01T11:54:49.001Z</time></trkpt><trkpt lat="44.84493413151813" lon="9.583769072452705"><ele>514.0</ele><time>2026-05-01T11:54:52.001Z</time></trkpt><trkpt lat="44.84525089198748" lon="9.583790693283683"><ele>514.6</ele><time>2026-05-01T11:55:07.002Z</time></trkpt><trkpt lat="44.84538134310667" lon="9.583743991540292"><ele>515.2</ele><time>2026-05-01T11:55:09.002Z</time></trkpt><trkpt lat="44.84546289579272" lon="9.583717081197705"><ele>515.8000000000001</ele><time>2026-05-01T11:55:10.002Z</time></trkpt><trkpt lat="44.84555342012078" lon="9.583675437343928"><ele>516.4</ele><time>2026-05-01T11:55:11.002Z</time></trkpt><trkpt lat="44.84565378343115" lon="9.583623285678438"><ele>517.0</ele><time>2026-05-01T11:55:12.002Z</time></trkpt><trkpt lat="44.8457477443375" lon="9.583568801141745"><ele>518.0</ele><time>2026-05-01T11:55:13.002Z</time></trkpt><trkpt lat="44.84584597671498" lon="9.583508975591839"><ele>519.0</ele><time>2026-05-01T11:55:14.002Z</time></trkpt><trkpt lat="44.84595115061731" lon="9.583477299890317"><ele>520.0</ele><time>2026-05-01T11:55:15.002Z</time></trkpt><trkpt lat="44.846036924071456" lon="9.583400032128957"><ele>521.0</ele><time>2026-05-01T11:55:16.002Z</time></trkpt><trkpt lat="44.84611217782471" lon="9.583348608750674"><ele>522.0</ele><time>2026-05-01T11:55:17.002Z</time></trkpt><trkpt lat="44.846182882970346" lon="9.583312320462811"><ele>522.3333333333334</ele><time>2026-05-01T11:55:18.002Z</time></trkpt><trkpt lat="44.84627914675821" lon="9.583284228236685"><ele>522.6666666666666</ele><time>2026-05-01T11:55:20.002Z</time></trkpt><trkpt lat="44.84634254449523" lon="9.58338752994333"><ele>523.0</ele><time>2026-05-01T11:55:22.002Z</time></trkpt><trkpt lat="44.84639720663897" lon="9.583440226256775"><ele>523.3333333333333</ele><time>2026-05-01T11:55:23.002Z</time></trkpt><trkpt lat="44.84644247335617" lon="9.583507517273391"><ele>523.6666666666666</ele><time>2026-05-01T11:55:24.002Z</time></trkpt><trkpt lat="44.8465141455551" lon="9.583642837905925"><ele>524.0</ele><time>2026-05-01T11:55:26.002Z</time></trkpt><trkpt lat="44.846573680990495" lon="9.583678752665527"><ele>524.3333333333333</ele><time>2026-05-01T11:55:27.001Z</time></trkpt><trkpt lat="44.846617750616886" lon="9.583757421246103"><ele>524.6666666666666</ele><time>2026-05-01T11:55:28.001Z</time></trkpt><trkpt lat="44.84667239154022" lon="9.583816021641677"><ele>525.0</ele><time>2026-05-01T11:55:29.001Z</time></trkpt><trkpt lat="44.84672862383275" lon="9.583874655970284"><ele>525.3333333333334</ele><time>2026-05-01T11:55:30.001Z</time></trkpt><trkpt lat="44.84678930496703" lon="9.583935526730496"><ele>525.6666666666667</ele><time>2026-05-01T11:55:31.001Z</time></trkpt><trkpt lat="44.846864758358706" lon="9.583984073415824"><ele>526.0</ele><time>2026-05-01T11:55:32.001Z</time></trkpt><trkpt lat="44.846923595548176" lon="9.584065745240839"><ele>526.0</ele><time>2026-05-01T11:55:33.001Z</time></trkpt><trkpt lat="44.84699405159628" lon="9.58411465183118"><ele>526.0</ele><time>2026-05-01T11:55:34.001Z</time></trkpt><trkpt lat="44.84706009105084" lon="9.584189724398046"><ele>526.0</ele><time>2026-05-01T11:55:35.001Z</time></trkpt><trkpt lat="44.84713117597978" lon="9.584255278705736"><ele>526.0</ele><time>2026-05-01T11:55:36.001Z</time></trkpt><trkpt lat="44.84720694740779" lon="9.584308520698972"><ele>526.0</ele><time>2026-05-01T11:55:37.001Z</time></trkpt><trkpt lat="44.84726770272372" lon="9.584342195352953"><ele>526.0</ele><time>2026-05-01T11:55:38.001Z</time></trkpt><trkpt lat="44.847354182076025" lon="9.584403131629719"><ele>526.0</ele><time>2026-05-01T11:55:40.001Z</time></trkpt><trkpt lat="44.847432641648304" lon="9.584452101032653"><ele>526.0</ele><time>2026-05-01T11:55:42.001Z</time></trkpt><trkpt lat="44.84751753579968" lon="9.584489794711704"><ele>526.0</ele><time>2026-05-01T11:55:44.001Z</time></trkpt><trkpt lat="44.84760523223419" lon="9.584518697715792"><ele>526.0</ele><time>2026-05-01T11:55:46.001Z</time></trkpt><trkpt lat="44.84769550313559" lon="9.584556115255001"><ele>526.0</ele><time>2026-05-01T11:55:48.001Z</time></trkpt><trkpt lat="44.84778709931995" lon="9.584525618230439"><ele>526.0</ele><time>2026-05-01T11:55:50.001Z</time></trkpt><trkpt lat="44.84769735281105" lon="9.584530724141754"><ele>526.0</ele><time>2026-05-01T11:55:55.001Z</time></trkpt><trkpt lat="44.847722285929585" lon="9.584644640548312"><ele>526.0</ele><time>2026-05-01T11:55:57.001Z</time></trkpt><trkpt lat="44.847554843950135" lon="9.584484724161975"><ele>526.0</ele><time>2026-05-01T11:55:58.001Z</time></trkpt><trkpt lat="44.84746743607442" lon="9.584443178967229"><ele>526.0</ele><time>2026-05-01T11:56:00.001Z</time></trkpt><trkpt lat="44.847371427063585" lon="9.584392040649943"><ele>526.0</ele><time>2026-05-01T11:56:02.001Z</time></trkpt><trkpt lat="44.84727698842911" lon="9.584337189565336"><ele>526.0</ele><time>2026-05-01T11:56:04.001Z</time></trkpt><trkpt lat="44.847216155173754" lon="9.58430496678422"><ele>526.0</ele><time>2026-05-01T11:56:06.001Z</time></trkpt><trkpt lat="44.84721843197296" lon="9.584393819103546"><ele>526.0</ele><time>2026-05-01T11:56:09.001Z</time></trkpt><trkpt lat="44.84731372642044" lon="9.58450460550862"><ele>526.0</ele><time>2026-05-01T11:56:11.001Z</time></trkpt><trkpt lat="44.84740728872658" lon="9.584436584241349"><ele>526.0</ele><time>2026-05-01T11:56:12.001Z</time></trkpt><trkpt lat="44.84748308557957" lon="9.5844812952435"><ele>526.0</ele><time>2026-05-01T11:56:14.001Z</time></trkpt><trkpt lat="44.84754470372553" lon="9.584505972977015"><ele>526.0</ele><time>2026-05-01T11:56:16.001Z</time></trkpt><trkpt lat="44.84761348390216" lon="9.584527858100305"><ele>526.0</ele><time>2026-05-01T11:56:18.001Z</time></trkpt><trkpt lat="44.847685084863926" lon="9.584540106592538"><ele>526.0</ele><time>2026-05-01T11:56:20.001Z</time></trkpt><trkpt lat="44.847756128718956" lon="9.584553629100885"><ele>525.6</ele><time>2026-05-01T11:56:22.001Z</time></trkpt><trkpt lat="44.84785732859707" lon="9.58452162272794"><ele>525.2</ele><time>2026-05-01T11:56:25.001Z</time></trkpt><trkpt lat="44.84796826019259" lon="9.584515311550014"><ele>524.8</ele><time>2026-05-01T11:56:27.001Z</time></trkpt><trkpt lat="44.84808981100665" lon="9.584481020095291"><ele>524.4</ele><time>2026-05-01T11:56:30.001Z</time></trkpt><trkpt lat="44.848169690688145" lon="9.584494839722062"><ele>524.0</ele><time>2026-05-01T11:56:31.001Z</time></trkpt><trkpt lat="44.848118064515795" lon="9.58442443489014"><ele>524.0</ele><time>2026-05-01T11:56:32.001Z</time></trkpt><trkpt lat="44.848417716967006" lon="9.585075204628726"><ele>525.8</ele><time>2026-05-01T11:56:33.001Z</time></trkpt><trkpt lat="44.8485019480303" lon="9.585101900376216"><ele>527.5999999999999</ele><time>2026-05-01T11:56:34.001Z</time></trkpt><trkpt lat="44.848570153521884" lon="9.585128671376967"><ele>529.4</ele><time>2026-05-01T11:56:35.001Z</time></trkpt><trkpt lat="44.84868911003597" lon="9.585180965733995"><ele>531.1999999999999</ele><time>2026-05-01T11:56:37.001Z</time></trkpt><trkpt lat="44.848789751924684" lon="9.585201445889304"><ele>533.0</ele><time>2026-05-01T11:56:39.001Z</time></trkpt><trkpt lat="44.84891311904894" lon="9.58517745870028"><ele>533.0</ele><time>2026-05-01T11:56:41.001Z</time></trkpt><trkpt lat="44.84898013882493" lon="9.585169168479181"><ele>533.0</ele><time>2026-05-01T11:56:42.001Z</time></trkpt><trkpt lat="44.849048318064895" lon="9.58515773806302"><ele>533.0</ele><time>2026-05-01T11:56:43.001Z</time></trkpt><trkpt lat="44.84915097223048" lon="9.5851730080006"><ele>533.0</ele><time>2026-05-01T11:56:45.001Z</time></trkpt><trkpt lat="44.849249811389065" lon="9.585182939975692"><ele>533.0</ele><time>2026-05-01T11:56:47.001Z</time></trkpt><trkpt lat="44.849359351329824" lon="9.585206277830231"><ele>533.0</ele><time>2026-05-01T11:56:49.001Z</time></trkpt><trkpt lat="44.84948212256705" lon="9.585177139099745"><ele>532.25</ele><time>2026-05-01T11:56:51.001Z</time></trkpt><trkpt lat="44.84961417249285" lon="9.58522776316674"><ele>531.5</ele><time>2026-05-01T11:56:53.001Z</time></trkpt><trkpt lat="44.849689064827544" lon="9.585274321980325"><ele>530.75</ele><time>2026-05-01T11:56:54.001Z</time></trkpt><trkpt lat="44.84977641033846" lon="9.58539843189186"><ele>530.0</ele><time>2026-05-01T11:56:56.001Z</time></trkpt><trkpt lat="44.84986474324451" lon="9.585504510363313"><ele>530.0</ele><time>2026-05-01T11:56:58.001Z</time></trkpt><trkpt lat="44.84998061592059" lon="9.585530338313646"><ele>530.0</ele><time>2026-05-01T11:57:00.001Z</time></trkpt><trkpt lat="44.8500628657479" lon="9.585530854211159"><ele>530.0</ele><time>2026-05-01T11:57:02.001Z</time></trkpt><trkpt lat="44.850120232277014" lon="9.585584798803055"><ele>530.0</ele><time>2026-05-01T11:57:04.001Z</time></trkpt><trkpt lat="44.85017722105558" lon="9.585677214115739"><ele>530.0</ele><time>2026-05-01T11:57:06.001Z</time></trkpt><trkpt lat="44.850230601709505" lon="9.585810222028291"><ele>531.6</ele><time>2026-05-01T11:57:08.002Z</time></trkpt><trkpt lat="44.85026664781291" lon="9.585952779273827"><ele>533.2</ele><time>2026-05-01T11:57:10.002Z</time></trkpt><trkpt lat="44.85032350637068" lon="9.58610180666206"><ele>534.8</ele><time>2026-05-01T11:57:12.002Z</time></trkpt><trkpt lat="44.85036496023739" lon="9.586175178368796"><ele>536.4</ele><time>2026-05-01T11:57:13.002Z</time></trkpt><trkpt lat="44.85041126449848" lon="9.586247992691172"><ele>538.0</ele><time>2026-05-01T11:57:14.002Z</time></trkpt><trkpt lat="44.85047879957668" lon="9.58637769586434"><ele>538.0</ele><time>2026-05-01T11:57:16.002Z</time></trkpt><trkpt lat="44.85054739784006" lon="9.586468419084733"><ele>538.0</ele><time>2026-05-01T11:57:18.002Z</time></trkpt><trkpt lat="44.85064587399032" lon="9.58654974736375"><ele>538.0</ele><time>2026-05-01T11:57:20.002Z</time></trkpt><trkpt lat="44.85070598596236" lon="9.586579911605924"><ele>538.0</ele><time>2026-05-01T11:57:21.002Z</time></trkpt><trkpt lat="44.85082346311838" lon="9.586614567927588"><ele>538.0</ele><time>2026-05-01T11:57:23.002Z</time></trkpt><trkpt lat="44.85091627657598" lon="9.586662329309988"><ele>537.0</ele><time>2026-05-01T11:57:25.002Z</time></trkpt><trkpt lat="44.850970174929685" lon="9.586783334660412"><ele>536.0</ele><time>2026-05-01T11:57:27.002Z</time></trkpt><trkpt lat="44.85099949532119" lon="9.586896434788232"><ele>535.0</ele><time>2026-05-01T11:57:29.002Z</time></trkpt><trkpt lat="44.85101507935649" lon="9.586990024641496"><ele>534.0</ele><time>2026-05-01T11:57:31.002Z</time></trkpt><trkpt lat="44.85100863111723" lon="9.587130115412645"><ele>533.0</ele><time>2026-05-01T11:57:34.001Z</time></trkpt><trkpt lat="44.85100522653039" lon="9.587269464141206"><ele>530.8</ele><time>2026-05-01T11:57:36.001Z</time></trkpt><trkpt lat="44.85101677561411" lon="9.587459823670127"><ele>528.5999999999999</ele><time>2026-05-01T11:57:38.001Z</time></trkpt><trkpt lat="44.85101605963927" lon="9.58756873497388"><ele>526.4000000000001</ele><time>2026-05-01T11:57:39.001Z</time></trkpt><trkpt lat="44.851013034004026" lon="9.587697858479793"><ele>524.2</ele><time>2026-05-01T11:57:40.001Z</time></trkpt><trkpt lat="44.851016487366216" lon="9.58784540530741"><ele>522.0</ele><time>2026-05-01T11:57:41.001Z</time></trkpt><trkpt lat="44.85103370502974" lon="9.587981713688189"><ele>520.3333333333334</ele><time>2026-05-01T11:57:42.001Z</time></trkpt><trkpt lat="44.85104796023254" lon="9.588129177784376"><ele>518.6666666666666</ele><time>2026-05-01T11:57:43.001Z</time></trkpt><trkpt lat="44.85104728128101" lon="9.588245954865567"><ele>517.0</ele><time>2026-05-01T11:57:44.001Z</time></trkpt><trkpt lat="44.851052187758064" lon="9.58835668867724"><ele>515.3333333333333</ele><time>2026-05-01T11:57:45.001Z</time></trkpt><trkpt lat="44.85106718098249" lon="9.588456453875311"><ele>513.6666666666666</ele><time>2026-05-01T11:57:46.001Z</time></trkpt><trkpt lat="44.85114493893329" lon="9.588503211938882"><ele>512.0</ele><time>2026-05-01T11:57:48.001Z</time></trkpt><trkpt lat="44.85124405880806" lon="9.588544352815054"><ele>512.0</ele><time>2026-05-01T11:57:50.001Z</time></trkpt><trkpt lat="44.85127382261092" lon="9.588658906522488"><ele>512.0</ele><time>2026-05-01T11:57:52.001Z</time></trkpt><trkpt lat="44.85125079729974" lon="9.588783132010057"><ele>512.0</ele><time>2026-05-01T11:57:54.001Z</time></trkpt><trkpt lat="44.85123196194555" lon="9.588902689248556"><ele>512.0</ele><time>2026-05-01T11:57:56.001Z</time></trkpt><trkpt lat="44.851228424604486" lon="9.589060478820867"><ele>512.0</ele><time>2026-05-01T11:57:58.001Z</time></trkpt><trkpt lat="44.851201544170706" lon="9.589196502100217"><ele>510.16666666666663</ele><time>2026-05-01T11:58:00.001Z</time></trkpt><trkpt lat="44.85116512857364" lon="9.58928388968325"><ele>508.3333333333333</ele><time>2026-05-01T11:58:01.001Z</time></trkpt><trkpt lat="44.85113324316576" lon="9.589372701513174"><ele>506.5</ele><time>2026-05-01T11:58:02.001Z</time></trkpt><trkpt lat="44.85111718801412" lon="9.589480688353916"><ele>504.66666666666663</ele><time>2026-05-01T11:58:05.001Z</time></trkpt><trkpt lat="44.851109356745" lon="9.589592566375597"><ele>502.8333333333333</ele><time>2026-05-01T11:58:07.001Z</time></trkpt><trkpt lat="44.85109851325141" lon="9.589695244563337"><ele>501.0</ele><time>2026-05-01T11:58:08.001Z</time></trkpt><trkpt lat="44.85108988864566" lon="9.589803789065229"><ele>498.6</ele><time>2026-05-01T11:58:09.001Z</time></trkpt><trkpt lat="44.8510794533851" lon="9.589980862316763"><ele>496.20000000000005</ele><time>2026-05-01T11:58:11.001Z</time></trkpt><trkpt lat="44.851076159436836" lon="9.59015027465504"><ele>493.79999999999995</ele><time>2026-05-01T11:58:13.001Z</time></trkpt><trkpt lat="44.85107666499262" lon="9.590294848242479"><ele>491.4</ele><time>2026-05-01T11:58:15.001Z</time></trkpt><trkpt lat="44.851058123158495" lon="9.590382180992412"><ele>489.0</ele><time>2026-05-01T11:58:31.001Z</time></trkpt><trkpt lat="44.85104882974457" lon="9.590488573938197"><ele>490.79999999999995</ele><time>2026-05-01T11:58:33.001Z</time></trkpt><trkpt lat="44.85102361035048" lon="9.590573862460541"><ele>492.59999999999997</ele><time>2026-05-01T11:58:35.001Z</time></trkpt><trkpt lat="44.85100262696634" lon="9.590668652183238"><ele>494.4</ele><time>2026-05-01T11:58:37.001Z</time></trkpt><trkpt lat="44.850959373442684" lon="9.590779225698999"><ele>496.2</ele><time>2026-05-01T11:58:39.001Z</time></trkpt><trkpt lat="44.8508918236084" lon="9.590898712381975"><ele>498.0</ele><time>2026-05-01T11:58:41.001Z</time></trkpt><trkpt lat="44.85082056246517" lon="9.591038744045674"><ele>498.0</ele><time>2026-05-01T11:58:43.001Z</time></trkpt><trkpt lat="44.8507610929237" lon="9.591171650321819"><ele>498.0</ele><time>2026-05-01T11:58:45.001Z</time></trkpt><trkpt lat="44.850740058312475" lon="9.591308647788365"><ele>498.0</ele><time>2026-05-01T11:58:47.001Z</time></trkpt><trkpt lat="44.85072526250314" lon="9.591403802770328"><ele>498.0</ele><time>2026-05-01T11:58:48.001Z</time></trkpt><trkpt lat="44.85070639755103" lon="9.591504557415618"><ele>498.0</ele><time>2026-05-01T11:58:49.001Z</time></trkpt><trkpt lat="44.850686459971705" lon="9.591597047162267"><ele>498.0</ele><time>2026-05-01T11:58:50.001Z</time></trkpt><trkpt lat="44.850661819391085" lon="9.591763755425761"><ele>496.4</ele><time>2026-05-01T11:58:52.001Z</time></trkpt><trkpt lat="44.850631280609406" lon="9.5918429392319"><ele>494.79999999999995</ele><time>2026-05-01T11:58:53.001Z</time></trkpt><trkpt lat="44.85058050715586" lon="9.59198295880511"><ele>493.2</ele><time>2026-05-01T11:58:55.001Z</time></trkpt><trkpt lat="44.85055011298829" lon="9.592131240105234"><ele>491.6</ele><time>2026-05-01T11:58:57.001Z</time></trkpt><trkpt lat="44.850526548827375" lon="9.59227252485693"><ele>490.0</ele><time>2026-05-01T11:58:59.001Z</time></trkpt><trkpt lat="44.85049911076871" lon="9.592447478739194"><ele>488.0</ele><time>2026-05-01T11:59:01.001Z</time></trkpt><trkpt lat="44.85048867443078" lon="9.592595672221659"><ele>486.0</ele><time>2026-05-01T11:59:03.001Z</time></trkpt><trkpt lat="44.8504758201684" lon="9.59277915403636"><ele>484.0</ele><time>2026-05-01T11:59:05.001Z</time></trkpt><trkpt lat="44.85047179341624" lon="9.592868581091617"><ele>482.0</ele><time>2026-05-01T11:59:06.002Z</time></trkpt><trkpt lat="44.85045556609433" lon="9.593031724766977"><ele>480.0</ele><time>2026-05-01T11:59:08.001Z</time></trkpt><trkpt lat="44.85044412707677" lon="9.593199492842833"><ele>479.0</ele><time>2026-05-01T11:59:10.001Z</time></trkpt><trkpt lat="44.850450514655805" lon="9.593348316136545"><ele>478.0</ele><time>2026-05-01T11:59:12.001Z</time></trkpt><trkpt lat="44.85045094211197" lon="9.593464273358295"><ele>477.0</ele><time>2026-05-01T11:59:14.001Z</time></trkpt><trkpt lat="44.850438431777675" lon="9.593591720170897"><ele>476.0</ele><time>2026-05-01T11:59:16.002Z</time></trkpt><trkpt lat="44.850385251258025" lon="9.593735714839823"><ele>475.0</ele><time>2026-05-01T11:59:18.002Z</time></trkpt><trkpt lat="44.85033855001874" lon="9.593868460828949"><ele>473.33333333333337</ele><time>2026-05-01T11:59:20.002Z</time></trkpt><trkpt lat="44.85030765360945" lon="9.593993229869362"><ele>471.6666666666667</ele><time>2026-05-01T11:59:22.002Z</time></trkpt><trkpt lat="44.85031403507607" lon="9.59412558831696"><ele>470.0</ele><time>2026-05-01T11:59:24.002Z</time></trkpt><trkpt lat="44.85032964381397" lon="9.594213909062606"><ele>468.33333333333337</ele><time>2026-05-01T11:59:25.002Z</time></trkpt><trkpt lat="44.850351830639475" lon="9.594302943615176"><ele>466.6666666666667</ele><time>2026-05-01T11:59:26.002Z</time></trkpt><trkpt lat="44.85035920740699" lon="9.594415421694693"><ele>465.0</ele><time>2026-05-01T11:59:27.002Z</time></trkpt><trkpt lat="44.850356551045785" lon="9.594549277349527"><ele>463.0</ele><time>2026-05-01T11:59:28.002Z</time></trkpt><trkpt lat="44.850357966775164" lon="9.594698579555063"><ele>461.0</ele><time>2026-05-01T11:59:29.002Z</time></trkpt><trkpt lat="44.85034840293363" lon="9.594836954207492"><ele>459.0</ele><time>2026-05-01T11:59:30.002Z</time></trkpt><trkpt lat="44.85034761616696" lon="9.594989502516968"><ele>457.0</ele><time>2026-05-01T11:59:31.002Z</time></trkpt><trkpt lat="44.8503654061432" lon="9.595108085104249"><ele>455.0</ele><time>2026-05-01T11:59:32.002Z</time></trkpt><trkpt lat="44.85037973878318" lon="9.595222114867955"><ele>454.99999999999994</ele><time>2026-05-01T11:59:33.002Z</time></trkpt><trkpt lat="44.850393644034895" lon="9.595318697102533"><ele>455.0</ele><time>2026-05-01T11:59:34.002Z</time></trkpt><trkpt lat="44.850450563471206" lon="9.595396991232187"><ele>455.0</ele><time>2026-05-01T11:59:38.002Z</time></trkpt><trkpt lat="44.85050391149551" lon="9.595344913693173"><ele>455.0</ele><time>2026-05-01T11:59:40.001Z</time></trkpt><trkpt lat="44.85057543208941" lon="9.595319699013402"><ele>454.99999999999994</ele><time>2026-05-01T11:59:48.001Z</time></trkpt><trkpt lat="44.850705174420376" lon="9.595254693968714"><ele>455.0</ele><time>2026-05-01T11:59:50.001Z</time></trkpt><trkpt lat="44.850781112340606" lon="9.595203375502157"><ele>455.0</ele><time>2026-05-01T11:59:51.001Z</time></trkpt><trkpt lat="44.8508329386024" lon="9.595054926117314"><ele>455.0</ele><time>2026-05-01T11:59:52.001Z</time></trkpt><trkpt lat="44.850910195032306" lon="9.594951153812938"><ele>455.0</ele><time>2026-05-01T11:59:53.001Z</time></trkpt><trkpt lat="44.85100199803269" lon="9.594883754432137"><ele>455.0</ele><time>2026-05-01T11:59:54.001Z</time></trkpt><trkpt lat="44.851062986786964" lon="9.594781542570335"><ele>455.0</ele><time>2026-05-01T11:59:55.001Z</time></trkpt><trkpt lat="44.85111994019015" lon="9.594700562266267"><ele>452.3333333333333</ele><time>2026-05-01T11:59:56.001Z</time></trkpt><trkpt lat="44.85115703961781" lon="9.594594146593794"><ele>449.66666666666663</ele><time>2026-05-01T11:59:57.001Z</time></trkpt><trkpt lat="44.85118365454189" lon="9.594488025827804"><ele>447.0</ele><time>2026-05-01T11:59:58.001Z</time></trkpt><trkpt lat="44.851178186499624" lon="9.594363993963709"><ele>444.33333333333337</ele><time>2026-05-01T12:00:00.001Z</time></trkpt><trkpt lat="44.85112852491626" lon="9.594275472111187"><ele>441.6666666666667</ele><time>2026-05-01T12:00:01.001Z</time></trkpt><trkpt lat="44.851071060254" lon="9.594153430365688"><ele>439.0</ele><time>2026-05-01T12:00:02.001Z</time></trkpt><trkpt lat="44.85105620199528" lon="9.593998948603982"><ele>439.0</ele><time>2026-05-01T12:00:03.001Z</time></trkpt><trkpt lat="44.85111949060428" lon="9.593865111318742"><ele>439.0</ele><time>2026-05-01T12:00:04.001Z</time></trkpt><trkpt lat="44.85115369047413" lon="9.593686424532459"><ele>439.0</ele><time>2026-05-01T12:00:05.001Z</time></trkpt><trkpt lat="44.85119829889971" lon="9.593522185421826"><ele>439.0</ele><time>2026-05-01T12:00:06.001Z</time></trkpt><trkpt lat="44.85123210067214" lon="9.593379619697702"><ele>440.0</ele><time>2026-05-01T12:00:07.001Z</time></trkpt><trkpt lat="44.851281012206705" lon="9.593286318852735"><ele>441.0</ele><time>2026-05-01T12:00:08.001Z</time></trkpt><trkpt lat="44.851354440867595" lon="9.593242141703657"><ele>442.0</ele><time>2026-05-01T12:00:09.001Z</time></trkpt><trkpt lat="44.85141942235399" lon="9.593105263966143"><ele>443.0</ele><time>2026-05-01T12:00:10.001Z</time></trkpt><trkpt lat="44.85149061903609" lon="9.592950635269982"><ele>444.0</ele><time>2026-05-01T12:00:11.001Z</time></trkpt><trkpt lat="44.85156088606434" lon="9.592795355805002"><ele>443.79999999999995</ele><time>2026-05-01T12:00:12.001Z</time></trkpt><trkpt lat="44.85162797335748" lon="9.592659680122399"><ele>443.59999999999997</ele><time>2026-05-01T12:00:13.001Z</time></trkpt><trkpt lat="44.85169413565173" lon="9.592555998161858"><ele>443.4</ele><time>2026-05-01T12:00:14.001Z</time></trkpt><trkpt lat="44.85175242782487" lon="9.592412799075554"><ele>443.2</ele><time>2026-05-01T12:00:15.001Z</time></trkpt><trkpt lat="44.85180943564257" lon="9.592306922149586"><ele>443.0</ele><time>2026-05-01T12:00:16.001Z</time></trkpt><trkpt lat="44.85188193162869" lon="9.592200022533826"><ele>442.99999999999994</ele><time>2026-05-01T12:00:17.001Z</time></trkpt><trkpt lat="44.851973322524174" lon="9.592127494189615"><ele>443.0</ele><time>2026-05-01T12:00:18.001Z</time></trkpt><trkpt lat="44.85205240245735" lon="9.592056786882907"><ele>443.0</ele><time>2026-05-01T12:00:19.001Z</time></trkpt><trkpt lat="44.852129226660246" lon="9.592019921136197"><ele>443.0</ele><time>2026-05-01T12:00:20.001Z</time></trkpt><trkpt lat="44.85220569533285" lon="9.59201990996054"><ele>442.99999999999994</ele><time>2026-05-01T12:00:21.001Z</time></trkpt><trkpt lat="44.8522894223718" lon="9.59207098008625"><ele>443.0</ele><time>2026-05-01T12:00:22.001Z</time></trkpt><trkpt lat="44.85241190820764" lon="9.59210840326727"><ele>443.0</ele><time>2026-05-01T12:00:23.001Z</time></trkpt><trkpt lat="44.8525421043236" lon="9.592139539858614"><ele>443.0</ele><time>2026-05-01T12:00:24.001Z</time></trkpt><trkpt lat="44.852692141939805" lon="9.592143155430364"><ele>443.0</ele><time>2026-05-01T12:00:25.001Z</time></trkpt><trkpt lat="44.852849201152566" lon="9.592179037014802"><ele>443.0</ele><time>2026-05-01T12:00:26.001Z</time></trkpt><trkpt lat="44.85297868809907" lon="9.592271860133504"><ele>444.25</ele><time>2026-05-01T12:00:27.001Z</time></trkpt><trkpt lat="44.85309864697883" lon="9.592374093751788"><ele>445.5</ele><time>2026-05-01T12:00:28.001Z</time></trkpt><trkpt lat="44.853222769171566" lon="9.592459459332533"><ele>446.75</ele><time>2026-05-01T12:00:29.001Z</time></trkpt><trkpt lat="44.853307512397734" lon="9.592534946431087"><ele>448.0</ele><time>2026-05-01T12:00:30.001Z</time></trkpt><trkpt lat="44.85339659476339" lon="9.592568997146222"><ele>448.4</ele><time>2026-05-01T12:00:31.001Z</time></trkpt><trkpt lat="44.85349772006205" lon="9.592585475995955"><ele>448.79999999999995</ele><time>2026-05-01T12:00:32.001Z</time></trkpt><trkpt lat="44.853618073684835" lon="9.592574319387122"><ele>449.2</ele><time>2026-05-01T12:00:33.001Z</time></trkpt><trkpt lat="44.85373553054016" lon="9.592557091110129"><ele>449.6</ele><time>2026-05-01T12:00:34.001Z</time></trkpt><trkpt lat="44.85382669585775" lon="9.592594706305025"><ele>450.0</ele><time>2026-05-01T12:00:35.001Z</time></trkpt><trkpt lat="44.85390837922429" lon="9.592652220900483"><ele>450.0</ele><time>2026-05-01T12:00:36.001Z</time></trkpt><trkpt lat="44.85401854216764" lon="9.59272229071178"><ele>450.0</ele><time>2026-05-01T12:00:37.001Z</time></trkpt><trkpt lat="44.85411404545135" lon="9.592838057115424"><ele>450.0</ele><time>2026-05-01T12:00:38.001Z</time></trkpt><trkpt lat="44.8542223292575" lon="9.592900520704292"><ele>450.0</ele><time>2026-05-01T12:00:39.001Z</time></trkpt><trkpt lat="44.85433654673838" lon="9.592968846000264"><ele>449.75</ele><time>2026-05-01T12:00:40.001Z</time></trkpt><trkpt lat="44.8544612927729" lon="9.59299647748813"><ele>449.5</ele><time>2026-05-01T12:00:41.001Z</time></trkpt><trkpt lat="44.85458180209795" lon="9.593027116285466"><ele>449.25</ele><time>2026-05-01T12:00:42.001Z</time></trkpt><trkpt lat="44.85469705544736" lon="9.593042441728464"><ele>449.0</ele><time>2026-05-01T12:00:43.001Z</time></trkpt><trkpt lat="44.85482234612961" lon="9.593052802219008"><ele>449.0</ele><time>2026-05-01T12:00:44.001Z</time></trkpt><trkpt lat="44.85496469016146" lon="9.593074199252632"><ele>449.0</ele><time>2026-05-01T12:00:45.001Z</time></trkpt><trkpt lat="44.85509820978514" lon="9.593150097230641"><ele>449.0</ele><time>2026-05-01T12:00:46.001Z</time></trkpt><trkpt lat="44.85522188645493" lon="9.593239063025138"><ele>449.0</ele><time>2026-05-01T12:00:47.001Z</time></trkpt><trkpt lat="44.85533716079928" lon="9.593346774755885"><ele>448.3333333333333</ele><time>2026-05-01T12:00:48.001Z</time></trkpt><trkpt lat="44.855453168000224" lon="9.59347899507261"><ele>447.66666666666663</ele><time>2026-05-01T12:00:49.001Z</time></trkpt><trkpt lat="44.855556405300796" lon="9.593638505254805"><ele>447.0</ele><time>2026-05-01T12:00:50.001Z</time></trkpt><trkpt lat="44.855668624747686" lon="9.593791783233128"><ele>447.0</ele><time>2026-05-01T12:00:51.001Z</time></trkpt><trkpt lat="44.855769314641876" lon="9.593950743728458"><ele>447.0</ele><time>2026-05-01T12:00:52.001Z</time></trkpt><trkpt lat="44.8558689494649" lon="9.594065515328097"><ele>447.0</ele><time>2026-05-01T12:00:53.001Z</time></trkpt><trkpt lat="44.855981248096754" lon="9.594182861575456"><ele>447.0</ele><time>2026-05-01T12:00:54.001Z</time></trkpt><trkpt lat="44.85607617848642" lon="9.594305200282092"><ele>448.0</ele><time>2026-05-01T12:00:55.001Z</time></trkpt><trkpt lat="44.856168265876825" lon="9.59441184484271"><ele>449.00000000000006</ele><time>2026-05-01T12:00:56.001Z</time></trkpt><trkpt lat="44.85624349223681" lon="9.594494506380277"><ele>450.00000000000006</ele><time>2026-05-01T12:00:57.001Z</time></trkpt><trkpt lat="44.85630760133014" lon="9.594584456132285"><ele>451.0</ele><time>2026-05-01T12:00:58.001Z</time></trkpt><trkpt lat="44.856371134516166" lon="9.59468711104229"><ele>452.0</ele><time>2026-05-01T12:00:59.001Z</time></trkpt><trkpt lat="44.85642828870949" lon="9.594788695087567"><ele>451.99999999999994</ele><time>2026-05-01T12:01:00.001Z</time></trkpt><trkpt lat="44.85647436965147" lon="9.594860297891838"><ele>452.0</ele><time>2026-05-01T12:01:01.001Z</time></trkpt><trkpt lat="44.85651426044363" lon="9.594938895166244"><ele>452.0</ele><time>2026-05-01T12:01:02.001Z</time></trkpt><trkpt lat="44.85652473359085" lon="9.595061843660838"><ele>452.0</ele><time>2026-05-01T12:01:03.001Z</time></trkpt><trkpt lat="44.85654513343585" lon="9.59519615087629"><ele>451.99999999999994</ele><time>2026-05-01T12:01:04.001Z</time></trkpt><trkpt lat="44.856570151137966" lon="9.59534058198043"><ele>452.0</ele><time>2026-05-01T12:01:05.001Z</time></trkpt><trkpt lat="44.85660952607895" lon="9.59546554398427"><ele>452.75</ele><time>2026-05-01T12:01:06.001Z</time></trkpt><trkpt lat="44.85663570165262" lon="9.595618779070223"><ele>453.5</ele><time>2026-05-01T12:01:07.001Z</time></trkpt><trkpt lat="44.856685238506884" lon="9.5957738220728"><ele>454.25</ele><time>2026-05-01T12:01:08.001Z</time></trkpt><trkpt lat="44.85673405028726" lon="9.595953443360298"><ele>455.0</ele><time>2026-05-01T12:01:09.001Z</time></trkpt><trkpt lat="44.85680687445648" lon="9.596119356768424"><ele>451.0</ele><time>2026-05-01T12:01:10.001Z</time></trkpt><trkpt lat="44.85686442594784" lon="9.596278139406813"><ele>447.0</ele><time>2026-05-01T12:01:11.001Z</time></trkpt><trkpt lat="44.856925012094024" lon="9.596429519690375"><ele>443.0</ele><time>2026-05-01T12:01:12.001Z</time></trkpt><trkpt lat="44.85700264777291" lon="9.59658305491757"><ele>439.0</ele><time>2026-05-01T12:01:13.001Z</time></trkpt><trkpt lat="44.857105104470044" lon="9.596734642406172"><ele>439.0</ele><time>2026-05-01T12:01:14.001Z</time></trkpt><trkpt lat="44.8571753346152" lon="9.596889055042494"><ele>439.0</ele><time>2026-05-01T12:01:15.001Z</time></trkpt><trkpt lat="44.85722272419919" lon="9.597031596996388"><ele>439.0</ele><time>2026-05-01T12:01:16.001Z</time></trkpt><trkpt lat="44.85724109185482" lon="9.597194514478732"><ele>439.0</ele><time>2026-05-01T12:01:17.001Z</time></trkpt><trkpt lat="44.85724117625986" lon="9.59737116890073"><ele>437.2</ele><time>2026-05-01T12:01:18.001Z</time></trkpt><trkpt lat="44.857233027529126" lon="9.597551572363347"><ele>435.4</ele><time>2026-05-01T12:01:19.001Z</time></trkpt><trkpt lat="44.85723565705679" lon="9.597714296980937"><ele>433.6</ele><time>2026-05-01T12:01:20.001Z</time></trkpt><trkpt lat="44.857232719623006" lon="9.597855134654294"><ele>431.8</ele><time>2026-05-01T12:01:21.001Z</time></trkpt><trkpt lat="44.857234210948505" lon="9.597972575981673"><ele>430.0</ele><time>2026-05-01T12:01:22.001Z</time></trkpt><trkpt lat="44.85723507337655" lon="9.598084086800423"><ele>430.00000000000006</ele><time>2026-05-01T12:01:23.001Z</time></trkpt><trkpt lat="44.857218085141966" lon="9.598187192882259"><ele>430.0</ele><time>2026-05-01T12:01:24.001Z</time></trkpt><trkpt lat="44.85723117460676" lon="9.59829263024494"><ele>430.0</ele><time>2026-05-01T12:01:25.001Z</time></trkpt><trkpt lat="44.857212753804404" lon="9.59839101615744"><ele>430.0</ele><time>2026-05-01T12:01:26.001Z</time></trkpt><trkpt lat="44.85721566133235" lon="9.598483600452932"><ele>430.00000000000006</ele><time>2026-05-01T12:01:27.001Z</time></trkpt><trkpt lat="44.857228408886805" lon="9.598576264064638"><ele>430.0</ele><time>2026-05-01T12:01:28.001Z</time></trkpt><trkpt lat="44.857246493158044" lon="9.598724659706583"><ele>430.0</ele><time>2026-05-01T12:01:30.001Z</time></trkpt><trkpt lat="44.85723600892276" lon="9.598839100225495"><ele>430.0</ele><time>2026-05-01T12:01:32.002Z</time></trkpt><trkpt lat="44.85722245760398" lon="9.598935859510547"><ele>430.0</ele><time>2026-05-01T12:01:34.002Z</time></trkpt><trkpt lat="44.8572011916389" lon="9.59902935298428"><ele>430.0</ele><time>2026-05-01T12:01:36.002Z</time></trkpt><trkpt lat="44.857311269800284" lon="9.599151624128593"><ele>430.0</ele><time>2026-05-01T12:01:38.002Z</time></trkpt><trkpt lat="44.85739910472403" lon="9.599258718763677"><ele>430.00000000000006</ele><time>2026-05-01T12:01:40.002Z</time></trkpt><trkpt lat="44.857445863325076" lon="9.599374730936429"><ele>430.0</ele><time>2026-05-01T12:01:42.002Z</time></trkpt><trkpt lat="44.85750635944108" lon="9.599491165059927"><ele>430.0</ele><time>2026-05-01T12:01:44.002Z</time></trkpt><trkpt lat="44.85754447193919" lon="9.59956631781542"><ele>430.0</ele><time>2026-05-01T12:01:45.001Z</time></trkpt><trkpt lat="44.85758828804232" lon="9.599647032714305"><ele>430.00000000000006</ele><time>2026-05-01T12:01:46.001Z</time></trkpt><trkpt lat="44.85763054744038" lon="9.599745036855154"><ele>430.0</ele><time>2026-05-01T12:01:47.001Z</time></trkpt><trkpt lat="44.8576450307972" lon="9.599853428847714"><ele>429.6</ele><time>2026-05-01T12:01:48.001Z</time></trkpt><trkpt lat="44.8576975388686" lon="9.599956177186224"><ele>429.2</ele><time>2026-05-01T12:01:49.001Z</time></trkpt><trkpt lat="44.857709609069715" lon="9.600072693091157"><ele>428.79999999999995</ele><time>2026-05-01T12:01:50.001Z</time></trkpt><trkpt lat="44.85773586409166" lon="9.600201313504046"><ele>428.4</ele><time>2026-05-01T12:01:51.001Z</time></trkpt><trkpt lat="44.8577804647971" lon="9.600345210064395"><ele>428.0</ele><time>2026-05-01T12:01:52.001Z</time></trkpt><trkpt lat="44.857819808159476" lon="9.600521951244767"><ele>428.0</ele><time>2026-05-01T12:01:53.001Z</time></trkpt><trkpt lat="44.85787086899543" lon="9.600698028963146"><ele>428.0</ele><time>2026-05-01T12:01:54.001Z</time></trkpt><trkpt lat="44.85791358376015" lon="9.600886699827436"><ele>428.0</ele><time>2026-05-01T12:01:55.001Z</time></trkpt><trkpt lat="44.85793656732455" lon="9.60107091423723"><ele>428.0</ele><time>2026-05-01T12:01:56.001Z</time></trkpt><trkpt lat="44.8579539969989" lon="9.601243713734181"><ele>428.0</ele><time>2026-05-01T12:01:57.001Z</time></trkpt><trkpt lat="44.85798556062996" lon="9.601405524729273"><ele>427.99999999999994</ele><time>2026-05-01T12:01:58.001Z</time></trkpt><trkpt lat="44.8580066188027" lon="9.601556173627957"><ele>427.99999999999994</ele><time>2026-05-01T12:01:59.001Z</time></trkpt><trkpt lat="44.85803553103433" lon="9.601703605614773"><ele>428.0</ele><time>2026-05-01T12:02:00.001Z</time></trkpt><trkpt lat="44.85807294063077" lon="9.601845618730556"><ele>428.0</ele><time>2026-05-01T12:02:01.001Z</time></trkpt><trkpt lat="44.858097929655564" lon="9.602002739541248"><ele>427.79999999999995</ele><time>2026-05-01T12:02:02.001Z</time></trkpt><trkpt lat="44.8581357278312" lon="9.60215141694346"><ele>427.59999999999997</ele><time>2026-05-01T12:02:03.001Z</time></trkpt><trkpt lat="44.858178720454475" lon="9.602273887836848"><ele>427.40000000000003</ele><time>2026-05-01T12:02:04.001Z</time></trkpt><trkpt lat="44.858215754928835" lon="9.602363800224497"><ele>427.20000000000005</ele><time>2026-05-01T12:02:05.001Z</time></trkpt><trkpt lat="44.858306873571955" lon="9.602441763073633"><ele>427.0</ele><time>2026-05-01T12:02:07.001Z</time></trkpt><trkpt lat="44.85842391044471" lon="9.603134101277487"><ele>426.6666666666667</ele><time>2026-05-01T12:02:59.001Z</time></trkpt><trkpt lat="44.85846746640299" lon="9.603213035011485"><ele>426.33333333333337</ele><time>2026-05-01T12:03:00.001Z</time></trkpt><trkpt lat="44.858519177949454" lon="9.603295455306885"><ele>426.0</ele><time>2026-05-01T12:03:01.001Z</time></trkpt><trkpt lat="44.85856935551256" lon="9.603374757868899"><ele>425.66666666666663</ele><time>2026-05-01T12:03:02.001Z</time></trkpt><trkpt lat="44.85861589650329" lon="9.6034511066919"><ele>425.3333333333333</ele><time>2026-05-01T12:03:03.001Z</time></trkpt><trkpt lat="44.85868225285525" lon="9.603605390275524"><ele>425.0</ele><time>2026-05-01T12:03:05.001Z</time></trkpt><trkpt lat="44.85870518739337" lon="9.603703192357573"><ele>423.2857142857143</ele><time>2026-05-01T12:03:06.001Z</time></trkpt><trkpt lat="44.85872004018202" lon="9.603808965659562"><ele>421.57142857142856</ele><time>2026-05-01T12:03:07.001Z</time></trkpt><trkpt lat="44.85872872965016" lon="9.603915573158183"><ele>419.8571428571429</ele><time>2026-05-01T12:03:08.001Z</time></trkpt><trkpt lat="44.85874801994188" lon="9.604024339102375"><ele>418.1428571428571</ele><time>2026-05-01T12:03:09.001Z</time></trkpt><trkpt lat="44.858784164961534" lon="9.604117434985701"><ele>416.42857142857144</ele><time>2026-05-01T12:03:10.001Z</time></trkpt><trkpt lat="44.85883303730572" lon="9.604185051579822"><ele>414.7142857142857</ele><time>2026-05-01T12:03:11.001Z</time></trkpt><trkpt lat="44.85887851090956" lon="9.604252562758065"><ele>413.0</ele><time>2026-05-01T12:03:12.001Z</time></trkpt><trkpt lat="44.85892725764243" lon="9.604331998736798"><ele>412.99999999999994</ele><time>2026-05-01T12:03:13.001Z</time></trkpt><trkpt lat="44.85897178850952" lon="9.604420253767614"><ele>413.0</ele><time>2026-05-01T12:03:14.001Z</time></trkpt><trkpt lat="44.85898949206342" lon="9.60450817448197"><ele>413.0</ele><time>2026-05-01T12:03:15.001Z</time></trkpt><trkpt lat="44.85901619111972" lon="9.60459477377547"><ele>413.0</ele><time>2026-05-01T12:03:16.001Z</time></trkpt><trkpt lat="44.8590807347292" lon="9.604727255193009"><ele>412.99999999999994</ele><time>2026-05-01T12:03:18.001Z</time></trkpt><trkpt lat="44.859154448462554" lon="9.604871848182325"><ele>413.0</ele><time>2026-05-01T12:03:20.001Z</time></trkpt><trkpt lat="44.85919378249191" lon="9.60497103777478"><ele>412.3333333333333</ele><time>2026-05-01T12:03:21.001Z</time></trkpt><trkpt lat="44.85923858634837" lon="9.605071260923912"><ele>411.66666666666663</ele><time>2026-05-01T12:03:22.001Z</time></trkpt><trkpt lat="44.85927907716223" lon="9.605166097767341"><ele>411.0</ele><time>2026-05-01T12:03:23.001Z</time></trkpt><trkpt lat="44.85932913433398" lon="9.60530236419158"><ele>410.33333333333337</ele><time>2026-05-01T12:03:25.001Z</time></trkpt><trkpt lat="44.859364054372584" lon="9.605393234998434"><ele>409.6666666666667</ele><time>2026-05-01T12:03:28.001Z</time></trkpt><trkpt lat="44.8593877944822" lon="9.605489722517703"><ele>409.0</ele><time>2026-05-01T12:04:21.001Z</time></trkpt><trkpt lat="44.85944475381666" lon="9.605584224667831"><ele>406.4</ele><time>2026-05-01T12:04:23.001Z</time></trkpt><trkpt lat="44.85951545497646" lon="9.605672737938447"><ele>403.79999999999995</ele><time>2026-05-01T12:04:25.001Z</time></trkpt><trkpt lat="44.8596111196774" lon="9.60577954264698"><ele>401.20000000000005</ele><time>2026-05-01T12:04:27.001Z</time></trkpt><trkpt lat="44.859712559434506" lon="9.605905567035144"><ele>398.6</ele><time>2026-05-01T12:04:29.001Z</time></trkpt><trkpt lat="44.859771673724175" lon="9.605971438549687"><ele>396.0</ele><time>2026-05-01T12:04:30.001Z</time></trkpt><trkpt lat="44.8598420349175" lon="9.606041392135905"><ele>396.0</ele><time>2026-05-01T12:04:31.001Z</time></trkpt><trkpt lat="44.85991822334985" lon="9.606104069870122"><ele>396.0</ele><time>2026-05-01T12:04:32.001Z</time></trkpt><trkpt lat="44.85999460922624" lon="9.606152674513906"><ele>396.0</ele><time>2026-05-01T12:04:33.001Z</time></trkpt><trkpt lat="44.860059559632425" lon="9.606196241654226"><ele>396.0</ele><time>2026-05-01T12:04:34.001Z</time></trkpt><trkpt lat="44.8601229247116" lon="9.606232546544543"><ele>396.0</ele><time>2026-05-01T12:04:35.001Z</time></trkpt><trkpt lat="44.86019476909215" lon="9.606260086769588"><ele>396.0</ele><time>2026-05-01T12:04:36.001Z</time></trkpt><trkpt lat="44.860276319843855" lon="9.60629180549728"><ele>397.0</ele><time>2026-05-01T12:04:37.001Z</time></trkpt><trkpt lat="44.86036503643735" lon="9.606331969651642"><ele>398.0</ele><time>2026-05-01T12:04:38.001Z</time></trkpt><trkpt lat="44.86043616107886" lon="9.606386061012092"><ele>399.0</ele><time>2026-05-01T12:04:39.001Z</time></trkpt><trkpt lat="44.86050025416121" lon="9.606452776662262"><ele>400.0</ele><time>2026-05-01T12:04:40.001Z</time></trkpt><trkpt lat="44.860570155439504" lon="9.606523930634644"><ele>401.0</ele><time>2026-05-01T12:04:41.001Z</time></trkpt><trkpt lat="44.860635109637215" lon="9.606599052078298"><ele>402.0</ele><time>2026-05-01T12:04:42.001Z</time></trkpt><trkpt lat="44.86070398712497" lon="9.606685851746622"><ele>402.0</ele><time>2026-05-01T12:04:43.001Z</time></trkpt><trkpt lat="44.860773367652314" lon="9.606779639809737"><ele>402.0</ele><time>2026-05-01T12:04:44.001Z</time></trkpt><trkpt lat="44.860836239591244" lon="9.60687541757544"><ele>402.0</ele><time>2026-05-01T12:04:45.001Z</time></trkpt><trkpt lat="44.8608907972928" lon="9.606975587460761"><ele>402.0</ele><time>2026-05-01T12:04:46.001Z</time></trkpt><trkpt lat="44.86092731613938" lon="9.607073841488107"><ele>402.0</ele><time>2026-05-01T12:04:47.001Z</time></trkpt><trkpt lat="44.8609607363021" lon="9.607185715065818"><ele>402.0</ele><time>2026-05-01T12:04:48.001Z</time></trkpt><trkpt lat="44.8610004773217" lon="9.60728777607623"><ele>402.0</ele><time>2026-05-01T12:04:49.001Z</time></trkpt><trkpt lat="44.86103589033837" lon="9.6073880185632"><ele>402.0</ele><time>2026-05-01T12:04:50.001Z</time></trkpt><trkpt lat="44.86107126832014" lon="9.607500468141387"><ele>402.0</ele><time>2026-05-01T12:04:51.001Z</time></trkpt><trkpt lat="44.86110050331526" lon="9.60759637164958"><ele>402.0</ele><time>2026-05-01T12:04:52.001Z</time></trkpt><trkpt lat="44.861123720221634" lon="9.607702160639981"><ele>402.0</ele><time>2026-05-01T12:04:53.001Z</time></trkpt><trkpt lat="44.861141707964215" lon="9.6077980703651"><ele>402.0</ele><time>2026-05-01T12:04:54.001Z</time></trkpt><trkpt lat="44.86117448910089" lon="9.607949163179049"><ele>402.0</ele><time>2026-05-01T12:04:56.001Z</time></trkpt><trkpt lat="44.86120720211146" lon="9.60804618541698"><ele>402.0</ele><time>2026-05-01T12:04:58.001Z</time></trkpt><trkpt lat="44.86122002676592" lon="9.60815148501949"><ele>402.0</ele><time>2026-05-01T12:05:05.001Z</time></trkpt><trkpt lat="44.86124024665221" lon="9.60827736264874"><ele>402.0</ele><time>2026-05-01T12:05:08.001Z</time></trkpt><trkpt lat="44.861262199345354" lon="9.608430852332807"><ele>402.0</ele><time>2026-05-01T12:05:10.001Z</time></trkpt><trkpt lat="44.86126826658907" lon="9.608588043264117"><ele>398.0</ele><time>2026-05-01T12:05:12.001Z</time></trkpt><trkpt lat="44.86128417249423" lon="9.608750035259163"><ele>394.0</ele><time>2026-05-01T12:05:14.001Z</time></trkpt><trkpt lat="44.8613221775507" lon="9.60891470617802"><ele>390.0</ele><time>2026-05-01T12:05:16.001Z</time></trkpt><trkpt lat="44.86132984974979" lon="9.609094133291183"><ele>386.0</ele><time>2026-05-01T12:05:18.001Z</time></trkpt><trkpt lat="44.86132388771525" lon="9.60918766700125"><ele>382.0</ele><time>2026-05-01T12:05:19.001Z</time></trkpt><trkpt lat="44.86132412275552" lon="9.609277669616336"><ele>382.0</ele><time>2026-05-01T12:05:20.001Z</time></trkpt><trkpt lat="44.861331704597355" lon="9.60937772066135"><ele>382.0</ele><time>2026-05-01T12:05:21.001Z</time></trkpt><trkpt lat="44.86135590421012" lon="9.609493478812013"><ele>382.0</ele><time>2026-05-01T12:05:22.001Z</time></trkpt><trkpt lat="44.8613882205592" lon="9.609600960995039"><ele>382.0</ele><time>2026-05-01T12:05:23.001Z</time></trkpt><trkpt lat="44.861435892076614" lon="9.609669061652108"><ele>382.0</ele><time>2026-05-01T12:05:24.001Z</time></trkpt><trkpt lat="44.86153951134069" lon="9.609767581968924"><ele>382.0</ele><time>2026-05-01T12:05:26.001Z</time></trkpt><trkpt lat="44.861600039072435" lon="9.609810477207985"><ele>380.0</ele><time>2026-05-01T12:05:27.001Z</time></trkpt><trkpt lat="44.86166218105332" lon="9.60986014062533"><ele>378.0</ele><time>2026-05-01T12:05:28.001Z</time></trkpt><trkpt lat="44.86172611868789" lon="9.60990684147509"><ele>376.0</ele><time>2026-05-01T12:05:29.001Z</time></trkpt><trkpt lat="44.861803666866656" lon="9.609969525567314"><ele>374.0</ele><time>2026-05-01T12:05:31.001Z</time></trkpt><trkpt lat="44.861815114450195" lon="9.61009777321106"><ele>372.0</ele><time>2026-05-01T12:05:34.001Z</time></trkpt><trkpt lat="44.86177809934111" lon="9.610262663784967"><ele>370.0</ele><time>2026-05-01T12:05:36.001Z</time></trkpt><trkpt lat="44.861725305722665" lon="9.61041507426551"><ele>367.71428571428567</ele><time>2026-05-01T12:05:38.001Z</time></trkpt><trkpt lat="44.861704331366816" lon="9.610500415450224"><ele>365.42857142857144</ele><time>2026-05-01T12:05:39.001Z</time></trkpt><trkpt lat="44.86168067950547" lon="9.610585189132957"><ele>363.1428571428571</ele><time>2026-05-01T12:05:40.001Z</time></trkpt><trkpt lat="44.86165048573451" lon="9.61066508930964"><ele>360.85714285714283</ele><time>2026-05-01T12:05:41.001Z</time></trkpt><trkpt lat="44.861603276818414" lon="9.610774253667483"><ele>358.57142857142856</ele><time>2026-05-01T12:05:43.001Z</time></trkpt><trkpt lat="44.8615436146233" lon="9.610856867350178"><ele>356.2857142857143</ele><time>2026-05-01T12:05:45.001Z</time></trkpt><trkpt lat="44.86148542577643" lon="9.610908597044638"><ele>354.0</ele><time>2026-05-01T12:05:47.001Z</time></trkpt><trkpt lat="44.861430829772964" lon="9.610956910283557"><ele>354.0</ele><time>2026-05-01T12:13:54.001Z</time></trkpt><trkpt lat="44.86138190870999" lon="9.61103084014095"><ele>354.0</ele><time>2026-05-01T12:13:56.001Z</time></trkpt><trkpt lat="44.86130555158991" lon="9.611129424224547"><ele>354.0</ele><time>2026-05-01T12:13:58.001Z</time></trkpt><trkpt lat="44.861223194736844" lon="9.611239240389537"><ele>354.0</ele><time>2026-05-01T12:14:00.001Z</time></trkpt><trkpt lat="44.86114275304243" lon="9.61137672952253"><ele>354.0</ele><time>2026-05-01T12:14:02.001Z</time></trkpt><trkpt lat="44.861116921048215" lon="9.611464925833083"><ele>351.4</ele><time>2026-05-01T12:14:03.001Z</time></trkpt><trkpt lat="44.86110912128273" lon="9.611634076246386"><ele>348.79999999999995</ele><time>2026-05-01T12:14:05.001Z</time></trkpt><trkpt lat="44.86113712667126" lon="9.61178084382186"><ele>346.20000000000005</ele><time>2026-05-01T12:14:07.001Z</time></trkpt><trkpt lat="44.86120687502641" lon="9.611880600180468"><ele>343.6</ele><time>2026-05-01T12:14:09.001Z</time></trkpt><trkpt lat="44.86124313325956" lon="9.612027427598752"><ele>341.0</ele><time>2026-05-01T12:14:11.001Z</time></trkpt><trkpt lat="44.861250301499446" lon="9.61219477029635"><ele>339.83333333333337</ele><time>2026-05-01T12:14:13.001Z</time></trkpt><trkpt lat="44.86126939060491" lon="9.61232946093513"><ele>338.6666666666667</ele><time>2026-05-01T12:14:15.001Z</time></trkpt><trkpt lat="44.861294991143396" lon="9.612456549590833"><ele>337.5</ele><time>2026-05-01T12:14:17.001Z</time></trkpt><trkpt lat="44.86133014377509" lon="9.612562374791365"><ele>336.3333333333333</ele><time>2026-05-01T12:14:19.001Z</time></trkpt><trkpt lat="44.86136696732732" lon="9.612645159654997"><ele>335.16666666666663</ele><time>2026-05-01T12:14:21Z</time></trkpt><trkpt lat="44.86141376543578" lon="9.612742789563903"><ele>334.0</ele><time>2026-05-01T12:14:24Z</time></trkpt><trkpt lat="44.86136603769649" lon="9.612899275872884"><ele>332.57142857142856</ele><time>2026-05-01T12:14:26Z</time></trkpt><trkpt lat="44.861369262272916" lon="9.612995812181337"><ele>331.14285714285717</ele><time>2026-05-01T12:14:27Z</time></trkpt><trkpt lat="44.86138621087926" lon="9.613086804637863"><ele>329.7142857142857</ele><time>2026-05-01T12:14:28Z</time></trkpt><trkpt lat="44.86139295092812" lon="9.61317867243811"><ele>328.2857142857143</ele><time>2026-05-01T12:14:29Z</time></trkpt><trkpt lat="44.861384929222304" lon="9.613276047894521"><ele>326.85714285714283</ele><time>2026-05-01T12:14:30Z</time></trkpt><trkpt lat="44.86138997029014" lon="9.613373056620455"><ele>325.42857142857144</ele><time>2026-05-01T12:14:31Z</time></trkpt><trkpt lat="44.8613905873118" lon="9.613469774641915"><ele>324.0</ele><time>2026-05-01T12:14:32Z</time></trkpt><trkpt lat="44.86138785948374" lon="9.613570859730984"><ele>322.6666666666667</ele><time>2026-05-01T12:14:33Z</time></trkpt><trkpt lat="44.861383424955015" lon="9.61369038083632"><ele>321.3333333333333</ele><time>2026-05-01T12:14:34Z</time></trkpt><trkpt lat="44.86137558251279" lon="9.613800723332913"><ele>320.0</ele><time>2026-05-01T12:14:35Z</time></trkpt><trkpt lat="44.86135862196496" lon="9.613887906186884"><ele>318.66666666666663</ele><time>2026-05-01T12:14:36Z</time></trkpt><trkpt lat="44.861335293860975" lon="9.614035712715483"><ele>317.3333333333333</ele><time>2026-05-01T12:14:38Z</time></trkpt><trkpt lat="44.861377957527175" lon="9.614122415349678"><ele>316.0</ele><time>2026-05-01T12:14:40Z</time></trkpt><trkpt lat="44.86141125279396" lon="9.614219818591879"><ele>316.0</ele><time>2026-05-01T12:14:43Z</time></trkpt><trkpt lat="44.86139230131782" lon="9.614328800011814"><ele>316.0</ele><time>2026-05-01T12:14:55Z</time></trkpt><trkpt lat="44.86132804519752" lon="9.614410174070523"><ele>316.0</ele><time>2026-05-01T12:14:59Z</time></trkpt><trkpt lat="44.86126099397162" lon="9.614486777554252"><ele>316.0</ele><time>2026-05-01T12:15:13Z</time></trkpt><trkpt lat="44.861171082108" lon="9.614601390714961"><ele>316.0</ele><time>2026-05-01T12:15:15Z</time></trkpt><trkpt lat="44.86111229160437" lon="9.61468036032025"><ele>315.66666666666663</ele><time>2026-05-01T12:15:16Z</time></trkpt><trkpt lat="44.86105854302175" lon="9.614761762463383"><ele>315.3333333333333</ele><time>2026-05-01T12:15:17Z</time></trkpt><trkpt lat="44.861015326854485" lon="9.614832850200921"><ele>315.0</ele><time>2026-05-01T12:15:18Z</time></trkpt><trkpt lat="44.8609568555831" lon="9.614953386327613"><ele>314.6666666666667</ele><time>2026-05-01T12:15:20Z</time></trkpt><trkpt lat="44.860915619232074" lon="9.615032997669726"><ele>314.33333333333337</ele><time>2026-05-01T12:15:23Z</time></trkpt><trkpt lat="44.86084670164455" lon="9.6150399676882"><ele>314.0</ele><time>2026-05-01T12:15:28.001Z</time></trkpt><trkpt lat="44.860782778022084" lon="9.615011616842315"><ele>313.99999999999994</ele><time>2026-05-01T12:15:32.001Z</time></trkpt><trkpt lat="44.86072190688608" lon="9.614966895080778"><ele>314.0</ele><time>2026-05-01T12:15:35.001Z</time></trkpt><trkpt lat="44.86066529680631" lon="9.614902080154724"><ele>314.0</ele><time>2026-05-01T12:15:38.001Z</time></trkpt><trkpt lat="44.86061031223944" lon="9.614815327746546"><ele>314.0</ele><time>2026-05-01T12:15:41.001Z</time></trkpt><trkpt lat="44.86057493986767" lon="9.614738405799363"><ele>314.0</ele><time>2026-05-01T12:15:43.001Z</time></trkpt><trkpt lat="44.86053869519483" lon="9.614650182493014"><ele>313.99999999999994</ele><time>2026-05-01T12:15:45.001Z</time></trkpt><trkpt lat="44.860481326380295" lon="9.614558396999248"><ele>314.0</ele><time>2026-05-01T12:15:47.001Z</time></trkpt><trkpt lat="44.86043313495372" lon="9.614417055521763"><ele>314.83333333333337</ele><time>2026-05-01T12:15:49.001Z</time></trkpt><trkpt lat="44.860353295764966" lon="9.614273426060459"><ele>315.6666666666667</ele><time>2026-05-01T12:15:51.001Z</time></trkpt><trkpt lat="44.86028352456996" lon="9.614227815232516"><ele>316.5</ele><time>2026-05-01T12:15:52.001Z</time></trkpt><trkpt lat="44.86020497249986" lon="9.61421016832216"><ele>317.3333333333333</ele><time>2026-05-01T12:15:53.001Z</time></trkpt><trkpt lat="44.86013019682904" lon="9.614211976768969"><ele>318.16666666666663</ele><time>2026-05-01T12:15:54.001Z</time></trkpt><trkpt lat="44.86005350131437" lon="9.614230127367954"><ele>319.0</ele><time>2026-05-01T12:15:55.001Z</time></trkpt><trkpt lat="44.85997781830997" lon="9.61425255102045"><ele>316.66666666666663</ele><time>2026-05-01T12:15:56.001Z</time></trkpt><trkpt lat="44.85990410149506" lon="9.614275938828698"><ele>314.3333333333333</ele><time>2026-05-01T12:15:57.001Z</time></trkpt><trkpt lat="44.85982813861836" lon="9.61430518657907"><ele>312.0</ele><time>2026-05-01T12:15:58.001Z</time></trkpt><trkpt lat="44.85975246436713" lon="9.614336765495013"><ele>309.6666666666667</ele><time>2026-05-01T12:15:59.001Z</time></trkpt><trkpt lat="44.859676092357816" lon="9.614367290842765"><ele>307.33333333333337</ele><time>2026-05-01T12:16:00.001Z</time></trkpt><trkpt lat="44.859602773153696" lon="9.614390214880695"><ele>305.0</ele><time>2026-05-01T12:16:01.001Z</time></trkpt><trkpt lat="44.85953329688159" lon="9.61440806338749"><ele>305.0</ele><time>2026-05-01T12:16:02.001Z</time></trkpt><trkpt lat="44.85944392638518" lon="9.614424614130678"><ele>305.0</ele><time>2026-05-01T12:16:04.001Z</time></trkpt><trkpt lat="44.859371506256565" lon="9.61443586525588"><ele>305.0</ele><time>2026-05-01T12:16:08.001Z</time></trkpt><trkpt lat="44.85924956125394" lon="9.614454281266843"><ele>305.0</ele><time>2026-05-01T12:17:07Z</time></trkpt><trkpt lat="44.859170549501506" lon="9.614466213518382"><ele>305.0</ele><time>2026-05-01T12:17:08Z</time></trkpt><trkpt lat="44.85906656759593" lon="9.614480579905315"><ele>301.5</ele><time>2026-05-01T12:17:09Z</time></trkpt><trkpt lat="44.85894742497867" lon="9.614496322161248"><ele>298.0</ele><time>2026-05-01T12:17:10Z</time></trkpt><trkpt lat="44.858820321881886" lon="9.61451013948825"><ele>294.5</ele><time>2026-05-01T12:17:11Z</time></trkpt><trkpt lat="44.85868172259146" lon="9.614521375671679"><ele>291.0</ele><time>2026-05-01T12:17:12Z</time></trkpt><trkpt lat="44.858537261892934" lon="9.614534965899443"><ele>291.0</ele><time>2026-05-01T12:17:13Z</time></trkpt><trkpt lat="44.85838734683441" lon="9.614585438808577"><ele>291.0</ele><time>2026-05-01T12:17:14Z</time></trkpt><trkpt lat="44.858229911100715" lon="9.614609473832965"><ele>291.0</ele><time>2026-05-01T12:17:15Z</time></trkpt><trkpt lat="44.85807531399095" lon="9.614681878431231"><ele>291.0</ele><time>2026-05-01T12:17:16Z</time></trkpt><trkpt lat="44.85791252435036" lon="9.614747259597394"><ele>291.0</ele><time>2026-05-01T12:17:17Z</time></trkpt><trkpt lat="44.85775610348537" lon="9.614829761819125"><ele>291.0</ele><time>2026-05-01T12:17:18Z</time></trkpt><trkpt lat="44.85761478718997" lon="9.614911780511337"><ele>290.25</ele><time>2026-05-01T12:17:19Z</time></trkpt><trkpt lat="44.85747634688787" lon="9.614966240797605"><ele>289.5</ele><time>2026-05-01T12:17:20Z</time></trkpt><trkpt lat="44.85735946736948" lon="9.615061616597544"><ele>288.75</ele><time>2026-05-01T12:17:21Z</time></trkpt><trkpt lat="44.857253741096116" lon="9.6151415420285"><ele>288.0</ele><time>2026-05-01T12:17:22Z</time></trkpt><trkpt lat="44.85714664696742" lon="9.615238593486216"><ele>287.25</ele><time>2026-05-01T12:17:23Z</time></trkpt><trkpt lat="44.8570748081833" lon="9.61541844469968"><ele>286.5</ele><time>2026-05-01T12:17:24Z</time></trkpt><trkpt lat="44.85697993204786" lon="9.61558373100563"><ele>285.75</ele><time>2026-05-01T12:17:25Z</time></trkpt><trkpt lat="44.85690467557008" lon="9.615755696226087"><ele>285.0</ele><time>2026-05-01T12:17:26Z</time></trkpt><trkpt lat="44.856835355419115" lon="9.615913288835085"><ele>284.6</ele><time>2026-05-01T12:17:27Z</time></trkpt><trkpt lat="44.856770470660976" lon="9.616060797926169"><ele>284.2</ele><time>2026-05-01T12:17:28Z</time></trkpt><trkpt lat="44.85670961621029" lon="9.616200685849797"><ele>283.8</ele><time>2026-05-01T12:17:29Z</time></trkpt><trkpt lat="44.85665492251036" lon="9.616329231033262"><ele>283.4</ele><time>2026-05-01T12:17:30Z</time></trkpt><trkpt lat="44.856601116099476" lon="9.61643184240005"><ele>283.0</ele><time>2026-05-01T12:17:31Z</time></trkpt><trkpt lat="44.856495154967526" lon="9.616535094375061"><ele>282.6</ele><time>2026-05-01T12:17:33Z</time></trkpt><trkpt lat="44.856374260723825" lon="9.616517317108425"><ele>282.20000000000005</ele><time>2026-05-01T12:17:35Z</time></trkpt><trkpt lat="44.856317180040925" lon="9.616426220868096"><ele>281.8</ele><time>2026-05-01T12:17:37Z</time></trkpt><trkpt lat="44.85617563511361" lon="9.616502732860885"><ele>281.40000000000003</ele><time>2026-05-01T12:17:42Z</time></trkpt><trkpt lat="44.85611414890943" lon="9.616568435546142"><ele>281.0</ele><time>2026-05-01T12:17:43Z</time></trkpt><trkpt lat="44.85601855665048" lon="9.61669979291721"><ele>281.0</ele><time>2026-05-01T12:17:45Z</time></trkpt><trkpt lat="44.855943318367586" lon="9.616789915553605"><ele>281.0</ele><time>2026-05-01T12:17:47Z</time></trkpt><trkpt lat="44.855891852184854" lon="9.61685333762969"><ele>281.0</ele><time>2026-05-01T12:17:50Z</time></trkpt><trkpt lat="44.85584422385917" lon="9.616915280888161"><ele>281.0</ele><time>2026-05-01T12:17:54Z</time></trkpt><trkpt lat="44.855795180499975" lon="9.616980925572642"><ele>281.0</ele><time>2026-05-01T12:17:58Z</time></trkpt><trkpt lat="44.85574136717769" lon="9.617052954855577"><ele>281.0</ele><time>2026-05-01T12:18:01Z</time></trkpt><trkpt lat="44.85567109713179" lon="9.617147011539938"><ele>280.8</ele><time>2026-05-01T12:18:04.001Z</time></trkpt><trkpt lat="44.85561516164782" lon="9.617221881398361"><ele>280.6</ele><time>2026-05-01T12:18:06.001Z</time></trkpt><trkpt lat="44.85553953911151" lon="9.617325724418425"><ele>280.4</ele><time>2026-05-01T12:18:08.001Z</time></trkpt><trkpt lat="44.85545510599983" lon="9.617449324768769"><ele>280.2</ele><time>2026-05-01T12:18:10.001Z</time></trkpt><trkpt lat="44.85537112134258" lon="9.617575783041486"><ele>280.0</ele><time>2026-05-01T12:18:12.001Z</time></trkpt><trkpt lat="44.855326419340464" lon="9.617642635015336"><ele>280.0</ele><time>2026-05-01T12:18:13.001Z</time></trkpt><trkpt lat="44.85528133487074" lon="9.617710059001572"><ele>280.0</ele><time>2026-05-01T12:18:14.001Z</time></trkpt><trkpt lat="44.855237002851894" lon="9.617780393956965"><ele>280.0</ele><time>2026-05-01T12:18:15.001Z</time></trkpt><trkpt lat="44.855197950834835" lon="9.61785192257235"><ele>280.0</ele><time>2026-05-01T12:18:16.001Z</time></trkpt><trkpt lat="44.85516206283452" lon="9.617996847352757"><ele>280.0</ele><time>2026-05-01T12:18:18.001Z</time></trkpt><trkpt lat="44.85513939303223" lon="9.618119470384407"><ele>280.0</ele><time>2026-05-01T12:18:20.001Z</time></trkpt><trkpt lat="44.85515975093901" lon="9.61823879531643"><ele>276.5</ele><time>2026-05-01T12:18:23.001Z</time></trkpt><trkpt lat="44.855158400157386" lon="9.618331286385715"><ele>273.0</ele><time>2026-05-01T12:18:25.001Z</time></trkpt><trkpt lat="44.85515650319426" lon="9.618461175963441"><ele>269.5</ele><time>2026-05-01T12:18:28.001Z</time></trkpt><trkpt lat="44.85488160488542" lon="9.618497637312009"><ele>266.0</ele><time>2026-05-01T12:18:29.001Z</time></trkpt><trkpt lat="44.85482387936142" lon="9.618575105244561"><ele>264.1666666666667</ele><time>2026-05-01T12:18:31.001Z</time></trkpt><trkpt lat="44.85478506381852" lon="9.618664634422446"><ele>262.33333333333337</ele><time>2026-05-01T12:18:34Z</time></trkpt><trkpt lat="44.85473867299854" lon="9.618746157986433"><ele>260.5</ele><time>2026-05-01T12:18:36Z</time></trkpt><trkpt lat="44.85468548168408" lon="9.618822641899179"><ele>258.6666666666667</ele><time>2026-05-01T12:18:38Z</time></trkpt><trkpt lat="44.85462423944214" lon="9.618921671535606"><ele>256.8333333333333</ele><time>2026-05-01T12:18:40Z</time></trkpt><trkpt lat="44.8545589270471" lon="9.619004766932047"><ele>255.0</ele><time>2026-05-01T12:18:42Z</time></trkpt><trkpt lat="44.854502189899065" lon="9.619077220506874"><ele>255.0</ele><time>2026-05-01T12:18:44Z</time></trkpt><trkpt lat="44.854433529935264" lon="9.619195888344738"><ele>255.0</ele><time>2026-05-01T12:18:46Z</time></trkpt><trkpt lat="44.85436448929616" lon="9.619331596640045"><ele>255.0</ele><time>2026-05-01T12:18:48Z</time></trkpt><trkpt lat="44.85431055745725" lon="9.61941857681034"><ele>255.0</ele><time>2026-05-01T12:18:50Z</time></trkpt><trkpt lat="44.85423840843877" lon="9.619529773609871"><ele>255.0</ele><time>2026-05-01T12:18:52Z</time></trkpt><trkpt lat="44.85419461745141" lon="9.619600890362745"><ele>252.5</ele><time>2026-05-01T12:18:53Z</time></trkpt><trkpt lat="44.8541421226093" lon="9.619697596524427"><ele>250.0</ele><time>2026-05-01T12:18:54Z</time></trkpt><trkpt lat="44.854079597304164" lon="9.619774860160485"><ele>247.5</ele><time>2026-05-01T12:18:55Z</time></trkpt><trkpt lat="44.85400656738368" lon="9.61985453917173"><ele>245.0</ele><time>2026-05-01T12:18:56Z</time></trkpt><trkpt lat="44.8539175622291" lon="9.619903189366987"><ele>242.5</ele><time>2026-05-01T12:18:57Z</time></trkpt><trkpt lat="44.85384587492167" lon="9.619976664318154"><ele>240.0</ele><time>2026-05-01T12:18:58Z</time></trkpt><trkpt lat="44.853787821131085" lon="9.62008520347423"><ele>240.0</ele><time>2026-05-01T12:18:59Z</time></trkpt><trkpt lat="44.85376166977713" lon="9.620218235986755"><ele>240.0</ele><time>2026-05-01T12:19:00Z</time></trkpt><trkpt lat="44.853783558363546" lon="9.620368745189694"><ele>240.0</ele><time>2026-05-01T12:19:01Z</time></trkpt><trkpt lat="44.85379756455608" lon="9.620514523547223"><ele>240.0</ele><time>2026-05-01T12:19:02Z</time></trkpt><trkpt lat="44.85380775780709" lon="9.620667077306242"><ele>240.0</ele><time>2026-05-01T12:19:03Z</time></trkpt><trkpt lat="44.85381122453326" lon="9.620848185089901"><ele>238.4</ele><time>2026-05-01T12:19:04Z</time></trkpt><trkpt lat="44.85381763890961" lon="9.621023621879838"><ele>236.8</ele><time>2026-05-01T12:19:05Z</time></trkpt><trkpt lat="44.853818765165315" lon="9.62119016717142"><ele>235.2</ele><time>2026-05-01T12:19:06Z</time></trkpt><trkpt lat="44.85381624874562" lon="9.621345303678156"><ele>233.6</ele><time>2026-05-01T12:19:07Z</time></trkpt><trkpt lat="44.85378047573685" lon="9.621466846841741"><ele>232.0</ele><time>2026-05-01T12:19:08Z</time></trkpt><trkpt lat="44.853754888088154" lon="9.62157345467398"><ele>231.0</ele><time>2026-05-01T12:19:09Z</time></trkpt><trkpt lat="44.85366268721783" lon="9.621605443909926"><ele>230.0</ele><time>2026-05-01T12:19:10Z</time></trkpt><trkpt lat="44.8535683098626" lon="9.62164580189439"><ele>229.0</ele><time>2026-05-01T12:19:11Z</time></trkpt><trkpt lat="44.85345661802498" lon="9.621628066259902"><ele>228.0</ele><time>2026-05-01T12:19:12Z</time></trkpt><trkpt lat="44.8533557389637" lon="9.621578602020582"><ele>227.0</ele><time>2026-05-01T12:19:13Z</time></trkpt><trkpt lat="44.85327530109608" lon="9.6215264903194"><ele>227.00000000000003</ele><time>2026-05-01T12:19:14Z</time></trkpt><trkpt lat="44.85321231761377" lon="9.621482478636896"><ele>227.0</ele><time>2026-05-01T12:19:15Z</time></trkpt><trkpt lat="44.85314787222726" lon="9.62146362858851"><ele>227.0</ele><time>2026-05-01T12:19:17Z</time></trkpt><trkpt lat="44.85309448205419" lon="9.621610984984393"><ele>227.0</ele><time>2026-05-01T12:19:20Z</time></trkpt><trkpt lat="44.85308304177021" lon="9.621733124011076"><ele>227.00000000000003</ele><time>2026-05-01T12:19:23Z</time></trkpt><trkpt lat="44.853066690535194" lon="9.621858389267386"><ele>227.0</ele><time>2026-05-01T12:19:26Z</time></trkpt><trkpt lat="44.85305047475327" lon="9.621975352714744"><ele>225.8</ele><time>2026-05-01T12:19:28Z</time></trkpt><trkpt lat="44.85304538845233" lon="9.622131770281136"><ele>224.6</ele><time>2026-05-01T12:19:30Z</time></trkpt><trkpt lat="44.85302220889127" lon="9.622215277575563"><ele>223.40000000000003</ele><time>2026-05-01T12:19:31Z</time></trkpt><trkpt lat="44.85300434660523" lon="9.622338915056341"><ele>222.20000000000002</ele><time>2026-05-01T12:19:32Z</time></trkpt><trkpt lat="44.852992804082525" lon="9.622491725123227"><ele>221.0</ele><time>2026-05-01T12:19:33Z</time></trkpt><trkpt lat="44.85296750517806" lon="9.622652131408568"><ele>221.0</ele><time>2026-05-01T12:19:34Z</time></trkpt><trkpt lat="44.852949263254075" lon="9.622802243918455"><ele>221.00000000000003</ele><time>2026-05-01T12:19:35Z</time></trkpt><trkpt lat="44.852931533171024" lon="9.622951757717164"><ele>221.00000000000003</ele><time>2026-05-01T12:19:36Z</time></trkpt><trkpt lat="44.85290354905481" lon="9.623111273086915"><ele>221.0</ele><time>2026-05-01T12:19:37Z</time></trkpt><trkpt lat="44.85288160503936" lon="9.623270009791158"><ele>221.0</ele><time>2026-05-01T12:19:38Z</time></trkpt><trkpt lat="44.852856759014486" lon="9.623426794989694"><ele>221.4</ele><time>2026-05-01T12:19:39Z</time></trkpt><trkpt lat="44.85283405446371" lon="9.623571972354517"><ele>221.8</ele><time>2026-05-01T12:19:40Z</time></trkpt><trkpt lat="44.852816578246" lon="9.623697194756616"><ele>222.20000000000002</ele><time>2026-05-01T12:19:41Z</time></trkpt><trkpt lat="44.85280320236708" lon="9.623805372054662"><ele>222.60000000000002</ele><time>2026-05-01T12:19:42Z</time></trkpt><trkpt lat="44.85275979730373" lon="9.623913130859385"><ele>223.0</ele><time>2026-05-01T12:19:44Z</time></trkpt><trkpt lat="44.85289919708849" lon="9.62397397546673"><ele>223.4</ele><time>2026-05-01T12:19:47Z</time></trkpt><trkpt lat="44.85302477956911" lon="9.624050029224263"><ele>223.8</ele><time>2026-05-01T12:19:49Z</time></trkpt><trkpt lat="44.85310587516101" lon="9.624105115206966"><ele>224.2</ele><time>2026-05-01T12:19:50Z</time></trkpt><trkpt lat="44.85318355784318" lon="9.624157390803182"><ele>224.6</ele><time>2026-05-01T12:19:51Z</time></trkpt><trkpt lat="44.853273919975635" lon="9.624192668401284"><ele>225.0</ele><time>2026-05-01T12:19:52Z</time></trkpt><trkpt lat="44.85334900608143" lon="9.624268726477618"><ele>225.00000000000003</ele><time>2026-05-01T12:19:53Z</time></trkpt><trkpt lat="44.85341880647826" lon="9.624315697408107"><ele>225.0</ele><time>2026-05-01T12:19:54Z</time></trkpt><trkpt lat="44.85348330803421" lon="9.624359102579618"><ele>225.00000000000003</ele><time>2026-05-01T12:19:55Z</time></trkpt><trkpt lat="44.85357109511512" lon="9.624307063562242"><ele>225.00000000000003</ele><time>2026-05-01T12:19:56Z</time></trkpt><trkpt lat="44.85363518003556" lon="9.624268917901341"><ele>225.0</ele><time>2026-05-01T12:19:57Z</time></trkpt><trkpt lat="44.85369349527198" lon="9.62423034434425"><ele>225.00000000000003</ele><time>2026-05-01T12:19:58Z</time></trkpt><trkpt lat="44.85375887479918" lon="9.62425439925633"><ele>225.00000000000003</ele><time>2026-05-01T12:19:59Z</time></trkpt><trkpt lat="44.85382405660223" lon="9.6243363753921"><ele>224.8</ele><time>2026-05-01T12:20:00Z</time></trkpt><trkpt lat="44.85388447702417" lon="9.62442576959015"><ele>224.6</ele><time>2026-05-01T12:20:01Z</time></trkpt><trkpt lat="44.85396770047995" lon="9.624486593873893"><ele>224.39999999999998</ele><time>2026-05-01T12:20:02Z</time></trkpt><trkpt lat="44.85406196776153" lon="9.624537162693086"><ele>224.2</ele><time>2026-05-01T12:20:03Z</time></trkpt><trkpt lat="44.8541553147437" lon="9.624579464331298"><ele>224.0</ele><time>2026-05-01T12:20:04Z</time></trkpt><trkpt lat="44.85424946588798" lon="9.624641569537065"><ele>223.6</ele><time>2026-05-01T12:20:05Z</time></trkpt><trkpt lat="44.8543423965898" lon="9.624715336399705"><ele>223.2</ele><time>2026-05-01T12:20:06Z</time></trkpt><trkpt lat="44.85443578976447" lon="9.62479937064486"><ele>222.79999999999998</ele><time>2026-05-01T12:20:07Z</time></trkpt><trkpt lat="44.854528039943396" lon="9.624892015895403"><ele>222.39999999999998</ele><time>2026-05-01T12:20:08Z</time></trkpt><trkpt lat="44.854623743148906" lon="9.624984608393358"><ele>222.0</ele><time>2026-05-01T12:20:09Z</time></trkpt><trkpt lat="44.85471495894888" lon="9.62508420040018"><ele>222.0</ele><time>2026-05-01T12:20:10Z</time></trkpt><trkpt lat="44.85480063049711" lon="9.625174889138359"><ele>222.0</ele><time>2026-05-01T12:20:11Z</time></trkpt><trkpt lat="44.85487639768149" lon="9.625254370431374"><ele>222.0</ele><time>2026-05-01T12:20:12Z</time></trkpt><trkpt lat="44.8549424920827" lon="9.625329511563756"><ele>222.0</ele><time>2026-05-01T12:20:13Z</time></trkpt><trkpt lat="44.85500306971208" lon="9.625403480008973"><ele>222.0</ele><time>2026-05-01T12:20:14Z</time></trkpt><trkpt lat="44.85506176953813" lon="9.625460695935441"><ele>222.0</ele><time>2026-05-01T12:20:15.001Z</time></trkpt><trkpt lat="44.855119726640794" lon="9.625534118127465"><ele>221.85714285714286</ele><time>2026-05-01T12:20:16.001Z</time></trkpt><trkpt lat="44.855168356403965" lon="9.625603253654244"><ele>221.71428571428572</ele><time>2026-05-01T12:20:17.001Z</time></trkpt><trkpt lat="44.855221180235326" lon="9.625668706194261"><ele>221.57142857142858</ele><time>2026-05-01T12:20:18.001Z</time></trkpt><trkpt lat="44.855272999688665" lon="9.625734302977527"><ele>221.42857142857144</ele><time>2026-05-01T12:20:19.001Z</time></trkpt><trkpt lat="44.855326509746014" lon="9.625804781877564"><ele>221.28571428571428</ele><time>2026-05-01T12:20:20.001Z</time></trkpt><trkpt lat="44.85537468194624" lon="9.625876606924047"><ele>221.14285714285717</ele><time>2026-05-01T12:20:21.001Z</time></trkpt><trkpt lat="44.855419000917266" lon="9.625940737251256"><ele>221.0</ele><time>2026-05-01T12:20:22.001Z</time></trkpt><trkpt lat="44.8555058877471" lon="9.626048104219958"><ele>221.00000000000003</ele><time>2026-05-01T12:20:24.001Z</time></trkpt><trkpt lat="44.85561347868023" lon="9.626102611384104"><ele>221.0</ele><time>2026-05-01T12:20:26.001Z</time></trkpt><trkpt lat="44.855688092129" lon="9.626156798704624"><ele>221.0</ele><time>2026-05-01T12:20:28.001Z</time></trkpt><trkpt lat="44.8557350138966" lon="9.62621876752907"><ele>221.0</ele><time>2026-05-01T12:20:32.001Z</time></trkpt><trkpt lat="44.85580888140013" lon="9.626278515150734"><ele>221.00000000000003</ele><time>2026-05-01T12:21:13Z</time></trkpt><trkpt lat="44.85589751719554" lon="9.626304490004971"><ele>221.0</ele><time>2026-05-01T12:21:16Z</time></trkpt><trkpt lat="44.85597003437517" lon="9.626371703027079"><ele>221.00000000000003</ele><time>2026-05-01T12:21:19Z</time></trkpt><trkpt lat="44.85603426662607" lon="9.626417907511563"><ele>221.0</ele><time>2026-05-01T12:21:22Z</time></trkpt><trkpt lat="44.85608714898083" lon="9.626477282848333"><ele>221.0</ele><time>2026-05-01T12:21:26Z</time></trkpt><trkpt lat="44.85611903680904" lon="9.626558047263952"><ele>221.0</ele><time>2026-05-01T12:21:28Z</time></trkpt><trkpt lat="44.856106809296044" lon="9.626660672517513"><ele>221.0</ele><time>2026-05-01T12:21:31Z</time></trkpt><trkpt lat="44.856117599032984" lon="9.626776719112428"><ele>221.00000000000003</ele><time>2026-05-01T12:21:42Z</time></trkpt><trkpt lat="44.85615624074659" lon="9.62687582631785"><ele>221.0</ele><time>2026-05-01T12:21:45Z</time></trkpt><trkpt lat="44.85619958558564" lon="9.626947899817695"><ele>221.60000000000002</ele><time>2026-05-01T12:21:58Z</time></trkpt><trkpt lat="44.8562664449447" lon="9.627009053028138"><ele>222.20000000000002</ele><time>2026-05-01T12:22:22Z</time></trkpt><trkpt lat="44.856361190463296" lon="9.627100716331094"><ele>222.79999999999998</ele><time>2026-05-01T12:22:24Z</time></trkpt><trkpt lat="44.85644315204828" lon="9.62719812585811"><ele>223.39999999999998</ele><time>2026-05-01T12:22:26Z</time></trkpt><trkpt lat="44.85652400505609" lon="9.62730112379063"><ele>224.0</ele><time>2026-05-01T12:22:28Z</time></trkpt><trkpt lat="44.85660790498019" lon="9.627387747763727"><ele>224.00000000000003</ele><time>2026-05-01T12:22:30.001Z</time></trkpt><trkpt lat="44.856691761901175" lon="9.627455119802958"><ele>224.0</ele><time>2026-05-01T12:22:32.001Z</time></trkpt><trkpt lat="44.856748850701116" lon="9.627543386903879"><ele>224.0</ele><time>2026-05-01T12:22:34.001Z</time></trkpt><trkpt lat="44.85678948526316" lon="9.627643129414022"><ele>224.0</ele><time>2026-05-01T12:22:45.999Z</time></trkpt><trkpt lat="44.856782555231575" lon="9.627735473397316"><ele>224.00000000000003</ele><time>2026-05-01T12:22:47.999Z</time></trkpt><trkpt lat="44.856769151384675" lon="9.627830876512414"><ele>224.0</ele><time>2026-05-01T12:22:49.999Z</time></trkpt><trkpt lat="44.8567730874771" lon="9.627951415007612"><ele>225.16666666666669</ele><time>2026-05-01T12:22:52.999Z</time></trkpt><trkpt lat="44.85683242462554" lon="9.62803372173959"><ele>226.33333333333334</ele><time>2026-05-01T12:22:55.999Z</time></trkpt><trkpt lat="44.85687642630587" lon="9.62813390501785"><ele>227.5</ele><time>2026-05-01T12:22:58.999Z</time></trkpt><trkpt lat="44.856935742420454" lon="9.628229270397629"><ele>228.66666666666669</ele><time>2026-05-01T12:23:02Z</time></trkpt><trkpt lat="44.856978850746486" lon="9.62831977162243"><ele>229.83333333333334</ele><time>2026-05-01T12:23:04Z</time></trkpt><trkpt lat="44.857025247646675" lon="9.628433466413929"><ele>231.0</ele><time>2026-05-01T12:23:06Z</time></trkpt><trkpt lat="44.857071009315206" lon="9.628552030733365"><ele>231.33333333333334</ele><time>2026-05-01T12:23:08Z</time></trkpt><trkpt lat="44.85711456456824" lon="9.628670281930052"><ele>231.66666666666669</ele><time>2026-05-01T12:23:10Z</time></trkpt><trkpt lat="44.85715409485671" lon="9.628789407534533"><ele>232.0</ele><time>2026-05-01T12:23:12Z</time></trkpt><trkpt lat="44.85720087562982" lon="9.62890565672798"><ele>232.33333333333334</ele><time>2026-05-01T12:23:14Z</time></trkpt><trkpt lat="44.85722818066613" lon="9.628995532602382"><ele>232.66666666666669</ele><time>2026-05-01T12:23:16Z</time></trkpt><trkpt lat="44.857240804170935" lon="9.629092538338698"><ele>233.0</ele><time>2026-05-01T12:23:19Z</time></trkpt><trkpt lat="44.857337809825324" lon="9.629072562808666"><ele>233.00000000000003</ele><time>2026-05-01T12:23:20Z</time></trkpt><trkpt lat="44.857401998073705" lon="9.62906058466494"><ele>233.0</ele><time>2026-05-01T12:23:21Z</time></trkpt><trkpt lat="44.85746829314565" lon="9.629043637107033"><ele>233.0</ele><time>2026-05-01T12:23:22Z</time></trkpt><trkpt lat="44.857550360418784" lon="9.629047520225472"><ele>233.0</ele><time>2026-05-01T12:23:23Z</time></trkpt><trkpt lat="44.8576416598217" lon="9.629046977345585"><ele>233.00000000000003</ele><time>2026-05-01T12:23:24Z</time></trkpt><trkpt lat="44.85774288366875" lon="9.629046229907454"><ele>233.0</ele><time>2026-05-01T12:23:25Z</time></trkpt><trkpt lat="44.85784171581725" lon="9.62906282859782"><ele>232.0</ele><time>2026-05-01T12:23:26Z</time></trkpt><trkpt lat="44.85793962576529" lon="9.629100246102276"><ele>231.0</ele><time>2026-05-01T12:23:27Z</time></trkpt><trkpt lat="44.858047596857965" lon="9.629158974497102"><ele>230.0</ele><time>2026-05-01T12:23:28Z</time></trkpt><trkpt lat="44.85815707213718" lon="9.629257581778445"><ele>229.0</ele><time>2026-05-01T12:23:29Z</time></trkpt><trkpt lat="44.85828355267227" lon="9.6293402465886"><ele>229.0</ele><time>2026-05-01T12:23:30Z</time></trkpt><trkpt lat="44.85842757787055" lon="9.629403669018188"><ele>229.0</ele><time>2026-05-01T12:23:31Z</time></trkpt><trkpt lat="44.85857094505783" lon="9.629505300052665"><ele>229.0</ele><time>2026-05-01T12:23:32Z</time></trkpt><trkpt lat="44.85871984922916" lon="9.62959042971758"><ele>227.33333333333331</ele><time>2026-05-01T12:23:33Z</time></trkpt><trkpt lat="44.858870457373804" lon="9.62968539342573"><ele>225.66666666666669</ele><time>2026-05-01T12:23:34Z</time></trkpt><trkpt lat="44.85902438064075" lon="9.629782008837484"><ele>224.0</ele><time>2026-05-01T12:23:35Z</time></trkpt><trkpt lat="44.85918036864699" lon="9.629873135912042"><ele>223.5</ele><time>2026-05-01T12:23:36Z</time></trkpt><trkpt lat="44.85931832578624" lon="9.629982281276938"><ele>223.0</ele><time>2026-05-01T12:23:37Z</time></trkpt><trkpt lat="44.85945773653827" lon="9.630041405760494"><ele>222.5</ele><time>2026-05-01T12:23:38Z</time></trkpt><trkpt lat="44.859583019701276" lon="9.63011938565453"><ele>222.0</ele><time>2026-05-01T12:23:39Z</time></trkpt><trkpt lat="44.85970945537545" lon="9.630198434989557"><ele>222.0</ele><time>2026-05-01T12:23:40Z</time></trkpt><trkpt lat="44.859836025668436" lon="9.630284810320072"><ele>222.0</ele><time>2026-05-01T12:23:41Z</time></trkpt><trkpt lat="44.85995810509246" lon="9.630384075192945"><ele>222.0</ele><time>2026-05-01T12:23:42Z</time></trkpt><trkpt lat="44.860075335685835" lon="9.630503569586145"><ele>222.0</ele><time>2026-05-01T12:23:43Z</time></trkpt><trkpt lat="44.86017685852041" lon="9.630643659781544"><ele>221.33333333333331</ele><time>2026-05-01T12:23:44Z</time></trkpt><trkpt lat="44.860268358363015" lon="9.630800015624995"><ele>220.66666666666666</ele><time>2026-05-01T12:23:45Z</time></trkpt><trkpt lat="44.86038683529933" lon="9.630934497453756"><ele>220.0</ele><time>2026-05-01T12:23:46Z</time></trkpt><trkpt lat="44.860394859043524" lon="9.631172399549175"><ele>220.0</ele><time>2026-05-01T12:23:47Z</time></trkpt><trkpt lat="44.860472422266774" lon="9.6313576060976"><ele>220.0</ele><time>2026-05-01T12:23:48Z</time></trkpt><trkpt lat="44.860530609847984" lon="9.631560374627856"><ele>220.0</ele><time>2026-05-01T12:23:49Z</time></trkpt><trkpt lat="44.860595513784254" lon="9.63176007534243"><ele>220.0</ele><time>2026-05-01T12:23:50Z</time></trkpt><trkpt lat="44.86066617879872" lon="9.631956512516402"><ele>220.0</ele><time>2026-05-01T12:23:51Z</time></trkpt><trkpt lat="44.860736487790916" lon="9.632144817855089"><ele>220.0</ele><time>2026-05-01T12:23:52Z</time></trkpt><trkpt lat="44.86081634135599" lon="9.632323026043908"><ele>220.0</ele><time>2026-05-01T12:23:53Z</time></trkpt><trkpt lat="44.860899765105636" lon="9.632492782108317"><ele>220.0</ele><time>2026-05-01T12:23:54Z</time></trkpt><trkpt lat="44.86098025816167" lon="9.63265150338755"><ele>220.0</ele><time>2026-05-01T12:23:55Z</time></trkpt><trkpt lat="44.8610530810558" lon="9.632801867894162"><ele>220.0</ele><time>2026-05-01T12:23:56Z</time></trkpt><trkpt lat="44.86112033156392" lon="9.63294655550451"><ele>220.0</ele><time>2026-05-01T12:23:57Z</time></trkpt><trkpt lat="44.861179855809254" lon="9.633081427907385"><ele>220.0</ele><time>2026-05-01T12:23:58Z</time></trkpt><trkpt lat="44.861232752880845" lon="9.633198517404956"><ele>220.0</ele><time>2026-05-01T12:23:59Z</time></trkpt><trkpt lat="44.861264291862646" lon="9.633298475607711"><ele>220.0</ele><time>2026-05-01T12:24:00Z</time></trkpt><trkpt lat="44.861264807081305" lon="9.633438975845051"><ele>220.0</ele><time>2026-05-01T12:24:02Z</time></trkpt><trkpt lat="44.86128766384874" lon="9.633569530097029"><ele>220.2</ele><time>2026-05-01T12:24:04Z</time></trkpt><trkpt lat="44.86130231962705" lon="9.633658452307149"><ele>220.4</ele><time>2026-05-01T12:24:05Z</time></trkpt><trkpt lat="44.86138737757968" lon="9.633737537321622"><ele>220.60000000000002</ele><time>2026-05-01T12:24:06Z</time></trkpt><trkpt lat="44.86145189521528" lon="9.633835087027627"><ele>220.8</ele><time>2026-05-01T12:24:07Z</time></trkpt><trkpt lat="44.861516937638825" lon="9.633940653254141"><ele>221.0</ele><time>2026-05-01T12:24:08Z</time></trkpt><trkpt lat="44.861583357362726" lon="9.634050706652413"><ele>221.0</ele><time>2026-05-01T12:24:09Z</time></trkpt><trkpt lat="44.86165078449955" lon="9.63417595285354"><ele>221.0</ele><time>2026-05-01T12:24:10Z</time></trkpt><trkpt lat="44.861719425959706" lon="9.634311155753958"><ele>221.0</ele><time>2026-05-01T12:24:11Z</time></trkpt><trkpt lat="44.86179008124267" lon="9.634451572456538"><ele>221.0</ele><time>2026-05-01T12:24:12Z</time></trkpt><trkpt lat="44.86185641300177" lon="9.634598697674967"><ele>219.75</ele><time>2026-05-01T12:24:13Z</time></trkpt><trkpt lat="44.861921884489185" lon="9.634749119958041"><ele>218.5</ele><time>2026-05-01T12:24:14Z</time></trkpt><trkpt lat="44.86199050050299" lon="9.63490826093776"><ele>217.25</ele><time>2026-05-01T12:24:15Z</time></trkpt><trkpt lat="44.86206241135689" lon="9.635073344906939"><ele>216.0</ele><time>2026-05-01T12:24:16Z</time></trkpt><trkpt lat="44.86213814677354" lon="9.635240887187198"><ele>217.0</ele><time>2026-05-01T12:24:17Z</time></trkpt><trkpt lat="44.86221494238177" lon="9.635409209001878"><ele>218.0</ele><time>2026-05-01T12:24:18Z</time></trkpt><trkpt lat="44.8622880699073" lon="9.635578545038364"><ele>219.0</ele><time>2026-05-01T12:24:19Z</time></trkpt><trkpt lat="44.86236067407054" lon="9.63574704663812"><ele>220.0</ele><time>2026-05-01T12:24:20Z</time></trkpt><trkpt lat="44.862435308883775" lon="9.635914485686497"><ele>220.0</ele><time>2026-05-01T12:24:21Z</time></trkpt><trkpt lat="44.862514892233364" lon="9.636079021245207"><ele>220.0</ele><time>2026-05-01T12:24:22Z</time></trkpt><trkpt lat="44.862599631488344" lon="9.636238243567785"><ele>220.0</ele><time>2026-05-01T12:24:23Z</time></trkpt><trkpt lat="44.86269574040597" lon="9.636386680650952"><ele>220.0</ele><time>2026-05-01T12:24:24Z</time></trkpt><trkpt lat="44.862803472255386" lon="9.636522676894717"><ele>219.75</ele><time>2026-05-01T12:24:25Z</time></trkpt><trkpt lat="44.86291770025889" lon="9.636654332519642"><ele>219.5</ele><time>2026-05-01T12:24:26Z</time></trkpt><trkpt lat="44.8630325764666" lon="9.636783898913778"><ele>219.25</ele><time>2026-05-01T12:24:27Z</time></trkpt><trkpt lat="44.86314916978988" lon="9.636912767323802"><ele>219.0</ele><time>2026-05-01T12:24:28Z</time></trkpt><trkpt lat="44.863264319423784" lon="9.637047966197397"><ele>219.0</ele><time>2026-05-01T12:24:29Z</time></trkpt><trkpt lat="44.86338040251905" lon="9.637184191338724"><ele>219.0</ele><time>2026-05-01T12:24:30Z</time></trkpt><trkpt lat="44.863497451598704" lon="9.637320761504274"><ele>219.0</ele><time>2026-05-01T12:24:31Z</time></trkpt><trkpt lat="44.86361531105752" lon="9.637460183395334"><ele>218.0</ele><time>2026-05-01T12:24:32Z</time></trkpt><trkpt lat="44.86373380957394" lon="9.637599531147867"><ele>217.0</ele><time>2026-05-01T12:24:33Z</time></trkpt><trkpt lat="44.86385012461788" lon="9.637735482141181"><ele>216.0</ele><time>2026-05-01T12:24:34Z</time></trkpt><trkpt lat="44.86396618066931" lon="9.63787174448553"><ele>216.0</ele><time>2026-05-01T12:24:35Z</time></trkpt><trkpt lat="44.86408192930193" lon="9.638010390758787"><ele>216.0</ele><time>2026-05-01T12:24:36Z</time></trkpt><trkpt lat="44.86419556128025" lon="9.638152843916632"><ele>216.0</ele><time>2026-05-01T12:24:37Z</time></trkpt><trkpt lat="44.86430514728314" lon="9.638298339125251"><ele>215.75</ele><time>2026-05-01T12:24:38Z</time></trkpt><trkpt lat="44.86441233835233" lon="9.638442033581653"><ele>215.5</ele><time>2026-05-01T12:24:39.001Z</time></trkpt><trkpt lat="44.86451672794262" lon="9.638586819962603"><ele>215.25</ele><time>2026-05-01T12:24:40.001Z</time></trkpt><trkpt lat="44.86461928491739" lon="9.638734155745556"><ele>215.0</ele><time>2026-05-01T12:24:41.001Z</time></trkpt><trkpt lat="44.86472181152983" lon="9.638886778977891"><ele>215.0</ele><time>2026-05-01T12:24:42.001Z</time></trkpt><trkpt lat="44.86482257320859" lon="9.63904056979377"><ele>215.0</ele><time>2026-05-01T12:24:43.001Z</time></trkpt><trkpt lat="44.86492533420404" lon="9.639194717705376"><ele>215.0</ele><time>2026-05-01T12:24:44.001Z</time></trkpt><trkpt lat="44.86502964793906" lon="9.639348931761473"><ele>215.25</ele><time>2026-05-01T12:24:45.001Z</time></trkpt><trkpt lat="44.86513306710348" lon="9.639501519816442"><ele>215.5</ele><time>2026-05-01T12:24:46.001Z</time></trkpt><trkpt lat="44.86523620022047" lon="9.639654683127878"><ele>215.75</ele><time>2026-05-01T12:24:47.001Z</time></trkpt><trkpt lat="44.865334689453064" lon="9.639804852973672"><ele>216.0</ele><time>2026-05-01T12:24:48.001Z</time></trkpt><trkpt lat="44.86542629178304" lon="9.639945448848877"><ele>216.0</ele><time>2026-05-01T12:24:49.001Z</time></trkpt><trkpt lat="44.865510674765545" lon="9.64007779921779"><ele>216.0</ele><time>2026-05-01T12:24:49.999Z</time></trkpt><trkpt lat="44.86559162560458" lon="9.640201268293335"><ele>216.0</ele><time>2026-05-01T12:24:50.999Z</time></trkpt><trkpt lat="44.865669698653626" lon="9.640315018676084"><ele>216.0</ele><time>2026-05-01T12:24:51.999Z</time></trkpt><trkpt lat="44.86574174472361" lon="9.640422813489856"><ele>216.0</ele><time>2026-05-01T12:24:52.999Z</time></trkpt><trkpt lat="44.86580846475231" lon="9.640527023820683"><ele>216.00000000000003</ele><time>2026-05-01T12:24:53.999Z</time></trkpt><trkpt lat="44.865869537330155" lon="9.640622551026414"><ele>216.00000000000003</ele><time>2026-05-01T12:24:54.999Z</time></trkpt><trkpt lat="44.865928975423564" lon="9.640711776828303"><ele>216.0</ele><time>2026-05-01T12:24:55.999Z</time></trkpt><trkpt lat="44.86599585102417" lon="9.640811071593461"><ele>216.0</ele><time>2026-05-01T12:24:56.999Z</time></trkpt><trkpt lat="44.8660651622193" lon="9.64091870772345"><ele>216.0</ele><time>2026-05-01T12:24:57.999Z</time></trkpt><trkpt lat="44.866135218318234" lon="9.641028998700039"><ele>216.00000000000003</ele><time>2026-05-01T12:24:58.999Z</time></trkpt><trkpt lat="44.86621181897316" lon="9.64113785761185"><ele>216.00000000000003</ele><time>2026-05-01T12:24:59.999Z</time></trkpt><trkpt lat="44.86628984358794" lon="9.641245570565665"><ele>216.0</ele><time>2026-05-01T12:25:00.999Z</time></trkpt><trkpt lat="44.866369630288446" lon="9.641354095841262"><ele>216.0</ele><time>2026-05-01T12:25:01.999Z</time></trkpt><trkpt lat="44.86645005258498" lon="9.64145970594182"><ele>216.0</ele><time>2026-05-01T12:25:02.999Z</time></trkpt><trkpt lat="44.86651496814839" lon="9.641582980538352"><ele>216.0</ele><time>2026-05-01T12:25:03.999Z</time></trkpt><trkpt lat="44.86658494893799" lon="9.641688636606927"><ele>216.0</ele><time>2026-05-01T12:25:04.999Z</time></trkpt><trkpt lat="44.8666631679705" lon="9.641756566959566"><ele>216.0</ele><time>2026-05-01T12:25:05.999Z</time></trkpt><trkpt lat="44.86671547855027" lon="9.64183868955955"><ele>216.0</ele><time>2026-05-01T12:25:07Z</time></trkpt><trkpt lat="44.86676272694494" lon="9.64190350774462"><ele>216.0</ele><time>2026-05-01T12:25:08Z</time></trkpt><trkpt lat="44.86682220186753" lon="9.641993661395176"><ele>216.0</ele><time>2026-05-01T12:25:10Z</time></trkpt><trkpt lat="44.86688901899892" lon="9.64203036549189"><ele>216.00000000000003</ele><time>2026-05-01T12:25:13Z</time></trkpt><trkpt lat="44.86679806785742" lon="9.641881023646702"><ele>216.00000000000003</ele><time>2026-05-01T12:25:16Z</time></trkpt><trkpt lat="44.8667217107353" lon="9.641817012306914"><ele>216.0</ele><time>2026-05-01T12:25:17Z</time></trkpt><trkpt lat="44.8666524607353" lon="9.641694253723987"><ele>216.0</ele><time>2026-05-01T12:25:19Z</time></trkpt><trkpt lat="44.866601590729125" lon="9.641630407821035"><ele>216.0</ele><time>2026-05-01T12:25:20Z</time></trkpt><trkpt lat="44.866568588710905" lon="9.641535360969689"><ele>216.00000000000003</ele><time>2026-05-01T12:25:22Z</time></trkpt><trkpt lat="44.86663029382726" lon="9.64149538175133"><ele>216.00000000000003</ele><time>2026-05-01T12:25:24Z</time></trkpt><trkpt lat="44.866698879917" lon="9.641545960268834"><ele>216.0</ele><time>2026-05-01T12:25:27Z</time></trkpt><trkpt lat="44.86654456591906" lon="9.641534979011613"><ele>216.0</ele><time>2026-05-01T12:28:26.001Z</time></trkpt><trkpt lat="44.86649805784684" lon="9.641446811349873"><ele>216.0</ele><time>2026-05-01T12:28:30.001Z</time></trkpt><trkpt lat="44.8664607087212" lon="9.641364231719434"><ele>216.0</ele><time>2026-05-01T12:30:40.001Z</time></trkpt><trkpt lat="44.86640557430292" lon="9.641321059962658"><ele>216.0</ele><time>2026-05-01T12:30:51.001Z</time></trkpt><trkpt lat="44.866365363817344" lon="9.641210482099464"><ele>216.0</ele><time>2026-05-01T12:31:06.001Z</time></trkpt></trkseg><trkseg><trkpt lat="44.632205010972484" lon="9.73087256134865"><ele>612.0</ele><time>2026-05-01T14:08:48Z</time></trkpt><trkpt lat="44.632142887762065" lon="9.730888765960282"><ele>612.0</ele><time>2026-05-01T14:08:50Z</time></trkpt><trkpt lat="44.632086286481346" lon="9.730931920060828"><ele>612.0</ele><time>2026-05-01T14:08:53Z</time></trkpt><trkpt lat="44.63204722613391" lon="9.731020247863492"><ele>612.0</ele><time>2026-05-01T14:08:54Z</time></trkpt><trkpt lat="44.63202829976916" lon="9.731110684988272"><ele>612.0</ele><time>2026-05-01T14:08:55Z</time></trkpt><trkpt lat="44.63200420262934" lon="9.731201458238543"><ele>612.0</ele><time>2026-05-01T14:08:57Z</time></trkpt><trkpt lat="44.63196764650369" lon="9.731284726524702"><ele>612.0</ele><time>2026-05-01T14:12:10Z</time></trkpt><trkpt lat="44.631833925947504" lon="9.731279151341216"><ele>612.0</ele><time>2026-05-01T14:12:26Z</time></trkpt><trkpt lat="44.63212324930521" lon="9.731049816379503"><ele>612.0</ele><time>2026-05-01T14:15:15.072Z</time></trkpt><trkpt lat="44.631909369960375" lon="9.731078773082906"><ele>611.25</ele><time>2026-05-01T14:15:18.077Z</time></trkpt><trkpt lat="44.631894080402255" lon="9.731269317729867"><ele>610.5</ele><time>2026-05-01T14:15:19.078Z</time></trkpt><trkpt lat="44.6318203476394" lon="9.731274041708568"><ele>609.75</ele><time>2026-05-01T14:15:20.077Z</time></trkpt><trkpt lat="44.63197648321202" lon="9.731268950339276"><ele>609.0</ele><time>2026-05-01T14:18:09.421Z</time></trkpt><trkpt lat="44.63186022061191" lon="9.731320232008729"><ele>608.2857142857143</ele><time>2026-05-01T14:18:14Z</time></trkpt><trkpt lat="44.63192354749202" lon="9.731269608534362"><ele>607.5714285714286</ele><time>2026-05-01T14:18:26Z</time></trkpt><trkpt lat="44.631869130248866" lon="9.731207160784093"><ele>606.8571428571429</ele><time>2026-05-01T14:21:08Z</time></trkpt><trkpt lat="44.63180508940841" lon="9.73114746067602"><ele>606.1428571428571</ele><time>2026-05-01T14:21:14Z</time></trkpt><trkpt lat="44.63172958360616" lon="9.731147201429721"><ele>605.4285714285714</ele><time>2026-05-01T14:21:19Z</time></trkpt><trkpt lat="44.63166600203647" lon="9.731133513396902"><ele>604.7142857142858</ele><time>2026-05-01T14:21:24Z</time></trkpt><trkpt lat="44.63160390148703" lon="9.731100721976274"><ele>604.0</ele><time>2026-05-01T14:21:29Z</time></trkpt><trkpt lat="44.63153584825675" lon="9.73110289479008"><ele>604.0000000000001</ele><time>2026-05-01T14:21:34Z</time></trkpt><trkpt lat="44.631472353996415" lon="9.731070754087003"><ele>604.0</ele><time>2026-05-01T14:21:39Z</time></trkpt><trkpt lat="44.63140399564463" lon="9.731061989350478"><ele>604.0</ele><time>2026-05-01T14:21:45Z</time></trkpt><trkpt lat="44.63134273227704" lon="9.731037714784527"><ele>604.0</ele><time>2026-05-01T14:21:51Z</time></trkpt><trkpt lat="44.63126893848937" lon="9.73102684145299"><ele>604.0</ele><time>2026-05-01T14:21:56Z</time></trkpt><trkpt lat="44.631202655135425" lon="9.73105819584148"><ele>604.0000000000001</ele><time>2026-05-01T14:22:09Z</time></trkpt><trkpt lat="44.63128537687233" lon="9.731068357464444"><ele>604.0</ele><time>2026-05-01T14:44:00Z</time></trkpt><trkpt lat="44.63135490626538" lon="9.731097422551027"><ele>604.0000000000001</ele><time>2026-05-01T14:44:02Z</time></trkpt><trkpt lat="44.63142185594779" lon="9.73110167090336"><ele>604.0</ele><time>2026-05-01T14:44:09.002Z</time></trkpt><trkpt lat="44.63148654566043" lon="9.731097674427465"><ele>604.0</ele><time>2026-05-01T14:44:16.001Z</time></trkpt><trkpt lat="44.631554043665105" lon="9.731120454886776"><ele>604.0</ele><time>2026-05-01T14:44:23.001Z</time></trkpt><trkpt lat="44.631619470076615" lon="9.73114726574902"><ele>604.0</ele><time>2026-05-01T14:44:29Z</time></trkpt><trkpt lat="44.63168688656967" lon="9.731196132940875"><ele>604.0000000000001</ele><time>2026-05-01T14:44:35Z</time></trkpt><trkpt lat="44.63175649232956" lon="9.731195235307368"><ele>604.0</ele><time>2026-05-01T14:44:40Z</time></trkpt><trkpt lat="44.63182109742399" lon="9.731203457834434"><ele>604.0000000000001</ele><time>2026-05-01T14:44:45Z</time></trkpt><trkpt lat="44.631881639452466" lon="9.731228658324646"><ele>604.0</ele><time>2026-05-01T14:44:49Z</time></trkpt><trkpt lat="44.63194773886509" lon="9.731223755486585"><ele>604.0</ele><time>2026-05-01T14:44:55Z</time></trkpt><trkpt lat="44.63201096188933" lon="9.731216000444531"><ele>604.0</ele><time>2026-05-01T14:46:57Z</time></trkpt><trkpt lat="44.6320798151675" lon="9.731259095986509"><ele>604.0</ele><time>2026-05-01T14:47:04Z</time></trkpt><trkpt lat="44.63214426236566" lon="9.7312589279094"><ele>604.0000000000001</ele><time>2026-05-01T14:47:11Z</time></trkpt><trkpt lat="44.63207467228532" lon="9.731255199734358"><ele>604.0</ele><time>2026-05-01T14:47:20Z</time></trkpt><trkpt lat="44.63200847742113" lon="9.731246282649934"><ele>604.8333333333334</ele><time>2026-05-01T14:47:28Z</time></trkpt><trkpt lat="44.6320338954513" lon="9.731337047510126"><ele>605.6666666666667</ele><time>2026-05-01T14:51:21Z</time></trkpt><trkpt lat="44.6320814886538" lon="9.73122670109835"><ele>606.5</ele><time>2026-05-01T14:51:23Z</time></trkpt><trkpt lat="44.632065941976585" lon="9.731085132721724"><ele>607.3333333333334</ele><time>2026-05-01T14:51:25Z</time></trkpt><trkpt lat="44.63208561453737" lon="9.730969657416468"><ele>608.1666666666666</ele><time>2026-05-01T14:51:26Z</time></trkpt><trkpt lat="44.632123023362034" lon="9.73085022264842"><ele>609.0</ele><time>2026-05-01T14:51:27Z</time></trkpt><trkpt lat="44.632168677208966" lon="9.730739448369864"><ele>609.5</ele><time>2026-05-01T14:51:29Z</time></trkpt><trkpt lat="44.63220724609312" lon="9.730632356098555"><ele>610.0</ele><time>2026-05-01T14:51:32Z</time></trkpt><trkpt lat="44.63219410395042" lon="9.730522917954373"><ele>610.5</ele><time>2026-05-01T14:51:33Z</time></trkpt><trkpt lat="44.63216196739033" lon="9.730419740421075"><ele>611.0</ele><time>2026-05-01T14:51:34Z</time></trkpt><trkpt lat="44.63212766770467" lon="9.730323433466339"><ele>611.5</ele><time>2026-05-01T14:51:35Z</time></trkpt><trkpt lat="44.632095557644924" lon="9.730230919499308"><ele>612.0</ele><time>2026-05-01T14:51:36Z</time></trkpt><trkpt lat="44.63205863754672" lon="9.730136649082475"><ele>612.5714285714286</ele><time>2026-05-01T14:51:37Z</time></trkpt><trkpt lat="44.63201676770114" lon="9.730057086751811"><ele>613.1428571428571</ele><time>2026-05-01T14:51:38Z</time></trkpt><trkpt lat="44.631970394508286" lon="9.729984386026455"><ele>613.7142857142858</ele><time>2026-05-01T14:51:39Z</time></trkpt><trkpt lat="44.63193277959799" lon="9.72991088222031"><ele>614.2857142857142</ele><time>2026-05-01T14:51:40Z</time></trkpt><trkpt lat="44.63188491342117" lon="9.729834297812287"><ele>614.8571428571429</ele><time>2026-05-01T14:51:41Z</time></trkpt><trkpt lat="44.63183356384374" lon="9.729757005842604"><ele>615.4285714285714</ele><time>2026-05-01T14:51:42Z</time></trkpt><trkpt lat="44.63178185629369" lon="9.729668552262147"><ele>616.0</ele><time>2026-05-01T14:51:43Z</time></trkpt><trkpt lat="44.63172752503647" lon="9.729580786144643"><ele>615.0</ele><time>2026-05-01T14:51:44Z</time></trkpt><trkpt lat="44.631674469397794" lon="9.72950150707473"><ele>614.0</ele><time>2026-05-01T14:51:45Z</time></trkpt><trkpt lat="44.63162059053065" lon="9.729431688301942"><ele>613.0</ele><time>2026-05-01T14:51:46Z</time></trkpt><trkpt lat="44.631550759229256" lon="9.729386373595798"><ele>612.0</ele><time>2026-05-01T14:51:47Z</time></trkpt><trkpt lat="44.6314733121395" lon="9.72935872566911"><ele>611.0</ele><time>2026-05-01T14:51:48Z</time></trkpt><trkpt lat="44.631398123202466" lon="9.729328756731162"><ele>610.0</ele><time>2026-05-01T14:51:49Z</time></trkpt><trkpt lat="44.63132190341404" lon="9.729300932120886"><ele>610.0</ele><time>2026-05-01T14:51:50Z</time></trkpt><trkpt lat="44.63124459758639" lon="9.729279116612846"><ele>610.0</ele><time>2026-05-01T14:51:51Z</time></trkpt><trkpt lat="44.63116785196542" lon="9.729251168135786"><ele>610.0</ele><time>2026-05-01T14:51:52Z</time></trkpt><trkpt lat="44.63109715352463" lon="9.729197446843914"><ele>610.0</ele><time>2026-05-01T14:51:53Z</time></trkpt><trkpt lat="44.63103954414384" lon="9.729106759964843"><ele>610.0</ele><time>2026-05-01T14:51:54Z</time></trkpt><trkpt lat="44.630994402588435" lon="9.728998828106217"><ele>610.0</ele><time>2026-05-01T14:51:55Z</time></trkpt><trkpt lat="44.63095357926685" lon="9.728888632300595"><ele>608.0</ele><time>2026-05-01T14:51:56Z</time></trkpt><trkpt lat="44.63090443927737" lon="9.728773159066199"><ele>606.0</ele><time>2026-05-01T14:51:57Z</time></trkpt><trkpt lat="44.63085016421578" lon="9.728656398155143"><ele>604.0</ele><time>2026-05-01T14:51:58Z</time></trkpt><trkpt lat="44.63079777474146" lon="9.728548792694856"><ele>602.0</ele><time>2026-05-01T14:51:59Z</time></trkpt><trkpt lat="44.63075063341346" lon="9.72844887599633"><ele>600.0</ele><time>2026-05-01T14:52:00Z</time></trkpt><trkpt lat="44.630710133209114" lon="9.728342220414396"><ele>600.0</ele><time>2026-05-01T14:52:01Z</time></trkpt><trkpt lat="44.63068588387905" lon="9.728225604606347"><ele>600.0</ele><time>2026-05-01T14:52:02Z</time></trkpt><trkpt lat="44.63068465763962" lon="9.728108934499085"><ele>600.0</ele><time>2026-05-01T14:52:03Z</time></trkpt><trkpt lat="44.630700582103486" lon="9.72799127957667"><ele>600.0</ele><time>2026-05-01T14:52:04Z</time></trkpt><trkpt lat="44.63071010831678" lon="9.727864398705774"><ele>600.0</ele><time>2026-05-01T14:52:05Z</time></trkpt><trkpt lat="44.63069287056753" lon="9.727724704506379"><ele>600.0</ele><time>2026-05-01T14:52:06Z</time></trkpt><trkpt lat="44.6306624349282" lon="9.727583191024372"><ele>600.75</ele><time>2026-05-01T14:52:07Z</time></trkpt><trkpt lat="44.630623195718584" lon="9.727439083563612"><ele>601.5</ele><time>2026-05-01T14:52:08Z</time></trkpt><trkpt lat="44.63058116400656" lon="9.727284911230434"><ele>602.25</ele><time>2026-05-01T14:52:09Z</time></trkpt><trkpt lat="44.63053625408087" lon="9.727127696042318"><ele>603.0</ele><time>2026-05-01T14:52:10Z</time></trkpt><trkpt lat="44.63050437159042" lon="9.726976850300293"><ele>603.4</ele><time>2026-05-01T14:52:11Z</time></trkpt><trkpt lat="44.630503382956384" lon="9.726830205728255"><ele>603.8</ele><time>2026-05-01T14:52:12Z</time></trkpt><trkpt lat="44.63049234349879" lon="9.726701302810822"><ele>604.2</ele><time>2026-05-01T14:52:13Z</time></trkpt><trkpt lat="44.630440305239034" lon="9.726584944185268"><ele>604.6</ele><time>2026-05-01T14:52:14Z</time></trkpt><trkpt lat="44.63035529175438" lon="9.726487421043466"><ele>605.0</ele><time>2026-05-01T14:52:15Z</time></trkpt><trkpt lat="44.63025168013023" lon="9.7264233607248"><ele>599.25</ele><time>2026-05-01T14:52:16Z</time></trkpt><trkpt lat="44.63013385555824" lon="9.72638830523508"><ele>593.5</ele><time>2026-05-01T14:52:17Z</time></trkpt><trkpt lat="44.63001248632834" lon="9.72636109436207"><ele>587.75</ele><time>2026-05-01T14:52:18Z</time></trkpt><trkpt lat="44.629897229255896" lon="9.726307946125315"><ele>582.0</ele><time>2026-05-01T14:52:19Z</time></trkpt><trkpt lat="44.629790310351716" lon="9.726234075189671"><ele>582.0</ele><time>2026-05-01T14:52:20Z</time></trkpt><trkpt lat="44.62969012185173" lon="9.726150619173321"><ele>582.0</ele><time>2026-05-01T14:52:21Z</time></trkpt><trkpt lat="44.6296042980889" lon="9.726046389769236"><ele>582.0</ele><time>2026-05-01T14:52:22Z</time></trkpt><trkpt lat="44.62953172856138" lon="9.725918809508135"><ele>582.0</ele><time>2026-05-01T14:52:23Z</time></trkpt><trkpt lat="44.62945928603131" lon="9.725778308369737"><ele>582.4</ele><time>2026-05-01T14:52:24Z</time></trkpt><trkpt lat="44.62938531616474" lon="9.725650247749131"><ele>582.8000000000001</ele><time>2026-05-01T14:52:25Z</time></trkpt><trkpt lat="44.629317106562695" lon="9.72552495864349"><ele>583.2</ele><time>2026-05-01T14:52:26Z</time></trkpt><trkpt lat="44.62926453791595" lon="9.725389868229403"><ele>583.6</ele><time>2026-05-01T14:52:27Z</time></trkpt><trkpt lat="44.62922301735367" lon="9.725253768995808"><ele>584.0</ele><time>2026-05-01T14:52:28Z</time></trkpt><trkpt lat="44.629188593385734" lon="9.725124502622297"><ele>584.0</ele><time>2026-05-01T14:52:29Z</time></trkpt><trkpt lat="44.62912981198542" lon="9.725011548703641"><ele>584.0</ele><time>2026-05-01T14:52:30Z</time></trkpt><trkpt lat="44.62904475314905" lon="9.724922019877438"><ele>584.0</ele><time>2026-05-01T14:52:30.999Z</time></trkpt><trkpt lat="44.62894940873511" lon="9.724847707954645"><ele>584.0</ele><time>2026-05-01T14:52:31.999Z</time></trkpt><trkpt lat="44.62886740381447" lon="9.724756295650462"><ele>584.0</ele><time>2026-05-01T14:52:32.999Z</time></trkpt><trkpt lat="44.62881164364663" lon="9.724628315206713"><ele>584.0</ele><time>2026-05-01T14:52:33.999Z</time></trkpt><trkpt lat="44.62874856661238" lon="9.7244885765852"><ele>584.0</ele><time>2026-05-01T14:52:34.999Z</time></trkpt><trkpt lat="44.628657758066744" lon="9.724356834188896"><ele>584.0</ele><time>2026-05-01T14:52:35.999Z</time></trkpt><trkpt lat="44.62855496903535" lon="9.72422963373368"><ele>584.0</ele><time>2026-05-01T14:52:36.999Z</time></trkpt><trkpt lat="44.6284513281452" lon="9.724097333512304"><ele>579.5</ele><time>2026-05-01T14:52:37.999Z</time></trkpt><trkpt lat="44.62835439421148" lon="9.723976830011708"><ele>575.0</ele><time>2026-05-01T14:52:38.999Z</time></trkpt><trkpt lat="44.62825634981658" lon="9.72387177078662"><ele>570.5</ele><time>2026-05-01T14:52:39.999Z</time></trkpt><trkpt lat="44.628155476517136" lon="9.723784954194096"><ele>566.0</ele><time>2026-05-01T14:52:40.999Z</time></trkpt><trkpt lat="44.6280538099429" lon="9.723707370959051"><ele>566.0</ele><time>2026-05-01T14:52:41.999Z</time></trkpt><trkpt lat="44.627955880483356" lon="9.723628984737312"><ele>566.0</ele><time>2026-05-01T14:52:42.999Z</time></trkpt><trkpt lat="44.6278630865096" lon="9.723552181057583"><ele>566.0</ele><time>2026-05-01T14:52:43.999Z</time></trkpt><trkpt lat="44.62778450854505" lon="9.723469687700337"><ele>566.0</ele><time>2026-05-01T14:52:44.999Z</time></trkpt><trkpt lat="44.62772239469307" lon="9.723369223178096"><ele>566.0</ele><time>2026-05-01T14:52:45.999Z</time></trkpt><trkpt lat="44.6276979490415" lon="9.723241505542086"><ele>565.0</ele><time>2026-05-01T14:52:46.999Z</time></trkpt><trkpt lat="44.62768721630278" lon="9.72309500965815"><ele>564.0</ele><time>2026-05-01T14:52:47.999Z</time></trkpt><trkpt lat="44.62769131768216" lon="9.722932768726958"><ele>563.0</ele><time>2026-05-01T14:52:48.999Z</time></trkpt><trkpt lat="44.627695800615825" lon="9.722773891256676"><ele>562.0</ele><time>2026-05-01T14:52:49.999Z</time></trkpt><trkpt lat="44.627689088944884" lon="9.72261947146999"><ele>561.0</ele><time>2026-05-01T14:52:50.999Z</time></trkpt><trkpt lat="44.627670278941046" lon="9.72247209825035"><ele>561.0</ele><time>2026-05-01T14:52:51.999Z</time></trkpt><trkpt lat="44.62762738427339" lon="9.722333790959174"><ele>561.0</ele><time>2026-05-01T14:52:52.999Z</time></trkpt><trkpt lat="44.627561771516525" lon="9.722216214252805"><ele>561.0</ele><time>2026-05-01T14:52:53.999Z</time></trkpt><trkpt lat="44.62749377168877" lon="9.722110131372332"><ele>561.0</ele><time>2026-05-01T14:52:55Z</time></trkpt><trkpt lat="44.62743578974697" lon="9.72198144462007"><ele>561.0</ele><time>2026-05-01T14:52:56Z</time></trkpt><trkpt lat="44.627396798269814" lon="9.721829823185825"><ele>562.5</ele><time>2026-05-01T14:52:57Z</time></trkpt><trkpt lat="44.627380021780155" lon="9.721664774858848"><ele>564.0</ele><time>2026-05-01T14:52:58Z</time></trkpt><trkpt lat="44.62736949789073" lon="9.721501732499254"><ele>565.5</ele><time>2026-05-01T14:52:59Z</time></trkpt><trkpt lat="44.62736063427278" lon="9.721344718080609"><ele>567.0</ele><time>2026-05-01T14:53:00Z</time></trkpt><trkpt lat="44.627358146063195" lon="9.72119020957576"><ele>567.8000000000001</ele><time>2026-05-01T14:53:01Z</time></trkpt><trkpt lat="44.62735872167984" lon="9.721040995822715"><ele>568.6</ele><time>2026-05-01T14:53:02Z</time></trkpt><trkpt lat="44.62735492196367" lon="9.720895741641163"><ele>569.4000000000001</ele><time>2026-05-01T14:53:03Z</time></trkpt><trkpt lat="44.62734626454351" lon="9.720759556102054"><ele>570.2</ele><time>2026-05-01T14:53:04Z</time></trkpt><trkpt lat="44.627318343748534" lon="9.720637516093603"><ele>571.0</ele><time>2026-05-01T14:53:05Z</time></trkpt><trkpt lat="44.6272729530675" lon="9.720534793553782"><ele>571.0</ele><time>2026-05-01T14:53:06Z</time></trkpt><trkpt lat="44.627217596983165" lon="9.720458224932255"><ele>571.0</ele><time>2026-05-01T14:53:07Z</time></trkpt><trkpt lat="44.62715344157692" lon="9.720408579539795"><ele>571.0</ele><time>2026-05-01T14:53:08Z</time></trkpt><trkpt lat="44.62709503477017" lon="9.720372315872698"><ele>571.0</ele><time>2026-05-01T14:53:09Z</time></trkpt><trkpt lat="44.626974782610645" lon="9.720357361092134"><ele>571.0</ele><time>2026-05-01T14:53:11Z</time></trkpt><trkpt lat="44.62691135751584" lon="9.720466739411329"><ele>571.0</ele><time>2026-05-01T14:53:13Z</time></trkpt><trkpt lat="44.62693467213879" lon="9.720557424792075"><ele>571.0</ele><time>2026-05-01T14:53:14Z</time></trkpt><trkpt lat="44.62700156591918" lon="9.720641047548169"><ele>571.0</ele><time>2026-05-01T14:53:15Z</time></trkpt><trkpt lat="44.62708821843917" lon="9.720742541186405"><ele>571.0</ele><time>2026-05-01T14:53:16Z</time></trkpt><trkpt lat="44.627149867388965" lon="9.720870236025421"><ele>571.0</ele><time>2026-05-01T14:53:17Z</time></trkpt><trkpt lat="44.62717235187508" lon="9.721030418754218"><ele>571.0</ele><time>2026-05-01T14:53:18Z</time></trkpt><trkpt lat="44.62713021480404" lon="9.7211984110482"><ele>569.6666666666667</ele><time>2026-05-01T14:53:19Z</time></trkpt><trkpt lat="44.627094546701734" lon="9.72141189490683"><ele>568.3333333333334</ele><time>2026-05-01T14:53:20Z</time></trkpt><trkpt lat="44.62703149436722" lon="9.72162684379149"><ele>567.0</ele><time>2026-05-01T14:53:21Z</time></trkpt><trkpt lat="44.62697963312189" lon="9.721837062549424"><ele>558.6666666666666</ele><time>2026-05-01T14:53:22Z</time></trkpt><trkpt lat="44.626929200340584" lon="9.722048091648785"><ele>550.3333333333333</ele><time>2026-05-01T14:53:23Z</time></trkpt><trkpt lat="44.62687816074403" lon="9.722260295660401"><ele>542.0</ele><time>2026-05-01T14:53:24Z</time></trkpt><trkpt lat="44.62683441680558" lon="9.72245852360791"><ele>542.0</ele><time>2026-05-01T14:53:25Z</time></trkpt><trkpt lat="44.626789944128994" lon="9.722640352064623"><ele>542.0</ele><time>2026-05-01T14:53:26Z</time></trkpt><trkpt lat="44.62674933629947" lon="9.722801107099228"><ele>542.0</ele><time>2026-05-01T14:53:27Z</time></trkpt><trkpt lat="44.62671975254181" lon="9.722953731417293"><ele>542.0</ele><time>2026-05-01T14:53:28Z</time></trkpt><trkpt lat="44.626709056679175" lon="9.723116327620861"><ele>541.0</ele><time>2026-05-01T14:53:29Z</time></trkpt><trkpt lat="44.62672515134189" lon="9.72329076434443"><ele>540.0</ele><time>2026-05-01T14:53:30Z</time></trkpt><trkpt lat="44.62675704408385" lon="9.723459328966259"><ele>539.0</ele><time>2026-05-01T14:53:31Z</time></trkpt><trkpt lat="44.62676929580116" lon="9.723626118484093"><ele>538.0</ele><time>2026-05-01T14:53:32Z</time></trkpt><trkpt lat="44.62680544379479" lon="9.723781084461432"><ele>536.0</ele><time>2026-05-01T14:53:33Z</time></trkpt><trkpt lat="44.626861055003" lon="9.72392017743269"><ele>534.0</ele><time>2026-05-01T14:53:34Z</time></trkpt><trkpt lat="44.62695681097034" lon="9.724019360898565"><ele>532.0</ele><time>2026-05-01T14:53:35Z</time></trkpt><trkpt lat="44.62705538131469" lon="9.724115533179805"><ele>530.0</ele><time>2026-05-01T14:53:36Z</time></trkpt><trkpt lat="44.62712996941086" lon="9.724254076027004"><ele>532.5</ele><time>2026-05-01T14:53:37Z</time></trkpt><trkpt lat="44.62718222292315" lon="9.724410876475993"><ele>535.0</ele><time>2026-05-01T14:53:38Z</time></trkpt><trkpt lat="44.6272252631672" lon="9.724581124477691"><ele>537.5</ele><time>2026-05-01T14:53:39Z</time></trkpt><trkpt lat="44.627278746285874" lon="9.724754562938609"><ele>540.0</ele><time>2026-05-01T14:53:40Z</time></trkpt><trkpt lat="44.6273121512515" lon="9.724946668313589"><ele>540.0</ele><time>2026-05-01T14:53:41Z</time></trkpt><trkpt lat="44.62733542061453" lon="9.725151073613672"><ele>540.0</ele><time>2026-05-01T14:53:42Z</time></trkpt><trkpt lat="44.62734745333856" lon="9.725355089287556"><ele>540.0</ele><time>2026-05-01T14:53:43Z</time></trkpt><trkpt lat="44.62735492063832" lon="9.725546308310006"><ele>540.0</ele><time>2026-05-01T14:53:44Z</time></trkpt><trkpt lat="44.627369552901364" lon="9.725728825663172"><ele>538.75</ele><time>2026-05-01T14:53:45Z</time></trkpt><trkpt lat="44.627402536828335" lon="9.725902835142298"><ele>537.5</ele><time>2026-05-01T14:53:46Z</time></trkpt><trkpt lat="44.62746644123428" lon="9.72606377978746"><ele>536.25</ele><time>2026-05-01T14:53:47Z</time></trkpt><trkpt lat="44.62754753455824" lon="9.726213362441003"><ele>535.0</ele><time>2026-05-01T14:53:48Z</time></trkpt><trkpt lat="44.62762029765017" lon="9.726352009699648"><ele>533.0</ele><time>2026-05-01T14:53:49Z</time></trkpt><trkpt lat="44.627651835350335" lon="9.726515339147241"><ele>531.0</ele><time>2026-05-01T14:53:50Z</time></trkpt><trkpt lat="44.62765578278725" lon="9.726685117073037"><ele>529.0</ele><time>2026-05-01T14:53:51Z</time></trkpt><trkpt lat="44.62767510875655" lon="9.726873893219912"><ele>527.0</ele><time>2026-05-01T14:53:52Z</time></trkpt><trkpt lat="44.62768154289703" lon="9.727056280016393"><ele>529.0</ele><time>2026-05-01T14:53:53Z</time></trkpt><trkpt lat="44.62772243844073" lon="9.727220467276036"><ele>531.0</ele><time>2026-05-01T14:53:54Z</time></trkpt><trkpt lat="44.62779841114142" lon="9.727342316316488"><ele>533.0</ele><time>2026-05-01T14:53:55Z</time></trkpt><trkpt lat="44.62786645046327" lon="9.727455069451649"><ele>535.0</ele><time>2026-05-01T14:53:56Z</time></trkpt><trkpt lat="44.627928247341586" lon="9.727577679633013"><ele>535.0</ele><time>2026-05-01T14:53:57Z</time></trkpt><trkpt lat="44.62794604520927" lon="9.727734905753618"><ele>535.0</ele><time>2026-05-01T14:53:58Z</time></trkpt><trkpt lat="44.62791543197691" lon="9.727893001505953"><ele>535.0</ele><time>2026-05-01T14:53:59Z</time></trkpt><trkpt lat="44.627883944094265" lon="9.728074439725866"><ele>535.0</ele><time>2026-05-01T14:54:00Z</time></trkpt><trkpt lat="44.627862427818556" lon="9.728263147841856"><ele>535.0</ele><time>2026-05-01T14:54:01Z</time></trkpt><trkpt lat="44.62783596769806" lon="9.728462705456108"><ele>535.0</ele><time>2026-05-01T14:54:02Z</time></trkpt><trkpt lat="44.62783683714088" lon="9.728665787849389"><ele>535.0</ele><time>2026-05-01T14:54:03Z</time></trkpt><trkpt lat="44.62783326720906" lon="9.728876728881843"><ele>535.0</ele><time>2026-05-01T14:54:04Z</time></trkpt><trkpt lat="44.62784544237148" lon="9.729083795131606"><ele>535.75</ele><time>2026-05-01T14:54:05Z</time></trkpt><trkpt lat="44.627867305338214" lon="9.729286794615094"><ele>536.5</ele><time>2026-05-01T14:54:06Z</time></trkpt><trkpt lat="44.627850491879826" lon="9.729480205412587"><ele>537.25</ele><time>2026-05-01T14:54:07Z</time></trkpt><trkpt lat="44.62779862666865" lon="9.729651327859067"><ele>538.0</ele><time>2026-05-01T14:54:08Z</time></trkpt><trkpt lat="44.62770785371875" lon="9.729801217351083"><ele>535.25</ele><time>2026-05-01T14:54:09Z</time></trkpt><trkpt lat="44.6275960736061" lon="9.72992943502724"><ele>532.5</ele><time>2026-05-01T14:54:10Z</time></trkpt><trkpt lat="44.627479994498344" lon="9.730045507463135"><ele>529.75</ele><time>2026-05-01T14:54:11Z</time></trkpt><trkpt lat="44.627373634191244" lon="9.730162104973584"><ele>527.0</ele><time>2026-05-01T14:54:12Z</time></trkpt><trkpt lat="44.62727143175511" lon="9.730287904994205"><ele>527.0</ele><time>2026-05-01T14:54:13Z</time></trkpt><trkpt lat="44.627174183474466" lon="9.730426271268335"><ele>527.0</ele><time>2026-05-01T14:54:14Z</time></trkpt><trkpt lat="44.62709439575352" lon="9.73058377139832"><ele>527.0</ele><time>2026-05-01T14:54:15Z</time></trkpt><trkpt lat="44.62702922698781" lon="9.730761439702798"><ele>527.0</ele><time>2026-05-01T14:54:16Z</time></trkpt><trkpt lat="44.62696753786284" lon="9.730934331447433"><ele>523.0</ele><time>2026-05-01T14:54:17Z</time></trkpt><trkpt lat="44.62690957395174" lon="9.731096685247625"><ele>519.0</ele><time>2026-05-01T14:54:18Z</time></trkpt><trkpt lat="44.62684755040356" lon="9.731252852694967"><ele>515.0</ele><time>2026-05-01T14:54:19Z</time></trkpt><trkpt lat="44.62678833721565" lon="9.731406591784339"><ele>511.0</ele><time>2026-05-01T14:54:20Z</time></trkpt><trkpt lat="44.62674621408231" lon="9.7315656367417"><ele>511.0</ele><time>2026-05-01T14:54:21Z</time></trkpt><trkpt lat="44.62672590185581" lon="9.731740510440591"><ele>511.0</ele><time>2026-05-01T14:54:22Z</time></trkpt><trkpt lat="44.62673048773776" lon="9.731924033363223"><ele>511.0</ele><time>2026-05-01T14:54:23Z</time></trkpt><trkpt lat="44.626743419422866" lon="9.732114662805255"><ele>511.0</ele><time>2026-05-01T14:54:24Z</time></trkpt><trkpt lat="44.62675745938731" lon="9.732307238428824"><ele>511.0</ele><time>2026-05-01T14:54:25Z</time></trkpt><trkpt lat="44.62677013681624" lon="9.732507868896338"><ele>511.0</ele><time>2026-05-01T14:54:26Z</time></trkpt><trkpt lat="44.626782584753514" lon="9.732708915268066"><ele>511.0</ele><time>2026-05-01T14:54:27Z</time></trkpt><trkpt lat="44.62679249549599" lon="9.732899980911418"><ele>511.0</ele><time>2026-05-01T14:54:28Z</time></trkpt><trkpt lat="44.62680211172097" lon="9.733089957507245"><ele>510.0</ele><time>2026-05-01T14:54:29Z</time></trkpt><trkpt lat="44.626812222412994" lon="9.733278594156385"><ele>509.0</ele><time>2026-05-01T14:54:30Z</time></trkpt><trkpt lat="44.626823475925654" lon="9.733463334162957"><ele>508.0</ele><time>2026-05-01T14:54:30.999Z</time></trkpt><trkpt lat="44.62683389077489" lon="9.733643777934212"><ele>507.0</ele><time>2026-05-01T14:54:31.999Z</time></trkpt><trkpt lat="44.6268449885188" lon="9.733820729013827"><ele>505.5</ele><time>2026-05-01T14:54:32.999Z</time></trkpt><trkpt lat="44.62687048205535" lon="9.733993342016372"><ele>504.0</ele><time>2026-05-01T14:54:33.999Z</time></trkpt><trkpt lat="44.626918311391805" lon="9.734162799036678"><ele>502.5</ele><time>2026-05-01T14:54:34.999Z</time></trkpt><trkpt lat="44.62698372293923" lon="9.734325432502635"><ele>501.0</ele><time>2026-05-01T14:54:35.999Z</time></trkpt><trkpt lat="44.62706986466679" lon="9.734474171740457"><ele>501.0</ele><time>2026-05-01T14:54:36.999Z</time></trkpt><trkpt lat="44.62717571145896" lon="9.73461279040182"><ele>501.0</ele><time>2026-05-01T14:54:37.999Z</time></trkpt><trkpt lat="44.62729094432616" lon="9.734741466599782"><ele>501.0</ele><time>2026-05-01T14:54:38.999Z</time></trkpt><trkpt lat="44.6274037926049" lon="9.734863931549695"><ele>501.0</ele><time>2026-05-01T14:54:39.999Z</time></trkpt><trkpt lat="44.627510128703214" lon="9.734989523423431"><ele>501.0</ele><time>2026-05-01T14:54:40.999Z</time></trkpt><trkpt lat="44.627610750663735" lon="9.735121197932443"><ele>501.0</ele><time>2026-05-01T14:54:41.999Z</time></trkpt><trkpt lat="44.627695533248314" lon="9.735269922110279"><ele>501.0</ele><time>2026-05-01T14:54:42.999Z</time></trkpt><trkpt lat="44.6277347436684" lon="9.735459238594375"><ele>501.0</ele><time>2026-05-01T14:54:43.999Z</time></trkpt><trkpt lat="44.627767306721694" lon="9.735645391949365"><ele>499.25</ele><time>2026-05-01T14:54:44.999Z</time></trkpt><trkpt lat="44.62778746045987" lon="9.735831404810712"><ele>497.5</ele><time>2026-05-01T14:54:45.999Z</time></trkpt><trkpt lat="44.62776456187828" lon="9.736017971067854"><ele>495.75</ele><time>2026-05-01T14:54:46.999Z</time></trkpt><trkpt lat="44.6277074034068" lon="9.736189839532354"><ele>494.0</ele><time>2026-05-01T14:54:47.999Z</time></trkpt><trkpt lat="44.62763036328505" lon="9.736337182358401"><ele>494.0</ele><time>2026-05-01T14:54:48.999Z</time></trkpt><trkpt lat="44.62756194669985" lon="9.736471966278982"><ele>494.0</ele><time>2026-05-01T14:54:49.999Z</time></trkpt><trkpt lat="44.62752043996251" lon="9.736615997632557"><ele>494.0</ele><time>2026-05-01T14:54:50.999Z</time></trkpt><trkpt lat="44.62748792690103" lon="9.736761875966542"><ele>494.0</ele><time>2026-05-01T14:54:51.999Z</time></trkpt><trkpt lat="44.62750303752501" lon="9.736920437210598"><ele>494.25</ele><time>2026-05-01T14:54:52.999Z</time></trkpt><trkpt lat="44.62757580025822" lon="9.737054741277618"><ele>494.5</ele><time>2026-05-01T14:54:53.999Z</time></trkpt><trkpt lat="44.62766113437104" lon="9.73716742208454"><ele>494.75</ele><time>2026-05-01T14:54:54.999Z</time></trkpt><trkpt lat="44.6277723859987" lon="9.737259472049368"><ele>495.0</ele><time>2026-05-01T14:54:56Z</time></trkpt><trkpt lat="44.62788644276731" lon="9.737373332107078"><ele>495.0</ele><time>2026-05-01T14:54:57Z</time></trkpt><trkpt lat="44.6280080627542" lon="9.737468205506925"><ele>495.0</ele><time>2026-05-01T14:54:58Z</time></trkpt><trkpt lat="44.6281266149578" lon="9.73754569864542"><ele>495.0</ele><time>2026-05-01T14:54:59Z</time></trkpt><trkpt lat="44.62820957677987" lon="9.737655033504213"><ele>495.0</ele><time>2026-05-01T14:55:00Z</time></trkpt><trkpt lat="44.6282455768871" lon="9.737787401055778"><ele>493.0</ele><time>2026-05-01T14:55:01Z</time></trkpt><trkpt lat="44.62829016545051" lon="9.737918023508842"><ele>491.0</ele><time>2026-05-01T14:55:02Z</time></trkpt><trkpt lat="44.628296480372974" lon="9.738081265185148"><ele>489.0</ele><time>2026-05-01T14:55:03Z</time></trkpt><trkpt lat="44.628277805304435" lon="9.7382600625545"><ele>487.0</ele><time>2026-05-01T14:55:04Z</time></trkpt><trkpt lat="44.628237981307564" lon="9.738440001919347"><ele>485.75</ele><time>2026-05-01T14:55:05Z</time></trkpt><trkpt lat="44.62819093944608" lon="9.738601167792705"><ele>484.5</ele><time>2026-05-01T14:55:06Z</time></trkpt><trkpt lat="44.628152344029594" lon="9.738747262274993"><ele>483.25</ele><time>2026-05-01T14:55:07Z</time></trkpt><trkpt lat="44.6281397982296" lon="9.73889553095751"><ele>482.0</ele><time>2026-05-01T14:55:08Z</time></trkpt><trkpt lat="44.6281568660553" lon="9.739047443749508"><ele>482.0</ele><time>2026-05-01T14:55:09Z</time></trkpt><trkpt lat="44.628207058105836" lon="9.739181819065863"><ele>482.00000000000006</ele><time>2026-05-01T14:55:10Z</time></trkpt><trkpt lat="44.62828522212624" lon="9.739289003524807"><ele>482.00000000000006</ele><time>2026-05-01T14:55:11Z</time></trkpt><trkpt lat="44.62836755374678" lon="9.739390070467282"><ele>482.0</ele><time>2026-05-01T14:55:12Z</time></trkpt><trkpt lat="44.62842014014236" lon="9.73951880233454"><ele>482.0</ele><time>2026-05-01T14:55:13Z</time></trkpt><trkpt lat="44.628439021868324" lon="9.739672700505803"><ele>480.25</ele><time>2026-05-01T14:55:14Z</time></trkpt><trkpt lat="44.62841104469665" lon="9.739833410880902"><ele>478.5</ele><time>2026-05-01T14:55:15Z</time></trkpt><trkpt lat="44.628352062885384" lon="9.73997887385256"><ele>476.75</ele><time>2026-05-01T14:55:16Z</time></trkpt><trkpt lat="44.628294099620625" lon="9.740113990304215"><ele>475.0</ele><time>2026-05-01T14:55:17Z</time></trkpt><trkpt lat="44.62824340966955" lon="9.740251120141039"><ele>473.5</ele><time>2026-05-01T14:55:18Z</time></trkpt><trkpt lat="44.62827599383609" lon="9.740415150164527"><ele>472.0</ele><time>2026-05-01T14:55:19Z</time></trkpt><trkpt lat="44.628338421292575" lon="9.740557937669047"><ele>470.5</ele><time>2026-05-01T14:55:20Z</time></trkpt><trkpt lat="44.62842535776675" lon="9.740699451633157"><ele>469.0</ele><time>2026-05-01T14:55:21Z</time></trkpt><trkpt lat="44.62854074716824" lon="9.740806450723428"><ele>472.0</ele><time>2026-05-01T14:55:22Z</time></trkpt><trkpt lat="44.628654775274924" lon="9.740886101140196"><ele>475.0</ele><time>2026-05-01T14:55:23Z</time></trkpt><trkpt lat="44.62876337850013" lon="9.74095909133796"><ele>478.0</ele><time>2026-05-01T14:55:24Z</time></trkpt><trkpt lat="44.62886136085062" lon="9.74103578857529"><ele>481.0</ele><time>2026-05-01T14:55:25Z</time></trkpt><trkpt lat="44.62896095496101" lon="9.741104912229806"><ele>481.0</ele><time>2026-05-01T14:55:26Z</time></trkpt><trkpt lat="44.6290020306663" lon="9.741242603739883"><ele>481.0</ele><time>2026-05-01T14:55:27Z</time></trkpt><trkpt lat="44.62902821621412" lon="9.74137843384136"><ele>481.0</ele><time>2026-05-01T14:55:28Z</time></trkpt><trkpt lat="44.62899128123977" lon="9.74152287673647"><ele>481.0</ele><time>2026-05-01T14:55:29Z</time></trkpt><trkpt lat="44.628928805311375" lon="9.741636661810603"><ele>481.0</ele><time>2026-05-01T14:55:30Z</time></trkpt><trkpt lat="44.62884471347933" lon="9.741698594413295"><ele>481.0</ele><time>2026-05-01T14:55:31Z</time></trkpt><trkpt lat="44.62874620099696" lon="9.74172820136054"><ele>481.0</ele><time>2026-05-01T14:55:32Z</time></trkpt><trkpt lat="44.62863406522314" lon="9.741704782549016"><ele>481.0</ele><time>2026-05-01T14:55:33Z</time></trkpt><trkpt lat="44.628524907254956" lon="9.741630076858446"><ele>481.0</ele><time>2026-05-01T14:55:34Z</time></trkpt><trkpt lat="44.628424437044615" lon="9.741514148641071"><ele>478.0</ele><time>2026-05-01T14:55:35Z</time></trkpt><trkpt lat="44.628330841006644" lon="9.74136081794944"><ele>475.0</ele><time>2026-05-01T14:55:36Z</time></trkpt><trkpt lat="44.628247715176265" lon="9.74120734563066"><ele>472.0</ele><time>2026-05-01T14:55:37Z</time></trkpt><trkpt lat="44.62814692742551" lon="9.741076023471988"><ele>469.0</ele><time>2026-05-01T14:55:38Z</time></trkpt><trkpt lat="44.6280420649325" lon="9.740953061772329"><ele>469.0</ele><time>2026-05-01T14:55:39Z</time></trkpt><trkpt lat="44.62792793909506" lon="9.740844197448068"><ele>469.0</ele><time>2026-05-01T14:55:40Z</time></trkpt><trkpt lat="44.627795116015264" lon="9.740745628026332"><ele>469.0</ele><time>2026-05-01T14:55:41Z</time></trkpt><trkpt lat="44.627663968556114" lon="9.740656491509682"><ele>469.0</ele><time>2026-05-01T14:55:42Z</time></trkpt><trkpt lat="44.62753591839077" lon="9.740569320786658"><ele>466.5</ele><time>2026-05-01T14:55:43Z</time></trkpt><trkpt lat="44.62740902821772" lon="9.740486088193066"><ele>464.0</ele><time>2026-05-01T14:55:44Z</time></trkpt><trkpt lat="44.627283409910866" lon="9.740405002003161"><ele>461.5</ele><time>2026-05-01T14:55:45Z</time></trkpt><trkpt lat="44.627158979286904" lon="9.740318214613756"><ele>459.0</ele><time>2026-05-01T14:55:46Z</time></trkpt><trkpt lat="44.627041495718856" lon="9.740219028359203"><ele>457.0</ele><time>2026-05-01T14:55:47Z</time></trkpt><trkpt lat="44.6269291071522" lon="9.740101845260142"><ele>455.0</ele><time>2026-05-01T14:55:48Z</time></trkpt><trkpt lat="44.62681469271933" lon="9.73996319912918"><ele>453.0</ele><time>2026-05-01T14:55:49Z</time></trkpt><trkpt lat="44.626705976495565" lon="9.739816715449457"><ele>451.0</ele><time>2026-05-01T14:55:50Z</time></trkpt><trkpt lat="44.6266023892323" lon="9.7396746162637"><ele>451.0</ele><time>2026-05-01T14:55:51Z</time></trkpt><trkpt lat="44.62650540649128" lon="9.73953710085866"><ele>451.0</ele><time>2026-05-01T14:55:52Z</time></trkpt><trkpt lat="44.62641859768336" lon="9.739402107065361"><ele>451.0</ele><time>2026-05-01T14:55:53Z</time></trkpt><trkpt lat="44.626365048216655" lon="9.739268598357693"><ele>451.0</ele><time>2026-05-01T14:55:54Z</time></trkpt><trkpt lat="44.626350801069364" lon="9.73911205385294"><ele>451.5</ele><time>2026-05-01T14:55:55Z</time></trkpt><trkpt lat="44.62635885023317" lon="9.738946298195994"><ele>452.0</ele><time>2026-05-01T14:55:56Z</time></trkpt><trkpt lat="44.626344956772996" lon="9.738780776134416"><ele>452.5</ele><time>2026-05-01T14:55:57Z</time></trkpt><trkpt lat="44.62628914518033" lon="9.738629733797543"><ele>453.0</ele><time>2026-05-01T14:55:58Z</time></trkpt><trkpt lat="44.62620200436559" lon="9.738496681061596"><ele>450.0</ele><time>2026-05-01T14:55:59Z</time></trkpt><trkpt lat="44.62607793278999" lon="9.738402100821126"><ele>447.0</ele><time>2026-05-01T14:56:00Z</time></trkpt><trkpt lat="44.62594930681828" lon="9.738310145957568"><ele>444.0</ele><time>2026-05-01T14:56:01Z</time></trkpt><trkpt lat="44.62582526273059" lon="9.738216725675478"><ele>441.0</ele><time>2026-05-01T14:56:02Z</time></trkpt><trkpt lat="44.62571030730623" lon="9.738119853671256"><ele>441.0</ele><time>2026-05-01T14:56:03Z</time></trkpt><trkpt lat="44.625607645005786" lon="9.738011687400155"><ele>441.0</ele><time>2026-05-01T14:56:04Z</time></trkpt><trkpt lat="44.62551744336023" lon="9.737886760091948"><ele>441.0</ele><time>2026-05-01T14:56:05Z</time></trkpt><trkpt lat="44.625440548995506" lon="9.737736420786417"><ele>441.0</ele><time>2026-05-01T14:56:06Z</time></trkpt><trkpt lat="44.62538164427911" lon="9.737551002491967"><ele>442.75</ele><time>2026-05-01T14:56:07Z</time></trkpt><trkpt lat="44.62533737583336" lon="9.737361988250495"><ele>444.5</ele><time>2026-05-01T14:56:08Z</time></trkpt><trkpt lat="44.62528274994987" lon="9.737187805837406"><ele>446.25</ele><time>2026-05-01T14:56:09Z</time></trkpt><trkpt lat="44.62521260425469" lon="9.737028033536973"><ele>448.0</ele><time>2026-05-01T14:56:10Z</time></trkpt><trkpt lat="44.62512354675894" lon="9.736893425674486"><ele>443.6666666666667</ele><time>2026-05-01T14:56:11Z</time></trkpt><trkpt lat="44.625007883125576" lon="9.736787363030643"><ele>439.33333333333337</ele><time>2026-05-01T14:56:12Z</time></trkpt><trkpt lat="44.62486820332037" lon="9.736689401294088"><ele>435.0</ele><time>2026-05-01T14:56:13Z</time></trkpt><trkpt lat="44.62472150534347" lon="9.736583986374532"><ele>435.0</ele><time>2026-05-01T14:56:14Z</time></trkpt><trkpt lat="44.624577714046076" lon="9.736472300543813"><ele>435.0</ele><time>2026-05-01T14:56:15Z</time></trkpt><trkpt lat="44.6244383775783" lon="9.736362734142691"><ele>435.0</ele><time>2026-05-01T14:56:16Z</time></trkpt><trkpt lat="44.62430666866884" lon="9.736261829180645"><ele>433.5</ele><time>2026-05-01T14:56:17Z</time></trkpt><trkpt lat="44.624177190080545" lon="9.736165382196015"><ele>432.0</ele><time>2026-05-01T14:56:18Z</time></trkpt><trkpt lat="44.62405442968439" lon="9.736062844887645"><ele>430.5</ele><time>2026-05-01T14:56:19Z</time></trkpt><trkpt lat="44.623941102693614" lon="9.735939627605566"><ele>429.0</ele><time>2026-05-01T14:56:20Z</time></trkpt><trkpt lat="44.62383576546338" lon="9.73579528088478"><ele>429.0</ele><time>2026-05-01T14:56:21Z</time></trkpt><trkpt lat="44.62373755517381" lon="9.735631970576788"><ele>429.0</ele><time>2026-05-01T14:56:22Z</time></trkpt><trkpt lat="44.623658588161376" lon="9.73545671123757"><ele>429.0</ele><time>2026-05-01T14:56:23Z</time></trkpt><trkpt lat="44.62359390708488" lon="9.73527701689688"><ele>429.0</ele><time>2026-05-01T14:56:24Z</time></trkpt><trkpt lat="44.623522470875294" lon="9.735106699517978"><ele>425.33333333333337</ele><time>2026-05-01T14:56:25Z</time></trkpt><trkpt lat="44.62343175512292" lon="9.73495336230772"><ele>421.6666666666667</ele><time>2026-05-01T14:56:26Z</time></trkpt><trkpt lat="44.6233126453595" lon="9.73482468479155"><ele>418.0</ele><time>2026-05-01T14:56:27Z</time></trkpt><trkpt lat="44.62316580131144" lon="9.734711437274937"><ele>418.0</ele><time>2026-05-01T14:56:28Z</time></trkpt><trkpt lat="44.6230039882127" lon="9.73460298514758"><ele>418.0</ele><time>2026-05-01T14:56:29Z</time></trkpt><trkpt lat="44.62285095933818" lon="9.734491972987385"><ele>418.0</ele><time>2026-05-01T14:56:30Z</time></trkpt><trkpt lat="44.62270575504857" lon="9.73437064647368"><ele>416.0</ele><time>2026-05-01T14:56:31Z</time></trkpt><trkpt lat="44.622561222899506" lon="9.734292671870769"><ele>414.0</ele><time>2026-05-01T14:56:32Z</time></trkpt><trkpt lat="44.62242385986363" lon="9.734197216730548"><ele>412.0</ele><time>2026-05-01T14:56:33Z</time></trkpt><trkpt lat="44.62229046934926" lon="9.734101959703688"><ele>412.0</ele><time>2026-05-01T14:56:34Z</time></trkpt><trkpt lat="44.62215978627168" lon="9.734014813752054"><ele>412.0</ele><time>2026-05-01T14:56:35Z</time></trkpt><trkpt lat="44.62203108197908" lon="9.733930175516923"><ele>412.0</ele><time>2026-05-01T14:56:35.999Z</time></trkpt><trkpt lat="44.621910082969535" lon="9.733844827187282"><ele>412.0</ele><time>2026-05-01T14:56:36.999Z</time></trkpt><trkpt lat="44.621813461399945" lon="9.733745540824046"><ele>410.25</ele><time>2026-05-01T14:56:37.999Z</time></trkpt><trkpt lat="44.621767677306075" lon="9.733603534810566"><ele>408.5</ele><time>2026-05-01T14:56:38.999Z</time></trkpt><trkpt lat="44.6217370340905" lon="9.733458913044252"><ele>406.75</ele><time>2026-05-01T14:56:39.999Z</time></trkpt><trkpt lat="44.6217133463382" lon="9.73328329289808"><ele>405.0</ele><time>2026-05-01T14:56:40.999Z</time></trkpt><trkpt lat="44.621679352063396" lon="9.733084995010016"><ele>405.0</ele><time>2026-05-01T14:56:41.999Z</time></trkpt><trkpt lat="44.62161728593805" lon="9.732923404594322"><ele>405.0</ele><time>2026-05-01T14:56:42.999Z</time></trkpt><trkpt lat="44.62154812234606" lon="9.732800026260712"><ele>405.0</ele><time>2026-05-01T14:56:43.999Z</time></trkpt><trkpt lat="44.621457147813075" lon="9.732729101226312"><ele>405.0</ele><time>2026-05-01T14:56:44.999Z</time></trkpt><trkpt lat="44.621359502129096" lon="9.732716693403997"><ele>405.0</ele><time>2026-05-01T14:56:45.999Z</time></trkpt><trkpt lat="44.621256239901214" lon="9.732777428109827"><ele>402.0</ele><time>2026-05-01T14:56:46.999Z</time></trkpt><trkpt lat="44.621135691470805" lon="9.732875110689324"><ele>399.0</ele><time>2026-05-01T14:56:47.999Z</time></trkpt><trkpt lat="44.620987420125175" lon="9.732975831556596"><ele>396.0</ele><time>2026-05-01T14:56:48.999Z</time></trkpt><trkpt lat="44.62081425562162" lon="9.733075781732156"><ele>396.0</ele><time>2026-05-01T14:56:50Z</time></trkpt><trkpt lat="44.62061398925766" lon="9.733192523847276"><ele>396.0</ele><time>2026-05-01T14:56:51Z</time></trkpt><trkpt lat="44.62044698331316" lon="9.733287265527158"><ele>396.0</ele><time>2026-05-01T14:56:52Z</time></trkpt><trkpt lat="44.62030087938212" lon="9.733365547278522"><ele>395.5</ele><time>2026-05-01T14:56:53Z</time></trkpt><trkpt lat="44.62017493075365" lon="9.733430590698768"><ele>395.0</ele><time>2026-05-01T14:56:54Z</time></trkpt><trkpt lat="44.620057629186164" lon="9.733497650528392"><ele>394.5</ele><time>2026-05-01T14:56:55Z</time></trkpt><trkpt lat="44.619936615488015" lon="9.733547890056911"><ele>394.0</ele><time>2026-05-01T14:56:56Z</time></trkpt><trkpt lat="44.61981610940216" lon="9.73361465121844"><ele>393.75</ele><time>2026-05-01T14:56:57Z</time></trkpt><trkpt lat="44.619696699557046" lon="9.733680805087053"><ele>393.5</ele><time>2026-05-01T14:56:58Z</time></trkpt><trkpt lat="44.61956956047255" lon="9.733751240961293"><ele>393.25</ele><time>2026-05-01T14:56:59Z</time></trkpt><trkpt lat="44.61942014820929" lon="9.733841839868026"><ele>393.0</ele><time>2026-05-01T14:57:00Z</time></trkpt><trkpt lat="44.619247051179435" lon="9.733940915446532"><ele>394.33333333333337</ele><time>2026-05-01T14:57:01Z</time></trkpt><trkpt lat="44.61904754037234" lon="9.734052215251678"><ele>395.6666666666667</ele><time>2026-05-01T14:57:02Z</time></trkpt><trkpt lat="44.61884760308964" lon="9.734161556350948"><ele>397.0</ele><time>2026-05-01T14:57:03Z</time></trkpt><trkpt lat="44.61865376555144" lon="9.734267589788118"><ele>397.33333333333337</ele><time>2026-05-01T14:57:04Z</time></trkpt><trkpt lat="44.618459487936796" lon="9.734373763335254"><ele>397.66666666666663</ele><time>2026-05-01T14:57:05Z</time></trkpt><trkpt lat="44.618266408532854" lon="9.734482382390336"><ele>398.0</ele><time>2026-05-01T14:57:06Z</time></trkpt><trkpt lat="44.61808151023905" lon="9.7345832959519"><ele>398.66666666666663</ele><time>2026-05-01T14:57:07Z</time></trkpt><trkpt lat="44.617924043655435" lon="9.734665788336994"><ele>399.33333333333337</ele><time>2026-05-01T14:57:08Z</time></trkpt><trkpt lat="44.617785808144916" lon="9.734745331597885"><ele>400.0</ele><time>2026-05-01T14:57:09Z</time></trkpt><trkpt lat="44.617661410454495" lon="9.734816255028306"><ele>400.75</ele><time>2026-05-01T14:57:10Z</time></trkpt><trkpt lat="44.617543707553665" lon="9.734884287134022"><ele>401.5</ele><time>2026-05-01T14:57:11Z</time></trkpt><trkpt lat="44.617433010175866" lon="9.734959656108556"><ele>402.25</ele><time>2026-05-01T14:57:12Z</time></trkpt><trkpt lat="44.617328030167634" lon="9.735057177471116"><ele>403.0</ele><time>2026-05-01T14:57:13Z</time></trkpt><trkpt lat="44.61723589897966" lon="9.735190844439794"><ele>401.5</ele><time>2026-05-01T14:57:14Z</time></trkpt><trkpt lat="44.617148379229754" lon="9.73535304058008"><ele>400.0</ele><time>2026-05-01T14:57:15Z</time></trkpt><trkpt lat="44.61707092722992" lon="9.735531424359612"><ele>398.5</ele><time>2026-05-01T14:57:16Z</time></trkpt><trkpt lat="44.616988591793344" lon="9.735696235180555"><ele>397.0</ele><time>2026-05-01T14:57:17Z</time></trkpt><trkpt lat="44.61689357111584" lon="9.735829315937066"><ele>400.25</ele><time>2026-05-01T14:57:18Z</time></trkpt><trkpt lat="44.61678120267947" lon="9.735887004315702"><ele>403.5</ele><time>2026-05-01T14:57:19Z</time></trkpt><trkpt lat="44.616665748845804" lon="9.735912654040932"><ele>406.75</ele><time>2026-05-01T14:57:20Z</time></trkpt><trkpt lat="44.616535397520046" lon="9.735906487621195"><ele>410.0</ele><time>2026-05-01T14:57:21Z</time></trkpt><trkpt lat="44.61639692472757" lon="9.735919178282034"><ele>410.0</ele><time>2026-05-01T14:57:22Z</time></trkpt><trkpt lat="44.616254069445425" lon="9.735910764920702"><ele>410.0</ele><time>2026-05-01T14:57:23Z</time></trkpt><trkpt lat="44.61610509934942" lon="9.735910604544753"><ele>410.0</ele><time>2026-05-01T14:57:24Z</time></trkpt><trkpt lat="44.61595006268926" lon="9.735919372596424"><ele>410.0</ele><time>2026-05-01T14:57:25Z</time></trkpt><trkpt lat="44.61579727294028" lon="9.73592776452204"><ele>411.25</ele><time>2026-05-01T14:57:26Z</time></trkpt><trkpt lat="44.61564405511297" lon="9.735933013708694"><ele>412.5</ele><time>2026-05-01T14:57:27Z</time></trkpt><trkpt lat="44.61549303629038" lon="9.735939130754922"><ele>413.75</ele><time>2026-05-01T14:57:28Z</time></trkpt><trkpt lat="44.61535145177449" lon="9.735955357223363"><ele>415.0</ele><time>2026-05-01T14:57:29Z</time></trkpt><trkpt lat="44.6152132478776" lon="9.736001456214034"><ele>412.6666666666667</ele><time>2026-05-01T14:57:30Z</time></trkpt><trkpt lat="44.61506526549101" lon="9.736081656783405"><ele>410.33333333333337</ele><time>2026-05-01T14:57:31Z</time></trkpt><trkpt lat="44.61491359252298" lon="9.736183336774724"><ele>408.0</ele><time>2026-05-01T14:57:32Z</time></trkpt><trkpt lat="44.61475894222013" lon="9.736298497626384"><ele>408.0</ele><time>2026-05-01T14:57:33Z</time></trkpt><trkpt lat="44.61459911581948" lon="9.73641847481234"><ele>408.0</ele><time>2026-05-01T14:57:34Z</time></trkpt><trkpt lat="44.61443594501336" lon="9.736530770019911"><ele>408.0</ele><time>2026-05-01T14:57:35Z</time></trkpt><trkpt lat="44.61427714241686" lon="9.736637626278416"><ele>408.66666666666663</ele><time>2026-05-01T14:57:36Z</time></trkpt><trkpt lat="44.61411470433428" lon="9.736755090178045"><ele>409.3333333333333</ele><time>2026-05-01T14:57:37Z</time></trkpt><trkpt lat="44.61395262178952" lon="9.736863346384302"><ele>410.0</ele><time>2026-05-01T14:57:38Z</time></trkpt><trkpt lat="44.61379141211973" lon="9.736972504195965"><ele>413.0</ele><time>2026-05-01T14:57:39Z</time></trkpt><trkpt lat="44.613634266477014" lon="9.737082649759378"><ele>416.0</ele><time>2026-05-01T14:57:40Z</time></trkpt><trkpt lat="44.61347622715832" lon="9.737193487357906"><ele>419.0</ele><time>2026-05-01T14:57:41Z</time></trkpt><trkpt lat="44.61332730453174" lon="9.737294490767027"><ele>419.0</ele><time>2026-05-01T14:57:42Z</time></trkpt><trkpt lat="44.613188422004534" lon="9.737384851468235"><ele>419.0</ele><time>2026-05-01T14:57:43Z</time></trkpt><trkpt lat="44.613051172523534" lon="9.737448714350547"><ele>419.0</ele><time>2026-05-01T14:57:44Z</time></trkpt><trkpt lat="44.61290677696389" lon="9.737478570362663"><ele>419.0</ele><time>2026-05-01T14:57:45Z</time></trkpt><trkpt lat="44.612743898238115" lon="9.737470633271075"><ele>421.66666666666663</ele><time>2026-05-01T14:57:46Z</time></trkpt><trkpt lat="44.61257917560459" lon="9.737466984050677"><ele>424.33333333333337</ele><time>2026-05-01T14:57:47Z</time></trkpt><trkpt lat="44.61240872799892" lon="9.737466297546277"><ele>427.0</ele><time>2026-05-01T14:57:48Z</time></trkpt><trkpt lat="44.61222993027736" lon="9.737461936908309"><ele>427.0</ele><time>2026-05-01T14:57:49Z</time></trkpt><trkpt lat="44.61204690084451" lon="9.73746135336819"><ele>427.0</ele><time>2026-05-01T14:57:50Z</time></trkpt><trkpt lat="44.61186911303191" lon="9.737456571842257"><ele>427.0</ele><time>2026-05-01T14:57:51Z</time></trkpt><trkpt lat="44.61169345031385" lon="9.737437810248277"><ele>427.0</ele><time>2026-05-01T14:57:52Z</time></trkpt><trkpt lat="44.611532498906364" lon="9.737357428055288"><ele>427.0</ele><time>2026-05-01T14:57:53Z</time></trkpt><trkpt lat="44.611381100923175" lon="9.737298406745486"><ele>427.0</ele><time>2026-05-01T14:57:54Z</time></trkpt><trkpt lat="44.61123775967992" lon="9.737259884639776"><ele>428.5</ele><time>2026-05-01T14:57:55Z</time></trkpt><trkpt lat="44.61110713982016" lon="9.737227994597017"><ele>430.0</ele><time>2026-05-01T14:57:56Z</time></trkpt><trkpt lat="44.61097668387412" lon="9.737227507175247"><ele>431.5</ele><time>2026-05-01T14:57:57Z</time></trkpt><trkpt lat="44.6108458480816" lon="9.737277917309509"><ele>433.0</ele><time>2026-05-01T14:57:58Z</time></trkpt><trkpt lat="44.610717440161764" lon="9.737381155643885"><ele>433.0</ele><time>2026-05-01T14:57:59Z</time></trkpt><trkpt lat="44.61057655987051" lon="9.737482865305076"><ele>433.0</ele><time>2026-05-01T14:58:00Z</time></trkpt><trkpt lat="44.610435176753874" lon="9.737597168690879"><ele>433.0</ele><time>2026-05-01T14:58:01Z</time></trkpt><trkpt lat="44.61029844083569" lon="9.737733891829446"><ele>431.6666666666667</ele><time>2026-05-01T14:58:02Z</time></trkpt><trkpt lat="44.61015234543011" lon="9.737848529880598"><ele>430.33333333333337</ele><time>2026-05-01T14:58:03Z</time></trkpt><trkpt lat="44.61000932391581" lon="9.737968232198543"><ele>429.0</ele><time>2026-05-01T14:58:04Z</time></trkpt><trkpt lat="44.60986466562666" lon="9.738087657448322"><ele>429.0</ele><time>2026-05-01T14:58:05Z</time></trkpt><trkpt lat="44.60973708944173" lon="9.738260129407923"><ele>429.0</ele><time>2026-05-01T14:58:06Z</time></trkpt><trkpt lat="44.60959900236831" lon="9.73842060124916"><ele>429.0</ele><time>2026-05-01T14:58:07Z</time></trkpt><trkpt lat="44.60946576435002" lon="9.738580412000402"><ele>427.33333333333337</ele><time>2026-05-01T14:58:08Z</time></trkpt><trkpt lat="44.609326785840295" lon="9.738743844226628"><ele>425.6666666666667</ele><time>2026-05-01T14:58:09Z</time></trkpt><trkpt lat="44.609188476745125" lon="9.738899203681644"><ele>424.0</ele><time>2026-05-01T14:58:10Z</time></trkpt><trkpt lat="44.60905675330413" lon="9.739046602911271"><ele>424.0</ele><time>2026-05-01T14:58:11Z</time></trkpt><trkpt lat="44.60891636829482" lon="9.739189995794721"><ele>424.0</ele><time>2026-05-01T14:58:12Z</time></trkpt><trkpt lat="44.60877483952241" lon="9.73931761934019"><ele>424.0</ele><time>2026-05-01T14:58:13Z</time></trkpt><trkpt lat="44.608617022070796" lon="9.739446506931605"><ele>422.33333333333337</ele><time>2026-05-01T14:58:14Z</time></trkpt><trkpt lat="44.60844009226301" lon="9.739539799356514"><ele>420.66666666666663</ele><time>2026-05-01T14:58:15Z</time></trkpt><trkpt lat="44.608262365576245" lon="9.739634585317805"><ele>419.0</ele><time>2026-05-01T14:58:16Z</time></trkpt><trkpt lat="44.60810112917532" lon="9.739739874827771"><ele>419.0</ele><time>2026-05-01T14:58:17Z</time></trkpt><trkpt lat="44.60795006990134" lon="9.739812198408131"><ele>419.0</ele><time>2026-05-01T14:58:18Z</time></trkpt><trkpt lat="44.60781276891606" lon="9.73988301231049"><ele>419.0</ele><time>2026-05-01T14:58:19Z</time></trkpt><trkpt lat="44.60768220240485" lon="9.73995631950234"><ele>419.0</ele><time>2026-05-01T14:58:20Z</time></trkpt><trkpt lat="44.60755493220578" lon="9.740030850797107"><ele>419.0</ele><time>2026-05-01T14:58:21Z</time></trkpt><trkpt lat="44.607441962597306" lon="9.74012259180691"><ele>419.0</ele><time>2026-05-01T14:58:22Z</time></trkpt><trkpt lat="44.60734465631419" lon="9.74023887702485"><ele>419.0</ele><time>2026-05-01T14:58:23Z</time></trkpt><trkpt lat="44.60725430353713" lon="9.740386800822312"><ele>419.0</ele><time>2026-05-01T14:58:24Z</time></trkpt><trkpt lat="44.60707153127599" lon="9.740731846687225"><ele>420.66666666666663</ele><time>2026-05-01T14:58:26Z</time></trkpt><trkpt lat="44.6069775972949" lon="9.740913044331307"><ele>422.33333333333337</ele><time>2026-05-01T14:58:27Z</time></trkpt><trkpt lat="44.60687509947282" lon="9.741108635940684"><ele>424.0</ele><time>2026-05-01T14:58:28Z</time></trkpt><trkpt lat="44.60676234520652" lon="9.74130436007018"><ele>424.0</ele><time>2026-05-01T14:58:29Z</time></trkpt><trkpt lat="44.60662650883885" lon="9.74148318291975"><ele>424.0</ele><time>2026-05-01T14:58:30Z</time></trkpt><trkpt lat="44.606470529028705" lon="9.741637595073353"><ele>424.0</ele><time>2026-05-01T14:58:31Z</time></trkpt><trkpt lat="44.606321573263045" lon="9.741773495053403"><ele>424.0</ele><time>2026-05-01T14:58:32Z</time></trkpt><trkpt lat="44.60619056176429" lon="9.74191353898282"><ele>424.0</ele><time>2026-05-01T14:58:33Z</time></trkpt><trkpt lat="44.60606009210713" lon="9.742033037751392"><ele>424.0</ele><time>2026-05-01T14:58:34Z</time></trkpt><trkpt lat="44.60592228525557" lon="9.74213017718771"><ele>424.0</ele><time>2026-05-01T14:58:35Z</time></trkpt><trkpt lat="44.60580319013581" lon="9.742263599052036"><ele>424.0</ele><time>2026-05-01T14:58:36Z</time></trkpt><trkpt lat="44.605671715354646" lon="9.742354255714101"><ele>424.0</ele><time>2026-05-01T14:58:37Z</time></trkpt><trkpt lat="44.60555132472437" lon="9.742463982339356"><ele>424.0</ele><time>2026-05-01T14:58:38Z</time></trkpt><trkpt lat="44.60542470609948" lon="9.742579948740223"><ele>425.33333333333337</ele><time>2026-05-01T14:58:39Z</time></trkpt><trkpt lat="44.60529202990129" lon="9.742701625000333"><ele>426.66666666666663</ele><time>2026-05-01T14:58:40Z</time></trkpt><trkpt lat="44.6051648154355" lon="9.742837640942305"><ele>428.0</ele><time>2026-05-01T14:58:41Z</time></trkpt><trkpt lat="44.605016668369316" lon="9.742937092435197"><ele>428.0</ele><time>2026-05-01T14:58:42Z</time></trkpt><trkpt lat="44.604845931000774" lon="9.742983153393029"><ele>428.0</ele><time>2026-05-01T14:58:43Z</time></trkpt><trkpt lat="44.60467348056662" lon="9.743065532064666"><ele>428.0</ele><time>2026-05-01T14:58:44Z</time></trkpt><trkpt lat="44.60449942240623" lon="9.743117793065837"><ele>429.0</ele><time>2026-05-01T14:58:45Z</time></trkpt><trkpt lat="44.60432009673885" lon="9.743180013631976"><ele>430.0</ele><time>2026-05-01T14:58:46Z</time></trkpt><trkpt lat="44.604132542275224" lon="9.743249937502648"><ele>431.0</ele><time>2026-05-01T14:58:47Z</time></trkpt><trkpt lat="44.60393917547038" lon="9.74332650687285"><ele>431.0</ele><time>2026-05-01T14:58:48Z</time></trkpt><trkpt lat="44.60374585432954" lon="9.743420832104906"><ele>431.0</ele><time>2026-05-01T14:58:49Z</time></trkpt><trkpt lat="44.60355460673607" lon="9.743514910135689"><ele>431.0</ele><time>2026-05-01T14:58:50Z</time></trkpt><trkpt lat="44.60336190623337" lon="9.74360835623324"><ele>430.3333333333333</ele><time>2026-05-01T14:58:51Z</time></trkpt><trkpt lat="44.603173609415876" lon="9.743698288975606"><ele>429.66666666666663</ele><time>2026-05-01T14:58:52Z</time></trkpt><trkpt lat="44.603001111971146" lon="9.743780237052727"><ele>429.0</ele><time>2026-05-01T14:58:53Z</time></trkpt><trkpt lat="44.60283228085637" lon="9.7438408894968"><ele>432.66666666666663</ele><time>2026-05-01T14:58:54Z</time></trkpt><trkpt lat="44.6026727222897" lon="9.743921904143235"><ele>436.3333333333333</ele><time>2026-05-01T14:58:55Z</time></trkpt><trkpt lat="44.6025150827229" lon="9.744026036865119"><ele>440.0</ele><time>2026-05-01T14:58:56Z</time></trkpt><trkpt lat="44.602371748618864" lon="9.744172993491308"><ele>440.0</ele><time>2026-05-01T14:58:57Z</time></trkpt><trkpt lat="44.602221884573424" lon="9.74430929114362"><ele>440.0</ele><time>2026-05-01T14:58:58Z</time></trkpt><trkpt lat="44.60205765232997" lon="9.744420737793321"><ele>440.0</ele><time>2026-05-01T14:58:59Z</time></trkpt><trkpt lat="44.60188535563274" lon="9.744517661876035"><ele>439.3333333333333</ele><time>2026-05-01T14:59:00Z</time></trkpt><trkpt lat="44.60170232239602" lon="9.744606360760935"><ele>438.66666666666663</ele><time>2026-05-01T14:59:01Z</time></trkpt><trkpt lat="44.60151664286765" lon="9.744693277285707"><ele>438.0</ele><time>2026-05-01T14:59:02Z</time></trkpt><trkpt lat="44.601334811728265" lon="9.744778392434805"><ele>441.0</ele><time>2026-05-01T14:59:03Z</time></trkpt><trkpt lat="44.601156940458765" lon="9.744885365043498"><ele>444.0</ele><time>2026-05-01T14:59:04Z</time></trkpt><trkpt lat="44.60097660021088" lon="9.74497134519106"><ele>447.0</ele><time>2026-05-01T14:59:05Z</time></trkpt><trkpt lat="44.60079521550161" lon="9.74505733129337"><ele>447.0</ele><time>2026-05-01T14:59:06Z</time></trkpt><trkpt lat="44.60061657662866" lon="9.745140636710207"><ele>447.0</ele><time>2026-05-01T14:59:07Z</time></trkpt><trkpt lat="44.60043990261296" lon="9.745231488871738"><ele>447.0</ele><time>2026-05-01T14:59:08Z</time></trkpt><trkpt lat="44.60026523434047" lon="9.745298465126377"><ele>450.0</ele><time>2026-05-01T14:59:09Z</time></trkpt><trkpt lat="44.600116460990954" lon="9.745427676732517"><ele>453.0</ele><time>2026-05-01T14:59:10Z</time></trkpt><trkpt lat="44.599979832614295" lon="9.745568214240214"><ele>456.0</ele><time>2026-05-01T14:59:11Z</time></trkpt><trkpt lat="44.599861574440624" lon="9.74575664782919"><ele>456.0</ele><time>2026-05-01T14:59:12Z</time></trkpt><trkpt lat="44.59975320521184" lon="9.745968084872201"><ele>456.0</ele><time>2026-05-01T14:59:13Z</time></trkpt><trkpt lat="44.59962037402308" lon="9.746157941891372"><ele>456.0</ele><time>2026-05-01T14:59:14Z</time></trkpt><trkpt lat="44.59948591977524" lon="9.746356083920693"><ele>456.0</ele><time>2026-05-01T14:59:15Z</time></trkpt><trkpt lat="44.59935313773138" lon="9.746560650168117"><ele>456.0</ele><time>2026-05-01T14:59:16Z</time></trkpt><trkpt lat="44.59922553893419" lon="9.74676403289056"><ele>456.0</ele><time>2026-05-01T14:59:17Z</time></trkpt><trkpt lat="44.599094942318374" lon="9.7469738553478"><ele>456.0</ele><time>2026-05-01T14:59:18Z</time></trkpt><trkpt lat="44.59896491977516" lon="9.747184808552136"><ele>456.0</ele><time>2026-05-01T14:59:19Z</time></trkpt><trkpt lat="44.598852644081056" lon="9.747400414866084"><ele>456.0</ele><time>2026-05-01T14:59:20Z</time></trkpt><trkpt lat="44.59872018891333" lon="9.747581794793085"><ele>455.66666666666663</ele><time>2026-05-01T14:59:21Z</time></trkpt><trkpt lat="44.59860183020433" lon="9.747745787724101"><ele>455.3333333333333</ele><time>2026-05-01T14:59:22Z</time></trkpt><trkpt lat="44.598474706299484" lon="9.747877656581709"><ele>455.0</ele><time>2026-05-01T14:59:23Z</time></trkpt><trkpt lat="44.59833842253187" lon="9.747943617141665"><ele>455.0</ele><time>2026-05-01T14:59:24Z</time></trkpt><trkpt lat="44.598181549124625" lon="9.747982422635301"><ele>455.0</ele><time>2026-05-01T14:59:25Z</time></trkpt><trkpt lat="44.59802431698871" lon="9.748050019323703"><ele>455.0</ele><time>2026-05-01T14:59:26Z</time></trkpt><trkpt lat="44.59787042687324" lon="9.748124941073202"><ele>461.3333333333333</ele><time>2026-05-01T14:59:27Z</time></trkpt><trkpt lat="44.59771885028347" lon="9.748243693048634"><ele>467.66666666666663</ele><time>2026-05-01T14:59:28Z</time></trkpt><trkpt lat="44.59756809947488" lon="9.748368769707007"><ele>474.0</ele><time>2026-05-01T14:59:29Z</time></trkpt><trkpt lat="44.597418433891704" lon="9.748479542340396"><ele>476.25</ele><time>2026-05-01T14:59:30Z</time></trkpt><trkpt lat="44.59728807684301" lon="9.74858390289562"><ele>478.5</ele><time>2026-05-01T14:59:31Z</time></trkpt><trkpt lat="44.59717128886841" lon="9.748668038149903"><ele>480.75</ele><time>2026-05-01T14:59:32Z</time></trkpt><trkpt lat="44.597041839757" lon="9.748722504824974"><ele>483.0</ele><time>2026-05-01T14:59:33Z</time></trkpt><trkpt lat="44.59692539837498" lon="9.74882238774484"><ele>483.0</ele><time>2026-05-01T14:59:34Z</time></trkpt><trkpt lat="44.59680538089313" lon="9.74890753122736"><ele>483.0</ele><time>2026-05-01T14:59:35Z</time></trkpt><trkpt lat="44.596689103038855" lon="9.748985622916852"><ele>483.0</ele><time>2026-05-01T14:59:36Z</time></trkpt><trkpt lat="44.59661135034148" lon="9.749123163384136"><ele>483.0</ele><time>2026-05-01T14:59:37Z</time></trkpt><trkpt lat="44.59653498174123" lon="9.749250712708664"><ele>480.5</ele><time>2026-05-01T14:59:38Z</time></trkpt><trkpt lat="44.596515103021616" lon="9.749438225799983"><ele>478.0</ele><time>2026-05-01T14:59:39Z</time></trkpt><trkpt lat="44.59649597073311" lon="9.749628720245074"><ele>475.5</ele><time>2026-05-01T14:59:40Z</time></trkpt><trkpt lat="44.596461438530284" lon="9.749821709435933"><ele>473.0</ele><time>2026-05-01T14:59:41Z</time></trkpt><trkpt lat="44.596415735518484" lon="9.749983292784096"><ele>473.0</ele><time>2026-05-01T14:59:42Z</time></trkpt><trkpt lat="44.59634092277728" lon="9.750109739617747"><ele>473.0</ele><time>2026-05-01T14:59:43Z</time></trkpt><trkpt lat="44.59623018286876" lon="9.750200145180024"><ele>473.0</ele><time>2026-05-01T14:59:44Z</time></trkpt><trkpt lat="44.59608951409361" lon="9.75029944408399"><ele>473.0</ele><time>2026-05-01T14:59:45Z</time></trkpt><trkpt lat="44.59593899846153" lon="9.750434788027084"><ele>475.3333333333333</ele><time>2026-05-01T14:59:46Z</time></trkpt><trkpt lat="44.59576790546626" lon="9.750560624540135"><ele>477.66666666666663</ele><time>2026-05-01T14:59:47Z</time></trkpt><trkpt lat="44.59558379994868" lon="9.75071348771944"><ele>480.0</ele><time>2026-05-01T14:59:48Z</time></trkpt><trkpt lat="44.59538046722321" lon="9.750846909379352"><ele>483.33333333333337</ele><time>2026-05-01T14:59:49Z</time></trkpt><trkpt lat="44.59519718832194" lon="9.750987566464843"><ele>486.6666666666667</ele><time>2026-05-01T14:59:50Z</time></trkpt><trkpt lat="44.59503023867457" lon="9.751117793552488"><ele>490.0</ele><time>2026-05-01T14:59:51Z</time></trkpt><trkpt lat="44.59488366348537" lon="9.751226665283248"><ele>490.0</ele><time>2026-05-01T14:59:52Z</time></trkpt><trkpt lat="44.594744459148764" lon="9.7512999090131"><ele>490.0</ele><time>2026-05-01T14:59:53Z</time></trkpt><trkpt lat="44.594586908425995" lon="9.751337681084514"><ele>490.0</ele><time>2026-05-01T14:59:54Z</time></trkpt><trkpt lat="44.59440706300136" lon="9.751367460667371"><ele>492.6666666666667</ele><time>2026-05-01T14:59:55Z</time></trkpt><trkpt lat="44.594224332657014" lon="9.751406605794177"><ele>495.33333333333337</ele><time>2026-05-01T14:59:56Z</time></trkpt><trkpt lat="44.59403347645326" lon="9.751376223509022"><ele>498.0</ele><time>2026-05-01T14:59:57Z</time></trkpt><trkpt lat="44.593846385196926" lon="9.751326943485285"><ele>498.0</ele><time>2026-05-01T14:59:58Z</time></trkpt><trkpt lat="44.59367665224167" lon="9.751267253377438"><ele>498.0</ele><time>2026-05-01T14:59:59Z</time></trkpt><trkpt lat="44.593529560339746" lon="9.751216351100142"><ele>498.0</ele><time>2026-05-01T15:00:00Z</time></trkpt><trkpt lat="44.593408237997245" lon="9.751140689591917"><ele>499.0</ele><time>2026-05-01T15:00:01Z</time></trkpt><trkpt lat="44.593281817539804" lon="9.751098431140065"><ele>500.0</ele><time>2026-05-01T15:00:02Z</time></trkpt><trkpt lat="44.59315704341145" lon="9.751091301842191"><ele>501.0</ele><time>2026-05-01T15:00:03Z</time></trkpt><trkpt lat="44.59304464528408" lon="9.751152059982518"><ele>502.0</ele><time>2026-05-01T15:00:04Z</time></trkpt><trkpt lat="44.592940012891304" lon="9.751247580308322"><ele>505.33333333333337</ele><time>2026-05-01T15:00:05Z</time></trkpt><trkpt lat="44.59283452970327" lon="9.75136966267642"><ele>508.66666666666663</ele><time>2026-05-01T15:00:06Z</time></trkpt><trkpt lat="44.59268790493361" lon="9.751430175590787"><ele>512.0</ele><time>2026-05-01T15:00:07Z</time></trkpt><trkpt lat="44.5925273847104" lon="9.751495594888778"><ele>512.0</ele><time>2026-05-01T15:00:08Z</time></trkpt><trkpt lat="44.59236603759056" lon="9.751566600374844"><ele>512.0</ele><time>2026-05-01T15:00:09Z</time></trkpt><trkpt lat="44.592181597697504" lon="9.751574014446275"><ele>512.0</ele><time>2026-05-01T15:00:10Z</time></trkpt><trkpt lat="44.59199870595672" lon="9.75157369283591"><ele>514.6666666666666</ele><time>2026-05-01T15:00:11Z</time></trkpt><trkpt lat="44.59183572086866" lon="9.751562320663362"><ele>517.3333333333334</ele><time>2026-05-01T15:00:12Z</time></trkpt><trkpt lat="44.59169252624857" lon="9.751569272077834"><ele>520.0</ele><time>2026-05-01T15:00:13Z</time></trkpt><trkpt lat="44.59154723526297" lon="9.751574578764611"><ele>520.0</ele><time>2026-05-01T15:00:14Z</time></trkpt><trkpt lat="44.59140117560394" lon="9.751627355923013"><ele>520.0</ele><time>2026-05-01T15:00:15Z</time></trkpt><trkpt lat="44.591260283226724" lon="9.751712223204848"><ele>520.0</ele><time>2026-05-01T15:00:16Z</time></trkpt><trkpt lat="44.59113008787663" lon="9.75184509078283"><ele>521.0</ele><time>2026-05-01T15:00:17Z</time></trkpt><trkpt lat="44.59098633779271" lon="9.751998548644794"><ele>522.0</ele><time>2026-05-01T15:00:18Z</time></trkpt><trkpt lat="44.59086550835702" lon="9.752164873831227"><ele>523.0</ele><time>2026-05-01T15:00:19Z</time></trkpt><trkpt lat="44.59075282445657" lon="9.752300610009472"><ele>523.0</ele><time>2026-05-01T15:00:20Z</time></trkpt><trkpt lat="44.59064203106862" lon="9.752388677237196"><ele>523.0</ele><time>2026-05-01T15:00:21Z</time></trkpt><trkpt lat="44.590528451595794" lon="9.752423300213373"><ele>523.0</ele><time>2026-05-01T15:00:22Z</time></trkpt><trkpt lat="44.59041837161783" lon="9.752437248977621"><ele>523.0</ele><time>2026-05-01T15:00:23Z</time></trkpt><trkpt lat="44.59029067013203" lon="9.75243235007176"><ele>526.75</ele><time>2026-05-01T15:00:24Z</time></trkpt><trkpt lat="44.5901533907666" lon="9.752395219552705"><ele>530.5</ele><time>2026-05-01T15:00:25Z</time></trkpt><trkpt lat="44.590035413632336" lon="9.752283924819054"><ele>534.25</ele><time>2026-05-01T15:00:26Z</time></trkpt><trkpt lat="44.58995102771043" lon="9.752164321687717"><ele>538.0</ele><time>2026-05-01T15:00:27Z</time></trkpt><trkpt lat="44.58991526021126" lon="9.752029890590947"><ele>538.0</ele><time>2026-05-01T15:00:28Z</time></trkpt><trkpt lat="44.58991261653835" lon="9.751884924457519"><ele>538.0</ele><time>2026-05-01T15:00:29Z</time></trkpt><trkpt lat="44.5899897057488" lon="9.751736121881718"><ele>538.0</ele><time>2026-05-01T15:00:30Z</time></trkpt><trkpt lat="44.590069575633805" lon="9.7515762332558"><ele>538.0</ele><time>2026-05-01T15:00:31Z</time></trkpt><trkpt lat="44.59016582206359" lon="9.75143912096069"><ele>538.75</ele><time>2026-05-01T15:00:32Z</time></trkpt><trkpt lat="44.590208236025724" lon="9.751255236180135"><ele>539.5</ele><time>2026-05-01T15:00:33Z</time></trkpt><trkpt lat="44.59020440141186" lon="9.751045887744922"><ele>540.25</ele><time>2026-05-01T15:00:34Z</time></trkpt><trkpt lat="44.590191473399294" lon="9.750838603766306"><ele>541.0</ele><time>2026-05-01T15:00:35Z</time></trkpt><trkpt lat="44.590227758285955" lon="9.750679218366308"><ele>541.0</ele><time>2026-05-01T15:00:36Z</time></trkpt><trkpt lat="44.59030415378413" lon="9.750568397641347"><ele>541.0</ele><time>2026-05-01T15:00:37Z</time></trkpt><trkpt lat="44.59040153309119" lon="9.750516589277225"><ele>541.0</ele><time>2026-05-01T15:00:38Z</time></trkpt><trkpt lat="44.590498709253005" lon="9.750483745221041"><ele>541.0</ele><time>2026-05-01T15:00:39Z</time></trkpt><trkpt lat="44.590575427987986" lon="9.75039507638865"><ele>541.0</ele><time>2026-05-01T15:00:40Z</time></trkpt><trkpt lat="44.590606823550694" lon="9.750268410361977"><ele>543.6</ele><time>2026-05-01T15:00:41Z</time></trkpt><trkpt lat="44.59060292065696" lon="9.75012862270457"><ele>546.2</ele><time>2026-05-01T15:00:42Z</time></trkpt><trkpt lat="44.59055819932808" lon="9.7500076492169"><ele>548.8</ele><time>2026-05-01T15:00:43Z</time></trkpt><trkpt lat="44.590492943912494" lon="9.749909126333145"><ele>551.4</ele><time>2026-05-01T15:00:44Z</time></trkpt><trkpt lat="44.59039341052123" lon="9.749856974785969"><ele>554.0</ele><time>2026-05-01T15:00:45Z</time></trkpt><trkpt lat="44.59025610311966" lon="9.749893747767874"><ele>551.6666666666666</ele><time>2026-05-01T15:00:46Z</time></trkpt><trkpt lat="44.59011904720121" lon="9.750009447984876"><ele>549.3333333333334</ele><time>2026-05-01T15:00:47Z</time></trkpt><trkpt lat="44.58997250995844" lon="9.750126297979758"><ele>547.0</ele><time>2026-05-01T15:00:48Z</time></trkpt><trkpt lat="44.58980740195749" lon="9.750250472370364"><ele>547.0</ele><time>2026-05-01T15:00:49Z</time></trkpt><trkpt lat="44.58962383711093" lon="9.750327474572261"><ele>547.0</ele><time>2026-05-01T15:00:50Z</time></trkpt><trkpt lat="44.5894530260429" lon="9.750364142527578"><ele>547.0</ele><time>2026-05-01T15:00:51Z</time></trkpt><trkpt lat="44.58930147725637" lon="9.750408596046574"><ele>551.25</ele><time>2026-05-01T15:00:52Z</time></trkpt><trkpt lat="44.58917180823958" lon="9.75048320357078"><ele>555.5</ele><time>2026-05-01T15:00:53Z</time></trkpt><trkpt lat="44.58907891880645" lon="9.750605442161143"><ele>559.75</ele><time>2026-05-01T15:00:54Z</time></trkpt><trkpt lat="44.58903366546928" lon="9.75074610457683"><ele>564.0</ele><time>2026-05-01T15:00:55Z</time></trkpt><trkpt lat="44.58903639127068" lon="9.7508867977547"><ele>564.0</ele><time>2026-05-01T15:00:56Z</time></trkpt><trkpt lat="44.589078552893554" lon="9.751027771679317"><ele>564.0</ele><time>2026-05-01T15:00:57Z</time></trkpt><trkpt lat="44.58912790515623" lon="9.751165437767824"><ele>564.0</ele><time>2026-05-01T15:00:58Z</time></trkpt><trkpt lat="44.58912514941006" lon="9.751293379178627"><ele>564.0</ele><time>2026-05-01T15:00:59Z</time></trkpt><trkpt lat="44.589049908977415" lon="9.751390446779078"><ele>564.0</ele><time>2026-05-01T15:01:00Z</time></trkpt><trkpt lat="44.58893890446924" lon="9.751410626237853"><ele>562.75</ele><time>2026-05-01T15:01:01Z</time></trkpt><trkpt lat="44.58884014227866" lon="9.751389804856371"><ele>561.5</ele><time>2026-05-01T15:01:02Z</time></trkpt><trkpt lat="44.58872536304494" lon="9.75132889150837"><ele>560.25</ele><time>2026-05-01T15:01:03Z</time></trkpt><trkpt lat="44.588581632579086" lon="9.751296467028101"><ele>559.0</ele><time>2026-05-01T15:01:04Z</time></trkpt><trkpt lat="44.588410507933645" lon="9.75129308755263"><ele>563.3333333333334</ele><time>2026-05-01T15:01:05Z</time></trkpt><trkpt lat="44.58821533475548" lon="9.751353410340649"><ele>567.6666666666666</ele><time>2026-05-01T15:01:06Z</time></trkpt><trkpt lat="44.58802684778381" lon="9.751422040118953"><ele>572.0</ele><time>2026-05-01T15:01:07Z</time></trkpt><trkpt lat="44.587867120836684" lon="9.751464146042261"><ele>572.25</ele><time>2026-05-01T15:01:08Z</time></trkpt><trkpt lat="44.587730662010266" lon="9.751490380879389"><ele>572.5</ele><time>2026-05-01T15:01:09Z</time></trkpt><trkpt lat="44.58761183400802" lon="9.751480960813302"><ele>572.75</ele><time>2026-05-01T15:01:10Z</time></trkpt><trkpt lat="44.587522179547896" lon="9.751404246992236"><ele>573.0</ele><time>2026-05-01T15:01:11Z</time></trkpt><trkpt lat="44.58747132695558" lon="9.751245086606039"><ele>573.0</ele><time>2026-05-01T15:01:12Z</time></trkpt><trkpt lat="44.587400353847386" lon="9.751068032695828"><ele>573.0</ele><time>2026-05-01T15:01:13Z</time></trkpt><trkpt lat="44.58732695760522" lon="9.750876667419549"><ele>573.0</ele><time>2026-05-01T15:01:14Z</time></trkpt><trkpt lat="44.587241164585464" lon="9.750724959916962"><ele>573.0</ele><time>2026-05-01T15:01:15Z</time></trkpt><trkpt lat="44.58714515865952" lon="9.750623104723969"><ele>578.0</ele><time>2026-05-01T15:01:16Z</time></trkpt><trkpt lat="44.58702342738364" lon="9.75058004336887"><ele>583.0</ele><time>2026-05-01T15:01:17Z</time></trkpt><trkpt lat="44.58687195484284" lon="9.750553104951896"><ele>588.0</ele><time>2026-05-01T15:01:18Z</time></trkpt><trkpt lat="44.58669198059881" lon="9.750549027748999"><ele>588.0</ele><time>2026-05-01T15:01:19Z</time></trkpt><trkpt lat="44.58649815476749" lon="9.750546484806408"><ele>588.0</ele><time>2026-05-01T15:01:20Z</time></trkpt><trkpt lat="44.58630866821202" lon="9.750537803323448"><ele>588.0</ele><time>2026-05-01T15:01:21Z</time></trkpt><trkpt lat="44.586139512783625" lon="9.750524215842386"><ele>589.5</ele><time>2026-05-01T15:01:22Z</time></trkpt><trkpt lat="44.58599518142291" lon="9.75051398618184"><ele>591.0</ele><time>2026-05-01T15:01:23Z</time></trkpt><trkpt lat="44.58586631420994" lon="9.750504964751183"><ele>592.5</ele><time>2026-05-01T15:01:24Z</time></trkpt><trkpt lat="44.58574078703373" lon="9.750478606720042"><ele>594.0</ele><time>2026-05-01T15:01:25Z</time></trkpt><trkpt lat="44.585623781081054" lon="9.75038477536884"><ele>594.0</ele><time>2026-05-01T15:01:26Z</time></trkpt><trkpt lat="44.58551266441248" lon="9.75024027978188"><ele>594.0</ele><time>2026-05-01T15:01:27Z</time></trkpt><trkpt lat="44.58540586595984" lon="9.750061536771158"><ele>594.0</ele><time>2026-05-01T15:01:28Z</time></trkpt><trkpt lat="44.58527835922203" lon="9.74987874770261"><ele>596.0</ele><time>2026-05-01T15:01:29Z</time></trkpt><trkpt lat="44.58516266967317" lon="9.749690015604372"><ele>598.0</ele><time>2026-05-01T15:01:30Z</time></trkpt><trkpt lat="44.58504851101116" lon="9.74951290459713"><ele>600.0</ele><time>2026-05-01T15:01:31Z</time></trkpt><trkpt lat="44.58494004035256" lon="9.749336529633123"><ele>603.0</ele><time>2026-05-01T15:01:32Z</time></trkpt><trkpt lat="44.584823276146054" lon="9.749169597085068"><ele>606.0</ele><time>2026-05-01T15:01:33Z</time></trkpt><trkpt lat="44.58469143018695" lon="9.749032355037103"><ele>609.0</ele><time>2026-05-01T15:01:34Z</time></trkpt><trkpt lat="44.58454332199728" lon="9.748947235113826"><ele>609.3333333333334</ele><time>2026-05-01T15:01:35Z</time></trkpt><trkpt lat="44.58437830492036" lon="9.748887383607682"><ele>609.6666666666667</ele><time>2026-05-01T15:01:36Z</time></trkpt><trkpt lat="44.58420755923003" lon="9.748830185741252"><ele>610.0</ele><time>2026-05-01T15:01:37Z</time></trkpt><trkpt lat="44.58403929881338" lon="9.748773455025898"><ele>610.0</ele><time>2026-05-01T15:01:38Z</time></trkpt><trkpt lat="44.583887543446046" lon="9.748714042412491"><ele>610.0</ele><time>2026-05-01T15:01:39Z</time></trkpt><trkpt lat="44.58376096186813" lon="9.748647525507357"><ele>610.0</ele><time>2026-05-01T15:01:40Z</time></trkpt><trkpt lat="44.58366319676094" lon="9.748548287462405"><ele>610.0</ele><time>2026-05-01T15:01:41Z</time></trkpt><trkpt lat="44.58357419774799" lon="9.748477970199849"><ele>611.0</ele><time>2026-05-01T15:01:42Z</time></trkpt><trkpt lat="44.58348916816041" lon="9.748408173359328"><ele>612.0</ele><time>2026-05-01T15:01:43Z</time></trkpt><trkpt lat="44.58349203581257" lon="9.747979672847416"><ele>613.0</ele><time>2026-05-01T15:01:44Z</time></trkpt><trkpt lat="44.583427827472875" lon="9.747739210569577"><ele>616.3333333333334</ele><time>2026-05-01T15:01:45Z</time></trkpt><trkpt lat="44.58337115313913" lon="9.747509851708676"><ele>619.6666666666666</ele><time>2026-05-01T15:01:46Z</time></trkpt><trkpt lat="44.583330262938546" lon="9.747304229491533"><ele>623.0</ele><time>2026-05-01T15:01:47Z</time></trkpt><trkpt lat="44.58328706137359" lon="9.747115559864184"><ele>623.0</ele><time>2026-05-01T15:01:48Z</time></trkpt><trkpt lat="44.583228730957906" lon="9.746935944570978"><ele>623.0</ele><time>2026-05-01T15:01:49Z</time></trkpt><trkpt lat="44.5831421853042" lon="9.746772405324633"><ele>623.0</ele><time>2026-05-01T15:01:50Z</time></trkpt><trkpt lat="44.58301858285214" lon="9.746645947168538"><ele>623.0</ele><time>2026-05-01T15:01:51Z</time></trkpt><trkpt lat="44.582869543841205" lon="9.746546682717032"><ele>624.6666666666666</ele><time>2026-05-01T15:01:52Z</time></trkpt><trkpt lat="44.58271199893264" lon="9.74644809174782"><ele>626.3333333333334</ele><time>2026-05-01T15:01:53Z</time></trkpt><trkpt lat="44.58257035251426" lon="9.74634855431613"><ele>628.0</ele><time>2026-05-01T15:01:54Z</time></trkpt><trkpt lat="44.58244054505323" lon="9.746270828241698"><ele>628.0</ele><time>2026-05-01T15:01:55Z</time></trkpt><trkpt lat="44.58232256776586" lon="9.74625151437414"><ele>628.0</ele><time>2026-05-01T15:01:56Z</time></trkpt><trkpt lat="44.582204811362864" lon="9.74629508207843"><ele>628.0</ele><time>2026-05-01T15:01:57Z</time></trkpt><trkpt lat="44.58208802642206" lon="9.746395627485512"><ele>628.0</ele><time>2026-05-01T15:01:58Z</time></trkpt><trkpt lat="44.58197367992985" lon="9.746544331642099"><ele>628.3333333333334</ele><time>2026-05-01T15:01:59Z</time></trkpt><trkpt lat="44.581839409564644" lon="9.746710208036482"><ele>628.6666666666666</ele><time>2026-05-01T15:02:00Z</time></trkpt><trkpt lat="44.5816850916093" lon="9.746848886034417"><ele>629.0</ele><time>2026-05-01T15:02:01Z</time></trkpt><trkpt lat="44.58149922978595" lon="9.746971240000748"><ele>629.0</ele><time>2026-05-01T15:02:02Z</time></trkpt><trkpt lat="44.5813031295343" lon="9.747082312320716"><ele>629.0</ele><time>2026-05-01T15:02:03Z</time></trkpt><trkpt lat="44.58113258686549" lon="9.747163939777938"><ele>629.0</ele><time>2026-05-01T15:02:04Z</time></trkpt><trkpt lat="44.58098076673748" lon="9.747238310304224"><ele>631.5</ele><time>2026-05-01T15:02:05Z</time></trkpt><trkpt lat="44.58084723846349" lon="9.747315883844704"><ele>634.0</ele><time>2026-05-01T15:02:06Z</time></trkpt><trkpt lat="44.58072306717014" lon="9.747373305525736"><ele>636.5</ele><time>2026-05-01T15:02:07Z</time></trkpt><trkpt lat="44.58059884799727" lon="9.747379275938204"><ele>639.0</ele><time>2026-05-01T15:02:08Z</time></trkpt><trkpt lat="44.580482360204" lon="9.747320643815376"><ele>639.0</ele><time>2026-05-01T15:02:09Z</time></trkpt><trkpt lat="44.58039331944812" lon="9.747193881381488"><ele>639.0</ele><time>2026-05-01T15:02:10Z</time></trkpt><trkpt lat="44.58030285113009" lon="9.747030850759549"><ele>639.0</ele><time>2026-05-01T15:02:11Z</time></trkpt><trkpt lat="44.580195662893004" lon="9.746864529106126"><ele>639.0</ele><time>2026-05-01T15:02:12Z</time></trkpt><trkpt lat="44.58008608940029" lon="9.746710815212493"><ele>641.5</ele><time>2026-05-01T15:02:13Z</time></trkpt><trkpt lat="44.57999005069738" lon="9.746592069166779"><ele>644.0</ele><time>2026-05-01T15:02:14Z</time></trkpt><trkpt lat="44.579877368719" lon="9.746537524838459"><ele>646.5</ele><time>2026-05-01T15:02:15Z</time></trkpt><trkpt lat="44.579747544606505" lon="9.746530892196326"><ele>649.0</ele><time>2026-05-01T15:02:16Z</time></trkpt><trkpt lat="44.57961235270683" lon="9.746586371104291"><ele>650.75</ele><time>2026-05-01T15:02:17Z</time></trkpt><trkpt lat="44.57946981145273" lon="9.746669675147642"><ele>652.5</ele><time>2026-05-01T15:02:18Z</time></trkpt><trkpt lat="44.57933283285019" lon="9.74672270022269"><ele>654.25</ele><time>2026-05-01T15:02:19Z</time></trkpt><trkpt lat="44.57920477058211" lon="9.746764522461106"><ele>656.0</ele><time>2026-05-01T15:02:20Z</time></trkpt><trkpt lat="44.57907942433638" lon="9.746781405885017"><ele>656.0</ele><time>2026-05-01T15:02:21Z</time></trkpt><trkpt lat="44.57896968229019" lon="9.746724156269917"><ele>656.0</ele><time>2026-05-01T15:02:22Z</time></trkpt><trkpt lat="44.57888643857227" lon="9.74658946447962"><ele>656.0</ele><time>2026-05-01T15:02:23Z</time></trkpt><trkpt lat="44.57882366623585" lon="9.746406381709104"><ele>656.0</ele><time>2026-05-01T15:02:24Z</time></trkpt><trkpt lat="44.57876638350268" lon="9.746230844904657"><ele>654.75</ele><time>2026-05-01T15:02:25Z</time></trkpt><trkpt lat="44.5786780278498" lon="9.746095327019429"><ele>653.5</ele><time>2026-05-01T15:02:26Z</time></trkpt><trkpt lat="44.57858759981706" lon="9.745990832050532"><ele>652.25</ele><time>2026-05-01T15:02:27Z</time></trkpt><trkpt lat="44.57843982268093" lon="9.745986481067138"><ele>651.0</ele><time>2026-05-01T15:02:28Z</time></trkpt><trkpt lat="44.57831623155162" lon="9.746051783787927"><ele>651.0</ele><time>2026-05-01T15:02:29Z</time></trkpt><trkpt lat="44.57821175349643" lon="9.74616940225736"><ele>651.0</ele><time>2026-05-01T15:02:30Z</time></trkpt><trkpt lat="44.57809922761811" lon="9.746310887966251"><ele>651.0</ele><time>2026-05-01T15:02:31Z</time></trkpt><trkpt lat="44.57797146528586" lon="9.746435015721405"><ele>651.0</ele><time>2026-05-01T15:02:32Z</time></trkpt><trkpt lat="44.577860979807205" lon="9.746528187917816"><ele>651.75</ele><time>2026-05-01T15:02:33Z</time></trkpt><trkpt lat="44.57774491506552" lon="9.74649047331161"><ele>652.5</ele><time>2026-05-01T15:02:34Z</time></trkpt><trkpt lat="44.5776335046222" lon="9.746399729203295"><ele>653.25</ele><time>2026-05-01T15:02:35Z</time></trkpt><trkpt lat="44.57751642025712" lon="9.746249808300142"><ele>654.0</ele><time>2026-05-01T15:02:36Z</time></trkpt><trkpt lat="44.5773823134356" lon="9.746101058391714"><ele>657.25</ele><time>2026-05-01T15:02:37Z</time></trkpt><trkpt lat="44.5772476439629" lon="9.745976213629222"><ele>660.5</ele><time>2026-05-01T15:02:38Z</time></trkpt><trkpt lat="44.5771378573433" lon="9.745863097408868"><ele>663.75</ele><time>2026-05-01T15:02:39Z</time></trkpt><trkpt lat="44.57705953928378" lon="9.745731621483971"><ele>667.0</ele><time>2026-05-01T15:02:40Z</time></trkpt><trkpt lat="44.57703657043288" lon="9.74556242703221"><ele>667.0</ele><time>2026-05-01T15:02:41Z</time></trkpt><trkpt lat="44.577036274479944" lon="9.745337278318"><ele>667.0</ele><time>2026-05-01T15:02:42Z</time></trkpt><trkpt lat="44.57701543259823" lon="9.745108868970826"><ele>667.0</ele><time>2026-05-01T15:02:43Z</time></trkpt><trkpt lat="44.576993235918536" lon="9.74490350596175"><ele>668.0</ele><time>2026-05-01T15:02:44Z</time></trkpt><trkpt lat="44.576972758852314" lon="9.744721368913128"><ele>669.0</ele><time>2026-05-01T15:02:45Z</time></trkpt><trkpt lat="44.576940549179966" lon="9.744546404922353"><ele>670.0</ele><time>2026-05-01T15:02:46Z</time></trkpt><trkpt lat="44.5768945145738" lon="9.74438105419286"><ele>671.0</ele><time>2026-05-01T15:02:47Z</time></trkpt><trkpt lat="44.57680694096201" lon="9.744264570461722"><ele>671.0</ele><time>2026-05-01T15:02:48Z</time></trkpt><trkpt lat="44.57668019897945" lon="9.74418691024904"><ele>671.0</ele><time>2026-05-01T15:02:49Z</time></trkpt><trkpt lat="44.57651909353453" lon="9.744136383963735"><ele>671.0</ele><time>2026-05-01T15:02:50Z</time></trkpt><trkpt lat="44.576353765266134" lon="9.744029975639563"><ele>666.0</ele><time>2026-05-01T15:02:51Z</time></trkpt><trkpt lat="44.57618278555997" lon="9.743939259560923"><ele>661.0</ele><time>2026-05-01T15:02:52Z</time></trkpt><trkpt lat="44.57602132085035" lon="9.743855702313862"><ele>656.0</ele><time>2026-05-01T15:02:53Z</time></trkpt><trkpt lat="44.57587265765362" lon="9.74376132252008"><ele>656.0</ele><time>2026-05-01T15:02:54Z</time></trkpt><trkpt lat="44.5757490110621" lon="9.74365728783874"><ele>656.0</ele><time>2026-05-01T15:02:54.999Z</time></trkpt><trkpt lat="44.57563430562217" lon="9.743534387115913"><ele>656.0</ele><time>2026-05-01T15:02:55.999Z</time></trkpt><trkpt lat="44.57551407824593" lon="9.743379302706591"><ele>655.6666666666666</ele><time>2026-05-01T15:02:56.999Z</time></trkpt><trkpt lat="44.575403419101015" lon="9.743203480024501"><ele>655.3333333333334</ele><time>2026-05-01T15:02:57.999Z</time></trkpt><trkpt lat="44.57531625158598" lon="9.743028425584816"><ele>655.0</ele><time>2026-05-01T15:02:58.999Z</time></trkpt><trkpt lat="44.5751983134057" lon="9.742854381862418"><ele>661.3333333333334</ele><time>2026-05-01T15:02:59.999Z</time></trkpt><trkpt lat="44.57509279551523" lon="9.74269896743733"><ele>667.6666666666666</ele><time>2026-05-01T15:03:00.999Z</time></trkpt><trkpt lat="44.57497636421335" lon="9.742570779132523"><ele>674.0</ele><time>2026-05-01T15:03:01.999Z</time></trkpt><trkpt lat="44.5748448756423" lon="9.742452920824784"><ele>674.0</ele><time>2026-05-01T15:03:02.999Z</time></trkpt><trkpt lat="44.57468694527954" lon="9.742358685953393"><ele>674.0</ele><time>2026-05-01T15:03:03.999Z</time></trkpt><trkpt lat="44.57451651430658" lon="9.742289124424333"><ele>674.0</ele><time>2026-05-01T15:03:04.999Z</time></trkpt><trkpt lat="44.57434738721096" lon="9.74225899282932"><ele>671.6666666666666</ele><time>2026-05-01T15:03:05.999Z</time></trkpt><trkpt lat="44.57417556094329" lon="9.742247033509225"><ele>669.3333333333334</ele><time>2026-05-01T15:03:06.999Z</time></trkpt><trkpt lat="44.57401096005009" lon="9.742240008286043"><ele>667.0</ele><time>2026-05-01T15:03:07.999Z</time></trkpt><trkpt lat="44.573854980135096" lon="9.742208090666006"><ele>667.0</ele><time>2026-05-01T15:03:08.999Z</time></trkpt><trkpt lat="44.573716420056826" lon="9.742140374876648"><ele>667.0</ele><time>2026-05-01T15:03:09.999Z</time></trkpt><trkpt lat="44.57358385858824" lon="9.742023157183581"><ele>667.0</ele><time>2026-05-01T15:03:10.999Z</time></trkpt><trkpt lat="44.57345056112395" lon="9.74189011026901"><ele>670.6666666666667</ele><time>2026-05-01T15:03:12Z</time></trkpt><trkpt lat="44.57333340242375" lon="9.741756163995792"><ele>674.3333333333334</ele><time>2026-05-01T15:03:13Z</time></trkpt><trkpt lat="44.573240667472525" lon="9.741587397507233"><ele>678.0</ele><time>2026-05-01T15:03:14Z</time></trkpt><trkpt lat="44.573173942903054" lon="9.741386474066266"><ele>678.0</ele><time>2026-05-01T15:03:15Z</time></trkpt><trkpt lat="44.57311272185232" lon="9.741193834354657"><ele>678.0</ele><time>2026-05-01T15:03:16Z</time></trkpt><trkpt lat="44.57300888041944" lon="9.741035723291633"><ele>678.0</ele><time>2026-05-01T15:03:17Z</time></trkpt><trkpt lat="44.57287508759411" lon="9.74090419424636"><ele>678.3333333333334</ele><time>2026-05-01T15:03:18Z</time></trkpt><trkpt lat="44.572717299841926" lon="9.740802435808716"><ele>678.6666666666667</ele><time>2026-05-01T15:03:19Z</time></trkpt><trkpt lat="44.572573428557426" lon="9.740717576156312"><ele>679.0</ele><time>2026-05-01T15:03:20Z</time></trkpt><trkpt lat="44.57243400578822" lon="9.740620016279413"><ele>679.0</ele><time>2026-05-01T15:03:21Z</time></trkpt><trkpt lat="44.57228605548136" lon="9.740491169099592"><ele>679.0</ele><time>2026-05-01T15:03:22Z</time></trkpt><trkpt lat="44.57214047388067" lon="9.740352104031482"><ele>679.0</ele><time>2026-05-01T15:03:23Z</time></trkpt><trkpt lat="44.57200948246318" lon="9.740237408800036"><ele>680.25</ele><time>2026-05-01T15:03:24Z</time></trkpt><trkpt lat="44.571893596262974" lon="9.740139960448108"><ele>681.5</ele><time>2026-05-01T15:03:25Z</time></trkpt><trkpt lat="44.571794534926056" lon="9.740031557573205"><ele>682.75</ele><time>2026-05-01T15:03:26Z</time></trkpt><trkpt lat="44.571722416355016" lon="9.739899477040314"><ele>684.0</ele><time>2026-05-01T15:03:27Z</time></trkpt><trkpt lat="44.571680136326925" lon="9.739734542612595"><ele>684.0</ele><time>2026-05-01T15:03:28Z</time></trkpt><trkpt lat="44.57165553052505" lon="9.739537923957139"><ele>684.0</ele><time>2026-05-01T15:03:29Z</time></trkpt><trkpt lat="44.5716318116331" lon="9.739332024362728"><ele>684.0</ele><time>2026-05-01T15:03:30Z</time></trkpt><trkpt lat="44.57158245295868" lon="9.73914023058897"><ele>684.0</ele><time>2026-05-01T15:03:31Z</time></trkpt><trkpt lat="44.57149437918882" lon="9.738963531627181"><ele>683.75</ele><time>2026-05-01T15:03:32Z</time></trkpt><trkpt lat="44.57138736507886" lon="9.738823053630856"><ele>683.5</ele><time>2026-05-01T15:03:33Z</time></trkpt><trkpt lat="44.57127345083452" lon="9.738717373582322"><ele>683.25</ele><time>2026-05-01T15:03:34Z</time></trkpt><trkpt lat="44.571156192085894" lon="9.738636400613633"><ele>683.0</ele><time>2026-05-01T15:03:35Z</time></trkpt><trkpt lat="44.571041107888504" lon="9.738546214666819"><ele>686.25</ele><time>2026-05-01T15:03:36Z</time></trkpt><trkpt lat="44.570932878929945" lon="9.738416794068419"><ele>689.5</ele><time>2026-05-01T15:03:37Z</time></trkpt><trkpt lat="44.57082609186499" lon="9.738259504978645"><ele>692.75</ele><time>2026-05-01T15:03:38Z</time></trkpt><trkpt lat="44.570726989775316" lon="9.738102006223263"><ele>696.0</ele><time>2026-05-01T15:03:39Z</time></trkpt><trkpt lat="44.57062964518441" lon="9.73795844654961"><ele>696.0</ele><time>2026-05-01T15:03:40Z</time></trkpt><trkpt lat="44.57054047343478" lon="9.737826626417002"><ele>696.0</ele><time>2026-05-01T15:03:41Z</time></trkpt><trkpt lat="44.570462724872456" lon="9.737711554424466"><ele>696.0</ele><time>2026-05-01T15:03:42Z</time></trkpt><trkpt lat="44.570394652184376" lon="9.737609389562117"><ele>696.0</ele><time>2026-05-01T15:03:43Z</time></trkpt><trkpt lat="44.57033758499406" lon="9.737518513036214"><ele>696.0</ele><time>2026-05-01T15:03:44Z</time></trkpt><trkpt lat="44.570294673561996" lon="9.737431717112283"><ele>695.1999999999999</ele><time>2026-05-01T15:03:45Z</time></trkpt><trkpt lat="44.570274441435494" lon="9.737333475472262"><ele>694.4</ele><time>2026-05-01T15:03:46Z</time></trkpt><trkpt lat="44.5702890402562" lon="9.73721801116343"><ele>693.6</ele><time>2026-05-01T15:03:47Z</time></trkpt><trkpt lat="44.57035670909128" lon="9.73712250277721"><ele>692.8</ele><time>2026-05-01T15:03:48Z</time></trkpt><trkpt lat="44.57045060480779" lon="9.737085507790121"><ele>692.0</ele><time>2026-05-01T15:03:49Z</time></trkpt><trkpt lat="44.57055459993573" lon="9.737122477586663"><ele>698.6666666666666</ele><time>2026-05-01T15:03:50Z</time></trkpt><trkpt lat="44.57066455129525" lon="9.737212006761311"><ele>705.3333333333334</ele><time>2026-05-01T15:03:51Z</time></trkpt><trkpt lat="44.57078966148313" lon="9.737337972384447"><ele>712.0</ele><time>2026-05-01T15:03:52Z</time></trkpt><trkpt lat="44.57093812810183" lon="9.73746563215827"><ele>712.0</ele><time>2026-05-01T15:03:53Z</time></trkpt><trkpt lat="44.57109642986311" lon="9.737587226767173"><ele>712.0</ele><time>2026-05-01T15:03:54Z</time></trkpt><trkpt lat="44.571239196159745" lon="9.737710041020776"><ele>712.0</ele><time>2026-05-01T15:03:55Z</time></trkpt><trkpt lat="44.57136277837618" lon="9.73784956230969"><ele>711.5</ele><time>2026-05-01T15:03:56Z</time></trkpt><trkpt lat="44.571469135455644" lon="9.737971939724972"><ele>711.0</ele><time>2026-05-01T15:03:57Z</time></trkpt><trkpt lat="44.57156609131576" lon="9.738065387864605"><ele>710.5</ele><time>2026-05-01T15:03:58Z</time></trkpt><trkpt lat="44.571664798362065" lon="9.738123546949192"><ele>710.0</ele><time>2026-05-01T15:03:59Z</time></trkpt><trkpt lat="44.57176164453544" lon="9.738129700546994"><ele>710.0</ele><time>2026-05-01T15:04:00Z</time></trkpt><trkpt lat="44.57185054886867" lon="9.738062107314732"><ele>710.0</ele><time>2026-05-01T15:04:01Z</time></trkpt><trkpt lat="44.57190997046209" lon="9.737946058700665"><ele>710.0</ele><time>2026-05-01T15:04:02Z</time></trkpt><trkpt lat="44.57192251589095" lon="9.737801095610319"><ele>710.0</ele><time>2026-05-01T15:04:03Z</time></trkpt><trkpt lat="44.571884668609194" lon="9.73765898169299"><ele>710.0</ele><time>2026-05-01T15:04:04Z</time></trkpt><trkpt lat="44.571801266567114" lon="9.737536830010212"><ele>715.6666666666666</ele><time>2026-05-01T15:04:05Z</time></trkpt><trkpt lat="44.57167729083867" lon="9.737430647184024"><ele>721.3333333333334</ele><time>2026-05-01T15:04:06Z</time></trkpt><trkpt lat="44.57153349618342" lon="9.737306675577742"><ele>727.0</ele><time>2026-05-01T15:04:07Z</time></trkpt><trkpt lat="44.57138057889683" lon="9.737149874547422"><ele>727.0</ele><time>2026-05-01T15:04:08Z</time></trkpt><trkpt lat="44.57122316208038" lon="9.736973430258178"><ele>727.0</ele><time>2026-05-01T15:04:09Z</time></trkpt><trkpt lat="44.571071123601364" lon="9.73681082797003"><ele>727.0</ele><time>2026-05-01T15:04:10Z</time></trkpt><trkpt lat="44.5709371278693" lon="9.736668759816055"><ele>726.5</ele><time>2026-05-01T15:04:11Z</time></trkpt><trkpt lat="44.570822497845256" lon="9.736547115637707"><ele>726.0</ele><time>2026-05-01T15:04:12Z</time></trkpt><trkpt lat="44.570718825729735" lon="9.736429602020177"><ele>725.5</ele><time>2026-05-01T15:04:13Z</time></trkpt><trkpt lat="44.57064152068072" lon="9.736304736059427"><ele>725.0</ele><time>2026-05-01T15:04:14Z</time></trkpt><trkpt lat="44.57059788959179" lon="9.736156611238275"><ele>727.75</ele><time>2026-05-01T15:04:15Z</time></trkpt><trkpt lat="44.570597070450845" lon="9.735967689386253"><ele>730.5</ele><time>2026-05-01T15:04:16Z</time></trkpt><trkpt lat="44.57063476356245" lon="9.735760347086767"><ele>733.25</ele><time>2026-05-01T15:04:17Z</time></trkpt><trkpt lat="44.570682725906345" lon="9.735544744526006"><ele>736.0</ele><time>2026-05-01T15:04:18Z</time></trkpt><trkpt lat="44.57071638395799" lon="9.735328493187573"><ele>738.0</ele><time>2026-05-01T15:04:19Z</time></trkpt><trkpt lat="44.57072084972299" lon="9.735102316135578"><ele>740.0</ele><time>2026-05-01T15:04:20Z</time></trkpt><trkpt lat="44.570693735702555" lon="9.73486050920529"><ele>742.0</ele><time>2026-05-01T15:04:21Z</time></trkpt><trkpt lat="44.570647570403814" lon="9.734630382355393"><ele>742.0</ele><time>2026-05-01T15:04:22Z</time></trkpt><trkpt lat="44.57059928367913" lon="9.734431466872906"><ele>742.0</ele><time>2026-05-01T15:04:23Z</time></trkpt><trkpt lat="44.57055805344859" lon="9.73425308525252"><ele>742.0</ele><time>2026-05-01T15:04:24Z</time></trkpt><trkpt lat="44.57052240795501" lon="9.734089087180283"><ele>742.0</ele><time>2026-05-01T15:04:25Z</time></trkpt><trkpt lat="44.570455672450095" lon="9.733962621900758"><ele>740.0</ele><time>2026-05-01T15:04:26Z</time></trkpt><trkpt lat="44.57035131723869" lon="9.733863566233229"><ele>738.0</ele><time>2026-05-01T15:04:27Z</time></trkpt><trkpt lat="44.57021111663793" lon="9.733810962642847"><ele>736.0</ele><time>2026-05-01T15:04:28Z</time></trkpt><trkpt lat="44.57006872383294" lon="9.73377497972171"><ele>734.0</ele><time>2026-05-01T15:04:29Z</time></trkpt><trkpt lat="44.56993923911571" lon="9.733774684893053"><ele>734.0</ele><time>2026-05-01T15:04:30Z</time></trkpt><trkpt lat="44.56982461847034" lon="9.733844332077766"><ele>734.0</ele><time>2026-05-01T15:04:31Z</time></trkpt><trkpt lat="44.56971809546723" lon="9.733979649862034"><ele>734.0</ele><time>2026-05-01T15:04:32Z</time></trkpt><trkpt lat="44.569626484325205" lon="9.73418240857599"><ele>734.0</ele><time>2026-05-01T15:04:33Z</time></trkpt><trkpt lat="44.56953184095653" lon="9.734399222779992"><ele>735.6666666666666</ele><time>2026-05-01T15:04:34Z</time></trkpt><trkpt lat="44.56940076122918" lon="9.734597058202596"><ele>737.3333333333334</ele><time>2026-05-01T15:04:35Z</time></trkpt><trkpt lat="44.56927775153113" lon="9.7347546311985"><ele>739.0</ele><time>2026-05-01T15:04:36Z</time></trkpt><trkpt lat="44.569187240496845" lon="9.734889142098622"><ele>739.0</ele><time>2026-05-01T15:04:37Z</time></trkpt><trkpt lat="44.56910192856523" lon="9.734990353160907"><ele>739.0</ele><time>2026-05-01T15:04:38Z</time></trkpt><trkpt lat="44.56899373891138" lon="9.735032835594323"><ele>739.0</ele><time>2026-05-01T15:04:39Z</time></trkpt><trkpt lat="44.56887498993613" lon="9.735000400292071"><ele>739.0</ele><time>2026-05-01T15:04:40Z</time></trkpt><trkpt lat="44.56877217366283" lon="9.734891819064925"><ele>738.3333333333334</ele><time>2026-05-01T15:04:41Z</time></trkpt><trkpt lat="44.56866072301605" lon="9.734724416534222"><ele>737.6666666666666</ele><time>2026-05-01T15:04:42Z</time></trkpt><trkpt lat="44.56857057944463" lon="9.734520834142357"><ele>737.0</ele><time>2026-05-01T15:04:43Z</time></trkpt><trkpt lat="44.568488331938475" lon="9.7343160458119"><ele>739.75</ele><time>2026-05-01T15:04:44Z</time></trkpt><trkpt lat="44.56841020390473" lon="9.734133634371553"><ele>742.5</ele><time>2026-05-01T15:04:45Z</time></trkpt><trkpt lat="44.568318398140576" lon="9.733965802932046"><ele>745.25</ele><time>2026-05-01T15:04:46Z</time></trkpt><trkpt lat="44.56821181859048" lon="9.73382546365847"><ele>748.0</ele><time>2026-05-01T15:04:47Z</time></trkpt><trkpt lat="44.56808537662238" lon="9.733713060158443"><ele>748.0</ele><time>2026-05-01T15:04:48Z</time></trkpt><trkpt lat="44.56793933611521" lon="9.733616641727378"><ele>748.0</ele><time>2026-05-01T15:04:49Z</time></trkpt><trkpt lat="44.56778685889366" lon="9.733518357022508"><ele>748.0</ele><time>2026-05-01T15:04:50Z</time></trkpt><trkpt lat="44.567643331045126" lon="9.733404999699028"><ele>750.3333333333334</ele><time>2026-05-01T15:04:51Z</time></trkpt><trkpt lat="44.567508837416185" lon="9.733268111656812"><ele>752.6666666666666</ele><time>2026-05-01T15:04:52Z</time></trkpt><trkpt lat="44.56738117601405" lon="9.733083083593652"><ele>755.0</ele><time>2026-05-01T15:04:53Z</time></trkpt><trkpt lat="44.567253238039584" lon="9.732862946427485"><ele>753.6666666666666</ele><time>2026-05-01T15:04:54Z</time></trkpt><trkpt lat="44.56712786182442" lon="9.732648554496523"><ele>752.3333333333334</ele><time>2026-05-01T15:04:55Z</time></trkpt><trkpt lat="44.56701580509683" lon="9.73244145209381"><ele>751.0</ele><time>2026-05-01T15:04:56Z</time></trkpt><trkpt lat="44.56691287247998" lon="9.732236011014471"><ele>751.0</ele><time>2026-05-01T15:04:57Z</time></trkpt><trkpt lat="44.56681814784178" lon="9.732020728560439"><ele>751.0</ele><time>2026-05-01T15:04:58Z</time></trkpt><trkpt lat="44.566741491323455" lon="9.731782900994949"><ele>751.0</ele><time>2026-05-01T15:04:59Z</time></trkpt><trkpt lat="44.566667659409745" lon="9.73155729268069"><ele>754.6666666666667</ele><time>2026-05-01T15:05:00Z</time></trkpt><trkpt lat="44.5665890796328" lon="9.731339290212878"><ele>758.3333333333334</ele><time>2026-05-01T15:05:01Z</time></trkpt><trkpt lat="44.56650986111927" lon="9.731125020909863"><ele>762.0</ele><time>2026-05-01T15:05:02Z</time></trkpt><trkpt lat="44.56643506209878" lon="9.730912607037167"><ele>762.25</ele><time>2026-05-01T15:05:03Z</time></trkpt><trkpt lat="44.56636325986023" lon="9.730725551274695"><ele>762.5</ele><time>2026-05-01T15:05:04Z</time></trkpt><trkpt lat="44.56629896264684" lon="9.730567444874058"><ele>762.75</ele><time>2026-05-01T15:05:05Z</time></trkpt><trkpt lat="44.56621788317055" lon="9.730452997120162"><ele>763.0</ele><time>2026-05-01T15:05:06Z</time></trkpt><trkpt lat="44.566115633559896" lon="9.730369571037748"><ele>763.0</ele><time>2026-05-01T15:05:07Z</time></trkpt><trkpt lat="44.56599804747485" lon="9.730326097129579"><ele>763.0</ele><time>2026-05-01T15:05:08Z</time></trkpt><trkpt lat="44.56586428643277" lon="9.730316258281213"><ele>763.0</ele><time>2026-05-01T15:05:09Z</time></trkpt><trkpt lat="44.56571597772161" lon="9.73032688041847"><ele>763.0</ele><time>2026-05-01T15:05:10Z</time></trkpt><trkpt lat="44.56558217230908" lon="9.730370729176101"><ele>763.0</ele><time>2026-05-01T15:05:11Z</time></trkpt><trkpt lat="44.56546383079025" lon="9.73047550316216"><ele>763.0</ele><time>2026-05-01T15:05:12Z</time></trkpt><trkpt lat="44.56534883848287" lon="9.73063521252038"><ele>763.0</ele><time>2026-05-01T15:05:13Z</time></trkpt><trkpt lat="44.565241692580294" lon="9.730781435603088"><ele>766.0</ele><time>2026-05-01T15:05:14Z</time></trkpt><trkpt lat="44.56512351976065" lon="9.730874974034457"><ele>769.0</ele><time>2026-05-01T15:05:15Z</time></trkpt><trkpt lat="44.564996637538755" lon="9.730896583995314"><ele>772.0</ele><time>2026-05-01T15:05:16Z</time></trkpt><trkpt lat="44.56486431196128" lon="9.730879330497517"><ele>775.0</ele><time>2026-05-01T15:05:17Z</time></trkpt><trkpt lat="44.5647348709409" lon="9.730792173307298"><ele>775.0</ele><time>2026-05-01T15:05:18Z</time></trkpt><trkpt lat="44.56461558799792" lon="9.730657312128546"><ele>775.0</ele><time>2026-05-01T15:05:19Z</time></trkpt><trkpt lat="44.56450612211089" lon="9.730476316593117"><ele>775.0</ele><time>2026-05-01T15:05:20Z</time></trkpt><trkpt lat="44.564389984262505" lon="9.730275070180772"><ele>778.3333333333333</ele><time>2026-05-01T15:05:21Z</time></trkpt><trkpt lat="44.56426418860359" lon="9.730107086335787"><ele>781.6666666666667</ele><time>2026-05-01T15:05:22Z</time></trkpt><trkpt lat="44.56414208375011" lon="9.729975556690059"><ele>785.0</ele><time>2026-05-01T15:05:23Z</time></trkpt><trkpt lat="44.56403141008195" lon="9.729848421972154"><ele>785.0</ele><time>2026-05-01T15:05:24Z</time></trkpt><trkpt lat="44.56392661947534" lon="9.729732126208328"><ele>785.0</ele><time>2026-05-01T15:05:25Z</time></trkpt><trkpt lat="44.56381943949167" lon="9.729631388403401"><ele>785.0</ele><time>2026-05-01T15:05:26Z</time></trkpt><trkpt lat="44.56370904101923" lon="9.72959123580902"><ele>785.0</ele><time>2026-05-01T15:05:27Z</time></trkpt><trkpt lat="44.5636038175176" lon="9.729630458555839"><ele>785.0</ele><time>2026-05-01T15:05:28Z</time></trkpt><trkpt lat="44.56350558716726" lon="9.729734114501843"><ele>785.0</ele><time>2026-05-01T15:05:29Z</time></trkpt><trkpt lat="44.563403237970796" lon="9.72988039071559"><ele>785.0</ele><time>2026-05-01T15:05:30Z</time></trkpt><trkpt lat="44.5632916204562" lon="9.730036264535245"><ele>785.0</ele><time>2026-05-01T15:05:31Z</time></trkpt><trkpt lat="44.56313510616613" lon="9.73015840910566"><ele>785.6666666666667</ele><time>2026-05-01T15:05:32Z</time></trkpt><trkpt lat="44.56296726915066" lon="9.730260334776316"><ele>786.3333333333333</ele><time>2026-05-01T15:05:33Z</time></trkpt><trkpt lat="44.56280549411252" lon="9.73035333070189"><ele>787.0</ele><time>2026-05-01T15:05:34Z</time></trkpt><trkpt lat="44.56267050038377" lon="9.73045666411462"><ele>787.0</ele><time>2026-05-01T15:05:35Z</time></trkpt><trkpt lat="44.56255990834004" lon="9.73059621225443"><ele>787.0</ele><time>2026-05-01T15:05:36Z</time></trkpt><trkpt lat="44.562481844354714" lon="9.730782903493747"><ele>787.0</ele><time>2026-05-01T15:05:37Z</time></trkpt><trkpt lat="44.56243347814877" lon="9.731020310254237"><ele>785.3333333333333</ele><time>2026-05-01T15:05:38Z</time></trkpt><trkpt lat="44.562376223645884" lon="9.731313154427816"><ele>783.6666666666667</ele><time>2026-05-01T15:05:39Z</time></trkpt><trkpt lat="44.56231479805348" lon="9.731581745969233"><ele>782.0</ele><time>2026-05-01T15:05:40Z</time></trkpt><trkpt lat="44.56225170788765" lon="9.731804375598681"><ele>781.0</ele><time>2026-05-01T15:05:41Z</time></trkpt><trkpt lat="44.56218481015874" lon="9.732006870107513"><ele>780.0</ele><time>2026-05-01T15:05:42Z</time></trkpt><trkpt lat="44.562104773756076" lon="9.732174652350544"><ele>779.0</ele><time>2026-05-01T15:05:43Z</time></trkpt><trkpt lat="44.56200394626327" lon="9.732291276305212"><ele>778.0</ele><time>2026-05-01T15:05:44Z</time></trkpt><trkpt lat="44.56186786273732" lon="9.732339058966678"><ele>781.6666666666666</ele><time>2026-05-01T15:05:45Z</time></trkpt><trkpt lat="44.56170714880833" lon="9.732374008791405"><ele>785.3333333333333</ele><time>2026-05-01T15:05:46Z</time></trkpt><trkpt lat="44.56151037831859" lon="9.732375378737514"><ele>789.0</ele><time>2026-05-01T15:05:47Z</time></trkpt><trkpt lat="44.56131433471337" lon="9.732387697451925"><ele>790.3333333333333</ele><time>2026-05-01T15:05:48Z</time></trkpt><trkpt lat="44.5611406091044" lon="9.732414740232796"><ele>791.6666666666666</ele><time>2026-05-01T15:05:49Z</time></trkpt><trkpt lat="44.5609801471951" lon="9.732422817198202"><ele>793.0</ele><time>2026-05-01T15:05:50Z</time></trkpt><trkpt lat="44.56082495753752" lon="9.73240398651094"><ele>793.0</ele><time>2026-05-01T15:05:51Z</time></trkpt><trkpt lat="44.56066891793206" lon="9.732355025562493"><ele>793.0</ele><time>2026-05-01T15:05:52Z</time></trkpt><trkpt lat="44.56051287795917" lon="9.73228990347626"><ele>793.0</ele><time>2026-05-01T15:05:53Z</time></trkpt><trkpt lat="44.56036165711275" lon="9.732238444008866"><ele>794.5</ele><time>2026-05-01T15:05:54Z</time></trkpt><trkpt lat="44.56022649207207" lon="9.73219919451894"><ele>796.0</ele><time>2026-05-01T15:05:55Z</time></trkpt><trkpt lat="44.56010949272154" lon="9.73216296456091"><ele>797.5</ele><time>2026-05-01T15:05:56Z</time></trkpt><trkpt lat="44.5599918011028" lon="9.732142259147958"><ele>799.0</ele><time>2026-05-01T15:05:57Z</time></trkpt><trkpt lat="44.55986564195078" lon="9.732169230205853"><ele>799.0</ele><time>2026-05-01T15:05:58Z</time></trkpt><trkpt lat="44.559739188415826" lon="9.732271656176247"><ele>799.0</ele><time>2026-05-01T15:05:59Z</time></trkpt><trkpt lat="44.55961983282192" lon="9.732425654413968"><ele>799.0</ele><time>2026-05-01T15:06:00Z</time></trkpt><trkpt lat="44.55950387491132" lon="9.732594660473561"><ele>799.75</ele><time>2026-05-01T15:06:01Z</time></trkpt><trkpt lat="44.55937984466958" lon="9.732737065609799"><ele>800.5</ele><time>2026-05-01T15:06:02Z</time></trkpt><trkpt lat="44.55925120629571" lon="9.732834314655292"><ele>801.25</ele><time>2026-05-01T15:06:03Z</time></trkpt><trkpt lat="44.559124458400085" lon="9.732871870029252"><ele>802.0</ele><time>2026-05-01T15:06:04Z</time></trkpt><trkpt lat="44.55899679966295" lon="9.732857960808579"><ele>802.0</ele><time>2026-05-01T15:06:05Z</time></trkpt><trkpt lat="44.55887381304203" lon="9.732772128303674"><ele>802.0</ele><time>2026-05-01T15:06:06Z</time></trkpt><trkpt lat="44.55878011671358" lon="9.732624710630967"><ele>802.0</ele><time>2026-05-01T15:06:07Z</time></trkpt><trkpt lat="44.55870565226436" lon="9.732430599062711"><ele>802.0</ele><time>2026-05-01T15:06:08Z</time></trkpt><trkpt lat="44.558630146668094" lon="9.732238524416857"><ele>803.0</ele><time>2026-05-01T15:06:09Z</time></trkpt><trkpt lat="44.55853401887103" lon="9.732083650789196"><ele>804.0</ele><time>2026-05-01T15:06:10Z</time></trkpt><trkpt lat="44.558418017459665" lon="9.732000940623777"><ele>805.0</ele><time>2026-05-01T15:06:11Z</time></trkpt><trkpt lat="44.55828868542651" lon="9.731966022795783"><ele>806.0</ele><time>2026-05-01T15:06:12Z</time></trkpt><trkpt lat="44.55811637555371" lon="9.731956224268647"><ele>806.0</ele><time>2026-05-01T15:06:13Z</time></trkpt><trkpt lat="44.557951665847504" lon="9.731931591590433"><ele>806.0</ele><time>2026-05-01T15:06:14Z</time></trkpt><trkpt lat="44.55777190003704" lon="9.731861756902202"><ele>806.0</ele><time>2026-05-01T15:06:15Z</time></trkpt><trkpt lat="44.55762700368825" lon="9.731793767687732"><ele>809.75</ele><time>2026-05-01T15:06:16Z</time></trkpt><trkpt lat="44.557487014898136" lon="9.731727121954028"><ele>813.5</ele><time>2026-05-01T15:06:17Z</time></trkpt><trkpt lat="44.55734017823316" lon="9.731667197090456"><ele>817.25</ele><time>2026-05-01T15:06:18Z</time></trkpt><trkpt lat="44.55719959902331" lon="9.731620596580079"><ele>821.0</ele><time>2026-05-01T15:06:19Z</time></trkpt><trkpt lat="44.55705196033472" lon="9.731603778906255"><ele>821.0</ele><time>2026-05-01T15:06:20Z</time></trkpt><trkpt lat="44.55689536971093" lon="9.731594794554782"><ele>821.0</ele><time>2026-05-01T15:06:21Z</time></trkpt><trkpt lat="44.556711782372446" lon="9.731610826117622"><ele>821.0</ele><time>2026-05-01T15:06:22Z</time></trkpt><trkpt lat="44.55652490974345" lon="9.731635801621964"><ele>821.0</ele><time>2026-05-01T15:06:23Z</time></trkpt><trkpt lat="44.5563200939074" lon="9.731649464451424"><ele>821.0</ele><time>2026-05-01T15:06:24Z</time></trkpt><trkpt lat="44.55610727720792" lon="9.731666915920826"><ele>821.0</ele><time>2026-05-01T15:06:25Z</time></trkpt><trkpt lat="44.555898454868554" lon="9.731690500314114"><ele>822.0</ele><time>2026-05-01T15:06:26Z</time></trkpt><trkpt lat="44.555697897263585" lon="9.731713520057484"><ele>823.0</ele><time>2026-05-01T15:06:27Z</time></trkpt><trkpt lat="44.55551024234124" lon="9.731734403572949"><ele>824.0</ele><time>2026-05-01T15:06:28Z</time></trkpt><trkpt lat="44.555338945601505" lon="9.731752302514767"><ele>825.5</ele><time>2026-05-01T15:06:29Z</time></trkpt><trkpt lat="44.555184881700896" lon="9.731764167599836"><ele>827.0</ele><time>2026-05-01T15:06:30Z</time></trkpt><trkpt lat="44.55504301930537" lon="9.731778707697602"><ele>828.5</ele><time>2026-05-01T15:06:31Z</time></trkpt><trkpt lat="44.55490904702105" lon="9.73178814130684"><ele>830.0</ele><time>2026-05-01T15:06:32Z</time></trkpt><trkpt lat="44.5547737474875" lon="9.731775758593633"><ele>830.0</ele><time>2026-05-01T15:06:33Z</time></trkpt><trkpt lat="44.55464141266644" lon="9.731724967416536"><ele>830.0</ele><time>2026-05-01T15:06:34Z</time></trkpt><trkpt lat="44.55451712936418" lon="9.731654519370073"><ele>830.0</ele><time>2026-05-01T15:06:35Z</time></trkpt><trkpt lat="44.55440094485515" lon="9.73161927966706"><ele>830.0</ele><time>2026-05-01T15:06:36Z</time></trkpt><trkpt lat="44.55428640894209" lon="9.731648363767503"><ele>829.75</ele><time>2026-05-01T15:06:37Z</time></trkpt><trkpt lat="44.554171170964516" lon="9.731741412544649"><ele>829.5</ele><time>2026-05-01T15:06:38Z</time></trkpt><trkpt lat="44.554067629164706" lon="9.731906564608359"><ele>829.25</ele><time>2026-05-01T15:06:39Z</time></trkpt><trkpt lat="44.553974199837214" lon="9.732054240255449"><ele>829.0</ele><time>2026-05-01T15:06:40Z</time></trkpt><trkpt lat="44.55387302359848" lon="9.732171316996164"><ele>829.0</ele><time>2026-05-01T15:06:41Z</time></trkpt><trkpt lat="44.55375613556362" lon="9.732201220049253"><ele>829.0</ele><time>2026-05-01T15:06:42Z</time></trkpt><trkpt lat="44.55366233943663" lon="9.732162084815911"><ele>829.0</ele><time>2026-05-01T15:06:43Z</time></trkpt><trkpt lat="44.553601923108225" lon="9.732069993815964"><ele>829.0</ele><time>2026-05-01T15:06:44Z</time></trkpt><trkpt lat="44.55357418479556" lon="9.731927265495319"><ele>829.0</ele><time>2026-05-01T15:06:45Z</time></trkpt><trkpt lat="44.55358554293732" lon="9.731770247384912"><ele>831.75</ele><time>2026-05-01T15:06:46Z</time></trkpt><trkpt lat="44.55365540252033" lon="9.731622125558783"><ele>834.5</ele><time>2026-05-01T15:06:47Z</time></trkpt><trkpt lat="44.55376056926538" lon="9.73148968649813"><ele>837.25</ele><time>2026-05-01T15:06:48Z</time></trkpt><trkpt lat="44.55387768040885" lon="9.731355692598768"><ele>840.0</ele><time>2026-05-01T15:06:49Z</time></trkpt><trkpt lat="44.553997899565665" lon="9.73120393272118"><ele>843.25</ele><time>2026-05-01T15:06:50Z</time></trkpt><trkpt lat="44.5541093241683" lon="9.731051754583943"><ele>846.5</ele><time>2026-05-01T15:06:51Z</time></trkpt><trkpt lat="44.55421638020548" lon="9.73090912603859"><ele>849.75</ele><time>2026-05-01T15:06:52Z</time></trkpt><trkpt lat="44.554318871519826" lon="9.730776161378303"><ele>853.0</ele><time>2026-05-01T15:06:53Z</time></trkpt><trkpt lat="44.554422888751965" lon="9.73064232837"><ele>853.0</ele><time>2026-05-01T15:06:54Z</time></trkpt><trkpt lat="44.554528068615625" lon="9.73051337897986"><ele>853.0</ele><time>2026-05-01T15:06:55Z</time></trkpt><trkpt lat="44.55462668355718" lon="9.730394179457218"><ele>853.0</ele><time>2026-05-01T15:06:56Z</time></trkpt><trkpt lat="44.554722360396646" lon="9.730289335187063"><ele>853.0</ele><time>2026-05-01T15:06:57Z</time></trkpt><trkpt lat="44.55482768022759" lon="9.730205691948429"><ele>853.0</ele><time>2026-05-01T15:06:58Z</time></trkpt><trkpt lat="44.554932002514285" lon="9.730140152534863"><ele>853.0</ele><time>2026-05-01T15:06:59Z</time></trkpt><trkpt lat="44.55501848635103" lon="9.730055433941187"><ele>853.0</ele><time>2026-05-01T15:07:00Z</time></trkpt><trkpt lat="44.555064506377235" lon="9.729928847658707"><ele>853.0</ele><time>2026-05-01T15:07:01Z</time></trkpt><trkpt lat="44.55507422602583" lon="9.729806610921901"><ele>853.0</ele><time>2026-05-01T15:07:02Z</time></trkpt><trkpt lat="44.55504341327072" lon="9.729678005252907"><ele>853.0</ele><time>2026-05-01T15:07:03Z</time></trkpt><trkpt lat="44.55496980003071" lon="9.729566010289455"><ele>853.0</ele><time>2026-05-01T15:07:04Z</time></trkpt><trkpt lat="44.5548672001706" lon="9.729494448050161"><ele>853.0</ele><time>2026-05-01T15:07:05Z</time></trkpt><trkpt lat="44.55475293969269" lon="9.729492984398206"><ele>853.0</ele><time>2026-05-01T15:07:06Z</time></trkpt><trkpt lat="44.55462749088464" lon="9.729553936755876"><ele>856.6666666666666</ele><time>2026-05-01T15:07:07Z</time></trkpt><trkpt lat="44.554491007846" lon="9.729632296727388"><ele>860.3333333333333</ele><time>2026-05-01T15:07:08Z</time></trkpt><trkpt lat="44.55433469857226" lon="9.7296989640288"><ele>864.0</ele><time>2026-05-01T15:07:09Z</time></trkpt><trkpt lat="44.55416890231126" lon="9.729762291004661"><ele>864.0</ele><time>2026-05-01T15:07:10Z</time></trkpt><trkpt lat="44.554012461638855" lon="9.72983884223257"><ele>864.0</ele><time>2026-05-01T15:07:11Z</time></trkpt><trkpt lat="44.55384634347489" lon="9.729918560596333"><ele>864.0</ele><time>2026-05-01T15:07:12Z</time></trkpt><trkpt lat="44.553677798039594" lon="9.729993972381667"><ele>865.0</ele><time>2026-05-01T15:07:13Z</time></trkpt><trkpt lat="44.55351693871583" lon="9.730088417335466"><ele>866.0</ele><time>2026-05-01T15:07:14Z</time></trkpt><trkpt lat="44.55334786861726" lon="9.730163765578121"><ele>867.0</ele><time>2026-05-01T15:07:15Z</time></trkpt><trkpt lat="44.553182956718665" lon="9.730283461716002"><ele>867.0</ele><time>2026-05-01T15:07:16Z</time></trkpt><trkpt lat="44.55302759453457" lon="9.730407079162477"><ele>867.0</ele><time>2026-05-01T15:07:17Z</time></trkpt><trkpt lat="44.55288062094725" lon="9.730532268070164"><ele>867.0</ele><time>2026-05-01T15:07:18Z</time></trkpt><trkpt lat="44.5527400075588" lon="9.730689415302383"><ele>869.6666666666667</ele><time>2026-05-01T15:07:19Z</time></trkpt><trkpt lat="44.55260782136103" lon="9.730890202742806"><ele>872.3333333333334</ele><time>2026-05-01T15:07:20Z</time></trkpt><trkpt lat="44.55248020940697" lon="9.73111884280971"><ele>875.0</ele><time>2026-05-01T15:07:21Z</time></trkpt><trkpt lat="44.55235497990283" lon="9.731329473635107"><ele>875.0</ele><time>2026-05-01T15:07:22Z</time></trkpt><trkpt lat="44.5522377591629" lon="9.731514812464496"><ele>875.0</ele><time>2026-05-01T15:07:23Z</time></trkpt><trkpt lat="44.55213234751974" lon="9.731682182580395"><ele>875.0</ele><time>2026-05-01T15:07:24Z</time></trkpt><trkpt lat="44.552036789141354" lon="9.731832118577705"><ele>876.25</ele><time>2026-05-01T15:07:25Z</time></trkpt><trkpt lat="44.5519346959258" lon="9.731967786975384"><ele>877.5</ele><time>2026-05-01T15:07:26Z</time></trkpt><trkpt lat="44.55181405394847" lon="9.732034472376194"><ele>878.75</ele><time>2026-05-01T15:07:27Z</time></trkpt><trkpt lat="44.5516837934347" lon="9.732032210023473"><ele>880.0</ele><time>2026-05-01T15:07:28Z</time></trkpt><trkpt lat="44.55157090206019" lon="9.731950628770344"><ele>882.75</ele><time>2026-05-01T15:07:29Z</time></trkpt><trkpt lat="44.551484572252875" lon="9.731822628989917"><ele>885.5</ele><time>2026-05-01T15:07:30Z</time></trkpt><trkpt lat="44.55141266889585" lon="9.731647661915751"><ele>888.25</ele><time>2026-05-01T15:07:31Z</time></trkpt><trkpt lat="44.55134786390185" lon="9.731441677045265"><ele>891.0</ele><time>2026-05-01T15:07:32Z</time></trkpt><trkpt lat="44.551267926167284" lon="9.7312256202918"><ele>892.0</ele><time>2026-05-01T15:07:33Z</time></trkpt><trkpt lat="44.5511694492533" lon="9.731006757983593"><ele>893.0</ele><time>2026-05-01T15:07:34Z</time></trkpt><trkpt lat="44.55105818837342" lon="9.730794001964814"><ele>894.0</ele><time>2026-05-01T15:07:35Z</time></trkpt><trkpt lat="44.55092437294582" lon="9.730587355851089"><ele>894.0</ele><time>2026-05-01T15:07:36Z</time></trkpt><trkpt lat="44.550770141294926" lon="9.730373403736573"><ele>894.0</ele><time>2026-05-01T15:07:37Z</time></trkpt><trkpt lat="44.550604239072804" lon="9.730158001707812"><ele>894.0</ele><time>2026-05-01T15:07:38Z</time></trkpt><trkpt lat="44.55046322181459" lon="9.729964537249508"><ele>897.3333333333333</ele><time>2026-05-01T15:07:39Z</time></trkpt><trkpt lat="44.550339740377005" lon="9.729783251034236"><ele>900.6666666666666</ele><time>2026-05-01T15:07:40Z</time></trkpt><trkpt lat="44.550208630469484" lon="9.72960525337245"><ele>904.0</ele><time>2026-05-01T15:07:41Z</time></trkpt><trkpt lat="44.55007534806958" lon="9.729428645198189"><ele>905.3333333333333</ele><time>2026-05-01T15:07:42Z</time></trkpt><trkpt lat="44.54994463544241" lon="9.729252826868384"><ele>906.6666666666667</ele><time>2026-05-01T15:07:43Z</time></trkpt><trkpt lat="44.549813365303265" lon="9.729073672999425"><ele>908.0</ele><time>2026-05-01T15:07:44Z</time></trkpt><trkpt lat="44.54968599653716" lon="9.728897759591758"><ele>908.0</ele><time>2026-05-01T15:07:45Z</time></trkpt><trkpt lat="44.54956234304251" lon="9.728726257479522"><ele>908.0</ele><time>2026-05-01T15:07:46Z</time></trkpt><trkpt lat="44.549439149490276" lon="9.728564671339802"><ele>908.0</ele><time>2026-05-01T15:07:47Z</time></trkpt><trkpt lat="44.5493314649437" lon="9.728422248161896"><ele>910.0</ele><time>2026-05-01T15:07:48Z</time></trkpt><trkpt lat="44.54923438729921" lon="9.728288479312672"><ele>912.0</ele><time>2026-05-01T15:07:49Z</time></trkpt><trkpt lat="44.54912875868649" lon="9.728192287182718"><ele>914.0</ele><time>2026-05-01T15:07:50Z</time></trkpt><trkpt lat="44.549002444996134" lon="9.72815389914796"><ele>916.0</ele><time>2026-05-01T15:07:51Z</time></trkpt><trkpt lat="44.54886672752844" lon="9.728187406220567"><ele>916.0</ele><time>2026-05-01T15:07:52Z</time></trkpt><trkpt lat="44.54875090286768" lon="9.728282149278549"><ele>916.0</ele><time>2026-05-01T15:07:53Z</time></trkpt><trkpt lat="44.548666457511175" lon="9.728444251136272"><ele>916.0</ele><time>2026-05-01T15:07:54Z</time></trkpt><trkpt lat="44.54861942665544" lon="9.728664894470707"><ele>916.0</ele><time>2026-05-01T15:07:55Z</time></trkpt><trkpt lat="44.54855809097745" lon="9.72889756107892"><ele>915.6666666666666</ele><time>2026-05-01T15:07:56Z</time></trkpt><trkpt lat="44.54849403312094" lon="9.72914064270684"><ele>915.3333333333333</ele><time>2026-05-01T15:07:57Z</time></trkpt><trkpt lat="44.54842020312211" lon="9.729365812135608"><ele>915.0</ele><time>2026-05-01T15:07:58Z</time></trkpt><trkpt lat="44.54837228881604" lon="9.72956212825993"><ele>915.0</ele><time>2026-05-01T15:07:59Z</time></trkpt><trkpt lat="44.548297062142005" lon="9.72972693138582"><ele>915.0</ele><time>2026-05-01T15:08:00Z</time></trkpt><trkpt lat="44.54819599850198" lon="9.729833536369183"><ele>915.0</ele><time>2026-05-01T15:08:01Z</time></trkpt><trkpt lat="44.54807091678788" lon="9.729886016608575"><ele>915.0</ele><time>2026-05-01T15:08:02Z</time></trkpt><trkpt lat="44.54791259693014" lon="9.729915575880788"><ele>918.0</ele><time>2026-05-01T15:08:03Z</time></trkpt><trkpt lat="44.54776964140606" lon="9.72993271436185"><ele>921.0</ele><time>2026-05-01T15:08:04Z</time></trkpt><trkpt lat="44.54762194850611" lon="9.729922534589148"><ele>924.0</ele><time>2026-05-01T15:08:05Z</time></trkpt><trkpt lat="44.54748322682985" lon="9.729946679797063"><ele>927.0</ele><time>2026-05-01T15:08:06Z</time></trkpt><trkpt lat="44.54736402691274" lon="9.730006166680353"><ele>927.0</ele><time>2026-05-01T15:08:07Z</time></trkpt><trkpt lat="44.54727094309157" lon="9.730118572793515"><ele>927.0</ele><time>2026-05-01T15:08:08Z</time></trkpt><trkpt lat="44.54719276699449" lon="9.73027708091905"><ele>927.0</ele><time>2026-05-01T15:08:09Z</time></trkpt><trkpt lat="44.54712627245531" lon="9.730471091915042"><ele>927.0</ele><time>2026-05-01T15:08:10Z</time></trkpt><trkpt lat="44.54705784908198" lon="9.730690817248389"><ele>928.6666666666667</ele><time>2026-05-01T15:08:11Z</time></trkpt><trkpt lat="44.5469755916539" lon="9.730909842453888"><ele>930.3333333333334</ele><time>2026-05-01T15:08:12Z</time></trkpt><trkpt lat="44.54688182866309" lon="9.731126266022617"><ele>932.0</ele><time>2026-05-01T15:08:13Z</time></trkpt><trkpt lat="44.54677739636771" lon="9.731331829444137"><ele>932.0</ele><time>2026-05-01T15:08:14Z</time></trkpt><trkpt lat="44.546662280566224" lon="9.731501194062336"><ele>932.0</ele><time>2026-05-01T15:08:15Z</time></trkpt><trkpt lat="44.54652142094185" lon="9.731625241303242"><ele>932.0</ele><time>2026-05-01T15:08:16Z</time></trkpt><trkpt lat="44.54636056530951" lon="9.731726974234947"><ele>932.6666666666667</ele><time>2026-05-01T15:08:17Z</time></trkpt><trkpt lat="44.5461866521107" lon="9.731816218602832"><ele>933.3333333333333</ele><time>2026-05-01T15:08:18Z</time></trkpt><trkpt lat="44.54603533632607" lon="9.731908577458341"><ele>934.0</ele><time>2026-05-01T15:08:19Z</time></trkpt><trkpt lat="44.545905160969696" lon="9.732036319755762"><ele>934.0</ele><time>2026-05-01T15:08:20Z</time></trkpt><trkpt lat="44.54580044709737" lon="9.732177102414726"><ele>934.0</ele><time>2026-05-01T15:08:21Z</time></trkpt><trkpt lat="44.545642827104324" lon="9.732473625625909"><ele>934.0</ele><time>2026-05-01T15:08:23Z</time></trkpt><trkpt lat="44.54557938060539" lon="9.73256671464147"><ele>934.0</ele><time>2026-05-01T15:08:24Z</time></trkpt><trkpt lat="44.545493503829036" lon="9.732649481174326"><ele>934.0000000000001</ele><time>2026-05-01T15:08:25Z</time></trkpt><trkpt lat="44.5453955660038" lon="9.732687149942496"><ele>934.0000000000001</ele><time>2026-05-01T15:08:26Z</time></trkpt><trkpt lat="44.54529312562197" lon="9.73267373430298"><ele>934.0</ele><time>2026-05-01T15:08:27Z</time></trkpt><trkpt lat="44.54519035464571" lon="9.732597633796143"><ele>934.0</ele><time>2026-05-01T15:08:28Z</time></trkpt><trkpt lat="44.5451002292008" lon="9.732457490898106"><ele>934.25</ele><time>2026-05-01T15:08:29Z</time></trkpt><trkpt lat="44.545035601157075" lon="9.732290735866243"><ele>934.5</ele><time>2026-05-01T15:08:30Z</time></trkpt><trkpt lat="44.54497216125707" lon="9.732114225673481"><ele>934.75</ele><time>2026-05-01T15:08:31Z</time></trkpt><trkpt lat="44.544888960998634" lon="9.731935043073193"><ele>935.0</ele><time>2026-05-01T15:08:32Z</time></trkpt><trkpt lat="44.54479289875975" lon="9.731758967734438"><ele>936.0</ele><time>2026-05-01T15:08:33Z</time></trkpt><trkpt lat="44.544695598290346" lon="9.731606404847188"><ele>937.0</ele><time>2026-05-01T15:08:34Z</time></trkpt><trkpt lat="44.54458805689409" lon="9.731490307350965"><ele>938.0</ele><time>2026-05-01T15:08:35Z</time></trkpt><trkpt lat="44.5444768989748" lon="9.731377649585074"><ele>939.0</ele><time>2026-05-01T15:08:36Z</time></trkpt><trkpt lat="44.544386978562905" lon="9.731256975062715"><ele>935.75</ele><time>2026-05-01T15:08:37Z</time></trkpt><trkpt lat="44.54433140749656" lon="9.731100513726368"><ele>932.5</ele><time>2026-05-01T15:08:38Z</time></trkpt><trkpt lat="44.54431940047566" lon="9.730913877806794"><ele>929.25</ele><time>2026-05-01T15:08:39Z</time></trkpt><trkpt lat="44.544371955331805" lon="9.73073120877512"><ele>926.0</ele><time>2026-05-01T15:08:40Z</time></trkpt><trkpt lat="44.544394086663836" lon="9.730572431052835"><ele>926.0</ele><time>2026-05-01T15:08:41Z</time></trkpt><trkpt lat="44.54437515141315" lon="9.730419974507651"><ele>926.0</ele><time>2026-05-01T15:08:42Z</time></trkpt><trkpt lat="44.54430667053484" lon="9.730274340499301"><ele>926.0</ele><time>2026-05-01T15:08:43Z</time></trkpt><trkpt lat="44.544191376732414" lon="9.730164181060108"><ele>926.0</ele><time>2026-05-01T15:08:44Z</time></trkpt><trkpt lat="44.54405164019194" lon="9.73009676582219"><ele>927.25</ele><time>2026-05-01T15:08:45Z</time></trkpt><trkpt lat="44.54390666518103" lon="9.730059512521855"><ele>928.5</ele><time>2026-05-01T15:08:46Z</time></trkpt><trkpt lat="44.543767298309746" lon="9.72997189654581"><ele>929.75</ele><time>2026-05-01T15:08:47Z</time></trkpt><trkpt lat="44.54365084830223" lon="9.729849917097091"><ele>931.0</ele><time>2026-05-01T15:08:48Z</time></trkpt><trkpt lat="44.543536865344194" lon="9.729673734858322"><ele>927.3333333333333</ele><time>2026-05-01T15:08:49Z</time></trkpt><trkpt lat="44.543422288266285" lon="9.729496728095071"><ele>923.6666666666667</ele><time>2026-05-01T15:08:50Z</time></trkpt><trkpt lat="44.5433083921009" lon="9.729315272396612"><ele>920.0</ele><time>2026-05-01T15:08:51Z</time></trkpt><trkpt lat="44.54319262968486" lon="9.729161630631372"><ele>920.0</ele><time>2026-05-01T15:08:52Z</time></trkpt><trkpt lat="44.54309176801053" lon="9.729003215622457"><ele>920.0</ele><time>2026-05-01T15:08:53Z</time></trkpt><trkpt lat="44.54298638726175" lon="9.728859287123814"><ele>920.0</ele><time>2026-05-01T15:08:54Z</time></trkpt><trkpt lat="44.54286465822425" lon="9.728745456215956"><ele>920.0</ele><time>2026-05-01T15:08:55Z</time></trkpt><trkpt lat="44.54272772959898" lon="9.728669044481254"><ele>914.6666666666667</ele><time>2026-05-01T15:08:56Z</time></trkpt><trkpt lat="44.5425689227863" lon="9.728641824616195"><ele>909.3333333333333</ele><time>2026-05-01T15:08:57Z</time></trkpt><trkpt lat="44.542407296185" lon="9.728641405235622"><ele>904.0</ele><time>2026-05-01T15:08:58Z</time></trkpt><trkpt lat="44.54224996144941" lon="9.72863959540164"><ele>904.0</ele><time>2026-05-01T15:08:59Z</time></trkpt><trkpt lat="44.54210608849405" lon="9.728623746739395"><ele>904.0</ele><time>2026-05-01T15:09:00Z</time></trkpt><trkpt lat="44.54197002237398" lon="9.72859650882985"><ele>904.0</ele><time>2026-05-01T15:09:01Z</time></trkpt><trkpt lat="44.541838514319956" lon="9.728575065765169"><ele>904.0</ele><time>2026-05-01T15:09:02Z</time></trkpt><trkpt lat="44.5417222283552" lon="9.72853925778134"><ele>904.75</ele><time>2026-05-01T15:09:03Z</time></trkpt><trkpt lat="44.54163324280543" lon="9.72846783003829"><ele>905.5</ele><time>2026-05-01T15:09:04Z</time></trkpt><trkpt lat="44.541596255820885" lon="9.728331679123261"><ele>906.25</ele><time>2026-05-01T15:09:05Z</time></trkpt><trkpt lat="44.54155354542096" lon="9.728184279414263"><ele>907.0</ele><time>2026-05-01T15:09:06Z</time></trkpt><trkpt lat="44.541533236917886" lon="9.727994275317577"><ele>907.0</ele><time>2026-05-01T15:09:07Z</time></trkpt><trkpt lat="44.5415091427853" lon="9.727786902731273"><ele>907.0</ele><time>2026-05-01T15:09:08Z</time></trkpt><trkpt lat="44.541483359821086" lon="9.727568013632178"><ele>907.0</ele><time>2026-05-01T15:09:09Z</time></trkpt><trkpt lat="44.54145590216417" lon="9.72733077998902"><ele>906.3333333333333</ele><time>2026-05-01T15:09:10Z</time></trkpt><trkpt lat="44.54143046326063" lon="9.727089862355108"><ele>905.6666666666667</ele><time>2026-05-01T15:09:11Z</time></trkpt><trkpt lat="44.541399650613144" lon="9.726847617015155"><ele>905.0</ele><time>2026-05-01T15:09:12Z</time></trkpt><trkpt lat="44.54136970180908" lon="9.726614178326148"><ele>904.3333333333334</ele><time>2026-05-01T15:09:13Z</time></trkpt><trkpt lat="44.54134628882839" lon="9.726397616067214"><ele>903.6666666666667</ele><time>2026-05-01T15:09:14Z</time></trkpt><trkpt lat="44.54132674194845" lon="9.726185723753119"><ele>903.0</ele><time>2026-05-01T15:09:15Z</time></trkpt><trkpt lat="44.54131288257625" lon="9.725974999459009"><ele>903.0</ele><time>2026-05-01T15:09:16Z</time></trkpt><trkpt lat="44.541296540363504" lon="9.725765932796964"><ele>903.0</ele><time>2026-05-01T15:09:17Z</time></trkpt><trkpt lat="44.54127580492216" lon="9.725570172622332"><ele>903.0</ele><time>2026-05-01T15:09:18Z</time></trkpt><trkpt lat="44.54124594461122" lon="9.72538758082421"><ele>903.0</ele><time>2026-05-01T15:09:19Z</time></trkpt><trkpt lat="44.54120627646733" lon="9.725213668956965"><ele>899.75</ele><time>2026-05-01T15:09:20Z</time></trkpt><trkpt lat="44.541138891794915" lon="9.725066035367412"><ele>896.5</ele><time>2026-05-01T15:09:21Z</time></trkpt><trkpt lat="44.5410251150435" lon="9.724961993513872"><ele>893.25</ele><time>2026-05-01T15:09:22Z</time></trkpt><trkpt lat="44.54086702537297" lon="9.724886194845121"><ele>890.0</ele><time>2026-05-01T15:09:23Z</time></trkpt><trkpt lat="44.54071431819173" lon="9.724816649669688"><ele>890.0</ele><time>2026-05-01T15:09:24Z</time></trkpt><trkpt lat="44.54058189447717" lon="9.724719259433607"><ele>890.0</ele><time>2026-05-01T15:09:25Z</time></trkpt><trkpt lat="44.54047723435466" lon="9.724544723463636"><ele>890.0</ele><time>2026-05-01T15:09:26Z</time></trkpt><trkpt lat="44.540368287764245" lon="9.724333155596788"><ele>886.3333333333334</ele><time>2026-05-01T15:09:27Z</time></trkpt><trkpt lat="44.540246797325224" lon="9.724133830406702"><ele>882.6666666666667</ele><time>2026-05-01T15:09:28Z</time></trkpt><trkpt lat="44.54015189056515" lon="9.723936323287855"><ele>879.0</ele><time>2026-05-01T15:09:29Z</time></trkpt><trkpt lat="44.540056002400306" lon="9.723759389494136"><ele>879.0</ele><time>2026-05-01T15:09:30Z</time></trkpt><trkpt lat="44.539942931934554" lon="9.723602568428888"><ele>879.0</ele><time>2026-05-01T15:09:31Z</time></trkpt><trkpt lat="44.53980014454955" lon="9.723468912703806"><ele>879.0</ele><time>2026-05-01T15:09:32Z</time></trkpt><trkpt lat="44.53965178168921" lon="9.723360135428026"><ele>876.0</ele><time>2026-05-01T15:09:33Z</time></trkpt><trkpt lat="44.53951342819371" lon="9.723257491261815"><ele>873.0</ele><time>2026-05-01T15:09:34Z</time></trkpt><trkpt lat="44.539394095266495" lon="9.723154102916785"><ele>870.0</ele><time>2026-05-01T15:09:35Z</time></trkpt><trkpt lat="44.53929463472931" lon="9.723049315948753"><ele>867.0</ele><time>2026-05-01T15:09:36Z</time></trkpt><trkpt lat="44.539228765058255" lon="9.722932752892632"><ele>867.0</ele><time>2026-05-01T15:09:37Z</time></trkpt><trkpt lat="44.53924196245629" lon="9.722776857018735"><ele>867.0</ele><time>2026-05-01T15:09:38Z</time></trkpt><trkpt lat="44.539273683797425" lon="9.722613564602964"><ele>867.0</ele><time>2026-05-01T15:09:39Z</time></trkpt><trkpt lat="44.539305636813204" lon="9.722438357005387"><ele>867.0</ele><time>2026-05-01T15:09:40Z</time></trkpt><trkpt lat="44.53934666210617" lon="9.722290993439456"><ele>867.8</ele><time>2026-05-01T15:09:41Z</time></trkpt><trkpt lat="44.53936114656181" lon="9.722157584549718"><ele>868.6</ele><time>2026-05-01T15:09:42Z</time></trkpt><trkpt lat="44.53935227777762" lon="9.72203173542642"><ele>869.3999999999999</ele><time>2026-05-01T15:09:43Z</time></trkpt><trkpt lat="44.539307641956064" lon="9.721920531233438"><ele>870.1999999999999</ele><time>2026-05-01T15:09:44Z</time></trkpt><trkpt lat="44.53923041480227" lon="9.721850396132215"><ele>871.0</ele><time>2026-05-01T15:09:45Z</time></trkpt><trkpt lat="44.539143233065076" lon="9.721811569601972"><ele>871.0</ele><time>2026-05-01T15:09:46Z</time></trkpt><trkpt lat="44.53905082283826" lon="9.721824691396206"><ele>870.9999999999999</ele><time>2026-05-01T15:09:47Z</time></trkpt><trkpt lat="44.53895910729886" lon="9.721890151298162"><ele>870.9999999999999</ele><time>2026-05-01T15:09:48Z</time></trkpt><trkpt lat="44.53888962023754" lon="9.722006897646404"><ele>871.0</ele><time>2026-05-01T15:09:49Z</time></trkpt><trkpt lat="44.538853917631265" lon="9.722167332882918"><ele>871.0</ele><time>2026-05-01T15:09:50Z</time></trkpt><trkpt lat="44.538860752195745" lon="9.72234977285855"><ele>871.0</ele><time>2026-05-01T15:09:51Z</time></trkpt><trkpt lat="44.5388868055143" lon="9.722536407151434"><ele>871.0</ele><time>2026-05-01T15:09:52Z</time></trkpt><trkpt lat="44.53889620849691" lon="9.722732312509304"><ele>871.0</ele><time>2026-05-01T15:09:53Z</time></trkpt><trkpt lat="44.53890507921603" lon="9.722946307898198"><ele>871.0</ele><time>2026-05-01T15:09:54Z</time></trkpt><trkpt lat="44.53894194236913" lon="9.723167690882908"><ele>869.6666666666666</ele><time>2026-05-01T15:09:55Z</time></trkpt><trkpt lat="44.53900200620916" lon="9.723382290381606"><ele>868.3333333333333</ele><time>2026-05-01T15:09:56Z</time></trkpt><trkpt lat="44.539072205645326" lon="9.723617882059061"><ele>867.0</ele><time>2026-05-01T15:09:57Z</time></trkpt><trkpt lat="44.53914447593173" lon="9.723893945364733"><ele>865.3333333333333</ele><time>2026-05-01T15:09:58Z</time></trkpt><trkpt lat="44.53921093436895" lon="9.72415625461007"><ele>863.6666666666666</ele><time>2026-05-01T15:09:59Z</time></trkpt><trkpt lat="44.53927961870493" lon="9.724410100140817"><ele>862.0</ele><time>2026-05-01T15:10:00Z</time></trkpt><trkpt lat="44.5393466668117" lon="9.724657663543482"><ele>860.3333333333333</ele><time>2026-05-01T15:10:01Z</time></trkpt><trkpt lat="44.539409009796934" lon="9.724877210467342"><ele>858.6666666666667</ele><time>2026-05-01T15:10:02Z</time></trkpt><trkpt lat="44.539466392928404" lon="9.72507795894074"><ele>857.0</ele><time>2026-05-01T15:10:03Z</time></trkpt><trkpt lat="44.539502352197545" lon="9.725271696723173"><ele>856.75</ele><time>2026-05-01T15:10:04Z</time></trkpt><trkpt lat="44.53950614123822" lon="9.72547468062785"><ele>856.5</ele><time>2026-05-01T15:10:05Z</time></trkpt><trkpt lat="44.539470316548105" lon="9.725672804375495"><ele>856.25</ele><time>2026-05-01T15:10:06Z</time></trkpt><trkpt lat="44.53945521814198" lon="9.725850135618296"><ele>856.0</ele><time>2026-05-01T15:10:07Z</time></trkpt><trkpt lat="44.53941487533367" lon="9.725996354900257"><ele>856.1999999999999</ele><time>2026-05-01T15:10:08Z</time></trkpt><trkpt lat="44.539364383476176" lon="9.72611432353853"><ele>856.3999999999999</ele><time>2026-05-01T15:10:09Z</time></trkpt><trkpt lat="44.53927891365289" lon="9.726192459160565"><ele>856.6</ele><time>2026-05-01T15:10:10Z</time></trkpt><trkpt lat="44.53916328987214" lon="9.726212852196817"><ele>856.8</ele><time>2026-05-01T15:10:11Z</time></trkpt><trkpt lat="44.53904715429103" lon="9.726170493978064"><ele>857.0</ele><time>2026-05-01T15:10:12Z</time></trkpt><trkpt lat="44.53895592769032" lon="9.726069829016124"><ele>857.0</ele><time>2026-05-01T15:10:13Z</time></trkpt><trkpt lat="44.53892003625157" lon="9.725909993484732"><ele>857.0</ele><time>2026-05-01T15:10:14Z</time></trkpt><trkpt lat="44.53890834055546" lon="9.725750302231633"><ele>857.0</ele><time>2026-05-01T15:10:15Z</time></trkpt><trkpt lat="44.538894199581186" lon="9.725566974460612"><ele>857.0</ele><time>2026-05-01T15:10:16Z</time></trkpt><trkpt lat="44.53879452300525" lon="9.72517417663924"><ele>852.0</ele><time>2026-05-01T15:10:18Z</time></trkpt><trkpt lat="44.53868126747371" lon="9.724985271618992"><ele>847.0</ele><time>2026-05-01T15:10:19Z</time></trkpt><trkpt lat="44.53853970654572" lon="9.724797582628142"><ele>842.0</ele><time>2026-05-01T15:10:20Z</time></trkpt><trkpt lat="44.53840234927243" lon="9.72461255769587"><ele>842.0</ele><time>2026-05-01T15:10:21Z</time></trkpt><trkpt lat="44.538286487058635" lon="9.724433879768657"><ele>842.0</ele><time>2026-05-01T15:10:22Z</time></trkpt><trkpt lat="44.53817622595515" lon="9.724259891934281"><ele>842.0</ele><time>2026-05-01T15:10:23Z</time></trkpt><trkpt lat="44.538070509765646" lon="9.724095853251892"><ele>842.5</ele><time>2026-05-01T15:10:24Z</time></trkpt><trkpt lat="44.53796642880684" lon="9.723942292261507"><ele>843.0</ele><time>2026-05-01T15:10:25Z</time></trkpt><trkpt lat="44.53786949935837" lon="9.723801061252901"><ele>843.5</ele><time>2026-05-01T15:10:26Z</time></trkpt><trkpt lat="44.53778426565471" lon="9.72366410056222"><ele>844.0</ele><time>2026-05-01T15:10:27Z</time></trkpt><trkpt lat="44.53771866363019" lon="9.723503700485598"><ele>842.0</ele><time>2026-05-01T15:10:28Z</time></trkpt><trkpt lat="44.53763037114383" lon="9.723352386786265"><ele>840.0</ele><time>2026-05-01T15:10:29Z</time></trkpt><trkpt lat="44.53755918985643" lon="9.72317476020638"><ele>838.0</ele><time>2026-05-01T15:10:30Z</time></trkpt><trkpt lat="44.53748616886157" lon="9.722999551388316"><ele>836.0</ele><time>2026-05-01T15:10:31Z</time></trkpt><trkpt lat="44.53741185770812" lon="9.722820468257094"><ele>836.0</ele><time>2026-05-01T15:10:32Z</time></trkpt><trkpt lat="44.53734671373803" lon="9.722650429488322"><ele>836.0</ele><time>2026-05-01T15:10:33Z</time></trkpt><trkpt lat="44.53728042272592" lon="9.722492844415632"><ele>836.0</ele><time>2026-05-01T15:10:34Z</time></trkpt><trkpt lat="44.53721976662783" lon="9.722344234204119"><ele>836.0</ele><time>2026-05-01T15:10:35Z</time></trkpt><trkpt lat="44.5371652754634" lon="9.722209496903016"><ele>836.0</ele><time>2026-05-01T15:10:36Z</time></trkpt><trkpt lat="44.537111333801015" lon="9.722086916536671"><ele>836.0</ele><time>2026-05-01T15:10:37Z</time></trkpt><trkpt lat="44.537047208631606" lon="9.721979598916606"><ele>836.0</ele><time>2026-05-01T15:10:38Z</time></trkpt><trkpt lat="44.53696634777712" lon="9.72189390158234"><ele>836.0</ele><time>2026-05-01T15:10:39Z</time></trkpt><trkpt lat="44.53686358823644" lon="9.721849985041372"><ele>836.0</ele><time>2026-05-01T15:10:40Z</time></trkpt><trkpt lat="44.536758296117355" lon="9.721856202602206"><ele>834.3333333333334</ele><time>2026-05-01T15:10:41Z</time></trkpt><trkpt lat="44.536670698083576" lon="9.72191360267223"><ele>832.6666666666667</ele><time>2026-05-01T15:10:42Z</time></trkpt><trkpt lat="44.536616497816745" lon="9.721974820432038"><ele>831.0</ele><time>2026-05-01T15:10:43Z</time></trkpt><trkpt lat="44.53656362583184" lon="9.722042360818639"><ele>829.3333333333333</ele><time>2026-05-01T15:10:45Z</time></trkpt><trkpt lat="44.5365513485325" lon="9.721935326711607"><ele>827.6666666666666</ele><time>2026-05-01T15:10:48Z</time></trkpt><trkpt lat="44.5365543080593" lon="9.721825615035906"><ele>826.0</ele><time>2026-05-01T15:10:49Z</time></trkpt><trkpt lat="44.53656989303836" lon="9.721684821125466"><ele>826.0</ele><time>2026-05-01T15:10:50Z</time></trkpt><trkpt lat="44.53657196083346" lon="9.721544071968713"><ele>826.0</ele><time>2026-05-01T15:10:51Z</time></trkpt><trkpt lat="44.53657557806155" lon="9.72140317304173"><ele>826.0</ele><time>2026-05-01T15:10:52Z</time></trkpt><trkpt lat="44.53658199889692" lon="9.721262066201785"><ele>826.0</ele><time>2026-05-01T15:10:53Z</time></trkpt><trkpt lat="44.53659249823747" lon="9.721133411639341"><ele>826.0</ele><time>2026-05-01T15:10:54Z</time></trkpt><trkpt lat="44.5365996915323" lon="9.721006788835302"><ele>825.0</ele><time>2026-05-01T15:10:55Z</time></trkpt><trkpt lat="44.53658290654143" lon="9.720886382091681"><ele>824.0</ele><time>2026-05-01T15:10:56Z</time></trkpt><trkpt lat="44.53652849898345" lon="9.72080573048032"><ele>823.0</ele><time>2026-05-01T15:10:57Z</time></trkpt><trkpt lat="44.536464372208954" lon="9.72072606177448"><ele>822.0</ele><time>2026-05-01T15:10:58Z</time></trkpt><trkpt lat="44.5363314510917" lon="9.720683704446369"><ele>821.0</ele><time>2026-05-01T15:10:59Z</time></trkpt><trkpt lat="44.53619440221375" lon="9.720630401192881"><ele>819.25</ele><time>2026-05-01T15:11:00Z</time></trkpt><trkpt lat="44.53606399562169" lon="9.72057660302018"><ele>817.5</ele><time>2026-05-01T15:11:01Z</time></trkpt><trkpt lat="44.535930955355894" lon="9.720538491473675"><ele>815.75</ele><time>2026-05-01T15:11:02Z</time></trkpt><trkpt lat="44.535814387879434" lon="9.720465416634548"><ele>814.0</ele><time>2026-05-01T15:11:03Z</time></trkpt><trkpt lat="44.53571805458022" lon="9.720357564602137"><ele>814.0</ele><time>2026-05-01T15:11:04Z</time></trkpt><trkpt lat="44.53562586578546" lon="9.720268398958757"><ele>814.0</ele><time>2026-05-01T15:11:05Z</time></trkpt><trkpt lat="44.53554155218349" lon="9.720185175835146"><ele>814.0</ele><time>2026-05-01T15:11:06Z</time></trkpt><trkpt lat="44.53547147562836" lon="9.720118464744976"><ele>814.0</ele><time>2026-05-01T15:11:07Z</time></trkpt><trkpt lat="44.53539815814677" lon="9.720048668371316"><ele>814.0</ele><time>2026-05-01T15:11:08Z</time></trkpt><trkpt lat="44.53531717653472" lon="9.719971508411689"><ele>813.2</ele><time>2026-05-01T15:11:09Z</time></trkpt><trkpt lat="44.53523712297471" lon="9.719895227441928"><ele>812.4000000000001</ele><time>2026-05-01T15:11:10Z</time></trkpt><trkpt lat="44.5351592426412" lon="9.719821017316416"><ele>811.6</ele><time>2026-05-01T15:11:11Z</time></trkpt><trkpt lat="44.5350887238605" lon="9.719752265692808"><ele>810.8</ele><time>2026-05-01T15:11:12Z</time></trkpt><trkpt lat="44.53501604582962" lon="9.719675396557037"><ele>810.0</ele><time>2026-05-01T15:11:13Z</time></trkpt><trkpt lat="44.53494252270953" lon="9.719583422226483"><ele>810.0</ele><time>2026-05-01T15:11:14Z</time></trkpt><trkpt lat="44.53488537491704" lon="9.719479352830017"><ele>810.0</ele><time>2026-05-01T15:11:15Z</time></trkpt><trkpt lat="44.534840700672575" lon="9.719375212791684"><ele>810.0</ele><time>2026-05-01T15:11:16Z</time></trkpt><trkpt lat="44.53479028203346" lon="9.719279541627378"><ele>810.0</ele><time>2026-05-01T15:11:17Z</time></trkpt><trkpt lat="44.53472820627698" lon="9.719205891511027"><ele>810.0</ele><time>2026-05-01T15:11:18Z</time></trkpt><trkpt lat="44.53464757401433" lon="9.719188970928077"><ele>810.0</ele><time>2026-05-01T15:11:19Z</time></trkpt><trkpt lat="44.53454741060815" lon="9.719149040097378"><ele>810.25</ele><time>2026-05-01T15:11:20Z</time></trkpt><trkpt lat="44.53445304830042" lon="9.719174095972717"><ele>810.5</ele><time>2026-05-01T15:11:21Z</time></trkpt><trkpt lat="44.534362661703334" lon="9.719208073159885"><ele>810.75</ele><time>2026-05-01T15:11:22Z</time></trkpt><trkpt lat="44.534248167616184" lon="9.719275318558616"><ele>811.0</ele><time>2026-05-01T15:11:23Z</time></trkpt><trkpt lat="44.53410732314892" lon="9.719318731955239"><ele>811.0</ele><time>2026-05-01T15:11:24Z</time></trkpt><trkpt lat="44.53396288097267" lon="9.719373781473129"><ele>811.0</ele><time>2026-05-01T15:11:25Z</time></trkpt><trkpt lat="44.5338082372997" lon="9.719406120030396"><ele>811.0</ele><time>2026-05-01T15:11:26Z</time></trkpt><trkpt lat="44.53363139068639" lon="9.719423649186837"><ele>811.3333333333333</ele><time>2026-05-01T15:11:27Z</time></trkpt><trkpt lat="44.53344376514984" lon="9.719498477877641"><ele>811.6666666666667</ele><time>2026-05-01T15:11:28Z</time></trkpt><trkpt lat="44.5332819312812" lon="9.719575930436164"><ele>812.0</ele><time>2026-05-01T15:11:29Z</time></trkpt><trkpt lat="44.53314225477141" lon="9.719673663492172"><ele>812.0</ele><time>2026-05-01T15:11:30Z</time></trkpt><trkpt lat="44.533006819239" lon="9.719734928745735"><ele>812.0</ele><time>2026-05-01T15:11:31Z</time></trkpt><trkpt lat="44.53288950934076" lon="9.719798756092473"><ele>812.0</ele><time>2026-05-01T15:11:32Z</time></trkpt><trkpt lat="44.53277893246833" lon="9.71985274963677"><ele>812.0</ele><time>2026-05-01T15:11:33Z</time></trkpt><trkpt lat="44.53265910224596" lon="9.719919630091852"><ele>812.25</ele><time>2026-05-01T15:11:34Z</time></trkpt><trkpt lat="44.532513220141915" lon="9.719933647289553"><ele>812.5</ele><time>2026-05-01T15:11:35Z</time></trkpt><trkpt lat="44.532367874672794" lon="9.7199829731024"><ele>812.75</ele><time>2026-05-01T15:11:36Z</time></trkpt><trkpt lat="44.53221635162041" lon="9.720009946040246"><ele>813.0</ele><time>2026-05-01T15:11:37Z</time></trkpt><trkpt lat="44.5320616558519" lon="9.720015953567241"><ele>812.25</ele><time>2026-05-01T15:11:38Z</time></trkpt><trkpt lat="44.531910727615205" lon="9.720035863331907"><ele>811.5</ele><time>2026-05-01T15:11:39Z</time></trkpt><trkpt lat="44.53176186507257" lon="9.720077592932775"><ele>810.75</ele><time>2026-05-01T15:11:40Z</time></trkpt><trkpt lat="44.53161891264031" lon="9.720066889489889"><ele>810.0</ele><time>2026-05-01T15:11:41Z</time></trkpt><trkpt lat="44.531491082149394" lon="9.720075939349881"><ele>810.0</ele><time>2026-05-01T15:11:42Z</time></trkpt><trkpt lat="44.53138196083575" lon="9.720079227440875"><ele>810.0</ele><time>2026-05-01T15:11:43Z</time></trkpt><trkpt lat="44.53127701388096" lon="9.720092294729978"><ele>810.0</ele><time>2026-05-01T15:11:44Z</time></trkpt><trkpt lat="44.53117467401355" lon="9.720053584340562"><ele>810.0</ele><time>2026-05-01T15:11:45Z</time></trkpt><trkpt lat="44.53108477578069" lon="9.719957401375169"><ele>810.0</ele><time>2026-05-01T15:11:46Z</time></trkpt><trkpt lat="44.530979827677676" lon="9.719888790669705"><ele>808.5</ele><time>2026-05-01T15:11:47Z</time></trkpt><trkpt lat="44.530912686841724" lon="9.719768859399794"><ele>807.0</ele><time>2026-05-01T15:11:48Z</time></trkpt><trkpt lat="44.53083561380397" lon="9.719669945626691"><ele>805.5</ele><time>2026-05-01T15:11:49Z</time></trkpt><trkpt lat="44.53077542377956" lon="9.719527136892076"><ele>804.0</ele><time>2026-05-01T15:11:50Z</time></trkpt><trkpt lat="44.53071897552872" lon="9.719371666722244"><ele>804.0</ele><time>2026-05-01T15:11:51Z</time></trkpt><trkpt lat="44.53067499812582" lon="9.719222550727583"><ele>804.0</ele><time>2026-05-01T15:11:52Z</time></trkpt><trkpt lat="44.53064698934334" lon="9.719086666930872"><ele>804.0</ele><time>2026-05-01T15:11:53Z</time></trkpt><trkpt lat="44.53063812495772" lon="9.718945884860378"><ele>804.0</ele><time>2026-05-01T15:11:54Z</time></trkpt><trkpt lat="44.53068375659444" lon="9.718800333192236"><ele>804.0</ele><time>2026-05-01T15:11:55Z</time></trkpt><trkpt lat="44.53070895498113" lon="9.718616860594317"><ele>802.5</ele><time>2026-05-01T15:11:56Z</time></trkpt><trkpt lat="44.53075021528844" lon="9.718438350851727"><ele>801.0</ele><time>2026-05-01T15:11:57Z</time></trkpt><trkpt lat="44.5307787018072" lon="9.718262235257917"><ele>799.5</ele><time>2026-05-01T15:11:58Z</time></trkpt><trkpt lat="44.530806775911856" lon="9.718092121616465"><ele>798.0</ele><time>2026-05-01T15:11:59Z</time></trkpt><trkpt lat="44.53082301762889" lon="9.717925024769992"><ele>798.0</ele><time>2026-05-01T15:12:00Z</time></trkpt><trkpt lat="44.53081789169691" lon="9.717746209625695"><ele>798.0</ele><time>2026-05-01T15:12:01Z</time></trkpt><trkpt lat="44.53080289027754" lon="9.717553245673404"><ele>798.0</ele><time>2026-05-01T15:12:02Z</time></trkpt><trkpt lat="44.53078932043241" lon="9.717369379547774"><ele>798.0</ele><time>2026-05-01T15:12:03Z</time></trkpt><trkpt lat="44.530781161934804" lon="9.717201307835325"><ele>796.0</ele><time>2026-05-01T15:12:04Z</time></trkpt><trkpt lat="44.530783923790096" lon="9.717057268050546"><ele>794.0</ele><time>2026-05-01T15:12:05Z</time></trkpt><trkpt lat="44.53079151663971" lon="9.716921594946136"><ele>792.0</ele><time>2026-05-01T15:12:06Z</time></trkpt><trkpt lat="44.53081154166239" lon="9.71681291608813"><ele>790.0</ele><time>2026-05-01T15:12:07Z</time></trkpt><trkpt lat="44.53085292885073" lon="9.716726830501758"><ele>788.0</ele><time>2026-05-01T15:12:08Z</time></trkpt><trkpt lat="44.530922718221625" lon="9.716675911971626"><ele>786.0</ele><time>2026-05-01T15:12:09Z</time></trkpt><trkpt lat="44.531015748642446" lon="9.716669346453152"><ele>784.25</ele><time>2026-05-01T15:12:10Z</time></trkpt><trkpt lat="44.53112766052875" lon="9.716735199820162"><ele>782.5</ele><time>2026-05-01T15:12:11Z</time></trkpt><trkpt lat="44.5312532559385" lon="9.716749261385871"><ele>780.75</ele><time>2026-05-01T15:12:12Z</time></trkpt><trkpt lat="44.531386671916074" lon="9.71677485205534"><ele>779.0</ele><time>2026-05-01T15:12:13Z</time></trkpt><trkpt lat="44.53152631888542" lon="9.716775576988566"><ele>777.0</ele><time>2026-05-01T15:12:14Z</time></trkpt><trkpt lat="44.53167762506327" lon="9.716765148636288"><ele>775.0</ele><time>2026-05-01T15:12:15Z</time></trkpt><trkpt lat="44.53183407405765" lon="9.7167433301785"><ele>773.0</ele><time>2026-05-01T15:12:16Z</time></trkpt><trkpt lat="44.53198768643791" lon="9.716706675918541"><ele>774.0</ele><time>2026-05-01T15:12:17Z</time></trkpt><trkpt lat="44.53214119341068" lon="9.716643201991973"><ele>775.0</ele><time>2026-05-01T15:12:18Z</time></trkpt><trkpt lat="44.53230286006655" lon="9.716580493466562"><ele>776.0</ele><time>2026-05-01T15:12:19Z</time></trkpt><trkpt lat="44.53246145786786" lon="9.716528073574478"><ele>776.0</ele><time>2026-05-01T15:12:20Z</time></trkpt><trkpt lat="44.53261586983546" lon="9.716475267971578"><ele>776.0</ele><time>2026-05-01T15:12:21Z</time></trkpt><trkpt lat="44.53275797887207" lon="9.716415744377317"><ele>776.0</ele><time>2026-05-01T15:12:22Z</time></trkpt><trkpt lat="44.53290404393131" lon="9.716355981260763"><ele>775.3333333333334</ele><time>2026-05-01T15:12:23Z</time></trkpt><trkpt lat="44.533051073616946" lon="9.716297130339536"><ele>774.6666666666667</ele><time>2026-05-01T15:12:24Z</time></trkpt><trkpt lat="44.533201666967095" lon="9.716264976343416"><ele>774.0</ele><time>2026-05-01T15:12:25Z</time></trkpt><trkpt lat="44.5333434554077" lon="9.716187860884968"><ele>774.0</ele><time>2026-05-01T15:12:26Z</time></trkpt><trkpt lat="44.53347855648951" lon="9.716136338253033"><ele>774.0</ele><time>2026-05-01T15:12:27Z</time></trkpt><trkpt lat="44.5336073266951" lon="9.71607570115381"><ele>774.0</ele><time>2026-05-01T15:12:28Z</time></trkpt><trkpt lat="44.533731549826534" lon="9.716019740332921"><ele>774.0</ele><time>2026-05-01T15:12:29Z</time></trkpt><trkpt lat="44.533861889891035" lon="9.715973422341252"><ele>771.75</ele><time>2026-05-01T15:12:30Z</time></trkpt><trkpt lat="44.533986962173685" lon="9.715924807859347"><ele>769.5</ele><time>2026-05-01T15:12:31Z</time></trkpt><trkpt lat="44.534108826124644" lon="9.715872571330294"><ele>767.25</ele><time>2026-05-01T15:12:32Z</time></trkpt><trkpt lat="44.534235248026" lon="9.715848336984138"><ele>765.0</ele><time>2026-05-01T15:12:33Z</time></trkpt><trkpt lat="44.53437021525779" lon="9.715811149368237"><ele>765.0</ele><time>2026-05-01T15:12:34Z</time></trkpt><trkpt lat="44.5345080926324" lon="9.715782161246274"><ele>765.0</ele><time>2026-05-01T15:12:35Z</time></trkpt><trkpt lat="44.53465284654053" lon="9.715761387679551"><ele>765.0</ele><time>2026-05-01T15:12:36Z</time></trkpt><trkpt lat="44.534804473511386" lon="9.715747167576056"><ele>765.0</ele><time>2026-05-01T15:12:37Z</time></trkpt><trkpt lat="44.53495883304369" lon="9.715745681995745"><ele>764.6666666666666</ele><time>2026-05-01T15:12:38Z</time></trkpt><trkpt lat="44.535116180194464" lon="9.715758736961423"><ele>764.3333333333333</ele><time>2026-05-01T15:12:39Z</time></trkpt><trkpt lat="44.53527537185036" lon="9.715778852731907"><ele>764.0</ele><time>2026-05-01T15:12:40Z</time></trkpt><trkpt lat="44.53541671496157" lon="9.715807348885292"><ele>764.0</ele><time>2026-05-01T15:12:41Z</time></trkpt><trkpt lat="44.53554512729215" lon="9.71583351093753"><ele>764.0</ele><time>2026-05-01T15:12:42Z</time></trkpt><trkpt lat="44.535675096728326" lon="9.715859528336654"><ele>764.0</ele><time>2026-05-01T15:12:43Z</time></trkpt><trkpt lat="44.53579509918758" lon="9.715884470325149"><ele>764.0</ele><time>2026-05-01T15:12:44Z</time></trkpt><trkpt lat="44.535913729429566" lon="9.71589070008094"><ele>764.0</ele><time>2026-05-01T15:12:45Z</time></trkpt><trkpt lat="44.53602958559654" lon="9.715924373714492"><ele>764.0</ele><time>2026-05-01T15:12:46Z</time></trkpt><trkpt lat="44.53614376720587" lon="9.715956612248135"><ele>764.0</ele><time>2026-05-01T15:12:47Z</time></trkpt><trkpt lat="44.536260798241095" lon="9.715979392991361"><ele>764.0</ele><time>2026-05-01T15:12:48Z</time></trkpt><trkpt lat="44.53638648230778" lon="9.716024963841916"><ele>763.5</ele><time>2026-05-01T15:12:49Z</time></trkpt><trkpt lat="44.536529596322175" lon="9.716017180317618"><ele>763.0</ele><time>2026-05-01T15:12:50Z</time></trkpt><trkpt lat="44.53667114497225" lon="9.716032276828692"><ele>762.5</ele><time>2026-05-01T15:12:51Z</time></trkpt><trkpt lat="44.536821189898674" lon="9.716045532567517"><ele>762.0</ele><time>2026-05-01T15:12:52Z</time></trkpt><trkpt lat="44.536971646834594" lon="9.716048764395484"><ele>761.5</ele><time>2026-05-01T15:12:53Z</time></trkpt><trkpt lat="44.53712364560569" lon="9.716062239692413"><ele>761.0</ele><time>2026-05-01T15:12:54Z</time></trkpt><trkpt lat="44.53726070545034" lon="9.716063687224073"><ele>760.5</ele><time>2026-05-01T15:12:55Z</time></trkpt><trkpt lat="44.53739325128417" lon="9.716058360869006"><ele>760.0</ele><time>2026-05-01T15:12:56Z</time></trkpt><trkpt lat="44.53750780204672" lon="9.7160383904643"><ele>760.0</ele><time>2026-05-01T15:12:57Z</time></trkpt><trkpt lat="44.53760001107203" lon="9.715992085807182"><ele>760.0</ele><time>2026-05-01T15:12:58Z</time></trkpt><trkpt lat="44.537676995859094" lon="9.715914804809604"><ele>760.0</ele><time>2026-05-01T15:12:59Z</time></trkpt><trkpt lat="44.53773070607082" lon="9.715805517514111"><ele>760.0</ele><time>2026-05-01T15:13:00Z</time></trkpt><trkpt lat="44.53776595773828" lon="9.715670111377525"><ele>760.0</ele><time>2026-05-01T15:13:01Z</time></trkpt><trkpt lat="44.53779715703182" lon="9.715511201368308"><ele>760.0</ele><time>2026-05-01T15:13:02Z</time></trkpt><trkpt lat="44.53782930416921" lon="9.715350110352363"><ele>760.0</ele><time>2026-05-01T15:13:03Z</time></trkpt><trkpt lat="44.53785783189486" lon="9.715191979713033"><ele>760.0</ele><time>2026-05-01T15:13:04Z</time></trkpt><trkpt lat="44.53788121159048" lon="9.715035746779042"><ele>760.0</ele><time>2026-05-01T15:13:05Z</time></trkpt><trkpt lat="44.53790418366408" lon="9.714888248052656"><ele>759.8</ele><time>2026-05-01T15:13:06Z</time></trkpt><trkpt lat="44.537927895245865" lon="9.714760060643572"><ele>759.6</ele><time>2026-05-01T15:13:07Z</time></trkpt><trkpt lat="44.537962404666445" lon="9.714642047338344"><ele>759.4000000000001</ele><time>2026-05-01T15:13:08Z</time></trkpt><trkpt lat="44.53801529935014" lon="9.714538587243371"><ele>759.2</ele><time>2026-05-01T15:13:09Z</time></trkpt><trkpt lat="44.53810745246907" lon="9.71446751065849"><ele>759.0</ele><time>2026-05-01T15:13:10Z</time></trkpt><trkpt lat="44.53820336569592" lon="9.714368474212163"><ele>759.0</ele><time>2026-05-01T15:13:11Z</time></trkpt><trkpt lat="44.538309855533846" lon="9.71423895819328"><ele>759.0</ele><time>2026-05-01T15:13:12Z</time></trkpt><trkpt lat="44.5384270861463" lon="9.714123546167391"><ele>759.0</ele><time>2026-05-01T15:13:13Z</time></trkpt><trkpt lat="44.53852454719397" lon="9.713991430249113"><ele>759.0</ele><time>2026-05-01T15:13:14Z</time></trkpt><trkpt lat="44.5386033336891" lon="9.713849487476027"><ele>759.0</ele><time>2026-05-01T15:13:15Z</time></trkpt><trkpt lat="44.53865587663124" lon="9.713690106556612"><ele>759.0</ele><time>2026-05-01T15:13:16Z</time></trkpt><trkpt lat="44.53869422733549" lon="9.713517018781074"><ele>759.0</ele><time>2026-05-01T15:13:17Z</time></trkpt><trkpt lat="44.53873671439589" lon="9.713335934159664"><ele>759.0</ele><time>2026-05-01T15:13:18Z</time></trkpt><trkpt lat="44.53879719152302" lon="9.713164024274313"><ele>757.75</ele><time>2026-05-01T15:13:19Z</time></trkpt><trkpt lat="44.53886659516251" lon="9.712993369842575"><ele>756.5</ele><time>2026-05-01T15:13:20Z</time></trkpt><trkpt lat="44.53895037690998" lon="9.712837282200196"><ele>755.25</ele><time>2026-05-01T15:13:21Z</time></trkpt><trkpt lat="44.53901289494113" lon="9.712687042667238"><ele>754.0</ele><time>2026-05-01T15:13:22Z</time></trkpt><trkpt lat="44.53908199996831" lon="9.712566761031178"><ele>753.4000000000001</ele><time>2026-05-01T15:13:23Z</time></trkpt><trkpt lat="44.539142698933105" lon="9.712470901303062"><ele>752.8</ele><time>2026-05-01T15:13:24Z</time></trkpt><trkpt lat="44.539167502083444" lon="9.712361170446766"><ele>752.2</ele><time>2026-05-01T15:13:25Z</time></trkpt><trkpt lat="44.53914958783258" lon="9.712230792709367"><ele>751.5999999999999</ele><time>2026-05-01T15:13:26Z</time></trkpt><trkpt lat="44.539084164290216" lon="9.712138504830271"><ele>751.0</ele><time>2026-05-01T15:13:27Z</time></trkpt><trkpt lat="44.53901356664874" lon="9.712036861743195"><ele>751.0</ele><time>2026-05-01T15:13:28Z</time></trkpt><trkpt lat="44.538951644328115" lon="9.711926177454147"><ele>751.0</ele><time>2026-05-01T15:13:29Z</time></trkpt><trkpt lat="44.53892829496605" lon="9.71179689360952"><ele>751.0</ele><time>2026-05-01T15:13:30Z</time></trkpt><trkpt lat="44.53891176684744" lon="9.711675599334304"><ele>751.0</ele><time>2026-05-01T15:13:31Z</time></trkpt><trkpt lat="44.53892849440578" lon="9.711555964812334"><ele>751.0</ele><time>2026-05-01T15:13:32Z</time></trkpt><trkpt lat="44.5389426170902" lon="9.71143062558828"><ele>751.0</ele><time>2026-05-01T15:13:33Z</time></trkpt><trkpt lat="44.539005655042885" lon="9.71130498139144"><ele>751.0</ele><time>2026-05-01T15:13:34Z</time></trkpt><trkpt lat="44.53907655862537" lon="9.711187235863441"><ele>751.0</ele><time>2026-05-01T15:13:35Z</time></trkpt><trkpt lat="44.53911463131136" lon="9.711045527733493"><ele>751.0</ele><time>2026-05-01T15:13:36Z</time></trkpt><trkpt lat="44.53916262099808" lon="9.71090834992778"><ele>751.0</ele><time>2026-05-01T15:13:37Z</time></trkpt><trkpt lat="44.539208496584116" lon="9.710776973801828"><ele>750.1999999999999</ele><time>2026-05-01T15:13:38Z</time></trkpt><trkpt lat="44.53924847679314" lon="9.710662199310562"><ele>749.4</ele><time>2026-05-01T15:13:39Z</time></trkpt><trkpt lat="44.53928605524821" lon="9.710558744488678"><ele>748.6</ele><time>2026-05-01T15:13:40Z</time></trkpt><trkpt lat="44.53932676444692" lon="9.710450613754464"><ele>747.8</ele><time>2026-05-01T15:13:41Z</time></trkpt><trkpt lat="44.53937347639074" lon="9.710330943322662"><ele>747.0</ele><time>2026-05-01T15:13:42Z</time></trkpt><trkpt lat="44.539424720795594" lon="9.710197156680433"><ele>745.75</ele><time>2026-05-01T15:13:43Z</time></trkpt><trkpt lat="44.539474679407604" lon="9.71005585069213"><ele>744.5</ele><time>2026-05-01T15:13:44Z</time></trkpt><trkpt lat="44.53952482179216" lon="9.709915123305214"><ele>743.25</ele><time>2026-05-01T15:13:45Z</time></trkpt><trkpt lat="44.53956748760524" lon="9.709766068572884"><ele>742.0</ele><time>2026-05-01T15:13:46Z</time></trkpt><trkpt lat="44.53960934798342" lon="9.709611410779106"><ele>743.0</ele><time>2026-05-01T15:13:47Z</time></trkpt><trkpt lat="44.53965696909878" lon="9.709451154219236"><ele>744.0</ele><time>2026-05-01T15:13:48Z</time></trkpt><trkpt lat="44.5396963478594" lon="9.709287325272083"><ele>745.0</ele><time>2026-05-01T15:13:49Z</time></trkpt><trkpt lat="44.539725805900055" lon="9.709121119900521"><ele>746.0</ele><time>2026-05-01T15:13:50Z</time></trkpt><trkpt lat="44.539743569777656" lon="9.708957063082321"><ele>746.0</ele><time>2026-05-01T15:13:51Z</time></trkpt><trkpt lat="44.53975205021578" lon="9.708804870096815"><ele>746.0</ele><time>2026-05-01T15:13:52Z</time></trkpt><trkpt lat="44.539751980733435" lon="9.708661011657005"><ele>746.0</ele><time>2026-05-01T15:13:53Z</time></trkpt><trkpt lat="44.53974335052834" lon="9.708516479101107"><ele>746.0</ele><time>2026-05-01T15:13:54Z</time></trkpt><trkpt lat="44.53976383207583" lon="9.70838189198185"><ele>746.0</ele><time>2026-05-01T15:13:55Z</time></trkpt><trkpt lat="44.53977438553337" lon="9.70823806325425"><ele>744.5999999999999</ele><time>2026-05-01T15:13:56Z</time></trkpt><trkpt lat="44.539840476542864" lon="9.708119937070576"><ele>743.2</ele><time>2026-05-01T15:13:57Z</time></trkpt><trkpt lat="44.53991706890469" lon="9.708043100411924"><ele>741.8</ele><time>2026-05-01T15:13:58Z</time></trkpt><trkpt lat="44.53999544216472" lon="9.70797774784311"><ele>740.4000000000001</ele><time>2026-05-01T15:13:59Z</time></trkpt><trkpt lat="44.540081917043146" lon="9.70790591163278"><ele>739.0</ele><time>2026-05-01T15:14:00Z</time></trkpt><trkpt lat="44.54016413050439" lon="9.707861880629059"><ele>739.0</ele><time>2026-05-01T15:14:01Z</time></trkpt><trkpt lat="44.54023484877076" lon="9.707834012342238"><ele>739.0</ele><time>2026-05-01T15:14:02Z</time></trkpt><trkpt lat="44.540315238923924" lon="9.707837859712841"><ele>739.0</ele><time>2026-05-01T15:14:03Z</time></trkpt><trkpt lat="44.540417761240384" lon="9.707840809117116"><ele>739.0</ele><time>2026-05-01T15:14:04Z</time></trkpt><trkpt lat="44.540538393164255" lon="9.707837372146765"><ele>739.0</ele><time>2026-05-01T15:14:05Z</time></trkpt><trkpt lat="44.54066038942441" lon="9.707831503913555"><ele>741.75</ele><time>2026-05-01T15:14:06Z</time></trkpt><trkpt lat="44.540783039046566" lon="9.707825602357193"><ele>744.5</ele><time>2026-05-01T15:14:07Z</time></trkpt><trkpt lat="44.54090760377248" lon="9.707816466991169"><ele>747.25</ele><time>2026-05-01T15:14:08Z</time></trkpt><trkpt lat="44.54103242853709" lon="9.707803162343266"><ele>750.0</ele><time>2026-05-01T15:14:09Z</time></trkpt><trkpt lat="44.54114890934217" lon="9.707783573805568"><ele>751.8</ele><time>2026-05-01T15:14:10Z</time></trkpt><trkpt lat="44.541259955576734" lon="9.707761641529316"><ele>753.6</ele><time>2026-05-01T15:14:11Z</time></trkpt><trkpt lat="44.54136755021878" lon="9.707739825858667"><ele>755.4000000000001</ele><time>2026-05-01T15:14:12Z</time></trkpt><trkpt lat="44.54147387463566" lon="9.707716209972222"><ele>757.2</ele><time>2026-05-01T15:14:13Z</time></trkpt><trkpt lat="44.54158002814001" lon="9.707692631992405"><ele>759.0</ele><time>2026-05-01T15:14:14Z</time></trkpt><trkpt lat="44.541683445330015" lon="9.707657599849234"><ele>757.8000000000001</ele><time>2026-05-01T15:14:15Z</time></trkpt><trkpt lat="44.541784892667174" lon="9.707625890928767"><ele>756.6</ele><time>2026-05-01T15:14:16Z</time></trkpt><trkpt lat="44.541878121141806" lon="9.707543640242442"><ele>755.4</ele><time>2026-05-01T15:14:17Z</time></trkpt><trkpt lat="44.541972167222895" lon="9.707463950360198"><ele>754.2</ele><time>2026-05-01T15:14:18Z</time></trkpt><trkpt lat="44.54208777258276" lon="9.707475268058491"><ele>753.0</ele><time>2026-05-01T15:14:19Z</time></trkpt><trkpt lat="44.54220147148476" lon="9.707444880384006"><ele>753.0</ele><time>2026-05-01T15:14:20Z</time></trkpt><trkpt lat="44.54231224155755" lon="9.707369908443312"><ele>753.0</ele><time>2026-05-01T15:14:21Z</time></trkpt><trkpt lat="44.54241881834504" lon="9.707289160039798"><ele>753.0</ele><time>2026-05-01T15:14:22Z</time></trkpt><trkpt lat="44.54252219379212" lon="9.707197801834377"><ele>753.0</ele><time>2026-05-01T15:14:23Z</time></trkpt><trkpt lat="44.54261310332126" lon="9.707112762421197"><ele>753.0</ele><time>2026-05-01T15:14:24Z</time></trkpt><trkpt lat="44.54269264944754" lon="9.707035838095464"><ele>753.0</ele><time>2026-05-01T15:14:25Z</time></trkpt><trkpt lat="44.54274940973481" lon="9.706958281077698"><ele>753.0</ele><time>2026-05-01T15:14:26Z</time></trkpt><trkpt lat="44.5427903967365" lon="9.706871442065413"><ele>753.0</ele><time>2026-05-01T15:14:27Z</time></trkpt><trkpt lat="44.542836899206144" lon="9.706792278574598"><ele>753.0</ele><time>2026-05-01T15:14:28Z</time></trkpt><trkpt lat="44.542834119357586" lon="9.706679059651883"><ele>753.0</ele><time>2026-05-01T15:14:29Z</time></trkpt><trkpt lat="44.54282727737817" lon="9.706555890775968"><ele>751.2</ele><time>2026-05-01T15:14:30Z</time></trkpt><trkpt lat="44.5428173927677" lon="9.706422105678906"><ele>749.4</ele><time>2026-05-01T15:14:31Z</time></trkpt><trkpt lat="44.54280706328803" lon="9.706280293064063"><ele>747.6</ele><time>2026-05-01T15:14:32Z</time></trkpt><trkpt lat="44.54280316272086" lon="9.706157859031721"><ele>745.8000000000001</ele><time>2026-05-01T15:14:33Z</time></trkpt><trkpt lat="44.54280978268518" lon="9.70606619563926"><ele>744.0</ele><time>2026-05-01T15:14:34Z</time></trkpt><trkpt lat="44.5428616010247" lon="9.705908582662977"><ele>747.6666666666666</ele><time>2026-05-01T15:14:36Z</time></trkpt><trkpt lat="44.54290516522427" lon="9.705813393609219"><ele>751.3333333333334</ele><time>2026-05-01T15:14:37Z</time></trkpt><trkpt lat="44.54294797834635" lon="9.705709398503668"><ele>755.0</ele><time>2026-05-01T15:14:38Z</time></trkpt><trkpt lat="44.54298307584483" lon="9.705593052791656"><ele>758.6666666666667</ele><time>2026-05-01T15:14:39Z</time></trkpt><trkpt lat="44.542997248031924" lon="9.705470367978604"><ele>762.3333333333334</ele><time>2026-05-01T15:14:40Z</time></trkpt><trkpt lat="44.54298805246475" lon="9.70533435341487"><ele>766.0</ele><time>2026-05-01T15:14:41Z</time></trkpt><trkpt lat="44.54297516198984" lon="9.70519304627977"><ele>766.1999999999999</ele><time>2026-05-01T15:14:42Z</time></trkpt><trkpt lat="44.54296759536882" lon="9.70504648981603"><ele>766.4</ele><time>2026-05-01T15:14:43Z</time></trkpt><trkpt lat="44.542974505010164" lon="9.704899260889727"><ele>766.6</ele><time>2026-05-01T15:14:44Z</time></trkpt><trkpt lat="44.54299675599333" lon="9.70475731634616"><ele>766.8</ele><time>2026-05-01T15:14:45Z</time></trkpt><trkpt lat="44.54303913842995" lon="9.704634165975936"><ele>767.0</ele><time>2026-05-01T15:14:46Z</time></trkpt><trkpt lat="44.543095877755725" lon="9.70454192357252"><ele>767.0</ele><time>2026-05-01T15:14:47Z</time></trkpt><trkpt lat="44.543178885956976" lon="9.704516757690012"><ele>767.0</ele><time>2026-05-01T15:14:48Z</time></trkpt><trkpt lat="44.54325797010618" lon="9.704478626110669"><ele>767.0</ele><time>2026-05-01T15:14:49Z</time></trkpt><trkpt lat="44.54330942561937" lon="9.70441784494761"><ele>767.0</ele><time>2026-05-01T15:14:50Z</time></trkpt><trkpt lat="44.543314881375544" lon="9.704269813488306"><ele>767.0</ele><time>2026-05-01T15:14:52Z</time></trkpt><trkpt lat="44.543280475376264" lon="9.704121145729872"><ele>766.4000000000001</ele><time>2026-05-01T15:14:54Z</time></trkpt><trkpt lat="44.54321208537206" lon="9.704015448851441"><ele>765.8000000000001</ele><time>2026-05-01T15:14:56Z</time></trkpt><trkpt lat="44.54314930693578" lon="9.703925062017131"><ele>765.2</ele><time>2026-05-01T15:14:58Z</time></trkpt><trkpt lat="44.54309221466001" lon="9.703847467459507"><ele>764.6</ele><time>2026-05-01T15:15:00Z</time></trkpt><trkpt lat="44.54299423996971" lon="9.703716691355998"><ele>764.0</ele><time>2026-05-01T15:15:02Z</time></trkpt><trkpt lat="44.54291992129201" lon="9.703601302971068"><ele>762.75</ele><time>2026-05-01T15:15:03Z</time></trkpt><trkpt lat="44.54285393878786" lon="9.703461965327923"><ele>761.5</ele><time>2026-05-01T15:15:04Z</time></trkpt><trkpt lat="44.54279515756125" lon="9.703282965171455"><ele>760.25</ele><time>2026-05-01T15:15:05Z</time></trkpt><trkpt lat="44.54273111906086" lon="9.70306982132465"><ele>759.0</ele><time>2026-05-01T15:15:06Z</time></trkpt><trkpt lat="44.542655256609386" lon="9.702864535866318"><ele>761.75</ele><time>2026-05-01T15:15:07Z</time></trkpt><trkpt lat="44.54256386062621" lon="9.702697729121864"><ele>764.5</ele><time>2026-05-01T15:15:08Z</time></trkpt><trkpt lat="44.542505171169864" lon="9.702525451309862"><ele>767.25</ele><time>2026-05-01T15:15:09Z</time></trkpt><trkpt lat="44.542433330236925" lon="9.702374260988517"><ele>770.0</ele><time>2026-05-01T15:15:10Z</time></trkpt><trkpt lat="44.54235390563449" lon="9.702229074202897"><ele>770.0</ele><time>2026-05-01T15:15:11Z</time></trkpt><trkpt lat="44.54226346028085" lon="9.702117648676758"><ele>770.0</ele><time>2026-05-01T15:15:12Z</time></trkpt><trkpt lat="44.54218662339216" lon="9.702007247838768"><ele>770.0</ele><time>2026-05-01T15:15:13Z</time></trkpt><trkpt lat="44.54212528874132" lon="9.701882598921138"><ele>770.0</ele><time>2026-05-01T15:15:14Z</time></trkpt><trkpt lat="44.54207901862021" lon="9.701781451487964"><ele>770.0</ele><time>2026-05-01T15:15:15Z</time></trkpt><trkpt lat="44.54204101448935" lon="9.701666111749821"><ele>768.4</ele><time>2026-05-01T15:15:16Z</time></trkpt><trkpt lat="44.542017155345" lon="9.701521401728188"><ele>766.8</ele><time>2026-05-01T15:15:17Z</time></trkpt><trkpt lat="44.54201428770528" lon="9.701368069153949"><ele>765.2</ele><time>2026-05-01T15:15:18Z</time></trkpt><trkpt lat="44.54199196321946" lon="9.701236079139761"><ele>763.6</ele><time>2026-05-01T15:15:19Z</time></trkpt><trkpt lat="44.54198841760233" lon="9.701101381512503"><ele>762.0</ele><time>2026-05-01T15:15:20Z</time></trkpt><trkpt lat="44.54192797670604" lon="9.700950862047776"><ele>762.0</ele><time>2026-05-01T15:15:21Z</time></trkpt><trkpt lat="44.54185872691046" lon="9.700817853460892"><ele>762.0</ele><time>2026-05-01T15:15:22Z</time></trkpt><trkpt lat="44.54180333956688" lon="9.700670490393438"><ele>762.0</ele><time>2026-05-01T15:15:23Z</time></trkpt><trkpt lat="44.54175573419042" lon="9.700539795033434"><ele>762.0</ele><time>2026-05-01T15:15:24Z</time></trkpt><trkpt lat="44.541704946059184" lon="9.700406457446638"><ele>762.0</ele><time>2026-05-01T15:15:25Z</time></trkpt><trkpt lat="44.54163428267707" lon="9.700277392393625"><ele>765.5</ele><time>2026-05-01T15:15:26Z</time></trkpt><trkpt lat="44.5415388413536" lon="9.700169552625802"><ele>769.0</ele><time>2026-05-01T15:15:27Z</time></trkpt><trkpt lat="44.54144713880459" lon="9.700067189375478"><ele>772.5</ele><time>2026-05-01T15:15:28Z</time></trkpt><trkpt lat="44.541351024503456" lon="9.699967673614132"><ele>776.0</ele><time>2026-05-01T15:15:29Z</time></trkpt><trkpt lat="44.54125714658749" lon="9.699889104415412"><ele>773.3333333333334</ele><time>2026-05-01T15:15:30Z</time></trkpt><trkpt lat="44.54117756434797" lon="9.699832622140017"><ele>770.6666666666667</ele><time>2026-05-01T15:15:31Z</time></trkpt><trkpt lat="44.54111106380641" lon="9.699784058194782"><ele>768.0</ele><time>2026-05-01T15:15:32Z</time></trkpt><trkpt lat="44.54104960585047" lon="9.699733665797288"><ele>765.3333333333334</ele><time>2026-05-01T15:15:33Z</time></trkpt><trkpt lat="44.54099186010667" lon="9.699678238526069"><ele>762.6666666666667</ele><time>2026-05-01T15:15:34Z</time></trkpt><trkpt lat="44.540922146371386" lon="9.699581128348388"><ele>760.0</ele><time>2026-05-01T15:15:36Z</time></trkpt><trkpt lat="44.54087490234058" lon="9.699481952481177"><ele>761.1666666666667</ele><time>2026-05-01T15:15:38Z</time></trkpt><trkpt lat="44.54082045144934" lon="9.69933644806016"><ele>762.3333333333334</ele><time>2026-05-01T15:15:40Z</time></trkpt><trkpt lat="44.54080786239623" lon="9.699178080770746"><ele>763.5</ele><time>2026-05-01T15:15:42Z</time></trkpt><trkpt lat="44.540815582700645" lon="9.699077057122336"><ele>764.6666666666666</ele><time>2026-05-01T15:15:43Z</time></trkpt><trkpt lat="44.540843721858636" lon="9.69898867820832"><ele>765.8333333333333</ele><time>2026-05-01T15:15:44Z</time></trkpt><trkpt lat="44.540895259488686" lon="9.698910623244341"><ele>767.0</ele><time>2026-05-01T15:15:45Z</time></trkpt><trkpt lat="44.54096227639279" lon="9.698840178313306"><ele>767.0</ele><time>2026-05-01T15:15:46Z</time></trkpt><trkpt lat="44.54102247835442" lon="9.6987603806013"><ele>767.0</ele><time>2026-05-01T15:15:47Z</time></trkpt><trkpt lat="44.54107390742276" lon="9.698670116460747"><ele>767.0</ele><time>2026-05-01T15:15:48Z</time></trkpt><trkpt lat="44.54110505333633" lon="9.698537187570546"><ele>767.0</ele><time>2026-05-01T15:15:50Z</time></trkpt><trkpt lat="44.5410573593305" lon="9.698442599780542"><ele>767.0</ele><time>2026-05-01T15:15:52Z</time></trkpt><trkpt lat="44.54099575604615" lon="9.698412079908193"><ele>767.0</ele><time>2026-05-01T15:15:54Z</time></trkpt><trkpt lat="44.54087836790984" lon="9.698457233136223"><ele>766.6666666666666</ele><time>2026-05-01T15:15:56Z</time></trkpt><trkpt lat="44.54080449419238" lon="9.69848573241313"><ele>766.3333333333333</ele><time>2026-05-01T15:15:57Z</time></trkpt><trkpt lat="44.54071333310825" lon="9.69851275081882"><ele>766.0</ele><time>2026-05-01T15:15:58Z</time></trkpt><trkpt lat="44.54062474906697" lon="9.698501851142044"><ele>765.6666666666666</ele><time>2026-05-01T15:15:59Z</time></trkpt><trkpt lat="44.54053887986552" lon="9.698490255832333"><ele>765.3333333333334</ele><time>2026-05-01T15:16:00Z</time></trkpt><trkpt lat="44.5404381126287" lon="9.698472404612396"><ele>765.0</ele><time>2026-05-01T15:16:01Z</time></trkpt><trkpt lat="44.54032125398331" lon="9.698439852212774"><ele>765.0</ele><time>2026-05-01T15:16:02Z</time></trkpt><trkpt lat="44.5402069310126" lon="9.698400629390083"><ele>765.0</ele><time>2026-05-01T15:16:03Z</time></trkpt><trkpt lat="44.54011237430997" lon="9.698359320882329"><ele>765.0</ele><time>2026-05-01T15:16:04Z</time></trkpt><trkpt lat="44.540046994723774" lon="9.69831644763792"><ele>765.0</ele><time>2026-05-01T15:16:05Z</time></trkpt><trkpt lat="44.539986757235454" lon="9.69824887476011"><ele>765.0</ele><time>2026-05-01T15:16:06Z</time></trkpt><trkpt lat="44.53994385209187" lon="9.698138564117173"><ele>765.0</ele><time>2026-05-01T15:16:07Z</time></trkpt><trkpt lat="44.539879736444966" lon="9.697975925679076"><ele>765.0</ele><time>2026-05-01T15:16:08Z</time></trkpt><trkpt lat="44.539787846638724" lon="9.697805438186169"><ele>765.0</ele><time>2026-05-01T15:16:09Z</time></trkpt><trkpt lat="44.539699953687276" lon="9.697643977466576"><ele>765.0</ele><time>2026-05-01T15:16:10Z</time></trkpt><trkpt lat="44.53962269596138" lon="9.697496225974632"><ele>763.5</ele><time>2026-05-01T15:16:11Z</time></trkpt><trkpt lat="44.53954918495802" lon="9.697347354799373"><ele>762.0</ele><time>2026-05-01T15:16:12Z</time></trkpt><trkpt lat="44.53947876885368" lon="9.697199763922724"><ele>760.5</ele><time>2026-05-01T15:16:13Z</time></trkpt><trkpt lat="44.53940543629973" lon="9.697029036472879"><ele>759.0</ele><time>2026-05-01T15:16:14Z</time></trkpt><trkpt lat="44.53933610311839" lon="9.696868138479376"><ele>761.5</ele><time>2026-05-01T15:16:15Z</time></trkpt><trkpt lat="44.539268846981685" lon="9.69673712616737"><ele>764.0</ele><time>2026-05-01T15:16:16Z</time></trkpt><trkpt lat="44.53921450438141" lon="9.696633997445208"><ele>766.5</ele><time>2026-05-01T15:16:17Z</time></trkpt><trkpt lat="44.53917710689574" lon="9.696538244174723"><ele>769.0</ele><time>2026-05-01T15:16:18Z</time></trkpt><trkpt lat="44.5391491629993" lon="9.696442287325114"><ele>771.5</ele><time>2026-05-01T15:16:19Z</time></trkpt><trkpt lat="44.539122799281024" lon="9.696342452327693"><ele>774.0</ele><time>2026-05-01T15:16:20Z</time></trkpt><trkpt lat="44.53908219055779" lon="9.696179517096548"><ele>774.0</ele><time>2026-05-01T15:16:22Z</time></trkpt><trkpt lat="44.53905243849725" lon="9.696089933897234"><ele>774.0</ele><time>2026-05-01T15:16:23Z</time></trkpt><trkpt lat="44.53901082890716" lon="9.695998849807099"><ele>774.0</ele><time>2026-05-01T15:16:24Z</time></trkpt><trkpt lat="44.53892532527912" lon="9.695933712874172"><ele>774.0</ele><time>2026-05-01T15:16:25Z</time></trkpt><trkpt lat="44.538877855470325" lon="9.69583307741149"><ele>774.0</ele><time>2026-05-01T15:16:26Z</time></trkpt><trkpt lat="44.53885317426065" lon="9.695731229110466"><ele>774.0</ele><time>2026-05-01T15:16:27Z</time></trkpt><trkpt lat="44.53885283511571" lon="9.69562662263923"><ele>776.2</ele><time>2026-05-01T15:16:28Z</time></trkpt><trkpt lat="44.53886893824061" lon="9.695502971198456"><ele>778.4000000000001</ele><time>2026-05-01T15:16:29Z</time></trkpt><trkpt lat="44.53887507851233" lon="9.695367501402528"><ele>780.6</ele><time>2026-05-01T15:16:30Z</time></trkpt><trkpt lat="44.53886808916445" lon="9.695229637214508"><ele>782.8</ele><time>2026-05-01T15:16:31Z</time></trkpt><trkpt lat="44.53885396876394" lon="9.69508734190959"><ele>785.0</ele><time>2026-05-01T15:16:32Z</time></trkpt><trkpt lat="44.53884488063102" lon="9.694944873436176"><ele>785.2</ele><time>2026-05-01T15:16:33Z</time></trkpt><trkpt lat="44.53883258225141" lon="9.694807154440884"><ele>785.4</ele><time>2026-05-01T15:16:34Z</time></trkpt><trkpt lat="44.538809673295034" lon="9.694680500695002"><ele>785.5999999999999</ele><time>2026-05-01T15:16:35Z</time></trkpt><trkpt lat="44.538776600892426" lon="9.694563515985923"><ele>785.8</ele><time>2026-05-01T15:16:36Z</time></trkpt><trkpt lat="44.53873363038925" lon="9.694458816883072"><ele>786.0</ele><time>2026-05-01T15:16:37Z</time></trkpt><trkpt lat="44.53868535945258" lon="9.694351368588283"><ele>780.8</ele><time>2026-05-01T15:16:38Z</time></trkpt><trkpt lat="44.53863069922402" lon="9.69423448496567"><ele>775.5999999999999</ele><time>2026-05-01T15:16:39Z</time></trkpt><trkpt lat="44.53858210114763" lon="9.694109210879992"><ele>770.4</ele><time>2026-05-01T15:16:40Z</time></trkpt><trkpt lat="44.53854249078183" lon="9.693975792916984"><ele>765.2</ele><time>2026-05-01T15:16:41Z</time></trkpt><trkpt lat="44.53850594134362" lon="9.693845655886111"><ele>760.0</ele><time>2026-05-01T15:16:42Z</time></trkpt><trkpt lat="44.53846822647691" lon="9.693713270295623"><ele>760.4</ele><time>2026-05-01T15:16:43Z</time></trkpt><trkpt lat="44.53843560038471" lon="9.693587832619388"><ele>760.8</ele><time>2026-05-01T15:16:44Z</time></trkpt><trkpt lat="44.53840279968262" lon="9.69345838855833"><ele>761.2</ele><time>2026-05-01T15:16:45Z</time></trkpt><trkpt lat="44.53840075082633" lon="9.693324048983534"><ele>761.6</ele><time>2026-05-01T15:16:46Z</time></trkpt><trkpt lat="44.53841593044604" lon="9.693171153101128"><ele>762.0</ele><time>2026-05-01T15:16:47Z</time></trkpt><trkpt lat="44.5384338946966" lon="9.69299600393805"><ele>762.0</ele><time>2026-05-01T15:16:48Z</time></trkpt><trkpt lat="44.538449121655866" lon="9.692827361846673"><ele>762.0</ele><time>2026-05-01T15:16:49Z</time></trkpt><trkpt lat="44.5384724865926" lon="9.6926822651025"><ele>762.0</ele><time>2026-05-01T15:16:50Z</time></trkpt><trkpt lat="44.538510462080104" lon="9.692546036744595"><ele>762.0</ele><time>2026-05-01T15:16:51Z</time></trkpt><trkpt lat="44.538541326953684" lon="9.692406716926328"><ele>762.0</ele><time>2026-05-01T15:16:52Z</time></trkpt><trkpt lat="44.53853296188558" lon="9.692261362922551"><ele>763.0</ele><time>2026-05-01T15:16:53Z</time></trkpt><trkpt lat="44.53853392623818" lon="9.69211166424697"><ele>764.0</ele><time>2026-05-01T15:16:54Z</time></trkpt><trkpt lat="44.53853165719625" lon="9.691981727766949"><ele>765.0</ele><time>2026-05-01T15:16:55Z</time></trkpt><trkpt lat="44.53854002205719" lon="9.69183540290839"><ele>766.0</ele><time>2026-05-01T15:16:56Z</time></trkpt><trkpt lat="44.53858059494409" lon="9.69169100514865"><ele>767.0</ele><time>2026-05-01T15:16:57Z</time></trkpt><trkpt lat="44.53862974852645" lon="9.691560677540274"><ele>767.0</ele><time>2026-05-01T15:16:58Z</time></trkpt><trkpt lat="44.53869444821764" lon="9.691465427493299"><ele>767.0</ele><time>2026-05-01T15:16:59Z</time></trkpt><trkpt lat="44.538784508298264" lon="9.691415423415064"><ele>767.0</ele><time>2026-05-01T15:17:00Z</time></trkpt><trkpt lat="44.53888825975546" lon="9.691365690288162"><ele>767.0</ele><time>2026-05-01T15:17:01Z</time></trkpt><trkpt lat="44.538981407230445" lon="9.691293425463204"><ele>767.0</ele><time>2026-05-01T15:17:02Z</time></trkpt><trkpt lat="44.53904677883869" lon="9.691169270242572"><ele>771.5</ele><time>2026-05-01T15:17:03Z</time></trkpt><trkpt lat="44.53908085678875" lon="9.690996002734098"><ele>776.0</ele><time>2026-05-01T15:17:04Z</time></trkpt><trkpt lat="44.53910324153874" lon="9.690806551137426"><ele>780.5</ele><time>2026-05-01T15:17:05Z</time></trkpt><trkpt lat="44.539126699807255" lon="9.690603769503864"><ele>785.0</ele><time>2026-05-01T15:17:06Z</time></trkpt><trkpt lat="44.539134368847435" lon="9.690394498947002"><ele>784.75</ele><time>2026-05-01T15:17:07Z</time></trkpt><trkpt lat="44.53911201192766" lon="9.690191222041664"><ele>784.5</ele><time>2026-05-01T15:17:07.999Z</time></trkpt><trkpt lat="44.539079435213246" lon="9.690000682880507"><ele>784.25</ele><time>2026-05-01T15:17:08.999Z</time></trkpt><trkpt lat="44.53899993302391" lon="9.689822988080675"><ele>784.0</ele><time>2026-05-01T15:17:09.999Z</time></trkpt><trkpt lat="44.53891057594646" lon="9.689634190021051"><ele>784.0</ele><time>2026-05-01T15:17:10.999Z</time></trkpt><trkpt lat="44.538816445879725" lon="9.68943938201009"><ele>784.0</ele><time>2026-05-01T15:17:11.999Z</time></trkpt><trkpt lat="44.53873916158938" lon="9.689253599798274"><ele>784.0</ele><time>2026-05-01T15:17:12.999Z</time></trkpt><trkpt lat="44.538656989095706" lon="9.689063264525283"><ele>783.5</ele><time>2026-05-01T15:17:13.999Z</time></trkpt><trkpt lat="44.538599910800926" lon="9.688853654534968"><ele>783.0</ele><time>2026-05-01T15:17:14.999Z</time></trkpt><trkpt lat="44.53854597979641" lon="9.688668044197552"><ele>782.5</ele><time>2026-05-01T15:17:15.999Z</time></trkpt><trkpt lat="44.53850760800778" lon="9.688506111837414"><ele>782.0</ele><time>2026-05-01T15:17:16.999Z</time></trkpt><trkpt lat="44.538480375060075" lon="9.688354500032661"><ele>782.0</ele><time>2026-05-01T15:17:17.999Z</time></trkpt><trkpt lat="44.53845828983983" lon="9.688198695675219"><ele>782.0</ele><time>2026-05-01T15:17:18.999Z</time></trkpt><trkpt lat="44.53843844075138" lon="9.688034344020043"><ele>782.0</ele><time>2026-05-01T15:17:19.999Z</time></trkpt><trkpt lat="44.538419227176945" lon="9.687865531504318"><ele>782.0</ele><time>2026-05-01T15:17:20.999Z</time></trkpt><trkpt lat="44.53840488757732" lon="9.687693664732674"><ele>782.8</ele><time>2026-05-01T15:17:21.999Z</time></trkpt><trkpt lat="44.53839145411272" lon="9.687530102443871"><ele>783.6</ele><time>2026-05-01T15:17:22.999Z</time></trkpt><trkpt lat="44.53836374876951" lon="9.687380191232055"><ele>784.4</ele><time>2026-05-01T15:17:23.999Z</time></trkpt><trkpt lat="44.53835071224933" lon="9.687250844506066"><ele>785.1999999999999</ele><time>2026-05-01T15:17:24.999Z</time></trkpt><trkpt lat="44.5383265665228" lon="9.687128061720415"><ele>786.0</ele><time>2026-05-01T15:17:25.999Z</time></trkpt><trkpt lat="44.53828079169861" lon="9.687021153736577"><ele>786.0</ele><time>2026-05-01T15:17:26.999Z</time></trkpt><trkpt lat="44.538203439221355" lon="9.686942333496445"><ele>786.0</ele><time>2026-05-01T15:17:27.999Z</time></trkpt><trkpt lat="44.53810167657024" lon="9.686910171740209"><ele>786.0</ele><time>2026-05-01T15:17:28.999Z</time></trkpt><trkpt lat="44.53800688483938" lon="9.686840901115502"><ele>786.0</ele><time>2026-05-01T15:17:29.999Z</time></trkpt><trkpt lat="44.53792072370612" lon="9.686783464658381"><ele>786.0</ele><time>2026-05-01T15:17:30.999Z</time></trkpt><trkpt lat="44.53784652417139" lon="9.686733764226425"><ele>785.5999999999999</ele><time>2026-05-01T15:17:32Z</time></trkpt><trkpt lat="44.53777881295405" lon="9.686689538455397"><ele>785.2</ele><time>2026-05-01T15:17:33Z</time></trkpt><trkpt lat="44.537682706597266" lon="9.686655778774895"><ele>784.8</ele><time>2026-05-01T15:17:35Z</time></trkpt><trkpt lat="44.53761664583835" lon="9.686607033627878"><ele>784.4000000000001</ele><time>2026-05-01T15:18:26Z</time></trkpt><trkpt lat="44.53755598380989" lon="9.686568361461353"><ele>784.0</ele><time>2026-05-01T15:18:43Z</time></trkpt><trkpt lat="44.537589334152024" lon="9.686245759474842"><ele>784.0</ele><time>2026-05-01T15:18:46Z</time></trkpt><trkpt lat="44.53766952724798" lon="9.686098854550975"><ele>784.0</ele><time>2026-05-01T15:18:48Z</time></trkpt><trkpt lat="44.53771182940295" lon="9.686019353131691"><ele>784.0</ele><time>2026-05-01T15:18:49Z</time></trkpt><trkpt lat="44.537760927696816" lon="9.685931553850715"><ele>784.0</ele><time>2026-05-01T15:18:50Z</time></trkpt><trkpt lat="44.53780790813674" lon="9.685853929380878"><ele>784.0</ele><time>2026-05-01T15:18:51Z</time></trkpt><trkpt lat="44.53789022978904" lon="9.685695914545773"><ele>787.6</ele><time>2026-05-01T15:18:53Z</time></trkpt><trkpt lat="44.537970999251876" lon="9.68553403399533"><ele>791.2</ele><time>2026-05-01T15:18:55Z</time></trkpt><trkpt lat="44.53801657705612" lon="9.685467407200159"><ele>794.8000000000001</ele><time>2026-05-01T15:18:56Z</time></trkpt><trkpt lat="44.53805713073885" lon="9.68535602807812"><ele>798.4000000000001</ele><time>2026-05-01T15:18:59Z</time></trkpt><trkpt lat="44.53802418019906" lon="9.685240219797093"><ele>802.0</ele><time>2026-05-01T15:19:02Z</time></trkpt><trkpt lat="44.53796957906107" lon="9.685136496271358"><ele>802.2857142857143</ele><time>2026-05-01T15:19:04Z</time></trkpt><trkpt lat="44.53790468021649" lon="9.68507352359341"><ele>802.5714285714287</ele><time>2026-05-01T15:19:06Z</time></trkpt><trkpt lat="44.53784204341765" lon="9.685085084946856"><ele>802.8571428571429</ele><time>2026-05-01T15:19:08Z</time></trkpt><trkpt lat="44.537776360083875" lon="9.685079850874876"><ele>803.1428571428571</ele><time>2026-05-01T15:19:10Z</time></trkpt><trkpt lat="44.537709454277376" lon="9.685091337273992"><ele>803.4285714285714</ele><time>2026-05-01T15:19:13.999Z</time></trkpt><trkpt lat="44.53761515965405" lon="9.685067248472393"><ele>803.7142857142857</ele><time>2026-05-01T15:20:02Z</time></trkpt><trkpt lat="44.53754536090714" lon="9.685059395043213"><ele>804.0</ele><time>2026-05-01T15:20:03Z</time></trkpt><trkpt lat="44.53746952373356" lon="9.685077906474609"><ele>804.0</ele><time>2026-05-01T15:20:04Z</time></trkpt><trkpt lat="44.53739876662454" lon="9.68508715414859"><ele>804.0</ele><time>2026-05-01T15:20:05Z</time></trkpt><trkpt lat="44.53733607601556" lon="9.68507421659638"><ele>804.0</ele><time>2026-05-01T15:20:06Z</time></trkpt><trkpt lat="44.53727005472411" lon="9.684994933373591"><ele>804.0</ele><time>2026-05-01T15:20:08Z</time></trkpt><trkpt lat="44.537248017748304" lon="9.68488407301037"><ele>804.0</ele><time>2026-05-01T15:20:11Z</time></trkpt><trkpt lat="44.53718108282855" lon="9.68483505638256"><ele>804.0</ele><time>2026-05-01T15:20:13Z</time></trkpt><trkpt lat="44.53710659156269" lon="9.684854449800532"><ele>803.8000000000001</ele><time>2026-05-01T15:20:15Z</time></trkpt><trkpt lat="44.5370201543892" lon="9.684878136458574"><ele>803.6</ele><time>2026-05-01T15:20:17Z</time></trkpt><trkpt lat="44.53695629567162" lon="9.684887846268213"><ele>803.4</ele><time>2026-05-01T15:20:19Z</time></trkpt><trkpt lat="44.53684202244276" lon="9.684902398685358"><ele>803.2</ele><time>2026-05-01T15:20:21Z</time></trkpt><trkpt lat="44.5367380354913" lon="9.684929070879088"><ele>803.0</ele><time>2026-05-01T15:20:23Z</time></trkpt><trkpt lat="44.536645355989194" lon="9.684852679476059"><ele>803.0</ele><time>2026-05-01T15:20:25Z</time></trkpt><trkpt lat="44.53654802435286" lon="9.68479511769084"><ele>803.0</ele><time>2026-05-01T15:20:27Z</time></trkpt><trkpt lat="44.536473046957404" lon="9.684686785515643"><ele>803.0</ele><time>2026-05-01T15:20:29Z</time></trkpt><trkpt lat="44.53641685873578" lon="9.684638388654879"><ele>803.0</ele><time>2026-05-01T15:20:30Z</time></trkpt><trkpt lat="44.53635846446326" lon="9.684581604423279"><ele>803.0</ele><time>2026-05-01T15:20:31Z</time></trkpt><trkpt lat="44.536261553494626" lon="9.6845270665569"><ele>801.2</ele><time>2026-05-01T15:20:33Z</time></trkpt><trkpt lat="44.536181805963835" lon="9.684545137540209"><ele>799.4</ele><time>2026-05-01T15:20:35Z</time></trkpt><trkpt lat="44.53609853617288" lon="9.68454388032311"><ele>797.6</ele><time>2026-05-01T15:20:37Z</time></trkpt><trkpt lat="44.53599129965353" lon="9.684533387614136"><ele>795.8000000000001</ele><time>2026-05-01T15:20:39Z</time></trkpt><trkpt lat="44.535897637921316" lon="9.6844742153857"><ele>794.0</ele><time>2026-05-01T15:20:41Z</time></trkpt><trkpt lat="44.535814466694234" lon="9.684438675109753"><ele>794.0000000000001</ele><time>2026-05-01T15:20:44Z</time></trkpt><trkpt lat="44.53574695191959" lon="9.684434046548024"><ele>794.0</ele><time>2026-05-01T15:20:52.999Z</time></trkpt><trkpt lat="44.53567744402904" lon="9.684422038766382"><ele>794.0</ele><time>2026-05-01T15:20:58.999Z</time></trkpt><trkpt lat="44.535582848667985" lon="9.684371895904976"><ele>794.0</ele><time>2026-05-01T15:21:04.999Z</time></trkpt><trkpt lat="44.53550666995633" lon="9.684370924533635"><ele>794.0000000000001</ele><time>2026-05-01T15:21:06.999Z</time></trkpt><trkpt lat="44.53543414380091" lon="9.684404096110589"><ele>794.0</ele><time>2026-05-01T15:21:10.999Z</time></trkpt><trkpt lat="44.5353288564942" lon="9.684364766052417"><ele>794.5000000000001</ele><time>2026-05-01T15:26:42.999Z</time></trkpt><trkpt lat="44.535316959988705" lon="9.684256609049951"><ele>795.0</ele><time>2026-05-01T15:26:49.999Z</time></trkpt><trkpt lat="44.535234321404616" lon="9.684184429956671"><ele>795.5</ele><time>2026-05-01T15:27:09Z</time></trkpt><trkpt lat="44.53514344348464" lon="9.684124944466925"><ele>796.0</ele><time>2026-05-01T15:27:11Z</time></trkpt><trkpt lat="44.535075659095305" lon="9.684058218617709"><ele>796.5000000000001</ele><time>2026-05-01T15:27:13Z</time></trkpt><trkpt lat="44.535026680010624" lon="9.6839986301175"><ele>797.0</ele><time>2026-05-01T15:27:15Z</time></trkpt><trkpt lat="44.5349603798756" lon="9.683908124598311"><ele>797.0000000000001</ele><time>2026-05-01T15:27:17Z</time></trkpt><trkpt lat="44.534868820604146" lon="9.683836450659967"><ele>797.0</ele><time>2026-05-01T15:27:19Z</time></trkpt><trkpt lat="44.53477916827699" lon="9.683755284300453"><ele>797.0</ele><time>2026-05-01T15:27:21Z</time></trkpt><trkpt lat="44.53472000844004" lon="9.683713373423343"><ele>797.0</ele><time>2026-05-01T15:27:23Z</time></trkpt><trkpt lat="44.53464195097126" lon="9.683736026476499"><ele>797.0000000000001</ele><time>2026-05-01T15:27:26Z</time></trkpt><trkpt lat="44.53459335107814" lon="9.68380888037704"><ele>797.0</ele><time>2026-05-01T15:27:34Z</time></trkpt><trkpt lat="44.53450736447987" lon="9.683888563908813"><ele>798.0</ele><time>2026-05-01T15:27:36Z</time></trkpt><trkpt lat="44.534405681409986" lon="9.683938281277497"><ele>799.0</ele><time>2026-05-01T15:27:38Z</time></trkpt><trkpt lat="44.5343072694983" lon="9.683956616956069"><ele>800.0</ele><time>2026-05-01T15:27:40Z</time></trkpt><trkpt lat="44.534217612570956" lon="9.684003051407139"><ele>801.0</ele><time>2026-05-01T15:27:42Z</time></trkpt><trkpt lat="44.534139149608265" lon="9.6839986364004"><ele>802.0</ele><time>2026-05-01T15:27:52Z</time></trkpt><trkpt lat="44.534062242303854" lon="9.683950614876037"><ele>801.9999999999999</ele><time>2026-05-01T15:27:57Z</time></trkpt><trkpt lat="44.53401380956131" lon="9.683854094465202"><ele>802.0</ele><time>2026-05-01T15:28:00Z</time></trkpt><trkpt lat="44.53395770435813" lon="9.683774576915557"><ele>802.0</ele><time>2026-05-01T15:36:29.001Z</time></trkpt><trkpt lat="44.53401119704566" lon="9.683822880271974"><ele>802.0</ele><time>2026-05-01T15:37:32Z</time></trkpt><trkpt lat="44.534054845274746" lon="9.683896632557133"><ele>801.9999999999999</ele><time>2026-05-01T15:37:40Z</time></trkpt><trkpt lat="44.53412060063194" lon="9.68392826359374"><ele>802.0</ele><time>2026-05-01T15:37:50Z</time></trkpt><trkpt lat="44.53424228614457" lon="9.683900255557164"><ele>802.0</ele><time>2026-05-01T15:37:56Z</time></trkpt><trkpt lat="44.534325790242164" lon="9.683869727275056"><ele>802.0</ele><time>2026-05-01T15:37:59Z</time></trkpt><trkpt lat="44.53439615391683" lon="9.683850251475446"><ele>802.0</ele><time>2026-05-01T15:38:01Z</time></trkpt><trkpt lat="44.5344555892507" lon="9.683816770155094"><ele>802.0</ele><time>2026-05-01T15:38:03Z</time></trkpt><trkpt lat="44.53451438259942" lon="9.683767377605832"><ele>802.0</ele><time>2026-05-01T15:38:05Z</time></trkpt><trkpt lat="44.53458530437333" lon="9.683687558578626"><ele>802.0</ele><time>2026-05-01T15:38:08Z</time></trkpt><trkpt lat="44.53464629061788" lon="9.683657644468692"><ele>802.0</ele><time>2026-05-01T15:38:28Z</time></trkpt><trkpt lat="44.534769326696725" lon="9.683708292809044"><ele>801.1666666666666</ele><time>2026-05-01T15:42:10Z</time></trkpt><trkpt lat="44.53485379237527" lon="9.68377765933272"><ele>800.3333333333333</ele><time>2026-05-01T15:42:12Z</time></trkpt><trkpt lat="44.53491476537104" lon="9.683839049045721"><ele>799.5</ele><time>2026-05-01T15:42:13Z</time></trkpt><trkpt lat="44.5349812735963" lon="9.683900984761454"><ele>798.6666666666667</ele><time>2026-05-01T15:42:14Z</time></trkpt><trkpt lat="44.535055808013716" lon="9.683990867609587"><ele>797.8333333333334</ele><time>2026-05-01T15:42:16Z</time></trkpt><trkpt lat="44.5351068249216" lon="9.684048660912334"><ele>797.0</ele><time>2026-05-01T15:42:18Z</time></trkpt><trkpt lat="44.535182416743446" lon="9.684108336436033"><ele>797.0000000000001</ele><time>2026-05-01T15:42:20Z</time></trkpt><trkpt lat="44.53527797504384" lon="9.684157411245604"><ele>797.0</ele><time>2026-05-01T15:42:23Z</time></trkpt><trkpt lat="44.53532178505401" lon="9.684249826765926"><ele>797.0</ele><time>2026-05-01T15:42:25Z</time></trkpt><trkpt lat="44.53533742418707" lon="9.684338116871192"><ele>797.0</ele><time>2026-05-01T15:42:28Z</time></trkpt><trkpt lat="44.53535598677783" lon="9.684439240862563"><ele>797.0000000000001</ele><time>2026-05-01T15:42:38Z</time></trkpt><trkpt lat="44.535329151765" lon="9.684526770286007"><ele>797.0</ele><time>2026-05-01T15:42:40Z</time></trkpt><trkpt lat="44.53527778711243" lon="9.684607115551245"><ele>795.3333333333334</ele><time>2026-05-01T15:42:42Z</time></trkpt><trkpt lat="44.535217681316" lon="9.684696382137867"><ele>793.6666666666667</ele><time>2026-05-01T15:42:44Z</time></trkpt><trkpt lat="44.53517239247647" lon="9.684802749894258"><ele>792.0</ele><time>2026-05-01T15:42:46Z</time></trkpt><trkpt lat="44.53514391736867" lon="9.684913105748958"><ele>790.3333333333333</ele><time>2026-05-01T15:42:48Z</time></trkpt><trkpt lat="44.53512183719365" lon="9.685041334095306"><ele>788.6666666666666</ele><time>2026-05-01T15:42:50Z</time></trkpt><trkpt lat="44.535065166889424" lon="9.685138789728951"><ele>787.0</ele><time>2026-05-01T15:42:52Z</time></trkpt><trkpt lat="44.53499908545471" lon="9.68515437894443"><ele>787.0</ele><time>2026-05-01T15:42:54Z</time></trkpt><trkpt lat="44.53493410333172" lon="9.685163609141913"><ele>787.0</ele><time>2026-05-01T15:42:57Z</time></trkpt><trkpt lat="44.534870056991814" lon="9.685207163596672"><ele>787.0</ele><time>2026-05-01T15:43:00Z</time></trkpt><trkpt lat="44.53483267993504" lon="9.685280136148563"><ele>787.0</ele><time>2026-05-01T15:43:03Z</time></trkpt><trkpt lat="44.53475985515649" lon="9.685327250373094"><ele>787.0</ele><time>2026-05-01T15:43:06Z</time></trkpt><trkpt lat="44.53470032548129" lon="9.68526969515815"><ele>787.0</ele><time>2026-05-01T15:43:08Z</time></trkpt><trkpt lat="44.534642580371184" lon="9.685222604009603"><ele>787.0</ele><time>2026-05-01T15:43:10Z</time></trkpt><trkpt lat="44.53457312351059" lon="9.68519685015418"><ele>787.6666666666666</ele><time>2026-05-01T15:43:12Z</time></trkpt><trkpt lat="44.53450358802298" lon="9.685191666684055"><ele>788.3333333333333</ele><time>2026-05-01T15:43:15Z</time></trkpt><trkpt lat="44.53444372914904" lon="9.685223204920016"><ele>789.0</ele><time>2026-05-01T15:43:28Z</time></trkpt><trkpt lat="44.53435167268807" lon="9.685296072249358"><ele>789.6666666666667</ele><time>2026-05-01T15:43:30Z</time></trkpt><trkpt lat="44.53429251162894" lon="9.685336386814937"><ele>790.3333333333334</ele><time>2026-05-01T15:43:31Z</time></trkpt><trkpt lat="44.53421060186012" lon="9.685340111316107"><ele>791.0</ele><time>2026-05-01T15:43:32Z</time></trkpt><trkpt lat="44.534140024858345" lon="9.68539579722921"><ele>790.1999999999999</ele><time>2026-05-01T15:43:33Z</time></trkpt><trkpt lat="44.53406352538053" lon="9.685457986966695"><ele>789.4</ele><time>2026-05-01T15:43:34Z</time></trkpt><trkpt lat="44.533980297136765" lon="9.685527608106417"><ele>788.6</ele><time>2026-05-01T15:43:35Z</time></trkpt><trkpt lat="44.533892505560125" lon="9.685601589695525"><ele>787.8</ele><time>2026-05-01T15:43:36Z</time></trkpt><trkpt lat="44.53380131559733" lon="9.685684913551855"><ele>787.0</ele><time>2026-05-01T15:43:37Z</time></trkpt><trkpt lat="44.53371878682123" lon="9.685804213473268"><ele>787.0</ele><time>2026-05-01T15:43:38Z</time></trkpt><trkpt lat="44.53365375106938" lon="9.685955010473757"><ele>787.0</ele><time>2026-05-01T15:43:39Z</time></trkpt><trkpt lat="44.53361625098043" lon="9.686139703518512"><ele>787.0</ele><time>2026-05-01T15:43:40Z</time></trkpt><trkpt lat="44.53356755492001" lon="9.686303761523371"><ele>787.0</ele><time>2026-05-01T15:43:41Z</time></trkpt><trkpt lat="44.53351771222255" lon="9.686453458527682"><ele>784.8</ele><time>2026-05-01T15:43:42Z</time></trkpt><trkpt lat="44.53345676873835" lon="9.68656250253884"><ele>782.6</ele><time>2026-05-01T15:43:43Z</time></trkpt><trkpt lat="44.53336206595641" lon="9.686592820478669"><ele>780.4</ele><time>2026-05-01T15:43:44Z</time></trkpt><trkpt lat="44.53325521780945" lon="9.686547572871023"><ele>778.1999999999999</ele><time>2026-05-01T15:43:45Z</time></trkpt><trkpt lat="44.53312535039776" lon="9.686536319054648"><ele>776.0</ele><time>2026-05-01T15:43:46Z</time></trkpt><trkpt lat="44.53297798717144" lon="9.686535625381216"><ele>776.3333333333334</ele><time>2026-05-01T15:43:47Z</time></trkpt><trkpt lat="44.532830207624464" lon="9.68653605479715"><ele>776.6666666666667</ele><time>2026-05-01T15:43:48Z</time></trkpt><trkpt lat="44.532671109844216" lon="9.6865408627477"><ele>777.0</ele><time>2026-05-01T15:43:49Z</time></trkpt><trkpt lat="44.53251414224207" lon="9.686539673362962"><ele>777.0</ele><time>2026-05-01T15:43:50Z</time></trkpt><trkpt lat="44.53237689183355" lon="9.686520849636716"><ele>777.0</ele><time>2026-05-01T15:43:51Z</time></trkpt><trkpt lat="44.53226072817831" lon="9.68643056750113"><ele>777.0</ele><time>2026-05-01T15:43:52Z</time></trkpt><trkpt lat="44.53212916088794" lon="9.686340929004233"><ele>777.0</ele><time>2026-05-01T15:43:53Z</time></trkpt><trkpt lat="44.531990181659374" lon="9.686277332678568"><ele>777.2</ele><time>2026-05-01T15:43:54Z</time></trkpt><trkpt lat="44.53187899236929" lon="9.686209006837448"><ele>777.4000000000001</ele><time>2026-05-01T15:43:55Z</time></trkpt><trkpt lat="44.53178462718197" lon="9.686203883658537"><ele>777.5999999999999</ele><time>2026-05-01T15:43:56Z</time></trkpt><trkpt lat="44.531693346501456" lon="9.686229859370522"><ele>777.8</ele><time>2026-05-01T15:43:57Z</time></trkpt><trkpt lat="44.531633361591105" lon="9.686354851971007"><ele>778.0</ele><time>2026-05-01T15:43:58Z</time></trkpt><trkpt lat="44.531594930306184" lon="9.686504153651281"><ele>778.0</ele><time>2026-05-01T15:43:59Z</time></trkpt><trkpt lat="44.53153527574427" lon="9.686678201973974"><ele>778.0</ele><time>2026-05-01T15:44:00Z</time></trkpt><trkpt lat="44.531474044097656" lon="9.686875334855824"><ele>778.0</ele><time>2026-05-01T15:44:01Z</time></trkpt><trkpt lat="44.5314050174891" lon="9.687066521679654"><ele>778.0</ele><time>2026-05-01T15:44:02Z</time></trkpt><trkpt lat="44.53132773568476" lon="9.687280733064698"><ele>778.75</ele><time>2026-05-01T15:44:03Z</time></trkpt><trkpt lat="44.53127306833201" lon="9.687483011877278"><ele>779.5</ele><time>2026-05-01T15:44:04Z</time></trkpt><trkpt lat="44.53119682882992" lon="9.68766899588166"><ele>780.25</ele><time>2026-05-01T15:44:05Z</time></trkpt><trkpt lat="44.53115364700453" lon="9.687849227835544"><ele>781.0</ele><time>2026-05-01T15:44:06Z</time></trkpt><trkpt lat="44.53110702528488" lon="9.688028165264697"><ele>781.0</ele><time>2026-05-01T15:44:07Z</time></trkpt><trkpt lat="44.53103817683038" lon="9.688164100930031"><ele>781.0</ele><time>2026-05-01T15:44:08Z</time></trkpt><trkpt lat="44.53096616578377" lon="9.68827656979104"><ele>781.0</ele><time>2026-05-01T15:44:09Z</time></trkpt><trkpt lat="44.53087845421816" lon="9.68840636060435"><ele>781.0</ele><time>2026-05-01T15:44:10Z</time></trkpt><trkpt lat="44.53079868379208" lon="9.688517560174168"><ele>781.0</ele><time>2026-05-01T15:44:11Z</time></trkpt><trkpt lat="44.53072859728524" lon="9.688585679589362"><ele>781.0</ele><time>2026-05-01T15:44:12Z</time></trkpt><trkpt lat="44.53066334371969" lon="9.688586775560626"><ele>781.0</ele><time>2026-05-01T15:44:13Z</time></trkpt><trkpt lat="44.53058544585943" lon="9.688532497354146"><ele>781.0</ele><time>2026-05-01T15:44:14Z</time></trkpt><trkpt lat="44.53047490939857" lon="9.688496169103974"><ele>781.0</ele><time>2026-05-01T15:44:15Z</time></trkpt><trkpt lat="44.5303430323158" lon="9.688449289694969"><ele>781.5</ele><time>2026-05-01T15:44:16Z</time></trkpt><trkpt lat="44.53020389108538" lon="9.688400517493685"><ele>782.0</ele><time>2026-05-01T15:44:17Z</time></trkpt><trkpt lat="44.53006482905054" lon="9.688378644214847"><ele>782.5</ele><time>2026-05-01T15:44:18Z</time></trkpt><trkpt lat="44.52995177604053" lon="9.68831332730746"><ele>783.0</ele><time>2026-05-01T15:44:19Z</time></trkpt><trkpt lat="44.52984391482311" lon="9.688262727956907"><ele>783.0</ele><time>2026-05-01T15:44:20Z</time></trkpt><trkpt lat="44.52973863243777" lon="9.688206211380836"><ele>783.0</ele><time>2026-05-01T15:44:21Z</time></trkpt><trkpt lat="44.52963818579078" lon="9.68814056026719"><ele>783.0</ele><time>2026-05-01T15:44:22Z</time></trkpt><trkpt lat="44.529544471835884" lon="9.688058866734892"><ele>783.0</ele><time>2026-05-01T15:44:23Z</time></trkpt><trkpt lat="44.52943612116789" lon="9.688014042310185"><ele>783.0</ele><time>2026-05-01T15:44:24Z</time></trkpt><trkpt lat="44.529318077301554" lon="9.687997766823255"><ele>780.75</ele><time>2026-05-01T15:44:25Z</time></trkpt><trkpt lat="44.529190478554575" lon="9.68797561793067"><ele>778.5</ele><time>2026-05-01T15:44:26Z</time></trkpt><trkpt lat="44.52907036244383" lon="9.68793660862833"><ele>776.25</ele><time>2026-05-01T15:44:27Z</time></trkpt><trkpt lat="44.528929698693766" lon="9.687881960926621"><ele>774.0</ele><time>2026-05-01T15:44:28Z</time></trkpt><trkpt lat="44.52878220193739" lon="9.687823714140032"><ele>772.25</ele><time>2026-05-01T15:44:29Z</time></trkpt><trkpt lat="44.52863595202176" lon="9.687770578481329"><ele>770.5</ele><time>2026-05-01T15:44:30Z</time></trkpt><trkpt lat="44.528501660383924" lon="9.687723454621036"><ele>768.75</ele><time>2026-05-01T15:44:31Z</time></trkpt><trkpt lat="44.52837942485068" lon="9.687680561326665"><ele>767.0</ele><time>2026-05-01T15:44:32Z</time></trkpt><trkpt lat="44.52826264714324" lon="9.687639583263506"><ele>768.2</ele><time>2026-05-01T15:44:33Z</time></trkpt><trkpt lat="44.528156355467054" lon="9.687599517014565"><ele>769.4000000000001</ele><time>2026-05-01T15:44:34Z</time></trkpt><trkpt lat="44.52805908365624" lon="9.687549549259375"><ele>770.5999999999999</ele><time>2026-05-01T15:44:35Z</time></trkpt><trkpt lat="44.5279707334888" lon="9.687469590000266"><ele>771.8</ele><time>2026-05-01T15:44:36Z</time></trkpt><trkpt lat="44.52787387463318" lon="9.687392062890895"><ele>773.0</ele><time>2026-05-01T15:44:37Z</time></trkpt><trkpt lat="44.527769429856676" lon="9.68734237038909"><ele>773.0</ele><time>2026-05-01T15:44:38Z</time></trkpt><trkpt lat="44.52764899547633" lon="9.687395348992691"><ele>773.0</ele><time>2026-05-01T15:44:39Z</time></trkpt><trkpt lat="44.52753172089312" lon="9.687500189929054"><ele>773.0</ele><time>2026-05-01T15:44:40Z</time></trkpt><trkpt lat="44.52739531611144" lon="9.687525348683858"><ele>773.0</ele><time>2026-05-01T15:44:41Z</time></trkpt><trkpt lat="44.527260534195015" lon="9.68755870408745"><ele>773.0</ele><time>2026-05-01T15:44:42Z</time></trkpt><trkpt lat="44.52713195151795" lon="9.687575093232248"><ele>773.0</ele><time>2026-05-01T15:44:43Z</time></trkpt><trkpt lat="44.527009113774845" lon="9.687589685701283"><ele>773.0</ele><time>2026-05-01T15:44:44Z</time></trkpt><trkpt lat="44.526893644225886" lon="9.687635001214517"><ele>773.0</ele><time>2026-05-01T15:44:45Z</time></trkpt><trkpt lat="44.526792482809306" lon="9.687659744790933"><ele>771.8333333333334</ele><time>2026-05-01T15:44:46Z</time></trkpt><trkpt lat="44.52671105595479" lon="9.687671627160876"><ele>770.6666666666667</ele><time>2026-05-01T15:44:47Z</time></trkpt><trkpt lat="44.52663760337565" lon="9.687682517632128"><ele>769.5</ele><time>2026-05-01T15:44:48Z</time></trkpt><trkpt lat="44.5265688560406" lon="9.687690172623531"><ele>768.3333333333334</ele><time>2026-05-01T15:44:49Z</time></trkpt><trkpt lat="44.526505040699206" lon="9.687592313039394"><ele>767.1666666666667</ele><time>2026-05-01T15:44:50Z</time></trkpt><trkpt lat="44.52642733425283" lon="9.687515553515603"><ele>766.0</ele><time>2026-05-01T15:44:51Z</time></trkpt><trkpt lat="44.52635362030395" lon="9.687472400495118"><ele>766.0</ele><time>2026-05-01T15:44:52Z</time></trkpt><trkpt lat="44.52629155499605" lon="9.687435079467324"><ele>766.0</ele><time>2026-05-01T15:44:53Z</time></trkpt><trkpt lat="44.526167484693296" lon="9.687445829140795"><ele>766.0</ele><time>2026-05-01T15:44:55Z</time></trkpt><trkpt lat="44.526098838872414" lon="9.687485818588671"><ele>766.0</ele><time>2026-05-01T15:44:56Z</time></trkpt><trkpt lat="44.52602613095845" lon="9.687538879713388"><ele>766.0</ele><time>2026-05-01T15:44:57Z</time></trkpt><trkpt lat="44.525943905218234" lon="9.687599584938564"><ele>766.0</ele><time>2026-05-01T15:44:58Z</time></trkpt><trkpt lat="44.525854076099165" lon="9.68764968195989"><ele>763.75</ele><time>2026-05-01T15:44:59Z</time></trkpt><trkpt lat="44.52575803908993" lon="9.687688338281948"><ele>761.5</ele><time>2026-05-01T15:45:00Z</time></trkpt><trkpt lat="44.52564372154226" lon="9.687715416511725"><ele>759.25</ele><time>2026-05-01T15:45:01Z</time></trkpt><trkpt lat="44.52552125797725" lon="9.687729297390531"><ele>757.0</ele><time>2026-05-01T15:45:02Z</time></trkpt><trkpt lat="44.52539118301128" lon="9.687723370350804"><ele>754.0</ele><time>2026-05-01T15:45:03Z</time></trkpt><trkpt lat="44.52525669319293" lon="9.687673780768318"><ele>751.0</ele><time>2026-05-01T15:45:04Z</time></trkpt><trkpt lat="44.52512367463735" lon="9.687627964655382"><ele>748.0</ele><time>2026-05-01T15:45:05Z</time></trkpt><trkpt lat="44.52498795192087" lon="9.687621349064923"><ele>745.0</ele><time>2026-05-01T15:45:06Z</time></trkpt><trkpt lat="44.52485803630209" lon="9.687603553568403"><ele>745.0</ele><time>2026-05-01T15:45:07Z</time></trkpt><trkpt lat="44.524730471073475" lon="9.687586102642356"><ele>745.0</ele><time>2026-05-01T15:45:08Z</time></trkpt><trkpt lat="44.52460846982093" lon="9.68754568752357"><ele>745.0</ele><time>2026-05-01T15:45:09Z</time></trkpt><trkpt lat="44.52450008976174" lon="9.687449422179354"><ele>745.0</ele><time>2026-05-01T15:45:10Z</time></trkpt><trkpt lat="44.52438393498883" lon="9.687348765779246"><ele>742.25</ele><time>2026-05-01T15:45:11Z</time></trkpt><trkpt lat="44.524261372305354" lon="9.687240163433861"><ele>739.5</ele><time>2026-05-01T15:45:12Z</time></trkpt><trkpt lat="44.5241304593012" lon="9.68714865811407"><ele>736.75</ele><time>2026-05-01T15:45:13Z</time></trkpt><trkpt lat="44.52401346899489" lon="9.687034795562992"><ele>734.0</ele><time>2026-05-01T15:45:14Z</time></trkpt><trkpt lat="44.523909044003496" lon="9.686907899539317"><ele>734.0</ele><time>2026-05-01T15:45:15Z</time></trkpt><trkpt lat="44.52379842150409" lon="9.686806827830114"><ele>734.0</ele><time>2026-05-01T15:45:16Z</time></trkpt><trkpt lat="44.523676211400286" lon="9.686745812911822"><ele>734.0</ele><time>2026-05-01T15:45:17Z</time></trkpt><trkpt lat="44.523574691254225" lon="9.686684375454268"><ele>734.0</ele><time>2026-05-01T15:45:18Z</time></trkpt><trkpt lat="44.52340301757479" lon="9.686577641422941"><ele>732.5714285714286</ele><time>2026-05-01T15:45:20Z</time></trkpt><trkpt lat="44.52334280637652" lon="9.686532420346177"><ele>731.1428571428572</ele><time>2026-05-01T15:45:21Z</time></trkpt><trkpt lat="44.52329965909345" lon="9.686460606874055"><ele>729.7142857142858</ele><time>2026-05-01T15:45:24Z</time></trkpt><trkpt lat="44.523369692821305" lon="9.68643824548494"><ele>728.2857142857142</ele><time>2026-05-01T15:45:26Z</time></trkpt><trkpt lat="44.52344932974412" lon="9.686399437593105"><ele>726.8571428571429</ele><time>2026-05-01T15:45:28Z</time></trkpt><trkpt lat="44.52351279621694" lon="9.686373436197714"><ele>725.4285714285714</ele><time>2026-05-01T15:45:29Z</time></trkpt><trkpt lat="44.52358484330404" lon="9.686323959486046"><ele>724.0</ele><time>2026-05-01T15:45:30Z</time></trkpt><trkpt lat="44.52366878395687" lon="9.686267229529399"><ele>726.25</ele><time>2026-05-01T15:45:31Z</time></trkpt><trkpt lat="44.52375579335874" lon="9.686188122129277"><ele>728.5</ele><time>2026-05-01T15:45:32Z</time></trkpt><trkpt lat="44.52384255761485" lon="9.686054912292796"><ele>730.75</ele><time>2026-05-01T15:45:33Z</time></trkpt><trkpt lat="44.52390841988448" lon="9.685879451635303"><ele>733.0</ele><time>2026-05-01T15:45:34Z</time></trkpt><trkpt lat="44.52396777323105" lon="9.685704127963751"><ele>733.0</ele><time>2026-05-01T15:45:35Z</time></trkpt><trkpt lat="44.52403832182982" lon="9.685520479103248"><ele>733.0</ele><time>2026-05-01T15:45:36Z</time></trkpt><trkpt lat="44.52413834061542" lon="9.685408177462092"><ele>733.0</ele><time>2026-05-01T15:45:37Z</time></trkpt><trkpt lat="44.524238869030114" lon="9.68539297284629"><ele>733.0</ele><time>2026-05-01T15:45:38Z</time></trkpt><trkpt lat="44.52435558325073" lon="9.685435445792761"><ele>733.0</ele><time>2026-05-01T15:45:39Z</time></trkpt><trkpt lat="44.52448996348116" lon="9.685479670218706"><ele>733.0</ele><time>2026-05-01T15:45:40Z</time></trkpt><trkpt lat="44.524633906475856" lon="9.685557536755129"><ele>733.0</ele><time>2026-05-01T15:45:41Z</time></trkpt><trkpt lat="44.524788542896836" lon="9.685618975680484"><ele>736.3333333333334</ele><time>2026-05-01T15:45:42Z</time></trkpt><trkpt lat="44.52494531718898" lon="9.685658797291111"><ele>739.6666666666666</ele><time>2026-05-01T15:45:43Z</time></trkpt><trkpt lat="44.52510631599879" lon="9.685648632141001"><ele>743.0</ele><time>2026-05-01T15:45:44Z</time></trkpt><trkpt lat="44.52526378961896" lon="9.685591537190787"><ele>746.5</ele><time>2026-05-01T15:45:45Z</time></trkpt><trkpt lat="44.525403484237444" lon="9.685524857111508"><ele>750.0</ele><time>2026-05-01T15:45:46Z</time></trkpt><trkpt lat="44.52552576327095" lon="9.68555227041215"><ele>753.5</ele><time>2026-05-01T15:45:47Z</time></trkpt><trkpt lat="44.52566327696432" lon="9.68558401905849"><ele>757.0</ele><time>2026-05-01T15:45:48Z</time></trkpt><trkpt lat="44.52581699400748" lon="9.68558115623777"><ele>757.0</ele><time>2026-05-01T15:45:49Z</time></trkpt><trkpt lat="44.5259803038887" lon="9.685556790704203"><ele>757.0</ele><time>2026-05-01T15:45:50Z</time></trkpt><trkpt lat="44.52614754508669" lon="9.68548760859183"><ele>757.0</ele><time>2026-05-01T15:45:51Z</time></trkpt><trkpt lat="44.526311761905404" lon="9.685426181297794"><ele>757.3333333333334</ele><time>2026-05-01T15:45:52Z</time></trkpt><trkpt lat="44.52647833824847" lon="9.6853909354027"><ele>757.6666666666666</ele><time>2026-05-01T15:45:53Z</time></trkpt><trkpt lat="44.526623252860695" lon="9.685311396761229"><ele>758.0</ele><time>2026-05-01T15:45:54Z</time></trkpt><trkpt lat="44.52675212763372" lon="9.685251751964488"><ele>758.0</ele><time>2026-05-01T15:45:55Z</time></trkpt><trkpt lat="44.52687003095294" lon="9.685176282157522"><ele>758.0</ele><time>2026-05-01T15:45:56Z</time></trkpt><trkpt lat="44.526975473002835" lon="9.685102067479614"><ele>758.0</ele><time>2026-05-01T15:45:57Z</time></trkpt><trkpt lat="44.52706614141229" lon="9.685035470292904"><ele>758.0</ele><time>2026-05-01T15:45:58Z</time></trkpt><trkpt lat="44.52714219630967" lon="9.684969329602279"><ele>758.0</ele><time>2026-05-01T15:45:59Z</time></trkpt><trkpt lat="44.52719450689616" lon="9.684885388984485"><ele>758.0</ele><time>2026-05-01T15:46:00Z</time></trkpt><trkpt lat="44.527203983901" lon="9.6847616470409"><ele>758.0</ele><time>2026-05-01T15:46:01Z</time></trkpt><trkpt lat="44.52716801173838" lon="9.68464631988091"><ele>758.0</ele><time>2026-05-01T15:46:02Z</time></trkpt><trkpt lat="44.527088096316874" lon="9.684551124354178"><ele>758.0</ele><time>2026-05-01T15:46:03Z</time></trkpt><trkpt lat="44.52697604148397" lon="9.684461458988883"><ele>758.0</ele><time>2026-05-01T15:46:04Z</time></trkpt><trkpt lat="44.52684587360462" lon="9.68435597637937"><ele>762.0</ele><time>2026-05-01T15:46:05Z</time></trkpt><trkpt lat="44.526702792670434" lon="9.68424226584337"><ele>766.0</ele><time>2026-05-01T15:46:06Z</time></trkpt><trkpt lat="44.526545035858554" lon="9.684182771656829"><ele>770.0</ele><time>2026-05-01T15:46:07Z</time></trkpt><trkpt lat="44.52638561881905" lon="9.684138593865981"><ele>770.0</ele><time>2026-05-01T15:46:08Z</time></trkpt><trkpt lat="44.526248071896426" lon="9.68410062952042"><ele>770.0</ele><time>2026-05-01T15:46:09Z</time></trkpt><trkpt lat="44.526149078850516" lon="9.684031352151043"><ele>770.0</ele><time>2026-05-01T15:46:10Z</time></trkpt><trkpt lat="44.52606840431261" lon="9.68390818863202"><ele>770.0</ele><time>2026-05-01T15:46:11Z</time></trkpt><trkpt lat="44.525962810491926" lon="9.683750032873196"><ele>771.5</ele><time>2026-05-01T15:46:12Z</time></trkpt><trkpt lat="44.52585211057177" lon="9.683584229233201"><ele>773.0</ele><time>2026-05-01T15:46:13Z</time></trkpt><trkpt lat="44.52574334951549" lon="9.683427169441108"><ele>774.5</ele><time>2026-05-01T15:46:14Z</time></trkpt><trkpt lat="44.525653538048296" lon="9.683297295850213"><ele>776.0</ele><time>2026-05-01T15:46:15Z</time></trkpt><trkpt lat="44.52557869937049" lon="9.683181706578463"><ele>776.0</ele><time>2026-05-01T15:46:16Z</time></trkpt><trkpt lat="44.52553042410415" lon="9.683058467540318"><ele>776.0</ele><time>2026-05-01T15:46:17Z</time></trkpt><trkpt lat="44.525504718948525" lon="9.682920511462356"><ele>776.0</ele><time>2026-05-01T15:46:18Z</time></trkpt><trkpt lat="44.52557377036555" lon="9.682790694557776"><ele>776.0</ele><time>2026-05-01T15:46:19Z</time></trkpt><trkpt lat="44.52565770557404" lon="9.68270219423927"><ele>776.0</ele><time>2026-05-01T15:46:20Z</time></trkpt><trkpt lat="44.525774607180765" lon="9.68264522950903"><ele>776.0</ele><time>2026-05-01T15:46:21Z</time></trkpt><trkpt lat="44.52590742872359" lon="9.682554479642276"><ele>776.0</ele><time>2026-05-01T15:46:22Z</time></trkpt><trkpt lat="44.5260555747987" lon="9.682454733592504"><ele>776.0</ele><time>2026-05-01T15:46:23Z</time></trkpt><trkpt lat="44.52620566138885" lon="9.682339850552022"><ele>784.0</ele><time>2026-05-01T15:46:24Z</time></trkpt><trkpt lat="44.5263565057849" lon="9.682224410835591"><ele>792.0</ele><time>2026-05-01T15:46:25Z</time></trkpt><trkpt lat="44.526484360937935" lon="9.682099815040942"><ele>800.0</ele><time>2026-05-01T15:46:26Z</time></trkpt><trkpt lat="44.52659007479079" lon="9.68199095143796"><ele>798.75</ele><time>2026-05-01T15:46:27Z</time></trkpt><trkpt lat="44.52668001312245" lon="9.681856385928134"><ele>797.5</ele><time>2026-05-01T15:46:28Z</time></trkpt><trkpt lat="44.5267384591639" lon="9.681674179715703"><ele>796.25</ele><time>2026-05-01T15:46:29Z</time></trkpt><trkpt lat="44.52675864452453" lon="9.681457655303097"><ele>795.0</ele><time>2026-05-01T15:46:30Z</time></trkpt><trkpt lat="44.526741460973845" lon="9.681227964137689"><ele>796.0</ele><time>2026-05-01T15:46:31Z</time></trkpt><trkpt lat="44.526694287977584" lon="9.680997156360831"><ele>797.0</ele><time>2026-05-01T15:46:32Z</time></trkpt><trkpt lat="44.5266391035591" lon="9.68080549609024"><ele>798.0</ele><time>2026-05-01T15:46:33Z</time></trkpt><trkpt lat="44.52657788731706" lon="9.680653815172008"><ele>799.0</ele><time>2026-05-01T15:46:34Z</time></trkpt><trkpt lat="44.52648245329156" lon="9.680544756684816"><ele>799.0</ele><time>2026-05-01T15:46:35Z</time></trkpt><trkpt lat="44.52635144210416" lon="9.68046093688916"><ele>799.0</ele><time>2026-05-01T15:46:36Z</time></trkpt><trkpt lat="44.52620418501625" lon="9.680383811612556"><ele>799.0</ele><time>2026-05-01T15:46:37Z</time></trkpt><trkpt lat="44.52608223754921" lon="9.680268135519595"><ele>799.0</ele><time>2026-05-01T15:46:38Z</time></trkpt><trkpt lat="44.525992217416224" lon="9.680081003940925"><ele>800.25</ele><time>2026-05-01T15:46:39Z</time></trkpt><trkpt lat="44.525906176958294" lon="9.679893566256988"><ele>801.5</ele><time>2026-05-01T15:46:40Z</time></trkpt><trkpt lat="44.52582948933151" lon="9.679748996324257"><ele>802.75</ele><time>2026-05-01T15:46:41Z</time></trkpt><trkpt lat="44.52576309805581" lon="9.679634379867258"><ele>804.0</ele><time>2026-05-01T15:46:42Z</time></trkpt><trkpt lat="44.52568020456032" lon="9.679583574745761"><ele>804.0</ele><time>2026-05-01T15:46:43Z</time></trkpt><trkpt lat="44.525588514884696" lon="9.679602975946818"><ele>804.0</ele><time>2026-05-01T15:46:44Z</time></trkpt><trkpt lat="44.52551492962701" lon="9.679696942165554"><ele>804.0</ele><time>2026-05-01T15:46:45Z</time></trkpt><trkpt lat="44.52547188021805" lon="9.679841823850287"><ele>804.0</ele><time>2026-05-01T15:46:46Z</time></trkpt><trkpt lat="44.525435364332125" lon="9.68000634956052"><ele>804.0</ele><time>2026-05-01T15:46:47Z</time></trkpt><trkpt lat="44.525377490355844" lon="9.680137616681003"><ele>806.0</ele><time>2026-05-01T15:46:48Z</time></trkpt><trkpt lat="44.52526693776716" lon="9.680179074574191"><ele>808.0</ele><time>2026-05-01T15:46:49Z</time></trkpt><trkpt lat="44.5251434054588" lon="9.680189060917515"><ele>810.0</ele><time>2026-05-01T15:46:50Z</time></trkpt><trkpt lat="44.52500427606349" lon="9.68022486298685"><ele>812.0</ele><time>2026-05-01T15:46:51Z</time></trkpt><trkpt lat="44.52487314964088" lon="9.680191965745353"><ele>812.0</ele><time>2026-05-01T15:46:52Z</time></trkpt><trkpt lat="44.524754280640934" lon="9.680079104825584"><ele>812.0</ele><time>2026-05-01T15:46:53Z</time></trkpt><trkpt lat="44.524633252940326" lon="9.679990628613611"><ele>812.0</ele><time>2026-05-01T15:46:54Z</time></trkpt><trkpt lat="44.52455747552866" lon="9.679882626622442"><ele>812.0</ele><time>2026-05-01T15:46:55Z</time></trkpt><trkpt lat="44.52451975201114" lon="9.67976930198502"><ele>812.0</ele><time>2026-05-01T15:46:56Z</time></trkpt><trkpt lat="44.52453221881459" lon="9.679644046367287"><ele>812.0</ele><time>2026-05-01T15:46:57Z</time></trkpt><trkpt lat="44.524609632500876" lon="9.679540731246552"><ele>812.0</ele><time>2026-05-01T15:46:58Z</time></trkpt><trkpt lat="44.524684022022846" lon="9.679411713007896"><ele>812.0</ele><time>2026-05-01T15:46:59Z</time></trkpt><trkpt lat="44.52475913782828" lon="9.679328471184006"><ele>812.0</ele><time>2026-05-01T15:47:00Z</time></trkpt><trkpt lat="44.524809730555376" lon="9.67925370324349"><ele>812.8333333333334</ele><time>2026-05-01T15:47:01Z</time></trkpt><trkpt lat="44.524864933590855" lon="9.679180845380522"><ele>813.6666666666667</ele><time>2026-05-01T15:47:02Z</time></trkpt><trkpt lat="44.524914693162465" lon="9.679109182725945"><ele>814.5</ele><time>2026-05-01T15:47:03Z</time></trkpt><trkpt lat="44.52497266181799" lon="9.679020975804344"><ele>815.3333333333333</ele><time>2026-05-01T15:47:05Z</time></trkpt><trkpt lat="44.52494836120916" lon="9.678917313227798"><ele>816.1666666666666</ele><time>2026-05-01T15:47:07Z</time></trkpt><trkpt lat="44.524963661749986" lon="9.678763826958754"><ele>817.0</ele><time>2026-05-01T15:47:09Z</time></trkpt><trkpt lat="44.52498797108473" lon="9.678658671737368"><ele>815.8</ele><time>2026-05-01T15:47:10Z</time></trkpt><trkpt lat="44.52501291801532" lon="9.678541539148712"><ele>814.6</ele><time>2026-05-01T15:47:11Z</time></trkpt><trkpt lat="44.52503387888926" lon="9.678424992739801"><ele>813.4</ele><time>2026-05-01T15:47:12Z</time></trkpt><trkpt lat="44.525072530431984" lon="9.678305662974035"><ele>812.1999999999999</ele><time>2026-05-01T15:47:13Z</time></trkpt><trkpt lat="44.525073479617376" lon="9.678165145306844"><ele>811.0</ele><time>2026-05-01T15:47:14Z</time></trkpt><trkpt lat="44.525088690841926" lon="9.67802587278194"><ele>811.0</ele><time>2026-05-01T15:47:15Z</time></trkpt><trkpt lat="44.52510052384677" lon="9.67788777817381"><ele>811.0</ele><time>2026-05-01T15:47:16Z</time></trkpt><trkpt lat="44.52510469813317" lon="9.677745466962811"><ele>811.0</ele><time>2026-05-01T15:47:17Z</time></trkpt><trkpt lat="44.52512558730287" lon="9.677604393909482"><ele>811.0</ele><time>2026-05-01T15:47:18Z</time></trkpt><trkpt lat="44.52513014321235" lon="9.6774665343789"><ele>811.0</ele><time>2026-05-01T15:47:19Z</time></trkpt><trkpt lat="44.5251246587557" lon="9.677332335738807"><ele>809.1999999999999</ele><time>2026-05-01T15:47:20Z</time></trkpt><trkpt lat="44.525086237646896" lon="9.677198564901643"><ele>807.4</ele><time>2026-05-01T15:47:21Z</time></trkpt><trkpt lat="44.525044066781646" lon="9.67707363179208"><ele>805.6</ele><time>2026-05-01T15:47:22Z</time></trkpt><trkpt lat="44.524990492831" lon="9.67696593497561"><ele>803.8</ele><time>2026-05-01T15:47:23Z</time></trkpt><trkpt lat="44.52491429350299" lon="9.676877573387655"><ele>802.0</ele><time>2026-05-01T15:47:24Z</time></trkpt><trkpt lat="44.52482926465922" lon="9.676807016171415"><ele>800.8</ele><time>2026-05-01T15:47:25Z</time></trkpt><trkpt lat="44.52474952593104" lon="9.676765758086315"><ele>799.6</ele><time>2026-05-01T15:47:26Z</time></trkpt><trkpt lat="44.52468903897981" lon="9.676707687037409"><ele>798.4</ele><time>2026-05-01T15:47:27Z</time></trkpt><trkpt lat="44.524590598614246" lon="9.676615779579361"><ele>797.1999999999999</ele><time>2026-05-01T15:47:29Z</time></trkpt><trkpt lat="44.5245360105376" lon="9.6765417761317"><ele>796.0</ele><time>2026-05-01T15:47:31Z</time></trkpt><trkpt lat="44.52460919031001" lon="9.67640029402258"><ele>796.0</ele><time>2026-05-01T15:47:33Z</time></trkpt><trkpt lat="44.52463614876365" lon="9.676278789359243"><ele>796.0</ele><time>2026-05-01T15:47:34Z</time></trkpt><trkpt lat="44.5246879076221" lon="9.676154653979268"><ele>796.0</ele><time>2026-05-01T15:47:35Z</time></trkpt><trkpt lat="44.52475097689241" lon="9.67604221119592"><ele>796.0</ele><time>2026-05-01T15:47:36Z</time></trkpt><trkpt lat="44.52482775320473" lon="9.675932732324801"><ele>796.0</ele><time>2026-05-01T15:47:37Z</time></trkpt><trkpt lat="44.52490756658472" lon="9.675849538947068"><ele>794.0</ele><time>2026-05-01T15:47:38Z</time></trkpt><trkpt lat="44.52499628192979" lon="9.675804494653242"><ele>792.0</ele><time>2026-05-01T15:47:39Z</time></trkpt><trkpt lat="44.52506323613764" lon="9.675720892047234"><ele>790.0</ele><time>2026-05-01T15:47:40Z</time></trkpt><trkpt lat="44.52512757425237" lon="9.67562815033284"><ele>788.0</ele><time>2026-05-01T15:47:41Z</time></trkpt><trkpt lat="44.525176207370365" lon="9.675501133744834"><ele>786.0</ele><time>2026-05-01T15:47:42Z</time></trkpt><trkpt lat="44.525230696460554" lon="9.675389763389548"><ele>786.0</ele><time>2026-05-01T15:47:43Z</time></trkpt><trkpt lat="44.52530215756774" lon="9.675294081320255"><ele>786.0</ele><time>2026-05-01T15:47:44Z</time></trkpt><trkpt lat="44.525376678821836" lon="9.675214977651345"><ele>786.0</ele><time>2026-05-01T15:47:45Z</time></trkpt><trkpt lat="44.525421223092174" lon="9.675111368444886"><ele>786.0</ele><time>2026-05-01T15:47:46Z</time></trkpt><trkpt lat="44.525438415000814" lon="9.674989520162637"><ele>786.0</ele><time>2026-05-01T15:47:47Z</time></trkpt><trkpt lat="44.525446808361956" lon="9.674856142045144"><ele>786.1999999999999</ele><time>2026-05-01T15:47:48Z</time></trkpt><trkpt lat="44.52545420352942" lon="9.674728186443884"><ele>786.4</ele><time>2026-05-01T15:47:49Z</time></trkpt><trkpt lat="44.52544943296284" lon="9.67460380668528"><ele>786.6</ele><time>2026-05-01T15:47:50Z</time></trkpt><trkpt lat="44.52544393251216" lon="9.674468993301732"><ele>786.8</ele><time>2026-05-01T15:47:51Z</time></trkpt><trkpt lat="44.52542619466102" lon="9.674341660331924"><ele>787.0</ele><time>2026-05-01T15:47:52Z</time></trkpt><trkpt lat="44.52539150140642" lon="9.67421154603042"><ele>785.6</ele><time>2026-05-01T15:47:53Z</time></trkpt><trkpt lat="44.52534109163421" lon="9.674092705398342"><ele>784.2</ele><time>2026-05-01T15:47:54Z</time></trkpt><trkpt lat="44.52527203925003" lon="9.673993053932907"><ele>782.8</ele><time>2026-05-01T15:47:55Z</time></trkpt><trkpt lat="44.525200341801856" lon="9.673893453353752"><ele>781.4</ele><time>2026-05-01T15:47:56Z</time></trkpt><trkpt lat="44.52513465047386" lon="9.673782119896018"><ele>780.0</ele><time>2026-05-01T15:47:57Z</time></trkpt><trkpt lat="44.525099524739844" lon="9.673632017455851"><ele>780.5</ele><time>2026-05-01T15:47:58Z</time></trkpt><trkpt lat="44.52502237492432" lon="9.673507647839742"><ele>781.0</ele><time>2026-05-01T15:47:59Z</time></trkpt><trkpt lat="44.524938711078974" lon="9.673396263508302"><ele>781.5</ele><time>2026-05-01T15:48:00Z</time></trkpt><trkpt lat="44.52483643935515" lon="9.673275414488067"><ele>782.0</ele><time>2026-05-01T15:48:01Z</time></trkpt><trkpt lat="44.52477407800172" lon="9.673112500631852"><ele>782.0</ele><time>2026-05-01T15:48:02Z</time></trkpt><trkpt lat="44.52469903098103" lon="9.672993777766253"><ele>782.0</ele><time>2026-05-01T15:48:03Z</time></trkpt><trkpt lat="44.52466377516934" lon="9.672849712786027"><ele>782.0</ele><time>2026-05-01T15:48:04Z</time></trkpt><trkpt lat="44.52463602832542" lon="9.672706850165877"><ele>782.0</ele><time>2026-05-01T15:48:05Z</time></trkpt><trkpt lat="44.52462225791003" lon="9.672550083213505"><ele>782.0</ele><time>2026-05-01T15:48:06Z</time></trkpt><trkpt lat="44.524606720056624" lon="9.672373713807621"><ele>782.25</ele><time>2026-05-01T15:48:07Z</time></trkpt><trkpt lat="44.52457302156175" lon="9.672218092382693"><ele>782.5</ele><time>2026-05-01T15:48:08Z</time></trkpt><trkpt lat="44.52449693719104" lon="9.672079516688198"><ele>782.75</ele><time>2026-05-01T15:48:09Z</time></trkpt><trkpt lat="44.5244346982161" lon="9.671918633360272"><ele>783.0</ele><time>2026-05-01T15:48:10Z</time></trkpt><trkpt lat="44.52433471322659" lon="9.67179451883038"><ele>783.0</ele><time>2026-05-01T15:48:11Z</time></trkpt><trkpt lat="44.524242586952475" lon="9.67166645358425"><ele>783.0</ele><time>2026-05-01T15:48:12Z</time></trkpt><trkpt lat="44.524156190062406" lon="9.67156368574346"><ele>783.0</ele><time>2026-05-01T15:48:13Z</time></trkpt><trkpt lat="44.52407419129344" lon="9.671478124804446"><ele>783.0</ele><time>2026-05-01T15:48:14Z</time></trkpt><trkpt lat="44.5239938857109" lon="9.671385735697537"><ele>783.0</ele><time>2026-05-01T15:48:15Z</time></trkpt><trkpt lat="44.523908794908266" lon="9.671280824488978"><ele>783.0</ele><time>2026-05-01T15:48:16Z</time></trkpt><trkpt lat="44.52382420834011" lon="9.6711837455296"><ele>783.0</ele><time>2026-05-01T15:48:17Z</time></trkpt><trkpt lat="44.52373898524087" lon="9.67108043290949"><ele>783.0</ele><time>2026-05-01T15:48:18Z</time></trkpt><trkpt lat="44.52366723473135" lon="9.670978907927045"><ele>783.0</ele><time>2026-05-01T15:48:19Z</time></trkpt><trkpt lat="44.52359770554704" lon="9.670855835275606"><ele>783.0</ele><time>2026-05-01T15:48:20Z</time></trkpt><trkpt lat="44.523554868134674" lon="9.67071432876401"><ele>782.8</ele><time>2026-05-01T15:48:21Z</time></trkpt><trkpt lat="44.52350453246322" lon="9.670573979521729"><ele>782.5999999999999</ele><time>2026-05-01T15:48:22Z</time></trkpt><trkpt lat="44.523443158831945" lon="9.670439903258762"><ele>782.4000000000001</ele><time>2026-05-01T15:48:23Z</time></trkpt><trkpt lat="44.52342032706988" lon="9.670298158158449"><ele>782.2</ele><time>2026-05-01T15:48:24Z</time></trkpt><trkpt lat="44.52339377257004" lon="9.670178025554957"><ele>782.0</ele><time>2026-05-01T15:48:25Z</time></trkpt><trkpt lat="44.52338732304658" lon="9.6700827872384"><ele>783.1666666666667</ele><time>2026-05-01T15:48:26Z</time></trkpt><trkpt lat="44.523431822914084" lon="9.66992095331309"><ele>784.3333333333334</ele><time>2026-05-01T15:48:28Z</time></trkpt><trkpt lat="44.52347305064119" lon="9.669834224125209"><ele>785.5</ele><time>2026-05-01T15:48:30Z</time></trkpt><trkpt lat="44.523552628546334" lon="9.66987856919524"><ele>786.6666666666667</ele><time>2026-05-01T15:48:33Z</time></trkpt><trkpt lat="44.523612468671395" lon="9.669944192295594"><ele>787.8333333333334</ele><time>2026-05-01T15:48:35Z</time></trkpt><trkpt lat="44.52368895798469" lon="9.670009219696942"><ele>789.0</ele><time>2026-05-01T15:48:37Z</time></trkpt><trkpt lat="44.52376260097264" lon="9.67005612261575"><ele>790.5</ele><time>2026-05-01T15:48:39Z</time></trkpt><trkpt lat="44.523842915975905" lon="9.670090303038055"><ele>792.0</ele><time>2026-05-01T15:48:42Z</time></trkpt><trkpt lat="44.523924852235815" lon="9.670117121120725"><ele>793.5</ele><time>2026-05-01T15:48:45Z</time></trkpt><trkpt lat="44.52398930084675" lon="9.670131583427908"><ele>795.0</ele><time>2026-05-01T15:49:08Z</time></trkpt><trkpt lat="44.524059730281664" lon="9.670143177403792"><ele>796.5</ele><time>2026-05-01T15:49:09Z</time></trkpt><trkpt lat="44.52415507438588" lon="9.6701520414245"><ele>798.0</ele><time>2026-05-01T15:49:10Z</time></trkpt><trkpt lat="44.524280109696804" lon="9.670155235962483"><ele>798.0</ele><time>2026-05-01T15:49:11Z</time></trkpt><trkpt lat="44.52440520582447" lon="9.67015812411874"><ele>798.0</ele><time>2026-05-01T15:49:12Z</time></trkpt><trkpt lat="44.52452936180616" lon="9.670178074878159"><ele>798.0</ele><time>2026-05-01T15:49:13Z</time></trkpt><trkpt lat="44.524629314612525" lon="9.670198916513534"><ele>798.0</ele><time>2026-05-01T15:49:14Z</time></trkpt><trkpt lat="44.52472714968875" lon="9.670227292506372"><ele>800.0</ele><time>2026-05-01T15:49:16Z</time></trkpt><trkpt lat="44.52486356397893" lon="9.670186897562422"><ele>802.0</ele><time>2026-05-01T15:49:18Z</time></trkpt><trkpt lat="44.52495936263354" lon="9.670139379847754"><ele>804.0</ele><time>2026-05-01T15:49:19Z</time></trkpt><trkpt lat="44.525076971995354" lon="9.67008388792859"><ele>806.0</ele><time>2026-05-01T15:49:20Z</time></trkpt><trkpt lat="44.52519944174047" lon="9.670032719710727"><ele>806.0</ele><time>2026-05-01T15:49:21Z</time></trkpt><trkpt lat="44.525313877916744" lon="9.669990234815225"><ele>806.0</ele><time>2026-05-01T15:49:22Z</time></trkpt><trkpt lat="44.5254216151862" lon="9.669942285399909"><ele>806.0</ele><time>2026-05-01T15:49:23Z</time></trkpt><trkpt lat="44.52551540606951" lon="9.669848205284577"><ele>806.0</ele><time>2026-05-01T15:49:24Z</time></trkpt><trkpt lat="44.525615400839996" lon="9.669800765693399"><ele>808.4</ele><time>2026-05-01T15:49:25Z</time></trkpt><trkpt lat="44.525688626757876" lon="9.669752353391958"><ele>810.8</ele><time>2026-05-01T15:49:26Z</time></trkpt><trkpt lat="44.52575797379872" lon="9.669706505552405"><ele>813.1999999999999</ele><time>2026-05-01T15:49:28Z</time></trkpt><trkpt lat="44.52577757976541" lon="9.669449889824156"><ele>815.5999999999999</ele><time>2026-05-01T15:49:49Z</time></trkpt><trkpt lat="44.525785595861386" lon="9.669347567964351"><ele>818.0</ele><time>2026-05-01T15:49:50Z</time></trkpt><trkpt lat="44.525794079783886" lon="9.669237820094134"><ele>818.0</ele><time>2026-05-01T15:49:51Z</time></trkpt><trkpt lat="44.52581459652888" lon="9.66911353427768"><ele>818.0</ele><time>2026-05-01T15:49:52Z</time></trkpt><trkpt lat="44.5258399967578" lon="9.668975850192654"><ele>818.0</ele><time>2026-05-01T15:49:53Z</time></trkpt><trkpt lat="44.525865910877656" lon="9.668829777867195"><ele>818.0</ele><time>2026-05-01T15:49:54Z</time></trkpt><trkpt lat="44.52588527313537" lon="9.668679737484865"><ele>818.0</ele><time>2026-05-01T15:49:55Z</time></trkpt><trkpt lat="44.52589589311656" lon="9.668530483825839"><ele>816.8</ele><time>2026-05-01T15:49:56Z</time></trkpt><trkpt lat="44.525892419960094" lon="9.668378377050852"><ele>815.5999999999999</ele><time>2026-05-01T15:49:57Z</time></trkpt><trkpt lat="44.525871430668175" lon="9.668228621876537"><ele>814.4000000000001</ele><time>2026-05-01T15:49:58Z</time></trkpt><trkpt lat="44.525831707369804" lon="9.668083107555328"><ele>813.2</ele><time>2026-05-01T15:49:59Z</time></trkpt><trkpt lat="44.52578049908086" lon="9.667934057621597"><ele>812.0</ele><time>2026-05-01T15:50:00Z</time></trkpt><trkpt lat="44.525725012246255" lon="9.66778020065805"><ele>813.0</ele><time>2026-05-01T15:50:01Z</time></trkpt><trkpt lat="44.52566924822886" lon="9.66761939379206"><ele>814.0</ele><time>2026-05-01T15:50:02Z</time></trkpt><trkpt lat="44.525613448730894" lon="9.667448741844352"><ele>815.0</ele><time>2026-05-01T15:50:03Z</time></trkpt><trkpt lat="44.52555669092759" lon="9.66727317226934"><ele>816.0</ele><time>2026-05-01T15:50:04Z</time></trkpt><trkpt lat="44.52550059483143" lon="9.667103508512547"><ele>817.25</ele><time>2026-05-01T15:50:05Z</time></trkpt><trkpt lat="44.52543404850833" lon="9.666929217669598"><ele>818.5</ele><time>2026-05-01T15:50:06Z</time></trkpt><trkpt lat="44.52536659751927" lon="9.666748780049177"><ele>819.75</ele><time>2026-05-01T15:50:07Z</time></trkpt><trkpt lat="44.52530334778442" lon="9.666566581349102"><ele>821.0</ele><time>2026-05-01T15:50:08Z</time></trkpt><trkpt lat="44.52524510344196" lon="9.666390164247131"><ele>814.75</ele><time>2026-05-01T15:50:09Z</time></trkpt><trkpt lat="44.52518270048243" lon="9.666211641469017"><ele>808.5</ele><time>2026-05-01T15:50:10Z</time></trkpt><trkpt lat="44.525117137339045" lon="9.666026091136834"><ele>802.25</ele><time>2026-05-01T15:50:11Z</time></trkpt><trkpt lat="44.525059216909824" lon="9.665821130285073"><ele>796.0</ele><time>2026-05-01T15:50:12Z</time></trkpt><trkpt lat="44.525014433273626" lon="9.665614441287849"><ele>795.75</ele><time>2026-05-01T15:50:13Z</time></trkpt><trkpt lat="44.524978193589064" lon="9.665414090624378"><ele>795.5</ele><time>2026-05-01T15:50:14Z</time></trkpt><trkpt lat="44.52494461529881" lon="9.665218247854089"><ele>795.25</ele><time>2026-05-01T15:50:15Z</time></trkpt><trkpt lat="44.52490975206333" lon="9.665027975087389"><ele>795.0</ele><time>2026-05-01T15:50:16Z</time></trkpt><trkpt lat="44.52487148811077" lon="9.664840773183421"><ele>794.5</ele><time>2026-05-01T15:50:17Z</time></trkpt><trkpt lat="44.52482430893033" lon="9.66465948161122"><ele>794.0</ele><time>2026-05-01T15:50:18Z</time></trkpt><trkpt lat="44.52476633514314" lon="9.66448564263532"><ele>793.5</ele><time>2026-05-01T15:50:19Z</time></trkpt><trkpt lat="44.52469930425906" lon="9.664318727572455"><ele>793.0</ele><time>2026-05-01T15:50:20Z</time></trkpt><trkpt lat="44.524633487548115" lon="9.664154328336785"><ele>794.0</ele><time>2026-05-01T15:50:21Z</time></trkpt><trkpt lat="44.524571319387015" lon="9.663992564795787"><ele>795.0</ele><time>2026-05-01T15:50:22Z</time></trkpt><trkpt lat="44.52451855078445" lon="9.663828777995747"><ele>796.0</ele><time>2026-05-01T15:50:23Z</time></trkpt><trkpt lat="44.52448571275638" lon="9.663637444861697"><ele>797.0</ele><time>2026-05-01T15:50:24Z</time></trkpt><trkpt lat="44.52445671715187" lon="9.663443295785127"><ele>791.0</ele><time>2026-05-01T15:50:25Z</time></trkpt><trkpt lat="44.52442985714523" lon="9.663238013330986"><ele>785.0</ele><time>2026-05-01T15:50:26Z</time></trkpt><trkpt lat="44.524407737449536" lon="9.663024790391072"><ele>779.0</ele><time>2026-05-01T15:50:27Z</time></trkpt><trkpt lat="44.524392599976046" lon="9.662822055498026"><ele>773.0</ele><time>2026-05-01T15:50:28Z</time></trkpt><trkpt lat="44.52438427125531" lon="9.662626970976358"><ele>771.2</ele><time>2026-05-01T15:50:29Z</time></trkpt><trkpt lat="44.524385209449086" lon="9.662444388855077"><ele>769.4</ele><time>2026-05-01T15:50:30Z</time></trkpt><trkpt lat="44.52439627380472" lon="9.662295311568123"><ele>767.6</ele><time>2026-05-01T15:50:31Z</time></trkpt><trkpt lat="44.52443805121807" lon="9.662185536192528"><ele>765.8000000000001</ele><time>2026-05-01T15:50:32Z</time></trkpt><trkpt lat="44.52451160943555" lon="9.662122229710423"><ele>764.0</ele><time>2026-05-01T15:50:33Z</time></trkpt><trkpt lat="44.524616975115485" lon="9.662138004478631"><ele>770.0</ele><time>2026-05-01T15:50:34Z</time></trkpt><trkpt lat="44.52472885684237" lon="9.662168865398105"><ele>776.0</ele><time>2026-05-01T15:50:35Z</time></trkpt><trkpt lat="44.52484443159996" lon="9.66223148935159"><ele>782.0</ele><time>2026-05-01T15:50:36Z</time></trkpt><trkpt lat="44.52495266257217" lon="9.662294153999913"><ele>788.0</ele><time>2026-05-01T15:50:37Z</time></trkpt><trkpt lat="44.52508791559777" lon="9.662380325845474"><ele>788.0</ele><time>2026-05-01T15:50:38Z</time></trkpt><trkpt lat="44.525228405513495" lon="9.662447955315422"><ele>788.0</ele><time>2026-05-01T15:50:39Z</time></trkpt><trkpt lat="44.52535900066995" lon="9.66246698090828"><ele>788.0</ele><time>2026-05-01T15:50:40Z</time></trkpt><trkpt lat="44.5254776591715" lon="9.662511344381954"><ele>788.0</ele><time>2026-05-01T15:50:41Z</time></trkpt><trkpt lat="44.525596604501445" lon="9.662520589770912"><ele>788.25</ele><time>2026-05-01T15:50:42Z</time></trkpt><trkpt lat="44.525723108409146" lon="9.662493066549702"><ele>788.5</ele><time>2026-05-01T15:50:43Z</time></trkpt><trkpt lat="44.52586169042379" lon="9.66246723311035"><ele>788.75</ele><time>2026-05-01T15:50:44Z</time></trkpt><trkpt lat="44.52600301619505" lon="9.66241304742249"><ele>789.0</ele><time>2026-05-01T15:50:45Z</time></trkpt><trkpt lat="44.52612833689411" lon="9.662336309075728"><ele>789.0</ele><time>2026-05-01T15:50:46Z</time></trkpt><trkpt lat="44.52622795360078" lon="9.66224623829916"><ele>789.0</ele><time>2026-05-01T15:50:47Z</time></trkpt><trkpt lat="44.52630886724053" lon="9.662135162771493"><ele>789.0</ele><time>2026-05-01T15:50:48Z</time></trkpt><trkpt lat="44.52635568333114" lon="9.661999887755766"><ele>789.0</ele><time>2026-05-01T15:50:49Z</time></trkpt><trkpt lat="44.52636274042122" lon="9.661844594491368"><ele>787.25</ele><time>2026-05-01T15:50:50Z</time></trkpt><trkpt lat="44.52633474707133" lon="9.6616916749832"><ele>785.5</ele><time>2026-05-01T15:50:51Z</time></trkpt><trkpt lat="44.52626867377933" lon="9.66153673093824"><ele>783.75</ele><time>2026-05-01T15:50:52Z</time></trkpt><trkpt lat="44.52616240570106" lon="9.661403743455475"><ele>782.0</ele><time>2026-05-01T15:50:53Z</time></trkpt><trkpt lat="44.52602257269575" lon="9.661267364423612"><ele>776.0</ele><time>2026-05-01T15:50:54Z</time></trkpt><trkpt lat="44.52590678302836" lon="9.661079616746518"><ele>770.0</ele><time>2026-05-01T15:50:55Z</time></trkpt><trkpt lat="44.52580571866663" lon="9.66087224629421"><ele>764.0</ele><time>2026-05-01T15:50:56Z</time></trkpt><trkpt lat="44.52571919005091" lon="9.660679423427927"><ele>764.0</ele><time>2026-05-01T15:50:57Z</time></trkpt><trkpt lat="44.525648199819095" lon="9.660510388300066"><ele>764.0</ele><time>2026-05-01T15:50:58Z</time></trkpt><trkpt lat="44.525614482588445" lon="9.66035114419743"><ele>764.0</ele><time>2026-05-01T15:50:59Z</time></trkpt><trkpt lat="44.52561614631953" lon="9.660182088595503"><ele>764.0</ele><time>2026-05-01T15:51:00Z</time></trkpt><trkpt lat="44.525654068481614" lon="9.660038886914375"><ele>763.0</ele><time>2026-05-01T15:51:01Z</time></trkpt><trkpt lat="44.525709309548866" lon="9.65989334040131"><ele>762.0</ele><time>2026-05-01T15:51:02Z</time></trkpt><trkpt lat="44.525761626221836" lon="9.659711651653405"><ele>761.0</ele><time>2026-05-01T15:51:03Z</time></trkpt><trkpt lat="44.52583112304793" lon="9.659540375895132"><ele>760.0</ele><time>2026-05-01T15:51:04Z</time></trkpt><trkpt lat="44.52589467981971" lon="9.659379309004388"><ele>757.5</ele><time>2026-05-01T15:51:05Z</time></trkpt><trkpt lat="44.5259586615788" lon="9.65922441102028"><ele>755.0</ele><time>2026-05-01T15:51:06Z</time></trkpt><trkpt lat="44.526013449122196" lon="9.659072965643281"><ele>752.5</ele><time>2026-05-01T15:51:07Z</time></trkpt><trkpt lat="44.52606288188958" lon="9.658933552004191"><ele>750.0</ele><time>2026-05-01T15:51:08Z</time></trkpt><trkpt lat="44.526085172507685" lon="9.658791290042613"><ele>750.0</ele><time>2026-05-01T15:51:09Z</time></trkpt><trkpt lat="44.52609296249269" lon="9.658635903713858"><ele>750.0</ele><time>2026-05-01T15:51:10Z</time></trkpt><trkpt lat="44.5260243406601" lon="9.658493107547061"><ele>750.0</ele><time>2026-05-01T15:51:11Z</time></trkpt><trkpt lat="44.52592897303451" lon="9.658363320294411"><ele>750.0</ele><time>2026-05-01T15:51:12Z</time></trkpt><trkpt lat="44.52579680036043" lon="9.658259833366747"><ele>752.0</ele><time>2026-05-01T15:51:13Z</time></trkpt><trkpt lat="44.52566982238602" lon="9.65813567560771"><ele>754.0</ele><time>2026-05-01T15:51:14Z</time></trkpt><trkpt lat="44.5255265621511" lon="9.658011880002977"><ele>756.0</ele><time>2026-05-01T15:51:15Z</time></trkpt><trkpt lat="44.525378405623975" lon="9.65790976700901"><ele>755.6666666666666</ele><time>2026-05-01T15:51:16Z</time></trkpt><trkpt lat="44.52522493741006" lon="9.657861557554446"><ele>755.3333333333333</ele><time>2026-05-01T15:51:17Z</time></trkpt><trkpt lat="44.52507977623495" lon="9.657786120485516"><ele>755.0</ele><time>2026-05-01T15:51:18Z</time></trkpt><trkpt lat="44.5249344565108" lon="9.657761223797394"><ele>755.0</ele><time>2026-05-01T15:51:19Z</time></trkpt><trkpt lat="44.524794411209136" lon="9.65777532229854"><ele>755.0</ele><time>2026-05-01T15:51:20Z</time></trkpt><trkpt lat="44.52465865270856" lon="9.657754761002472"><ele>755.0</ele><time>2026-05-01T15:51:21Z</time></trkpt><trkpt lat="44.52454542317173" lon="9.657656054258592"><ele>755.0</ele><time>2026-05-01T15:51:22Z</time></trkpt><trkpt lat="44.524429431045945" lon="9.657545008877268"><ele>746.6666666666666</ele><time>2026-05-01T15:51:23Z</time></trkpt><trkpt lat="44.524300495963516" lon="9.657414996152886"><ele>738.3333333333334</ele><time>2026-05-01T15:51:24Z</time></trkpt><trkpt lat="44.524169766699025" lon="9.657282293360426"><ele>730.0</ele><time>2026-05-01T15:51:25Z</time></trkpt><trkpt lat="44.52403978086921" lon="9.657148227782779"><ele>730.0</ele><time>2026-05-01T15:51:26Z</time></trkpt><trkpt lat="44.52391935029961" lon="9.657010758858055"><ele>730.0</ele><time>2026-05-01T15:51:27Z</time></trkpt><trkpt lat="44.523798820364554" lon="9.656885076126617"><ele>730.0</ele><time>2026-05-01T15:51:28Z</time></trkpt><trkpt lat="44.523696879886444" lon="9.656734258221425"><ele>728.75</ele><time>2026-05-01T15:51:29Z</time></trkpt><trkpt lat="44.52364091667731" lon="9.6565651906893"><ele>727.5</ele><time>2026-05-01T15:51:30Z</time></trkpt><trkpt lat="44.52360160056165" lon="9.656403287226894"><ele>726.25</ele><time>2026-05-01T15:51:31Z</time></trkpt><trkpt lat="44.523592421211056" lon="9.656221641013886"><ele>725.0</ele><time>2026-05-01T15:51:32Z</time></trkpt><trkpt lat="44.52357583929715" lon="9.656044701795127"><ele>725.0</ele><time>2026-05-01T15:51:33Z</time></trkpt><trkpt lat="44.52355806332244" lon="9.655873610297089"><ele>725.0</ele><time>2026-05-01T15:51:34Z</time></trkpt><trkpt lat="44.52351113664533" lon="9.655728356255999"><ele>725.0</ele><time>2026-05-01T15:51:35Z</time></trkpt><trkpt lat="44.52342793225182" lon="9.655617195978358"><ele>725.0</ele><time>2026-05-01T15:51:36Z</time></trkpt><trkpt lat="44.5233094257856" lon="9.655568381916211"><ele>725.0</ele><time>2026-05-01T15:51:37Z</time></trkpt><trkpt lat="44.52317340857318" lon="9.655563346094105"><ele>725.0</ele><time>2026-05-01T15:51:38Z</time></trkpt><trkpt lat="44.523015282433555" lon="9.65554575079296"><ele>725.0</ele><time>2026-05-01T15:51:39Z</time></trkpt><trkpt lat="44.522837541575136" lon="9.655508263565562"><ele>721.0</ele><time>2026-05-01T15:51:40Z</time></trkpt><trkpt lat="44.52266299993018" lon="9.655437173592857"><ele>717.0</ele><time>2026-05-01T15:51:41Z</time></trkpt><trkpt lat="44.52247931411846" lon="9.655383333575218"><ele>713.0</ele><time>2026-05-01T15:51:42Z</time></trkpt><trkpt lat="44.52231117169555" lon="9.655313443204188"><ele>712.0</ele><time>2026-05-01T15:51:43Z</time></trkpt><trkpt lat="44.52215425902259" lon="9.655252635664608"><ele>711.0</ele><time>2026-05-01T15:51:44Z</time></trkpt><trkpt lat="44.5220113733716" lon="9.655189262799352"><ele>710.0</ele><time>2026-05-01T15:51:45Z</time></trkpt><trkpt lat="44.52187969101539" lon="9.655116143853432"><ele>710.0</ele><time>2026-05-01T15:51:46Z</time></trkpt><trkpt lat="44.52176473663628" lon="9.655013782003758"><ele>710.0</ele><time>2026-05-01T15:51:47Z</time></trkpt><trkpt lat="44.52164999677923" lon="9.654886225538238"><ele>710.0</ele><time>2026-05-01T15:51:48Z</time></trkpt><trkpt lat="44.52154477177455" lon="9.654747467720046"><ele>710.0</ele><time>2026-05-01T15:51:49Z</time></trkpt><trkpt lat="44.52144452024599" lon="9.654619424394918"><ele>710.0</ele><time>2026-05-01T15:51:50Z</time></trkpt><trkpt lat="44.521358379530696" lon="9.654499998984631"><ele>710.0</ele><time>2026-05-01T15:51:51Z</time></trkpt><trkpt lat="44.52129179136097" lon="9.65436859622044"><ele>710.0</ele><time>2026-05-01T15:51:52Z</time></trkpt><trkpt lat="44.521240153209355" lon="9.654197332438967"><ele>710.0</ele><time>2026-05-01T15:51:53Z</time></trkpt><trkpt lat="44.52119146556651" lon="9.65398570213961"><ele>706.3333333333333</ele><time>2026-05-01T15:51:54Z</time></trkpt><trkpt lat="44.52113825756622" lon="9.653765542081763"><ele>702.6666666666666</ele><time>2026-05-01T15:51:55Z</time></trkpt><trkpt lat="44.52108258890715" lon="9.653555463707438"><ele>699.0</ele><time>2026-05-01T15:51:56Z</time></trkpt><trkpt lat="44.521032177055595" lon="9.653363201442362"><ele>699.0</ele><time>2026-05-01T15:51:57Z</time></trkpt><trkpt lat="44.52097958753896" lon="9.653176753694217"><ele>699.0</ele><time>2026-05-01T15:51:58Z</time></trkpt><trkpt lat="44.52092184467108" lon="9.65300204287011"><ele>699.0</ele><time>2026-05-01T15:51:59Z</time></trkpt><trkpt lat="44.52085295192071" lon="9.652836133115953"><ele>699.0</ele><time>2026-05-01T15:52:00Z</time></trkpt><trkpt lat="44.5207732085184" lon="9.652677526009375"><ele>700.75</ele><time>2026-05-01T15:52:01Z</time></trkpt><trkpt lat="44.52068671539342" lon="9.652515264840718"><ele>702.5</ele><time>2026-05-01T15:52:02Z</time></trkpt><trkpt lat="44.520595126334655" lon="9.652348107589923"><ele>704.25</ele><time>2026-05-01T15:52:03Z</time></trkpt><trkpt lat="44.520501245078535" lon="9.652190248689141"><ele>706.0</ele><time>2026-05-01T15:52:04Z</time></trkpt><trkpt lat="44.52039924277882" lon="9.652058999600236"><ele>701.0</ele><time>2026-05-01T15:52:05Z</time></trkpt><trkpt lat="44.52029889569777" lon="9.65194538129888"><ele>696.0</ele><time>2026-05-01T15:52:06Z</time></trkpt><trkpt lat="44.52020199113127" lon="9.651842230696815"><ele>691.0</ele><time>2026-05-01T15:52:07Z</time></trkpt><trkpt lat="44.52012347435212" lon="9.65173947246745"><ele>686.0</ele><time>2026-05-01T15:52:08Z</time></trkpt><trkpt lat="44.52007608262792" lon="9.651623465167688"><ele>686.0</ele><time>2026-05-01T15:52:09Z</time></trkpt><trkpt lat="44.52006737188073" lon="9.651485967911576"><ele>686.0</ele><time>2026-05-01T15:52:10Z</time></trkpt><trkpt lat="44.52011032706557" lon="9.651340286355051"><ele>686.0</ele><time>2026-05-01T15:52:11Z</time></trkpt><trkpt lat="44.520218569770186" lon="9.651234944801953"><ele>686.0</ele><time>2026-05-01T15:52:12Z</time></trkpt><trkpt lat="44.52031853548065" lon="9.65109708888362"><ele>689.5999999999999</ele><time>2026-05-01T15:52:13Z</time></trkpt><trkpt lat="44.52042536417276" lon="9.650998127227883"><ele>693.2</ele><time>2026-05-01T15:52:14Z</time></trkpt><trkpt lat="44.52049691123695" lon="9.650893535478962"><ele>696.8</ele><time>2026-05-01T15:52:15Z</time></trkpt><trkpt lat="44.52051600382205" lon="9.650767196977485"><ele>700.4000000000001</ele><time>2026-05-01T15:52:16Z</time></trkpt><trkpt lat="44.52048875217232" lon="9.650634475556188"><ele>704.0</ele><time>2026-05-01T15:52:17Z</time></trkpt><trkpt lat="44.52041515066699" lon="9.650537004836346"><ele>698.5</ele><time>2026-05-01T15:52:18Z</time></trkpt><trkpt lat="44.52031732403936" lon="9.650473182209808"><ele>693.0</ele><time>2026-05-01T15:52:19Z</time></trkpt><trkpt lat="44.520197562435804" lon="9.650439692443335"><ele>687.5</ele><time>2026-05-01T15:52:20Z</time></trkpt><trkpt lat="44.52005068111801" lon="9.6504252355218"><ele>682.0</ele><time>2026-05-01T15:52:21Z</time></trkpt><trkpt lat="44.51989915221711" lon="9.65037749347939"><ele>682.0</ele><time>2026-05-01T15:52:22Z</time></trkpt><trkpt lat="44.519748135027555" lon="9.650352464840347"><ele>682.0</ele><time>2026-05-01T15:52:23Z</time></trkpt><trkpt lat="44.51959324608862" lon="9.650351629179998"><ele>682.0</ele><time>2026-05-01T15:52:24Z</time></trkpt><trkpt lat="44.51945835231823" lon="9.650319966761577"><ele>682.0</ele><time>2026-05-01T15:52:25Z</time></trkpt><trkpt lat="44.519341803865686" lon="9.650280344916602"><ele>679.5</ele><time>2026-05-01T15:52:26Z</time></trkpt><trkpt lat="44.51925408976403" lon="9.650205305909903"><ele>677.0</ele><time>2026-05-01T15:52:27Z</time></trkpt><trkpt lat="44.5192277071912" lon="9.650051276167673"><ele>674.5</ele><time>2026-05-01T15:52:28Z</time></trkpt><trkpt lat="44.519182607608315" lon="9.649874180897378"><ele>672.0</ele><time>2026-05-01T15:52:29Z</time></trkpt><trkpt lat="44.51912719725043" lon="9.649678599030912"><ele>672.0</ele><time>2026-05-01T15:52:30Z</time></trkpt><trkpt lat="44.51912688333171" lon="9.649477228406127"><ele>672.0</ele><time>2026-05-01T15:52:31Z</time></trkpt><trkpt lat="44.519132301100235" lon="9.649271761036282"><ele>672.0</ele><time>2026-05-01T15:52:32Z</time></trkpt><trkpt lat="44.519141502657135" lon="9.649061987891463"><ele>672.0</ele><time>2026-05-01T15:52:33Z</time></trkpt><trkpt lat="44.51913465225936" lon="9.648860652813008"><ele>672.25</ele><time>2026-05-01T15:52:34Z</time></trkpt><trkpt lat="44.51911923741908" lon="9.64866666130783"><ele>672.5</ele><time>2026-05-01T15:52:35Z</time></trkpt><trkpt lat="44.51908149376057" lon="9.648466049269453"><ele>672.75</ele><time>2026-05-01T15:52:36Z</time></trkpt><trkpt lat="44.519044332335184" lon="9.648270430295694"><ele>673.0</ele><time>2026-05-01T15:52:37Z</time></trkpt><trkpt lat="44.519032116200414" lon="9.64807956224085"><ele>672.0</ele><time>2026-05-01T15:52:38Z</time></trkpt><trkpt lat="44.51900548440391" lon="9.647924119102681"><ele>671.0</ele><time>2026-05-01T15:52:39Z</time></trkpt><trkpt lat="44.518957104624825" lon="9.647788827509602"><ele>670.0</ele><time>2026-05-01T15:52:40Z</time></trkpt><trkpt lat="44.51885478764236" lon="9.647694922079477"><ele>669.0</ele><time>2026-05-01T15:52:41Z</time></trkpt><trkpt lat="44.51873834610606" lon="9.647639651491339"><ele>664.0</ele><time>2026-05-01T15:52:42Z</time></trkpt><trkpt lat="44.51859471282643" lon="9.64761507231723"><ele>659.0</ele><time>2026-05-01T15:52:43Z</time></trkpt><trkpt lat="44.51844763977971" lon="9.6475527540616"><ele>654.0</ele><time>2026-05-01T15:52:44Z</time></trkpt><trkpt lat="44.518297987951705" lon="9.647502252980052"><ele>654.0</ele><time>2026-05-01T15:52:45Z</time></trkpt><trkpt lat="44.51815081670999" lon="9.647445453370683"><ele>654.0</ele><time>2026-05-01T15:52:46Z</time></trkpt><trkpt lat="44.51800623705774" lon="9.647399510363899"><ele>654.0</ele><time>2026-05-01T15:52:47Z</time></trkpt><trkpt lat="44.51786418069604" lon="9.647345196067038"><ele>654.0</ele><time>2026-05-01T15:52:48Z</time></trkpt><trkpt lat="44.517730288737084" lon="9.647293109929924"><ele>652.0</ele><time>2026-05-01T15:52:49Z</time></trkpt><trkpt lat="44.517595164021735" lon="9.647237763869283"><ele>650.0</ele><time>2026-05-01T15:52:50Z</time></trkpt><trkpt lat="44.51745365619174" lon="9.64725145954324"><ele>648.0</ele><time>2026-05-01T15:52:51Z</time></trkpt><trkpt lat="44.51731784766798" lon="9.64725477664638"><ele>646.0</ele><time>2026-05-01T15:52:52Z</time></trkpt><trkpt lat="44.51719091723555" lon="9.647352957709243"><ele>646.0</ele><time>2026-05-01T15:52:53Z</time></trkpt><trkpt lat="44.51707247851102" lon="9.647447461427909"><ele>646.0</ele><time>2026-05-01T15:52:54Z</time></trkpt><trkpt lat="44.516960482640854" lon="9.647551458203752"><ele>646.0</ele><time>2026-05-01T15:52:55Z</time></trkpt><trkpt lat="44.51683503732422" lon="9.647613491013956"><ele>646.0</ele><time>2026-05-01T15:52:56Z</time></trkpt><trkpt lat="44.516715835176825" lon="9.64767680413984"><ele>644.75</ele><time>2026-05-01T15:52:57Z</time></trkpt><trkpt lat="44.516596185633006" lon="9.647700741560614"><ele>643.5</ele><time>2026-05-01T15:52:58Z</time></trkpt><trkpt lat="44.51647804297719" lon="9.647676676353448"><ele>642.25</ele><time>2026-05-01T15:52:59Z</time></trkpt><trkpt lat="44.51634545369203" lon="9.647628018154816"><ele>641.0</ele><time>2026-05-01T15:53:00Z</time></trkpt><trkpt lat="44.51621341550228" lon="9.647558270658271"><ele>637.25</ele><time>2026-05-01T15:53:01Z</time></trkpt><trkpt lat="44.51607376427422" lon="9.647514769706952"><ele>633.5</ele><time>2026-05-01T15:53:02Z</time></trkpt><trkpt lat="44.51593886297066" lon="9.64747269897354"><ele>629.75</ele><time>2026-05-01T15:53:03Z</time></trkpt><trkpt lat="44.51580113174352" lon="9.647451529128434"><ele>626.0</ele><time>2026-05-01T15:53:04Z</time></trkpt><trkpt lat="44.515666290519675" lon="9.647446255804855"><ele>626.0</ele><time>2026-05-01T15:53:05Z</time></trkpt><trkpt lat="44.515536481401305" lon="9.647433461241913"><ele>626.0</ele><time>2026-05-01T15:53:06Z</time></trkpt><trkpt lat="44.51540104863349" lon="9.647458830947452"><ele>626.0</ele><time>2026-05-01T15:53:07Z</time></trkpt><trkpt lat="44.515273601310646" lon="9.647489305494593"><ele>626.0</ele><time>2026-05-01T15:53:08Z</time></trkpt><trkpt lat="44.51515234979728" lon="9.647518298531532"><ele>624.2</ele><time>2026-05-01T15:53:09Z</time></trkpt><trkpt lat="44.515025747074745" lon="9.647560694855372"><ele>622.4000000000001</ele><time>2026-05-01T15:53:10Z</time></trkpt><trkpt lat="44.51491847854632" lon="9.647623389193656"><ele>620.6</ele><time>2026-05-01T15:53:11Z</time></trkpt><trkpt lat="44.51482160659899" lon="9.647655525477196"><ele>618.8000000000001</ele><time>2026-05-01T15:53:12Z</time></trkpt><trkpt lat="44.51473441056848" lon="9.647678374491125"><ele>617.0</ele><time>2026-05-01T15:53:13Z</time></trkpt><trkpt lat="44.51466614002975" lon="9.647672047449479"><ele>617.0</ele><time>2026-05-01T15:53:14Z</time></trkpt><trkpt lat="44.51459499721923" lon="9.647585656031568"><ele>617.0</ele><time>2026-05-01T15:53:16Z</time></trkpt><trkpt lat="44.514585896087894" lon="9.647447317676404"><ele>617.0</ele><time>2026-05-01T15:53:18Z</time></trkpt><trkpt lat="44.514586437931094" lon="9.647325028232258"><ele>617.0</ele><time>2026-05-01T15:53:20Z</time></trkpt><trkpt lat="44.51457801981766" lon="9.647195665081028"><ele>617.0</ele><time>2026-05-01T15:53:22Z</time></trkpt><trkpt lat="44.514575010403824" lon="9.647071062851541"><ele>618.0</ele><time>2026-05-01T15:53:24Z</time></trkpt><trkpt lat="44.51458485427804" lon="9.646952082694392"><ele>619.0</ele><time>2026-05-01T15:53:26Z</time></trkpt><trkpt lat="44.51457526928943" lon="9.64677239115551"><ele>620.0</ele><time>2026-05-01T15:53:28Z</time></trkpt><trkpt lat="44.514563866338705" lon="9.646604667021931"><ele>621.0</ele><time>2026-05-01T15:53:29Z</time></trkpt><trkpt lat="44.51455195590915" lon="9.646379707420552"><ele>617.75</ele><time>2026-05-01T15:53:30Z</time></trkpt><trkpt lat="44.51454728734292" lon="9.646156873962523"><ele>614.5</ele><time>2026-05-01T15:53:31Z</time></trkpt><trkpt lat="44.51454820404323" lon="9.645952615074762"><ele>611.25</ele><time>2026-05-01T15:53:32Z</time></trkpt><trkpt lat="44.514553615596526" lon="9.645763605739631"><ele>608.0</ele><time>2026-05-01T15:53:33Z</time></trkpt><trkpt lat="44.51456926685625" lon="9.645588481345996"><ele>607.6666666666666</ele><time>2026-05-01T15:53:34Z</time></trkpt><trkpt lat="44.51460799820024" lon="9.645414466765233"><ele>607.3333333333334</ele><time>2026-05-01T15:53:35Z</time></trkpt><trkpt lat="44.51468033324148" lon="9.64521119348856"><ele>607.0</ele><time>2026-05-01T15:53:36Z</time></trkpt><trkpt lat="44.51475571934209" lon="9.64499376397275"><ele>607.0</ele><time>2026-05-01T15:53:37Z</time></trkpt><trkpt lat="44.51482609827456" lon="9.644789462596409"><ele>607.0</ele><time>2026-05-01T15:53:38Z</time></trkpt><trkpt lat="44.51488891421347" lon="9.644605584933483"><ele>607.0</ele><time>2026-05-01T15:53:39Z</time></trkpt><trkpt lat="44.514950199237305" lon="9.644424195592102"><ele>605.0</ele><time>2026-05-01T15:53:40Z</time></trkpt><trkpt lat="44.51500867124523" lon="9.644261662298796"><ele>603.0</ele><time>2026-05-01T15:53:41Z</time></trkpt><trkpt lat="44.51505867475039" lon="9.644113403370431"><ele>601.0</ele><time>2026-05-01T15:53:42Z</time></trkpt><trkpt lat="44.51508814198965" lon="9.643989175662844"><ele>599.0</ele><time>2026-05-01T15:53:43Z</time></trkpt><trkpt lat="44.515077859809736" lon="9.643891125817479"><ele>597.0</ele><time>2026-05-01T15:53:44Z</time></trkpt><trkpt lat="44.515030561119694" lon="9.643812811548223"><ele>597.0</ele><time>2026-05-01T15:53:45Z</time></trkpt><trkpt lat="44.514951553245254" lon="9.643761914930387"><ele>597.0</ele><time>2026-05-01T15:53:46Z</time></trkpt><trkpt lat="44.5148690992892" lon="9.643760325766515"><ele>597.0</ele><time>2026-05-01T15:53:47Z</time></trkpt><trkpt lat="44.51478342966206" lon="9.643795989277313"><ele>597.0</ele><time>2026-05-01T15:53:48Z</time></trkpt><trkpt lat="44.514687625108905" lon="9.643881781676493"><ele>597.0</ele><time>2026-05-01T15:53:49Z</time></trkpt><trkpt lat="44.51458503226544" lon="9.644008158266086"><ele>594.25</ele><time>2026-05-01T15:53:50Z</time></trkpt><trkpt lat="44.51448444996013" lon="9.6441309714903"><ele>591.5</ele><time>2026-05-01T15:53:51Z</time></trkpt><trkpt lat="44.51438528633777" lon="9.644239059944727"><ele>588.75</ele><time>2026-05-01T15:53:52Z</time></trkpt><trkpt lat="44.51428176090702" lon="9.644327743375978"><ele>586.0</ele><time>2026-05-01T15:53:53Z</time></trkpt><trkpt lat="44.514171911682375" lon="9.644345854670318"><ele>586.0</ele><time>2026-05-01T15:53:54Z</time></trkpt><trkpt lat="44.51406637444759" lon="9.644346670204651"><ele>586.0</ele><time>2026-05-01T15:53:55Z</time></trkpt><trkpt lat="44.513949801804905" lon="9.644285180200075"><ele>586.0</ele><time>2026-05-01T15:53:56Z</time></trkpt><trkpt lat="44.513837137487926" lon="9.644223638124688"><ele>586.0</ele><time>2026-05-01T15:53:57Z</time></trkpt><trkpt lat="44.51374619099958" lon="9.644135204401362"><ele>585.5</ele><time>2026-05-01T15:53:58Z</time></trkpt><trkpt lat="44.513684466051764" lon="9.644009036320412"><ele>585.0</ele><time>2026-05-01T15:53:59Z</time></trkpt><trkpt lat="44.51366901583093" lon="9.643832353292655"><ele>584.5</ele><time>2026-05-01T15:54:00Z</time></trkpt><trkpt lat="44.51364375246213" lon="9.64366851242316"><ele>584.0</ele><time>2026-05-01T15:54:01Z</time></trkpt><trkpt lat="44.51361792395234" lon="9.64352878185655"><ele>582.0</ele><time>2026-05-01T15:54:02Z</time></trkpt><trkpt lat="44.51357811184004" lon="9.643409363795678"><ele>580.0</ele><time>2026-05-01T15:54:03Z</time></trkpt><trkpt lat="44.51347684756834" lon="9.643364344116167"><ele>578.0</ele><time>2026-05-01T15:54:04Z</time></trkpt><trkpt lat="44.513374049043726" lon="9.643316357158467"><ele>576.0</ele><time>2026-05-01T15:54:05Z</time></trkpt><trkpt lat="44.51326102736231" lon="9.643291744645373"><ele>574.0</ele><time>2026-05-01T15:54:06Z</time></trkpt><trkpt lat="44.513145781973115" lon="9.64328105264147"><ele>574.0</ele><time>2026-05-01T15:54:07Z</time></trkpt><trkpt lat="44.5130525966788" lon="9.643178527152688"><ele>574.0</ele><time>2026-05-01T15:54:08Z</time></trkpt><trkpt lat="44.51295862879589" lon="9.64308756221558"><ele>574.0</ele><time>2026-05-01T15:54:09Z</time></trkpt><trkpt lat="44.51286542702517" lon="9.642997745236235"><ele>574.0</ele><time>2026-05-01T15:54:10Z</time></trkpt><trkpt lat="44.51275123431888" lon="9.642949500116012"><ele>573.0</ele><time>2026-05-01T15:54:11Z</time></trkpt><trkpt lat="44.512640805686225" lon="9.642943989761461"><ele>572.0</ele><time>2026-05-01T15:54:12Z</time></trkpt><trkpt lat="44.51255470994926" lon="9.642938624027355"><ele>571.0</ele><time>2026-05-01T15:54:13Z</time></trkpt><trkpt lat="44.512492148454186" lon="9.642897498072246"><ele>570.0</ele><time>2026-05-01T15:54:14Z</time></trkpt><trkpt lat="44.5124482844633" lon="9.642822813106026"><ele>569.0</ele><time>2026-05-01T15:54:15Z</time></trkpt><trkpt lat="44.512430208615655" lon="9.642733676110737"><ele>568.0</ele><time>2026-05-01T15:54:16Z</time></trkpt><trkpt lat="44.51245536828269" lon="9.642640646317433"><ele>567.1999999999999</ele><time>2026-05-01T15:54:17Z</time></trkpt><trkpt lat="44.512522174503125" lon="9.642573773001372"><ele>566.4</ele><time>2026-05-01T15:54:18Z</time></trkpt><trkpt lat="44.512634796371735" lon="9.642522995010046"><ele>565.5999999999999</ele><time>2026-05-01T15:54:19Z</time></trkpt><trkpt lat="44.51274841183944" lon="9.642479522487724"><ele>564.8</ele><time>2026-05-01T15:54:20Z</time></trkpt><trkpt lat="44.51286346795703" lon="9.642433008937907"><ele>564.0</ele><time>2026-05-01T15:54:21Z</time></trkpt><trkpt lat="44.512973504069535" lon="9.642392830675337"><ele>564.0</ele><time>2026-05-01T15:54:22Z</time></trkpt><trkpt lat="44.513073253521085" lon="9.642323414531228"><ele>564.0</ele><time>2026-05-01T15:54:23Z</time></trkpt><trkpt lat="44.513143652472785" lon="9.642204420499334"><ele>564.0</ele><time>2026-05-01T15:54:24Z</time></trkpt><trkpt lat="44.51317269513731" lon="9.642048565081023"><ele>564.0</ele><time>2026-05-01T15:54:25Z</time></trkpt><trkpt lat="44.51316954737022" lon="9.641869439277848"><ele>562.5</ele><time>2026-05-01T15:54:26Z</time></trkpt><trkpt lat="44.51316912006295" lon="9.641678085455357"><ele>561.0</ele><time>2026-05-01T15:54:27Z</time></trkpt><trkpt lat="44.51316952886173" lon="9.641495185454072"><ele>559.5</ele><time>2026-05-01T15:54:28Z</time></trkpt><trkpt lat="44.513180128069884" lon="9.641316620383424"><ele>558.0</ele><time>2026-05-01T15:54:29Z</time></trkpt><trkpt lat="44.51321236078149" lon="9.641122508533172"><ele>555.3333333333334</ele><time>2026-05-01T15:54:30Z</time></trkpt><trkpt lat="44.51326734123179" lon="9.640910430150502"><ele>552.6666666666667</ele><time>2026-05-01T15:54:31Z</time></trkpt><trkpt lat="44.51333089648425" lon="9.64070840189376"><ele>550.0</ele><time>2026-05-01T15:54:32Z</time></trkpt><trkpt lat="44.51340642569519" lon="9.640528689209216"><ele>550.0</ele><time>2026-05-01T15:54:33Z</time></trkpt><trkpt lat="44.51348429992861" lon="9.64035716313227"><ele>550.0</ele><time>2026-05-01T15:54:34Z</time></trkpt><trkpt lat="44.51352533388582" lon="9.640170311838508"><ele>550.0</ele><time>2026-05-01T15:54:35Z</time></trkpt><trkpt lat="44.51352727943888" lon="9.639975927172516"><ele>550.0</ele><time>2026-05-01T15:54:36Z</time></trkpt><trkpt lat="44.51348795706361" lon="9.639735560181043"><ele>550.5</ele><time>2026-05-01T15:54:37Z</time></trkpt><trkpt lat="44.51341247805913" lon="9.63953623233156"><ele>551.0</ele><time>2026-05-01T15:54:38Z</time></trkpt><trkpt lat="44.51334265756614" lon="9.639369992625651"><ele>551.5</ele><time>2026-05-01T15:54:39Z</time></trkpt><trkpt lat="44.51328219848426" lon="9.639232801131415"><ele>552.0</ele><time>2026-05-01T15:54:40Z</time></trkpt><trkpt lat="44.51320613706308" lon="9.639153268117129"><ele>552.0</ele><time>2026-05-01T15:54:41Z</time></trkpt><trkpt lat="44.51310780775401" lon="9.639113580933573"><ele>552.0</ele><time>2026-05-01T15:54:42Z</time></trkpt><trkpt lat="44.51296656763582" lon="9.63914887819116"><ele>552.0</ele><time>2026-05-01T15:54:43Z</time></trkpt><trkpt lat="44.51280611711627" lon="9.639166305309727"><ele>552.0</ele><time>2026-05-01T15:54:44Z</time></trkpt><trkpt lat="44.51260084492345" lon="9.639200183690921"><ele>552.3333333333334</ele><time>2026-05-01T15:54:45Z</time></trkpt><trkpt lat="44.51239830453915" lon="9.639216892204093"><ele>552.6666666666667</ele><time>2026-05-01T15:54:46Z</time></trkpt><trkpt lat="44.5122164729192" lon="9.63924625791197"><ele>553.0</ele><time>2026-05-01T15:54:47Z</time></trkpt><trkpt lat="44.51205076094779" lon="9.639322166646421"><ele>552.0</ele><time>2026-05-01T15:54:48Z</time></trkpt><trkpt lat="44.51190209552754" lon="9.639413778791234"><ele>551.0</ele><time>2026-05-01T15:54:49Z</time></trkpt><trkpt lat="44.5117523870113" lon="9.639443737803601"><ele>550.0</ele><time>2026-05-01T15:54:50Z</time></trkpt><trkpt lat="44.511618532465576" lon="9.639426467227683"><ele>549.0</ele><time>2026-05-01T15:54:51Z</time></trkpt><trkpt lat="44.511447593347754" lon="9.639379663968166"><ele>548.6666666666666</ele><time>2026-05-01T15:54:52Z</time></trkpt><trkpt lat="44.51122242023562" lon="9.639324212468857"><ele>548.3333333333333</ele><time>2026-05-01T15:54:53Z</time></trkpt><trkpt lat="44.51101650082066" lon="9.639284318871216"><ele>548.0</ele><time>2026-05-01T15:54:54Z</time></trkpt><trkpt lat="44.51080792672857" lon="9.639266323432674"><ele>548.0</ele><time>2026-05-01T15:54:55Z</time></trkpt><trkpt lat="44.510625886376296" lon="9.639231383573389"><ele>548.0</ele><time>2026-05-01T15:54:56Z</time></trkpt><trkpt lat="44.510466997783986" lon="9.639173566976584"><ele>548.0</ele><time>2026-05-01T15:54:57Z</time></trkpt><trkpt lat="44.510328664494736" lon="9.639130438588614"><ele>548.1999999999999</ele><time>2026-05-01T15:54:58Z</time></trkpt><trkpt lat="44.510210967036606" lon="9.639090712778787"><ele>548.4</ele><time>2026-05-01T15:54:59Z</time></trkpt><trkpt lat="44.51011936510843" lon="9.63904219575952"><ele>548.5999999999999</ele><time>2026-05-01T15:55:00Z</time></trkpt><trkpt lat="44.5100560621516" lon="9.63898502581805"><ele>548.8</ele><time>2026-05-01T15:55:01Z</time></trkpt><trkpt lat="44.51003504873514" lon="9.63889241904654"><ele>549.0</ele><time>2026-05-01T15:55:02Z</time></trkpt><trkpt lat="44.510008682864054" lon="9.638772998620375"><ele>549.8333333333334</ele><time>2026-05-01T15:55:03Z</time></trkpt><trkpt lat="44.50998985741205" lon="9.63862829152749"><ele>550.6666666666666</ele><time>2026-05-01T15:55:04Z</time></trkpt><trkpt lat="44.5099717386928" lon="9.638494017194413"><ele>551.5</ele><time>2026-05-01T15:55:05Z</time></trkpt><trkpt lat="44.509966226254186" lon="9.63839021962003"><ele>552.3333333333333</ele><time>2026-05-01T15:55:06Z</time></trkpt><trkpt lat="44.50994536266516" lon="9.638290331129825"><ele>553.1666666666666</ele><time>2026-05-01T15:55:07Z</time></trkpt><trkpt lat="44.50994004838278" lon="9.638195004676016"><ele>554.0</ele><time>2026-05-01T15:55:08Z</time></trkpt><trkpt lat="44.50993340920964" lon="9.63810081097403"><ele>554.0</ele><time>2026-05-01T15:55:09Z</time></trkpt><trkpt lat="44.50992628510807" lon="9.63794894298551"><ele>554.0</ele><time>2026-05-01T15:55:11Z</time></trkpt><trkpt lat="44.50992067734494" lon="9.637806938953373"><ele>554.0</ele><time>2026-05-01T15:55:13Z</time></trkpt><trkpt lat="44.5099076217164" lon="9.637684685554698"><ele>554.0</ele><time>2026-05-01T15:55:15Z</time></trkpt><trkpt lat="44.50983539224954" lon="9.637719296878908"><ele>554.0</ele><time>2026-05-01T15:55:19Z</time></trkpt><trkpt lat="44.50976735521948" lon="9.637830442719006"><ele>554.0</ele><time>2026-05-01T15:55:20Z</time></trkpt><trkpt lat="44.50972306366348" lon="9.637990472677457"><ele>554.0</ele><time>2026-05-01T15:55:22Z</time></trkpt><trkpt lat="44.5097001113828" lon="9.638092967520818"><ele>554.0</ele><time>2026-05-01T15:55:23Z</time></trkpt><trkpt lat="44.509682948444585" lon="9.638190824265296"><ele>554.0</ele><time>2026-05-01T15:55:24Z</time></trkpt><trkpt lat="44.5096652027772" lon="9.638292007392383"><ele>554.0</ele><time>2026-05-01T15:55:25Z</time></trkpt><trkpt lat="44.50962138330982" lon="9.638531410227788"><ele>554.0</ele><time>2026-05-01T15:55:26Z</time></trkpt><trkpt lat="44.50995287356343" lon="9.638567291944625"><ele>554.0</ele><time>2026-05-01T15:55:27Z</time></trkpt><trkpt lat="44.5100582573481" lon="9.638615090659693"><ele>554.0</ele><time>2026-05-01T15:55:29Z</time></trkpt><trkpt lat="44.51014815215197" lon="9.638606558302202"><ele>554.0</ele><time>2026-05-01T15:55:30Z</time></trkpt><trkpt lat="44.51025930888286" lon="9.638591943609475"><ele>554.0</ele><time>2026-05-01T15:55:31Z</time></trkpt><trkpt lat="44.510388866831896" lon="9.63858556674858"><ele>554.0</ele><time>2026-05-01T15:55:32Z</time></trkpt><trkpt lat="44.51052407363047" lon="9.638578640736048"><ele>554.0</ele><time>2026-05-01T15:55:33Z</time></trkpt><trkpt lat="44.51064835247999" lon="9.638559838452128"><ele>555.6666666666666</ele><time>2026-05-01T15:55:34Z</time></trkpt><trkpt lat="44.510778196888076" lon="9.638484013345476"><ele>557.3333333333334</ele><time>2026-05-01T15:55:35Z</time></trkpt><trkpt lat="44.510937963710646" lon="9.638396570840118"><ele>559.0</ele><time>2026-05-01T15:55:36Z</time></trkpt><trkpt lat="44.511095064830286" lon="9.63828091647163"><ele>558.6666666666667</ele><time>2026-05-01T15:55:37Z</time></trkpt><trkpt lat="44.51124933583178" lon="9.638166753917233"><ele>558.3333333333334</ele><time>2026-05-01T15:55:38Z</time></trkpt><trkpt lat="44.51139454267487" lon="9.638054413557272"><ele>558.0</ele><time>2026-05-01T15:55:39Z</time></trkpt><trkpt lat="44.51153629016257" lon="9.637949062516029"><ele>558.0</ele><time>2026-05-01T15:55:40Z</time></trkpt><trkpt lat="44.51166582378173" lon="9.637858021153143"><ele>558.0</ele><time>2026-05-01T15:55:41Z</time></trkpt><trkpt lat="44.511788277685284" lon="9.637775352263631"><ele>558.0</ele><time>2026-05-01T15:55:42Z</time></trkpt><trkpt lat="44.51191560220647" lon="9.637699327029702"><ele>558.0</ele><time>2026-05-01T15:55:43Z</time></trkpt><trkpt lat="44.51205090289594" lon="9.637627052243921"><ele>560.25</ele><time>2026-05-01T15:55:44Z</time></trkpt><trkpt lat="44.51217435060438" lon="9.63756869172391"><ele>562.5</ele><time>2026-05-01T15:55:45Z</time></trkpt><trkpt lat="44.51228534356908" lon="9.637520007317075"><ele>564.75</ele><time>2026-05-01T15:55:46Z</time></trkpt><trkpt lat="44.512388569888145" lon="9.637444834085775"><ele>567.0</ele><time>2026-05-01T15:55:47Z</time></trkpt><trkpt lat="44.51246653228232" lon="9.637310473901987"><ele>567.0</ele><time>2026-05-01T15:55:48Z</time></trkpt><trkpt lat="44.51256620681594" lon="9.63719152673644"><ele>567.0</ele><time>2026-05-01T15:55:49Z</time></trkpt><trkpt lat="44.512661152447116" lon="9.637090346507389"><ele>567.0</ele><time>2026-05-01T15:55:50Z</time></trkpt><trkpt lat="44.512743025467344" lon="9.637004234501712"><ele>567.0</ele><time>2026-05-01T15:55:51Z</time></trkpt><trkpt lat="44.512791060339964" lon="9.636917168283041"><ele>567.0</ele><time>2026-05-01T15:55:52Z</time></trkpt><trkpt lat="44.51285560754349" lon="9.636808343203628"><ele>567.5</ele><time>2026-05-01T15:55:54Z</time></trkpt><trkpt lat="44.51288866714069" lon="9.636721533190252"><ele>568.0</ele><time>2026-05-01T15:55:56Z</time></trkpt><trkpt lat="44.51281558377181" lon="9.636442851102148"><ele>568.5</ele><time>2026-05-01T15:55:59Z</time></trkpt><trkpt lat="44.51283160666299" lon="9.636314496567831"><ele>569.0</ele><time>2026-05-01T15:56:00Z</time></trkpt><trkpt lat="44.51286220447429" lon="9.63617965819456"><ele>569.0</ele><time>2026-05-01T15:56:01Z</time></trkpt><trkpt lat="44.51287595036185" lon="9.636048740339126"><ele>569.0</ele><time>2026-05-01T15:56:02Z</time></trkpt><trkpt lat="44.51290085023608" lon="9.635931136514934"><ele>569.0</ele><time>2026-05-01T15:56:03Z</time></trkpt><trkpt lat="44.512910961046174" lon="9.635830419851374"><ele>569.0</ele><time>2026-05-01T15:56:04Z</time></trkpt><trkpt lat="44.51291573678181" lon="9.635735598292111"><ele>569.0</ele><time>2026-05-01T15:56:05Z</time></trkpt><trkpt lat="44.51291693310071" lon="9.635643156168756"><ele>569.0</ele><time>2026-05-01T15:56:06Z</time></trkpt><trkpt lat="44.51290265283757" lon="9.63554141209319"><ele>569.0</ele><time>2026-05-01T15:56:07Z</time></trkpt><trkpt lat="44.51288645251964" lon="9.63542681669731"><ele>569.0</ele><time>2026-05-01T15:56:08Z</time></trkpt><trkpt lat="44.512879349069856" lon="9.635293587472995"><ele>569.0</ele><time>2026-05-01T15:56:09Z</time></trkpt><trkpt lat="44.51287528601824" lon="9.635152932421649"><ele>569.0</ele><time>2026-05-01T15:56:10Z</time></trkpt><trkpt lat="44.51287831803221" lon="9.635011911507652"><ele>569.0</ele><time>2026-05-01T15:56:11Z</time></trkpt><trkpt lat="44.51287750030321" lon="9.634884875112988"><ele>568.8</ele><time>2026-05-01T15:56:12Z</time></trkpt><trkpt lat="44.512884438083205" lon="9.634769740309892"><ele>568.5999999999999</ele><time>2026-05-01T15:56:13Z</time></trkpt><trkpt lat="44.51289407373797" lon="9.634667769628084"><ele>568.4</ele><time>2026-05-01T15:56:14Z</time></trkpt><trkpt lat="44.51291479472944" lon="9.634523830084767"><ele>568.1999999999999</ele><time>2026-05-01T15:56:16Z</time></trkpt><trkpt lat="44.51295414127884" lon="9.63443075040525"><ele>568.0</ele><time>2026-05-01T15:56:20Z</time></trkpt><trkpt lat="44.512886190826094" lon="9.634296635529216"><ele>567.6666666666667</ele><time>2026-05-01T15:56:22Z</time></trkpt><trkpt lat="44.51282725305441" lon="9.634216790924008"><ele>567.3333333333334</ele><time>2026-05-01T15:56:23Z</time></trkpt><trkpt lat="44.51276601453295" lon="9.63413564184992"><ele>567.0</ele><time>2026-05-01T15:56:24Z</time></trkpt><trkpt lat="44.51270237005539" lon="9.634048865981569"><ele>566.6666666666666</ele><time>2026-05-01T15:56:25Z</time></trkpt><trkpt lat="44.51263929718294" lon="9.633953287964612"><ele>566.3333333333333</ele><time>2026-05-01T15:56:26Z</time></trkpt><trkpt lat="44.51256653577461" lon="9.633870177454778"><ele>566.0</ele><time>2026-05-01T15:56:27Z</time></trkpt><trkpt lat="44.51247475491044" lon="9.633837871847248"><ele>566.0</ele><time>2026-05-01T15:56:28Z</time></trkpt><trkpt lat="44.51238148622398" lon="9.633863936795766"><ele>566.0</ele><time>2026-05-01T15:56:29Z</time></trkpt><trkpt lat="44.512301347684584" lon="9.63392865337367"><ele>566.0</ele><time>2026-05-01T15:56:30Z</time></trkpt><trkpt lat="44.51222234400682" lon="9.633943973807135"><ele>566.0</ele><time>2026-05-01T15:56:31Z</time></trkpt><trkpt lat="44.51215371124043" lon="9.633982568546566"><ele>566.0</ele><time>2026-05-01T15:56:33Z</time></trkpt><trkpt lat="44.51223340472404" lon="9.633905915771287"><ele>566.0</ele><time>2026-05-01T15:56:37Z</time></trkpt><trkpt lat="44.51234618514577" lon="9.633822438394422"><ele>566.0</ele><time>2026-05-01T15:56:39Z</time></trkpt><trkpt lat="44.512414700316896" lon="9.633782684643863"><ele>566.0</ele><time>2026-05-01T15:56:40Z</time></trkpt><trkpt lat="44.512491027399676" lon="9.633737617701371"><ele>566.0</ele><time>2026-05-01T15:56:41Z</time></trkpt><trkpt lat="44.51257444864502" lon="9.63369087640865"><ele>566.0</ele><time>2026-05-01T15:56:42Z</time></trkpt><trkpt lat="44.51265776150684" lon="9.633633306437117"><ele>566.0</ele><time>2026-05-01T15:56:43Z</time></trkpt><trkpt lat="44.51273497282796" lon="9.633575091747115"><ele>566.0</ele><time>2026-05-01T15:56:44Z</time></trkpt><trkpt lat="44.51281098308697" lon="9.633515906785592"><ele>565.3333333333333</ele><time>2026-05-01T15:56:45Z</time></trkpt><trkpt lat="44.51288530679823" lon="9.633457582886011"><ele>564.6666666666666</ele><time>2026-05-01T15:56:46Z</time></trkpt><trkpt lat="44.51295205392941" lon="9.633393795296957"><ele>564.0</ele><time>2026-05-01T15:56:47Z</time></trkpt><trkpt lat="44.5130188248841" lon="9.633329030283504"><ele>563.3333333333334</ele><time>2026-05-01T15:56:48Z</time></trkpt><trkpt lat="44.513109073476805" lon="9.633285979052546"><ele>562.6666666666667</ele><time>2026-05-01T15:56:49Z</time></trkpt><trkpt lat="44.51320835469491" lon="9.63325148784084"><ele>562.0</ele><time>2026-05-01T15:56:50Z</time></trkpt><trkpt lat="44.51330993049296" lon="9.633206671699895"><ele>562.0</ele><time>2026-05-01T15:56:51Z</time></trkpt><trkpt lat="44.51340464697746" lon="9.633184828130652"><ele>562.0</ele><time>2026-05-01T15:56:52Z</time></trkpt><trkpt lat="44.51348208116895" lon="9.63314551812274"><ele>562.0</ele><time>2026-05-01T15:56:53Z</time></trkpt><trkpt lat="44.51355050843184" lon="9.633105177619726"><ele>562.0</ele><time>2026-05-01T15:56:54Z</time></trkpt><trkpt lat="44.51357454853627" lon="9.632982889400093"><ele>562.0</ele><time>2026-05-01T15:56:55Z</time></trkpt><trkpt lat="44.513549281786894" lon="9.632844050296349"><ele>562.0</ele><time>2026-05-01T15:56:56Z</time></trkpt><trkpt lat="44.51352343436684" lon="9.632697876067228"><ele>561.8000000000001</ele><time>2026-05-01T15:56:57Z</time></trkpt><trkpt lat="44.51348947318229" lon="9.632543354885406"><ele>561.6</ele><time>2026-05-01T15:56:58Z</time></trkpt><trkpt lat="44.51347658393973" lon="9.632381180126862"><ele>561.4000000000001</ele><time>2026-05-01T15:56:59Z</time></trkpt><trkpt lat="44.513462507696545" lon="9.632259628493335"><ele>561.2</ele><time>2026-05-01T15:57:00Z</time></trkpt><trkpt lat="44.51345420892276" lon="9.632136711842474"><ele>561.0</ele><time>2026-05-01T15:57:02Z</time></trkpt><trkpt lat="44.513460868262214" lon="9.632013269881908"><ele>561.4</ele><time>2026-05-01T15:57:05Z</time></trkpt><trkpt lat="44.51346760391727" lon="9.631870094016195"><ele>561.8</ele><time>2026-05-01T15:57:07Z</time></trkpt><trkpt lat="44.51350921886944" lon="9.631756484469562"><ele>562.1999999999999</ele><time>2026-05-01T15:57:08Z</time></trkpt><trkpt lat="44.513546990333815" lon="9.631620694522438"><ele>562.6</ele><time>2026-05-01T15:57:09Z</time></trkpt><trkpt lat="44.51361741361037" lon="9.631456501118478"><ele>563.0</ele><time>2026-05-01T15:57:10Z</time></trkpt><trkpt lat="44.513697711324255" lon="9.631333558811212"><ele>564.4</ele><time>2026-05-01T15:57:11Z</time></trkpt><trkpt lat="44.51377064414166" lon="9.631230052966782"><ele>565.8</ele><time>2026-05-01T15:57:12Z</time></trkpt><trkpt lat="44.51382125444012" lon="9.631125530903494"><ele>567.2</ele><time>2026-05-01T15:57:13Z</time></trkpt><trkpt lat="44.51387868010631" lon="9.63102054186991"><ele>568.6</ele><time>2026-05-01T15:57:14Z</time></trkpt><trkpt lat="44.513930954681285" lon="9.630918871427927"><ele>570.0</ele><time>2026-05-01T15:57:15Z</time></trkpt><trkpt lat="44.51398264533805" lon="9.630826466472502"><ele>570.0</ele><time>2026-05-01T15:57:16Z</time></trkpt><trkpt lat="44.51404093217183" lon="9.630727599447425"><ele>570.0</ele><time>2026-05-01T15:57:17Z</time></trkpt><trkpt lat="44.5141135947846" lon="9.63065325575806"><ele>570.0</ele><time>2026-05-01T15:57:18Z</time></trkpt><trkpt lat="44.514203914932395" lon="9.630603792182587"><ele>570.0</ele><time>2026-05-01T15:57:19Z</time></trkpt><trkpt lat="44.51430043384877" lon="9.63058460705274"><ele>570.0</ele><time>2026-05-01T15:57:20Z</time></trkpt><trkpt lat="44.514396654513604" lon="9.630581362539033"><ele>570.0</ele><time>2026-05-01T15:57:21Z</time></trkpt><trkpt lat="44.514489310012515" lon="9.63059695125627"><ele>570.0</ele><time>2026-05-01T15:57:22Z</time></trkpt><trkpt lat="44.51457279200212" lon="9.630647364698717"><ele>570.0</ele><time>2026-05-01T15:57:23Z</time></trkpt><trkpt lat="44.51465974178109" lon="9.630662008030193"><ele>570.0</ele><time>2026-05-01T15:57:24Z</time></trkpt><trkpt lat="44.514738246456346" lon="9.630699907664168"><ele>570.0</ele><time>2026-05-01T15:57:25Z</time></trkpt><trkpt lat="44.51482268261523" lon="9.630708884190076"><ele>570.0</ele><time>2026-05-01T15:57:26Z</time></trkpt><trkpt lat="44.51490403443188" lon="9.63070956568844"><ele>570.0</ele><time>2026-05-01T15:57:27Z</time></trkpt><trkpt lat="44.51497046304948" lon="9.630613457514373"><ele>570.0</ele><time>2026-05-01T15:57:28Z</time></trkpt><trkpt lat="44.51503797954257" lon="9.630542722631434"><ele>570.0</ele><time>2026-05-01T15:57:29Z</time></trkpt><trkpt lat="44.515103796314165" lon="9.630459822204417"><ele>570.0</ele><time>2026-05-01T15:57:30Z</time></trkpt><trkpt lat="44.51518680149245" lon="9.630384126905055"><ele>570.0</ele><time>2026-05-01T15:57:31Z</time></trkpt><trkpt lat="44.5152493354294" lon="9.630265395020498"><ele>569.0</ele><time>2026-05-01T15:57:32Z</time></trkpt><trkpt lat="44.515326090107436" lon="9.630156655067738"><ele>568.0</ele><time>2026-05-01T15:57:33Z</time></trkpt><trkpt lat="44.5154097681438" lon="9.630050033576008"><ele>567.0</ele><time>2026-05-01T15:57:34Z</time></trkpt><trkpt lat="44.51549631045072" lon="9.629943991680696"><ele>566.0</ele><time>2026-05-01T15:57:35Z</time></trkpt><trkpt lat="44.51558250938463" lon="9.629843343290242"><ele>565.0</ele><time>2026-05-01T15:57:36Z</time></trkpt><trkpt lat="44.51566320437026" lon="9.629748185649476"><ele>566.1666666666667</ele><time>2026-05-01T15:57:37Z</time></trkpt><trkpt lat="44.515735057442576" lon="9.62965131736364"><ele>567.3333333333334</ele><time>2026-05-01T15:57:38Z</time></trkpt><trkpt lat="44.51579764591688" lon="9.629564563203477"><ele>568.5</ele><time>2026-05-01T15:57:39Z</time></trkpt><trkpt lat="44.51585416881332" lon="9.629491350673893"><ele>569.6666666666666</ele><time>2026-05-01T15:57:40Z</time></trkpt><trkpt lat="44.51586264683785" lon="9.629377801581745"><ele>570.8333333333333</ele><time>2026-05-01T15:57:41Z</time></trkpt><trkpt lat="44.51582914478158" lon="9.629270108320712"><ele>572.0</ele><time>2026-05-01T15:57:42Z</time></trkpt><trkpt lat="44.515734572936964" lon="9.629195979273067"><ele>572.0</ele><time>2026-05-01T15:57:43Z</time></trkpt><trkpt lat="44.515640353433376" lon="9.629099161214686"><ele>572.0</ele><time>2026-05-01T15:57:44Z</time></trkpt><trkpt lat="44.51556041693385" lon="9.628993730095873"><ele>572.0</ele><time>2026-05-01T15:57:45Z</time></trkpt><trkpt lat="44.51550595535009" lon="9.62882368311639"><ele>572.0</ele><time>2026-05-01T15:57:46Z</time></trkpt><trkpt lat="44.51542532194083" lon="9.628642733821282"><ele>571.0</ele><time>2026-05-01T15:57:47Z</time></trkpt><trkpt lat="44.51535693403748" lon="9.628481282099678"><ele>570.0</ele><time>2026-05-01T15:57:48Z</time></trkpt><trkpt lat="44.51529240354746" lon="9.62833692434582"><ele>569.0</ele><time>2026-05-01T15:57:49Z</time></trkpt><trkpt lat="44.515186912927554" lon="9.628241619401674"><ele>568.0</ele><time>2026-05-01T15:57:50Z</time></trkpt><trkpt lat="44.51508795655446" lon="9.628196300532341"><ele>568.0</ele><time>2026-05-01T15:57:51Z</time></trkpt><trkpt lat="44.51503364844938" lon="9.62810387280301"><ele>568.0</ele><time>2026-05-01T15:57:52Z</time></trkpt><trkpt lat="44.51497300474338" lon="9.628002313500927"><ele>568.0</ele><time>2026-05-01T15:57:53Z</time></trkpt><trkpt lat="44.51498036612729" lon="9.627867436925222"><ele>568.0</ele><time>2026-05-01T15:57:54Z</time></trkpt><trkpt lat="44.51499287953748" lon="9.627710027082706"><ele>568.0</ele><time>2026-05-01T15:57:55Z</time></trkpt><trkpt lat="44.51499851732877" lon="9.627571164400758"><ele>568.8333333333334</ele><time>2026-05-01T15:57:56Z</time></trkpt><trkpt lat="44.51502134391546" lon="9.627437905017436"><ele>569.6666666666667</ele><time>2026-05-01T15:57:57Z</time></trkpt><trkpt lat="44.515052287893646" lon="9.627331019379053"><ele>570.5</ele><time>2026-05-01T15:57:58Z</time></trkpt><trkpt lat="44.51510945666396" lon="9.627291563952074"><ele>571.3333333333334</ele><time>2026-05-01T15:57:59Z</time></trkpt><trkpt lat="44.51518028283701" lon="9.627292830222844"><ele>572.1666666666666</ele><time>2026-05-01T15:58:01Z</time></trkpt><trkpt lat="44.51525970505444" lon="9.627317399925928"><ele>573.0</ele><time>2026-05-01T15:58:04Z</time></trkpt><trkpt lat="44.51533515575111" lon="9.627263080919333"><ele>574.1999999999999</ele><time>2026-05-01T15:58:07Z</time></trkpt><trkpt lat="44.51542631673145" lon="9.627248667723988"><ele>575.4</ele><time>2026-05-01T15:58:09Z</time></trkpt><trkpt lat="44.51551272881753" lon="9.627231387435732"><ele>576.5999999999999</ele><time>2026-05-01T15:58:10Z</time></trkpt><trkpt lat="44.51561317663318" lon="9.627202811888345"><ele>577.8</ele><time>2026-05-01T15:58:11Z</time></trkpt><trkpt lat="44.51570269576603" lon="9.627182242599963"><ele>579.0</ele><time>2026-05-01T15:58:12Z</time></trkpt><trkpt lat="44.515805489551376" lon="9.627166857405529"><ele>579.0</ele><time>2026-05-01T15:58:13Z</time></trkpt><trkpt lat="44.5159170504026" lon="9.627178845223135"><ele>579.0</ele><time>2026-05-01T15:58:14Z</time></trkpt><trkpt lat="44.516037497571915" lon="9.627162389405372"><ele>579.0</ele><time>2026-05-01T15:58:15Z</time></trkpt><trkpt lat="44.51615928499294" lon="9.627133779772105"><ele>579.0</ele><time>2026-05-01T15:58:16Z</time></trkpt><trkpt lat="44.516289790088464" lon="9.62705866380039"><ele>583.25</ele><time>2026-05-01T15:58:17Z</time></trkpt><trkpt lat="44.516428241027654" lon="9.627000848665515"><ele>587.5</ele><time>2026-05-01T15:58:18Z</time></trkpt><trkpt lat="44.516547607308475" lon="9.626986316864606"><ele>591.75</ele><time>2026-05-01T15:58:19Z</time></trkpt><trkpt lat="44.51664880213696" lon="9.627022569716365"><ele>596.0</ele><time>2026-05-01T15:58:20Z</time></trkpt><trkpt lat="44.51677054606177" lon="9.627055741170864"><ele>596.0</ele><time>2026-05-01T15:58:21Z</time></trkpt><trkpt lat="44.516888904551095" lon="9.627066138441725"><ele>596.0</ele><time>2026-05-01T15:58:22Z</time></trkpt><trkpt lat="44.51698104734265" lon="9.627095061565917"><ele>596.0</ele><time>2026-05-01T15:58:23Z</time></trkpt><trkpt lat="44.51706112775433" lon="9.627130630033411"><ele>596.0</ele><time>2026-05-01T15:58:24Z</time></trkpt><trkpt lat="44.51714091223846" lon="9.62712476539394"><ele>596.0</ele><time>2026-05-01T15:58:25Z</time></trkpt><trkpt lat="44.51721365040474" lon="9.627060726267903"><ele>597.6</ele><time>2026-05-01T15:58:26Z</time></trkpt><trkpt lat="44.517286416281934" lon="9.627007637556222"><ele>599.2</ele><time>2026-05-01T15:58:27Z</time></trkpt><trkpt lat="44.51732358415184" lon="9.626871961221592"><ele>600.8</ele><time>2026-05-01T15:58:28Z</time></trkpt><trkpt lat="44.517368064642746" lon="9.626720184888915"><ele>602.4</ele><time>2026-05-01T15:58:29Z</time></trkpt><trkpt lat="44.517414099842476" lon="9.626550032962426"><ele>604.0</ele><time>2026-05-01T15:58:30Z</time></trkpt><trkpt lat="44.51748428438344" lon="9.626403610276519"><ele>605.8</ele><time>2026-05-01T15:58:31Z</time></trkpt><trkpt lat="44.51754059776697" lon="9.626246948893895"><ele>607.5999999999999</ele><time>2026-05-01T15:58:32Z</time></trkpt><trkpt lat="44.517609813601666" lon="9.626111760432364"><ele>609.4</ele><time>2026-05-01T15:58:33Z</time></trkpt><trkpt lat="44.517664992387445" lon="9.62600077822211"><ele>611.1999999999999</ele><time>2026-05-01T15:58:34Z</time></trkpt><trkpt lat="44.51771998059523" lon="9.62592975835286"><ele>613.0</ele><time>2026-05-01T15:58:35Z</time></trkpt><trkpt lat="44.5177881886855" lon="9.625893880585913"><ele>613.1666666666667</ele><time>2026-05-01T15:58:36Z</time></trkpt><trkpt lat="44.51785540733066" lon="9.625910304903048"><ele>613.3333333333334</ele><time>2026-05-01T15:58:37Z</time></trkpt><trkpt lat="44.51798403680203" lon="9.625889083260137"><ele>613.5</ele><time>2026-05-01T15:58:39Z</time></trkpt><trkpt lat="44.5180582617396" lon="9.62588421784755"><ele>613.6666666666666</ele><time>2026-05-01T15:58:40Z</time></trkpt><trkpt lat="44.518133624310664" lon="9.625890615428364"><ele>613.8333333333333</ele><time>2026-05-01T15:58:41Z</time></trkpt><trkpt lat="44.51821182829205" lon="9.625931673419688"><ele>614.0</ele><time>2026-05-01T15:58:42Z</time></trkpt><trkpt lat="44.518291716479055" lon="9.62599469607416"><ele>616.8</ele><time>2026-05-01T15:58:43Z</time></trkpt><trkpt lat="44.518382457398076" lon="9.626050452369666"><ele>619.5999999999999</ele><time>2026-05-01T15:58:44Z</time></trkpt><trkpt lat="44.51848009428786" lon="9.626075182873803"><ele>622.4</ele><time>2026-05-01T15:58:45Z</time></trkpt><trkpt lat="44.518570665944274" lon="9.626101719201554"><ele>625.1999999999999</ele><time>2026-05-01T15:58:46Z</time></trkpt><trkpt lat="44.518657169166445" lon="9.626129855766093"><ele>628.0</ele><time>2026-05-01T15:58:47Z</time></trkpt><trkpt lat="44.51873913198648" lon="9.626157596140565"><ele>629.0</ele><time>2026-05-01T15:58:48Z</time></trkpt><trkpt lat="44.5188150495529" lon="9.626190267975609"><ele>630.0</ele><time>2026-05-01T15:58:49Z</time></trkpt><trkpt lat="44.51889075391505" lon="9.62623081308001"><ele>631.0</ele><time>2026-05-01T15:58:50Z</time></trkpt><trkpt lat="44.51897592371845" lon="9.626292026306865"><ele>632.0</ele><time>2026-05-01T15:58:51Z</time></trkpt><trkpt lat="44.51907923570467" lon="9.626369009018685"><ele>633.0</ele><time>2026-05-01T15:58:52Z</time></trkpt><trkpt lat="44.51918612015154" lon="9.626438470916266"><ele>633.0</ele><time>2026-05-01T15:58:53Z</time></trkpt><trkpt lat="44.51927782025767" lon="9.626479782327156"><ele>633.0</ele><time>2026-05-01T15:58:54Z</time></trkpt><trkpt lat="44.519351840400596" lon="9.626484089141782"><ele>633.0</ele><time>2026-05-01T15:58:55Z</time></trkpt><trkpt lat="44.51942328231616" lon="9.626485276525912"><ele>633.0</ele><time>2026-05-01T15:58:58Z</time></trkpt><trkpt lat="44.519488439405215" lon="9.626504326885719"><ele>633.0</ele><time>2026-05-01T15:59:48Z</time></trkpt><trkpt lat="44.51956194913474" lon="9.626410096948218"><ele>633.0</ele><time>2026-05-01T15:59:49Z</time></trkpt><trkpt lat="44.519616934259055" lon="9.626367048628554"><ele>632.8333333333334</ele><time>2026-05-01T15:59:50Z</time></trkpt><trkpt lat="44.51967033726598" lon="9.626305334891347"><ele>632.6666666666666</ele><time>2026-05-01T15:59:51Z</time></trkpt><trkpt lat="44.519732044712214" lon="9.626269561569194"><ele>632.5</ele><time>2026-05-01T15:59:52Z</time></trkpt><trkpt lat="44.519795843983815" lon="9.626225412689417"><ele>632.3333333333333</ele><time>2026-05-01T15:59:53Z</time></trkpt><trkpt lat="44.519894228896945" lon="9.626145026904904"><ele>632.1666666666666</ele><time>2026-05-01T15:59:55Z</time></trkpt><trkpt lat="44.519942726007514" lon="9.626069674335865"><ele>632.0</ele><time>2026-05-01T15:59:56Z</time></trkpt><trkpt lat="44.51997089657743" lon="9.625988484576357"><ele>633.3333333333333</ele><time>2026-05-01T15:59:57Z</time></trkpt><trkpt lat="44.52001476613686" lon="9.625923523221504"><ele>634.6666666666666</ele><time>2026-05-01T15:59:58Z</time></trkpt><trkpt lat="44.52009268797094" lon="9.625806436110887"><ele>636.0</ele><time>2026-05-01T16:00:00Z</time></trkpt><trkpt lat="44.520142536343755" lon="9.625739007029978"><ele>637.3333333333334</ele><time>2026-05-01T16:00:02Z</time></trkpt><trkpt lat="44.52019445146147" lon="9.625683784369082"><ele>638.6666666666667</ele><time>2026-05-01T16:00:05Z</time></trkpt><trkpt lat="44.52025357123844" lon="9.62562271721104"><ele>640.0</ele><time>2026-05-01T16:24:06Z</time></trkpt><trkpt lat="44.520331952178935" lon="9.625593434574409"><ele>642.2</ele><time>2026-05-01T16:24:08Z</time></trkpt><trkpt lat="44.520424909124685" lon="9.625570305120123"><ele>644.4</ele><time>2026-05-01T16:24:10Z</time></trkpt><trkpt lat="44.52053947307289" lon="9.625554651919398"><ele>646.5999999999999</ele><time>2026-05-01T16:24:12Z</time></trkpt><trkpt lat="44.52065871205863" lon="9.625546354736976"><ele>648.8</ele><time>2026-05-01T16:24:14Z</time></trkpt><trkpt lat="44.52073192610934" lon="9.6255541899999"><ele>651.0</ele><time>2026-05-01T16:24:15Z</time></trkpt><trkpt lat="44.5208219365657" lon="9.625562146269322"><ele>651.0</ele><time>2026-05-01T16:24:17Z</time></trkpt><trkpt lat="44.52092125560294" lon="9.625589317102033"><ele>651.0</ele><time>2026-05-01T16:24:19Z</time></trkpt><trkpt lat="44.52101261884798" lon="9.625660401598546"><ele>651.0</ele><time>2026-05-01T16:24:21Z</time></trkpt><trkpt lat="44.52111319151923" lon="9.625690893340948"><ele>651.0</ele><time>2026-05-01T16:24:23Z</time></trkpt><trkpt lat="44.52117576346636" lon="9.625700874019772"><ele>651.0</ele><time>2026-05-01T16:24:25Z</time></trkpt><trkpt lat="44.52118058877568" lon="9.62546546394738"><ele>650.8</ele><time>2026-05-01T16:24:29Z</time></trkpt><trkpt lat="44.521210814293354" lon="9.625305844061854"><ele>650.5999999999999</ele><time>2026-05-01T16:24:31Z</time></trkpt><trkpt lat="44.52129598479819" lon="9.625190946580386"><ele>650.4</ele><time>2026-05-01T16:24:33Z</time></trkpt><trkpt lat="44.52136493114705" lon="9.625123569063344"><ele>650.2</ele><time>2026-05-01T16:24:35Z</time></trkpt><trkpt lat="44.52144161599731" lon="9.625021771497414"><ele>650.0</ele><time>2026-05-01T16:24:38Z</time></trkpt><trkpt lat="44.52151277572621" lon="9.624925571941025"><ele>653.2</ele><time>2026-05-01T16:24:40Z</time></trkpt><trkpt lat="44.521592089572955" lon="9.624826810717728"><ele>656.4</ele><time>2026-05-01T16:24:42Z</time></trkpt><trkpt lat="44.52169217516305" lon="9.62473299972757"><ele>659.5999999999999</ele><time>2026-05-01T16:24:44Z</time></trkpt><trkpt lat="44.52182173230776" lon="9.624676966138427"><ele>662.8</ele><time>2026-05-01T16:24:46Z</time></trkpt><trkpt lat="44.52189938236419" lon="9.624665633926723"><ele>666.0</ele><time>2026-05-01T16:24:47Z</time></trkpt><trkpt lat="44.521977919725394" lon="9.624651195996682"><ele>666.0</ele><time>2026-05-01T16:24:48Z</time></trkpt><trkpt lat="44.52205765952059" lon="9.624611011249698"><ele>666.0</ele><time>2026-05-01T16:24:49Z</time></trkpt><trkpt lat="44.52213429572333" lon="9.624541461321982"><ele>666.0</ele><time>2026-05-01T16:24:50Z</time></trkpt><trkpt lat="44.52220275737626" lon="9.624442570228968"><ele>666.0</ele><time>2026-05-01T16:24:51Z</time></trkpt><trkpt lat="44.52226323821004" lon="9.624327333495515"><ele>666.0</ele><time>2026-05-01T16:24:52Z</time></trkpt><trkpt lat="44.522314077700614" lon="9.624195725167157"><ele>666.1999999999999</ele><time>2026-05-01T16:24:53Z</time></trkpt><trkpt lat="44.522344853605716" lon="9.624053259859695"><ele>666.4</ele><time>2026-05-01T16:24:54Z</time></trkpt><trkpt lat="44.52236343501865" lon="9.623915399046858"><ele>666.6</ele><time>2026-05-01T16:24:55Z</time></trkpt><trkpt lat="44.52239085088502" lon="9.623790570023456"><ele>666.8</ele><time>2026-05-01T16:24:56Z</time></trkpt><trkpt lat="44.52243474965445" lon="9.62368106863438"><ele>667.0</ele><time>2026-05-01T16:24:57Z</time></trkpt><trkpt lat="44.522499401735594" lon="9.623598410561188"><ele>667.0</ele><time>2026-05-01T16:24:58Z</time></trkpt><trkpt lat="44.522584235531916" lon="9.623563250561642"><ele>667.0</ele><time>2026-05-01T16:24:59Z</time></trkpt><trkpt lat="44.522666934806814" lon="9.623580432100475"><ele>667.0</ele><time>2026-05-01T16:25:00Z</time></trkpt><trkpt lat="44.52273426609282" lon="9.623664127936284"><ele>667.0</ele><time>2026-05-01T16:25:01Z</time></trkpt><trkpt lat="44.522788239800114" lon="9.623784768235353"><ele>667.0</ele><time>2026-05-01T16:25:02Z</time></trkpt><trkpt lat="44.522834225135945" lon="9.623921372154426"><ele>667.0</ele><time>2026-05-01T16:25:03Z</time></trkpt><trkpt lat="44.52288590993493" lon="9.624056982471085"><ele>667.0</ele><time>2026-05-01T16:25:04Z</time></trkpt><trkpt lat="44.52294113842691" lon="9.624177883858481"><ele>667.0</ele><time>2026-05-01T16:25:05Z</time></trkpt><trkpt lat="44.52299941212423" lon="9.624277009300288"><ele>667.0</ele><time>2026-05-01T16:25:06Z</time></trkpt><trkpt lat="44.52307267327526" lon="9.624345706804334"><ele>667.0</ele><time>2026-05-01T16:25:07Z</time></trkpt><trkpt lat="44.52315815720343" lon="9.62436037237893"><ele>669.8</ele><time>2026-05-01T16:25:08Z</time></trkpt><trkpt lat="44.52324600622366" lon="9.624324273554274"><ele>672.6</ele><time>2026-05-01T16:25:09Z</time></trkpt><trkpt lat="44.523321333697595" lon="9.624242729510177"><ele>675.4</ele><time>2026-05-01T16:25:10Z</time></trkpt><trkpt lat="44.52337334337202" lon="9.624125506181903"><ele>678.1999999999999</ele><time>2026-05-01T16:25:11Z</time></trkpt><trkpt lat="44.52339751891808" lon="9.623978066420268"><ele>681.0</ele><time>2026-05-01T16:25:12Z</time></trkpt><trkpt lat="44.523420245928705" lon="9.623824416270871"><ele>681.0</ele><time>2026-05-01T16:25:13Z</time></trkpt><trkpt lat="44.52346153709311" lon="9.623681662731736"><ele>681.0</ele><time>2026-05-01T16:25:14Z</time></trkpt><trkpt lat="44.523510704476124" lon="9.623562564620974"><ele>681.0</ele><time>2026-05-01T16:25:15Z</time></trkpt><trkpt lat="44.5235753350054" lon="9.623470446436421"><ele>681.0</ele><time>2026-05-01T16:25:16Z</time></trkpt><trkpt lat="44.52373229778741" lon="9.623437652878856"><ele>681.75</ele><time>2026-05-01T16:25:17Z</time></trkpt><trkpt lat="44.52385778698946" lon="9.623405220305264"><ele>682.5</ele><time>2026-05-01T16:25:18Z</time></trkpt><trkpt lat="44.52397051419733" lon="9.623351078145857"><ele>683.25</ele><time>2026-05-01T16:25:19Z</time></trkpt><trkpt lat="44.52407209974129" lon="9.623306598670512"><ele>684.0</ele><time>2026-05-01T16:25:20Z</time></trkpt><trkpt lat="44.52417531818507" lon="9.623281840288056"><ele>684.0</ele><time>2026-05-01T16:25:21Z</time></trkpt><trkpt lat="44.524281631517376" lon="9.623281627485232"><ele>684.0</ele><time>2026-05-01T16:25:22Z</time></trkpt><trkpt lat="44.52438552754578" lon="9.623321418006835"><ele>684.0</ele><time>2026-05-01T16:25:23Z</time></trkpt><trkpt lat="44.52448410662389" lon="9.623392615258739"><ele>684.0</ele><time>2026-05-01T16:25:24Z</time></trkpt><trkpt lat="44.52457590418481" lon="9.623470339574439"><ele>684.0</ele><time>2026-05-01T16:25:25Z</time></trkpt><trkpt lat="44.52466431293428" lon="9.623523869189217"><ele>685.2</ele><time>2026-05-01T16:25:26Z</time></trkpt><trkpt lat="44.52475349600652" lon="9.623542368849225"><ele>686.4000000000001</ele><time>2026-05-01T16:25:27Z</time></trkpt><trkpt lat="44.52483764132395" lon="9.623478060592522"><ele>687.6</ele><time>2026-05-01T16:25:28Z</time></trkpt><trkpt lat="44.52487789121112" lon="9.62336026225944"><ele>688.8</ele><time>2026-05-01T16:25:29Z</time></trkpt><trkpt lat="44.52486522469429" lon="9.623223324447212"><ele>690.0</ele><time>2026-05-01T16:25:30Z</time></trkpt><trkpt lat="44.52482770789326" lon="9.623087439642646"><ele>690.0</ele><time>2026-05-01T16:25:31Z</time></trkpt><trkpt lat="44.52477953546276" lon="9.62295190866565"><ele>690.0</ele><time>2026-05-01T16:25:32Z</time></trkpt><trkpt lat="44.5247323365997" lon="9.622811523645774"><ele>690.0</ele><time>2026-05-01T16:25:33Z</time></trkpt><trkpt lat="44.52468641922482" lon="9.622672036487186"><ele>690.0</ele><time>2026-05-01T16:25:34Z</time></trkpt><trkpt lat="44.52463717082176" lon="9.622538814345724"><ele>690.0</ele><time>2026-05-01T16:25:35Z</time></trkpt><trkpt lat="44.524592179101724" lon="9.622414076885624"><ele>687.0</ele><time>2026-05-01T16:25:36Z</time></trkpt><trkpt lat="44.52455485495077" lon="9.622288658318011"><ele>684.0</ele><time>2026-05-01T16:25:37Z</time></trkpt><trkpt lat="44.52453151716118" lon="9.622152352178066"><ele>681.0</ele><time>2026-05-01T16:25:38Z</time></trkpt><trkpt lat="44.52452084443259" lon="9.622009887025245"><ele>678.0</ele><time>2026-05-01T16:25:39Z</time></trkpt><trkpt lat="44.524521822345086" lon="9.621862289398644"><ele>675.0</ele><time>2026-05-01T16:25:40Z</time></trkpt><trkpt lat="44.52454032875758" lon="9.621708228335304"><ele>678.75</ele><time>2026-05-01T16:25:41Z</time></trkpt><trkpt lat="44.524577612475916" lon="9.62155604470199"><ele>682.5</ele><time>2026-05-01T16:25:42Z</time></trkpt><trkpt lat="44.5246287446327" lon="9.621402924872873"><ele>686.25</ele><time>2026-05-01T16:25:43Z</time></trkpt><trkpt lat="44.524678414187434" lon="9.62124496259582"><ele>690.0</ele><time>2026-05-01T16:25:44Z</time></trkpt><trkpt lat="44.52475122942308" lon="9.62110053863733"><ele>690.0</ele><time>2026-05-01T16:25:45Z</time></trkpt><trkpt lat="44.5248226622604" lon="9.620950457267682"><ele>690.0</ele><time>2026-05-01T16:25:46Z</time></trkpt><trkpt lat="44.52490296520066" lon="9.620798452729126"><ele>690.0</ele><time>2026-05-01T16:25:47Z</time></trkpt><trkpt lat="44.52497821677335" lon="9.620642150169585"><ele>690.0</ele><time>2026-05-01T16:25:48Z</time></trkpt><trkpt lat="44.52507651251245" lon="9.620515100792417"><ele>690.0</ele><time>2026-05-01T16:25:49Z</time></trkpt><trkpt lat="44.525186399296985" lon="9.620420531063312"><ele>690.0</ele><time>2026-05-01T16:25:50Z</time></trkpt><trkpt lat="44.52527656896221" lon="9.620318480368118"><ele>690.0</ele><time>2026-05-01T16:25:51Z</time></trkpt><trkpt lat="44.525358029720806" lon="9.620224930907126"><ele>690.0</ele><time>2026-05-01T16:25:52Z</time></trkpt><trkpt lat="44.52542803593207" lon="9.620131685750803"><ele>690.0</ele><time>2026-05-01T16:25:53Z</time></trkpt><trkpt lat="44.52551743715211" lon="9.620083211083223"><ele>689.8</ele><time>2026-05-01T16:25:54Z</time></trkpt><trkpt lat="44.52561707171412" lon="9.620075334681541"><ele>689.6</ele><time>2026-05-01T16:25:55Z</time></trkpt><trkpt lat="44.52572035742212" lon="9.620112029673626"><ele>689.4000000000001</ele><time>2026-05-01T16:25:56Z</time></trkpt><trkpt lat="44.52581620542212" lon="9.620181075251356"><ele>689.2</ele><time>2026-05-01T16:25:57Z</time></trkpt><trkpt lat="44.52589374601304" lon="9.620280723916283"><ele>689.0</ele><time>2026-05-01T16:25:58Z</time></trkpt><trkpt lat="44.52594907823559" lon="9.62040486593544"><ele>691.0</ele><time>2026-05-01T16:25:59Z</time></trkpt><trkpt lat="44.5259948036183" lon="9.620533500881669"><ele>693.0</ele><time>2026-05-01T16:26:00Z</time></trkpt><trkpt lat="44.52604893723544" lon="9.620626605763873"><ele>695.0</ele><time>2026-05-01T16:26:01Z</time></trkpt><trkpt lat="44.52610618265549" lon="9.620711058925632"><ele>697.0</ele><time>2026-05-01T16:26:02Z</time></trkpt><trkpt lat="44.526194269353574" lon="9.620739297243274"><ele>699.0</ele><time>2026-05-01T16:26:03Z</time></trkpt><trkpt lat="44.52628995081735" lon="9.620707951817947"><ele>698.0</ele><time>2026-05-01T16:26:04Z</time></trkpt><trkpt lat="44.52636925121564" lon="9.620609661756024"><ele>697.0</ele><time>2026-05-01T16:26:05Z</time></trkpt><trkpt lat="44.52641059345091" lon="9.620478438890343"><ele>696.0</ele><time>2026-05-01T16:26:06Z</time></trkpt><trkpt lat="44.52646699157568" lon="9.620365250953387"><ele>695.0</ele><time>2026-05-01T16:26:07Z</time></trkpt><trkpt lat="44.526538308078635" lon="9.620267741848258"><ele>694.0</ele><time>2026-05-01T16:26:08Z</time></trkpt><trkpt lat="44.526620878132235" lon="9.620189216206073"><ele>694.0</ele><time>2026-05-01T16:26:09Z</time></trkpt><trkpt lat="44.526720607253274" lon="9.62014776168792"><ele>694.0</ele><time>2026-05-01T16:26:10Z</time></trkpt><trkpt lat="44.52682535826057" lon="9.62014369010919"><ele>694.0</ele><time>2026-05-01T16:26:11Z</time></trkpt><trkpt lat="44.526930607961525" lon="9.620163222624656"><ele>694.0</ele><time>2026-05-01T16:26:12Z</time></trkpt><trkpt lat="44.527039043904736" lon="9.620174197589712"><ele>694.0</ele><time>2026-05-01T16:26:13Z</time></trkpt><trkpt lat="44.52715161164684" lon="9.62016891650188"><ele>696.5</ele><time>2026-05-01T16:26:14Z</time></trkpt><trkpt lat="44.527269327912734" lon="9.620157354036529"><ele>699.0</ele><time>2026-05-01T16:26:15Z</time></trkpt><trkpt lat="44.52738113372573" lon="9.620099665852832"><ele>701.5</ele><time>2026-05-01T16:26:16Z</time></trkpt><trkpt lat="44.52749222519977" lon="9.620029032609686"><ele>704.0</ele><time>2026-05-01T16:26:17Z</time></trkpt><trkpt lat="44.52759946359438" lon="9.619944779585188"><ele>704.0</ele><time>2026-05-01T16:26:18Z</time></trkpt><trkpt lat="44.527708031414534" lon="9.619852982402564"><ele>704.0</ele><time>2026-05-01T16:26:19Z</time></trkpt><trkpt lat="44.52782185956455" lon="9.619753150800602"><ele>704.0</ele><time>2026-05-01T16:26:20Z</time></trkpt><trkpt lat="44.52793657014045" lon="9.619649401701832"><ele>704.0</ele><time>2026-05-01T16:26:21Z</time></trkpt><trkpt lat="44.52805158266793" lon="9.619541414613106"><ele>706.25</ele><time>2026-05-01T16:26:22Z</time></trkpt><trkpt lat="44.52815519710368" lon="9.61942202630093"><ele>708.5</ele><time>2026-05-01T16:26:23Z</time></trkpt><trkpt lat="44.528225026484" lon="9.619269725758594"><ele>710.75</ele><time>2026-05-01T16:26:24Z</time></trkpt><trkpt lat="44.52829958071218" lon="9.619149328170971"><ele>713.0</ele><time>2026-05-01T16:26:25Z</time></trkpt><trkpt lat="44.528387592832324" lon="9.619075040594433"><ele>713.0</ele><time>2026-05-01T16:26:26Z</time></trkpt><trkpt lat="44.52849616778286" lon="9.619028305286776"><ele>713.0</ele><time>2026-05-01T16:26:27Z</time></trkpt><trkpt lat="44.52861725109274" lon="9.618989549573001"><ele>713.0</ele><time>2026-05-01T16:26:28Z</time></trkpt><trkpt lat="44.52874131321691" lon="9.618932785945432"><ele>713.0</ele><time>2026-05-01T16:26:29Z</time></trkpt><trkpt lat="44.528874782068876" lon="9.618898759058979"><ele>711.25</ele><time>2026-05-01T16:26:30Z</time></trkpt><trkpt lat="44.529006535194384" lon="9.618842895320444"><ele>709.5</ele><time>2026-05-01T16:26:31Z</time></trkpt><trkpt lat="44.5291368017346" lon="9.618778179360003"><ele>707.75</ele><time>2026-05-01T16:26:32Z</time></trkpt><trkpt lat="44.52925921240751" lon="9.618699333978267"><ele>706.0</ele><time>2026-05-01T16:26:33Z</time></trkpt><trkpt lat="44.529368040476015" lon="9.618598952956717"><ele>706.0</ele><time>2026-05-01T16:26:34Z</time></trkpt><trkpt lat="44.52948578852407" lon="9.618539956363662"><ele>706.0</ele><time>2026-05-01T16:26:35Z</time></trkpt><trkpt lat="44.52960847245104" lon="9.618495534964904"><ele>706.0</ele><time>2026-05-01T16:26:36Z</time></trkpt><trkpt lat="44.52973905054762" lon="9.61846077220221"><ele>706.0</ele><time>2026-05-01T16:26:37Z</time></trkpt><trkpt lat="44.529879347516385" lon="9.618421071604953"><ele>709.75</ele><time>2026-05-01T16:26:38Z</time></trkpt><trkpt lat="44.530015858625234" lon="9.61838069210965"><ele>713.5</ele><time>2026-05-01T16:26:39Z</time></trkpt><trkpt lat="44.530152060073746" lon="9.618361461676606"><ele>717.25</ele><time>2026-05-01T16:26:40Z</time></trkpt><trkpt lat="44.53029007611495" lon="9.618349439062845"><ele>721.0</ele><time>2026-05-01T16:26:41Z</time></trkpt><trkpt lat="44.53040422961944" lon="9.618363031738584"><ele>724.5</ele><time>2026-05-01T16:26:42Z</time></trkpt><trkpt lat="44.53054109065623" lon="9.618398050324368"><ele>728.0</ele><time>2026-05-01T16:26:43Z</time></trkpt><trkpt lat="44.530683195996076" lon="9.618423695522658"><ele>731.5</ele><time>2026-05-01T16:26:44Z</time></trkpt><trkpt lat="44.5308199399395" lon="9.618386431335011"><ele>735.0</ele><time>2026-05-01T16:26:45Z</time></trkpt><trkpt lat="44.53095170844161" lon="9.61833680701983"><ele>735.0</ele><time>2026-05-01T16:26:46Z</time></trkpt><trkpt lat="44.53106601495449" lon="9.618234587535651"><ele>735.0</ele><time>2026-05-01T16:26:47Z</time></trkpt><trkpt lat="44.531167784263005" lon="9.618102730987268"><ele>735.0</ele><time>2026-05-01T16:26:48Z</time></trkpt><trkpt lat="44.531262931305456" lon="9.617957695099983"><ele>735.0</ele><time>2026-05-01T16:26:49Z</time></trkpt><trkpt lat="44.5313467147691" lon="9.61783240186348"><ele>733.6</ele><time>2026-05-01T16:26:50Z</time></trkpt><trkpt lat="44.53142453744503" lon="9.617743012262949"><ele>732.2</ele><time>2026-05-01T16:26:51Z</time></trkpt><trkpt lat="44.5315232349079" lon="9.617724872212987"><ele>730.8</ele><time>2026-05-01T16:26:52Z</time></trkpt><trkpt lat="44.53161305649685" lon="9.617742447613939"><ele>729.4</ele><time>2026-05-01T16:26:53Z</time></trkpt><trkpt lat="44.531726796853036" lon="9.617764170527586"><ele>728.0</ele><time>2026-05-01T16:26:54Z</time></trkpt><trkpt lat="44.53184019193959" lon="9.617756053052497"><ele>728.0</ele><time>2026-05-01T16:26:55Z</time></trkpt><trkpt lat="44.53195222169969" lon="9.617717792412561"><ele>728.0</ele><time>2026-05-01T16:26:56Z</time></trkpt><trkpt lat="44.5320573723904" lon="9.617596754030751"><ele>728.0</ele><time>2026-05-01T16:26:57Z</time></trkpt><trkpt lat="44.53216971783951" lon="9.617496149320566"><ele>728.0</ele><time>2026-05-01T16:26:58Z</time></trkpt><trkpt lat="44.53228256903914" lon="9.617400092834192"><ele>731.5999999999999</ele><time>2026-05-01T16:26:59Z</time></trkpt><trkpt lat="44.53238071461522" lon="9.617330186883558"><ele>735.1999999999999</ele><time>2026-05-01T16:27:00Z</time></trkpt><trkpt lat="44.53245300526138" lon="9.617250688409003"><ele>738.8</ele><time>2026-05-01T16:27:01Z</time></trkpt><trkpt lat="44.532489397227316" lon="9.617153046021773"><ele>742.4</ele><time>2026-05-01T16:27:02Z</time></trkpt><trkpt lat="44.53247951557022" lon="9.617032127853326"><ele>746.0</ele><time>2026-05-01T16:27:03Z</time></trkpt><trkpt lat="44.532441031155074" lon="9.61690032717352"><ele>746.75</ele><time>2026-05-01T16:27:04Z</time></trkpt><trkpt lat="44.53240412247683" lon="9.616750061407405"><ele>747.5</ele><time>2026-05-01T16:27:05Z</time></trkpt><trkpt lat="44.53237239414932" lon="9.616576799396766"><ele>748.25</ele><time>2026-05-01T16:27:06Z</time></trkpt><trkpt lat="44.53232987168164" lon="9.616415082795877"><ele>749.0</ele><time>2026-05-01T16:27:07Z</time></trkpt><trkpt lat="44.53226466511445" lon="9.616270589863785"><ele>749.2</ele><time>2026-05-01T16:27:08Z</time></trkpt><trkpt lat="44.53222854928344" lon="9.616130346286447"><ele>749.4000000000001</ele><time>2026-05-01T16:27:09Z</time></trkpt><trkpt lat="44.53224154633058" lon="9.616002893190796"><ele>749.6</ele><time>2026-05-01T16:27:10Z</time></trkpt><trkpt lat="44.53228680026934" lon="9.615907992341414"><ele>749.8</ele><time>2026-05-01T16:27:11Z</time></trkpt><trkpt lat="44.5323558696271" lon="9.61581950411184"><ele>750.0</ele><time>2026-05-01T16:27:12Z</time></trkpt><trkpt lat="44.532440812986174" lon="9.61569415105322"><ele>750.0</ele><time>2026-05-01T16:27:13Z</time></trkpt><trkpt lat="44.53251304024572" lon="9.615571266496458"><ele>750.0</ele><time>2026-05-01T16:27:14Z</time></trkpt><trkpt lat="44.53254155953197" lon="9.615391896150753"><ele>750.0</ele><time>2026-05-01T16:27:15Z</time></trkpt><trkpt lat="44.532514085036524" lon="9.615186776973326"><ele>750.0</ele><time>2026-05-01T16:27:16Z</time></trkpt><trkpt lat="44.53247775377668" lon="9.614976797879171"><ele>750.0</ele><time>2026-05-01T16:27:17Z</time></trkpt><trkpt lat="44.53247754552734" lon="9.614746472800661"><ele>750.0</ele><time>2026-05-01T16:27:18Z</time></trkpt><trkpt lat="44.53249100560206" lon="9.614484367487492"><ele>750.0</ele><time>2026-05-01T16:27:19Z</time></trkpt><trkpt lat="44.532506017722405" lon="9.614226901918007"><ele>751.75</ele><time>2026-05-01T16:27:20Z</time></trkpt><trkpt lat="44.532520781600184" lon="9.614017857866534"><ele>753.5</ele><time>2026-05-01T16:27:21Z</time></trkpt><trkpt lat="44.53252269828846" lon="9.613833564341068"><ele>755.25</ele><time>2026-05-01T16:27:22Z</time></trkpt><trkpt lat="44.532550037180954" lon="9.6136557222179"><ele>757.0</ele><time>2026-05-01T16:27:23Z</time></trkpt><trkpt lat="44.532555146302435" lon="9.613491102418877"><ele>757.75</ele><time>2026-05-01T16:27:24Z</time></trkpt><trkpt lat="44.53251108516948" lon="9.613345687658635"><ele>758.5</ele><time>2026-05-01T16:27:25Z</time></trkpt><trkpt lat="44.53244697481162" lon="9.613212031414411"><ele>759.25</ele><time>2026-05-01T16:27:26Z</time></trkpt><trkpt lat="44.53235786676795" lon="9.613082368380436"><ele>760.0</ele><time>2026-05-01T16:27:27Z</time></trkpt><trkpt lat="44.53227473697392" lon="9.612958729250574"><ele>761.0</ele><time>2026-05-01T16:27:28Z</time></trkpt><trkpt lat="44.532237470839455" lon="9.612810827545536"><ele>762.0</ele><time>2026-05-01T16:27:29Z</time></trkpt><trkpt lat="44.53221113232686" lon="9.612654089100296"><ele>763.0</ele><time>2026-05-01T16:27:30Z</time></trkpt><trkpt lat="44.532213846291384" lon="9.612497889110571"><ele>764.0</ele><time>2026-05-01T16:27:31Z</time></trkpt><trkpt lat="44.532217346034145" lon="9.612359286743315"><ele>765.0</ele><time>2026-05-01T16:27:32Z</time></trkpt><trkpt lat="44.532214809784456" lon="9.61223894129607"><ele>765.0000000000001</ele><time>2026-05-01T16:27:33Z</time></trkpt><trkpt lat="44.53226229084569" lon="9.612170631938941"><ele>765.0</ele><time>2026-05-01T16:27:34Z</time></trkpt><trkpt lat="44.532326849887134" lon="9.61218295737568"><ele>765.0</ele><time>2026-05-01T16:27:35Z</time></trkpt><trkpt lat="44.53237522394462" lon="9.612256051122564"><ele>765.0</ele><time>2026-05-01T16:27:36Z</time></trkpt><trkpt lat="44.53239248239151" lon="9.61235414521378"><ele>765.0</ele><time>2026-05-01T16:27:37Z</time></trkpt><trkpt lat="44.532391264491295" lon="9.61246908141838"><ele>765.0000000000001</ele><time>2026-05-01T16:27:38Z</time></trkpt><trkpt lat="44.532410834341704" lon="9.612591227183282"><ele>765.0</ele><time>2026-05-01T16:27:39Z</time></trkpt><trkpt lat="44.53246621035754" lon="9.612708700436995"><ele>765.0</ele><time>2026-05-01T16:27:40Z</time></trkpt><trkpt lat="44.53255677735817" lon="9.6127900146123"><ele>765.0</ele><time>2026-05-01T16:27:41Z</time></trkpt><trkpt lat="44.53267069434528" lon="9.61284134424791"><ele>765.0</ele><time>2026-05-01T16:27:42Z</time></trkpt><trkpt lat="44.532780234573345" lon="9.612907809401008"><ele>765.0</ele><time>2026-05-01T16:27:43Z</time></trkpt><trkpt lat="44.532872517263385" lon="9.613023320160877"><ele>768.5</ele><time>2026-05-01T16:27:44Z</time></trkpt><trkpt lat="44.53293809139431" lon="9.613159120364665"><ele>772.0</ele><time>2026-05-01T16:27:45Z</time></trkpt><trkpt lat="44.53299578264599" lon="9.613293278672955"><ele>775.5</ele><time>2026-05-01T16:27:46Z</time></trkpt><trkpt lat="44.53304741900488" lon="9.613437140381262"><ele>779.0</ele><time>2026-05-01T16:27:47Z</time></trkpt><trkpt lat="44.53308665487898" lon="9.613595015728212"><ele>779.25</ele><time>2026-05-01T16:27:48Z</time></trkpt><trkpt lat="44.533104122847455" lon="9.613767329793076"><ele>779.5</ele><time>2026-05-01T16:27:49Z</time></trkpt><trkpt lat="44.53310633781291" lon="9.613940613693877"><ele>779.75</ele><time>2026-05-01T16:27:50Z</time></trkpt><trkpt lat="44.533110483341765" lon="9.614114197891205"><ele>780.0</ele><time>2026-05-01T16:27:51Z</time></trkpt><trkpt lat="44.533114786875515" lon="9.614279018553217"><ele>780.0</ele><time>2026-05-01T16:27:52Z</time></trkpt><trkpt lat="44.53312079031081" lon="9.61442521238281"><ele>780.0</ele><time>2026-05-01T16:27:53Z</time></trkpt><trkpt lat="44.53313929697904" lon="9.614552193895094"><ele>780.0</ele><time>2026-05-01T16:27:54Z</time></trkpt><trkpt lat="44.533185158643754" lon="9.614641839506646"><ele>780.0</ele><time>2026-05-01T16:27:55Z</time></trkpt><trkpt lat="44.53325674303478" lon="9.614639972952832"><ele>780.0</ele><time>2026-05-01T16:27:56Z</time></trkpt><trkpt lat="44.533322613099934" lon="9.61461078724365"><ele>780.0</ele><time>2026-05-01T16:27:57Z</time></trkpt><trkpt lat="44.53335948704888" lon="9.614485228551064"><ele>780.0</ele><time>2026-05-01T16:27:58Z</time></trkpt><trkpt lat="44.53334422093863" lon="9.614338076852281"><ele>780.0</ele><time>2026-05-01T16:27:59Z</time></trkpt><trkpt lat="44.53332738593424" lon="9.614167723647242"><ele>780.0</ele><time>2026-05-01T16:28:00Z</time></trkpt><trkpt lat="44.533310189731864" lon="9.61396512240881"><ele>780.0</ele><time>2026-05-01T16:28:01Z</time></trkpt><trkpt lat="44.533304433064345" lon="9.613774091890905"><ele>779.75</ele><time>2026-05-01T16:28:02Z</time></trkpt><trkpt lat="44.533312815156435" lon="9.613574141557134"><ele>779.5</ele><time>2026-05-01T16:28:03Z</time></trkpt><trkpt lat="44.53336875195028" lon="9.61338107946046"><ele>779.25</ele><time>2026-05-01T16:28:04Z</time></trkpt><trkpt lat="44.53340003071169" lon="9.613181709161955"><ele>779.0</ele><time>2026-05-01T16:28:05Z</time></trkpt><trkpt lat="44.5333966537966" lon="9.612982895971786"><ele>779.5</ele><time>2026-05-01T16:28:06Z</time></trkpt><trkpt lat="44.53340179601594" lon="9.612790102802446"><ele>780.0</ele><time>2026-05-01T16:28:07Z</time></trkpt><trkpt lat="44.533401668953736" lon="9.612619173287115"><ele>780.5</ele><time>2026-05-01T16:28:08Z</time></trkpt><trkpt lat="44.53339960196073" lon="9.612464941990158"><ele>781.0</ele><time>2026-05-01T16:28:09Z</time></trkpt><trkpt lat="44.5333872287057" lon="9.612308364955235"><ele>781.0</ele><time>2026-05-01T16:28:10Z</time></trkpt><trkpt lat="44.5333557895531" lon="9.612156263652395"><ele>781.0</ele><time>2026-05-01T16:28:11Z</time></trkpt><trkpt lat="44.533320605801904" lon="9.612012847625785"><ele>781.0</ele><time>2026-05-01T16:28:12Z</time></trkpt><trkpt lat="44.53329618744973" lon="9.611871958308802"><ele>781.0</ele><time>2026-05-01T16:28:13Z</time></trkpt><trkpt lat="44.53329248034745" lon="9.61174270137515"><ele>781.0</ele><time>2026-05-01T16:28:14Z</time></trkpt><trkpt lat="44.53331774158519" lon="9.61162151755118"><ele>781.4999999999999</ele><time>2026-05-01T16:28:15Z</time></trkpt><trkpt lat="44.53336913163869" lon="9.611526378879384"><ele>782.0</ele><time>2026-05-01T16:28:16Z</time></trkpt><trkpt lat="44.5334506890883" lon="9.611497547370366"><ele>782.5</ele><time>2026-05-01T16:28:17Z</time></trkpt><trkpt lat="44.533530233364324" lon="9.611478346015282"><ele>783.0</ele><time>2026-05-01T16:28:18Z</time></trkpt><trkpt lat="44.533597904137736" lon="9.611439883672205"><ele>783.4999999999999</ele><time>2026-05-01T16:28:19Z</time></trkpt><trkpt lat="44.53369006060093" lon="9.611429034258869"><ele>784.0</ele><time>2026-05-01T16:28:21Z</time></trkpt><trkpt lat="44.53378850850341" lon="9.611380265145298"><ele>785.6666666666666</ele><time>2026-05-01T16:28:23Z</time></trkpt><trkpt lat="44.5338563039757" lon="9.61135527813944"><ele>787.3333333333333</ele><time>2026-05-01T16:28:24Z</time></trkpt><trkpt lat="44.53391643114526" lon="9.611279526433945"><ele>789.0</ele><time>2026-05-01T16:28:25Z</time></trkpt><trkpt lat="44.533957230518176" lon="9.611159261895432"><ele>790.6666666666667</ele><time>2026-05-01T16:28:26Z</time></trkpt><trkpt lat="44.53397989967572" lon="9.611026216512997"><ele>792.3333333333334</ele><time>2026-05-01T16:28:27Z</time></trkpt><trkpt lat="44.53402677880543" lon="9.610904242704061"><ele>794.0</ele><time>2026-05-01T16:28:28Z</time></trkpt><trkpt lat="44.53408424770347" lon="9.610785547798306"><ele>794.0</ele><time>2026-05-01T16:28:29Z</time></trkpt><trkpt lat="44.534164170033925" lon="9.610682749277887"><ele>794.0</ele><time>2026-05-01T16:28:30Z</time></trkpt><trkpt lat="44.53424534335326" lon="9.610597727676563"><ele>794.0</ele><time>2026-05-01T16:28:31Z</time></trkpt><trkpt lat="44.534316291870475" lon="9.610513653133891"><ele>794.0</ele><time>2026-05-01T16:28:32Z</time></trkpt><trkpt lat="44.53439147395608" lon="9.610421196335139"><ele>794.0</ele><time>2026-05-01T16:28:33Z</time></trkpt><trkpt lat="44.53446874444858" lon="9.610317934651583"><ele>796.25</ele><time>2026-05-01T16:28:34Z</time></trkpt><trkpt lat="44.53455680015241" lon="9.610219453579374"><ele>798.5</ele><time>2026-05-01T16:28:35Z</time></trkpt><trkpt lat="44.53466206391287" lon="9.610138327761613"><ele>800.75</ele><time>2026-05-01T16:28:36Z</time></trkpt><trkpt lat="44.53476969015202" lon="9.610060692371647"><ele>803.0</ele><time>2026-05-01T16:28:37Z</time></trkpt><trkpt lat="44.53488099797776" lon="9.609984990334162"><ele>803.0</ele><time>2026-05-01T16:28:38Z</time></trkpt><trkpt lat="44.53499173421881" lon="9.609912858726963"><ele>803.0</ele><time>2026-05-01T16:28:39Z</time></trkpt><trkpt lat="44.5350978875534" lon="9.609836350441219"><ele>803.0</ele><time>2026-05-01T16:28:40Z</time></trkpt><trkpt lat="44.53519154886447" lon="9.60976589261052"><ele>803.0</ele><time>2026-05-01T16:28:41Z</time></trkpt><trkpt lat="44.53527473473214" lon="9.609706132018784"><ele>803.0</ele><time>2026-05-01T16:28:42Z</time></trkpt><trkpt lat="44.53535056249749" lon="9.60963277800907"><ele>800.4</ele><time>2026-05-01T16:28:43Z</time></trkpt><trkpt lat="44.53542135783652" lon="9.60953448038418"><ele>797.8</ele><time>2026-05-01T16:28:44Z</time></trkpt><trkpt lat="44.53548903792928" lon="9.60941779810816"><ele>795.2</ele><time>2026-05-01T16:28:45Z</time></trkpt><trkpt lat="44.535548929548014" lon="9.609289566216104"><ele>792.6</ele><time>2026-05-01T16:28:46Z</time></trkpt><trkpt lat="44.53561186532948" lon="9.609157492929848"><ele>790.0</ele><time>2026-05-01T16:28:47Z</time></trkpt><trkpt lat="44.53569201231852" lon="9.60904283490735"><ele>790.0</ele><time>2026-05-01T16:28:48Z</time></trkpt><trkpt lat="44.53579434514094" lon="9.608966983155689"><ele>790.0</ele><time>2026-05-01T16:28:49Z</time></trkpt><trkpt lat="44.535890488806274" lon="9.608871221356878"><ele>790.0</ele><time>2026-05-01T16:28:50Z</time></trkpt><trkpt lat="44.53595144140366" lon="9.60873508993049"><ele>790.0</ele><time>2026-05-01T16:28:51Z</time></trkpt><trkpt lat="44.53600876122434" lon="9.60860266206061"><ele>787.8</ele><time>2026-05-01T16:28:52Z</time></trkpt><trkpt lat="44.536060187321695" lon="9.608466494970784"><ele>785.6</ele><time>2026-05-01T16:28:53Z</time></trkpt><trkpt lat="44.5361104747429" lon="9.608334811279276"><ele>783.4000000000001</ele><time>2026-05-01T16:28:54Z</time></trkpt><trkpt lat="44.536159396967626" lon="9.608206610777454"><ele>781.2</ele><time>2026-05-01T16:28:55Z</time></trkpt><trkpt lat="44.536219732121886" lon="9.608109582267396"><ele>779.0</ele><time>2026-05-01T16:28:56Z</time></trkpt><trkpt lat="44.536253700436966" lon="9.608031026241093"><ele>779.0000000000001</ele><time>2026-05-01T16:28:57Z</time></trkpt><trkpt lat="44.53636177809127" lon="9.608020525798306"><ele>779.0</ele><time>2026-05-01T16:28:59Z</time></trkpt><trkpt lat="44.536403397843245" lon="9.60809278196215"><ele>779.0</ele><time>2026-05-01T16:29:00Z</time></trkpt><trkpt lat="44.536404318572416" lon="9.608195917561334"><ele>779.0</ele><time>2026-05-01T16:29:01Z</time></trkpt><trkpt lat="44.53636562905772" lon="9.608305580160792"><ele>779.0000000000001</ele><time>2026-05-01T16:29:02Z</time></trkpt><trkpt lat="44.53630787885157" lon="9.608412528286332"><ele>779.0</ele><time>2026-05-01T16:29:03Z</time></trkpt><trkpt lat="44.53625039352443" lon="9.608535945222888"><ele>781.75</ele><time>2026-05-01T16:29:04Z</time></trkpt><trkpt lat="44.536195922044385" lon="9.608666523383672"><ele>784.5</ele><time>2026-05-01T16:29:05Z</time></trkpt><trkpt lat="44.53613628022175" lon="9.608791819833437"><ele>787.25</ele><time>2026-05-01T16:29:06Z</time></trkpt><trkpt lat="44.536061701249174" lon="9.60891590421201"><ele>790.0</ele><time>2026-05-01T16:29:07Z</time></trkpt><trkpt lat="44.53597844335686" lon="9.609043181359949"><ele>790.0</ele><time>2026-05-01T16:29:08Z</time></trkpt><trkpt lat="44.5359043283323" lon="9.609174545664734"><ele>790.0</ele><time>2026-05-01T16:29:09Z</time></trkpt><trkpt lat="44.535848230019525" lon="9.609312924387638"><ele>790.0</ele><time>2026-05-01T16:29:10Z</time></trkpt><trkpt lat="44.53581681222165" lon="9.609460955191025"><ele>790.0</ele><time>2026-05-01T16:29:11Z</time></trkpt><trkpt lat="44.53580713969202" lon="9.609606521814802"><ele>790.0</ele><time>2026-05-01T16:29:12Z</time></trkpt><trkpt lat="44.5358056783591" lon="9.609745835159291"><ele>789.3333333333333</ele><time>2026-05-01T16:29:13Z</time></trkpt><trkpt lat="44.53581070022743" lon="9.609874513352182"><ele>788.6666666666666</ele><time>2026-05-01T16:29:14Z</time></trkpt><trkpt lat="44.53582717628841" lon="9.609990709814625"><ele>788.0</ele><time>2026-05-01T16:29:15Z</time></trkpt><trkpt lat="44.535859690794986" lon="9.610100681550852"><ele>787.3333333333333</ele><time>2026-05-01T16:29:16Z</time></trkpt><trkpt lat="44.535916538572536" lon="9.610187306922393"><ele>786.6666666666666</ele><time>2026-05-01T16:29:17Z</time></trkpt><trkpt lat="44.53598327834589" lon="9.610257373432981"><ele>786.0</ele><time>2026-05-01T16:29:18Z</time></trkpt><trkpt lat="44.53605611392036" lon="9.610313147248425"><ele>785.6666666666666</ele><time>2026-05-01T16:29:19Z</time></trkpt><trkpt lat="44.53612788298016" lon="9.610354609806478"><ele>785.3333333333333</ele><time>2026-05-01T16:29:20Z</time></trkpt><trkpt lat="44.536208078095264" lon="9.610353790534287"><ele>785.0</ele><time>2026-05-01T16:29:21Z</time></trkpt><trkpt lat="44.536278841092255" lon="9.610283436725837"><ele>784.6666666666666</ele><time>2026-05-01T16:29:22Z</time></trkpt><trkpt lat="44.53633791535679" lon="9.61019254965581"><ele>784.3333333333333</ele><time>2026-05-01T16:29:23Z</time></trkpt><trkpt lat="44.536402489342386" lon="9.610092392439265"><ele>784.0</ele><time>2026-05-01T16:29:24Z</time></trkpt><trkpt lat="44.53647825868909" lon="9.610002189612349"><ele>784.0</ele><time>2026-05-01T16:29:25Z</time></trkpt><trkpt lat="44.53656745989047" lon="9.60991545722556"><ele>784.0</ele><time>2026-05-01T16:29:26Z</time></trkpt><trkpt lat="44.536660519534216" lon="9.609833958375377"><ele>784.0</ele><time>2026-05-01T16:29:27Z</time></trkpt><trkpt lat="44.53675661011198" lon="9.60976275943154"><ele>784.0</ele><time>2026-05-01T16:29:28Z</time></trkpt><trkpt lat="44.53684966779384" lon="9.609699959154641"><ele>784.0</ele><time>2026-05-01T16:29:29Z</time></trkpt><trkpt lat="44.536941816060235" lon="9.609638638375209"><ele>784.0</ele><time>2026-05-01T16:29:30Z</time></trkpt><trkpt lat="44.53703167268656" lon="9.60957633031745"><ele>784.0</ele><time>2026-05-01T16:29:31Z</time></trkpt><trkpt lat="44.537126589789835" lon="9.609517973336008"><ele>784.0</ele><time>2026-05-01T16:29:32Z</time></trkpt><trkpt lat="44.53722911397366" lon="9.609468268121246"><ele>784.0</ele><time>2026-05-01T16:29:33Z</time></trkpt><trkpt lat="44.53733809890825" lon="9.609421822105821"><ele>784.0</ele><time>2026-05-01T16:29:34Z</time></trkpt><trkpt lat="44.53745552494541" lon="9.609382304335352"><ele>782.5</ele><time>2026-05-01T16:29:35Z</time></trkpt><trkpt lat="44.53757737614478" lon="9.609366993181027"><ele>781.0</ele><time>2026-05-01T16:29:36Z</time></trkpt><trkpt lat="44.53769142328559" lon="9.609308121037582"><ele>779.5</ele><time>2026-05-01T16:29:37Z</time></trkpt><trkpt lat="44.5378073990824" lon="9.609270322926328"><ele>778.0</ele><time>2026-05-01T16:29:38Z</time></trkpt><trkpt lat="44.53792445368482" lon="9.60925418742271"><ele>778.0</ele><time>2026-05-01T16:29:39Z</time></trkpt><trkpt lat="44.53803674456898" lon="9.609219982798145"><ele>778.0</ele><time>2026-05-01T16:29:40Z</time></trkpt><trkpt lat="44.538147967256165" lon="9.609175918489159"><ele>778.0</ele><time>2026-05-01T16:29:41Z</time></trkpt><trkpt lat="44.53824519637706" lon="9.6090831483502"><ele>778.0</ele><time>2026-05-01T16:29:42Z</time></trkpt><trkpt lat="44.538336134865446" lon="9.608999404112026"><ele>778.0</ele><time>2026-05-01T16:29:43Z</time></trkpt><trkpt lat="44.53843001044587" lon="9.608928941947221"><ele>778.0</ele><time>2026-05-01T16:29:44Z</time></trkpt><trkpt lat="44.53850085706442" lon="9.608820475285857"><ele>778.0</ele><time>2026-05-01T16:29:45Z</time></trkpt><trkpt lat="44.538579091128305" lon="9.608733696488446"><ele>778.0</ele><time>2026-05-01T16:29:46Z</time></trkpt><trkpt lat="44.53865255638368" lon="9.608641173880116"><ele>778.0</ele><time>2026-05-01T16:29:47Z</time></trkpt><trkpt lat="44.53871804476814" lon="9.608548133257269"><ele>775.8333333333333</ele><time>2026-05-01T16:29:48Z</time></trkpt><trkpt lat="44.5387853473661" lon="9.608461330398939"><ele>773.6666666666666</ele><time>2026-05-01T16:29:49Z</time></trkpt><trkpt lat="44.53886018080109" lon="9.608391949420433"><ele>771.5</ele><time>2026-05-01T16:29:50Z</time></trkpt><trkpt lat="44.53894991713036" lon="9.608379010794806"><ele>769.3333333333333</ele><time>2026-05-01T16:29:51Z</time></trkpt><trkpt lat="44.53903284522745" lon="9.60836061969409"><ele>767.1666666666666</ele><time>2026-05-01T16:29:52Z</time></trkpt><trkpt lat="44.53911264900766" lon="9.608305339754072"><ele>765.0</ele><time>2026-05-01T16:29:53Z</time></trkpt><trkpt lat="44.53920310470843" lon="9.608272753928526"><ele>765.0</ele><time>2026-05-01T16:29:54Z</time></trkpt><trkpt lat="44.5392827257698" lon="9.608171013610852"><ele>765.0</ele><time>2026-05-01T16:29:55Z</time></trkpt><trkpt lat="44.53932152929322" lon="9.608010785578836"><ele>765.0</ele><time>2026-05-01T16:29:56Z</time></trkpt><trkpt lat="44.53939229570327" lon="9.607882717138008"><ele>765.0</ele><time>2026-05-01T16:29:57Z</time></trkpt><trkpt lat="44.53943302056223" lon="9.607726948247192"><ele>764.25</ele><time>2026-05-01T16:29:58Z</time></trkpt><trkpt lat="44.53949495985411" lon="9.60757928555493"><ele>763.5</ele><time>2026-05-01T16:29:59Z</time></trkpt><trkpt lat="44.53955105092882" lon="9.607430107355178"><ele>762.75</ele><time>2026-05-01T16:30:00Z</time></trkpt><trkpt lat="44.53960225241095" lon="9.607286010704383"><ele>762.0</ele><time>2026-05-01T16:30:01Z</time></trkpt><trkpt lat="44.53965605714761" lon="9.607147091779344"><ele>762.0</ele><time>2026-05-01T16:30:02Z</time></trkpt><trkpt lat="44.53971047526282" lon="9.607014653083157"><ele>762.0</ele><time>2026-05-01T16:30:03Z</time></trkpt><trkpt lat="44.539760860631354" lon="9.60688501552543"><ele>762.0</ele><time>2026-05-01T16:30:04Z</time></trkpt><trkpt lat="44.53981026401088" lon="9.606759892517925"><ele>762.0</ele><time>2026-05-01T16:30:05Z</time></trkpt><trkpt lat="44.53986443958248" lon="9.606642909630704"><ele>762.0</ele><time>2026-05-01T16:30:06Z</time></trkpt><trkpt lat="44.53992220587292" lon="9.606534252576948"><ele>760.6</ele><time>2026-05-01T16:30:07Z</time></trkpt><trkpt lat="44.539997243115074" lon="9.606451559304244"><ele>759.2</ele><time>2026-05-01T16:30:08Z</time></trkpt><trkpt lat="44.540070409195756" lon="9.606364278922507"><ele>757.8</ele><time>2026-05-01T16:30:09Z</time></trkpt><trkpt lat="44.54013079834187" lon="9.60626276717913"><ele>756.4</ele><time>2026-05-01T16:30:10Z</time></trkpt><trkpt lat="44.54021176649975" lon="9.606199127012204"><ele>755.0</ele><time>2026-05-01T16:30:11Z</time></trkpt><trkpt lat="44.540278859477056" lon="9.606113993062138"><ele>754.6666666666666</ele><time>2026-05-01T16:30:12Z</time></trkpt><trkpt lat="44.540337457019696" lon="9.606017033083424"><ele>754.3333333333333</ele><time>2026-05-01T16:30:13Z</time></trkpt><trkpt lat="44.54037321861352" lon="9.605905881046127"><ele>754.0</ele><time>2026-05-01T16:30:14Z</time></trkpt><trkpt lat="44.540425369795926" lon="9.605811646754344"><ele>753.6666666666666</ele><time>2026-05-01T16:30:15Z</time></trkpt><trkpt lat="44.54048372578413" lon="9.605727115242964"><ele>753.3333333333334</ele><time>2026-05-01T16:30:16Z</time></trkpt><trkpt lat="44.54055381559468" lon="9.605659665627789"><ele>753.0</ele><time>2026-05-01T16:30:17Z</time></trkpt><trkpt lat="44.54064067760769" lon="9.60561646571945"><ele>753.0</ele><time>2026-05-01T16:30:18Z</time></trkpt><trkpt lat="44.54074334377547" lon="9.60559785150869"><ele>753.0</ele><time>2026-05-01T16:30:19Z</time></trkpt><trkpt lat="44.540842831596066" lon="9.605606582716288"><ele>753.0</ele><time>2026-05-01T16:30:20Z</time></trkpt><trkpt lat="44.540941526687845" lon="9.60562707878973"><ele>753.0</ele><time>2026-05-01T16:30:21Z</time></trkpt><trkpt lat="44.541044189967955" lon="9.605641191635693"><ele>753.0</ele><time>2026-05-01T16:30:22Z</time></trkpt><trkpt lat="44.54114622716688" lon="9.605654237889256"><ele>752.8</ele><time>2026-05-01T16:30:23Z</time></trkpt><trkpt lat="44.541249592303174" lon="9.605667895081112"><ele>752.5999999999999</ele><time>2026-05-01T16:30:24Z</time></trkpt><trkpt lat="44.541352888058825" lon="9.605675866783534"><ele>752.4000000000001</ele><time>2026-05-01T16:30:25Z</time></trkpt><trkpt lat="44.541456830548015" lon="9.605680561850642"><ele>752.2</ele><time>2026-05-01T16:30:26Z</time></trkpt><trkpt lat="44.54156175096378" lon="9.605706558298747"><ele>752.0</ele><time>2026-05-01T16:30:27Z</time></trkpt><trkpt lat="44.54167095379759" lon="9.605687653725317"><ele>752.0</ele><time>2026-05-01T16:30:28Z</time></trkpt><trkpt lat="44.54178022174939" lon="9.605689264529232"><ele>752.0</ele><time>2026-05-01T16:30:29Z</time></trkpt><trkpt lat="44.54188900651098" lon="9.605689482732949"><ele>752.0</ele><time>2026-05-01T16:30:30Z</time></trkpt><trkpt lat="44.54199636687829" lon="9.605689533542979"><ele>752.0</ele><time>2026-05-01T16:30:31Z</time></trkpt><trkpt lat="44.542100413326224" lon="9.605691177578459"><ele>752.0</ele><time>2026-05-01T16:30:32Z</time></trkpt><trkpt lat="44.542201663194156" lon="9.605715987455769"><ele>752.0</ele><time>2026-05-01T16:30:33Z</time></trkpt><trkpt lat="44.54230420850427" lon="9.605692866665473"><ele>752.0</ele><time>2026-05-01T16:30:34Z</time></trkpt><trkpt lat="44.54240023234908" lon="9.605643909240342"><ele>752.0</ele><time>2026-05-01T16:30:35Z</time></trkpt><trkpt lat="44.54248097134767" lon="9.605549468109418"><ele>752.0</ele><time>2026-05-01T16:30:36Z</time></trkpt><trkpt lat="44.54255414579246" lon="9.605466002335541"><ele>752.0</ele><time>2026-05-01T16:30:37Z</time></trkpt><trkpt lat="44.54263849971667" lon="9.605405678575044"><ele>752.0</ele><time>2026-05-01T16:30:38Z</time></trkpt><trkpt lat="44.54272424016757" lon="9.605359452126217"><ele>752.0</ele><time>2026-05-01T16:30:39Z</time></trkpt><trkpt lat="44.54280622680267" lon="9.605318006106934"><ele>752.0</ele><time>2026-05-01T16:30:40Z</time></trkpt><trkpt lat="44.54288386956672" lon="9.60527944217467"><ele>752.0</ele><time>2026-05-01T16:30:41Z</time></trkpt><trkpt lat="44.54294961364216" lon="9.605225279216828"><ele>752.0</ele><time>2026-05-01T16:30:42Z</time></trkpt><trkpt lat="44.54301762230024" lon="9.605189758768196"><ele>752.0</ele><time>2026-05-01T16:30:43Z</time></trkpt><trkpt lat="44.54307375767746" lon="9.605141148595457"><ele>749.2</ele><time>2026-05-01T16:30:44Z</time></trkpt><trkpt lat="44.54314975562218" lon="9.605026889361877"><ele>746.4000000000001</ele><time>2026-05-01T16:30:46Z</time></trkpt><trkpt lat="44.5430523110701" lon="9.604902526984583"><ele>743.5999999999999</ele><time>2026-05-01T16:30:48Z</time></trkpt><trkpt lat="44.542990199083384" lon="9.604920316691405"><ele>740.8</ele><time>2026-05-01T16:30:51Z</time></trkpt><trkpt lat="44.542948325673734" lon="9.604998266127815"><ele>738.0</ele><time>2026-05-01T16:31:53Z</time></trkpt><trkpt lat="44.54283047130846" lon="9.605064535227724"><ele>740.8</ele><time>2026-05-01T16:31:55Z</time></trkpt><trkpt lat="44.54275557324111" lon="9.605124012350625"><ele>743.5999999999999</ele><time>2026-05-01T16:31:56Z</time></trkpt><trkpt lat="44.542663959320905" lon="9.605158460750408"><ele>746.4000000000001</ele><time>2026-05-01T16:31:57Z</time></trkpt><trkpt lat="44.54256019784651" lon="9.605216896264675"><ele>749.2</ele><time>2026-05-01T16:31:58Z</time></trkpt><trkpt lat="44.54246212205428" lon="9.605287741333278"><ele>752.0</ele><time>2026-05-01T16:31:59Z</time></trkpt><trkpt lat="44.542348312214756" lon="9.605330513400702"><ele>752.0</ele><time>2026-05-01T16:32:00Z</time></trkpt><trkpt lat="44.54222565099965" lon="9.605355597444403"><ele>752.0</ele><time>2026-05-01T16:32:01Z</time></trkpt><trkpt lat="44.54209804797849" lon="9.605347942565388"><ele>752.0</ele><time>2026-05-01T16:32:02Z</time></trkpt><trkpt lat="44.54197243018678" lon="9.605319343507803"><ele>752.0</ele><time>2026-05-01T16:32:03Z</time></trkpt><trkpt lat="44.541847736258326" lon="9.605283387394355"><ele>743.5</ele><time>2026-05-01T16:32:04Z</time></trkpt><trkpt lat="44.54172307179882" lon="9.605245163158258"><ele>735.0</ele><time>2026-05-01T16:32:05Z</time></trkpt><trkpt lat="44.5415959403253" lon="9.605212404127936"><ele>726.5</ele><time>2026-05-01T16:32:06Z</time></trkpt><trkpt lat="44.541468270461465" lon="9.60517940729227"><ele>718.0</ele><time>2026-05-01T16:32:07Z</time></trkpt><trkpt lat="44.54133962642964" lon="9.605137487399697"><ele>719.75</ele><time>2026-05-01T16:32:08Z</time></trkpt><trkpt lat="44.5412122253241" lon="9.60508578635889"><ele>721.5</ele><time>2026-05-01T16:32:09Z</time></trkpt><trkpt lat="44.54108292594084" lon="9.605033180412946"><ele>723.25</ele><time>2026-05-01T16:32:10Z</time></trkpt><trkpt lat="44.54094855578747" lon="9.604981664860217"><ele>725.0</ele><time>2026-05-01T16:32:11Z</time></trkpt><trkpt lat="44.54082588871284" lon="9.604932396661198"><ele>725.0</ele><time>2026-05-01T16:32:12Z</time></trkpt><trkpt lat="44.54070714021512" lon="9.604868933974519"><ele>725.0</ele><time>2026-05-01T16:32:13Z</time></trkpt><trkpt lat="44.540586386734205" lon="9.604787657505359"><ele>725.0</ele><time>2026-05-01T16:32:14Z</time></trkpt><trkpt lat="44.54047808831517" lon="9.604668516158531"><ele>725.0</ele><time>2026-05-01T16:32:15Z</time></trkpt><trkpt lat="44.540393426285526" lon="9.604514640820929"><ele>721.0</ele><time>2026-05-01T16:32:16Z</time></trkpt><trkpt lat="44.5403378306136" lon="9.604333810393104"><ele>717.0</ele><time>2026-05-01T16:32:17Z</time></trkpt><trkpt lat="44.54030511772661" lon="9.604130228540196"><ele>713.0</ele><time>2026-05-01T16:32:18Z</time></trkpt><trkpt lat="44.54027560857774" lon="9.603697828111896"><ele>711.25</ele><time>2026-05-01T16:32:20Z</time></trkpt><trkpt lat="44.54026507943265" lon="9.603490320299304"><ele>709.5</ele><time>2026-05-01T16:32:21Z</time></trkpt><trkpt lat="44.54025049576412" lon="9.603289393361896"><ele>707.75</ele><time>2026-05-01T16:32:22Z</time></trkpt><trkpt lat="44.540235378193906" lon="9.603090237103544"><ele>706.0</ele><time>2026-05-01T16:32:23Z</time></trkpt><trkpt lat="44.54022141345894" lon="9.602888512600307"><ele>707.5</ele><time>2026-05-01T16:32:24Z</time></trkpt><trkpt lat="44.540207054098786" lon="9.602685691078433"><ele>709.0</ele><time>2026-05-01T16:32:25Z</time></trkpt><trkpt lat="44.54017683510716" lon="9.602496863627392"><ele>710.5</ele><time>2026-05-01T16:32:26Z</time></trkpt><trkpt lat="44.54011428473821" lon="9.602326028532648"><ele>712.0</ele><time>2026-05-01T16:32:27Z</time></trkpt><trkpt lat="44.54001777019156" lon="9.602159780796987"><ele>716.6666666666667</ele><time>2026-05-01T16:32:28Z</time></trkpt><trkpt lat="44.539888714512124" lon="9.601993435038816"><ele>721.3333333333334</ele><time>2026-05-01T16:32:29Z</time></trkpt><trkpt lat="44.53972997985387" lon="9.60183344056008"><ele>726.0</ele><time>2026-05-01T16:32:30Z</time></trkpt><trkpt lat="44.53955109485212" lon="9.601658872780849"><ele>728.0</ele><time>2026-05-01T16:32:31Z</time></trkpt><trkpt lat="44.539388814417656" lon="9.601479289778112"><ele>730.0</ele><time>2026-05-01T16:32:32Z</time></trkpt><trkpt lat="44.53924490675045" lon="9.60131505327304"><ele>732.0</ele><time>2026-05-01T16:32:33Z</time></trkpt><trkpt lat="44.53912340188692" lon="9.601149325042037"><ele>732.0</ele><time>2026-05-01T16:32:34Z</time></trkpt><trkpt lat="44.539023049468845" lon="9.600982831156646"><ele>732.0</ele><time>2026-05-01T16:32:35Z</time></trkpt><trkpt lat="44.53896014102098" lon="9.600804449316524"><ele>732.0</ele><time>2026-05-01T16:32:36Z</time></trkpt><trkpt lat="44.53892988620682" lon="9.600598175715438"><ele>732.0</ele><time>2026-05-01T16:32:37Z</time></trkpt><trkpt lat="44.538917767232675" lon="9.600346375325039"><ele>735.0</ele><time>2026-05-01T16:32:38Z</time></trkpt><trkpt lat="44.538872945867304" lon="9.60005877514959"><ele>738.0</ele><time>2026-05-01T16:32:39Z</time></trkpt><trkpt lat="44.53884476270213" lon="9.59977899433152"><ele>741.0</ele><time>2026-05-01T16:32:40Z</time></trkpt><trkpt lat="44.53880762778241" lon="9.599463174632211"><ele>743.0</ele><time>2026-05-01T16:32:41Z</time></trkpt><trkpt lat="44.53875631449424" lon="9.599158014597704"><ele>745.0</ele><time>2026-05-01T16:32:42Z</time></trkpt><trkpt lat="44.53870588043399" lon="9.59887427194992"><ele>747.0</ele><time>2026-05-01T16:32:43Z</time></trkpt><trkpt lat="44.53865140197274" lon="9.598623508297093"><ele>737.0</ele><time>2026-05-01T16:32:44Z</time></trkpt><trkpt lat="44.53859608126333" lon="9.598384058372003"><ele>727.0</ele><time>2026-05-01T16:32:45Z</time></trkpt><trkpt lat="44.53853370516008" lon="9.598176005243198"><ele>717.0</ele><time>2026-05-01T16:32:46Z</time></trkpt><trkpt lat="44.538469485820194" lon="9.597979977193006"><ele>720.6666666666666</ele><time>2026-05-01T16:32:47Z</time></trkpt><trkpt lat="44.53839699206794" lon="9.597774902911194"><ele>724.3333333333333</ele><time>2026-05-01T16:32:48Z</time></trkpt><trkpt lat="44.53829683012923" lon="9.597553574740171"><ele>728.0</ele><time>2026-05-01T16:32:49Z</time></trkpt><trkpt lat="44.5381696097249" lon="9.597338696036772"><ele>728.0</ele><time>2026-05-01T16:32:50Z</time></trkpt><trkpt lat="44.53803604829289" lon="9.597109160629229"><ele>728.0</ele><time>2026-05-01T16:32:51Z</time></trkpt><trkpt lat="44.53792118022874" lon="9.596891339064705"><ele>728.0</ele><time>2026-05-01T16:32:52Z</time></trkpt><trkpt lat="44.537816580359475" lon="9.596686693886962"><ele>724.6666666666666</ele><time>2026-05-01T16:32:53Z</time></trkpt><trkpt lat="44.537718891736205" lon="9.596508894996829"><ele>721.3333333333334</ele><time>2026-05-01T16:32:54Z</time></trkpt><trkpt lat="44.537599260816904" lon="9.59637981913601"><ele>718.0</ele><time>2026-05-01T16:32:55Z</time></trkpt><trkpt lat="44.53745764489529" lon="9.596266961156921"><ele>718.0</ele><time>2026-05-01T16:32:56Z</time></trkpt><trkpt lat="44.53729217280276" lon="9.596184247002924"><ele>718.0</ele><time>2026-05-01T16:32:57Z</time></trkpt><trkpt lat="44.53710244045736" lon="9.596111207010141"><ele>718.0</ele><time>2026-05-01T16:32:58Z</time></trkpt><trkpt lat="44.53690931626979" lon="9.596008411845139"><ele>720.0</ele><time>2026-05-01T16:32:59Z</time></trkpt><trkpt lat="44.536732931271835" lon="9.595899193230567"><ele>722.0</ele><time>2026-05-01T16:33:00Z</time></trkpt><trkpt lat="44.53657275150659" lon="9.595795769652106"><ele>724.0</ele><time>2026-05-01T16:33:01Z</time></trkpt><trkpt lat="44.53642036672085" lon="9.595716159413536"><ele>724.0</ele><time>2026-05-01T16:33:02Z</time></trkpt><trkpt lat="44.53629140383585" lon="9.595633316669192"><ele>724.0</ele><time>2026-05-01T16:33:03Z</time></trkpt><trkpt lat="44.53616996059864" lon="9.595539118115466"><ele>724.0</ele><time>2026-05-01T16:33:04Z</time></trkpt><trkpt lat="44.536082599546866" lon="9.595422365236995"><ele>724.0</ele><time>2026-05-01T16:33:05Z</time></trkpt><trkpt lat="44.53603467457316" lon="9.595278485130324"><ele>722.5</ele><time>2026-05-01T16:33:06Z</time></trkpt><trkpt lat="44.53600653149762" lon="9.595114055682927"><ele>721.0</ele><time>2026-05-01T16:33:07Z</time></trkpt><trkpt lat="44.535997390514645" lon="9.594931194357471"><ele>719.5</ele><time>2026-05-01T16:33:08Z</time></trkpt><trkpt lat="44.53598166295918" lon="9.594740485817924"><ele>718.0</ele><time>2026-05-01T16:33:09Z</time></trkpt><trkpt lat="44.53595433684356" lon="9.594544533805852"><ele>719.25</ele><time>2026-05-01T16:33:10Z</time></trkpt><trkpt lat="44.53591037588464" lon="9.594353284026923"><ele>720.5</ele><time>2026-05-01T16:33:11Z</time></trkpt><trkpt lat="44.53585968765163" lon="9.594172570328363"><ele>721.75</ele><time>2026-05-01T16:33:12Z</time></trkpt><trkpt lat="44.53582798500668" lon="9.594012106597631"><ele>723.0</ele><time>2026-05-01T16:33:13Z</time></trkpt><trkpt lat="44.535816419994966" lon="9.593842529804897"><ele>724.3333333333334</ele><time>2026-05-01T16:33:14Z</time></trkpt><trkpt lat="44.53581233061151" lon="9.593628888647324"><ele>725.6666666666667</ele><time>2026-05-01T16:33:15Z</time></trkpt><trkpt lat="44.53580433229469" lon="9.593395841369782"><ele>727.0</ele><time>2026-05-01T16:33:16Z</time></trkpt><trkpt lat="44.53578657599649" lon="9.593163429800567"><ele>727.0</ele><time>2026-05-01T16:33:17Z</time></trkpt><trkpt lat="44.53575675846299" lon="9.592924632603623"><ele>727.0</ele><time>2026-05-01T16:33:18Z</time></trkpt><trkpt lat="44.535710495937884" lon="9.59268136332772"><ele>727.0</ele><time>2026-05-01T16:33:19Z</time></trkpt><trkpt lat="44.53565879512074" lon="9.592437607731037"><ele>728.0</ele><time>2026-05-01T16:33:20Z</time></trkpt><trkpt lat="44.535600204571175" lon="9.592179739057595"><ele>729.0</ele><time>2026-05-01T16:33:21Z</time></trkpt><trkpt lat="44.53553273971579" lon="9.59190635241962"><ele>730.0</ele><time>2026-05-01T16:33:22Z</time></trkpt><trkpt lat="44.53546612885828" lon="9.59162682588501"><ele>730.6666666666667</ele><time>2026-05-01T16:33:23Z</time></trkpt><trkpt lat="44.53540593976522" lon="9.591341531843172"><ele>731.3333333333334</ele><time>2026-05-01T16:33:24Z</time></trkpt><trkpt lat="44.53534879293534" lon="9.591050254563294"><ele>732.0</ele><time>2026-05-01T16:33:25Z</time></trkpt><trkpt lat="44.53529442174453" lon="9.590772717615422"><ele>729.3333333333334</ele><time>2026-05-01T16:33:26Z</time></trkpt><trkpt lat="44.535238833826384" lon="9.590525286125308"><ele>726.6666666666667</ele><time>2026-05-01T16:33:27Z</time></trkpt><trkpt lat="44.535186998941036" lon="9.590294347045276"><ele>724.0</ele><time>2026-05-01T16:33:28Z</time></trkpt><trkpt lat="44.53513772203156" lon="9.590080652974196"><ele>724.0</ele><time>2026-05-01T16:33:29Z</time></trkpt><trkpt lat="44.535088734680215" lon="9.589862527464836"><ele>724.0</ele><time>2026-05-01T16:33:30Z</time></trkpt><trkpt lat="44.53504432704096" lon="9.589645993570274"><ele>724.0</ele><time>2026-05-01T16:33:31Z</time></trkpt><trkpt lat="44.535000006512014" lon="9.589423672906173"><ele>724.6666666666667</ele><time>2026-05-01T16:33:32Z</time></trkpt><trkpt lat="44.53496263410399" lon="9.589196993074756"><ele>725.3333333333334</ele><time>2026-05-01T16:33:33Z</time></trkpt><trkpt lat="44.534930284894855" lon="9.588954304876474"><ele>726.0</ele><time>2026-05-01T16:33:34Z</time></trkpt><trkpt lat="44.53490154844383" lon="9.58870367008797"><ele>727.3333333333334</ele><time>2026-05-01T16:33:35Z</time></trkpt><trkpt lat="44.534858439148145" lon="9.588443471989137"><ele>728.6666666666667</ele><time>2026-05-01T16:33:36Z</time></trkpt><trkpt lat="44.53480351787207" lon="9.588188227719023"><ele>730.0</ele><time>2026-05-01T16:33:37Z</time></trkpt><trkpt lat="44.53474829552385" lon="9.587938913587108"><ele>734.3333333333334</ele><time>2026-05-01T16:33:38Z</time></trkpt><trkpt lat="44.53469731024102" lon="9.587691665868666"><ele>738.6666666666666</ele><time>2026-05-01T16:33:39Z</time></trkpt><trkpt lat="44.53463931272203" lon="9.587444125408007"><ele>743.0</ele><time>2026-05-01T16:33:40Z</time></trkpt><trkpt lat="44.53456997269666" lon="9.587213678219504"><ele>738.3333333333333</ele><time>2026-05-01T16:33:41Z</time></trkpt><trkpt lat="44.53449074697744" lon="9.587010202663915"><ele>733.6666666666666</ele><time>2026-05-01T16:33:42Z</time></trkpt><trkpt lat="44.53441598387302" lon="9.586817168654006"><ele>729.0</ele><time>2026-05-01T16:33:43Z</time></trkpt><trkpt lat="44.534341081243504" lon="9.586629331923389"><ele>729.0</ele><time>2026-05-01T16:33:44Z</time></trkpt><trkpt lat="44.53427391892344" lon="9.586441064924054"><ele>729.0</ele><time>2026-05-01T16:33:45Z</time></trkpt><trkpt lat="44.53422232147892" lon="9.586253924954242"><ele>729.0</ele><time>2026-05-01T16:33:46Z</time></trkpt><trkpt lat="44.53418441082007" lon="9.586063099828015"><ele>729.0</ele><time>2026-05-01T16:33:47Z</time></trkpt><trkpt lat="44.53416735962706" lon="9.58584910985402"><ele>729.3333333333334</ele><time>2026-05-01T16:33:48Z</time></trkpt><trkpt lat="44.5341515824107" lon="9.585625931828627"><ele>729.6666666666667</ele><time>2026-05-01T16:33:49Z</time></trkpt><trkpt lat="44.534117474989884" lon="9.585389114318899"><ele>730.0</ele><time>2026-05-01T16:33:50Z</time></trkpt><trkpt lat="44.5340746358619" lon="9.585148802807101"><ele>730.6666666666667</ele><time>2026-05-01T16:33:51Z</time></trkpt><trkpt lat="44.53403258703394" lon="9.584908367602438"><ele>731.3333333333334</ele><time>2026-05-01T16:33:52Z</time></trkpt><trkpt lat="44.533990176752695" lon="9.584667403584293"><ele>732.0</ele><time>2026-05-01T16:33:53Z</time></trkpt><trkpt lat="44.533926737391724" lon="9.584424048148207"><ele>732.3333333333334</ele><time>2026-05-01T16:33:54Z</time></trkpt><trkpt lat="44.533832643417995" lon="9.58419304886212"><ele>732.6666666666667</ele><time>2026-05-01T16:33:55Z</time></trkpt><trkpt lat="44.533740062689425" lon="9.583984456572502"><ele>733.0</ele><time>2026-05-01T16:33:56Z</time></trkpt><trkpt lat="44.5336611671102" lon="9.583788084949612"><ele>732.0</ele><time>2026-05-01T16:33:57Z</time></trkpt><trkpt lat="44.53359075453356" lon="9.583597587993301"><ele>731.0</ele><time>2026-05-01T16:33:58Z</time></trkpt><trkpt lat="44.533537199016344" lon="9.583404089432477"><ele>730.0</ele><time>2026-05-01T16:33:59Z</time></trkpt><trkpt lat="44.533500923711095" lon="9.583207753018716"><ele>729.0</ele><time>2026-05-01T16:34:00Z</time></trkpt><trkpt lat="44.53348850788431" lon="9.583027449547881"><ele>729.0</ele><time>2026-05-01T16:34:01Z</time></trkpt><trkpt lat="44.53350170437694" lon="9.582863445291775"><ele>729.0</ele><time>2026-05-01T16:34:02Z</time></trkpt><trkpt lat="44.533549255670266" lon="9.582695171022616"><ele>729.0</ele><time>2026-05-01T16:34:03Z</time></trkpt><trkpt lat="44.53360536878888" lon="9.582515978572943"><ele>729.0</ele><time>2026-05-01T16:34:04Z</time></trkpt><trkpt lat="44.53364308705827" lon="9.58231408021311"><ele>729.25</ele><time>2026-05-01T16:34:05Z</time></trkpt><trkpt lat="44.53365991669719" lon="9.582096741869407"><ele>729.5</ele><time>2026-05-01T16:34:06Z</time></trkpt><trkpt lat="44.533662674304495" lon="9.581886565204695"><ele>729.75</ele><time>2026-05-01T16:34:07Z</time></trkpt><trkpt lat="44.5336586906107" lon="9.581695064433031"><ele>730.0</ele><time>2026-05-01T16:34:08Z</time></trkpt><trkpt lat="44.53366001838305" lon="9.581516761989082"><ele>730.0</ele><time>2026-05-01T16:34:09Z</time></trkpt><trkpt lat="44.5336633725327" lon="9.581334204781133"><ele>730.0</ele><time>2026-05-01T16:34:10Z</time></trkpt><trkpt lat="44.5336689501305" lon="9.581151514675222"><ele>730.0</ele><time>2026-05-01T16:34:11Z</time></trkpt><trkpt lat="44.53369217710577" lon="9.580992976841845"><ele>730.0</ele><time>2026-05-01T16:34:12Z</time></trkpt><trkpt lat="44.533707769622104" lon="9.580845609516926"><ele>730.0</ele><time>2026-05-01T16:34:13Z</time></trkpt><trkpt lat="44.53369361448025" lon="9.580695946647616"><ele>730.0</ele><time>2026-05-01T16:34:14Z</time></trkpt><trkpt lat="44.53363574043061" lon="9.58055230407971"><ele>730.0</ele><time>2026-05-01T16:34:15Z</time></trkpt><trkpt lat="44.533540208456884" lon="9.58040462645337"><ele>730.0</ele><time>2026-05-01T16:34:16Z</time></trkpt><trkpt lat="44.53342888788828" lon="9.580253534077757"><ele>734.0</ele><time>2026-05-01T16:34:17Z</time></trkpt><trkpt lat="44.53331607122119" lon="9.580081175829067"><ele>738.0</ele><time>2026-05-01T16:34:18Z</time></trkpt><trkpt lat="44.53319495709116" lon="9.579874663856815"><ele>742.0</ele><time>2026-05-01T16:34:19Z</time></trkpt><trkpt lat="44.53304667778991" lon="9.579669503359638"><ele>744.0</ele><time>2026-05-01T16:34:20Z</time></trkpt><trkpt lat="44.5328519752123" lon="9.579478907961976"><ele>746.0</ele><time>2026-05-01T16:34:21Z</time></trkpt><trkpt lat="44.5326374661103" lon="9.579305468006607"><ele>746.0</ele><time>2026-05-01T16:34:22Z</time></trkpt><trkpt lat="44.532445981748516" lon="9.579143089148758"><ele>746.0</ele><time>2026-05-01T16:34:23Z</time></trkpt><trkpt lat="44.53227812617724" lon="9.578989586841118"><ele>746.0</ele><time>2026-05-01T16:34:24Z</time></trkpt><trkpt lat="44.532121515450214" lon="9.578861630142363"><ele>745.0</ele><time>2026-05-01T16:34:25Z</time></trkpt><trkpt lat="44.53197516679746" lon="9.578750277215159"><ele>744.0</ele><time>2026-05-01T16:34:26Z</time></trkpt><trkpt lat="44.53186236954549" lon="9.57864927082331"><ele>743.0</ele><time>2026-05-01T16:34:27Z</time></trkpt><trkpt lat="44.53176274751268" lon="9.578532443262807"><ele>742.0</ele><time>2026-05-01T16:34:28Z</time></trkpt><trkpt lat="44.53167899015464" lon="9.578372533518229"><ele>742.0</ele><time>2026-05-01T16:34:29Z</time></trkpt><trkpt lat="44.531613456118" lon="9.578172357297008"><ele>742.0</ele><time>2026-05-01T16:34:30Z</time></trkpt><trkpt lat="44.531568133090964" lon="9.577969061399383"><ele>742.0</ele><time>2026-05-01T16:34:31Z</time></trkpt><trkpt lat="44.531545114632955" lon="9.577774733837275"><ele>742.0</ele><time>2026-05-01T16:34:32Z</time></trkpt><trkpt lat="44.53154291583901" lon="9.577583158130114"><ele>742.0</ele><time>2026-05-01T16:34:33Z</time></trkpt><trkpt lat="44.5315640181397" lon="9.577400253262022"><ele>742.0</ele><time>2026-05-01T16:34:34Z</time></trkpt><trkpt lat="44.53162877020343" lon="9.577229630869903"><ele>742.0</ele><time>2026-05-01T16:34:35Z</time></trkpt><trkpt lat="44.5317294476315" lon="9.577075889173237"><ele>742.0</ele><time>2026-05-01T16:34:36Z</time></trkpt><trkpt lat="44.5318385476731" lon="9.576939177810695"><ele>742.0</ele><time>2026-05-01T16:34:37Z</time></trkpt><trkpt lat="44.53193175783435" lon="9.576802725539793"><ele>742.0</ele><time>2026-05-01T16:34:38Z</time></trkpt><trkpt lat="44.53201078002321" lon="9.576630652879352"><ele>742.0</ele><time>2026-05-01T16:34:39Z</time></trkpt><trkpt lat="44.53207079726145" lon="9.576433407701208"><ele>742.0</ele><time>2026-05-01T16:34:40Z</time></trkpt><trkpt lat="44.53209319010883" lon="9.576216406778574"><ele>742.0</ele><time>2026-05-01T16:34:41Z</time></trkpt><trkpt lat="44.532080135847934" lon="9.57599692190576"><ele>742.0</ele><time>2026-05-01T16:34:42Z</time></trkpt><trkpt lat="44.53203816373561" lon="9.575760594088258"><ele>742.0</ele><time>2026-05-01T16:34:43Z</time></trkpt><trkpt lat="44.53196159300809" lon="9.575510882201154"><ele>744.3333333333334</ele><time>2026-05-01T16:34:44Z</time></trkpt><trkpt lat="44.531860942346626" lon="9.575245175671363"><ele>746.6666666666666</ele><time>2026-05-01T16:34:45Z</time></trkpt><trkpt lat="44.53175238054971" lon="9.57500118762288"><ele>749.0</ele><time>2026-05-01T16:34:46Z</time></trkpt><trkpt lat="44.53164219367223" lon="9.574793954542372"><ele>749.0</ele><time>2026-05-01T16:34:47Z</time></trkpt><trkpt lat="44.53153770031896" lon="9.574591113882159"><ele>749.0</ele><time>2026-05-01T16:34:48Z</time></trkpt><trkpt lat="44.53142544874957" lon="9.574368264872685"><ele>749.0</ele><time>2026-05-01T16:34:49Z</time></trkpt><trkpt lat="44.53128294391861" lon="9.574155686792666"><ele>747.3333333333333</ele><time>2026-05-01T16:34:50Z</time></trkpt><trkpt lat="44.53111501683053" lon="9.57396797619778"><ele>745.6666666666666</ele><time>2026-05-01T16:34:51Z</time></trkpt><trkpt lat="44.53094300552763" lon="9.573839214134997"><ele>744.0</ele><time>2026-05-01T16:34:52Z</time></trkpt><trkpt lat="44.53078345508901" lon="9.573739746377234"><ele>744.5</ele><time>2026-05-01T16:34:53Z</time></trkpt><trkpt lat="44.53062922231724" lon="9.573665803697256"><ele>745.0</ele><time>2026-05-01T16:34:54Z</time></trkpt><trkpt lat="44.530488180923555" lon="9.573618178928236"><ele>745.5</ele><time>2026-05-01T16:34:55Z</time></trkpt><trkpt lat="44.53036617947956" lon="9.573572935415886"><ele>746.0</ele><time>2026-05-01T16:34:56Z</time></trkpt><trkpt lat="44.53026835677036" lon="9.573510806539538"><ele>746.0</ele><time>2026-05-01T16:34:57Z</time></trkpt><trkpt lat="44.53019550182201" lon="9.573415595529067"><ele>746.0</ele><time>2026-05-01T16:34:58Z</time></trkpt><trkpt lat="44.53014463020478" lon="9.573279243525816"><ele>746.0</ele><time>2026-05-01T16:34:59Z</time></trkpt><trkpt lat="44.530098721728045" lon="9.57309018129922"><ele>746.0</ele><time>2026-05-01T16:35:00Z</time></trkpt><trkpt lat="44.530049773750854" lon="9.572867461610045"><ele>749.0</ele><time>2026-05-01T16:35:01Z</time></trkpt><trkpt lat="44.5300005035135" lon="9.572627491182224"><ele>752.0</ele><time>2026-05-01T16:35:02Z</time></trkpt><trkpt lat="44.52996093440241" lon="9.572398631097709"><ele>755.0</ele><time>2026-05-01T16:35:03Z</time></trkpt><trkpt lat="44.529912088640856" lon="9.572188083433941"><ele>756.0</ele><time>2026-05-01T16:35:04Z</time></trkpt><trkpt lat="44.52985537498208" lon="9.571994926756787"><ele>757.0</ele><time>2026-05-01T16:35:05Z</time></trkpt><trkpt lat="44.529797959601304" lon="9.571819299086991"><ele>758.0</ele><time>2026-05-01T16:35:06Z</time></trkpt><trkpt lat="44.52974431028174" lon="9.571641640433404"><ele>759.0</ele><time>2026-05-01T16:35:07Z</time></trkpt><trkpt lat="44.52970193600028" lon="9.571478625381323"><ele>759.0</ele><time>2026-05-01T16:35:08Z</time></trkpt><trkpt lat="44.529658462492314" lon="9.571328700423873"><ele>759.0</ele><time>2026-05-01T16:35:09Z</time></trkpt><trkpt lat="44.52961924399113" lon="9.57117975004109"><ele>759.0</ele><time>2026-05-01T16:35:10Z</time></trkpt><trkpt lat="44.529594009284104" lon="9.571032817996363"><ele>759.0</ele><time>2026-05-01T16:35:11Z</time></trkpt><trkpt lat="44.52959708314224" lon="9.570889928923847"><ele>759.0</ele><time>2026-05-01T16:35:12Z</time></trkpt><trkpt lat="44.52965799855996" lon="9.570742083987"><ele>759.75</ele><time>2026-05-01T16:35:13Z</time></trkpt><trkpt lat="44.52973805883216" lon="9.570592206124205"><ele>760.5</ele><time>2026-05-01T16:35:14Z</time></trkpt><trkpt lat="44.529813834153764" lon="9.570439634237761"><ele>761.25</ele><time>2026-05-01T16:35:15Z</time></trkpt><trkpt lat="44.52985931417474" lon="9.57026653916718"><ele>762.0</ele><time>2026-05-01T16:35:16Z</time></trkpt><trkpt lat="44.52987443798061" lon="9.570054960647104"><ele>762.3333333333334</ele><time>2026-05-01T16:35:17Z</time></trkpt><trkpt lat="44.52986857952683" lon="9.569806018957069"><ele>762.6666666666667</ele><time>2026-05-01T16:35:18Z</time></trkpt><trkpt lat="44.529849029363476" lon="9.569533571693576"><ele>763.0</ele><time>2026-05-01T16:35:19Z</time></trkpt><trkpt lat="44.52982577907182" lon="9.569295170868026"><ele>767.3333333333334</ele><time>2026-05-01T16:35:20Z</time></trkpt><trkpt lat="44.52978636150179" lon="9.569075871042234"><ele>771.6666666666667</ele><time>2026-05-01T16:35:21Z</time></trkpt><trkpt lat="44.52970974365423" lon="9.56884652478294"><ele>776.0</ele><time>2026-05-01T16:35:22Z</time></trkpt><trkpt lat="44.52961129342807" lon="9.568634655168252"><ele>770.3333333333334</ele><time>2026-05-01T16:35:23Z</time></trkpt><trkpt lat="44.52950546999452" lon="9.5684686883734"><ele>764.6666666666667</ele><time>2026-05-01T16:35:24Z</time></trkpt><trkpt lat="44.52938264381498" lon="9.568305079661457"><ele>759.0</ele><time>2026-05-01T16:35:25Z</time></trkpt><trkpt lat="44.529242187588125" lon="9.568153110565312"><ele>759.0</ele><time>2026-05-01T16:35:26Z</time></trkpt><trkpt lat="44.52911283018639" lon="9.568026667138577"><ele>759.0</ele><time>2026-05-01T16:35:27Z</time></trkpt><trkpt lat="44.528997379976374" lon="9.567896829149426"><ele>759.0</ele><time>2026-05-01T16:35:28Z</time></trkpt><trkpt lat="44.52888727890175" lon="9.56774787493869"><ele>759.75</ele><time>2026-05-01T16:35:29Z</time></trkpt><trkpt lat="44.52879423875479" lon="9.56759305682207"><ele>760.5</ele><time>2026-05-01T16:35:30Z</time></trkpt><trkpt lat="44.52871632792898" lon="9.567453309183886"><ele>761.25</ele><time>2026-05-01T16:35:31Z</time></trkpt><trkpt lat="44.528655709244056" lon="9.5673271988265"><ele>762.0</ele><time>2026-05-01T16:35:32Z</time></trkpt><trkpt lat="44.528610019569705" lon="9.567203179826985"><ele>760.25</ele><time>2026-05-01T16:35:33Z</time></trkpt><trkpt lat="44.52859289632889" lon="9.567066323360212"><ele>758.5</ele><time>2026-05-01T16:35:34Z</time></trkpt><trkpt lat="44.528609861211685" lon="9.56690332879576"><ele>756.75</ele><time>2026-05-01T16:35:35Z</time></trkpt><trkpt lat="44.52862912274537" lon="9.566707048440861"><ele>755.0</ele><time>2026-05-01T16:35:36Z</time></trkpt><trkpt lat="44.528648860492126" lon="9.566502369779956"><ele>754.75</ele><time>2026-05-01T16:35:37Z</time></trkpt><trkpt lat="44.52866301981122" lon="9.566315585312912"><ele>754.5</ele><time>2026-05-01T16:35:38Z</time></trkpt><trkpt lat="44.528683148509806" lon="9.566163256300028"><ele>754.25</ele><time>2026-05-01T16:35:39Z</time></trkpt><trkpt lat="44.528729451655835" lon="9.566029101732308"><ele>754.0</ele><time>2026-05-01T16:35:40Z</time></trkpt><trkpt lat="44.528791016797605" lon="9.565875743719769"><ele>758.0</ele><time>2026-05-01T16:35:41Z</time></trkpt><trkpt lat="44.528858271074455" lon="9.56569538592513"><ele>762.0</ele><time>2026-05-01T16:35:42Z</time></trkpt><trkpt lat="44.52892119193493" lon="9.565515698227705"><ele>766.0</ele><time>2026-05-01T16:35:43Z</time></trkpt><trkpt lat="44.528967482338054" lon="9.565346895465911"><ele>770.0</ele><time>2026-05-01T16:35:44Z</time></trkpt><trkpt lat="44.5290201987025" lon="9.565202563711505"><ele>770.0</ele><time>2026-05-01T16:35:45Z</time></trkpt><trkpt lat="44.52910154003362" lon="9.565067896659137"><ele>770.0</ele><time>2026-05-01T16:35:46Z</time></trkpt><trkpt lat="44.52919265369899" lon="9.564931399229868"><ele>770.0</ele><time>2026-05-01T16:35:47Z</time></trkpt><trkpt lat="44.52927390895677" lon="9.564789535214103"><ele>770.0</ele><time>2026-05-01T16:35:48Z</time></trkpt><trkpt lat="44.529346576864405" lon="9.564643066679839"><ele>768.75</ele><time>2026-05-01T16:35:49Z</time></trkpt><trkpt lat="44.52940346305012" lon="9.564500186333333"><ele>767.5</ele><time>2026-05-01T16:35:50Z</time></trkpt><trkpt lat="44.529442402063765" lon="9.564342692824605"><ele>766.25</ele><time>2026-05-01T16:35:51Z</time></trkpt><trkpt lat="44.52945117422553" lon="9.56416234687156"><ele>765.0</ele><time>2026-05-01T16:35:52Z</time></trkpt><trkpt lat="44.529418409511564" lon="9.563978484069311"><ele>765.0</ele><time>2026-05-01T16:35:53Z</time></trkpt><trkpt lat="44.52934844535171" lon="9.56379187665304"><ele>765.0</ele><time>2026-05-01T16:35:54Z</time></trkpt><trkpt lat="44.5292433582076" lon="9.563596780627693"><ele>765.0</ele><time>2026-05-01T16:35:55Z</time></trkpt><trkpt lat="44.529099725424395" lon="9.563393417844168"><ele>767.0</ele><time>2026-05-01T16:35:56Z</time></trkpt><trkpt lat="44.52898876988033" lon="9.563199022969975"><ele>769.0</ele><time>2026-05-01T16:35:57Z</time></trkpt><trkpt lat="44.52888518349931" lon="9.562993476218086"><ele>771.0</ele><time>2026-05-01T16:35:58Z</time></trkpt><trkpt lat="44.52879796108299" lon="9.562851113494693"><ele>769.25</ele><time>2026-05-01T16:35:59Z</time></trkpt><trkpt lat="44.52869758692865" lon="9.562705097741949"><ele>767.5</ele><time>2026-05-01T16:36:00Z</time></trkpt><trkpt lat="44.528587636532905" lon="9.562567989729546"><ele>765.75</ele><time>2026-05-01T16:36:01Z</time></trkpt><trkpt lat="44.52848223651931" lon="9.562442557656627"><ele>764.0</ele><time>2026-05-01T16:36:02Z</time></trkpt><trkpt lat="44.52839457622162" lon="9.56233097602224"><ele>764.0</ele><time>2026-05-01T16:36:03Z</time></trkpt><trkpt lat="44.52830694894405" lon="9.562217922975277"><ele>764.0</ele><time>2026-05-01T16:36:04Z</time></trkpt><trkpt lat="44.528215379879406" lon="9.56207248656083"><ele>764.0</ele><time>2026-05-01T16:36:05Z</time></trkpt><trkpt lat="44.5281127821985" lon="9.561940732908965"><ele>764.0</ele><time>2026-05-01T16:36:06Z</time></trkpt><trkpt lat="44.52799591289326" lon="9.56181923093127"><ele>764.75</ele><time>2026-05-01T16:36:07Z</time></trkpt><trkpt lat="44.52786993267356" lon="9.561724888559832"><ele>765.5</ele><time>2026-05-01T16:36:08Z</time></trkpt><trkpt lat="44.527735824585875" lon="9.56165688706468"><ele>766.25</ele><time>2026-05-01T16:36:09Z</time></trkpt><trkpt lat="44.527600091322924" lon="9.56162615029142"><ele>767.0</ele><time>2026-05-01T16:36:10Z</time></trkpt><trkpt lat="44.52746902225552" lon="9.561581844424321"><ele>767.0</ele><time>2026-05-01T16:36:11Z</time></trkpt><trkpt lat="44.52734637786896" lon="9.56152776591888"><ele>767.0</ele><time>2026-05-01T16:36:12Z</time></trkpt><trkpt lat="44.5272399126101" lon="9.56145216961739"><ele>767.0</ele><time>2026-05-01T16:36:13Z</time></trkpt><trkpt lat="44.52714257751623" lon="9.561382111607598"><ele>767.0</ele><time>2026-05-01T16:36:14Z</time></trkpt><trkpt lat="44.52705446932008" lon="9.561305565442206"><ele>767.1666666666666</ele><time>2026-05-01T16:36:15Z</time></trkpt><trkpt lat="44.526976568187756" lon="9.561234822676003"><ele>767.3333333333333</ele><time>2026-05-01T16:36:16Z</time></trkpt><trkpt lat="44.52690433898203" lon="9.561169676979828"><ele>767.5</ele><time>2026-05-01T16:36:17Z</time></trkpt><trkpt lat="44.526835876101075" lon="9.561107826843228"><ele>767.6666666666666</ele><time>2026-05-01T16:36:18Z</time></trkpt><trkpt lat="44.5267726735139" lon="9.561056500816601"><ele>767.8333333333334</ele><time>2026-05-01T16:36:19Z</time></trkpt><trkpt lat="44.52670802216992" lon="9.560996787954613"><ele>768.0</ele><time>2026-05-01T16:36:20Z</time></trkpt><trkpt lat="44.526654825934365" lon="9.560938607459642"><ele>768.0</ele><time>2026-05-01T16:36:21Z</time></trkpt><trkpt lat="44.52660627130798" lon="9.560874229156841"><ele>768.0</ele><time>2026-05-01T16:36:22Z</time></trkpt><trkpt lat="44.526573714456156" lon="9.56076748149385"><ele>768.0</ele><time>2026-05-01T16:36:23Z</time></trkpt><trkpt lat="44.526558220416504" lon="9.560631480458053"><ele>768.0</ele><time>2026-05-01T16:36:24Z</time></trkpt><trkpt lat="44.52652984690312" lon="9.56050233325175"><ele>768.0</ele><time>2026-05-01T16:36:25Z</time></trkpt><trkpt lat="44.52650380666389" lon="9.56039862266494"><ele>768.0</ele><time>2026-05-01T16:36:26Z</time></trkpt><trkpt lat="44.526473658871666" lon="9.56028868296229"><ele>769.4</ele><time>2026-05-01T16:36:27Z</time></trkpt><trkpt lat="44.526441430976334" lon="9.560165383364252"><ele>770.8</ele><time>2026-05-01T16:36:28Z</time></trkpt><trkpt lat="44.52641078913768" lon="9.560027343658343"><ele>772.2</ele><time>2026-05-01T16:36:29Z</time></trkpt><trkpt lat="44.526390261285044" lon="9.559909493938093"><ele>773.6</ele><time>2026-05-01T16:36:30Z</time></trkpt><trkpt lat="44.526379692425024" lon="9.559791965917325"><ele>775.0</ele><time>2026-05-01T16:36:31Z</time></trkpt><trkpt lat="44.52638038118544" lon="9.5596678667109"><ele>774.9999999999999</ele><time>2026-05-01T16:36:32Z</time></trkpt><trkpt lat="44.52638147159994" lon="9.559536484196018"><ele>775.0</ele><time>2026-05-01T16:36:33Z</time></trkpt><trkpt lat="44.52639500970502" lon="9.55941277916764"><ele>775.0</ele><time>2026-05-01T16:36:34Z</time></trkpt><trkpt lat="44.52641274218571" lon="9.559307595951712"><ele>775.0</ele><time>2026-05-01T16:36:35Z</time></trkpt><trkpt lat="44.526423705588485" lon="9.559196251006249"><ele>774.9999999999999</ele><time>2026-05-01T16:36:36Z</time></trkpt><trkpt lat="44.526431142739746" lon="9.559085303864506"><ele>775.0</ele><time>2026-05-01T16:36:37Z</time></trkpt><trkpt lat="44.526443961392" lon="9.558979319264271"><ele>774.6666666666666</ele><time>2026-05-01T16:36:38Z</time></trkpt><trkpt lat="44.52645855309442" lon="9.558884930049429"><ele>774.3333333333333</ele><time>2026-05-01T16:36:39Z</time></trkpt><trkpt lat="44.52647169869623" lon="9.55879768594319"><ele>774.0</ele><time>2026-05-01T16:36:40Z</time></trkpt><trkpt lat="44.52649998869689" lon="9.558674388881911"><ele>773.6666666666667</ele><time>2026-05-01T16:36:42Z</time></trkpt><trkpt lat="44.52651928288065" lon="9.55854401892381"><ele>773.3333333333334</ele><time>2026-05-01T16:36:44Z</time></trkpt><trkpt lat="44.526536061176465" lon="9.558457815315844"><ele>773.0</ele><time>2026-05-01T16:36:45Z</time></trkpt><trkpt lat="44.526563711132034" lon="9.55830492696953"><ele>772.0000000000001</ele><time>2026-05-01T16:36:47Z</time></trkpt><trkpt lat="44.52655025327358" lon="9.558201051963504"><ele>771.0</ele><time>2026-05-01T16:36:49Z</time></trkpt><trkpt lat="44.526493442358365" lon="9.558139070275653"><ele>770.0</ele><time>2026-05-01T16:36:52Z</time></trkpt><trkpt lat="44.52641663746311" lon="9.558098748590428"><ele>769.0</ele><time>2026-05-01T16:36:59Z</time></trkpt><trkpt lat="44.5263216792225" lon="9.558032015790378"><ele>768.0</ele><time>2026-05-01T16:37:01Z</time></trkpt><trkpt lat="44.526261364353466" lon="9.557959130093565"><ele>767.0</ele><time>2026-05-01T16:37:03Z</time></trkpt><trkpt lat="44.52618567082188" lon="9.557936400322447"><ele>767.0</ele><time>2026-05-01T16:37:05Z</time></trkpt><trkpt lat="44.526116376869474" lon="9.557901623960266"><ele>767.0</ele><time>2026-05-01T16:37:07Z</time></trkpt><trkpt lat="44.526043495520746" lon="9.557881201125664"><ele>767.0</ele><time>2026-05-01T16:37:09Z</time></trkpt><trkpt lat="44.52596946353229" lon="9.557866668473986"><ele>767.0</ele><time>2026-05-01T16:37:12Z</time></trkpt><trkpt lat="44.52587252790508" lon="9.557836993894695"><ele>767.0</ele><time>2026-05-01T16:37:15Z</time></trkpt><trkpt lat="44.5257665751637" lon="9.557846776667956"><ele>767.0</ele><time>2026-05-01T16:37:17Z</time></trkpt><trkpt lat="44.525702862146574" lon="9.557872182253247"><ele>767.0</ele><time>2026-05-01T16:37:19Z</time></trkpt><trkpt lat="44.52563674173924" lon="9.55789528786251"><ele>767.0</ele><time>2026-05-01T16:37:22Z</time></trkpt><trkpt lat="44.52556834164087" lon="9.557950758360096"><ele>767.0</ele><time>2026-05-01T16:37:26Z</time></trkpt><trkpt lat="44.52548990587486" lon="9.558014558377124"><ele>767.0</ele><time>2026-05-01T16:37:28Z</time></trkpt><trkpt lat="44.525423646861015" lon="9.558075897728846"><ele>767.0</ele><time>2026-05-01T16:37:29Z</time></trkpt><trkpt lat="44.52534646924128" lon="9.558162146746197"><ele>767.0</ele><time>2026-05-01T16:37:31Z</time></trkpt><trkpt lat="44.5252771956445" lon="9.558206483668803"><ele>766.6666666666666</ele><time>2026-05-01T16:37:36Z</time></trkpt><trkpt lat="44.52520776497895" lon="9.558253042798139"><ele>766.3333333333333</ele><time>2026-05-01T16:37:39Z</time></trkpt><trkpt lat="44.5251045520419" lon="9.558287786830594"><ele>766.0</ele><time>2026-05-01T16:37:42Z</time></trkpt><trkpt lat="44.525031824156116" lon="9.558261148149276"><ele>765.6666666666666</ele><time>2026-05-01T16:37:44Z</time></trkpt><trkpt lat="44.52496283822543" lon="9.558221601294356"><ele>765.3333333333334</ele><time>2026-05-01T16:37:48Z</time></trkpt><trkpt lat="44.52490091165646" lon="9.558192071098464"><ele>765.0</ele><time>2026-05-01T16:37:51Z</time></trkpt><trkpt lat="44.52483742895377" lon="9.55814830801656"><ele>765.0</ele><time>2026-05-01T16:37:54Z</time></trkpt><trkpt lat="44.52478766907039" lon="9.558023103248921"><ele>765.0</ele><time>2026-05-01T16:37:56Z</time></trkpt><trkpt lat="44.524773681606945" lon="9.557936067319966"><ele>765.0</ele><time>2026-05-01T16:37:57Z</time></trkpt><trkpt lat="44.52475526784249" lon="9.557787139003587"><ele>765.0</ele><time>2026-05-01T16:37:59Z</time></trkpt><trkpt lat="44.52474449677507" lon="9.557665966625951"><ele>765.0</ele><time>2026-05-01T16:38:01Z</time></trkpt><trkpt lat="44.524721976332124" lon="9.557543024294162"><ele>765.4</ele><time>2026-05-01T16:38:03Z</time></trkpt><trkpt lat="44.52470379709553" lon="9.55740672689959"><ele>765.8</ele><time>2026-05-01T16:38:05Z</time></trkpt><trkpt lat="44.524682852216536" lon="9.557247905368722"><ele>766.2</ele><time>2026-05-01T16:38:07Z</time></trkpt><trkpt lat="44.524674025434074" lon="9.557154796712936"><ele>766.6</ele><time>2026-05-01T16:38:08Z</time></trkpt><trkpt lat="44.52467103190026" lon="9.557043961044867"><ele>767.0</ele><time>2026-05-01T16:38:09Z</time></trkpt><trkpt lat="44.52463940188505" lon="9.556865915346014"><ele>768.2857142857143</ele><time>2026-05-01T16:38:11Z</time></trkpt><trkpt lat="44.52462802440369" lon="9.556766713723418"><ele>769.5714285714287</ele><time>2026-05-01T16:38:12Z</time></trkpt><trkpt lat="44.52460537573201" lon="9.556658628210688"><ele>770.8571428571429</ele><time>2026-05-01T16:38:13Z</time></trkpt><trkpt lat="44.52458922038948" lon="9.556555346777463"><ele>772.1428571428571</ele><time>2026-05-01T16:38:14Z</time></trkpt><trkpt lat="44.52457355115416" lon="9.556463691054915"><ele>773.4285714285714</ele><time>2026-05-01T16:38:15Z</time></trkpt><trkpt lat="44.5245562305697" lon="9.556373620817592"><ele>774.7142857142857</ele><time>2026-05-01T16:38:16Z</time></trkpt><trkpt lat="44.52453627242895" lon="9.556278573966244"><ele>776.0</ele><time>2026-05-01T16:38:17Z</time></trkpt><trkpt lat="44.52450596621465" lon="9.55618617851337"><ele>776.3333333333334</ele><time>2026-05-01T16:38:18Z</time></trkpt><trkpt lat="44.524465836695235" lon="9.556083205377178"><ele>776.6666666666667</ele><time>2026-05-01T16:38:19Z</time></trkpt><trkpt lat="44.524436279221355" lon="9.555974494639983"><ele>777.0</ele><time>2026-05-01T16:38:20Z</time></trkpt><trkpt lat="44.52439684984353" lon="9.555875612877545"><ele>777.3333333333333</ele><time>2026-05-01T16:38:21Z</time></trkpt><trkpt lat="44.52435334828694" lon="9.555791365125444"><ele>777.6666666666666</ele><time>2026-05-01T16:38:22Z</time></trkpt><trkpt lat="44.524308997737776" lon="9.555709426516007"><ele>778.0</ele><time>2026-05-01T16:38:23Z</time></trkpt><trkpt lat="44.52423172942857" lon="9.555593408273976"><ele>778.0</ele><time>2026-05-01T16:38:25Z</time></trkpt><trkpt lat="44.52416070360008" lon="9.555512158836025"><ele>778.0</ele><time>2026-05-01T16:38:27Z</time></trkpt><trkpt lat="44.524075934544946" lon="9.555478875357268"><ele>778.0</ele><time>2026-05-01T16:38:29Z</time></trkpt><trkpt lat="44.52394741458606" lon="9.555399391614984"><ele>778.0</ele><time>2026-05-01T16:38:31Z</time></trkpt><trkpt lat="44.52385039310267" lon="9.555347247180523"><ele>778.0</ele><time>2026-05-01T16:38:32Z</time></trkpt><trkpt lat="44.523724526106434" lon="9.555310365847415"><ele>778.75</ele><time>2026-05-01T16:38:33Z</time></trkpt><trkpt lat="44.523594416491726" lon="9.55525820176632"><ele>779.5</ele><time>2026-05-01T16:38:34Z</time></trkpt><trkpt lat="44.52347455612847" lon="9.555183106566538"><ele>780.25</ele><time>2026-05-01T16:38:35Z</time></trkpt><trkpt lat="44.52336056361967" lon="9.5550798163762"><ele>781.0</ele><time>2026-05-01T16:38:36Z</time></trkpt><trkpt lat="44.52324196883617" lon="9.554954573163304"><ele>781.0</ele><time>2026-05-01T16:38:37Z</time></trkpt><trkpt lat="44.523138645852384" lon="9.554811156867157"><ele>781.0</ele><time>2026-05-01T16:38:38Z</time></trkpt><trkpt lat="44.5230457446446" lon="9.554657239470913"><ele>781.0</ele><time>2026-05-01T16:38:39Z</time></trkpt><trkpt lat="44.52298161977707" lon="9.554494618330528"><ele>781.0</ele><time>2026-05-01T16:38:40Z</time></trkpt><trkpt lat="44.52292531001633" lon="9.55432059354992"><ele>783.0</ele><time>2026-05-01T16:38:41Z</time></trkpt><trkpt lat="44.52289170116896" lon="9.554132362084964"><ele>785.0</ele><time>2026-05-01T16:38:42Z</time></trkpt><trkpt lat="44.522884620836884" lon="9.553941768990612"><ele>787.0</ele><time>2026-05-01T16:38:43Z</time></trkpt><trkpt lat="44.52289620581215" lon="9.553748212191"><ele>789.0</ele><time>2026-05-01T16:38:44Z</time></trkpt><trkpt lat="44.52290274335494" lon="9.553573510571713"><ele>788.75</ele><time>2026-05-01T16:38:45Z</time></trkpt><trkpt lat="44.52289981523186" lon="9.553398355064529"><ele>788.5</ele><time>2026-05-01T16:38:46Z</time></trkpt><trkpt lat="44.52288220414588" lon="9.553210600124313"><ele>788.25</ele><time>2026-05-01T16:38:47Z</time></trkpt><trkpt lat="44.52285538828438" lon="9.553015810640952"><ele>788.0</ele><time>2026-05-01T16:38:48Z</time></trkpt><trkpt lat="44.52282620045413" lon="9.552824740754044"><ele>788.0</ele><time>2026-05-01T16:38:49Z</time></trkpt><trkpt lat="44.522798395566014" lon="9.552626079460868"><ele>788.0</ele><time>2026-05-01T16:38:50Z</time></trkpt><trkpt lat="44.5227749307501" lon="9.552427820336275"><ele>788.0</ele><time>2026-05-01T16:38:51Z</time></trkpt><trkpt lat="44.522745324448685" lon="9.55223600829348"><ele>788.0</ele><time>2026-05-01T16:38:52Z</time></trkpt><trkpt lat="44.52271174637819" lon="9.552042729118664"><ele>788.0</ele><time>2026-05-01T16:38:53Z</time></trkpt><trkpt lat="44.52268270946838" lon="9.551856312432594"><ele>788.0</ele><time>2026-05-01T16:38:54Z</time></trkpt><trkpt lat="44.52265366070443" lon="9.551670727931814"><ele>788.0</ele><time>2026-05-01T16:38:55Z</time></trkpt><trkpt lat="44.52262771469622" lon="9.551491539727657"><ele>788.0</ele><time>2026-05-01T16:38:56Z</time></trkpt><trkpt lat="44.522612587180326" lon="9.551324697063976"><ele>788.75</ele><time>2026-05-01T16:38:57Z</time></trkpt><trkpt lat="44.522609714182956" lon="9.55116265520637"><ele>789.5</ele><time>2026-05-01T16:38:58Z</time></trkpt><trkpt lat="44.52262319857041" lon="9.55099807800116"><ele>790.25</ele><time>2026-05-01T16:38:59Z</time></trkpt><trkpt lat="44.52265538368544" lon="9.550820642745695"><ele>791.0</ele><time>2026-05-01T16:39:00Z</time></trkpt><trkpt lat="44.522699798032" lon="9.550654243125432"><ele>791.0</ele><time>2026-05-01T16:39:01Z</time></trkpt><trkpt lat="44.52276325377125" lon="9.550507574175693"><ele>791.0</ele><time>2026-05-01T16:39:02Z</time></trkpt><trkpt lat="44.52282870110014" lon="9.55036990714668"><ele>791.0</ele><time>2026-05-01T16:39:03Z</time></trkpt><trkpt lat="44.52288725453915" lon="9.550225314970534"><ele>791.0</ele><time>2026-05-01T16:39:04Z</time></trkpt><trkpt lat="44.522944659766736" lon="9.550055608092888"><ele>793.5</ele><time>2026-05-01T16:39:05Z</time></trkpt><trkpt lat="44.52298854034491" lon="9.549881916424738"><ele>796.0</ele><time>2026-05-01T16:39:06Z</time></trkpt><trkpt lat="44.5230271970554" lon="9.549692407433636"><ele>798.5</ele><time>2026-05-01T16:39:07Z</time></trkpt><trkpt lat="44.52306134029971" lon="9.549489498920025"><ele>801.0</ele><time>2026-05-01T16:39:08Z</time></trkpt><trkpt lat="44.5230800017751" lon="9.549296903416854"><ele>801.0</ele><time>2026-05-01T16:39:09Z</time></trkpt><trkpt lat="44.52308680685568" lon="9.549109589022224"><ele>801.0</ele><time>2026-05-01T16:39:10Z</time></trkpt><trkpt lat="44.52308069175764" lon="9.548925601580992"><ele>801.0</ele><time>2026-05-01T16:39:11Z</time></trkpt><trkpt lat="44.523060762918995" lon="9.548750590911364"><ele>801.0</ele><time>2026-05-01T16:39:12Z</time></trkpt><trkpt lat="44.523032389217164" lon="9.548589505827294"><ele>797.75</ele><time>2026-05-01T16:39:13Z</time></trkpt><trkpt lat="44.52298135061628" lon="9.548447176800174"><ele>794.5</ele><time>2026-05-01T16:39:14Z</time></trkpt><trkpt lat="44.52289406409718" lon="9.548333042375864"><ele>791.25</ele><time>2026-05-01T16:39:15Z</time></trkpt><trkpt lat="44.52278461061229" lon="9.548248405430892"><ele>788.0</ele><time>2026-05-01T16:39:16Z</time></trkpt><trkpt lat="44.52268015049968" lon="9.548208593706503"><ele>788.0</ele><time>2026-05-01T16:39:17Z</time></trkpt><trkpt lat="44.52258985090947" lon="9.54821873513667"><ele>788.0</ele><time>2026-05-01T16:39:18Z</time></trkpt><trkpt lat="44.52250789586316" lon="9.54827574458104"><ele>788.0</ele><time>2026-05-01T16:39:19Z</time></trkpt><trkpt lat="44.52242442289087" lon="9.548421691795562"><ele>788.0</ele><time>2026-05-01T16:39:20Z</time></trkpt><trkpt lat="44.52232475811131" lon="9.5485572722212"><ele>788.0</ele><time>2026-05-01T16:39:21Z</time></trkpt><trkpt lat="44.522217388050144" lon="9.548698458859068"><ele>788.0</ele><time>2026-05-01T16:39:22Z</time></trkpt><trkpt lat="44.52209186649255" lon="9.548837203921469"><ele>788.0</ele><time>2026-05-01T16:39:23Z</time></trkpt><trkpt lat="44.521948918137966" lon="9.548978665819366"><ele>791.2</ele><time>2026-05-01T16:39:24Z</time></trkpt><trkpt lat="44.52181543492013" lon="9.549070824283085"><ele>794.4</ele><time>2026-05-01T16:39:25Z</time></trkpt><trkpt lat="44.521708108291115" lon="9.549119964286186"><ele>797.6</ele><time>2026-05-01T16:39:26Z</time></trkpt><trkpt lat="44.52161500898856" lon="9.549145343008243"><ele>800.8000000000001</ele><time>2026-05-01T16:39:27Z</time></trkpt><trkpt lat="44.521534180842316" lon="9.549132801706364"><ele>804.0</ele><time>2026-05-01T16:39:28Z</time></trkpt><trkpt lat="44.521487179700614" lon="9.549063701812857"><ele>804.0</ele><time>2026-05-01T16:39:29Z</time></trkpt><trkpt lat="44.52146784672387" lon="9.54897364046523"><ele>804.0</ele><time>2026-05-01T16:39:30Z</time></trkpt><trkpt lat="44.52148838536765" lon="9.548868601438175"><ele>804.0</ele><time>2026-05-01T16:39:31Z</time></trkpt><trkpt lat="44.521534559477324" lon="9.548780631504412"><ele>804.0</ele><time>2026-05-01T16:39:32Z</time></trkpt><trkpt lat="44.52159103942105" lon="9.548701552325452"><ele>804.0</ele><time>2026-05-01T16:39:33Z</time></trkpt><trkpt lat="44.52159436356523" lon="9.548592733350658"><ele>804.0</ele><time>2026-05-01T16:39:34Z</time></trkpt><trkpt lat="44.521563547822886" lon="9.548462127241356"><ele>801.75</ele><time>2026-05-01T16:39:35Z</time></trkpt><trkpt lat="44.52153604673492" lon="9.548314014631869"><ele>799.5</ele><time>2026-05-01T16:39:36Z</time></trkpt><trkpt lat="44.52150551340901" lon="9.54815199208214"><ele>797.25</ele><time>2026-05-01T16:39:37Z</time></trkpt><trkpt lat="44.52146651905403" lon="9.547982889707592"><ele>795.0</ele><time>2026-05-01T16:39:38Z</time></trkpt><trkpt lat="44.52142822894577" lon="9.547811443231101"><ele>795.0</ele><time>2026-05-01T16:39:39Z</time></trkpt><trkpt lat="44.52137718972587" lon="9.54764751359357"><ele>795.0</ele><time>2026-05-01T16:39:40Z</time></trkpt><trkpt lat="44.52132566208584" lon="9.547506145988457"><ele>795.0</ele><time>2026-05-01T16:39:41Z</time></trkpt><trkpt lat="44.521271791691476" lon="9.547377734824508"><ele>795.0</ele><time>2026-05-01T16:39:42Z</time></trkpt><trkpt lat="44.52119768885842" lon="9.547259571267476"><ele>796.25</ele><time>2026-05-01T16:39:43Z</time></trkpt><trkpt lat="44.52111473353765" lon="9.547141754935884"><ele>797.5</ele><time>2026-05-01T16:39:44Z</time></trkpt><trkpt lat="44.52102710869803" lon="9.54702232324623"><ele>798.75</ele><time>2026-05-01T16:39:45Z</time></trkpt><trkpt lat="44.52093691919301" lon="9.546902291791875"><ele>800.0</ele><time>2026-05-01T16:39:46Z</time></trkpt><trkpt lat="44.5208424524451" lon="9.54678867058407"><ele>800.0</ele><time>2026-05-01T16:39:47Z</time></trkpt><trkpt lat="44.520742780993764" lon="9.546686308643267"><ele>800.0</ele><time>2026-05-01T16:39:48Z</time></trkpt><trkpt lat="44.52064924601405" lon="9.546572521892386"><ele>800.0</ele><time>2026-05-01T16:39:49Z</time></trkpt><trkpt lat="44.5205589833961" lon="9.546444454855669"><ele>800.0</ele><time>2026-05-01T16:39:50Z</time></trkpt><trkpt lat="44.520479188355715" lon="9.5463004046816"><ele>800.75</ele><time>2026-05-01T16:39:51Z</time></trkpt><trkpt lat="44.520401628053406" lon="9.546146268175308"><ele>801.5</ele><time>2026-05-01T16:39:52Z</time></trkpt><trkpt lat="44.520325697432426" lon="9.546000073146198"><ele>802.25</ele><time>2026-05-01T16:39:53Z</time></trkpt><trkpt lat="44.520246889395395" lon="9.545869963886414"><ele>803.0</ele><time>2026-05-01T16:39:54Z</time></trkpt><trkpt lat="44.5201565628798" lon="9.545744090697404"><ele>802.75</ele><time>2026-05-01T16:39:55Z</time></trkpt><trkpt lat="44.52005924348739" lon="9.545621594505537"><ele>802.5</ele><time>2026-05-01T16:39:56Z</time></trkpt><trkpt lat="44.51996611480456" lon="9.545512657556676"><ele>802.25</ele><time>2026-05-01T16:39:57Z</time></trkpt><trkpt lat="44.51987844212888" lon="9.5454109179781"><ele>802.0</ele><time>2026-05-01T16:39:58Z</time></trkpt><trkpt lat="44.51978999834391" lon="9.545320516431927"><ele>802.0</ele><time>2026-05-01T16:39:59Z</time></trkpt><trkpt lat="44.51971635820177" lon="9.54523076238754"><ele>802.0</ele><time>2026-05-01T16:40:00Z</time></trkpt><trkpt lat="44.51965839472381" lon="9.545131458790348"><ele>802.0</ele><time>2026-05-01T16:40:01Z</time></trkpt><trkpt lat="44.51964871490329" lon="9.545011357747136"><ele>802.0</ele><time>2026-05-01T16:40:02Z</time></trkpt><trkpt lat="44.51966927429134" lon="9.544885527354738"><ele>802.0</ele><time>2026-05-01T16:40:03Z</time></trkpt><trkpt lat="44.51973065474325" lon="9.544776021975403"><ele>802.0</ele><time>2026-05-01T16:40:04Z</time></trkpt><trkpt lat="44.51980329166122" lon="9.544701453973602"><ele>802.0</ele><time>2026-05-01T16:40:05Z</time></trkpt><trkpt lat="44.51987310643421" lon="9.544637349960706"><ele>802.0</ele><time>2026-05-01T16:40:06Z</time></trkpt><trkpt lat="44.51993254106449" lon="9.544540787272348"><ele>802.0</ele><time>2026-05-01T16:40:07Z</time></trkpt><trkpt lat="44.51997768280123" lon="9.544411350911851"><ele>802.0</ele><time>2026-05-01T16:40:08Z</time></trkpt><trkpt lat="44.51998933495759" lon="9.544274012288641"><ele>802.25</ele><time>2026-05-01T16:40:09Z</time></trkpt><trkpt lat="44.51996304162018" lon="9.544127564157764"><ele>802.5</ele><time>2026-05-01T16:40:10Z</time></trkpt><trkpt lat="44.51990877622989" lon="9.543965373654682"><ele>802.75</ele><time>2026-05-01T16:40:11Z</time></trkpt><trkpt lat="44.51983067256384" lon="9.54378827774838"><ele>803.0</ele><time>2026-05-01T16:40:12Z</time></trkpt><trkpt lat="44.51975640299059" lon="9.543601298556293"><ele>807.6666666666667</ele><time>2026-05-01T16:40:13Z</time></trkpt><trkpt lat="44.519684553590125" lon="9.543412486585739"><ele>812.3333333333333</ele><time>2026-05-01T16:40:14Z</time></trkpt><trkpt lat="44.51962828654957" lon="9.543224130076231"><ele>817.0</ele><time>2026-05-01T16:40:15Z</time></trkpt><trkpt lat="44.51960872006504" lon="9.54300836211738"><ele>819.6666666666666</ele><time>2026-05-01T16:40:16Z</time></trkpt><trkpt lat="44.51959267498412" lon="9.542782583535258"><ele>822.3333333333333</ele><time>2026-05-01T16:40:17Z</time></trkpt><trkpt lat="44.51957930771141" lon="9.542555773657732"><ele>825.0</ele><time>2026-05-01T16:40:18Z</time></trkpt><trkpt lat="44.519570310578516" lon="9.542323450595399"><ele>819.6666666666667</ele><time>2026-05-01T16:40:19Z</time></trkpt><trkpt lat="44.51956087638898" lon="9.54208218182403"><ele>814.3333333333334</ele><time>2026-05-01T16:40:20Z</time></trkpt><trkpt lat="44.51954015060894" lon="9.541836772266889"><ele>809.0</ele><time>2026-05-01T16:40:21Z</time></trkpt><trkpt lat="44.51951401251938" lon="9.541588087091931"><ele>808.25</ele><time>2026-05-01T16:40:22Z</time></trkpt><trkpt lat="44.5194851065235" lon="9.541365977976266"><ele>807.5</ele><time>2026-05-01T16:40:23Z</time></trkpt><trkpt lat="44.519452080435904" lon="9.541161980518162"><ele>806.75</ele><time>2026-05-01T16:40:24Z</time></trkpt><trkpt lat="44.51941552336033" lon="9.540973859802612"><ele>806.0</ele><time>2026-05-01T16:40:25Z</time></trkpt><trkpt lat="44.51936882256095" lon="9.540812538078725"><ele>806.0</ele><time>2026-05-01T16:40:26Z</time></trkpt><trkpt lat="44.519317148312346" lon="9.54069533625329"><ele>806.0</ele><time>2026-05-01T16:40:27Z</time></trkpt><trkpt lat="44.51926618810972" lon="9.540578321735445"><ele>806.0</ele><time>2026-05-01T16:40:28Z</time></trkpt><trkpt lat="44.519219986870844" lon="9.540484734957616"><ele>806.0</ele><time>2026-05-01T16:40:29Z</time></trkpt><trkpt lat="44.51917570804279" lon="9.540381338148029"><ele>806.0</ele><time>2026-05-01T16:40:30Z</time></trkpt><trkpt lat="44.519118161283316" lon="9.540251327866832"><ele>809.25</ele><time>2026-05-01T16:40:31Z</time></trkpt><trkpt lat="44.519054539330114" lon="9.540108770322222"><ele>812.5</ele><time>2026-05-01T16:40:32Z</time></trkpt><trkpt lat="44.5189918695262" lon="9.539961255232157"><ele>815.75</ele><time>2026-05-01T16:40:33Z</time></trkpt><trkpt lat="44.518928965642615" lon="9.539813917500059"><ele>819.0</ele><time>2026-05-01T16:40:34Z</time></trkpt><trkpt lat="44.518863589607555" lon="9.539669925270738"><ele>819.5</ele><time>2026-05-01T16:40:35Z</time></trkpt><trkpt lat="44.51877806906909" lon="9.539537108981003"><ele>820.0</ele><time>2026-05-01T16:40:36Z</time></trkpt><trkpt lat="44.51866763255153" lon="9.53943380912579"><ele>820.5</ele><time>2026-05-01T16:40:37Z</time></trkpt><trkpt lat="44.518537297492195" lon="9.539361324787686"><ele>821.0</ele><time>2026-05-01T16:40:38Z</time></trkpt><trkpt lat="44.51839163688639" lon="9.539305893253102"><ele>821.0</ele><time>2026-05-01T16:40:39Z</time></trkpt><trkpt lat="44.518243410513136" lon="9.539251711518514"><ele>821.0</ele><time>2026-05-01T16:40:40Z</time></trkpt><trkpt lat="44.51809518284978" lon="9.53919042690589"><ele>821.0</ele><time>2026-05-01T16:40:41Z</time></trkpt><trkpt lat="44.51795508945545" lon="9.539130424394289"><ele>819.0</ele><time>2026-05-01T16:40:42Z</time></trkpt><trkpt lat="44.51782769923258" lon="9.539078056642843"><ele>817.0</ele><time>2026-05-01T16:40:43Z</time></trkpt><trkpt lat="44.51770421300431" lon="9.539024601177267"><ele>815.0</ele><time>2026-05-01T16:40:44Z</time></trkpt><trkpt lat="44.51758722937609" lon="9.5389718506291"><ele>813.0</ele><time>2026-05-01T16:40:45Z</time></trkpt><trkpt lat="44.517464847631025" lon="9.538925249747866"><ele>813.0</ele><time>2026-05-01T16:40:46Z</time></trkpt><trkpt lat="44.51733784352091" lon="9.538888249963485"><ele>813.0</ele><time>2026-05-01T16:40:47Z</time></trkpt><trkpt lat="44.51720317707667" lon="9.53883364082944"><ele>813.0</ele><time>2026-05-01T16:40:48Z</time></trkpt><trkpt lat="44.51706823055773" lon="9.538773960792657"><ele>813.0</ele><time>2026-05-01T16:40:49Z</time></trkpt><trkpt lat="44.51692926081381" lon="9.538708463820985"><ele>813.5</ele><time>2026-05-01T16:40:50Z</time></trkpt><trkpt lat="44.516789113049256" lon="9.538645467114995"><ele>814.0</ele><time>2026-05-01T16:40:51Z</time></trkpt><trkpt lat="44.516652658782164" lon="9.538588604390501"><ele>814.5</ele><time>2026-05-01T16:40:52Z</time></trkpt><trkpt lat="44.516526480603005" lon="9.53853813282716"><ele>815.0</ele><time>2026-05-01T16:40:53Z</time></trkpt><trkpt lat="44.516411895893626" lon="9.538485209145142"><ele>815.0</ele><time>2026-05-01T16:40:54Z</time></trkpt><trkpt lat="44.51631144808281" lon="9.53841587250687"><ele>815.0</ele><time>2026-05-01T16:40:55Z</time></trkpt><trkpt lat="44.51623190457895" lon="9.538307322281476"><ele>815.0</ele><time>2026-05-01T16:40:56Z</time></trkpt><trkpt lat="44.51617954859419" lon="9.538161530282618"><ele>815.0</ele><time>2026-05-01T16:40:57Z</time></trkpt><trkpt lat="44.51613936548639" lon="9.537983693273848"><ele>818.0</ele><time>2026-05-01T16:40:58Z</time></trkpt><trkpt lat="44.51608017263568" lon="9.537827602122064"><ele>821.0</ele><time>2026-05-01T16:40:59Z</time></trkpt><trkpt lat="44.51599447726391" lon="9.537702876178447"><ele>824.0</ele><time>2026-05-01T16:41:00Z</time></trkpt><trkpt lat="44.51587896978094" lon="9.53762734011652"><ele>827.0</ele><time>2026-05-01T16:41:01Z</time></trkpt><trkpt lat="44.515743604678526" lon="9.537589152946575"><ele>827.0</ele><time>2026-05-01T16:41:02Z</time></trkpt><trkpt lat="44.515598353673" lon="9.537577757512626"><ele>827.0</ele><time>2026-05-01T16:41:03Z</time></trkpt><trkpt lat="44.51543630893295" lon="9.537567186035476"><ele>827.0</ele><time>2026-05-01T16:41:04Z</time></trkpt><trkpt lat="44.51527081753586" lon="9.537546013268548"><ele>824.3333333333334</ele><time>2026-05-01T16:41:05Z</time></trkpt><trkpt lat="44.515112497937444" lon="9.537516011030988"><ele>821.6666666666667</ele><time>2026-05-01T16:41:06Z</time></trkpt><trkpt lat="44.51495908807708" lon="9.537490963034887"><ele>819.0</ele><time>2026-05-01T16:41:07Z</time></trkpt><trkpt lat="44.51482430293284" lon="9.53746156167658"><ele>819.0</ele><time>2026-05-01T16:41:08Z</time></trkpt><trkpt lat="44.51470257062124" lon="9.53740233427292"><ele>819.0</ele><time>2026-05-01T16:41:09Z</time></trkpt><trkpt lat="44.51460038965379" lon="9.537280379873188"><ele>819.0</ele><time>2026-05-01T16:41:10Z</time></trkpt><trkpt lat="44.51449581364594" lon="9.537147522723426"><ele>819.0</ele><time>2026-05-01T16:41:11Z</time></trkpt><trkpt lat="44.51436955668956" lon="9.537058583216137"><ele>824.6666666666667</ele><time>2026-05-01T16:41:12Z</time></trkpt><trkpt lat="44.514210720585" lon="9.537019026487092"><ele>830.3333333333334</ele><time>2026-05-01T16:41:13Z</time></trkpt><trkpt lat="44.51402276235731" lon="9.537010551103974"><ele>836.0</ele><time>2026-05-01T16:41:14Z</time></trkpt><trkpt lat="44.513843527507895" lon="9.53701306035037"><ele>833.6666666666667</ele><time>2026-05-01T16:41:15Z</time></trkpt><trkpt lat="44.51368009732505" lon="9.537000652677875"><ele>831.3333333333333</ele><time>2026-05-01T16:41:16Z</time></trkpt><trkpt lat="44.513529147080874" lon="9.53698466521497"><ele>829.0</ele><time>2026-05-01T16:41:17Z</time></trkpt><trkpt lat="44.513393617206965" lon="9.53696703614292"><ele>829.0</ele><time>2026-05-01T16:41:18Z</time></trkpt><trkpt lat="44.51327388476527" lon="9.536922794335757"><ele>829.0</ele><time>2026-05-01T16:41:19Z</time></trkpt><trkpt lat="44.51317401459174" lon="9.536828330350115"><ele>829.0</ele><time>2026-05-01T16:41:20Z</time></trkpt><trkpt lat="44.51309555669958" lon="9.536691876073785"><ele>829.0</ele><time>2026-05-01T16:41:21Z</time></trkpt><trkpt lat="44.51302354127271" lon="9.536515337397462"><ele>829.0</ele><time>2026-05-01T16:41:22Z</time></trkpt><trkpt lat="44.51293501608203" lon="9.536344132654134"><ele>829.0</ele><time>2026-05-01T16:41:23Z</time></trkpt><trkpt lat="44.512838056645386" lon="9.536195168226428"><ele>829.0</ele><time>2026-05-01T16:41:24Z</time></trkpt><trkpt lat="44.51272347247463" lon="9.536078489905188"><ele>829.0</ele><time>2026-05-01T16:41:25Z</time></trkpt><trkpt lat="44.51258769438099" lon="9.535986636232655"><ele>830.6666666666666</ele><time>2026-05-01T16:41:26Z</time></trkpt><trkpt lat="44.512436185175936" lon="9.535897615898804"><ele>832.3333333333333</ele><time>2026-05-01T16:41:27Z</time></trkpt><trkpt lat="44.51228009227672" lon="9.535800687544764"><ele>834.0</ele><time>2026-05-01T16:41:28Z</time></trkpt><trkpt lat="44.5121399322845" lon="9.535715631736743"><ele>831.75</ele><time>2026-05-01T16:41:29Z</time></trkpt><trkpt lat="44.51201207470521" lon="9.535657843406216"><ele>829.5</ele><time>2026-05-01T16:41:30Z</time></trkpt><trkpt lat="44.51188625992171" lon="9.535629449016778"><ele>827.25</ele><time>2026-05-01T16:41:31Z</time></trkpt><trkpt lat="44.51176376640766" lon="9.535626524809908"><ele>825.0</ele><time>2026-05-01T16:41:32Z</time></trkpt><trkpt lat="44.51165114122927" lon="9.53561368778755"><ele>825.0</ele><time>2026-05-01T16:41:33Z</time></trkpt><trkpt lat="44.51155116993653" lon="9.535566206482814"><ele>825.0</ele><time>2026-05-01T16:41:34Z</time></trkpt><trkpt lat="44.51146750307855" lon="9.535477669881997"><ele>825.0</ele><time>2026-05-01T16:41:35Z</time></trkpt><trkpt lat="44.51141109719756" lon="9.535351480113215"><ele>825.0</ele><time>2026-05-01T16:41:36Z</time></trkpt><trkpt lat="44.51137537786001" lon="9.535205856834477"><ele>825.0</ele><time>2026-05-01T16:41:37Z</time></trkpt><trkpt lat="44.5113297207015" lon="9.535068782010482"><ele>826.6</ele><time>2026-05-01T16:41:38Z</time></trkpt><trkpt lat="44.51127580055769" lon="9.53494308429795"><ele>828.2</ele><time>2026-05-01T16:41:39Z</time></trkpt><trkpt lat="44.51121323516705" lon="9.534819472511797"><ele>829.8</ele><time>2026-05-01T16:41:40Z</time></trkpt><trkpt lat="44.51113319109049" lon="9.534707858759088"><ele>831.4</ele><time>2026-05-01T16:41:41Z</time></trkpt><trkpt lat="44.51103353294828" lon="9.534624518409267"><ele>833.0</ele><time>2026-05-01T16:41:42Z</time></trkpt><trkpt lat="44.51092323831197" lon="9.534570251756552"><ele>838.0</ele><time>2026-05-01T16:41:43Z</time></trkpt><trkpt lat="44.51080503469438" lon="9.534538073939293"><ele>843.0</ele><time>2026-05-01T16:41:44Z</time></trkpt><trkpt lat="44.51068114228826" lon="9.534515018927431"><ele>848.0</ele><time>2026-05-01T16:41:45Z</time></trkpt><trkpt lat="44.510553218460736" lon="9.534489483736744"><ele>853.0</ele><time>2026-05-01T16:41:46Z</time></trkpt><trkpt lat="44.510437819168274" lon="9.53446286988885"><ele>849.8</ele><time>2026-05-01T16:41:47Z</time></trkpt><trkpt lat="44.51033267320016" lon="9.534426873966861"><ele>846.5999999999999</ele><time>2026-05-01T16:41:48Z</time></trkpt><trkpt lat="44.510237708660625" lon="9.534385481960257"><ele>843.4000000000001</ele><time>2026-05-01T16:41:49Z</time></trkpt><trkpt lat="44.51015471068225" lon="9.534330000068614"><ele>840.2</ele><time>2026-05-01T16:41:50Z</time></trkpt><trkpt lat="44.510087414222234" lon="9.534258624025115"><ele>837.0</ele><time>2026-05-01T16:41:51Z</time></trkpt><trkpt lat="44.51003107850171" lon="9.534172056017141"><ele>837.0</ele><time>2026-05-01T16:41:52Z</time></trkpt><trkpt lat="44.50998800185545" lon="9.534091928293272"><ele>837.0</ele><time>2026-05-01T16:41:53Z</time></trkpt><trkpt lat="44.50994257497208" lon="9.534007411160323"><ele>837.0</ele><time>2026-05-01T16:41:54Z</time></trkpt><trkpt lat="44.50989291777598" lon="9.533896689507246"><ele>837.0</ele><time>2026-05-01T16:41:55Z</time></trkpt><trkpt lat="44.509851101426946" lon="9.533749371063623"><ele>837.0</ele><time>2026-05-01T16:41:56Z</time></trkpt><trkpt lat="44.50982386107673" lon="9.533577414874529"><ele>839.5</ele><time>2026-05-01T16:41:57Z</time></trkpt><trkpt lat="44.50979738483653" lon="9.533396721865339"><ele>842.0</ele><time>2026-05-01T16:41:58Z</time></trkpt><trkpt lat="44.509768005105684" lon="9.533211241235511"><ele>844.5</ele><time>2026-05-01T16:41:59Z</time></trkpt><trkpt lat="44.50973041748258" lon="9.533018363824686"><ele>847.0</ele><time>2026-05-01T16:42:00Z</time></trkpt><trkpt lat="44.50969906118578" lon="9.532809122972283"><ele>845.0</ele><time>2026-05-01T16:42:01Z</time></trkpt><trkpt lat="44.50965985645653" lon="9.532596015929663"><ele>843.0</ele><time>2026-05-01T16:42:02Z</time></trkpt><trkpt lat="44.50959803128547" lon="9.53240993201228"><ele>841.0</ele><time>2026-05-01T16:42:03Z</time></trkpt><trkpt lat="44.5095169873392" lon="9.53226026396198"><ele>839.0</ele><time>2026-05-01T16:42:04Z</time></trkpt><trkpt lat="44.5094151995342" lon="9.532138274895571"><ele>847.6666666666667</ele><time>2026-05-01T16:42:05Z</time></trkpt><trkpt lat="44.50928352448607" lon="9.53205067572984"><ele>856.3333333333333</ele><time>2026-05-01T16:42:06Z</time></trkpt><trkpt lat="44.50913101537018" lon="9.531977265083071"><ele>865.0</ele><time>2026-05-01T16:42:07Z</time></trkpt><trkpt lat="44.50895296001067" lon="9.531914413465733"><ele>865.0</ele><time>2026-05-01T16:42:08Z</time></trkpt><trkpt lat="44.508772477025985" lon="9.531848894994203"><ele>865.0</ele><time>2026-05-01T16:42:09Z</time></trkpt><trkpt lat="44.508600390101265" lon="9.531796526562871"><ele>865.0</ele><time>2026-05-01T16:42:10Z</time></trkpt><trkpt lat="44.50844211673308" lon="9.531776568633923"><ele>858.6666666666666</ele><time>2026-05-01T16:42:11Z</time></trkpt><trkpt lat="44.508283964474494" lon="9.53179418403858"><ele>852.3333333333333</ele><time>2026-05-01T16:42:12Z</time></trkpt><trkpt lat="44.50810251089949" lon="9.531830625307448"><ele>846.0</ele><time>2026-05-01T16:42:13Z</time></trkpt><trkpt lat="44.507909008437025" lon="9.531873917053137"><ele>846.0</ele><time>2026-05-01T16:42:14Z</time></trkpt><trkpt lat="44.5076948669391" lon="9.531917416198095"><ele>846.0</ele><time>2026-05-01T16:42:15Z</time></trkpt><trkpt lat="44.50748677799522" lon="9.531953552828243"><ele>846.0</ele><time>2026-05-01T16:42:16Z</time></trkpt><trkpt lat="44.50730769271267" lon="9.531976276238252"><ele>846.0</ele><time>2026-05-01T16:42:17Z</time></trkpt><trkpt lat="44.50714949816206" lon="9.531973826845764"><ele>846.0</ele><time>2026-05-01T16:42:18Z</time></trkpt><trkpt lat="44.50701761350248" lon="9.53191727442428"><ele>846.0</ele><time>2026-05-01T16:42:19Z</time></trkpt><trkpt lat="44.5068962381008" lon="9.531805472594112"><ele>846.0</ele><time>2026-05-01T16:42:20Z</time></trkpt><trkpt lat="44.50677951169035" lon="9.531675087017168"><ele>846.5999999999999</ele><time>2026-05-01T16:42:21Z</time></trkpt><trkpt lat="44.50667557429296" lon="9.531584659840743"><ele>847.2</ele><time>2026-05-01T16:42:22Z</time></trkpt><trkpt lat="44.50658596919117" lon="9.531562485128987"><ele>847.8</ele><time>2026-05-01T16:42:23Z</time></trkpt><trkpt lat="44.50651511279822" lon="9.531583638453546"><ele>848.4000000000001</ele><time>2026-05-01T16:42:24Z</time></trkpt><trkpt lat="44.50643384869049" lon="9.531638912659277"><ele>849.0</ele><time>2026-05-01T16:42:25Z</time></trkpt><trkpt lat="44.506327189753364" lon="9.531705575642007"><ele>849.25</ele><time>2026-05-01T16:42:26Z</time></trkpt><trkpt lat="44.50620998159411" lon="9.531740962000733"><ele>849.5</ele><time>2026-05-01T16:42:27Z</time></trkpt><trkpt lat="44.506062243395164" lon="9.531723734401467"><ele>849.75</ele><time>2026-05-01T16:42:28Z</time></trkpt><trkpt lat="44.5059175467803" lon="9.531678016854196"><ele>850.0</ele><time>2026-05-01T16:42:29Z</time></trkpt><trkpt lat="44.50579113074928" lon="9.531657783265047"><ele>850.0</ele><time>2026-05-01T16:42:30Z</time></trkpt><trkpt lat="44.505682306155144" lon="9.531676637822981"><ele>850.0</ele><time>2026-05-01T16:42:31Z</time></trkpt><trkpt lat="44.505583377933526" lon="9.531738099702194"><ele>850.0</ele><time>2026-05-01T16:42:32Z</time></trkpt><trkpt lat="44.50548441900185" lon="9.531820180461061"><ele>850.0</ele><time>2026-05-01T16:42:33Z</time></trkpt><trkpt lat="44.50539011318927" lon="9.53193084704707"><ele>854.0</ele><time>2026-05-01T16:42:34Z</time></trkpt><trkpt lat="44.505288997591265" lon="9.532031697051114"><ele>858.0</ele><time>2026-05-01T16:42:35Z</time></trkpt><trkpt lat="44.50517749035626" lon="9.53209939127176"><ele>862.0</ele><time>2026-05-01T16:42:36Z</time></trkpt><trkpt lat="44.505062071816006" lon="9.532128856255918"><ele>866.0</ele><time>2026-05-01T16:42:37Z</time></trkpt><trkpt lat="44.504950029030766" lon="9.532157301951099"><ele>866.0</ele><time>2026-05-01T16:42:38Z</time></trkpt><trkpt lat="44.50483360393614" lon="9.532192511841519"><ele>866.0</ele><time>2026-05-01T16:42:39Z</time></trkpt><trkpt lat="44.50471052088183" lon="9.532229510627772"><ele>866.0</ele><time>2026-05-01T16:42:40Z</time></trkpt><trkpt lat="44.5045853933705" lon="9.532263650281648"><ele>866.0</ele><time>2026-05-01T16:42:41Z</time></trkpt><trkpt lat="44.50446249269243" lon="9.532271375044521"><ele>866.4</ele><time>2026-05-01T16:42:42Z</time></trkpt><trkpt lat="44.50434926738319" lon="9.532252166220927"><ele>866.8</ele><time>2026-05-01T16:42:43Z</time></trkpt><trkpt lat="44.50424863688116" lon="9.532265246311743"><ele>867.1999999999999</ele><time>2026-05-01T16:42:44Z</time></trkpt><trkpt lat="44.50416285805062" lon="9.532334625818581"><ele>867.5999999999999</ele><time>2026-05-01T16:42:45Z</time></trkpt><trkpt lat="44.504076735149376" lon="9.532456015875704"><ele>868.0</ele><time>2026-05-01T16:42:46Z</time></trkpt><trkpt lat="44.503990778786324" lon="9.53258531185371"><ele>868.0</ele><time>2026-05-01T16:42:47Z</time></trkpt><trkpt lat="44.50389565434804" lon="9.53267233854943"><ele>868.0</ele><time>2026-05-01T16:42:48Z</time></trkpt><trkpt lat="44.503780815968746" lon="9.532702100920506"><ele>868.0</ele><time>2026-05-01T16:42:49Z</time></trkpt><trkpt lat="44.50366315679949" lon="9.532701568681944"><ele>868.0</ele><time>2026-05-01T16:42:50Z</time></trkpt><trkpt lat="44.503549635845026" lon="9.532651943014887"><ele>867.5999999999999</ele><time>2026-05-01T16:42:51Z</time></trkpt><trkpt lat="44.503443319417485" lon="9.532644659356624"><ele>867.1999999999999</ele><time>2026-05-01T16:42:52Z</time></trkpt><trkpt lat="44.50334014904076" lon="9.53270604533652"><ele>866.8</ele><time>2026-05-01T16:42:53Z</time></trkpt><trkpt lat="44.503256187831504" lon="9.532821232687853"><ele>866.4</ele><time>2026-05-01T16:42:54Z</time></trkpt><trkpt lat="44.50320548600652" lon="9.53293342666826"><ele>866.0</ele><time>2026-05-01T16:42:55Z</time></trkpt><trkpt lat="44.50321249338399" lon="9.533035424004886"><ele>868.0</ele><time>2026-05-01T16:42:56Z</time></trkpt><trkpt lat="44.50325371492201" lon="9.533115307718266"><ele>869.9999999999999</ele><time>2026-05-01T16:42:57Z</time></trkpt><trkpt lat="44.503314358099594" lon="9.533158974211627"><ele>871.9999999999999</ele><time>2026-05-01T16:42:58Z</time></trkpt><trkpt lat="44.503437789764696" lon="9.533116669804537"><ele>874.0</ele><time>2026-05-01T16:43:00Z</time></trkpt><trkpt lat="44.503513661208814" lon="9.53304396456543"><ele>876.0</ele><time>2026-05-01T16:43:01Z</time></trkpt><trkpt lat="44.50361420915332" lon="9.532947289950144"><ele>876.0</ele><time>2026-05-01T16:43:02Z</time></trkpt><trkpt lat="44.50371815408843" lon="9.532913750738599"><ele>876.0</ele><time>2026-05-01T16:43:03Z</time></trkpt><trkpt lat="44.50382005779523" lon="9.532932997775891"><ele>876.0</ele><time>2026-05-01T16:43:04Z</time></trkpt><trkpt lat="44.503920865447554" lon="9.533007489093302"><ele>876.0</ele><time>2026-05-01T16:43:05Z</time></trkpt><trkpt lat="44.50403853471725" lon="9.533100691055447"><ele>877.75</ele><time>2026-05-01T16:43:06Z</time></trkpt><trkpt lat="44.50417771569926" lon="9.533131492473062"><ele>879.5</ele><time>2026-05-01T16:43:07Z</time></trkpt><trkpt lat="44.504311578055585" lon="9.53313328467871"><ele>881.25</ele><time>2026-05-01T16:43:08Z</time></trkpt><trkpt lat="44.504423838888805" lon="9.533127469416575"><ele>883.0</ele><time>2026-05-01T16:43:09Z</time></trkpt><trkpt lat="44.50452734101547" lon="9.533171959805532"><ele>882.25</ele><time>2026-05-01T16:43:10Z</time></trkpt><trkpt lat="44.50461772337103" lon="9.533264474997043"><ele>881.5</ele><time>2026-05-01T16:43:11Z</time></trkpt><trkpt lat="44.50470370534028" lon="9.533389658980452"><ele>880.75</ele><time>2026-05-01T16:43:12Z</time></trkpt><trkpt lat="44.504805076626134" lon="9.533512149175234"><ele>880.0</ele><time>2026-05-01T16:43:13Z</time></trkpt><trkpt lat="44.50493720422781" lon="9.533581754311898"><ele>880.0</ele><time>2026-05-01T16:43:14Z</time></trkpt><trkpt lat="44.50508119354951" lon="9.533617842304984"><ele>880.0</ele><time>2026-05-01T16:43:15Z</time></trkpt><trkpt lat="44.50521889426118" lon="9.533654179701273"><ele>880.0</ele><time>2026-05-01T16:43:16Z</time></trkpt><trkpt lat="44.505337077898076" lon="9.533691607907505"><ele>880.0</ele><time>2026-05-01T16:43:17Z</time></trkpt><trkpt lat="44.50544871919213" lon="9.533719860079588"><ele>881.2</ele><time>2026-05-01T16:43:18Z</time></trkpt><trkpt lat="44.505570532384006" lon="9.533725063784814"><ele>882.4</ele><time>2026-05-01T16:43:19Z</time></trkpt><trkpt lat="44.505684041711135" lon="9.533699700522057"><ele>883.5999999999999</ele><time>2026-05-01T16:43:20Z</time></trkpt><trkpt lat="44.50576748274161" lon="9.533698228591911"><ele>884.8</ele><time>2026-05-01T16:43:21Z</time></trkpt><trkpt lat="44.50582138136792" lon="9.533825367498213"><ele>886.0</ele><time>2026-05-01T16:43:23Z</time></trkpt><trkpt lat="44.50580439177265" lon="9.533921522619757"><ele>888.0</ele><time>2026-05-01T16:43:24Z</time></trkpt><trkpt lat="44.50573492506725" lon="9.534027157478148"><ele>890.0</ele><time>2026-05-01T16:43:25Z</time></trkpt><trkpt lat="44.50563232461605" lon="9.534137524333921"><ele>892.0</ele><time>2026-05-01T16:43:26Z</time></trkpt><trkpt lat="44.5055050291147" lon="9.534276382068983"><ele>894.0</ele><time>2026-05-01T16:43:27Z</time></trkpt><trkpt lat="44.5053652141924" lon="9.534447842977569"><ele>899.3333333333333</ele><time>2026-05-01T16:43:28Z</time></trkpt><trkpt lat="44.50522847474309" lon="9.53460740580766"><ele>904.6666666666666</ele><time>2026-05-01T16:43:29Z</time></trkpt><trkpt lat="44.505093382479735" lon="9.534732800867438"><ele>910.0</ele><time>2026-05-01T16:43:30Z</time></trkpt><trkpt lat="44.50494814290519" lon="9.534789984383274"><ele>910.0</ele><time>2026-05-01T16:43:31Z</time></trkpt><trkpt lat="44.50477158295584" lon="9.534797925677108"><ele>910.0</ele><time>2026-05-01T16:43:32Z</time></trkpt><trkpt lat="44.504590401798716" lon="9.534788579012117"><ele>910.0</ele><time>2026-05-01T16:43:33Z</time></trkpt><trkpt lat="44.50444578333581" lon="9.53476383033207"><ele>910.8</ele><time>2026-05-01T16:43:34Z</time></trkpt><trkpt lat="44.5043501349678" lon="9.534741551174813"><ele>911.6</ele><time>2026-05-01T16:43:35Z</time></trkpt><trkpt lat="44.50427368564677" lon="9.534760447361046"><ele>912.4000000000001</ele><time>2026-05-01T16:43:36Z</time></trkpt><trkpt lat="44.504216952728434" lon="9.534824196120418"><ele>913.2</ele><time>2026-05-01T16:43:37Z</time></trkpt><trkpt lat="44.50421019849993" lon="9.535026894613397"><ele>914.0</ele><time>2026-05-01T16:43:39Z</time></trkpt><trkpt lat="44.50424534882995" lon="9.535193858775198"><ele>914.0</ele><time>2026-05-01T16:43:40Z</time></trkpt><trkpt lat="44.50431144300334" lon="9.535291663748005"><ele>914.0</ele><time>2026-05-01T16:43:41Z</time></trkpt><trkpt lat="44.50441956613275" lon="9.535342413115117"><ele>914.0</ele><time>2026-05-01T16:43:42Z</time></trkpt><trkpt lat="44.50455029188667" lon="9.535390150462735"><ele>914.0</ele><time>2026-05-01T16:43:43Z</time></trkpt><trkpt lat="44.50470149356922" lon="9.535454145351958"><ele>919.0</ele><time>2026-05-01T16:43:44Z</time></trkpt><trkpt lat="44.50484756094845" lon="9.53550234568987"><ele>924.0</ele><time>2026-05-01T16:43:45Z</time></trkpt><trkpt lat="44.50500837083981" lon="9.53550954814739"><ele>929.0</ele><time>2026-05-01T16:43:46Z</time></trkpt><trkpt lat="44.505182965157275" lon="9.535485371688196"><ele>929.0</ele><time>2026-05-01T16:43:47Z</time></trkpt><trkpt lat="44.5053825322873" lon="9.535429619147639"><ele>929.0</ele><time>2026-05-01T16:43:48Z</time></trkpt><trkpt lat="44.50557632665742" lon="9.535348878753029"><ele>929.0</ele><time>2026-05-01T16:43:49Z</time></trkpt><trkpt lat="44.50575956743256" lon="9.535228078217605"><ele>928.0</ele><time>2026-05-01T16:43:50Z</time></trkpt><trkpt lat="44.50591064797772" lon="9.535114810637818"><ele>927.0</ele><time>2026-05-01T16:43:51Z</time></trkpt><trkpt lat="44.506044276292116" lon="9.535033630124023"><ele>926.0</ele><time>2026-05-01T16:43:52Z</time></trkpt><trkpt lat="44.50615605765151" lon="9.534972503112833"><ele>925.0</ele><time>2026-05-01T16:43:53Z</time></trkpt><trkpt lat="44.506245567931416" lon="9.534947957049761"><ele>924.9999999999999</ele><time>2026-05-01T16:43:54Z</time></trkpt><trkpt lat="44.506316611047694" lon="9.534965397968302"><ele>925.0</ele><time>2026-05-01T16:43:55Z</time></trkpt><trkpt lat="44.50635851327992" lon="9.535041764898763"><ele>925.0</ele><time>2026-05-01T16:43:56Z</time></trkpt><trkpt lat="44.50635920586505" lon="9.535153284518202"><ele>925.0</ele><time>2026-05-01T16:43:57Z</time></trkpt><trkpt lat="44.50631700740804" lon="9.535264969989091"><ele>924.9999999999999</ele><time>2026-05-01T16:43:58Z</time></trkpt><trkpt lat="44.506239982462944" lon="9.535381630780012"><ele>925.0</ele><time>2026-05-01T16:43:59Z</time></trkpt><trkpt lat="44.50614517480814" lon="9.535525424729691"><ele>926.0</ele><time>2026-05-01T16:44:00Z</time></trkpt><trkpt lat="44.50605846436005" lon="9.53566409960973"><ele>927.0</ele><time>2026-05-01T16:44:01Z</time></trkpt><trkpt lat="44.50599609586399" lon="9.535762440219859"><ele>928.0</ele><time>2026-05-01T16:44:02Z</time></trkpt><trkpt lat="44.505923265142165" lon="9.535864700859483"><ele>929.0</ele><time>2026-05-01T16:44:03Z</time></trkpt><trkpt lat="44.505807098003935" lon="9.535987062948012"><ele>929.0</ele><time>2026-05-01T16:44:04Z</time></trkpt><trkpt lat="44.505668927117256" lon="9.536092923075481"><ele>929.0</ele><time>2026-05-01T16:44:05Z</time></trkpt><trkpt lat="44.50556329000561" lon="9.536204334579665"><ele>929.0</ele><time>2026-05-01T16:44:06Z</time></trkpt><trkpt lat="44.50549347793524" lon="9.536314462216653"><ele>929.0</ele><time>2026-05-01T16:44:07Z</time></trkpt><trkpt lat="44.50543572460259" lon="9.536410133727351"><ele>932.0000000000001</ele><time>2026-05-01T16:44:08Z</time></trkpt><trkpt lat="44.505377856820566" lon="9.53647560105178"><ele>935.0</ele><time>2026-05-01T16:44:09Z</time></trkpt><trkpt lat="44.505311946631515" lon="9.536518822491445"><ele>938.0</ele><time>2026-05-01T16:44:10Z</time></trkpt><trkpt lat="44.505226717349075" lon="9.536535798792528"><ele>941.0</ele><time>2026-05-01T16:44:11Z</time></trkpt><trkpt lat="44.505128762289026" lon="9.536528138398335"><ele>944.0000000000001</ele><time>2026-05-01T16:44:12Z</time></trkpt><trkpt lat="44.50501974390784" lon="9.536506682285687"><ele>947.0</ele><time>2026-05-01T16:44:13Z</time></trkpt><trkpt lat="44.504892705376314" lon="9.53647510206725"><ele>947.0</ele><time>2026-05-01T16:44:14Z</time></trkpt><trkpt lat="44.504756092270355" lon="9.536436950511696"><ele>947.0</ele><time>2026-05-01T16:44:15Z</time></trkpt><trkpt lat="44.50462376265" lon="9.536396870602246"><ele>947.0</ele><time>2026-05-01T16:44:16Z</time></trkpt><trkpt lat="44.5045110947943" lon="9.536380555865072"><ele>947.0</ele><time>2026-05-01T16:44:17Z</time></trkpt><trkpt lat="44.50440850589376" lon="9.536404049729951"><ele>947.75</ele><time>2026-05-01T16:44:18Z</time></trkpt><trkpt lat="44.50430721392759" lon="9.53646651989844"><ele>948.5</ele><time>2026-05-01T16:44:19Z</time></trkpt><trkpt lat="44.504209591398755" lon="9.536556972684588"><ele>949.25</ele><time>2026-05-01T16:44:20Z</time></trkpt><trkpt lat="44.504118571539955" lon="9.536681329806676"><ele>950.0</ele><time>2026-05-01T16:44:21Z</time></trkpt><trkpt lat="44.50403310944583" lon="9.536829395535893"><ele>950.0</ele><time>2026-05-01T16:44:22Z</time></trkpt><trkpt lat="44.50396220993577" lon="9.537022195058421"><ele>950.0</ele><time>2026-05-01T16:44:23Z</time></trkpt><trkpt lat="44.503886802899444" lon="9.537231796472348"><ele>950.0</ele><time>2026-05-01T16:44:24Z</time></trkpt><trkpt lat="44.50380191621077" lon="9.537475427075794"><ele>949.6666666666667</ele><time>2026-05-01T16:44:25Z</time></trkpt><trkpt lat="44.503723813122235" lon="9.537732867387678"><ele>949.3333333333333</ele><time>2026-05-01T16:44:26Z</time></trkpt><trkpt lat="44.50364989318606" lon="9.537992661531035"><ele>949.0</ele><time>2026-05-01T16:44:27Z</time></trkpt><trkpt lat="44.50357783580251" lon="9.538245211281765"><ele>949.0</ele><time>2026-05-01T16:44:28Z</time></trkpt><trkpt lat="44.50351256576408" lon="9.538475470201266"><ele>949.0</ele><time>2026-05-01T16:44:29Z</time></trkpt><trkpt lat="44.5034509334216" lon="9.538684051010978"><ele>949.0</ele><time>2026-05-01T16:44:30Z</time></trkpt><trkpt lat="44.50339062283665" lon="9.53886910503417"><ele>952.25</ele><time>2026-05-01T16:44:31Z</time></trkpt><trkpt lat="44.5033174959072" lon="9.539025540722722"><ele>955.5</ele><time>2026-05-01T16:44:32Z</time></trkpt><trkpt lat="44.50323424781221" lon="9.539138790427439"><ele>958.75</ele><time>2026-05-01T16:44:33Z</time></trkpt><trkpt lat="44.50314465313368" lon="9.539213561447516"><ele>962.0</ele><time>2026-05-01T16:44:34Z</time></trkpt><trkpt lat="44.50303960457163" lon="9.539275101209789"><ele>962.0</ele><time>2026-05-01T16:44:35Z</time></trkpt><trkpt lat="44.50296396036812" lon="9.539351675947321"><ele>962.0</ele><time>2026-05-01T16:44:36Z</time></trkpt><trkpt lat="44.50292810540556" lon="9.53946113037637"><ele>962.0</ele><time>2026-05-01T16:44:37Z</time></trkpt><trkpt lat="44.502920220019654" lon="9.539608348273477"><ele>962.0</ele><time>2026-05-01T16:44:38Z</time></trkpt><trkpt lat="44.502900327286035" lon="9.539768098643563"><ele>962.0</ele><time>2026-05-01T16:44:39Z</time></trkpt><trkpt lat="44.50283868964934" lon="9.539862122520688"><ele>964.8</ele><time>2026-05-01T16:44:40Z</time></trkpt><trkpt lat="44.50275083585641" lon="9.539897603849587"><ele>967.6</ele><time>2026-05-01T16:44:41Z</time></trkpt><trkpt lat="44.50265283721391" lon="9.539884252583049"><ele>970.3999999999999</ele><time>2026-05-01T16:44:42Z</time></trkpt><trkpt lat="44.5025455385298" lon="9.539858055432685"><ele>973.1999999999999</ele><time>2026-05-01T16:44:43Z</time></trkpt><trkpt lat="44.502420771088765" lon="9.539837381070878"><ele>976.0</ele><time>2026-05-01T16:44:44Z</time></trkpt><trkpt lat="44.502283979196974" lon="9.539803036046736"><ele>976.0</ele><time>2026-05-01T16:44:45Z</time></trkpt><trkpt lat="44.50216143551946" lon="9.539749070483792"><ele>975.9999999999999</ele><time>2026-05-01T16:44:46Z</time></trkpt><trkpt lat="44.50206370753915" lon="9.539697142158268"><ele>975.9999999999999</ele><time>2026-05-01T16:44:47Z</time></trkpt><trkpt lat="44.50197464361714" lon="9.539675986068607"><ele>976.0</ele><time>2026-05-01T16:44:48Z</time></trkpt><trkpt lat="44.5018915998664" lon="9.539695294524591"><ele>976.0</ele><time>2026-05-01T16:44:49Z</time></trkpt><trkpt lat="44.50183302900752" lon="9.53976557819213"><ele>976.0</ele><time>2026-05-01T16:44:50Z</time></trkpt><trkpt lat="44.50178111302733" lon="9.53985065412261"><ele>975.9999999999999</ele><time>2026-05-01T16:44:51Z</time></trkpt><trkpt lat="44.50172255752921" lon="9.5399635947603"><ele>975.9999999999999</ele><time>2026-05-01T16:44:52Z</time></trkpt><trkpt lat="44.501651548279774" lon="9.540083484324214"><ele>976.0</ele><time>2026-05-01T16:44:53Z</time></trkpt><trkpt lat="44.5015782217408" lon="9.540184888760745"><ele>976.0</ele><time>2026-05-01T16:44:54Z</time></trkpt><trkpt lat="44.501516278914515" lon="9.540267359582584"><ele>976.0</ele><time>2026-05-01T16:44:55Z</time></trkpt><trkpt lat="44.501451548531406" lon="9.540332171349306"><ele>975.9999999999999</ele><time>2026-05-01T16:44:56Z</time></trkpt><trkpt lat="44.501371119433465" lon="9.540376718154485"><ele>975.9999999999999</ele><time>2026-05-01T16:44:57Z</time></trkpt><trkpt lat="44.50127428594521" lon="9.540383202674363"><ele>976.0</ele><time>2026-05-01T16:44:58Z</time></trkpt><trkpt lat="44.50116410767785" lon="9.540347966001505"><ele>976.0</ele><time>2026-05-01T16:44:59Z</time></trkpt><trkpt lat="44.50105826661429" lon="9.540291402865982"><ele>975.3333333333333</ele><time>2026-05-01T16:45:00Z</time></trkpt><trkpt lat="44.500982597578634" lon="9.5402527471223"><ele>974.6666666666666</ele><time>2026-05-01T16:45:01Z</time></trkpt><trkpt lat="44.500916396782486" lon="9.54025253683237"><ele>974.0</ele><time>2026-05-01T16:45:02Z</time></trkpt><trkpt lat="44.500836616513574" lon="9.540291014203095"><ele>973.3333333333333</ele><time>2026-05-01T16:45:03Z</time></trkpt><trkpt lat="44.500745103687514" lon="9.540357985764736"><ele>972.6666666666666</ele><time>2026-05-01T16:45:04Z</time></trkpt><trkpt lat="44.50066004387873" lon="9.540449704533406"><ele>972.0</ele><time>2026-05-01T16:45:05Z</time></trkpt><trkpt lat="44.50057110609057" lon="9.540556269876882"><ele>975.8</ele><time>2026-05-01T16:45:06Z</time></trkpt><trkpt lat="44.500485633744276" lon="9.540659791971107"><ele>979.6</ele><time>2026-05-01T16:45:07Z</time></trkpt><trkpt lat="44.50041623114887" lon="9.540751271438822"><ele>983.3999999999999</ele><time>2026-05-01T16:45:08Z</time></trkpt><trkpt lat="44.50035544504441" lon="9.540803180894937"><ele>987.1999999999999</ele><time>2026-05-01T16:45:09Z</time></trkpt><trkpt lat="44.50025826258734" lon="9.540885333787152"><ele>991.0</ele><time>2026-05-01T16:45:11Z</time></trkpt><trkpt lat="44.50018761966142" lon="9.54092129243502"><ele>991.0</ele><time>2026-05-01T16:45:12Z</time></trkpt><trkpt lat="44.50008817791973" lon="9.540961817724403"><ele>990.9999999999999</ele><time>2026-05-01T16:45:13Z</time></trkpt><trkpt lat="44.499966994379804" lon="9.540976094298752"><ele>990.9999999999999</ele><time>2026-05-01T16:45:14Z</time></trkpt><trkpt lat="44.499852752256054" lon="9.540985816265296"><ele>991.0</ele><time>2026-05-01T16:45:15Z</time></trkpt><trkpt lat="44.4997666762323" lon="9.540991429509084"><ele>991.0</ele><time>2026-05-01T16:45:16Z</time></trkpt><trkpt lat="44.4997006084327" lon="9.541015111711912"><ele>990.9999999999999</ele><time>2026-05-01T16:45:17Z</time></trkpt><trkpt lat="44.49964170193035" lon="9.541051477184999"><ele>991.0</ele><time>2026-05-01T16:45:18Z</time></trkpt><trkpt lat="44.49956657352598" lon="9.541157233835465"><ele>991.0</ele><time>2026-05-01T16:45:20Z</time></trkpt><trkpt lat="44.499554288305426" lon="9.541244560205541"><ele>991.0</ele><time>2026-05-01T16:45:21Z</time></trkpt><trkpt lat="44.49956243087125" lon="9.541333951084082"><ele>990.9999999999999</ele><time>2026-05-01T16:45:22Z</time></trkpt><trkpt lat="44.499586123486445" lon="9.541416963364153"><ele>991.0</ele><time>2026-05-01T16:45:23Z</time></trkpt><trkpt lat="44.49970022027718" lon="9.541493322990734"><ele>991.0</ele><time>2026-05-01T16:45:25Z</time></trkpt><trkpt lat="44.499781374172464" lon="9.541473208542424"><ele>990.9999999999999</ele><time>2026-05-01T16:45:26Z</time></trkpt><trkpt lat="44.499857380290116" lon="9.541422550044645"><ele>990.9999999999999</ele><time>2026-05-01T16:45:27Z</time></trkpt><trkpt lat="44.49993626356702" lon="9.54134032240798"><ele>991.0</ele><time>2026-05-01T16:45:28Z</time></trkpt><trkpt lat="44.50003614421289" lon="9.541247958897412"><ele>991.0</ele><time>2026-05-01T16:45:29Z</time></trkpt><trkpt lat="44.50015573079165" lon="9.541173602641637"><ele>991.0</ele><time>2026-05-01T16:45:30Z</time></trkpt><trkpt lat="44.50028343027741" lon="9.541110794009084"><ele>991.0</ele><time>2026-05-01T16:45:31Z</time></trkpt><trkpt lat="44.50040860195223" lon="9.541047936211285"><ele>991.0</ele><time>2026-05-01T16:45:32Z</time></trkpt><trkpt lat="44.50052462372207" lon="9.540983483773392"><ele>991.0</ele><time>2026-05-01T16:45:33Z</time></trkpt><trkpt lat="44.50062825491472" lon="9.540940359053023"><ele>992.4</ele><time>2026-05-01T16:45:34Z</time></trkpt><trkpt lat="44.5007234810548" lon="9.540923507122434"><ele>993.8</ele><time>2026-05-01T16:45:35Z</time></trkpt><trkpt lat="44.50080595238175" lon="9.54093604371763"><ele>995.1999999999999</ele><time>2026-05-01T16:45:36Z</time></trkpt><trkpt lat="44.50088159661398" lon="9.541007723722744"><ele>996.5999999999999</ele><time>2026-05-01T16:45:37Z</time></trkpt><trkpt lat="44.50094688274848" lon="9.541121136268188"><ele>998.0</ele><time>2026-05-01T16:45:38Z</time></trkpt><trkpt lat="44.501016909274796" lon="9.541260414407652"><ele>1002.75</ele><time>2026-05-01T16:45:39Z</time></trkpt><trkpt lat="44.50111531010051" lon="9.541387322421956"><ele>1007.5</ele><time>2026-05-01T16:45:40Z</time></trkpt><trkpt lat="44.501231378862116" lon="9.541495876449432"><ele>1012.25</ele><time>2026-05-01T16:45:41Z</time></trkpt><trkpt lat="44.501356660081456" lon="9.541598941326157"><ele>1017.0</ele><time>2026-05-01T16:45:42Z</time></trkpt><trkpt lat="44.50146879636111" lon="9.541689770262401"><ele>1017.0</ele><time>2026-05-01T16:45:43Z</time></trkpt><trkpt lat="44.50156867956063" lon="9.541764577271678"><ele>1017.0</ele><time>2026-05-01T16:45:44Z</time></trkpt><trkpt lat="44.501654960549374" lon="9.541820506274515"><ele>1017.0</ele><time>2026-05-01T16:45:45Z</time></trkpt><trkpt lat="44.50174593071888" lon="9.54185696487524"><ele>1017.0</ele><time>2026-05-01T16:45:46Z</time></trkpt><trkpt lat="44.50184523216244" lon="9.541865344061184"><ele>1017.0</ele><time>2026-05-01T16:45:47Z</time></trkpt><trkpt lat="44.501958377277646" lon="9.541855807921596"><ele>1017.0</ele><time>2026-05-01T16:45:48Z</time></trkpt><trkpt lat="44.50207892305467" lon="9.541839758276174"><ele>1017.0</ele><time>2026-05-01T16:45:49Z</time></trkpt><trkpt lat="44.502183398126476" lon="9.541847668159251"><ele>1017.0</ele><time>2026-05-01T16:45:50Z</time></trkpt><trkpt lat="44.50226948135923" lon="9.54186952622951"><ele>1017.0</ele><time>2026-05-01T16:45:51Z</time></trkpt><trkpt lat="44.5023498683147" lon="9.541907723758934"><ele>1017.0</ele><time>2026-05-01T16:45:52Z</time></trkpt><trkpt lat="44.50242877380734" lon="9.541974844008118"><ele>1019.75</ele><time>2026-05-01T16:45:53Z</time></trkpt><trkpt lat="44.50249109581912" lon="9.54208302513289"><ele>1022.5</ele><time>2026-05-01T16:45:54Z</time></trkpt><trkpt lat="44.50255080586889" lon="9.5422345326953"><ele>1025.25</ele><time>2026-05-01T16:45:55Z</time></trkpt><trkpt lat="44.502616826984" lon="9.54240225968516"><ele>1028.0</ele><time>2026-05-01T16:45:56Z</time></trkpt><trkpt lat="44.502693418328086" lon="9.542573113569816"><ele>1028.0</ele><time>2026-05-01T16:45:57Z</time></trkpt><trkpt lat="44.502782477102905" lon="9.542731352991666"><ele>1028.0</ele><time>2026-05-01T16:45:58Z</time></trkpt><trkpt lat="44.50286636643811" lon="9.542874763369085"><ele>1028.0</ele><time>2026-05-01T16:45:59Z</time></trkpt><trkpt lat="44.502940371717465" lon="9.542996867162792"><ele>1028.0</ele><time>2026-05-01T16:46:00Z</time></trkpt><trkpt lat="44.50301200272541" lon="9.543087363173468"><ele>1028.1666666666667</ele><time>2026-05-01T16:46:01Z</time></trkpt><trkpt lat="44.50308441786952" lon="9.54314111269382"><ele>1028.3333333333335</ele><time>2026-05-01T16:46:02Z</time></trkpt><trkpt lat="44.5031587736775" lon="9.54313285551954"><ele>1028.5</ele><time>2026-05-01T16:46:03Z</time></trkpt><trkpt lat="44.50322115956892" lon="9.543077462962167"><ele>1028.6666666666667</ele><time>2026-05-01T16:46:04Z</time></trkpt><trkpt lat="44.5032661619068" lon="9.543003403479691"><ele>1028.8333333333333</ele><time>2026-05-01T16:46:05Z</time></trkpt><trkpt lat="44.50330489366484" lon="9.542904616361755"><ele>1029.0</ele><time>2026-05-01T16:46:06Z</time></trkpt><trkpt lat="44.50335847539556" lon="9.54278593961833"><ele>1029.0</ele><time>2026-05-01T16:46:07Z</time></trkpt><trkpt lat="44.503432007685255" lon="9.542664649141638"><ele>1029.0</ele><time>2026-05-01T16:46:08Z</time></trkpt><trkpt lat="44.50352169586334" lon="9.542561979661565"><ele>1029.0</ele><time>2026-05-01T16:46:09Z</time></trkpt><trkpt lat="44.503623960232424" lon="9.542504384020685"><ele>1029.0</ele><time>2026-05-01T16:46:10Z</time></trkpt><trkpt lat="44.50371762523798" lon="9.542493440011715"><ele>1029.0</ele><time>2026-05-01T16:46:11Z</time></trkpt><trkpt lat="44.50379898656584" lon="9.542459685213213"><ele>1030.6000000000001</ele><time>2026-05-01T16:46:12Z</time></trkpt><trkpt lat="44.50387326875369" lon="9.542371916195895"><ele>1032.2</ele><time>2026-05-01T16:46:13Z</time></trkpt><trkpt lat="44.50394179522015" lon="9.542230329584012"><ele>1033.8000000000002</ele><time>2026-05-01T16:46:14Z</time></trkpt><trkpt lat="44.504008602954784" lon="9.542109765138175"><ele>1035.4</ele><time>2026-05-01T16:46:15Z</time></trkpt><trkpt lat="44.50407404114791" lon="9.542051394156644"><ele>1037.0</ele><time>2026-05-01T16:46:16Z</time></trkpt><trkpt lat="44.50414668738032" lon="9.542072170745529"><ele>1037.0</ele><time>2026-05-01T16:46:17Z</time></trkpt><trkpt lat="44.50420748860955" lon="9.542154437350002"><ele>1037.0</ele><time>2026-05-01T16:46:18Z</time></trkpt><trkpt lat="44.50425493959101" lon="9.542277940989763"><ele>1037.0</ele><time>2026-05-01T16:46:19Z</time></trkpt><trkpt lat="44.504309137976335" lon="9.542448112770476"><ele>1037.0</ele><time>2026-05-01T16:46:20Z</time></trkpt><trkpt lat="44.50438061139994" lon="9.542614116225355"><ele>1037.0</ele><time>2026-05-01T16:46:21Z</time></trkpt><trkpt lat="44.50445938320668" lon="9.54277048295661"><ele>1037.0</ele><time>2026-05-01T16:46:22Z</time></trkpt><trkpt lat="44.50454022712552" lon="9.542914900069551"><ele>1037.0</ele><time>2026-05-01T16:46:23Z</time></trkpt><trkpt lat="44.504620917304074" lon="9.543055882830458"><ele>1037.0</ele><time>2026-05-01T16:46:24Z</time></trkpt><trkpt lat="44.504690049786795" lon="9.543188318375487"><ele>1037.2</ele><time>2026-05-01T16:46:25Z</time></trkpt><trkpt lat="44.50474993525367" lon="9.543307996518651"><ele>1037.4</ele><time>2026-05-01T16:46:26Z</time></trkpt><trkpt lat="44.50480281415931" lon="9.543408292907085"><ele>1037.6</ele><time>2026-05-01T16:46:27Z</time></trkpt><trkpt lat="44.50483167221728" lon="9.543517496659655"><ele>1037.8</ele><time>2026-05-01T16:46:28Z</time></trkpt><trkpt lat="44.504836744020515" lon="9.54364090520438"><ele>1038.0</ele><time>2026-05-01T16:46:29Z</time></trkpt><trkpt lat="44.50482204952971" lon="9.543788558369835"><ele>1041.0</ele><time>2026-05-01T16:46:30Z</time></trkpt><trkpt lat="44.50480342206231" lon="9.543949706538196"><ele>1044.0</ele><time>2026-05-01T16:46:31Z</time></trkpt><trkpt lat="44.50479196163128" lon="9.544123299552565"><ele>1047.0</ele><time>2026-05-01T16:46:32Z</time></trkpt><trkpt lat="44.50479291543335" lon="9.544286449194985"><ele>1050.0</ele><time>2026-05-01T16:46:33Z</time></trkpt><trkpt lat="44.504803545743876" lon="9.544437531144036"><ele>1051.8</ele><time>2026-05-01T16:46:34Z</time></trkpt><trkpt lat="44.504819310663834" lon="9.54458132278669"><ele>1053.6</ele><time>2026-05-01T16:46:35Z</time></trkpt><trkpt lat="44.504828652342354" lon="9.544730650959826"><ele>1055.4</ele><time>2026-05-01T16:46:36Z</time></trkpt><trkpt lat="44.50481997129216" lon="9.544873226162771"><ele>1057.2</ele><time>2026-05-01T16:46:37Z</time></trkpt><trkpt lat="44.50480609759145" lon="9.54499784729298"><ele>1059.0</ele><time>2026-05-01T16:46:38Z</time></trkpt><trkpt lat="44.504797894860154" lon="9.545098204902644"><ele>1059.0</ele><time>2026-05-01T16:46:39Z</time></trkpt><trkpt lat="44.504808078620776" lon="9.545194365443862"><ele>1059.0</ele><time>2026-05-01T16:46:40Z</time></trkpt><trkpt lat="44.50484729474279" lon="9.545284615654266"><ele>1059.0</ele><time>2026-05-01T16:46:41Z</time></trkpt><trkpt lat="44.504902239618396" lon="9.545349296163446"><ele>1059.0</ele><time>2026-05-01T16:46:42Z</time></trkpt><trkpt lat="44.5049781719123" lon="9.545350294503972"><ele>1059.0</ele><time>2026-05-01T16:46:43Z</time></trkpt><trkpt lat="44.505059308120835" lon="9.545310677517854"><ele>1059.0</ele><time>2026-05-01T16:46:44Z</time></trkpt><trkpt lat="44.50514292251701" lon="9.545225359733267"><ele>1059.0</ele><time>2026-05-01T16:46:45Z</time></trkpt><trkpt lat="44.5052294765635" lon="9.545115579182635"><ele>1059.0</ele><time>2026-05-01T16:46:46Z</time></trkpt><trkpt lat="44.50532227935246" lon="9.54500200755883"><ele>1059.0</ele><time>2026-05-01T16:46:47Z</time></trkpt><trkpt lat="44.50541913348862" lon="9.544901470522717"><ele>1059.0</ele><time>2026-05-01T16:46:48Z</time></trkpt><trkpt lat="44.505531711929635" lon="9.544824146168185"><ele>1062.6666666666667</ele><time>2026-05-01T16:46:49Z</time></trkpt><trkpt lat="44.50565898553128" lon="9.544763102420301"><ele>1066.3333333333335</ele><time>2026-05-01T16:46:50Z</time></trkpt><trkpt lat="44.50581052809686" lon="9.544710179552126"><ele>1070.0</ele><time>2026-05-01T16:46:51Z</time></trkpt><trkpt lat="44.50596930552651" lon="9.544664708593418"><ele>1070.0</ele><time>2026-05-01T16:46:52Z</time></trkpt><trkpt lat="44.50611393554032" lon="9.544614850115176"><ele>1070.0</ele><time>2026-05-01T16:46:53Z</time></trkpt><trkpt lat="44.506236560577044" lon="9.544559255067982"><ele>1070.0</ele><time>2026-05-01T16:46:54Z</time></trkpt><trkpt lat="44.50632848481556" lon="9.544483618337814"><ele>1070.0</ele><time>2026-05-01T16:46:55Z</time></trkpt><trkpt lat="44.50640150194445" lon="9.54438374435693"><ele>1070.25</ele><time>2026-05-01T16:46:56Z</time></trkpt><trkpt lat="44.50644957406083" lon="9.544238031972379"><ele>1070.5</ele><time>2026-05-01T16:46:57Z</time></trkpt><trkpt lat="44.50649701953374" lon="9.544096143764232"><ele>1070.75</ele><time>2026-05-01T16:46:58Z</time></trkpt><trkpt lat="44.50657238671529" lon="9.54397706113375"><ele>1071.0</ele><time>2026-05-01T16:46:59Z</time></trkpt><trkpt lat="44.50668485424042" lon="9.543894063626633"><ele>1071.0</ele><time>2026-05-01T16:47:00Z</time></trkpt><trkpt lat="44.50681665994803" lon="9.543838509871682"><ele>1071.0</ele><time>2026-05-01T16:47:01Z</time></trkpt><trkpt lat="44.50695262297292" lon="9.543805633172331"><ele>1071.0</ele><time>2026-05-01T16:47:02Z</time></trkpt><trkpt lat="44.5070804536951" lon="9.543776045266956"><ele>1071.0</ele><time>2026-05-01T16:47:03Z</time></trkpt><trkpt lat="44.50719051550879" lon="9.543740537394559"><ele>1069.8</ele><time>2026-05-01T16:47:04Z</time></trkpt><trkpt lat="44.50727977554365" lon="9.543700883556815"><ele>1068.6</ele><time>2026-05-01T16:47:05Z</time></trkpt><trkpt lat="44.5073526341007" lon="9.54368127867528"><ele>1067.4</ele><time>2026-05-01T16:47:06Z</time></trkpt><trkpt lat="44.507470371664304" lon="9.543721127386313"><ele>1066.2</ele><time>2026-05-01T16:47:08Z</time></trkpt><trkpt lat="44.50751163162179" lon="9.543806870838111"><ele>1065.0</ele><time>2026-05-01T16:47:09Z</time></trkpt><trkpt lat="44.50751827079932" lon="9.543928696977439"><ele>1068.0</ele><time>2026-05-01T16:47:10Z</time></trkpt><trkpt lat="44.50749245069875" lon="9.544063501189772"><ele>1071.0</ele><time>2026-05-01T16:47:11Z</time></trkpt><trkpt lat="44.507454113315625" lon="9.544209491072507"><ele>1074.0</ele><time>2026-05-01T16:47:12Z</time></trkpt><trkpt lat="44.50741488184539" lon="9.54436437481489"><ele>1077.0</ele><time>2026-05-01T16:47:13Z</time></trkpt><trkpt lat="44.50737293187644" lon="9.54452732538067"><ele>1079.0</ele><time>2026-05-01T16:47:14Z</time></trkpt><trkpt lat="44.50732081600276" lon="9.54468764900969"><ele>1081.0</ele><time>2026-05-01T16:47:15Z</time></trkpt><trkpt lat="44.50726321956117" lon="9.544851485484218"><ele>1083.0</ele><time>2026-05-01T16:47:16Z</time></trkpt><trkpt lat="44.50719808468023" lon="9.545012450686059"><ele>1085.0</ele><time>2026-05-01T16:47:17Z</time></trkpt><trkpt lat="44.507136568483894" lon="9.545165907637589"><ele>1085.0</ele><time>2026-05-01T16:47:18Z</time></trkpt><trkpt lat="44.507081234416475" lon="9.545303008054214"><ele>1085.0</ele><time>2026-05-01T16:47:19Z</time></trkpt><trkpt lat="44.50702095095427" lon="9.545419750306682"><ele>1085.0</ele><time>2026-05-01T16:47:20Z</time></trkpt><trkpt lat="44.506944784990466" lon="9.545511407516974"><ele>1085.0</ele><time>2026-05-01T16:47:21Z</time></trkpt><trkpt lat="44.506857595016946" lon="9.545590836012014"><ele>1085.0</ele><time>2026-05-01T16:47:22Z</time></trkpt><trkpt lat="44.506764827969754" lon="9.54564797884352"><ele>1087.6666666666667</ele><time>2026-05-01T16:47:23Z</time></trkpt><trkpt lat="44.506694149219335" lon="9.54568283201823"><ele>1090.3333333333335</ele><time>2026-05-01T16:47:24Z</time></trkpt><trkpt lat="44.506612295810925" lon="9.545751307324432"><ele>1093.0</ele><time>2026-05-01T16:47:26Z</time></trkpt><trkpt lat="44.506598814130484" lon="9.545847158137327"><ele>1095.6666666666667</ele><time>2026-05-01T16:47:28Z</time></trkpt><trkpt lat="44.506685153377944" lon="9.545930219662619"><ele>1098.3333333333333</ele><time>2026-05-01T16:47:30Z</time></trkpt><trkpt lat="44.50676875742186" lon="9.545960408099958"><ele>1101.0</ele><time>2026-05-01T16:47:31Z</time></trkpt><trkpt lat="44.50686683170879" lon="9.545988333131241"><ele>1101.0</ele><time>2026-05-01T16:47:32Z</time></trkpt><trkpt lat="44.506988525478" lon="9.546030859845926"><ele>1101.0</ele><time>2026-05-01T16:47:33Z</time></trkpt><trkpt lat="44.50710479770155" lon="9.546079467108674"><ele>1101.0</ele><time>2026-05-01T16:47:34Z</time></trkpt><trkpt lat="44.50723286506032" lon="9.546130412843516"><ele>1101.0</ele><time>2026-05-01T16:47:35Z</time></trkpt><trkpt lat="44.50736419011371" lon="9.546181540540655"><ele>1106.5</ele><time>2026-05-01T16:47:36Z</time></trkpt><trkpt lat="44.507490807575394" lon="9.546216134690175"><ele>1112.0</ele><time>2026-05-01T16:47:37Z</time></trkpt><trkpt lat="44.507604266627716" lon="9.546228570815591"><ele>1117.5</ele><time>2026-05-01T16:47:38Z</time></trkpt><trkpt lat="44.507710761057716" lon="9.54625803083468"><ele>1123.0</ele><time>2026-05-01T16:47:39Z</time></trkpt><trkpt lat="44.5078052700759" lon="9.546319308932606"><ele>1123.0</ele><time>2026-05-01T16:47:40Z</time></trkpt><trkpt lat="44.50786522332596" lon="9.546401407372898"><ele>1123.0</ele><time>2026-05-01T16:47:41Z</time></trkpt><trkpt lat="44.507880216761215" lon="9.54648872784655"><ele>1123.0</ele><time>2026-05-01T16:47:42Z</time></trkpt><trkpt lat="44.50782705051451" lon="9.546607513836403"><ele>1123.0</ele><time>2026-05-01T16:47:44Z</time></trkpt><trkpt lat="44.507749890930654" lon="9.546608108065424"><ele>1123.0</ele><time>2026-05-01T16:47:45Z</time></trkpt><trkpt lat="44.507660647755365" lon="9.546573978471729"><ele>1123.0</ele><time>2026-05-01T16:47:46Z</time></trkpt><trkpt lat="44.50755509576077" lon="9.546512306656638"><ele>1123.0</ele><time>2026-05-01T16:47:47Z</time></trkpt><trkpt lat="44.5074587755064" lon="9.54647281327804"><ele>1123.0</ele><time>2026-05-01T16:47:48Z</time></trkpt><trkpt lat="44.50737843427374" lon="9.54646946034478"><ele>1123.0</ele><time>2026-05-01T16:47:49Z</time></trkpt><trkpt lat="44.507295764549745" lon="9.546464145149407"><ele>1123.0</ele><time>2026-05-01T16:47:50Z</time></trkpt><trkpt lat="44.507210562630824" lon="9.546455489964963"><ele>1123.0</ele><time>2026-05-01T16:47:51Z</time></trkpt><trkpt lat="44.507119569934865" lon="9.546443032184241"><ele>1123.0</ele><time>2026-05-01T16:47:52Z</time></trkpt><trkpt lat="44.507030732800374" lon="9.546433054945256"><ele>1124.6666666666665</ele><time>2026-05-01T16:47:53Z</time></trkpt><trkpt lat="44.50695081472228" lon="9.546409342097464"><ele>1126.3333333333333</ele><time>2026-05-01T16:47:54Z</time></trkpt><trkpt lat="44.506871495867195" lon="9.546384627766397"><ele>1128.0</ele><time>2026-05-01T16:47:55Z</time></trkpt><trkpt lat="44.50680398638317" lon="9.546367363798325"><ele>1129.6666666666667</ele><time>2026-05-01T16:47:56Z</time></trkpt><trkpt lat="44.50670536821527" lon="9.546363113910573"><ele>1131.3333333333335</ele><time>2026-05-01T16:47:58Z</time></trkpt><trkpt lat="44.5066076061162" lon="9.546377441446353"><ele>1133.0</ele><time>2026-05-01T16:48:00Z</time></trkpt><trkpt lat="44.506561425955745" lon="9.546440374586009"><ele>1133.0</ele><time>2026-05-01T16:48:03Z</time></trkpt><trkpt lat="44.506502513935224" lon="9.546476253710685"><ele>1133.0</ele><time>2026-05-01T16:48:08Z</time></trkpt><trkpt lat="44.506434323965586" lon="9.546495267523428"><ele>1133.0</ele><time>2026-05-01T16:48:12Z</time></trkpt><trkpt lat="44.506359618938816" lon="9.546570517274013"><ele>1133.0</ele><time>2026-05-01T16:48:54Z</time></trkpt><trkpt lat="44.50624375823013" lon="9.546651020533348"><ele>1133.0</ele><time>2026-05-01T16:48:56Z</time></trkpt><trkpt lat="44.50615053147577" lon="9.546725839489486"><ele>1133.2</ele><time>2026-05-01T16:48:58Z</time></trkpt><trkpt lat="44.506054548860575" lon="9.54682182011263"><ele>1133.4</ele><time>2026-05-01T16:49:00Z</time></trkpt><trkpt lat="44.50599806300618" lon="9.546874953095235"><ele>1133.6000000000001</ele><time>2026-05-01T16:49:01Z</time></trkpt><trkpt lat="44.5058913910665" lon="9.5469603576986"><ele>1133.8</ele><time>2026-05-01T16:49:03Z</time></trkpt><trkpt lat="44.50581591477572" lon="9.547084146738573"><ele>1134.0</ele><time>2026-05-01T16:49:05Z</time></trkpt><trkpt lat="44.50575347306703" lon="9.547240231741737"><ele>1134.0</ele><time>2026-05-01T16:49:07Z</time></trkpt><trkpt lat="44.5057238631283" lon="9.547338134033582"><ele>1134.0</ele><time>2026-05-01T16:49:08Z</time></trkpt><trkpt lat="44.50570943128342" lon="9.547471671667392"><ele>1134.0</ele><time>2026-05-01T16:49:09Z</time></trkpt><trkpt lat="44.50570374923847" lon="9.54760031330909"><ele>1134.0</ele><time>2026-05-01T16:49:10Z</time></trkpt><trkpt lat="44.50568448755686" lon="9.547735273863028"><ele>1134.0</ele><time>2026-05-01T16:49:11Z</time></trkpt><trkpt lat="44.505663116411654" lon="9.54786132298225"><ele>1137.8</ele><time>2026-05-01T16:49:12Z</time></trkpt><trkpt lat="44.50563307187355" lon="9.547993765222538"><ele>1141.6000000000001</ele><time>2026-05-01T16:49:13Z</time></trkpt><trkpt lat="44.50559499554895" lon="9.54811984908175"><ele>1145.4</ele><time>2026-05-01T16:49:14Z</time></trkpt><trkpt lat="44.50554967643087" lon="9.548238642955045"><ele>1149.2</ele><time>2026-05-01T16:49:15Z</time></trkpt><trkpt lat="44.50549199892199" lon="9.548342820217721"><ele>1153.0</ele><time>2026-05-01T16:49:16Z</time></trkpt><trkpt lat="44.50542467601584" lon="9.548431867009981"><ele>1154.1666666666665</ele><time>2026-05-01T16:49:17Z</time></trkpt><trkpt lat="44.50535458625362" lon="9.548505063930852"><ele>1155.3333333333333</ele><time>2026-05-01T16:49:18Z</time></trkpt><trkpt lat="44.50529047296046" lon="9.548585458814921"><ele>1156.5</ele><time>2026-05-01T16:49:19Z</time></trkpt><trkpt lat="44.50523936278575" lon="9.548676037769525"><ele>1157.6666666666667</ele><time>2026-05-01T16:49:20Z</time></trkpt><trkpt lat="44.505190709034856" lon="9.548763803485214"><ele>1158.8333333333335</ele><time>2026-05-01T16:49:21Z</time></trkpt><trkpt lat="44.505131637685814" lon="9.548825610568718"><ele>1160.0</ele><time>2026-05-01T16:49:22Z</time></trkpt><trkpt lat="44.505065147269015" lon="9.548847032202708"><ele>1160.0</ele><time>2026-05-01T16:49:23Z</time></trkpt><trkpt lat="44.50498855179938" lon="9.548849880960152"><ele>1160.0</ele><time>2026-05-01T16:49:24Z</time></trkpt><trkpt lat="44.504917737302975" lon="9.548832171976935"><ele>1160.0</ele><time>2026-05-01T16:49:25Z</time></trkpt><trkpt lat="44.50484293183146" lon="9.548813388221557"><ele>1160.0</ele><time>2026-05-01T16:49:26Z</time></trkpt><trkpt lat="44.504768486257895" lon="9.548798092898537"><ele>1160.0</ele><time>2026-05-01T16:49:27Z</time></trkpt><trkpt lat="44.504693193593305" lon="9.548797669890913"><ele>1160.0</ele><time>2026-05-01T16:49:28Z</time></trkpt><trkpt lat="44.5046204472536" lon="9.548792568832782"><ele>1160.0</ele><time>2026-05-01T16:49:29Z</time></trkpt><trkpt lat="44.50454178613681" lon="9.54881161946307"><ele>1159.2</ele><time>2026-05-01T16:49:30Z</time></trkpt><trkpt lat="44.50447227870263" lon="9.548850867902482"><ele>1158.4</ele><time>2026-05-01T16:49:31Z</time></trkpt><trkpt lat="44.50439474132905" lon="9.548915732539768"><ele>1157.6</ele><time>2026-05-01T16:49:32Z</time></trkpt><trkpt lat="44.50429938732487" lon="9.549006830328013"><ele>1156.8</ele><time>2026-05-01T16:49:33Z</time></trkpt><trkpt lat="44.504190650431" lon="9.549117557300264"><ele>1156.0</ele><time>2026-05-01T16:49:34Z</time></trkpt><trkpt lat="44.50408141635462" lon="9.54925453459961"><ele>1156.0</ele><time>2026-05-01T16:49:35Z</time></trkpt><trkpt lat="44.50397230321894" lon="9.54935835979227"><ele>1156.0</ele><time>2026-05-01T16:49:36Z</time></trkpt><trkpt lat="44.50387255726861" lon="9.549431422715205"><ele>1156.0</ele><time>2026-05-01T16:49:37Z</time></trkpt><trkpt lat="44.50379726452516" lon="9.549467376539937"><ele>1156.0</ele><time>2026-05-01T16:49:38Z</time></trkpt><trkpt lat="44.503680690663955" lon="9.549461706555443"><ele>1156.0</ele><time>2026-05-01T16:49:39.999Z</time></trkpt><trkpt lat="44.50360820410507" lon="9.54933360444424"><ele>1155.8333333333333</ele><time>2026-05-01T16:49:41.999Z</time></trkpt><trkpt lat="44.5036146037681" lon="9.549181592078481"><ele>1155.6666666666665</ele><time>2026-05-01T16:49:43.999Z</time></trkpt><trkpt lat="44.503629812523144" lon="9.549094023112296"><ele>1155.5</ele><time>2026-05-01T16:49:44.999Z</time></trkpt><trkpt lat="44.50361274321888" lon="9.548953520722842"><ele>1155.3333333333333</ele><time>2026-05-01T16:49:46.999Z</time></trkpt><trkpt lat="44.503540636389225" lon="9.548900627253921"><ele>1155.1666666666667</ele><time>2026-05-01T16:49:49Z</time></trkpt><trkpt lat="44.50346647212282" lon="9.548892768294392"><ele>1155.0</ele><time>2026-05-01T16:49:51Z</time></trkpt><trkpt lat="44.503354561373584" lon="9.54894621966093"><ele>1155.0</ele><time>2026-05-01T16:49:53Z</time></trkpt><trkpt lat="44.50328704069716" lon="9.548988595979317"><ele>1155.0</ele><time>2026-05-01T16:49:54Z</time></trkpt><trkpt lat="44.50321876817151" lon="9.54904352039237"><ele>1155.0</ele><time>2026-05-01T16:49:55Z</time></trkpt><trkpt lat="44.50314832016019" lon="9.549098413105293"><ele>1155.0</ele><time>2026-05-01T16:49:56Z</time></trkpt><trkpt lat="44.50308466574002" lon="9.549153987737135"><ele>1155.0</ele><time>2026-05-01T16:49:57Z</time></trkpt><trkpt lat="44.50301896270196" lon="9.549208102557818"><ele>1155.0</ele><time>2026-05-01T16:49:58Z</time></trkpt><trkpt lat="44.50295624936219" lon="9.54926656920937"><ele>1155.6666666666667</ele><time>2026-05-01T16:49:59Z</time></trkpt><trkpt lat="44.502896316387755" lon="9.549339640790816"><ele>1156.3333333333333</ele><time>2026-05-01T16:50:00Z</time></trkpt><trkpt lat="44.50283859075218" lon="9.549411059721214"><ele>1157.0</ele><time>2026-05-01T16:50:01Z</time></trkpt><trkpt lat="44.502773795762316" lon="9.54948954582542"><ele>1157.6666666666665</ele><time>2026-05-01T16:50:02Z</time></trkpt><trkpt lat="44.50270515914364" lon="9.54956938764788"><ele>1158.3333333333333</ele><time>2026-05-01T16:50:03Z</time></trkpt><trkpt lat="44.50263359260272" lon="9.549655293435759"><ele>1159.0</ele><time>2026-05-01T16:50:04Z</time></trkpt><trkpt lat="44.50256158602982" lon="9.549739766077082"><ele>1161.1666666666665</ele><time>2026-05-01T16:50:05Z</time></trkpt><trkpt lat="44.502492497762546" lon="9.549799621591045"><ele>1163.3333333333333</ele><time>2026-05-01T16:50:06Z</time></trkpt><trkpt lat="44.502431264673" lon="9.54983938693394"><ele>1165.5</ele><time>2026-05-01T16:50:07Z</time></trkpt><trkpt lat="44.50236126487559" lon="9.54985465083653"><ele>1167.6666666666667</ele><time>2026-05-01T16:50:08Z</time></trkpt><trkpt lat="44.502263983466584" lon="9.549761353643627"><ele>1169.8333333333335</ele><time>2026-05-01T16:50:10Z</time></trkpt><trkpt lat="44.502238988767274" lon="9.5496691994292"><ele>1172.0</ele><time>2026-05-01T16:50:11Z</time></trkpt><trkpt lat="44.50222086368004" lon="9.549543802763134"><ele>1174.2</ele><time>2026-05-01T16:50:12Z</time></trkpt><trkpt lat="44.50220731281826" lon="9.549400915477495"><ele>1176.4</ele><time>2026-05-01T16:50:13Z</time></trkpt><trkpt lat="44.502187794691025" lon="9.54925671889327"><ele>1178.6</ele><time>2026-05-01T16:50:14Z</time></trkpt><trkpt lat="44.50216685679362" lon="9.549142493340387"><ele>1180.8</ele><time>2026-05-01T16:50:15Z</time></trkpt><trkpt lat="44.50213007987965" lon="9.549048427326834"><ele>1183.0</ele><time>2026-05-01T16:50:16Z</time></trkpt><trkpt lat="44.502063785965966" lon="9.548959679079424"><ele>1183.0</ele><time>2026-05-01T16:50:17Z</time></trkpt><trkpt lat="44.501974695658745" lon="9.548883969305159"><ele>1183.0</ele><time>2026-05-01T16:50:18Z</time></trkpt><trkpt lat="44.501889677387695" lon="9.548837398351237"><ele>1183.0</ele><time>2026-05-01T16:50:19Z</time></trkpt><trkpt lat="44.50181983560557" lon="9.548802643222459"><ele>1183.0</ele><time>2026-05-01T16:50:20Z</time></trkpt><trkpt lat="44.501755006146155" lon="9.548739003311587"><ele>1183.0</ele><time>2026-05-01T16:50:21Z</time></trkpt><trkpt lat="44.50169449127737" lon="9.54864916621825"><ele>1183.0</ele><time>2026-05-01T16:50:22Z</time></trkpt><trkpt lat="44.50164745634687" lon="9.548537927268379"><ele>1178.8</ele><time>2026-05-01T16:50:23Z</time></trkpt><trkpt lat="44.50160744200934" lon="9.548418144435784"><ele>1174.6</ele><time>2026-05-01T16:50:24Z</time></trkpt><trkpt lat="44.501556125535615" lon="9.548312711091377"><ele>1170.4</ele><time>2026-05-01T16:50:25Z</time></trkpt><trkpt lat="44.50148090173827" lon="9.548229537696296"><ele>1166.2</ele><time>2026-05-01T16:50:26Z</time></trkpt><trkpt lat="44.50139841305519" lon="9.548161527383048"><ele>1162.0</ele><time>2026-05-01T16:50:27Z</time></trkpt><trkpt lat="44.50132376131137" lon="9.548100729864942"><ele>1162.0</ele><time>2026-05-01T16:50:28Z</time></trkpt><trkpt lat="44.50125976857782" lon="9.548042459052235"><ele>1162.0</ele><time>2026-05-01T16:50:29Z</time></trkpt><trkpt lat="44.50120105774814" lon="9.5480100244299"><ele>1162.0</ele><time>2026-05-01T16:50:30Z</time></trkpt><trkpt lat="44.501140802550886" lon="9.547979498220139"><ele>1162.0</ele><time>2026-05-01T16:50:31Z</time></trkpt><trkpt lat="44.50106315025254" lon="9.547927397739086"><ele>1162.0</ele><time>2026-05-01T16:50:33Z</time></trkpt><trkpt lat="44.500986673447755" lon="9.547896306704192"><ele>1162.0</ele><time>2026-05-01T16:50:37Z</time></trkpt><trkpt lat="44.50092666991193" lon="9.54783163434144"><ele>1162.0</ele><time>2026-05-01T16:50:39Z</time></trkpt><trkpt lat="44.50081930940287" lon="9.547728335934398"><ele>1161.8</ele><time>2026-05-01T16:50:41Z</time></trkpt><trkpt lat="44.50074990591509" lon="9.547722483872816"><ele>1161.6</ele><time>2026-05-01T16:50:42Z</time></trkpt><trkpt lat="44.500681602414076" lon="9.547763129668887"><ele>1161.3999999999999</ele><time>2026-05-01T16:50:43Z</time></trkpt><trkpt lat="44.50061286696896" lon="9.547838217057679"><ele>1161.2</ele><time>2026-05-01T16:50:44Z</time></trkpt><trkpt lat="44.500526143893346" lon="9.547960271890577"><ele>1161.0</ele><time>2026-05-01T16:50:45Z</time></trkpt><trkpt lat="44.50039841044361" lon="9.548119371703592"><ele>1162.6666666666667</ele><time>2026-05-01T16:50:46Z</time></trkpt><trkpt lat="44.50025819765108" lon="9.548262528645262"><ele>1164.3333333333335</ele><time>2026-05-01T16:50:47Z</time></trkpt><trkpt lat="44.500103652909594" lon="9.548360444096316"><ele>1166.0</ele><time>2026-05-01T16:50:48Z</time></trkpt><trkpt lat="44.50000293398001" lon="9.548430846116677"><ele>1166.0</ele><time>2026-05-01T16:50:49Z</time></trkpt><trkpt lat="44.49987637831156" lon="9.548523194824504"><ele>1166.0</ele><time>2026-05-01T16:50:50Z</time></trkpt><trkpt lat="44.49974551098575" lon="9.548598371724927"><ele>1166.0</ele><time>2026-05-01T16:50:51Z</time></trkpt><trkpt lat="44.499625128036" lon="9.548672096365257"><ele>1166.0</ele><time>2026-05-01T16:50:52Z</time></trkpt><trkpt lat="44.49951459507071" lon="9.548718564326583"><ele>1165.3999999999999</ele><time>2026-05-01T16:50:53Z</time></trkpt><trkpt lat="44.499401773480024" lon="9.548750881115325"><ele>1164.8</ele><time>2026-05-01T16:50:54Z</time></trkpt><trkpt lat="44.49929323527225" lon="9.54876612252164"><ele>1164.1999999999998</ele><time>2026-05-01T16:50:55Z</time></trkpt><trkpt lat="44.49920134110031" lon="9.548747732556633"><ele>1163.6</ele><time>2026-05-01T16:50:56Z</time></trkpt><trkpt lat="44.499109768447184" lon="9.548677644352706"><ele>1163.0</ele><time>2026-05-01T16:50:57Z</time></trkpt><trkpt lat="44.499004132504936" lon="9.548571511268355"><ele>1163.0</ele><time>2026-05-01T16:50:58Z</time></trkpt><trkpt lat="44.49891026008513" lon="9.548450515849348"><ele>1163.0</ele><time>2026-05-01T16:50:59Z</time></trkpt><trkpt lat="44.498819978598604" lon="9.548362464093483"><ele>1163.0</ele><time>2026-05-01T16:51:00Z</time></trkpt><trkpt lat="44.498720670082086" lon="9.548297197065299"><ele>1163.0</ele><time>2026-05-01T16:51:01Z</time></trkpt><trkpt lat="44.4986100754263" lon="9.54826487766037"><ele>1163.4</ele><time>2026-05-01T16:51:02Z</time></trkpt><trkpt lat="44.498494704375545" lon="9.54825572573917"><ele>1163.8</ele><time>2026-05-01T16:51:03Z</time></trkpt><trkpt lat="44.498383852277335" lon="9.548271904665876"><ele>1164.2</ele><time>2026-05-01T16:51:04Z</time></trkpt><trkpt lat="44.498283642340716" lon="9.548307070423494"><ele>1164.6</ele><time>2026-05-01T16:51:05Z</time></trkpt><trkpt lat="44.49817728693457" lon="9.548358194269637"><ele>1165.0</ele><time>2026-05-01T16:51:06Z</time></trkpt><trkpt lat="44.49807671704095" lon="9.54844107619696"><ele>1165.0</ele><time>2026-05-01T16:51:07Z</time></trkpt><trkpt lat="44.49798596139049" lon="9.548532118117567"><ele>1165.0</ele><time>2026-05-01T16:51:08Z</time></trkpt><trkpt lat="44.497879568924894" lon="9.548613533120161"><ele>1165.0</ele><time>2026-05-01T16:51:09Z</time></trkpt><trkpt lat="44.49776068468706" lon="9.54865550407625"><ele>1165.0</ele><time>2026-05-01T16:51:10Z</time></trkpt><trkpt lat="44.49764580129156" lon="9.548655641818952"><ele>1165.25</ele><time>2026-05-01T16:51:11Z</time></trkpt><trkpt lat="44.49752740951538" lon="9.548623954380238"><ele>1165.5</ele><time>2026-05-01T16:51:12Z</time></trkpt><trkpt lat="44.49741386880294" lon="9.548604291277815"><ele>1165.75</ele><time>2026-05-01T16:51:13Z</time></trkpt><trkpt lat="44.497283848537165" lon="9.548620616823742"><ele>1166.0</ele><time>2026-05-01T16:51:14Z</time></trkpt><trkpt lat="44.49715868850926" lon="9.548674413030787"><ele>1168.2</ele><time>2026-05-01T16:51:15Z</time></trkpt><trkpt lat="44.49706122889856" lon="9.54871984959945"><ele>1170.3999999999999</ele><time>2026-05-01T16:51:16Z</time></trkpt><trkpt lat="44.49696722628565" lon="9.548722662453901"><ele>1172.6</ele><time>2026-05-01T16:51:17Z</time></trkpt><trkpt lat="44.49687492719077" lon="9.548669355433304"><ele>1174.8</ele><time>2026-05-01T16:51:18Z</time></trkpt><trkpt lat="44.4967793063015" lon="9.54857442125261"><ele>1177.0</ele><time>2026-05-01T16:51:19Z</time></trkpt><trkpt lat="44.496700071102055" lon="9.548515101216486"><ele>1177.0</ele><time>2026-05-01T16:51:20Z</time></trkpt><trkpt lat="44.496610082831765" lon="9.548498395109355"><ele>1177.0</ele><time>2026-05-01T16:51:21Z</time></trkpt><trkpt lat="44.49651026366362" lon="9.548507681025917"><ele>1177.0</ele><time>2026-05-01T16:51:22Z</time></trkpt><trkpt lat="44.49638433716279" lon="9.548540201618543"><ele>1177.0</ele><time>2026-05-01T16:51:23Z</time></trkpt><trkpt lat="44.496237556083535" lon="9.548583810993112"><ele>1178.3333333333333</ele><time>2026-05-01T16:51:24Z</time></trkpt><trkpt lat="44.496072150924" lon="9.548622271042163"><ele>1179.6666666666667</ele><time>2026-05-01T16:51:25Z</time></trkpt><trkpt lat="44.49590834700607" lon="9.548641815619776"><ele>1181.0</ele><time>2026-05-01T16:51:26Z</time></trkpt><trkpt lat="44.49575064758228" lon="9.548647821273608"><ele>1181.0</ele><time>2026-05-01T16:51:27Z</time></trkpt><trkpt lat="44.49562539158163" lon="9.548662442127593"><ele>1181.0</ele><time>2026-05-01T16:51:28Z</time></trkpt><trkpt lat="44.49551011264052" lon="9.54867796209495"><ele>1181.0</ele><time>2026-05-01T16:51:29Z</time></trkpt><trkpt lat="44.49540526078065" lon="9.548661355092303"><ele>1181.0</ele><time>2026-05-01T16:51:30Z</time></trkpt><trkpt lat="44.495287041865254" lon="9.548604024842275"><ele>1183.25</ele><time>2026-05-01T16:51:31Z</time></trkpt><trkpt lat="44.49516031902481" lon="9.548555233959151"><ele>1185.5</ele><time>2026-05-01T16:51:32Z</time></trkpt><trkpt lat="44.49502012990138" lon="9.548517869125908"><ele>1187.75</ele><time>2026-05-01T16:51:33Z</time></trkpt><trkpt lat="44.49488632550126" lon="9.548494609363646"><ele>1190.0</ele><time>2026-05-01T16:51:34Z</time></trkpt><trkpt lat="44.49476952259265" lon="9.548471835950007"><ele>1190.0</ele><time>2026-05-01T16:51:35Z</time></trkpt><trkpt lat="44.49464778341318" lon="9.548449263217162"><ele>1190.0</ele><time>2026-05-01T16:51:36Z</time></trkpt><trkpt lat="44.49454406768813" lon="9.54843224424652"><ele>1190.0</ele><time>2026-05-01T16:51:37Z</time></trkpt><trkpt lat="44.49446076274322" lon="9.548402120458757"><ele>1190.0</ele><time>2026-05-01T16:51:38Z</time></trkpt><trkpt lat="44.494407539471055" lon="9.548349766479342"><ele>1190.0</ele><time>2026-05-01T16:51:39Z</time></trkpt><trkpt lat="44.49437188580331" lon="9.54827318666605"><ele>1190.0</ele><time>2026-05-01T16:51:40Z</time></trkpt><trkpt lat="44.49437331378158" lon="9.548175247086176"><ele>1188.8</ele><time>2026-05-01T16:51:41Z</time></trkpt><trkpt lat="44.49440697510627" lon="9.548082037877586"><ele>1187.6</ele><time>2026-05-01T16:51:42Z</time></trkpt><trkpt lat="44.4944744400275" lon="9.547967220688133"><ele>1186.4</ele><time>2026-05-01T16:51:43Z</time></trkpt><trkpt lat="44.49455787768613" lon="9.54785986276046"><ele>1185.2</ele><time>2026-05-01T16:51:44Z</time></trkpt><trkpt lat="44.494609161912244" lon="9.54776469390305"><ele>1184.0</ele><time>2026-05-01T16:51:45Z</time></trkpt><trkpt lat="44.49463301811899" lon="9.547661896244811"><ele>1184.0</ele><time>2026-05-01T16:51:46Z</time></trkpt><trkpt lat="44.4946408052779" lon="9.54754325346794"><ele>1184.0</ele><time>2026-05-01T16:51:47Z</time></trkpt><trkpt lat="44.49465364243866" lon="9.547430874462389"><ele>1184.0</ele><time>2026-05-01T16:51:48Z</time></trkpt><trkpt lat="44.49468050132146" lon="9.547314116290828"><ele>1184.0</ele><time>2026-05-01T16:51:49Z</time></trkpt><trkpt lat="44.49471257329037" lon="9.547212290875589"><ele>1184.0</ele><time>2026-05-01T16:51:49.999Z</time></trkpt><trkpt lat="44.49471981132966" lon="9.5471153520059"><ele>1184.0</ele><time>2026-05-01T16:51:50.999Z</time></trkpt><trkpt lat="44.494696896238146" lon="9.547027074790433"><ele>1184.0</ele><time>2026-05-01T16:51:51.999Z</time></trkpt><trkpt lat="44.49465261024999" lon="9.546946384549765"><ele>1184.0</ele><time>2026-05-01T16:51:52.999Z</time></trkpt><trkpt lat="44.49458559696052" lon="9.546887016694367"><ele>1184.0</ele><time>2026-05-01T16:51:54Z</time></trkpt><trkpt lat="44.49449508414762" lon="9.546870998924083"><ele>1184.0</ele><time>2026-05-01T16:51:55Z</time></trkpt><trkpt lat="44.49438767429432" lon="9.546889817152746"><ele>1184.0</ele><time>2026-05-01T16:51:56Z</time></trkpt><trkpt lat="44.49430639389215" lon="9.546937762111241"><ele>1184.0</ele><time>2026-05-01T16:51:57Z</time></trkpt><trkpt lat="44.49426435863643" lon="9.547020874558898"><ele>1186.8</ele><time>2026-05-01T16:51:58Z</time></trkpt><trkpt lat="44.494252076198464" lon="9.547133557087975"><ele>1189.6000000000001</ele><time>2026-05-01T16:51:59Z</time></trkpt><trkpt lat="44.49426603321755" lon="9.547266257845646"><ele>1192.4</ele><time>2026-05-01T16:52:00Z</time></trkpt><trkpt lat="44.494302373195204" lon="9.547433637795748"><ele>1195.2</ele><time>2026-05-01T16:52:01Z</time></trkpt><trkpt lat="44.494320065824525" lon="9.54759826144604"><ele>1198.0</ele><time>2026-05-01T16:52:02Z</time></trkpt><trkpt lat="44.494313538071175" lon="9.54769573679591"><ele>1198.0</ele><time>2026-05-01T16:52:03Z</time></trkpt><trkpt lat="44.494279453469154" lon="9.547782026247361"><ele>1198.0</ele><time>2026-05-01T16:52:04Z</time></trkpt><trkpt lat="44.49420575337204" lon="9.54782661896713"><ele>1198.0</ele><time>2026-05-01T16:52:05Z</time></trkpt><trkpt lat="44.49412632895267" lon="9.547856370211669"><ele>1198.0</ele><time>2026-05-01T16:52:06Z</time></trkpt><trkpt lat="44.49401546968972" lon="9.54786541904909"><ele>1198.0</ele><time>2026-05-01T16:52:07Z</time></trkpt><trkpt lat="44.49390825604993" lon="9.547889613520148"><ele>1199.75</ele><time>2026-05-01T16:52:08Z</time></trkpt><trkpt lat="44.49379948400121" lon="9.547960130666137"><ele>1201.5</ele><time>2026-05-01T16:52:09Z</time></trkpt><trkpt lat="44.49367886753529" lon="9.548052579292941"><ele>1203.25</ele><time>2026-05-01T16:52:10Z</time></trkpt><trkpt lat="44.49354730592102" lon="9.548111327655752"><ele>1205.0</ele><time>2026-05-01T16:52:11Z</time></trkpt><trkpt lat="44.49343284441662" lon="9.548146900134196"><ele>1207.8333333333335</ele><time>2026-05-01T16:52:12Z</time></trkpt><trkpt lat="44.49333636977441" lon="9.548201675245286"><ele>1210.6666666666667</ele><time>2026-05-01T16:52:13Z</time></trkpt><trkpt lat="44.49324775850758" lon="9.548241342801207"><ele>1213.5</ele><time>2026-05-01T16:52:14Z</time></trkpt><trkpt lat="44.4931715974084" lon="9.54826161978163"><ele>1216.3333333333333</ele><time>2026-05-01T16:52:15Z</time></trkpt><trkpt lat="44.49310699404636" lon="9.548288407430183"><ele>1219.1666666666665</ele><time>2026-05-01T16:52:16Z</time></trkpt><trkpt lat="44.49304536096005" lon="9.54832771690495"><ele>1222.0</ele><time>2026-05-01T16:52:17Z</time></trkpt><trkpt lat="44.492986270990315" lon="9.54836129814903"><ele>1224.6</ele><time>2026-05-01T16:52:18Z</time></trkpt><trkpt lat="44.4928856343496" lon="9.548394185743646"><ele>1227.2</ele><time>2026-05-01T16:52:20Z</time></trkpt><trkpt lat="44.49278529337199" lon="9.548309803000732"><ele>1229.8</ele><time>2026-05-01T16:52:22Z</time></trkpt><trkpt lat="44.49275482378826" lon="9.548227402385253"><ele>1232.4</ele><time>2026-05-01T16:52:23Z</time></trkpt><trkpt lat="44.49276347532281" lon="9.548122824067992"><ele>1235.0</ele><time>2026-05-01T16:52:24Z</time></trkpt><trkpt lat="44.49279818931866" lon="9.548004291044649"><ele>1235.0</ele><time>2026-05-01T16:52:25Z</time></trkpt><trkpt lat="44.492833165336144" lon="9.54788498284537"><ele>1235.0</ele><time>2026-05-01T16:52:26Z</time></trkpt><trkpt lat="44.49285715413512" lon="9.547746522282393"><ele>1235.0</ele><time>2026-05-01T16:52:27Z</time></trkpt><trkpt lat="44.492872039041785" lon="9.547592784433155"><ele>1235.0</ele><time>2026-05-01T16:52:28Z</time></trkpt><trkpt lat="44.492874356197845" lon="9.547440614389657"><ele>1235.0</ele><time>2026-05-01T16:52:29Z</time></trkpt><trkpt lat="44.49287252891809" lon="9.547304143011178"><ele>1235.5</ele><time>2026-05-01T16:52:30Z</time></trkpt><trkpt lat="44.492861035375306" lon="9.547163069648251"><ele>1236.0</ele><time>2026-05-01T16:52:31Z</time></trkpt><trkpt lat="44.49282608132938" lon="9.547045512258743"><ele>1236.5</ele><time>2026-05-01T16:52:32Z</time></trkpt><trkpt lat="44.49278865511607" lon="9.546935486381397"><ele>1237.0</ele><time>2026-05-01T16:52:33Z</time></trkpt><trkpt lat="44.492754224756276" lon="9.546819290427546"><ele>1237.5</ele><time>2026-05-01T16:52:34Z</time></trkpt><trkpt lat="44.492730475476144" lon="9.546711568273063"><ele>1238.0</ele><time>2026-05-01T16:52:35Z</time></trkpt><trkpt lat="44.49271506023151" lon="9.546593807561091"><ele>1238.0</ele><time>2026-05-01T16:52:36Z</time></trkpt><trkpt lat="44.49270364609417" lon="9.54647361404682"><ele>1238.0</ele><time>2026-05-01T16:52:37Z</time></trkpt><trkpt lat="44.49270129316224" lon="9.546343638532393"><ele>1238.0</ele><time>2026-05-01T16:52:38Z</time></trkpt><trkpt lat="44.49270303967683" lon="9.546206401844751"><ele>1238.0</ele><time>2026-05-01T16:52:39Z</time></trkpt><trkpt lat="44.49271155013416" lon="9.546066409391205"><ele>1238.0</ele><time>2026-05-01T16:52:40Z</time></trkpt><trkpt lat="44.492721337636674" lon="9.545940317866473"><ele>1238.4</ele><time>2026-05-01T16:52:41Z</time></trkpt><trkpt lat="44.49272120847299" lon="9.545807008148987"><ele>1238.8</ele><time>2026-05-01T16:52:42Z</time></trkpt><trkpt lat="44.492712244766615" lon="9.545675447040079"><ele>1239.2</ele><time>2026-05-01T16:52:43Z</time></trkpt><trkpt lat="44.492703259632925" lon="9.54553959821814"><ele>1239.6</ele><time>2026-05-01T16:52:44Z</time></trkpt><trkpt lat="44.49269497228748" lon="9.545409551701722"><ele>1240.0</ele><time>2026-05-01T16:52:45Z</time></trkpt><trkpt lat="44.492696975284275" lon="9.545272427091081"><ele>1241.2</ele><time>2026-05-01T16:52:46Z</time></trkpt><trkpt lat="44.49270881460391" lon="9.545136077133652"><ele>1242.4</ele><time>2026-05-01T16:52:47Z</time></trkpt><trkpt lat="44.492752461722894" lon="9.54499897827433"><ele>1243.6</ele><time>2026-05-01T16:52:48Z</time></trkpt><trkpt lat="44.49281005493093" lon="9.544847066321525"><ele>1244.8</ele><time>2026-05-01T16:52:49Z</time></trkpt><trkpt lat="44.492861258513436" lon="9.544701813406546"><ele>1246.0</ele><time>2026-05-01T16:52:50Z</time></trkpt><trkpt lat="44.49290340799634" lon="9.544567968192938"><ele>1237.6</ele><time>2026-05-01T16:52:51Z</time></trkpt><trkpt lat="44.49293904305056" lon="9.544441594123402"><ele>1229.1999999999998</ele><time>2026-05-01T16:52:52Z</time></trkpt><trkpt lat="44.49296582199789" lon="9.544301510778476"><ele>1220.8000000000002</ele><time>2026-05-01T16:52:53Z</time></trkpt><trkpt lat="44.49297098663007" lon="9.544157710526182"><ele>1212.4</ele><time>2026-05-01T16:52:54Z</time></trkpt><trkpt lat="44.49296416037343" lon="9.544018608062618"><ele>1204.0</ele><time>2026-05-01T16:52:55Z</time></trkpt><trkpt lat="44.49294549454329" lon="9.543895904834438"><ele>1210.6000000000001</ele><time>2026-05-01T16:52:56Z</time></trkpt><trkpt lat="44.49289911275688" lon="9.543785447287343"><ele>1217.2</ele><time>2026-05-01T16:52:57Z</time></trkpt><trkpt lat="44.49284137258959" lon="9.543685250283037"><ele>1223.8000000000002</ele><time>2026-05-01T16:52:58Z</time></trkpt><trkpt lat="44.492763958671084" lon="9.543598152494347"><ele>1230.4</ele><time>2026-05-01T16:52:59Z</time></trkpt><trkpt lat="44.49266863638284" lon="9.543529389164911"><ele>1237.0</ele><time>2026-05-01T16:53:00Z</time></trkpt><trkpt lat="44.49256626384784" lon="9.543461364309435"><ele>1237.0</ele><time>2026-05-01T16:53:01Z</time></trkpt><trkpt lat="44.49247774866474" lon="9.543384508964474"><ele>1237.0</ele><time>2026-05-01T16:53:02Z</time></trkpt><trkpt lat="44.49240692818921" lon="9.543274774403274"><ele>1237.0</ele><time>2026-05-01T16:53:03Z</time></trkpt><trkpt lat="44.4923884837159" lon="9.543123676668076"><ele>1237.0</ele><time>2026-05-01T16:53:04Z</time></trkpt><trkpt lat="44.49234834319101" lon="9.543006790099462"><ele>1237.0</ele><time>2026-05-01T16:53:05Z</time></trkpt><trkpt lat="44.49230938211481" lon="9.542903484459288"><ele>1237.5</ele><time>2026-05-01T16:53:06Z</time></trkpt><trkpt lat="44.49220875533802" lon="9.542824779888413"><ele>1238.0</ele><time>2026-05-01T16:53:07Z</time></trkpt><trkpt lat="44.492104123991986" lon="9.542761443400723"><ele>1238.5</ele><time>2026-05-01T16:53:08Z</time></trkpt><trkpt lat="44.491979266170524" lon="9.54269392020431"><ele>1239.0</ele><time>2026-05-01T16:53:09Z</time></trkpt><trkpt lat="44.491901236506806" lon="9.542596039955518"><ele>1239.0</ele><time>2026-05-01T16:53:10Z</time></trkpt><trkpt lat="44.49183811495419" lon="9.542492825871502"><ele>1239.0</ele><time>2026-05-01T16:53:11Z</time></trkpt><trkpt lat="44.49176496856757" lon="9.54236163216311"><ele>1239.0</ele><time>2026-05-01T16:53:12Z</time></trkpt><trkpt lat="44.491681672874556" lon="9.542209998985639"><ele>1239.0</ele><time>2026-05-01T16:53:13Z</time></trkpt><trkpt lat="44.491582438838876" lon="9.542077078630962"><ele>1236.0</ele><time>2026-05-01T16:53:14Z</time></trkpt><trkpt lat="44.49150385623668" lon="9.541934608150973"><ele>1233.0</ele><time>2026-05-01T16:53:15Z</time></trkpt><trkpt lat="44.491452768028346" lon="9.54177158130041"><ele>1230.0</ele><time>2026-05-01T16:53:16Z</time></trkpt><trkpt lat="44.491415743030764" lon="9.541604174033656"><ele>1227.0</ele><time>2026-05-01T16:53:17Z</time></trkpt><trkpt lat="44.49139808992482" lon="9.54144009723566"><ele>1227.0</ele><time>2026-05-01T16:53:18Z</time></trkpt><trkpt lat="44.49139125591271" lon="9.541297458123909"><ele>1227.0</ele><time>2026-05-01T16:53:19Z</time></trkpt><trkpt lat="44.49138650608529" lon="9.541186962262326"><ele>1227.0</ele><time>2026-05-01T16:53:20Z</time></trkpt><trkpt lat="44.491354438045185" lon="9.541081209823222"><ele>1227.0</ele><time>2026-05-01T16:53:21Z</time></trkpt><trkpt lat="44.491292100996596" lon="9.540991406278756"><ele>1227.0</ele><time>2026-05-01T16:53:22Z</time></trkpt><trkpt lat="44.49123372995323" lon="9.540889623338176"><ele>1227.0</ele><time>2026-05-01T16:53:23Z</time></trkpt><trkpt lat="44.491154040676115" lon="9.540802512613226"><ele>1227.25</ele><time>2026-05-01T16:53:24Z</time></trkpt><trkpt lat="44.491061482233235" lon="9.540700521851425"><ele>1227.5</ele><time>2026-05-01T16:53:25Z</time></trkpt><trkpt lat="44.49096026101906" lon="9.540590808670332"><ele>1227.75</ele><time>2026-05-01T16:53:26Z</time></trkpt><trkpt lat="44.490850800259416" lon="9.540496038495984"><ele>1228.0</ele><time>2026-05-01T16:53:27Z</time></trkpt><trkpt lat="44.49076784565282" lon="9.540371932570523"><ele>1228.0</ele><time>2026-05-01T16:53:28Z</time></trkpt><trkpt lat="44.49067511172454" lon="9.54029106242869"><ele>1228.0</ele><time>2026-05-01T16:53:29Z</time></trkpt><trkpt lat="44.490596780407984" lon="9.540193870546391"><ele>1228.0</ele><time>2026-05-01T16:53:30Z</time></trkpt><trkpt lat="44.49052082388738" lon="9.540113405188855"><ele>1228.0</ele><time>2026-05-01T16:53:31Z</time></trkpt><trkpt lat="44.49043533360458" lon="9.54007210201885"><ele>1228.0</ele><time>2026-05-01T16:53:32Z</time></trkpt><trkpt lat="44.490340636209176" lon="9.540052968873495"><ele>1232.6</ele><time>2026-05-01T16:53:33Z</time></trkpt><trkpt lat="44.49025262123991" lon="9.540001548684248"><ele>1237.1999999999998</ele><time>2026-05-01T16:53:34Z</time></trkpt><trkpt lat="44.49017634965472" lon="9.53993705525841"><ele>1241.8</ele><time>2026-05-01T16:53:35Z</time></trkpt><trkpt lat="44.49010425014188" lon="9.539849695210993"><ele>1246.3999999999999</ele><time>2026-05-01T16:53:36Z</time></trkpt><trkpt lat="44.49005574208354" lon="9.539733172727733"><ele>1251.0</ele><time>2026-05-01T16:53:37Z</time></trkpt><trkpt lat="44.49002016077064" lon="9.539600794960897"><ele>1246.25</ele><time>2026-05-01T16:53:38Z</time></trkpt><trkpt lat="44.489995087273826" lon="9.539438562087765"><ele>1241.5</ele><time>2026-05-01T16:53:39Z</time></trkpt><trkpt lat="44.489987691254015" lon="9.539229362275771"><ele>1236.75</ele><time>2026-05-01T16:53:40Z</time></trkpt><trkpt lat="44.48999355511005" lon="9.538987343076464"><ele>1232.0</ele><time>2026-05-01T16:53:41Z</time></trkpt><trkpt lat="44.49000108368754" lon="9.538774850544254"><ele>1231.0</ele><time>2026-05-01T16:53:42Z</time></trkpt><trkpt lat="44.490006019035235" lon="9.538593052886041"><ele>1230.0</ele><time>2026-05-01T16:53:42.999Z</time></trkpt><trkpt lat="44.49000734513469" lon="9.53843332719369"><ele>1229.0</ele><time>2026-05-01T16:53:43.999Z</time></trkpt><trkpt lat="44.48998902726945" lon="9.538279251461795"><ele>1228.0</ele><time>2026-05-01T16:53:44.999Z</time></trkpt><trkpt lat="44.48996968304075" lon="9.538129248994121"><ele>1228.0</ele><time>2026-05-01T16:53:45.999Z</time></trkpt><trkpt lat="44.48993858267446" lon="9.537994179374056"><ele>1228.0</ele><time>2026-05-01T16:53:46.999Z</time></trkpt><trkpt lat="44.48989179363355" lon="9.537884888007994"><ele>1228.0</ele><time>2026-05-01T16:53:47.999Z</time></trkpt><trkpt lat="44.48982858884198" lon="9.537794902819288"><ele>1228.0</ele><time>2026-05-01T16:53:48.999Z</time></trkpt><trkpt lat="44.489743586392954" lon="9.537718956657823"><ele>1228.0</ele><time>2026-05-01T16:53:49.999Z</time></trkpt><trkpt lat="44.48964632193876" lon="9.537634643659274"><ele>1231.0</ele><time>2026-05-01T16:53:50.999Z</time></trkpt><trkpt lat="44.48956773776477" lon="9.53751637091216"><ele>1234.0</ele><time>2026-05-01T16:53:51.999Z</time></trkpt><trkpt lat="44.4894893156762" lon="9.537396413965034"><ele>1237.0</ele><time>2026-05-01T16:53:52.999Z</time></trkpt><trkpt lat="44.4894153143173" lon="9.537282672525626"><ele>1240.0</ele><time>2026-05-01T16:53:53.999Z</time></trkpt><trkpt lat="44.489344043035345" lon="9.537173127261893"><ele>1243.0</ele><time>2026-05-01T16:53:54.999Z</time></trkpt><trkpt lat="44.489282487768556" lon="9.537077153533408"><ele>1241.0000000000002</ele><time>2026-05-01T16:53:55.999Z</time></trkpt><trkpt lat="44.489224297851806" lon="9.536984273475085"><ele>1239.0</ele><time>2026-05-01T16:53:56.999Z</time></trkpt><trkpt lat="44.48917924079371" lon="9.53690959392998"><ele>1237.0</ele><time>2026-05-01T16:53:57.999Z</time></trkpt><trkpt lat="44.48912637087364" lon="9.536821832773652"><ele>1235.0</ele><time>2026-05-01T16:53:58.999Z</time></trkpt><trkpt lat="44.489081588323636" lon="9.53674351452539"><ele>1233.0</ele><time>2026-05-01T16:54:00Z</time></trkpt><trkpt lat="44.48904027025199" lon="9.536669809364787"><ele>1231.0000000000002</ele><time>2026-05-01T16:54:01Z</time></trkpt><trkpt lat="44.48900164827995" lon="9.536599045603285"><ele>1229.0</ele><time>2026-05-01T16:54:02Z</time></trkpt><trkpt lat="44.48895424973196" lon="9.536511348069487"><ele>1229.0</ele><time>2026-05-01T16:54:03Z</time></trkpt><trkpt lat="44.48888595000063" lon="9.536384009744243"><ele>1229.0</ele><time>2026-05-01T16:54:04Z</time></trkpt><trkpt lat="44.48880603365305" lon="9.536236447801402"><ele>1229.0</ele><time>2026-05-01T16:54:05Z</time></trkpt><trkpt lat="44.48871075061305" lon="9.536104069867164"><ele>1229.0</ele><time>2026-05-01T16:54:06Z</time></trkpt><trkpt lat="44.488653098086736" lon="9.535946619930932"><ele>1231.0</ele><time>2026-05-01T16:54:07Z</time></trkpt><trkpt lat="44.4885985398119" lon="9.535773028802444"><ele>1233.0</ele><time>2026-05-01T16:54:08Z</time></trkpt><trkpt lat="44.48858174633471" lon="9.535603970026287"><ele>1235.0</ele><time>2026-05-01T16:54:09Z</time></trkpt><trkpt lat="44.48857829052489" lon="9.535431185507008"><ele>1237.0</ele><time>2026-05-01T16:54:10Z</time></trkpt><trkpt lat="44.48856093236735" lon="9.535246771133881"><ele>1237.0</ele><time>2026-05-01T16:54:11Z</time></trkpt><trkpt lat="44.48850600202461" lon="9.535094223946832"><ele>1237.0</ele><time>2026-05-01T16:54:12Z</time></trkpt><trkpt lat="44.48843087120622" lon="9.534966620590668"><ele>1237.0</ele><time>2026-05-01T16:54:13Z</time></trkpt><trkpt lat="44.48833604699106" lon="9.53483882345914"><ele>1237.0</ele><time>2026-05-01T16:54:14Z</time></trkpt><trkpt lat="44.48825896940077" lon="9.534699725357896"><ele>1237.0</ele><time>2026-05-01T16:54:15Z</time></trkpt><trkpt lat="44.48818407899012" lon="9.534592739053382"><ele>1237.0</ele><time>2026-05-01T16:54:16Z</time></trkpt><trkpt lat="44.488121509313395" lon="9.53452410128929"><ele>1237.0</ele><time>2026-05-01T16:54:17Z</time></trkpt><trkpt lat="44.48808334220856" lon="9.534448357945449"><ele>1237.0</ele><time>2026-05-01T16:54:18Z</time></trkpt><trkpt lat="44.48804177150295" lon="9.534351434151148"><ele>1237.0</ele><time>2026-05-01T16:54:20Z</time></trkpt><trkpt lat="44.48796880896345" lon="9.534232014728516"><ele>1237.0</ele><time>2026-05-01T16:55:15Z</time></trkpt><trkpt lat="44.487980382552806" lon="9.534090949952644"><ele>1236.2</ele><time>2026-05-01T16:55:16Z</time></trkpt><trkpt lat="44.487980337825284" lon="9.533961488016004"><ele>1235.4</ele><time>2026-05-01T16:55:17Z</time></trkpt><trkpt lat="44.48799125159876" lon="9.533803024367135"><ele>1234.6</ele><time>2026-05-01T16:55:18Z</time></trkpt><trkpt lat="44.48801096819577" lon="9.533647469788285"><ele>1233.8</ele><time>2026-05-01T16:55:19Z</time></trkpt><trkpt lat="44.48803767031308" lon="9.533480548065858"><ele>1233.0</ele><time>2026-05-01T16:55:20Z</time></trkpt><trkpt lat="44.48807204621555" lon="9.533312939294252"><ele>1233.0</ele><time>2026-05-01T16:55:21Z</time></trkpt><trkpt lat="44.48810785778549" lon="9.533136653237056"><ele>1233.0</ele><time>2026-05-01T16:55:22Z</time></trkpt><trkpt lat="44.488172501998726" lon="9.532963237409716"><ele>1233.0</ele><time>2026-05-01T16:55:23Z</time></trkpt><trkpt lat="44.48824062309054" lon="9.532797016214918"><ele>1233.0</ele><time>2026-05-01T16:55:24Z</time></trkpt><trkpt lat="44.48832068988677" lon="9.532642487567616"><ele>1236.4</ele><time>2026-05-01T16:55:25Z</time></trkpt><trkpt lat="44.488386286318644" lon="9.532507651645002"><ele>1239.8</ele><time>2026-05-01T16:55:26Z</time></trkpt><trkpt lat="44.488429843675526" lon="9.532385047388656"><ele>1243.2</ele><time>2026-05-01T16:55:27Z</time></trkpt><trkpt lat="44.48848585756121" lon="9.53228525771186"><ele>1246.6</ele><time>2026-05-01T16:55:28Z</time></trkpt><trkpt lat="44.48848966561866" lon="9.53214316097556"><ele>1250.0</ele><time>2026-05-01T16:55:29Z</time></trkpt><trkpt lat="44.48848066415733" lon="9.531984868810136"><ele>1252.75</ele><time>2026-05-01T16:55:30Z</time></trkpt><trkpt lat="44.48849074509606" lon="9.5318128523913"><ele>1255.5</ele><time>2026-05-01T16:55:31Z</time></trkpt><trkpt lat="44.48850060623032" lon="9.531618848848705"><ele>1258.25</ele><time>2026-05-01T16:55:32Z</time></trkpt><trkpt lat="44.488516483858525" lon="9.531424687326998"><ele>1261.0</ele><time>2026-05-01T16:55:33Z</time></trkpt><trkpt lat="44.4885467269979" lon="9.531230870375387"><ele>1260.5</ele><time>2026-05-01T16:55:34Z</time></trkpt><trkpt lat="44.488592699493935" lon="9.53103074947799"><ele>1260.0</ele><time>2026-05-01T16:55:35Z</time></trkpt><trkpt lat="44.488657654780255" lon="9.530845890801842"><ele>1259.5</ele><time>2026-05-01T16:55:36Z</time></trkpt><trkpt lat="44.488742065080075" lon="9.530679242158223"><ele>1259.0</ele><time>2026-05-01T16:55:37Z</time></trkpt><trkpt lat="44.48884826312216" lon="9.530511408636741"><ele>1260.3333333333335</ele><time>2026-05-01T16:55:38Z</time></trkpt><trkpt lat="44.48897135111194" lon="9.530334133299682"><ele>1261.6666666666667</ele><time>2026-05-01T16:55:39Z</time></trkpt><trkpt lat="44.48909796386648" lon="9.530149596955884"><ele>1263.0</ele><time>2026-05-01T16:55:40Z</time></trkpt><trkpt lat="44.48923603298073" lon="9.52995121706632"><ele>1263.0</ele><time>2026-05-01T16:55:41Z</time></trkpt><trkpt lat="44.489362547292934" lon="9.529755881747205"><ele>1263.0</ele><time>2026-05-01T16:55:42Z</time></trkpt><trkpt lat="44.489513632009945" lon="9.529620852968486"><ele>1263.0</ele><time>2026-05-01T16:55:43Z</time></trkpt><trkpt lat="44.4896518657473" lon="9.529481985201498"><ele>1264.75</ele><time>2026-05-01T16:55:44Z</time></trkpt><trkpt lat="44.489772386386946" lon="9.529353059657176"><ele>1266.5</ele><time>2026-05-01T16:55:45Z</time></trkpt><trkpt lat="44.489883743506006" lon="9.529229841958673"><ele>1268.25</ele><time>2026-05-01T16:55:45.999Z</time></trkpt><trkpt lat="44.48998328560894" lon="9.529100019640705"><ele>1270.0</ele><time>2026-05-01T16:55:46.999Z</time></trkpt><trkpt lat="44.490059748048424" lon="9.528943585690104"><ele>1270.0</ele><time>2026-05-01T16:55:47.999Z</time></trkpt><trkpt lat="44.49009867218341" lon="9.5287592902792"><ele>1270.0</ele><time>2026-05-01T16:55:48.999Z</time></trkpt><trkpt lat="44.49010558110072" lon="9.528575069339581"><ele>1270.0</ele><time>2026-05-01T16:55:49.999Z</time></trkpt><trkpt lat="44.490098377568124" lon="9.528372658588822"><ele>1270.0</ele><time>2026-05-01T16:55:50.999Z</time></trkpt><trkpt lat="44.49009091276799" lon="9.52817317024479"><ele>1272.25</ele><time>2026-05-01T16:55:51.999Z</time></trkpt><trkpt lat="44.49008512285678" lon="9.5279967246522"><ele>1274.5</ele><time>2026-05-01T16:55:52.999Z</time></trkpt><trkpt lat="44.49008398406648" lon="9.527820935629366"><ele>1276.75</ele><time>2026-05-01T16:55:53.999Z</time></trkpt><trkpt lat="44.49007541145375" lon="9.527632804475497"><ele>1279.0</ele><time>2026-05-01T16:55:54.999Z</time></trkpt><trkpt lat="44.49011665864363" lon="9.527453408984293"><ele>1280.5</ele><time>2026-05-01T16:55:55.999Z</time></trkpt><trkpt lat="44.49017612338441" lon="9.527279019714504"><ele>1282.0</ele><time>2026-05-01T16:55:56.999Z</time></trkpt><trkpt lat="44.49024942463962" lon="9.527105879893277"><ele>1283.5</ele><time>2026-05-01T16:55:57.999Z</time></trkpt><trkpt lat="44.490332629194526" lon="9.526920908014437"><ele>1285.0</ele><time>2026-05-01T16:55:58.999Z</time></trkpt><trkpt lat="44.490419790143406" lon="9.526735581541903"><ele>1285.5</ele><time>2026-05-01T16:55:59.999Z</time></trkpt><trkpt lat="44.49048938745426" lon="9.526544144231483"><ele>1286.0</ele><time>2026-05-01T16:56:00.999Z</time></trkpt><trkpt lat="44.49052956192036" lon="9.526362002749902"><ele>1286.5</ele><time>2026-05-01T16:56:01.999Z</time></trkpt><trkpt lat="44.49052009109818" lon="9.526175298372644"><ele>1287.0</ele><time>2026-05-01T16:56:02.999Z</time></trkpt><trkpt lat="44.49050908737941" lon="9.525998977147815"><ele>1287.0</ele><time>2026-05-01T16:56:03.999Z</time></trkpt><trkpt lat="44.49049152458764" lon="9.525831956932654"><ele>1287.0</ele><time>2026-05-01T16:56:04.999Z</time></trkpt><trkpt lat="44.4904594185463" lon="9.5256799268467"><ele>1287.0</ele><time>2026-05-01T16:56:06Z</time></trkpt><trkpt lat="44.490452173814326" lon="9.525534229497998"><ele>1287.0</ele><time>2026-05-01T16:56:07Z</time></trkpt><trkpt lat="44.49042843932302" lon="9.525389704240224"><ele>1287.0</ele><time>2026-05-01T16:56:08Z</time></trkpt><trkpt lat="44.490402232767444" lon="9.52524292317498"><ele>1288.0</ele><time>2026-05-01T16:56:09Z</time></trkpt><trkpt lat="44.49037247168559" lon="9.525088514127907"><ele>1289.0</ele><time>2026-05-01T16:56:10Z</time></trkpt><trkpt lat="44.490330010280765" lon="9.524939278696877"><ele>1290.0</ele><time>2026-05-01T16:56:11Z</time></trkpt><trkpt lat="44.49030522428869" lon="9.524788534637763"><ele>1291.0</ele><time>2026-05-01T16:56:12Z</time></trkpt><trkpt lat="44.490265942016904" lon="9.52465615075694"><ele>1292.0</ele><time>2026-05-01T16:56:13Z</time></trkpt><trkpt lat="44.49023276427922" lon="9.524552521632323"><ele>1292.0</ele><time>2026-05-01T16:56:14Z</time></trkpt><trkpt lat="44.49017343030859" lon="9.524510378698833"><ele>1292.0</ele><time>2026-05-01T16:56:15Z</time></trkpt><trkpt lat="44.490104893644705" lon="9.52446764266842"><ele>1292.0</ele><time>2026-05-01T16:56:17Z</time></trkpt><trkpt lat="44.490001736471044" lon="9.524400974593945"><ele>1292.0</ele><time>2026-05-01T16:56:19Z</time></trkpt><trkpt lat="44.489928711469545" lon="9.524407595862266"><ele>1292.0</ele><time>2026-05-01T16:56:20Z</time></trkpt><trkpt lat="44.48983736354682" lon="9.524375083749216"><ele>1292.0</ele><time>2026-05-01T16:56:21Z</time></trkpt><trkpt lat="44.48972852180681" lon="9.524344336664182"><ele>1292.0</ele><time>2026-05-01T16:56:22Z</time></trkpt><trkpt lat="44.489631269794586" lon="9.524302752209458"><ele>1292.0</ele><time>2026-05-01T16:56:23Z</time></trkpt><trkpt lat="44.48955403417633" lon="9.524227603097486"><ele>1292.0</ele><time>2026-05-01T16:56:24Z</time></trkpt><trkpt lat="44.48951484298906" lon="9.524108929513096"><ele>1292.0</ele><time>2026-05-01T16:56:25Z</time></trkpt><trkpt lat="44.48948225441812" lon="9.523980466827927"><ele>1292.0</ele><time>2026-05-01T16:56:26Z</time></trkpt><trkpt lat="44.48944211660744" lon="9.523824462535565"><ele>1290.25</ele><time>2026-05-01T16:56:27Z</time></trkpt><trkpt lat="44.48937406466565" lon="9.523673433419185"><ele>1288.5</ele><time>2026-05-01T16:56:28Z</time></trkpt><trkpt lat="44.489321196599676" lon="9.52350643648571"><ele>1286.75</ele><time>2026-05-01T16:56:29Z</time></trkpt><trkpt lat="44.48924621891361" lon="9.523338072661645"><ele>1285.0</ele><time>2026-05-01T16:56:30Z</time></trkpt><trkpt lat="44.48915657440464" lon="9.523164632457615"><ele>1285.0</ele><time>2026-05-01T16:56:31Z</time></trkpt><trkpt lat="44.48905303077052" lon="9.522992961920908"><ele>1285.0</ele><time>2026-05-01T16:56:32Z</time></trkpt><trkpt lat="44.48894601405446" lon="9.522821633500623"><ele>1285.0</ele><time>2026-05-01T16:56:33Z</time></trkpt><trkpt lat="44.48884315171919" lon="9.522645813912222"><ele>1284.75</ele><time>2026-05-01T16:56:34Z</time></trkpt><trkpt lat="44.488756491457" lon="9.522474200749441"><ele>1284.5</ele><time>2026-05-01T16:56:35Z</time></trkpt><trkpt lat="44.488677385083726" lon="9.522297940932438"><ele>1284.25</ele><time>2026-05-01T16:56:36Z</time></trkpt><trkpt lat="44.48860477577197" lon="9.522113878856246"><ele>1284.0</ele><time>2026-05-01T16:56:37Z</time></trkpt><trkpt lat="44.48853223574249" lon="9.521922938949858"><ele>1283.75</ele><time>2026-05-01T16:56:38Z</time></trkpt><trkpt lat="44.48846823185838" lon="9.521731643638061"><ele>1283.5</ele><time>2026-05-01T16:56:39Z</time></trkpt><trkpt lat="44.48840982219387" lon="9.521546097256362"><ele>1283.25</ele><time>2026-05-01T16:56:40Z</time></trkpt><trkpt lat="44.488353833307954" lon="9.521359572457504"><ele>1283.0</ele><time>2026-05-01T16:56:41Z</time></trkpt><trkpt lat="44.48830322094822" lon="9.521181643483112"><ele>1283.0</ele><time>2026-05-01T16:56:42Z</time></trkpt><trkpt lat="44.48826230540205" lon="9.52100062844906"><ele>1283.0</ele><time>2026-05-01T16:56:43Z</time></trkpt><trkpt lat="44.48822146212752" lon="9.52082673243238"><ele>1283.0</ele><time>2026-05-01T16:56:44Z</time></trkpt><trkpt lat="44.488165306425486" lon="9.520658219435886"><ele>1283.0</ele><time>2026-05-01T16:56:45Z</time></trkpt><trkpt lat="44.488133016807886" lon="9.520479203872453"><ele>1281.0</ele><time>2026-05-01T16:56:46Z</time></trkpt><trkpt lat="44.48805215847764" lon="9.520328463058314"><ele>1279.0</ele><time>2026-05-01T16:56:47Z</time></trkpt><trkpt lat="44.487971700580445" lon="9.520180916694521"><ele>1277.0</ele><time>2026-05-01T16:56:48Z</time></trkpt><trkpt lat="44.48788020547023" lon="9.520048700990198"><ele>1275.0</ele><time>2026-05-01T16:56:49Z</time></trkpt><trkpt lat="44.48779757462332" lon="9.519919039889585"><ele>1275.0</ele><time>2026-05-01T16:56:50Z</time></trkpt><trkpt lat="44.48771733398241" lon="9.519788038105231"><ele>1275.0</ele><time>2026-05-01T16:56:51Z</time></trkpt><trkpt lat="44.48763090044403" lon="9.519662197046538"><ele>1275.0</ele><time>2026-05-01T16:56:52Z</time></trkpt><trkpt lat="44.48754008128987" lon="9.519555676324465"><ele>1275.0</ele><time>2026-05-01T16:56:53Z</time></trkpt><trkpt lat="44.487431599961404" lon="9.519480019856015"><ele>1274.4</ele><time>2026-05-01T16:56:54Z</time></trkpt><trkpt lat="44.487322045772174" lon="9.519419794399443"><ele>1273.8</ele><time>2026-05-01T16:56:55Z</time></trkpt><trkpt lat="44.48721539335616" lon="9.519384770318936"><ele>1273.2</ele><time>2026-05-01T16:56:56Z</time></trkpt><trkpt lat="44.48713032841685" lon="9.519326745807806"><ele>1272.6</ele><time>2026-05-01T16:56:57Z</time></trkpt><trkpt lat="44.48708416872609" lon="9.51924803632921"><ele>1272.0</ele><time>2026-05-01T16:56:58Z</time></trkpt><trkpt lat="44.48703989444838" lon="9.519147589004586"><ele>1272.0</ele><time>2026-05-01T16:56:59Z</time></trkpt><trkpt lat="44.48698597004736" lon="9.519015235059213"><ele>1272.0</ele><time>2026-05-01T16:57:00Z</time></trkpt><trkpt lat="44.4869290958313" lon="9.518868096608209"><ele>1272.0</ele><time>2026-05-01T16:57:01Z</time></trkpt><trkpt lat="44.486863742072025" lon="9.518704368537252"><ele>1272.0</ele><time>2026-05-01T16:57:02Z</time></trkpt><trkpt lat="44.48679496931293" lon="9.518551411845168"><ele>1272.0</ele><time>2026-05-01T16:57:03Z</time></trkpt><trkpt lat="44.48671916177469" lon="9.518404835351784"><ele>1272.0</ele><time>2026-05-01T16:57:04Z</time></trkpt><trkpt lat="44.48661459266407" lon="9.518273911141824"><ele>1272.0</ele><time>2026-05-01T16:57:05Z</time></trkpt><trkpt lat="44.48650784442474" lon="9.518132966798264"><ele>1272.0</ele><time>2026-05-01T16:57:06Z</time></trkpt><trkpt lat="44.48637530654823" lon="9.51801181431755"><ele>1274.75</ele><time>2026-05-01T16:57:07Z</time></trkpt><trkpt lat="44.48624188946885" lon="9.517901521872261"><ele>1277.5</ele><time>2026-05-01T16:57:08Z</time></trkpt><trkpt lat="44.486122679983545" lon="9.517781293052705"><ele>1280.25</ele><time>2026-05-01T16:57:09Z</time></trkpt><trkpt lat="44.48604085510172" lon="9.517648161256048"><ele>1283.0</ele><time>2026-05-01T16:57:10Z</time></trkpt><trkpt lat="44.48597680755359" lon="9.517561173200917"><ele>1283.0</ele><time>2026-05-01T16:57:11Z</time></trkpt><trkpt lat="44.48594221218797" lon="9.517475287408265"><ele>1283.0</ele><time>2026-05-01T16:57:12Z</time></trkpt><trkpt lat="44.48594223022776" lon="9.517384879911184"><ele>1283.0</ele><time>2026-05-01T16:57:13Z</time></trkpt><trkpt lat="44.48598316774478" lon="9.517277960453294"><ele>1283.0</ele><time>2026-05-01T16:57:14Z</time></trkpt><trkpt lat="44.48596444881101" lon="9.517143580490371"><ele>1283.0</ele><time>2026-05-01T16:57:15Z</time></trkpt><trkpt lat="44.48591631142377" lon="9.517039969850577"><ele>1283.0</ele><time>2026-05-01T16:57:16Z</time></trkpt><trkpt lat="44.48582470345973" lon="9.516930603447852"><ele>1281.5</ele><time>2026-05-01T16:57:17Z</time></trkpt><trkpt lat="44.485749209365224" lon="9.516759715514539"><ele>1280.0</ele><time>2026-05-01T16:57:18Z</time></trkpt><trkpt lat="44.48566127971264" lon="9.51658368857028"><ele>1278.5</ele><time>2026-05-01T16:57:19Z</time></trkpt><trkpt lat="44.485583749406665" lon="9.516406442394073"><ele>1277.0</ele><time>2026-05-01T16:57:20Z</time></trkpt><trkpt lat="44.4855199007036" lon="9.516245497128594"><ele>1277.0</ele><time>2026-05-01T16:57:21Z</time></trkpt><trkpt lat="44.48547137142438" lon="9.516098849140276"><ele>1277.0</ele><time>2026-05-01T16:57:22Z</time></trkpt><trkpt lat="44.48543914063224" lon="9.515945901899318"><ele>1277.0</ele><time>2026-05-01T16:57:23Z</time></trkpt><trkpt lat="44.48549847753405" lon="9.515780050578384"><ele>1277.0</ele><time>2026-05-01T16:57:24Z</time></trkpt><trkpt lat="44.48548362982007" lon="9.515637821156458"><ele>1277.0</ele><time>2026-05-01T16:57:25Z</time></trkpt><trkpt lat="44.48543449245729" lon="9.515538304734754"><ele>1277.0</ele><time>2026-05-01T16:57:26Z</time></trkpt><trkpt lat="44.485342601885534" lon="9.51545087126315"><ele>1277.0</ele><time>2026-05-01T16:57:27Z</time></trkpt><trkpt lat="44.48525273991734" lon="9.515391878048984"><ele>1277.0</ele><time>2026-05-01T16:57:28Z</time></trkpt><trkpt lat="44.48518574264523" lon="9.515312559619504"><ele>1277.0</ele><time>2026-05-01T16:57:29Z</time></trkpt><trkpt lat="44.48516953526437" lon="9.51520623425242"><ele>1280.0</ele><time>2026-05-01T16:57:30Z</time></trkpt><trkpt lat="44.48519019990517" lon="9.515076614040032"><ele>1283.0</ele><time>2026-05-01T16:57:31Z</time></trkpt><trkpt lat="44.48524527815517" lon="9.514948554002675"><ele>1286.0</ele><time>2026-05-01T16:57:32Z</time></trkpt><trkpt lat="44.4853518862717" lon="9.514848151965852"><ele>1289.0</ele><time>2026-05-01T16:57:33Z</time></trkpt><trkpt lat="44.48549264649031" lon="9.514765652422625"><ele>1289.0</ele><time>2026-05-01T16:57:34Z</time></trkpt><trkpt lat="44.48564457041432" lon="9.514696867637937"><ele>1289.0</ele><time>2026-05-01T16:57:35Z</time></trkpt><trkpt lat="44.48580914180006" lon="9.514609070334437"><ele>1289.0</ele><time>2026-05-01T16:57:36Z</time></trkpt><trkpt lat="44.48599258358223" lon="9.514509444689708"><ele>1294.6666666666667</ele><time>2026-05-01T16:57:36.999Z</time></trkpt><trkpt lat="44.48616159906018" lon="9.514395689211181"><ele>1300.3333333333333</ele><time>2026-05-01T16:57:37.999Z</time></trkpt><trkpt lat="44.48630955119264" lon="9.514304951276603"><ele>1306.0</ele><time>2026-05-01T16:57:38.999Z</time></trkpt><trkpt lat="44.48644660025082" lon="9.514250378602021"><ele>1306.0</ele><time>2026-05-01T16:57:39.999Z</time></trkpt><trkpt lat="44.486577261555496" lon="9.51424453629716"><ele>1306.0</ele><time>2026-05-01T16:57:40.999Z</time></trkpt><trkpt lat="44.48668440433466" lon="9.514225788118518"><ele>1306.0</ele><time>2026-05-01T16:57:41.999Z</time></trkpt><trkpt lat="44.48677558244402" lon="9.514193161068778"><ele>1306.0</ele><time>2026-05-01T16:57:42.999Z</time></trkpt><trkpt lat="44.48685797954694" lon="9.51414332003962"><ele>1306.0</ele><time>2026-05-01T16:57:43.999Z</time></trkpt><trkpt lat="44.486937467863335" lon="9.514099140400061"><ele>1306.0</ele><time>2026-05-01T16:57:44.999Z</time></trkpt><trkpt lat="44.48695774984777" lon="9.513907201086292"><ele>1306.0</ele><time>2026-05-01T16:57:45.999Z</time></trkpt><trkpt lat="44.48694605789131" lon="9.513768887383451"><ele>1306.0</ele><time>2026-05-01T16:57:46.999Z</time></trkpt><trkpt lat="44.48687359370335" lon="9.513661005376465"><ele>1306.0</ele><time>2026-05-01T16:57:47.999Z</time></trkpt><trkpt lat="44.486786282723706" lon="9.513563063960417"><ele>1308.75</ele><time>2026-05-01T16:57:48.999Z</time></trkpt><trkpt lat="44.48669365164821" lon="9.513434618798481"><ele>1311.5</ele><time>2026-05-01T16:57:49.999Z</time></trkpt><trkpt lat="44.48659354488091" lon="9.5132879179473"><ele>1314.25</ele><time>2026-05-01T16:57:50.999Z</time></trkpt><trkpt lat="44.48649599225003" lon="9.513158728467891"><ele>1317.0</ele><time>2026-05-01T16:57:51.999Z</time></trkpt><trkpt lat="44.4863978967156" lon="9.513032631841828"><ele>1316.5</ele><time>2026-05-01T16:57:52.999Z</time></trkpt><trkpt lat="44.48630222799708" lon="9.512905602050363"><ele>1316.0</ele><time>2026-05-01T16:57:53.999Z</time></trkpt><trkpt lat="44.486204999368475" lon="9.512771123502384"><ele>1315.5</ele><time>2026-05-01T16:57:54.999Z</time></trkpt><trkpt lat="44.48610939346519" lon="9.512624330500442"><ele>1315.0</ele><time>2026-05-01T16:57:55.999Z</time></trkpt><trkpt lat="44.486056474136234" lon="9.512473105037417"><ele>1318.6666666666665</ele><time>2026-05-01T16:57:56.999Z</time></trkpt><trkpt lat="44.48600277973833" lon="9.512352097239729"><ele>1322.3333333333333</ele><time>2026-05-01T16:57:57.999Z</time></trkpt><trkpt lat="44.48594549983908" lon="9.51225489102392"><ele>1326.0</ele><time>2026-05-01T16:57:58.999Z</time></trkpt><trkpt lat="44.48588929955274" lon="9.512177136166585"><ele>1329.6666666666667</ele><time>2026-05-01T16:57:59.999Z</time></trkpt><trkpt lat="44.48583900278037" lon="9.51212060150325"><ele>1333.3333333333335</ele><time>2026-05-01T16:58:00.999Z</time></trkpt><trkpt lat="44.48575860120597" lon="9.512154046259804"><ele>1337.0</ele><time>2026-05-01T16:58:02.999Z</time></trkpt><trkpt lat="44.48578074716962" lon="9.512324021873825"><ele>1337.0</ele><time>2026-05-01T16:58:04.999Z</time></trkpt><trkpt lat="44.48584790416045" lon="9.512410814363342"><ele>1337.0</ele><time>2026-05-01T16:58:05.999Z</time></trkpt><trkpt lat="44.48591713058902" lon="9.512502068395383"><ele>1337.0</ele><time>2026-05-01T16:58:06.999Z</time></trkpt><trkpt lat="44.485981682919444" lon="9.51260744005527"><ele>1337.0</ele><time>2026-05-01T16:58:07.999Z</time></trkpt><trkpt lat="44.48602623653239" lon="9.512737508065927"><ele>1337.0</ele><time>2026-05-01T16:58:08.999Z</time></trkpt><trkpt lat="44.48606618112492" lon="9.512880573197318"><ele>1336.3999999999999</ele><time>2026-05-01T16:58:09.999Z</time></trkpt><trkpt lat="44.48610768269245" lon="9.513008883031553"><ele>1335.8</ele><time>2026-05-01T16:58:10.999Z</time></trkpt><trkpt lat="44.48612918835335" lon="9.513131471633564"><ele>1335.2</ele><time>2026-05-01T16:58:12Z</time></trkpt><trkpt lat="44.48611354373469" lon="9.51324735740054"><ele>1334.6</ele><time>2026-05-01T16:58:13Z</time></trkpt><trkpt lat="44.486062278456934" lon="9.513346753891065"><ele>1334.0</ele><time>2026-05-01T16:58:14Z</time></trkpt><trkpt lat="44.48597541092626" lon="9.513396906376618"><ele>1334.0</ele><time>2026-05-01T16:58:15Z</time></trkpt><trkpt lat="44.48587713491492" lon="9.513406385622158"><ele>1334.0</ele><time>2026-05-01T16:58:16Z</time></trkpt><trkpt lat="44.48574997799105" lon="9.513394672660052"><ele>1334.0</ele><time>2026-05-01T16:58:17Z</time></trkpt><trkpt lat="44.485604157164644" lon="9.513383013885228"><ele>1334.0</ele><time>2026-05-01T16:58:18Z</time></trkpt><trkpt lat="44.485455338702046" lon="9.51336861580231"><ele>1335.75</ele><time>2026-05-01T16:58:19Z</time></trkpt><trkpt lat="44.48530703024731" lon="9.513347712127276"><ele>1337.5</ele><time>2026-05-01T16:58:20Z</time></trkpt><trkpt lat="44.48515403301709" lon="9.513328675750937"><ele>1339.25</ele><time>2026-05-01T16:58:21Z</time></trkpt><trkpt lat="44.48502769916151" lon="9.513321667645615"><ele>1341.0</ele><time>2026-05-01T16:58:22Z</time></trkpt><trkpt lat="44.48491059211402" lon="9.513318513310514"><ele>1341.0</ele><time>2026-05-01T16:58:23Z</time></trkpt><trkpt lat="44.4848002545191" lon="9.513281786640302"><ele>1341.0</ele><time>2026-05-01T16:58:24Z</time></trkpt><trkpt lat="44.484684645753646" lon="9.513206378819177"><ele>1341.0</ele><time>2026-05-01T16:58:25Z</time></trkpt><trkpt lat="44.4845698399654" lon="9.513081932444313"><ele>1341.0</ele><time>2026-05-01T16:58:26Z</time></trkpt><trkpt lat="44.4844473056179" lon="9.5129591908944"><ele>1346.3333333333333</ele><time>2026-05-01T16:58:27Z</time></trkpt><trkpt lat="44.484303193489254" lon="9.512860630604893"><ele>1351.6666666666665</ele><time>2026-05-01T16:58:28Z</time></trkpt><trkpt lat="44.4841570629494" lon="9.512782088810011"><ele>1357.0</ele><time>2026-05-01T16:58:29Z</time></trkpt><trkpt lat="44.48400717284735" lon="9.512756449555136"><ele>1357.0</ele><time>2026-05-01T16:58:30Z</time></trkpt><trkpt lat="44.48386392924505" lon="9.512749425784463"><ele>1357.0</ele><time>2026-05-01T16:58:31Z</time></trkpt><trkpt lat="44.48373531212059" lon="9.512765512155319"><ele>1357.0</ele><time>2026-05-01T16:58:32Z</time></trkpt><trkpt lat="44.483614169143564" lon="9.512786594299236"><ele>1357.0</ele><time>2026-05-01T16:58:33Z</time></trkpt><trkpt lat="44.48348824208445" lon="9.512745555940045"><ele>1357.0</ele><time>2026-05-01T16:58:34Z</time></trkpt><trkpt lat="44.48335575788458" lon="9.51266920322083"><ele>1357.0</ele><time>2026-05-01T16:58:35Z</time></trkpt><trkpt lat="44.48321773206708" lon="9.512604122289751"><ele>1357.0</ele><time>2026-05-01T16:58:36Z</time></trkpt><trkpt lat="44.4830800709532" lon="9.512586314430626"><ele>1357.0</ele><time>2026-05-01T16:58:37Z</time></trkpt><trkpt lat="44.4829432675312" lon="9.512602751048282"><ele>1358.6666666666665</ele><time>2026-05-01T16:58:38Z</time></trkpt><trkpt lat="44.48280622592127" lon="9.512656223721924"><ele>1360.3333333333333</ele><time>2026-05-01T16:58:39Z</time></trkpt><trkpt lat="44.48264868640653" lon="9.512717665656938"><ele>1362.0</ele><time>2026-05-01T16:58:40Z</time></trkpt><trkpt lat="44.482483916696594" lon="9.51274802361915"><ele>1362.0</ele><time>2026-05-01T16:58:41Z</time></trkpt><trkpt lat="44.48232315716141" lon="9.512805343257702"><ele>1362.0</ele><time>2026-05-01T16:58:42Z</time></trkpt><trkpt lat="44.482182067991246" lon="9.51288416590514"><ele>1362.0</ele><time>2026-05-01T16:58:43Z</time></trkpt><trkpt lat="44.48205805380413" lon="9.512938655384389"><ele>1362.0</ele><time>2026-05-01T16:58:44Z</time></trkpt><trkpt lat="44.48194157195355" lon="9.513021738950489"><ele>1362.0</ele><time>2026-05-01T16:58:45Z</time></trkpt><trkpt lat="44.48185122448234" lon="9.51315886645478"><ele>1362.0</ele><time>2026-05-01T16:58:46Z</time></trkpt><trkpt lat="44.48175135543044" lon="9.513273395400015"><ele>1362.0</ele><time>2026-05-01T16:58:47Z</time></trkpt><trkpt lat="44.48166364332576" lon="9.513373774897447"><ele>1362.0</ele><time>2026-05-01T16:58:48Z</time></trkpt><trkpt lat="44.48157721715198" lon="9.513475976063814"><ele>1362.0</ele><time>2026-05-01T16:58:49Z</time></trkpt><trkpt lat="44.48149175667707" lon="9.513580946316223"><ele>1362.0</ele><time>2026-05-01T16:58:50Z</time></trkpt><trkpt lat="44.48139071593047" lon="9.513708655819002"><ele>1362.0</ele><time>2026-05-01T16:58:51Z</time></trkpt><trkpt lat="44.4812760559763" lon="9.513855831411494"><ele>1362.0</ele><time>2026-05-01T16:58:52Z</time></trkpt><trkpt lat="44.481181956017686" lon="9.513979271894792"><ele>1363.0</ele><time>2026-05-01T16:58:53Z</time></trkpt><trkpt lat="44.481099178401905" lon="9.514088870458949"><ele>1364.0</ele><time>2026-05-01T16:58:54Z</time></trkpt><trkpt lat="44.48102606382184" lon="9.51419335243309"><ele>1365.0</ele><time>2026-05-01T16:58:55Z</time></trkpt><trkpt lat="44.480979537996234" lon="9.514355900375936"><ele>1366.0</ele><time>2026-05-01T16:58:56Z</time></trkpt><trkpt lat="44.48094574805677" lon="9.514493209572297"><ele>1367.0</ele><time>2026-05-01T16:58:57Z</time></trkpt><trkpt lat="44.48089076446913" lon="9.514592767471015"><ele>1365.1666666666667</ele><time>2026-05-01T16:58:58Z</time></trkpt><trkpt lat="44.48081594558248" lon="9.5146608052361"><ele>1363.3333333333335</ele><time>2026-05-01T16:58:59Z</time></trkpt><trkpt lat="44.480741953926845" lon="9.514712802315104"><ele>1361.5</ele><time>2026-05-01T16:59:00Z</time></trkpt><trkpt lat="44.48067146484639" lon="9.514732993763646"><ele>1359.6666666666667</ele><time>2026-05-01T16:59:01Z</time></trkpt><trkpt lat="44.480598328662104" lon="9.514752185286797"><ele>1357.8333333333333</ele><time>2026-05-01T16:59:02Z</time></trkpt><trkpt lat="44.48048572568761" lon="9.514743149816411"><ele>1356.0</ele><time>2026-05-01T16:59:04Z</time></trkpt><trkpt lat="44.48043122854004" lon="9.514854685041911"><ele>1355.6666666666667</ele><time>2026-05-01T16:59:05Z</time></trkpt><trkpt lat="44.48034598813299" lon="9.51490287651988"><ele>1355.3333333333333</ele><time>2026-05-01T16:59:07Z</time></trkpt><trkpt lat="44.480270570351145" lon="9.514955909934164"><ele>1355.0</ele><time>2026-05-01T16:59:09Z</time></trkpt><trkpt lat="44.48015938609752" lon="9.51500252792036"><ele>1354.6666666666665</ele><time>2026-05-01T16:59:11Z</time></trkpt><trkpt lat="44.48008724812086" lon="9.515003939678742"><ele>1354.3333333333333</ele><time>2026-05-01T16:59:12Z</time></trkpt><trkpt lat="44.48002454189188" lon="9.514985193395951"><ele>1354.0</ele><time>2026-05-01T16:59:13Z</time></trkpt><trkpt lat="44.47998731880381" lon="9.514900569060972"><ele>1354.0</ele><time>2026-05-01T16:59:14Z</time></trkpt><trkpt lat="44.47996387540796" lon="9.514793116657318"><ele>1354.0</ele><time>2026-05-01T16:59:15Z</time></trkpt><trkpt lat="44.47994702141304" lon="9.514662990443632"><ele>1354.0</ele><time>2026-05-01T16:59:16Z</time></trkpt><trkpt lat="44.47992707610936" lon="9.514508020797889"><ele>1354.0</ele><time>2026-05-01T16:59:17Z</time></trkpt><trkpt lat="44.47990223420811" lon="9.514354990831917"><ele>1354.0</ele><time>2026-05-01T16:59:18Z</time></trkpt><trkpt lat="44.47988420779077" lon="9.5142140927157"><ele>1354.6666666666665</ele><time>2026-05-01T16:59:19Z</time></trkpt><trkpt lat="44.479866787426985" lon="9.514086029579625"><ele>1355.3333333333333</ele><time>2026-05-01T16:59:20Z</time></trkpt><trkpt lat="44.47985381152647" lon="9.513989319401638"><ele>1356.0</ele><time>2026-05-01T16:59:21Z</time></trkpt><trkpt lat="44.47982697258254" lon="9.513898745488234"><ele>1356.6666666666667</ele><time>2026-05-01T16:59:22Z</time></trkpt><trkpt lat="44.47977300194278" lon="9.513818228409205"><ele>1357.3333333333335</ele><time>2026-05-01T16:59:23Z</time></trkpt><trkpt lat="44.47967967776068" lon="9.513743373433838"><ele>1358.0</ele><time>2026-05-01T16:59:24Z</time></trkpt><trkpt lat="44.47959143365343" lon="9.513604160322679"><ele>1358.0</ele><time>2026-05-01T16:59:25Z</time></trkpt><trkpt lat="44.47949347305932" lon="9.513454634437633"><ele>1358.0</ele><time>2026-05-01T16:59:26Z</time></trkpt><trkpt lat="44.47939727714125" lon="9.513306564967229"><ele>1358.0</ele><time>2026-05-01T16:59:27Z</time></trkpt><trkpt lat="44.4792926923845" lon="9.51320645538612"><ele>1358.0</ele><time>2026-05-01T16:59:28Z</time></trkpt><trkpt lat="44.47921303306037" lon="9.513088055046698"><ele>1358.0</ele><time>2026-05-01T16:59:29Z</time></trkpt><trkpt lat="44.47913165195007" lon="9.512966452216169"><ele>1358.0</ele><time>2026-05-01T16:59:30Z</time></trkpt><trkpt lat="44.479038401128484" lon="9.51285142360801"><ele>1358.0</ele><time>2026-05-01T16:59:31Z</time></trkpt><trkpt lat="44.47895784607838" lon="9.512763538457493"><ele>1358.0</ele><time>2026-05-01T16:59:32Z</time></trkpt><trkpt lat="44.478870471618094" lon="9.512699060206739"><ele>1358.0</ele><time>2026-05-01T16:59:33Z</time></trkpt><trkpt lat="44.4788021310582" lon="9.512623201734876"><ele>1361.3333333333335</ele><time>2026-05-01T16:59:34Z</time></trkpt><trkpt lat="44.47870898370645" lon="9.512590116631376"><ele>1364.6666666666667</ele><time>2026-05-01T16:59:35Z</time></trkpt><trkpt lat="44.47862023607786" lon="9.512548989752736"><ele>1368.0</ele><time>2026-05-01T16:59:36Z</time></trkpt><trkpt lat="44.47853177840916" lon="9.512596771208399"><ele>1371.3333333333333</ele><time>2026-05-01T16:59:37Z</time></trkpt><trkpt lat="44.47846155689259" lon="9.512654503695268"><ele>1374.6666666666665</ele><time>2026-05-01T16:59:37.999Z</time></trkpt><trkpt lat="44.47839857017022" lon="9.51271475793345"><ele>1378.0</ele><time>2026-05-01T16:59:38.999Z</time></trkpt><trkpt lat="44.47833085194668" lon="9.512762288725396"><ele>1378.0</ele><time>2026-05-01T16:59:39.999Z</time></trkpt><trkpt lat="44.478262263531214" lon="9.512788223611269"><ele>1378.0</ele><time>2026-05-01T16:59:40.999Z</time></trkpt><trkpt lat="44.478168821981185" lon="9.512774243255837"><ele>1378.0</ele><time>2026-05-01T16:59:41.999Z</time></trkpt><trkpt lat="44.47805204804201" lon="9.512779581010454"><ele>1378.0</ele><time>2026-05-01T16:59:42.999Z</time></trkpt><trkpt lat="44.4779310225653" lon="9.512783761503742"><ele>1378.0</ele><time>2026-05-01T16:59:43.999Z</time></trkpt><trkpt lat="44.477808428259316" lon="9.512787996159643"><ele>1379.2</ele><time>2026-05-01T16:59:44.999Z</time></trkpt><trkpt lat="44.477687418730135" lon="9.512824529257864"><ele>1380.4</ele><time>2026-05-01T16:59:45.999Z</time></trkpt><trkpt lat="44.47758666813776" lon="9.51286674577512"><ele>1381.6000000000001</ele><time>2026-05-01T16:59:46.999Z</time></trkpt><trkpt lat="44.47749629123858" lon="9.512918469535915"><ele>1382.8000000000002</ele><time>2026-05-01T16:59:47.999Z</time></trkpt><trkpt lat="44.47741200321644" lon="9.512989797755887"><ele>1384.0</ele><time>2026-05-01T16:59:48.999Z</time></trkpt><trkpt lat="44.47735293208304" lon="9.51313020622223"><ele>1381.8000000000002</ele><time>2026-05-01T16:59:49.999Z</time></trkpt><trkpt lat="44.477260667833704" lon="9.513242049957181"><ele>1379.6000000000001</ele><time>2026-05-01T16:59:50.999Z</time></trkpt><trkpt lat="44.477173053902014" lon="9.513356592865582"><ele>1377.4</ele><time>2026-05-01T16:59:51.999Z</time></trkpt><trkpt lat="44.47710032301801" lon="9.513432275757202"><ele>1375.2</ele><time>2026-05-01T16:59:52.999Z</time></trkpt><trkpt lat="44.477039593716285" lon="9.513494851068163"><ele>1373.0</ele><time>2026-05-01T16:59:53.999Z</time></trkpt><trkpt lat="44.47698060095884" lon="9.513561995251855"><ele>1373.0</ele><time>2026-05-01T16:59:54.999Z</time></trkpt><trkpt lat="44.476921070336054" lon="9.513643503157285"><ele>1373.0</ele><time>2026-05-01T16:59:55.999Z</time></trkpt><trkpt lat="44.47686249083565" lon="9.513742014939657"><ele>1373.0</ele><time>2026-05-01T16:59:56.999Z</time></trkpt><trkpt lat="44.47680853780611" lon="9.513847345440874"><ele>1373.0</ele><time>2026-05-01T16:59:57.999Z</time></trkpt><trkpt lat="44.47675815105964" lon="9.513928618083046"><ele>1373.0</ele><time>2026-05-01T16:59:58.999Z</time></trkpt><trkpt lat="44.47664788762858" lon="9.513963766103425"><ele>1373.0</ele><time>2026-05-01T17:00:00.999Z</time></trkpt><trkpt lat="44.476535297105066" lon="9.513865390889682"><ele>1373.0</ele><time>2026-05-01T17:00:02.999Z</time></trkpt><trkpt lat="44.47648618149973" lon="9.513774095443853"><ele>1373.0</ele><time>2026-05-01T17:00:03.999Z</time></trkpt><trkpt lat="44.47643729500142" lon="9.513685845074392"><ele>1373.0</ele><time>2026-05-01T17:00:04.999Z</time></trkpt><trkpt lat="44.476377837441284" lon="9.513592667857555"><ele>1373.0</ele><time>2026-05-01T17:00:05.999Z</time></trkpt><trkpt lat="44.47634148252959" lon="9.513472140853263"><ele>1373.0</ele><time>2026-05-01T17:00:06.999Z</time></trkpt><trkpt lat="44.47631798827517" lon="9.513349479791586"><ele>1373.0</ele><time>2026-05-01T17:00:07.999Z</time></trkpt><trkpt lat="44.47628673144124" lon="9.51323155388533"><ele>1373.0</ele><time>2026-05-01T17:00:08.999Z</time></trkpt><trkpt lat="44.476262385291065" lon="9.51314178449224"><ele>1373.0</ele><time>2026-05-01T17:00:09.999Z</time></trkpt><trkpt lat="44.47627266446004" lon="9.513042995888686"><ele>1373.0</ele><time>2026-05-01T17:00:10.999Z</time></trkpt><trkpt lat="44.47632750530228" lon="9.51295570252235"><ele>1373.0</ele><time>2026-05-01T17:00:11.999Z</time></trkpt><trkpt lat="44.476359454126566" lon="9.512863909650056"><ele>1372.8333333333335</ele><time>2026-05-01T17:00:12.999Z</time></trkpt><trkpt lat="44.47638181493188" lon="9.512761088135056"><ele>1372.6666666666667</ele><time>2026-05-01T17:00:13.999Z</time></trkpt><trkpt lat="44.47637397224848" lon="9.512658135491586"><ele>1372.5</ele><time>2026-05-01T17:00:14.999Z</time></trkpt><trkpt lat="44.47636695685993" lon="9.512565524069808"><ele>1372.3333333333333</ele><time>2026-05-01T17:00:15.999Z</time></trkpt><trkpt lat="44.47635890425266" lon="9.51247504043743"><ele>1372.1666666666665</ele><time>2026-05-01T17:00:16.999Z</time></trkpt><trkpt lat="44.47628025917346" lon="9.512322485378425"><ele>1372.0</ele><time>2026-05-01T17:00:19Z</time></trkpt><trkpt lat="44.47619196189168" lon="9.512209821361038"><ele>1372.0</ele><time>2026-05-01T17:00:21Z</time></trkpt><trkpt lat="44.47610659116918" lon="9.512146548027797"><ele>1372.0</ele><time>2026-05-01T17:00:23Z</time></trkpt><trkpt lat="44.47603149067281" lon="9.512100508059529"><ele>1372.0</ele><time>2026-05-01T17:00:26Z</time></trkpt><trkpt lat="44.47596200587273" lon="9.512062976504406"><ele>1372.0</ele><time>2026-05-01T17:00:28Z</time></trkpt><trkpt lat="44.47589464560143" lon="9.512030235000287"><ele>1372.0</ele><time>2026-05-01T17:00:32Z</time></trkpt><trkpt lat="44.47581786532451" lon="9.511996827906149"><ele>1372.0</ele><time>2026-05-01T17:00:35Z</time></trkpt><trkpt lat="44.47573849873925" lon="9.511965687799"><ele>1376.3333333333333</ele><time>2026-05-01T17:00:53Z</time></trkpt><trkpt lat="44.47567413639236" lon="9.511944743917491"><ele>1380.6666666666665</ele><time>2026-05-01T17:00:54Z</time></trkpt><trkpt lat="44.47561003712502" lon="9.511928657866841"><ele>1385.0</ele><time>2026-05-01T17:00:55Z</time></trkpt><trkpt lat="44.47553075575468" lon="9.511913472901155"><ele>1389.3333333333333</ele><time>2026-05-01T17:00:56Z</time></trkpt><trkpt lat="44.47545246115777" lon="9.511901664537701"><ele>1393.6666666666667</ele><time>2026-05-01T17:00:57Z</time></trkpt><trkpt lat="44.47535900550389" lon="9.511887569592208"><ele>1398.0</ele><time>2026-05-01T17:00:58Z</time></trkpt><trkpt lat="44.47524769992059" lon="9.511869155913917"><ele>1398.0</ele><time>2026-05-01T17:00:59Z</time></trkpt><trkpt lat="44.475139827117715" lon="9.51185132233604"><ele>1398.0</ele><time>2026-05-01T17:01:00Z</time></trkpt><trkpt lat="44.4750654979368" lon="9.511827261860777"><ele>1398.0</ele><time>2026-05-01T17:01:01Z</time></trkpt><trkpt lat="44.47499547509708" lon="9.51178407197352"><ele>1398.0</ele><time>2026-05-01T17:01:02Z</time></trkpt><trkpt lat="44.474917307101904" lon="9.511683428793301"><ele>1398.0</ele><time>2026-05-01T17:01:03Z</time></trkpt><trkpt lat="44.4748006398347" lon="9.511552007968977"><ele>1398.0</ele><time>2026-05-01T17:01:04Z</time></trkpt><trkpt lat="44.47467280745935" lon="9.51141391296988"><ele>1398.0</ele><time>2026-05-01T17:01:05Z</time></trkpt><trkpt lat="44.474558567105184" lon="9.511301388470454"><ele>1398.0</ele><time>2026-05-01T17:01:06Z</time></trkpt><trkpt lat="44.474439588785145" lon="9.511214543412235"><ele>1398.0</ele><time>2026-05-01T17:01:07Z</time></trkpt><trkpt lat="44.47431161046041" lon="9.51114345526203"><ele>1399.5</ele><time>2026-05-01T17:01:08Z</time></trkpt><trkpt lat="44.47416790931989" lon="9.511074641742896"><ele>1401.0</ele><time>2026-05-01T17:01:09Z</time></trkpt><trkpt lat="44.474043488941284" lon="9.511025382253143"><ele>1402.5</ele><time>2026-05-01T17:01:10Z</time></trkpt><trkpt lat="44.473938010148565" lon="9.51099599299978"><ele>1404.0</ele><time>2026-05-01T17:01:11Z</time></trkpt><trkpt lat="44.473839991583866" lon="9.510958393541605"><ele>1402.6</ele><time>2026-05-01T17:01:12Z</time></trkpt><trkpt lat="44.473740037256995" lon="9.510880298135397"><ele>1401.2</ele><time>2026-05-01T17:01:13Z</time></trkpt><trkpt lat="44.47364697712052" lon="9.510779164080658"><ele>1399.8</ele><time>2026-05-01T17:01:14Z</time></trkpt><trkpt lat="44.473562768091774" lon="9.510702603508788"><ele>1398.3999999999999</ele><time>2026-05-01T17:01:15Z</time></trkpt><trkpt lat="44.47348375892492" lon="9.51066077887836"><ele>1397.0</ele><time>2026-05-01T17:01:16Z</time></trkpt><trkpt lat="44.47340573527976" lon="9.510645169866452"><ele>1397.0</ele><time>2026-05-01T17:01:17Z</time></trkpt><trkpt lat="44.473323096292184" lon="9.510637634807257"><ele>1397.0</ele><time>2026-05-01T17:01:18Z</time></trkpt><trkpt lat="44.473239726937685" lon="9.51064341824541"><ele>1397.0</ele><time>2026-05-01T17:01:19Z</time></trkpt><trkpt lat="44.47315469433436" lon="9.510685963789536"><ele>1397.0</ele><time>2026-05-01T17:01:20Z</time></trkpt><trkpt lat="44.473085555591325" lon="9.510724088330806"><ele>1397.0</ele><time>2026-05-01T17:01:21Z</time></trkpt><trkpt lat="44.47302378816456" lon="9.510759352862307"><ele>1397.0</ele><time>2026-05-01T17:01:22Z</time></trkpt><trkpt lat="44.47291979309443" lon="9.510822310066898"><ele>1397.6666666666667</ele><time>2026-05-01T17:01:24Z</time></trkpt><trkpt lat="44.47285320614582" lon="9.510871635113018"><ele>1398.3333333333335</ele><time>2026-05-01T17:01:26Z</time></trkpt><trkpt lat="44.4727852444747" lon="9.510914896679603"><ele>1399.0</ele><time>2026-05-01T17:01:29Z</time></trkpt><trkpt lat="44.47268477789257" lon="9.510932755767726"><ele>1399.6666666666667</ele><time>2026-05-01T17:01:36.999Z</time></trkpt><trkpt lat="44.47258087236388" lon="9.510975936921751"><ele>1400.3333333333333</ele><time>2026-05-01T17:01:38.999Z</time></trkpt><trkpt lat="44.472506259347696" lon="9.511016156335867"><ele>1401.0</ele><time>2026-05-01T17:01:40.999Z</time></trkpt><trkpt lat="44.472444808700295" lon="9.511041870531068"><ele>1401.0</ele><time>2026-05-01T17:01:42.999Z</time></trkpt><trkpt lat="44.472365501705085" lon="9.51106847542012"><ele>1401.0</ele><time>2026-05-01T17:01:45.999Z</time></trkpt><trkpt lat="44.472293773185726" lon="9.511083736077447"><ele>1401.0</ele><time>2026-05-01T17:01:48.999Z</time></trkpt><trkpt lat="44.4722176819575" lon="9.511077430763914"><ele>1401.0</ele><time>2026-05-01T17:02:11.999Z</time></trkpt><trkpt lat="44.47214644272901" lon="9.511050797990338"><ele>1401.0</ele><time>2026-05-01T17:02:16.999Z</time></trkpt><trkpt lat="44.47206844217462" lon="9.51101940829945"><ele>1401.0</ele><time>2026-05-01T17:02:19.999Z</time></trkpt><trkpt lat="44.472000190374835" lon="9.510994619278145"><ele>1401.8333333333333</ele><time>2026-05-01T17:02:21.999Z</time></trkpt><trkpt lat="44.47189717161951" lon="9.510958226774152"><ele>1402.6666666666667</ele><time>2026-05-01T17:02:24Z</time></trkpt><trkpt lat="44.47183551354005" lon="9.51093644538176"><ele>1403.5</ele><time>2026-05-01T17:02:25Z</time></trkpt><trkpt lat="44.4717671006478" lon="9.510910646307247"><ele>1404.3333333333335</ele><time>2026-05-01T17:02:26Z</time></trkpt><trkpt lat="44.471684640155374" lon="9.51087872876409"><ele>1405.1666666666667</ele><time>2026-05-01T17:02:27Z</time></trkpt><trkpt lat="44.47159954147218" lon="9.510846412680754"><ele>1406.0</ele><time>2026-05-01T17:02:28Z</time></trkpt><trkpt lat="44.47151505667301" lon="9.510821521445822"><ele>1406.0</ele><time>2026-05-01T17:02:29Z</time></trkpt><trkpt lat="44.471447572639505" lon="9.510807257756284"><ele>1406.0</ele><time>2026-05-01T17:02:30Z</time></trkpt><trkpt lat="44.47138135366625" lon="9.51078518487623"><ele>1406.0</ele><time>2026-05-01T17:02:31Z</time></trkpt><trkpt lat="44.47130303366246" lon="9.510727998155941"><ele>1406.0</ele><time>2026-05-01T17:02:33Z</time></trkpt><trkpt lat="44.47125836767635" lon="9.510608976826004"><ele>1406.0</ele><time>2026-05-01T17:02:35Z</time></trkpt><trkpt lat="44.47127811968435" lon="9.51052386409502"><ele>1406.0</ele><time>2026-05-01T17:02:36Z</time></trkpt><trkpt lat="44.47132218952679" lon="9.510447198515037"><ele>1405.3333333333335</ele><time>2026-05-01T17:02:37Z</time></trkpt><trkpt lat="44.47138136043686" lon="9.510380972395991"><ele>1404.6666666666667</ele><time>2026-05-01T17:02:38Z</time></trkpt><trkpt lat="44.471436261579306" lon="9.51033475809187"><ele>1404.0</ele><time>2026-05-01T17:02:39Z</time></trkpt><trkpt lat="44.47150481863276" lon="9.51027471301849"><ele>1403.3333333333333</ele><time>2026-05-01T17:02:40Z</time></trkpt><trkpt lat="44.471565736105006" lon="9.510218506823806"><ele>1402.6666666666665</ele><time>2026-05-01T17:02:41Z</time></trkpt><trkpt lat="44.471626328976676" lon="9.510142201333899"><ele>1402.0</ele><time>2026-05-01T17:02:42Z</time></trkpt><trkpt lat="44.47169325192995" lon="9.51009473056095"><ele>1402.0</ele><time>2026-05-01T17:02:43Z</time></trkpt><trkpt lat="44.471744292997684" lon="9.510030184357502"><ele>1402.0</ele><time>2026-05-01T17:02:44Z</time></trkpt><trkpt lat="44.471785716350574" lon="9.509945388593216"><ele>1402.0</ele><time>2026-05-01T17:02:45Z</time></trkpt><trkpt lat="44.4718049478862" lon="9.509819303619784"><ele>1402.0</ele><time>2026-05-01T17:02:46Z</time></trkpt><trkpt lat="44.471818378919295" lon="9.509684656811006"><ele>1402.0</ele><time>2026-05-01T17:02:47Z</time></trkpt><trkpt lat="44.4718153872596" lon="9.509542623816024"><ele>1402.0</ele><time>2026-05-01T17:02:48Z</time></trkpt><trkpt lat="44.47179331494085" lon="9.509395624820927"><ele>1401.1999999999998</ele><time>2026-05-01T17:02:49Z</time></trkpt><trkpt lat="44.47175063883291" lon="9.509253793173261"><ele>1400.4</ele><time>2026-05-01T17:02:50Z</time></trkpt><trkpt lat="44.47171570975555" lon="9.509112184461761"><ele>1399.6</ele><time>2026-05-01T17:02:51Z</time></trkpt><trkpt lat="44.4716689392714" lon="9.509005882394815"><ele>1398.8000000000002</ele><time>2026-05-01T17:02:52Z</time></trkpt><trkpt lat="44.47158634753903" lon="9.50895748129191"><ele>1398.0</ele><time>2026-05-01T17:02:53Z</time></trkpt><trkpt lat="44.47150801227963" lon="9.508918766618542"><ele>1398.0</ele><time>2026-05-01T17:02:54Z</time></trkpt><trkpt lat="44.47142557766594" lon="9.508886993141695"><ele>1398.0</ele><time>2026-05-01T17:02:55Z</time></trkpt><trkpt lat="44.471319637084505" lon="9.508864405355332"><ele>1398.0</ele><time>2026-05-01T17:02:56Z</time></trkpt><trkpt lat="44.471189006452974" lon="9.5088516316837"><ele>1398.0</ele><time>2026-05-01T17:02:57Z</time></trkpt><trkpt lat="44.471043201046" lon="9.508885379668381"><ele>1399.0</ele><time>2026-05-01T17:02:58Z</time></trkpt><trkpt lat="44.47088268093963" lon="9.50890987478458"><ele>1400.0</ele><time>2026-05-01T17:02:59Z</time></trkpt><trkpt lat="44.47073555721819" lon="9.508937774095063"><ele>1401.0</ele><time>2026-05-01T17:03:00Z</time></trkpt><trkpt lat="44.4705909296519" lon="9.508960715690153"><ele>1401.0</ele><time>2026-05-01T17:03:01Z</time></trkpt><trkpt lat="44.47045557850495" lon="9.508974245463344"><ele>1401.0</ele><time>2026-05-01T17:03:02Z</time></trkpt><trkpt lat="44.470305705116566" lon="9.509003322085757"><ele>1401.0</ele><time>2026-05-01T17:03:03Z</time></trkpt><trkpt lat="44.47014293226786" lon="9.508993134364248"><ele>1401.75</ele><time>2026-05-01T17:03:04Z</time></trkpt><trkpt lat="44.4699842675552" lon="9.50896097044839"><ele>1402.5</ele><time>2026-05-01T17:03:05Z</time></trkpt><trkpt lat="44.46985022777915" lon="9.508930971950727"><ele>1403.25</ele><time>2026-05-01T17:03:06Z</time></trkpt><trkpt lat="44.469727505003526" lon="9.50889822975908"><ele>1404.0</ele><time>2026-05-01T17:03:07Z</time></trkpt><trkpt lat="44.469620360328406" lon="9.508854659423173"><ele>1402.5</ele><time>2026-05-01T17:03:08Z</time></trkpt><trkpt lat="44.46951638633129" lon="9.508837414661185"><ele>1401.0</ele><time>2026-05-01T17:03:09Z</time></trkpt><trkpt lat="44.469420510492036" lon="9.50879760361492"><ele>1399.5</ele><time>2026-05-01T17:03:10Z</time></trkpt><trkpt lat="44.469298115808954" lon="9.508813616435198"><ele>1398.0</ele><time>2026-05-01T17:03:11Z</time></trkpt><trkpt lat="44.469171627922016" lon="9.508827961815575"><ele>1398.0</ele><time>2026-05-01T17:03:12Z</time></trkpt><trkpt lat="44.46908133560096" lon="9.508777535389587"><ele>1398.0</ele><time>2026-05-01T17:03:12.999Z</time></trkpt><trkpt lat="44.468993915248845" lon="9.508775121048519"><ele>1398.0</ele><time>2026-05-01T17:03:13.999Z</time></trkpt><trkpt lat="44.46892862176606" lon="9.508768617674177"><ele>1398.0</ele><time>2026-05-01T17:03:14.999Z</time></trkpt><trkpt lat="44.46887261185934" lon="9.50887764933461"><ele>1398.0</ele><time>2026-05-01T17:03:16.999Z</time></trkpt><trkpt lat="44.4688564235435" lon="9.509029509937287"><ele>1398.0</ele><time>2026-05-01T17:03:18.999Z</time></trkpt><trkpt lat="44.468852880864084" lon="9.509185111493561"><ele>1398.0</ele><time>2026-05-01T17:03:20.999Z</time></trkpt><trkpt lat="44.46875302417514" lon="9.509253402757961"><ele>1398.0</ele><time>2026-05-01T17:03:22.999Z</time></trkpt><trkpt lat="44.46869793287236" lon="9.50930353018439"><ele>1398.0</ele><time>2026-05-01T17:03:23.999Z</time></trkpt><trkpt lat="44.46862999503051" lon="9.509319016466558"><ele>1398.0</ele><time>2026-05-01T17:03:24.999Z</time></trkpt><trkpt lat="44.46857173900134" lon="9.509353677675279"><ele>1398.0</ele><time>2026-05-01T17:03:25.999Z</time></trkpt><trkpt lat="44.468531566255955" lon="9.509422106408984"><ele>1397.5</ele><time>2026-05-01T17:03:26.999Z</time></trkpt><trkpt lat="44.46851576263793" lon="9.509522042971602"><ele>1397.0</ele><time>2026-05-01T17:03:27.999Z</time></trkpt><trkpt lat="44.468511771469316" lon="9.509629523025248"><ele>1396.5</ele><time>2026-05-01T17:03:28.999Z</time></trkpt><trkpt lat="44.46849402278564" lon="9.509734237963345"><ele>1396.0</ele><time>2026-05-01T17:03:29.999Z</time></trkpt><trkpt lat="44.46844802557948" lon="9.509806953792674"><ele>1395.5</ele><time>2026-05-01T17:03:30.999Z</time></trkpt><trkpt lat="44.46836160874304" lon="9.509800405757058"><ele>1395.0</ele><time>2026-05-01T17:03:31.999Z</time></trkpt><trkpt lat="44.468285820910104" lon="9.509852951556857"><ele>1395.0</ele><time>2026-05-01T17:03:32.999Z</time></trkpt><trkpt lat="44.46819220974573" lon="9.509891030725756"><ele>1395.0</ele><time>2026-05-01T17:03:33.999Z</time></trkpt><trkpt lat="44.46813176618392" lon="9.509959957032978"><ele>1395.0</ele><time>2026-05-01T17:03:34.999Z</time></trkpt><trkpt lat="44.46804920266844" lon="9.510067987827965"><ele>1395.0</ele><time>2026-05-01T17:03:35.999Z</time></trkpt><trkpt lat="44.467960697519516" lon="9.510166108712033"><ele>1395.0</ele><time>2026-05-01T17:03:36.999Z</time></trkpt><trkpt lat="44.467894819583805" lon="9.510263514585322"><ele>1394.4</ele><time>2026-05-01T17:03:37.999Z</time></trkpt><trkpt lat="44.46783969357014" lon="9.51038423792182"><ele>1393.8</ele><time>2026-05-01T17:03:38.999Z</time></trkpt><trkpt lat="44.46776477176481" lon="9.510465720180157"><ele>1393.1999999999998</ele><time>2026-05-01T17:03:39.999Z</time></trkpt><trkpt lat="44.467683945643074" lon="9.510545643886084"><ele>1392.6</ele><time>2026-05-01T17:03:40.999Z</time></trkpt><trkpt lat="44.46759731531817" lon="9.510617681302826"><ele>1392.0</ele><time>2026-05-01T17:03:41.999Z</time></trkpt><trkpt lat="44.46751709610541" lon="9.510681627147472"><ele>1392.0</ele><time>2026-05-01T17:03:42.999Z</time></trkpt><trkpt lat="44.46745272326103" lon="9.51072212741928"><ele>1392.0</ele><time>2026-05-01T17:03:43.999Z</time></trkpt><trkpt lat="44.46738946915235" lon="9.510755804381635"><ele>1392.0</ele><time>2026-05-01T17:03:44.999Z</time></trkpt><trkpt lat="44.46731160931873" lon="9.510751112559975"><ele>1392.0</ele><time>2026-05-01T17:03:45.999Z</time></trkpt><trkpt lat="44.4672268300477" lon="9.510758124320386"><ele>1392.0</ele><time>2026-05-01T17:03:46.999Z</time></trkpt><trkpt lat="44.46714292993714" lon="9.510732977230228"><ele>1392.0</ele><time>2026-05-01T17:03:47.999Z</time></trkpt><trkpt lat="44.467073334921395" lon="9.510690978839678"><ele>1390.5</ele><time>2026-05-01T17:03:48.999Z</time></trkpt><trkpt lat="44.467002374532356" lon="9.510664024689879"><ele>1389.0</ele><time>2026-05-01T17:03:49.999Z</time></trkpt><trkpt lat="44.466929888135226" lon="9.510656003986096"><ele>1387.5</ele><time>2026-05-01T17:03:50.999Z</time></trkpt><trkpt lat="44.466856031957796" lon="9.510647831710475"><ele>1386.0</ele><time>2026-05-01T17:03:51.999Z</time></trkpt><trkpt lat="44.466789895304196" lon="9.510669664356211"><ele>1384.5</ele><time>2026-05-01T17:03:52.999Z</time></trkpt><trkpt lat="44.466678177874144" lon="9.51071010657978"><ele>1383.0</ele><time>2026-05-01T17:03:54.999Z</time></trkpt><trkpt lat="44.46658632806056" lon="9.510765743114279"><ele>1383.0</ele><time>2026-05-01T17:03:56.999Z</time></trkpt><trkpt lat="44.466496407888776" lon="9.510850193132903"><ele>1383.0</ele><time>2026-05-01T17:03:58.999Z</time></trkpt><trkpt lat="44.4663880204788" lon="9.510937423135216"><ele>1383.0</ele><time>2026-05-01T17:04:00.999Z</time></trkpt><trkpt lat="44.466320330463084" lon="9.510990979872922"><ele>1383.0</ele><time>2026-05-01T17:04:01.999Z</time></trkpt><trkpt lat="44.466251196724976" lon="9.51104030301528"><ele>1383.0</ele><time>2026-05-01T17:04:02.999Z</time></trkpt><trkpt lat="44.46618149462966" lon="9.511083311215518"><ele>1382.1666666666667</ele><time>2026-05-01T17:04:03.999Z</time></trkpt><trkpt lat="44.46611005216223" lon="9.511112769112994"><ele>1381.3333333333333</ele><time>2026-05-01T17:04:04.999Z</time></trkpt><trkpt lat="44.46602573129153" lon="9.511129850574472"><ele>1380.5</ele><time>2026-05-01T17:04:05.999Z</time></trkpt><trkpt lat="44.465949309011066" lon="9.511141431254062"><ele>1379.6666666666665</ele><time>2026-05-01T17:04:06.999Z</time></trkpt><trkpt lat="44.465850935805264" lon="9.511158260895236"><ele>1378.8333333333333</ele><time>2026-05-01T17:04:07.999Z</time></trkpt><trkpt lat="44.46575650739303" lon="9.511177170063537"><ele>1378.0</ele><time>2026-05-01T17:04:08.999Z</time></trkpt><trkpt lat="44.46565979721925" lon="9.511191721884842"><ele>1378.0</ele><time>2026-05-01T17:04:09.999Z</time></trkpt><trkpt lat="44.46555558471982" lon="9.511194156819538"><ele>1378.0</ele><time>2026-05-01T17:04:10.999Z</time></trkpt><trkpt lat="44.465464674673036" lon="9.511187891928687"><ele>1378.0</ele><time>2026-05-01T17:04:11.999Z</time></trkpt><trkpt lat="44.46538031114483" lon="9.511177631894567"><ele>1378.0</ele><time>2026-05-01T17:04:12.999Z</time></trkpt><trkpt lat="44.46527429987245" lon="9.511162335677597"><ele>1378.0</ele><time>2026-05-01T17:04:13.999Z</time></trkpt><trkpt lat="44.46516285992485" lon="9.511145259181745"><ele>1376.8000000000002</ele><time>2026-05-01T17:04:14.999Z</time></trkpt><trkpt lat="44.46505474381702" lon="9.511124004155882"><ele>1375.6</ele><time>2026-05-01T17:04:15.999Z</time></trkpt><trkpt lat="44.46495477260248" lon="9.51110050225015"><ele>1374.4</ele><time>2026-05-01T17:04:16.999Z</time></trkpt><trkpt lat="44.46485078293591" lon="9.51106775993677"><ele>1373.1999999999998</ele><time>2026-05-01T17:04:17.999Z</time></trkpt><trkpt lat="44.464752440810365" lon="9.51102756609121"><ele>1372.0</ele><time>2026-05-01T17:04:18.999Z</time></trkpt><trkpt lat="44.46467407246184" lon="9.510971689955483"><ele>1367.6</ele><time>2026-05-01T17:04:19.999Z</time></trkpt><trkpt lat="44.46460478322271" lon="9.51091738703213"><ele>1363.1999999999998</ele><time>2026-05-01T17:04:20.999Z</time></trkpt><trkpt lat="44.464569890441545" lon="9.510807504036968"><ele>1358.8</ele><time>2026-05-01T17:04:21.999Z</time></trkpt><trkpt lat="44.46450143256907" lon="9.510723470392204"><ele>1354.4</ele><time>2026-05-01T17:04:22.999Z</time></trkpt><trkpt lat="44.464411451822556" lon="9.510624653919253"><ele>1350.0</ele><time>2026-05-01T17:04:23.999Z</time></trkpt><trkpt lat="44.46432571823802" lon="9.510539288745072"><ele>1350.0</ele><time>2026-05-01T17:04:24.999Z</time></trkpt><trkpt lat="44.46420468482467" lon="9.510438569304995"><ele>1350.0</ele><time>2026-05-01T17:04:25.999Z</time></trkpt><trkpt lat="44.4640762572726" lon="9.510361219332426"><ele>1350.0</ele><time>2026-05-01T17:04:26.999Z</time></trkpt><trkpt lat="44.46395235126212" lon="9.510307133751825"><ele>1350.0</ele><time>2026-05-01T17:04:27.999Z</time></trkpt><trkpt lat="44.4638495747987" lon="9.510276331677064"><ele>1351.6</ele><time>2026-05-01T17:04:28.999Z</time></trkpt><trkpt lat="44.463749001318426" lon="9.510247494307988"><ele>1353.2</ele><time>2026-05-01T17:04:30Z</time></trkpt><trkpt lat="44.463658172730156" lon="9.510318352891913"><ele>1354.8000000000002</ele><time>2026-05-01T17:04:31Z</time></trkpt><trkpt lat="44.463590670382644" lon="9.510387282765404"><ele>1356.4</ele><time>2026-05-01T17:04:31.999Z</time></trkpt><trkpt lat="44.463512907792726" lon="9.510471657225253"><ele>1358.0</ele><time>2026-05-01T17:04:32.999Z</time></trkpt><trkpt lat="44.46340932423065" lon="9.51055715548873"><ele>1354.6000000000001</ele><time>2026-05-01T17:04:33.999Z</time></trkpt><trkpt lat="44.463311266275596" lon="9.510617680757376"><ele>1351.2</ele><time>2026-05-01T17:04:34.999Z</time></trkpt><trkpt lat="44.463232454928026" lon="9.510675531141116"><ele>1347.8</ele><time>2026-05-01T17:04:35.999Z</time></trkpt><trkpt lat="44.46315830779807" lon="9.510714845746065"><ele>1344.4</ele><time>2026-05-01T17:04:36.999Z</time></trkpt><trkpt lat="44.46306709655927" lon="9.510763316321306"><ele>1341.0</ele><time>2026-05-01T17:04:38.999Z</time></trkpt><trkpt lat="44.46296803985337" lon="9.51074988574928"><ele>1341.5</ele><time>2026-05-01T17:04:40.999Z</time></trkpt><trkpt lat="44.46290324927544" lon="9.510666869691198"><ele>1342.0</ele><time>2026-05-01T17:04:43Z</time></trkpt><trkpt lat="44.46289104849498" lon="9.510570814000168"><ele>1342.5</ele><time>2026-05-01T17:04:46Z</time></trkpt><trkpt lat="44.4628486026039" lon="9.510454312644319"><ele>1343.0</ele><time>2026-05-01T17:04:49Z</time></trkpt><trkpt lat="44.46278339417061" lon="9.510381427251055"><ele>1343.5</ele><time>2026-05-01T17:04:51Z</time></trkpt><trkpt lat="44.4627153506516" lon="9.51034366352888"><ele>1344.0</ele><time>2026-05-01T17:04:53Z</time></trkpt><trkpt lat="44.46263463321772" lon="9.510326083342223"><ele>1344.0</ele><time>2026-05-01T17:04:56Z</time></trkpt><trkpt lat="44.46254634107241" lon="9.510321507855025"><ele>1344.0</ele><time>2026-05-01T17:05:00Z</time></trkpt><trkpt lat="44.46247180720718" lon="9.510293982143354"><ele>1344.0</ele><time>2026-05-01T17:05:04Z</time></trkpt><trkpt lat="44.46241815772173" lon="9.510231075105441"><ele>1344.0</ele><time>2026-05-01T17:05:07Z</time></trkpt><trkpt lat="44.46236616825111" lon="9.510161341474848"><ele>1344.0</ele><time>2026-05-01T17:05:09.999Z</time></trkpt><trkpt lat="44.46231486650234" lon="9.510064004748624"><ele>1344.0</ele><time>2026-05-01T17:05:12.999Z</time></trkpt><trkpt lat="44.46224266569963" lon="9.509964365520863"><ele>1344.0</ele><time>2026-05-01T17:05:23.999Z</time></trkpt><trkpt lat="44.46218037681197" lon="9.509921083658012"><ele>1344.0</ele><time>2026-05-01T17:05:26.999Z</time></trkpt><trkpt lat="44.46210318581686" lon="9.509887550703919"><ele>1344.0</ele><time>2026-05-01T17:05:28.999Z</time></trkpt><trkpt lat="44.462002094047264" lon="9.50986718895596"><ele>1344.0</ele><time>2026-05-01T17:05:30.999Z</time></trkpt><trkpt lat="44.461934664889995" lon="9.509876069953973"><ele>1344.0</ele><time>2026-05-01T17:05:33.999Z</time></trkpt><trkpt lat="44.461860361684145" lon="9.509885281714357"><ele>1344.0</ele><time>2026-05-01T17:05:36.999Z</time></trkpt><trkpt lat="44.4617824450015" lon="9.509884187679043"><ele>1341.5</ele><time>2026-05-01T17:05:42.999Z</time></trkpt><trkpt lat="44.46170477872032" lon="9.509849087518992"><ele>1339.0</ele><time>2026-05-01T17:05:44.999Z</time></trkpt><trkpt lat="44.46163569534835" lon="9.50980192264032"><ele>1336.5</ele><time>2026-05-01T17:05:45.999Z</time></trkpt><trkpt lat="44.46156494124308" lon="9.509765634473522"><ele>1334.0</ele><time>2026-05-01T17:05:46.999Z</time></trkpt><trkpt lat="44.461493773833254" lon="9.509730835855564"><ele>1331.5</ele><time>2026-05-01T17:05:47.999Z</time></trkpt><trkpt lat="44.46142054126276" lon="9.509700705244295"><ele>1329.0</ele><time>2026-05-01T17:05:48.999Z</time></trkpt><trkpt lat="44.46134638070938" lon="9.509673781530955"><ele>1326.1666666666667</ele><time>2026-05-01T17:05:49.999Z</time></trkpt><trkpt lat="44.46126599402875" lon="9.509675483569518"><ele>1323.3333333333333</ele><time>2026-05-01T17:05:50.999Z</time></trkpt><trkpt lat="44.461168692443216" lon="9.509686906248337"><ele>1320.5</ele><time>2026-05-01T17:05:52.999Z</time></trkpt><trkpt lat="44.461135667802864" lon="9.509767602537776"><ele>1317.6666666666665</ele><time>2026-05-01T17:05:53.999Z</time></trkpt><trkpt lat="44.46105935733684" lon="9.509843769138993"><ele>1314.8333333333333</ele><time>2026-05-01T17:05:55.999Z</time></trkpt><trkpt lat="44.460978824855694" lon="9.50985891101958"><ele>1312.0</ele><time>2026-05-01T17:05:57.999Z</time></trkpt><trkpt lat="44.46091354624365" lon="9.509810783502784"><ele>1312.0</ele><time>2026-05-01T17:05:58.999Z</time></trkpt><trkpt lat="44.46086854479101" lon="9.509704920082658"><ele>1312.0</ele><time>2026-05-01T17:05:59.999Z</time></trkpt><trkpt lat="44.46081069375576" lon="9.509664261514365"><ele>1312.0</ele><time>2026-05-01T17:06:00.999Z</time></trkpt><trkpt lat="44.46069247739821" lon="9.509605085607093"><ele>1312.0</ele><time>2026-05-01T17:06:02.999Z</time></trkpt><trkpt lat="44.46062142437393" lon="9.509569795178022"><ele>1312.0</ele><time>2026-05-01T17:06:03.999Z</time></trkpt><trkpt lat="44.4605472340613" lon="9.509514796641003"><ele>1312.0</ele><time>2026-05-01T17:06:04.999Z</time></trkpt><trkpt lat="44.460483124338275" lon="9.509471492024332"><ele>1311.0</ele><time>2026-05-01T17:06:05.999Z</time></trkpt><trkpt lat="44.46042630088155" lon="9.509433109028205"><ele>1310.0</ele><time>2026-05-01T17:06:06.999Z</time></trkpt><trkpt lat="44.46031547242859" lon="9.509344629288021"><ele>1309.0</ele><time>2026-05-01T17:06:08.999Z</time></trkpt><trkpt lat="44.460215217616906" lon="9.509281456923258"><ele>1308.0</ele><time>2026-05-01T17:06:10.999Z</time></trkpt><trkpt lat="44.4601009820423" lon="9.509241937050337"><ele>1307.0</ele><time>2026-05-01T17:06:12.999Z</time></trkpt><trkpt lat="44.46000662454317" lon="9.509160041632063"><ele>1307.0</ele><time>2026-05-01T17:06:14.999Z</time></trkpt><trkpt lat="44.45995292864121" lon="9.509110230904957"><ele>1307.0</ele><time>2026-05-01T17:06:15.999Z</time></trkpt><trkpt lat="44.45993549412006" lon="9.509018101133268"><ele>1307.0</ele><time>2026-05-01T17:06:16.999Z</time></trkpt><trkpt lat="44.45992882191572" lon="9.508923238058852"><ele>1307.0</ele><time>2026-05-01T17:06:17.999Z</time></trkpt><trkpt lat="44.459935612030975" lon="9.50882684886172"><ele>1307.0</ele><time>2026-05-01T17:06:18.999Z</time></trkpt><trkpt lat="44.45995207054518" lon="9.508715164222181"><ele>1307.0</ele><time>2026-05-01T17:06:19.999Z</time></trkpt><trkpt lat="44.459915259729456" lon="9.508611098662186"><ele>1307.0</ele><time>2026-05-01T17:06:20.999Z</time></trkpt><trkpt lat="44.45989012517445" lon="9.50849017089334"><ele>1306.0</ele><time>2026-05-01T17:06:21.999Z</time></trkpt><trkpt lat="44.45985313584465" lon="9.508382656023654"><ele>1305.0</ele><time>2026-05-01T17:06:22.999Z</time></trkpt><trkpt lat="44.45979445183947" lon="9.508267970740805"><ele>1304.0</ele><time>2026-05-01T17:06:23.999Z</time></trkpt><trkpt lat="44.459751413280806" lon="9.508160922939089"><ele>1303.0</ele><time>2026-05-01T17:06:24.999Z</time></trkpt><trkpt lat="44.45970982038593" lon="9.508043403754968"><ele>1302.0</ele><time>2026-05-01T17:06:25.999Z</time></trkpt><trkpt lat="44.459666728285924" lon="9.507919691491416"><ele>1301.3333333333333</ele><time>2026-05-01T17:06:26.999Z</time></trkpt><trkpt lat="44.45961381706578" lon="9.507820184243426"><ele>1300.6666666666667</ele><time>2026-05-01T17:06:27.999Z</time></trkpt><trkpt lat="44.45956186227332" lon="9.507735769868791"><ele>1300.0</ele><time>2026-05-01T17:06:28.999Z</time></trkpt><trkpt lat="44.4595024804707" lon="9.507660089818586"><ele>1299.3333333333335</ele><time>2026-05-01T17:06:29.999Z</time></trkpt><trkpt lat="44.45941754574228" lon="9.507596126909371"><ele>1298.6666666666667</ele><time>2026-05-01T17:06:30.999Z</time></trkpt><trkpt lat="44.4593258803671" lon="9.507552390843156"><ele>1298.0</ele><time>2026-05-01T17:06:31.999Z</time></trkpt><trkpt lat="44.45922622414022" lon="9.507523349429887"><ele>1298.0</ele><time>2026-05-01T17:06:32.999Z</time></trkpt><trkpt lat="44.45913027370806" lon="9.507515692702498"><ele>1298.0</ele><time>2026-05-01T17:06:33.999Z</time></trkpt><trkpt lat="44.45904632249101" lon="9.507510668799728"><ele>1298.0</ele><time>2026-05-01T17:06:34.999Z</time></trkpt><trkpt lat="44.45895965716262" lon="9.507505603749573"><ele>1298.0</ele><time>2026-05-01T17:06:36Z</time></trkpt><trkpt lat="44.45885671721429" lon="9.50752105033546"><ele>1298.0</ele><time>2026-05-01T17:06:37Z</time></trkpt><trkpt lat="44.458744372073056" lon="9.507554546468189"><ele>1297.0</ele><time>2026-05-01T17:06:38Z</time></trkpt><trkpt lat="44.45862551905087" lon="9.507593681734493"><ele>1296.0</ele><time>2026-05-01T17:06:39Z</time></trkpt><trkpt lat="44.45850070654896" lon="9.507627881659674"><ele>1295.0</ele><time>2026-05-01T17:06:40Z</time></trkpt><trkpt lat="44.45837438380197" lon="9.507648244892536"><ele>1294.0</ele><time>2026-05-01T17:06:41Z</time></trkpt><trkpt lat="44.45826544663239" lon="9.507672100341345"><ele>1294.0</ele><time>2026-05-01T17:06:42Z</time></trkpt><trkpt lat="44.458139799261325" lon="9.507674658421273"><ele>1294.0</ele><time>2026-05-01T17:06:43Z</time></trkpt><trkpt lat="44.45802617728402" lon="9.507661672993583"><ele>1294.0</ele><time>2026-05-01T17:06:44Z</time></trkpt><trkpt lat="44.45790892339679" lon="9.507623564496344"><ele>1294.0</ele><time>2026-05-01T17:06:45Z</time></trkpt><trkpt lat="44.45777774846262" lon="9.5076065978469"><ele>1293.2</ele><time>2026-05-01T17:06:46Z</time></trkpt><trkpt lat="44.457659306078725" lon="9.50758296500882"><ele>1292.4</ele><time>2026-05-01T17:06:47Z</time></trkpt><trkpt lat="44.4575618708958" lon="9.507585251994508"><ele>1291.6</ele><time>2026-05-01T17:06:48Z</time></trkpt><trkpt lat="44.457478756187385" lon="9.507608075981855"><ele>1290.8</ele><time>2026-05-01T17:06:49Z</time></trkpt><trkpt lat="44.45739091997715" lon="9.50759285840942"><ele>1290.0</ele><time>2026-05-01T17:06:50Z</time></trkpt><trkpt lat="44.45728695205735" lon="9.507671307975729"><ele>1290.0</ele><time>2026-05-01T17:06:51Z</time></trkpt><trkpt lat="44.457176143777566" lon="9.507669773133852"><ele>1290.0</ele><time>2026-05-01T17:06:52Z</time></trkpt><trkpt lat="44.45705782244775" lon="9.50766093787467"><ele>1290.0</ele><time>2026-05-01T17:06:53Z</time></trkpt><trkpt lat="44.45693797167486" lon="9.507659051333858"><ele>1290.0</ele><time>2026-05-01T17:06:54Z</time></trkpt><trkpt lat="44.456809375273124" lon="9.507644448172512"><ele>1290.0</ele><time>2026-05-01T17:06:55Z</time></trkpt><trkpt lat="44.45668368472495" lon="9.507625389375354"><ele>1290.0</ele><time>2026-05-01T17:06:56Z</time></trkpt><trkpt lat="44.456570991754745" lon="9.5075943989645"><ele>1290.0</ele><time>2026-05-01T17:06:57Z</time></trkpt><trkpt lat="44.456470404210236" lon="9.507555977350007"><ele>1290.0</ele><time>2026-05-01T17:06:57.999Z</time></trkpt><trkpt lat="44.45637311985722" lon="9.50750888608401"><ele>1290.0</ele><time>2026-05-01T17:06:58.999Z</time></trkpt><trkpt lat="44.45628014900728" lon="9.507441349424429"><ele>1289.0</ele><time>2026-05-01T17:06:59.999Z</time></trkpt><trkpt lat="44.456192492830205" lon="9.507356707270786"><ele>1288.0</ele><time>2026-05-01T17:07:00.999Z</time></trkpt><trkpt lat="44.45610851905012" lon="9.507268225547184"><ele>1287.0</ele><time>2026-05-01T17:07:01.999Z</time></trkpt><trkpt lat="44.45603529398449" lon="9.507166701464277"><ele>1286.0</ele><time>2026-05-01T17:07:02.999Z</time></trkpt><trkpt lat="44.45596891588774" lon="9.507047291541255"><ele>1285.0</ele><time>2026-05-01T17:07:03.999Z</time></trkpt><trkpt lat="44.45589966895112" lon="9.506939813883253"><ele>1284.8</ele><time>2026-05-01T17:07:04.999Z</time></trkpt><trkpt lat="44.455878217425145" lon="9.506800283599809"><ele>1284.6</ele><time>2026-05-01T17:07:05.999Z</time></trkpt><trkpt lat="44.45581474458782" lon="9.506699990248897"><ele>1284.4</ele><time>2026-05-01T17:07:06.999Z</time></trkpt><trkpt lat="44.45574238520556" lon="9.506606655507682"><ele>1284.2</ele><time>2026-05-01T17:07:07.999Z</time></trkpt><trkpt lat="44.45567236027562" lon="9.50650638787995"><ele>1284.0</ele><time>2026-05-01T17:07:08.999Z</time></trkpt><trkpt lat="44.455602050562916" lon="9.506400248031825"><ele>1284.0</ele><time>2026-05-01T17:07:09.999Z</time></trkpt><trkpt lat="44.455542706942865" lon="9.506274020236345"><ele>1284.0</ele><time>2026-05-01T17:07:10.999Z</time></trkpt><trkpt lat="44.455470145322" lon="9.506197431581437"><ele>1284.0</ele><time>2026-05-01T17:07:11.999Z</time></trkpt><trkpt lat="44.45540085704062" lon="9.506121122172098"><ele>1284.0</ele><time>2026-05-01T17:07:12.999Z</time></trkpt><trkpt lat="44.45534673338145" lon="9.506037086940292"><ele>1284.0</ele><time>2026-05-01T17:07:13.999Z</time></trkpt><trkpt lat="44.4553009705425" lon="9.505975466381742"><ele>1284.0</ele><time>2026-05-01T17:07:14.999Z</time></trkpt><trkpt lat="44.45525359910879" lon="9.505890165152234"><ele>1284.1666666666667</ele><time>2026-05-01T17:07:16.999Z</time></trkpt><trkpt lat="44.45530066248418" lon="9.505794124400161"><ele>1284.3333333333333</ele><time>2026-05-01T17:07:33.999Z</time></trkpt><trkpt lat="44.45534917897622" lon="9.505704781434282"><ele>1284.5</ele><time>2026-05-01T17:07:34.999Z</time></trkpt><trkpt lat="44.455438156095504" lon="9.50561810263032"><ele>1284.6666666666665</ele><time>2026-05-01T17:07:35.999Z</time></trkpt><trkpt lat="44.45552401115952" lon="9.50557505686083"><ele>1284.8333333333333</ele><time>2026-05-01T17:07:36.999Z</time></trkpt><trkpt lat="44.455595092192105" lon="9.5055252041545"><ele>1285.0</ele><time>2026-05-01T17:07:37.999Z</time></trkpt><trkpt lat="44.45565951820984" lon="9.505467142310918"><ele>1285.0</ele><time>2026-05-01T17:07:38.999Z</time></trkpt><trkpt lat="44.455712834576964" lon="9.505413926126316"><ele>1285.0</ele><time>2026-05-01T17:07:39.999Z</time></trkpt><trkpt lat="44.4558093222455" lon="9.505290151866884"><ele>1285.0</ele><time>2026-05-01T17:07:40.999Z</time></trkpt><trkpt lat="44.45585857552436" lon="9.505184098533984"><ele>1285.0</ele><time>2026-05-01T17:07:42.999Z</time></trkpt><trkpt lat="44.455889586078285" lon="9.505106537951814"><ele>1285.0</ele><time>2026-05-01T17:07:44.999Z</time></trkpt><trkpt lat="44.45593748324729" lon="9.505004199766898"><ele>1285.0</ele><time>2026-05-01T17:07:46.999Z</time></trkpt><trkpt lat="44.45599319065098" lon="9.504897512970896"><ele>1284.0</ele><time>2026-05-01T17:07:48.999Z</time></trkpt><trkpt lat="44.45606207102497" lon="9.504841454845732"><ele>1283.0</ele><time>2026-05-01T17:07:50.999Z</time></trkpt><trkpt lat="44.45613561873693" lon="9.504905928920051"><ele>1282.0</ele><time>2026-05-01T17:07:52.999Z</time></trkpt><trkpt lat="44.45618449632542" lon="9.505024223105403"><ele>1281.0</ele><time>2026-05-01T17:07:54.999Z</time></trkpt><trkpt lat="44.45628597906875" lon="9.505134673254172"><ele>1280.0</ele><time>2026-05-01T17:07:56.999Z</time></trkpt><trkpt lat="44.456364608940014" lon="9.505140429889632"><ele>1280.0</ele><time>2026-05-01T17:07:57.999Z</time></trkpt><trkpt lat="44.4564435624174" lon="9.505080989305908"><ele>1280.0</ele><time>2026-05-01T17:07:58.999Z</time></trkpt><trkpt lat="44.4565096245477" lon="9.504952079642162"><ele>1280.0</ele><time>2026-05-01T17:07:59.999Z</time></trkpt><trkpt lat="44.45655288010675" lon="9.504822356951315"><ele>1280.0</ele><time>2026-05-01T17:08:00.999Z</time></trkpt><trkpt lat="44.456565481976504" lon="9.504702683297594"><ele>1280.0</ele><time>2026-05-01T17:08:01.999Z</time></trkpt><trkpt lat="44.45658679766636" lon="9.504589357262253"><ele>1275.6666666666667</ele><time>2026-05-01T17:08:02.999Z</time></trkpt><trkpt lat="44.45657635680949" lon="9.504472530957303"><ele>1271.3333333333335</ele><time>2026-05-01T17:08:03.999Z</time></trkpt><trkpt lat="44.456611343419134" lon="9.504376064358961"><ele>1267.0</ele><time>2026-05-01T17:08:04.999Z</time></trkpt><trkpt lat="44.456669390111685" lon="9.504278944612128"><ele>1262.6666666666667</ele><time>2026-05-01T17:08:05.999Z</time></trkpt><trkpt lat="44.45670540540175" lon="9.504187481782305"><ele>1258.3333333333333</ele><time>2026-05-01T17:08:06.999Z</time></trkpt><trkpt lat="44.456722217213404" lon="9.504094721439651"><ele>1254.0</ele><time>2026-05-01T17:08:07.999Z</time></trkpt><trkpt lat="44.456749760669034" lon="9.504014894174908"><ele>1254.0</ele><time>2026-05-01T17:08:08.999Z</time></trkpt><trkpt lat="44.456773468434285" lon="9.50385675378665"><ele>1254.0</ele><time>2026-05-01T17:08:10.999Z</time></trkpt><trkpt lat="44.456818119403835" lon="9.503733273428944"><ele>1254.0</ele><time>2026-05-01T17:08:12.999Z</time></trkpt><trkpt lat="44.45687843456161" lon="9.503619779993063"><ele>1254.0</ele><time>2026-05-01T17:08:14.999Z</time></trkpt><trkpt lat="44.456971469637985" lon="9.503610188588201"><ele>1254.0</ele><time>2026-05-01T17:08:16.999Z</time></trkpt><trkpt lat="44.45706753466" lon="9.503715224992158"><ele>1256.8333333333333</ele><time>2026-05-01T17:08:18.999Z</time></trkpt><trkpt lat="44.45713589580889" lon="9.50377865119225"><ele>1259.6666666666667</ele><time>2026-05-01T17:08:19.999Z</time></trkpt><trkpt lat="44.4572063757803" lon="9.503820828266356"><ele>1262.5</ele><time>2026-05-01T17:08:20.999Z</time></trkpt><trkpt lat="44.457285543059086" lon="9.503829239445908"><ele>1265.3333333333335</ele><time>2026-05-01T17:08:21.999Z</time></trkpt><trkpt lat="44.45733951570109" lon="9.503900450489322"><ele>1268.1666666666667</ele><time>2026-05-01T17:08:22.999Z</time></trkpt><trkpt lat="44.45740660279695" lon="9.50391949605664"><ele>1271.0</ele><time>2026-05-01T17:08:23.999Z</time></trkpt><trkpt lat="44.457506240213014" lon="9.503853068963341"><ele>1271.0</ele><time>2026-05-01T17:08:24.999Z</time></trkpt><trkpt lat="44.45755563758155" lon="9.503770216949983"><ele>1271.0</ele><time>2026-05-01T17:08:25.999Z</time></trkpt><trkpt lat="44.45759189656342" lon="9.503674230229622"><ele>1271.0</ele><time>2026-05-01T17:08:26.999Z</time></trkpt><trkpt lat="44.45756084538004" lon="9.503550561034771"><ele>1271.0</ele><time>2026-05-01T17:08:27.999Z</time></trkpt><trkpt lat="44.45758303745533" lon="9.50341129964507"><ele>1271.0</ele><time>2026-05-01T17:08:28.999Z</time></trkpt><trkpt lat="44.457589240310114" lon="9.503259555297298"><ele>1266.3999999999999</ele><time>2026-05-01T17:08:29.999Z</time></trkpt><trkpt lat="44.45758812822148" lon="9.50308774415073"><ele>1261.8</ele><time>2026-05-01T17:08:30.999Z</time></trkpt><trkpt lat="44.45757171179931" lon="9.502919538117961"><ele>1257.1999999999998</ele><time>2026-05-01T17:08:31.999Z</time></trkpt><trkpt lat="44.45753867382689" lon="9.502776489041901"><ele>1252.6</ele><time>2026-05-01T17:08:32.999Z</time></trkpt><trkpt lat="44.457500582549" lon="9.502652361801857"><ele>1248.0</ele><time>2026-05-01T17:08:33.999Z</time></trkpt><trkpt lat="44.45746976086824" lon="9.502551520751064"><ele>1245.8</ele><time>2026-05-01T17:08:34.999Z</time></trkpt><trkpt lat="44.457448054292264" lon="9.502463024210872"><ele>1243.6</ele><time>2026-05-01T17:08:35.999Z</time></trkpt><trkpt lat="44.45746946033004" lon="9.502324226098906"><ele>1241.4</ele><time>2026-05-01T17:08:37.999Z</time></trkpt><trkpt lat="44.4575397459067" lon="9.502284271981383"><ele>1239.2</ele><time>2026-05-01T17:08:38.999Z</time></trkpt><trkpt lat="44.45763129759428" lon="9.50222716454645"><ele>1237.0</ele><time>2026-05-01T17:08:39.999Z</time></trkpt><trkpt lat="44.45773970565326" lon="9.502135035606997"><ele>1239.0</ele><time>2026-05-01T17:08:40.999Z</time></trkpt><trkpt lat="44.45782716422184" lon="9.502046507877584"><ele>1241.0</ele><time>2026-05-01T17:08:41.999Z</time></trkpt><trkpt lat="44.45790634198797" lon="9.501964298071394"><ele>1243.0</ele><time>2026-05-01T17:08:42.999Z</time></trkpt><trkpt lat="44.45797034220423" lon="9.501890839917634"><ele>1245.0</ele><time>2026-05-01T17:08:43.999Z</time></trkpt><trkpt lat="44.45800692595145" lon="9.501790659840747"><ele>1247.0</ele><time>2026-05-01T17:08:44.999Z</time></trkpt><trkpt lat="44.458011950314436" lon="9.501695837029574"><ele>1249.0</ele><time>2026-05-01T17:08:45.999Z</time></trkpt><trkpt lat="44.457974972746825" lon="9.501603896065587"><ele>1244.3333333333333</ele><time>2026-05-01T17:08:46.999Z</time></trkpt><trkpt lat="44.45790829061208" lon="9.501557345100819"><ele>1239.6666666666665</ele><time>2026-05-01T17:08:47.999Z</time></trkpt><trkpt lat="44.45788392374373" lon="9.50146013131026"><ele>1235.0</ele><time>2026-05-01T17:08:48.999Z</time></trkpt><trkpt lat="44.457878977554465" lon="9.50134329514004"><ele>1230.3333333333333</ele><time>2026-05-01T17:08:49.999Z</time></trkpt><trkpt lat="44.457874888928686" lon="9.501197583343554"><ele>1225.6666666666667</ele><time>2026-05-01T17:08:50.999Z</time></trkpt><trkpt lat="44.45788338608535" lon="9.501060530565304"><ele>1221.0</ele><time>2026-05-01T17:08:51.999Z</time></trkpt><trkpt lat="44.45792215424624" lon="9.500935020661863"><ele>1221.8333333333333</ele><time>2026-05-01T17:08:52.999Z</time></trkpt><trkpt lat="44.457953598407926" lon="9.50081148065433"><ele>1222.6666666666667</ele><time>2026-05-01T17:08:53.999Z</time></trkpt><trkpt lat="44.45797732868142" lon="9.500712270679813"><ele>1223.5</ele><time>2026-05-01T17:08:54.999Z</time></trkpt><trkpt lat="44.45799513586159" lon="9.500613206181697"><ele>1224.3333333333335</ele><time>2026-05-01T17:08:55.999Z</time></trkpt><trkpt lat="44.457999527788125" lon="9.500496589378043"><ele>1225.1666666666667</ele><time>2026-05-01T17:08:56.999Z</time></trkpt><trkpt lat="44.45800090144661" lon="9.5003760951549"><ele>1226.0</ele><time>2026-05-01T17:08:57.999Z</time></trkpt><trkpt lat="44.45800940195737" lon="9.500277387499668"><ele>1226.0</ele><time>2026-05-01T17:08:58.999Z</time></trkpt><trkpt lat="44.45805042170421" lon="9.500087853287372"><ele>1226.0</ele><time>2026-05-01T17:09:00.999Z</time></trkpt><trkpt lat="44.458092494865625" lon="9.499983795531254"><ele>1226.0</ele><time>2026-05-01T17:09:01.999Z</time></trkpt><trkpt lat="44.45813014783726" lon="9.499893969946019"><ele>1226.0</ele><time>2026-05-01T17:09:02.999Z</time></trkpt><trkpt lat="44.45816690981627" lon="9.499807373873518"><ele>1226.0</ele><time>2026-05-01T17:09:03.999Z</time></trkpt><trkpt lat="44.458194863330746" lon="9.499700838786373"><ele>1226.0</ele><time>2026-05-01T17:09:04.999Z</time></trkpt><trkpt lat="44.45822982018833" lon="9.499614909191404"><ele>1226.0</ele><time>2026-05-01T17:09:05.999Z</time></trkpt><trkpt lat="44.45828640665652" lon="9.499471749969652"><ele>1226.0</ele><time>2026-05-01T17:09:07.999Z</time></trkpt><trkpt lat="44.458375935752485" lon="9.499401106853984"><ele>1226.0</ele><time>2026-05-01T17:09:09.999Z</time></trkpt><trkpt lat="44.45848759853382" lon="9.499426266622976"><ele>1226.0</ele><time>2026-05-01T17:09:11.999Z</time></trkpt><trkpt lat="44.458547309241865" lon="9.499468189995628"><ele>1226.0</ele><time>2026-05-01T17:09:12.999Z</time></trkpt><trkpt lat="44.45863346675655" lon="9.49954556089896"><ele>1226.0</ele><time>2026-05-01T17:09:13.999Z</time></trkpt><trkpt lat="44.45873091228562" lon="9.499634376404748"><ele>1226.0</ele><time>2026-05-01T17:09:14.999Z</time></trkpt><trkpt lat="44.458827221800085" lon="9.499706951814574"><ele>1226.0</ele><time>2026-05-01T17:09:15.999Z</time></trkpt><trkpt lat="44.45892135151194" lon="9.499768854991808"><ele>1226.0</ele><time>2026-05-01T17:09:16.999Z</time></trkpt><trkpt lat="44.459013311983746" lon="9.499825008924253"><ele>1224.8</ele><time>2026-05-01T17:09:17.999Z</time></trkpt><trkpt lat="44.45909439398636" lon="9.499873496301463"><ele>1223.6</ele><time>2026-05-01T17:09:18.999Z</time></trkpt><trkpt lat="44.459183060752224" lon="9.499923164338057"><ele>1222.4</ele><time>2026-05-01T17:09:19.999Z</time></trkpt><trkpt lat="44.45927683050157" lon="9.49996787499075"><ele>1221.2</ele><time>2026-05-01T17:09:20.999Z</time></trkpt><trkpt lat="44.45936526236064" lon="9.499998364826032"><ele>1220.0</ele><time>2026-05-01T17:09:21.999Z</time></trkpt><trkpt lat="44.45945073573195" lon="9.500021670739084"><ele>1220.0</ele><time>2026-05-01T17:09:22.999Z</time></trkpt><trkpt lat="44.45953385052821" lon="9.500041536580214"><ele>1220.0</ele><time>2026-05-01T17:09:23.999Z</time></trkpt><trkpt lat="44.45961417864368" lon="9.500060736366308"><ele>1220.0</ele><time>2026-05-01T17:09:24.999Z</time></trkpt><trkpt lat="44.45969658941143" lon="9.500094117804045"><ele>1220.0</ele><time>2026-05-01T17:09:25.999Z</time></trkpt><trkpt lat="44.459770341955284" lon="9.500107283393314"><ele>1220.0</ele><time>2026-05-01T17:09:26.999Z</time></trkpt><trkpt lat="44.459841455192894" lon="9.500097165043938"><ele>1220.0</ele><time>2026-05-01T17:09:27.999Z</time></trkpt><trkpt lat="44.45991738783712" lon="9.50012844090081"><ele>1215.8</ele><time>2026-05-01T17:09:28.999Z</time></trkpt><trkpt lat="44.460005696379966" lon="9.50014465370544"><ele>1211.6</ele><time>2026-05-01T17:09:29.999Z</time></trkpt><trkpt lat="44.46009924727294" lon="9.50014800153665"><ele>1207.4</ele><time>2026-05-01T17:09:30.999Z</time></trkpt><trkpt lat="44.46017305795498" lon="9.500138476030237"><ele>1203.2</ele><time>2026-05-01T17:09:31.999Z</time></trkpt><trkpt lat="44.46030397734794" lon="9.50016626672751"><ele>1199.0</ele><time>2026-05-01T17:09:33.999Z</time></trkpt><trkpt lat="44.460347997315225" lon="9.500235529131752"><ele>1199.0</ele><time>2026-05-01T17:09:34.999Z</time></trkpt><trkpt lat="44.46040143357244" lon="9.500318858591395"><ele>1199.0</ele><time>2026-05-01T17:09:35.999Z</time></trkpt><trkpt lat="44.460459814538176" lon="9.500416486949254"><ele>1199.0</ele><time>2026-05-01T17:09:36.999Z</time></trkpt><trkpt lat="44.46051197167992" lon="9.500519332413067"><ele>1199.0</ele><time>2026-05-01T17:09:37.999Z</time></trkpt><trkpt lat="44.46056262567168" lon="9.500623723767552"><ele>1199.0</ele><time>2026-05-01T17:09:38.999Z</time></trkpt><trkpt lat="44.46061745090569" lon="9.500705078242401"><ele>1199.0</ele><time>2026-05-01T17:09:39.999Z</time></trkpt><trkpt lat="44.4606902060519" lon="9.500772409805258"><ele>1199.8333333333335</ele><time>2026-05-01T17:09:40.999Z</time></trkpt><trkpt lat="44.460762335372614" lon="9.500839029383604"><ele>1200.6666666666667</ele><time>2026-05-01T17:09:41.999Z</time></trkpt><trkpt lat="44.46083160117367" lon="9.500901337907393"><ele>1201.5</ele><time>2026-05-01T17:09:42.999Z</time></trkpt><trkpt lat="44.46094439687304" lon="9.500950764615027"><ele>1202.3333333333333</ele><time>2026-05-01T17:09:44.999Z</time></trkpt><trkpt lat="44.46101070988934" lon="9.500919507865754"><ele>1203.1666666666665</ele><time>2026-05-01T17:09:45.999Z</time></trkpt><trkpt lat="44.46109875050027" lon="9.500921200441681"><ele>1204.0</ele><time>2026-05-01T17:09:47.999Z</time></trkpt><trkpt lat="44.46117243797085" lon="9.500960971582645"><ele>1204.0</ele><time>2026-05-01T17:09:49.999Z</time></trkpt><trkpt lat="44.461219317839806" lon="9.50102556035219"><ele>1204.0</ele><time>2026-05-01T17:09:50.999Z</time></trkpt><trkpt lat="44.46126124840255" lon="9.501105022614956"><ele>1204.0</ele><time>2026-05-01T17:09:51.999Z</time></trkpt><trkpt lat="44.461310755620055" lon="9.501184492448111"><ele>1204.0</ele><time>2026-05-01T17:09:52.999Z</time></trkpt><trkpt lat="44.46138020569144" lon="9.501252450598042"><ele>1204.0</ele><time>2026-05-01T17:09:53.999Z</time></trkpt><trkpt lat="44.46144699774831" lon="9.501311899724781"><ele>1204.0</ele><time>2026-05-01T17:09:54.999Z</time></trkpt><trkpt lat="44.46150513735" lon="9.50135972440563"><ele>1204.0</ele><time>2026-05-01T17:09:55.999Z</time></trkpt><trkpt lat="44.46158317115747" lon="9.501420835902456"><ele>1201.8333333333333</ele><time>2026-05-01T17:09:56.999Z</time></trkpt><trkpt lat="44.46165544905161" lon="9.5014803638616"><ele>1199.6666666666665</ele><time>2026-05-01T17:09:57.999Z</time></trkpt><trkpt lat="44.46172115851823" lon="9.501547229397769"><ele>1197.5</ele><time>2026-05-01T17:09:58.999Z</time></trkpt><trkpt lat="44.461779773732786" lon="9.501617989902986"><ele>1195.3333333333333</ele><time>2026-05-01T17:09:59.999Z</time></trkpt><trkpt lat="44.461835281563566" lon="9.501693273541308"><ele>1193.1666666666667</ele><time>2026-05-01T17:10:00.999Z</time></trkpt><trkpt lat="44.461888929657945" lon="9.501770418778458"><ele>1191.0</ele><time>2026-05-01T17:10:01.999Z</time></trkpt><trkpt lat="44.46193495370676" lon="9.501852002731315"><ele>1191.0</ele><time>2026-05-01T17:10:02.999Z</time></trkpt><trkpt lat="44.461969946864905" lon="9.501939004045147"><ele>1191.0</ele><time>2026-05-01T17:10:03.999Z</time></trkpt><trkpt lat="44.46199734917858" lon="9.502038942243935"><ele>1191.0</ele><time>2026-05-01T17:10:04.999Z</time></trkpt><trkpt lat="44.46202288652415" lon="9.50212532551666"><ele>1191.0</ele><time>2026-05-01T17:10:05.999Z</time></trkpt><trkpt lat="44.4620590473748" lon="9.50220276964689"><ele>1191.0</ele><time>2026-05-01T17:10:06.999Z</time></trkpt><trkpt lat="44.462154126162375" lon="9.502240641079196"><ele>1191.0</ele><time>2026-05-01T17:10:07.999Z</time></trkpt><trkpt lat="44.46220486465565" lon="9.50231388307794"><ele>1188.1666666666667</ele><time>2026-05-01T17:10:08.999Z</time></trkpt><trkpt lat="44.46227664653946" lon="9.502395042746688"><ele>1185.3333333333333</ele><time>2026-05-01T17:10:09.999Z</time></trkpt><trkpt lat="44.462331496848904" lon="9.502465929011588"><ele>1182.5</ele><time>2026-05-01T17:10:10.999Z</time></trkpt><trkpt lat="44.46237640196456" lon="9.502538818401744"><ele>1179.6666666666665</ele><time>2026-05-01T17:10:11.999Z</time></trkpt><trkpt lat="44.4624350803804" lon="9.502699532863765"><ele>1176.8333333333333</ele><time>2026-05-01T17:10:13.999Z</time></trkpt><trkpt lat="44.46247134897131" lon="9.502777920092685"><ele>1174.0</ele><time>2026-05-01T17:10:14.999Z</time></trkpt><trkpt lat="44.46250599306366" lon="9.502852796416178"><ele>1174.0</ele><time>2026-05-01T17:10:15.999Z</time></trkpt><trkpt lat="44.46257837019439" lon="9.502890251703104"><ele>1174.0</ele><time>2026-05-01T17:10:16.999Z</time></trkpt><trkpt lat="44.462667764005204" lon="9.50288980629784"><ele>1174.0</ele><time>2026-05-01T17:10:17.999Z</time></trkpt><trkpt lat="44.46274062971112" lon="9.502898565220642"><ele>1174.0</ele><time>2026-05-01T17:10:18.999Z</time></trkpt><trkpt lat="44.46280448019701" lon="9.502896134159116"><ele>1174.0</ele><time>2026-05-01T17:10:19.999Z</time></trkpt><trkpt lat="44.46291576866756" lon="9.50288328308465"><ele>1174.0</ele><time>2026-05-01T17:10:21.999Z</time></trkpt><trkpt lat="44.4629373171627" lon="9.502791277505963"><ele>1170.7142857142858</ele><time>2026-05-01T17:10:22.999Z</time></trkpt><trkpt lat="44.462990649590516" lon="9.502734781874826"><ele>1167.4285714285716</ele><time>2026-05-01T17:10:23.999Z</time></trkpt><trkpt lat="44.46303343744611" lon="9.502666768958218"><ele>1164.142857142857</ele><time>2026-05-01T17:10:24.999Z</time></trkpt><trkpt lat="44.463081805097524" lon="9.502604168864943"><ele>1160.857142857143</ele><time>2026-05-01T17:10:25.999Z</time></trkpt><trkpt lat="44.46315350444669" lon="9.502567548791504"><ele>1157.5714285714284</ele><time>2026-05-01T17:10:27.999Z</time></trkpt><trkpt lat="44.46319764554997" lon="9.502638805742698"><ele>1154.2857142857142</ele><time>2026-05-01T17:10:29.999Z</time></trkpt><trkpt lat="44.46319255942679" lon="9.502735393972447"><ele>1151.0</ele><time>2026-05-01T17:10:31.999Z</time></trkpt><trkpt lat="44.463191793771365" lon="9.502888163297003"><ele>1150.9999999999998</ele><time>2026-05-01T17:10:33.999Z</time></trkpt><trkpt lat="44.46318860005589" lon="9.502979944393187"><ele>1151.0</ele><time>2026-05-01T17:10:34.999Z</time></trkpt><trkpt lat="44.46321372511553" lon="9.503072777115884"><ele>1151.0</ele><time>2026-05-01T17:10:35.999Z</time></trkpt><trkpt lat="44.46326025580645" lon="9.503148637299466"><ele>1151.0</ele><time>2026-05-01T17:10:36.999Z</time></trkpt><trkpt lat="44.46334448939682" lon="9.503165932598241"><ele>1151.0</ele><time>2026-05-01T17:10:37.999Z</time></trkpt><trkpt lat="44.46341523222661" lon="9.503107760098954"><ele>1150.9999999999998</ele><time>2026-05-01T17:10:38.999Z</time></trkpt><trkpt lat="44.46344876792827" lon="9.503019723229839"><ele>1151.0</ele><time>2026-05-01T17:10:39.999Z</time></trkpt><trkpt lat="44.4635378979643" lon="9.502893853475948"><ele>1151.0</ele><time>2026-05-01T17:10:41.999Z</time></trkpt><trkpt lat="44.463606383186345" lon="9.50285017537731"><ele>1151.0</ele><time>2026-05-01T17:10:42.999Z</time></trkpt><trkpt lat="44.46370015441134" lon="9.502865044116746"><ele>1151.0</ele><time>2026-05-01T17:10:43.999Z</time></trkpt><trkpt lat="44.46378317799682" lon="9.502839315903849"><ele>1151.0</ele><time>2026-05-01T17:10:44.999Z</time></trkpt><trkpt lat="44.46386394735065" lon="9.502854399757025"><ele>1151.0</ele><time>2026-05-01T17:10:45.999Z</time></trkpt><trkpt lat="44.463952791043404" lon="9.502857207275893"><ele>1151.0</ele><time>2026-05-01T17:10:46.999Z</time></trkpt><trkpt lat="44.464048660664545" lon="9.502871141426578"><ele>1150.6666666666667</ele><time>2026-05-01T17:10:48Z</time></trkpt><trkpt lat="44.46413745033904" lon="9.502879605804667"><ele>1150.3333333333335</ele><time>2026-05-01T17:10:49Z</time></trkpt><trkpt lat="44.464226694377984" lon="9.502866311941812"><ele>1150.0</ele><time>2026-05-01T17:10:50Z</time></trkpt><trkpt lat="44.46431003852224" lon="9.502829074407613"><ele>1149.6666666666667</ele><time>2026-05-01T17:10:51Z</time></trkpt><trkpt lat="44.46437659120985" lon="9.502765543764719"><ele>1149.3333333333333</ele><time>2026-05-01T17:10:52Z</time></trkpt><trkpt lat="44.46444423870377" lon="9.502667830044343"><ele>1149.0</ele><time>2026-05-01T17:10:53Z</time></trkpt><trkpt lat="44.46453634460767" lon="9.502580399421209"><ele>1152.8</ele><time>2026-05-01T17:10:54Z</time></trkpt><trkpt lat="44.4646144576959" lon="9.502472459276898"><ele>1156.6000000000001</ele><time>2026-05-01T17:10:55Z</time></trkpt><trkpt lat="44.46467407325662" lon="9.502352542336967"><ele>1160.4</ele><time>2026-05-01T17:10:56Z</time></trkpt><trkpt lat="44.464746145472446" lon="9.502266031252084"><ele>1164.2</ele><time>2026-05-01T17:10:56.999Z</time></trkpt><trkpt lat="44.464815046012404" lon="9.502175883686586"><ele>1168.0</ele><time>2026-05-01T17:10:57.999Z</time></trkpt><trkpt lat="44.46490043865177" lon="9.502129310378919"><ele>1168.0</ele><time>2026-05-01T17:10:58.999Z</time></trkpt><trkpt lat="44.46500291856353" lon="9.502180925065192"><ele>1168.0</ele><time>2026-05-01T17:10:59.999Z</time></trkpt><trkpt lat="44.46509187288322" lon="9.502160996109117"><ele>1168.0</ele><time>2026-05-01T17:11:00.999Z</time></trkpt><trkpt lat="44.46515985303551" lon="9.502122942710898"><ele>1168.0</ele><time>2026-05-01T17:11:01.999Z</time></trkpt><trkpt lat="44.46520859844932" lon="9.50205380111087"><ele>1168.0</ele><time>2026-05-01T17:11:02.999Z</time></trkpt><trkpt lat="44.465188705634304" lon="9.501911335392096"><ele>1168.0</ele><time>2026-05-01T17:11:03.999Z</time></trkpt><trkpt lat="44.46517758967728" lon="9.501804749864027"><ele>1164.6666666666665</ele><time>2026-05-01T17:11:04.999Z</time></trkpt><trkpt lat="44.465114704139445" lon="9.50170378147692"><ele>1161.3333333333333</ele><time>2026-05-01T17:11:05.999Z</time></trkpt><trkpt lat="44.465101634037346" lon="9.501569904193909"><ele>1158.0</ele><time>2026-05-01T17:11:06.999Z</time></trkpt><trkpt lat="44.46513424603239" lon="9.501465401832895"><ele>1154.6666666666667</ele><time>2026-05-01T17:11:07.999Z</time></trkpt><trkpt lat="44.46514483306107" lon="9.501346600712205"><ele>1151.3333333333335</ele><time>2026-05-01T17:11:08.999Z</time></trkpt><trkpt lat="44.465147267619976" lon="9.501240887193125"><ele>1148.0</ele><time>2026-05-01T17:11:09.999Z</time></trkpt><trkpt lat="44.46512438437531" lon="9.501123233942119"><ele>1146.142857142857</ele><time>2026-05-01T17:11:10.999Z</time></trkpt><trkpt lat="44.46508554354347" lon="9.501034062958084"><ele>1144.2857142857142</ele><time>2026-05-01T17:11:11.999Z</time></trkpt><trkpt lat="44.46505877685338" lon="9.500946443031006"><ele>1142.4285714285716</ele><time>2026-05-01T17:11:12.999Z</time></trkpt><trkpt lat="44.4650292178731" lon="9.500849682874387"><ele>1140.5714285714284</ele><time>2026-05-01T17:11:13.999Z</time></trkpt><trkpt lat="44.46501772270988" lon="9.500755806037958"><ele>1138.7142857142858</ele><time>2026-05-01T17:11:14.999Z</time></trkpt><trkpt lat="44.46503990067674" lon="9.500663806434877"><ele>1136.857142857143</ele><time>2026-05-01T17:11:15.999Z</time></trkpt><trkpt lat="44.46506731473864" lon="9.500571330762723"><ele>1135.0</ele><time>2026-05-01T17:11:16.999Z</time></trkpt><trkpt lat="44.46510120148481" lon="9.500487023269335"><ele>1135.5</ele><time>2026-05-01T17:11:17.999Z</time></trkpt><trkpt lat="44.46514030203399" lon="9.500399351855691"><ele>1136.0</ele><time>2026-05-01T17:11:18.999Z</time></trkpt><trkpt lat="44.4652239519306" lon="9.500277608180097"><ele>1136.5</ele><time>2026-05-01T17:11:20.999Z</time></trkpt><trkpt lat="44.46528568307052" lon="9.500251925765493"><ele>1137.0</ele><time>2026-05-01T17:11:21.999Z</time></trkpt><trkpt lat="44.465350250260364" lon="9.50023014680725"><ele>1137.5</ele><time>2026-05-01T17:11:22.999Z</time></trkpt><trkpt lat="44.4654094033251" lon="9.50019615083823"><ele>1138.0</ele><time>2026-05-01T17:11:23.999Z</time></trkpt><trkpt lat="44.46547161322139" lon="9.500146529384793"><ele>1138.0</ele><time>2026-05-01T17:11:24.999Z</time></trkpt><trkpt lat="44.46551209121841" lon="9.500074132518028"><ele>1138.0</ele><time>2026-05-01T17:11:25.999Z</time></trkpt><trkpt lat="44.46556136514778" lon="9.500002656203055"><ele>1138.0</ele><time>2026-05-01T17:11:26.999Z</time></trkpt><trkpt lat="44.46558823826518" lon="9.499919088068165"><ele>1138.0</ele><time>2026-05-01T17:11:27.999Z</time></trkpt><trkpt lat="44.46561014042247" lon="9.499829765457077"><ele>1138.0</ele><time>2026-05-01T17:11:28.999Z</time></trkpt><trkpt lat="44.465661723241915" lon="9.499697295347888"><ele>1138.0</ele><time>2026-05-01T17:11:30.999Z</time></trkpt><trkpt lat="44.46574692481479" lon="9.499613971440468"><ele>1138.0000000000002</ele><time>2026-05-01T17:11:32.999Z</time></trkpt><trkpt lat="44.465807661585615" lon="9.499589921148791"><ele>1138.0</ele><time>2026-05-01T17:11:33.999Z</time></trkpt><trkpt lat="44.465876061476436" lon="9.49956758559266"><ele>1138.0</ele><time>2026-05-01T17:11:34.999Z</time></trkpt><trkpt lat="44.46595161645788" lon="9.499542622302004"><ele>1138.0</ele><time>2026-05-01T17:11:35.999Z</time></trkpt><trkpt lat="44.46602217800616" lon="9.499516377182216"><ele>1138.0</ele><time>2026-05-01T17:11:36.999Z</time></trkpt><trkpt lat="44.466086311573555" lon="9.499487898974232"><ele>1138.0000000000002</ele><time>2026-05-01T17:11:37.999Z</time></trkpt><trkpt lat="44.46614976442651" lon="9.499452596105586"><ele>1138.0</ele><time>2026-05-01T17:11:38.999Z</time></trkpt><trkpt lat="44.46623738644603" lon="9.499349407324292"><ele>1134.6666666666665</ele><time>2026-05-01T17:11:40.999Z</time></trkpt><trkpt lat="44.466290489310374" lon="9.499278009082285"><ele>1131.3333333333333</ele><time>2026-05-01T17:11:41.999Z</time></trkpt><trkpt lat="44.46634928371369" lon="9.499227195310379"><ele>1128.0</ele><time>2026-05-01T17:11:42.999Z</time></trkpt><trkpt lat="44.46642118668726" lon="9.499162966999627"><ele>1124.6666666666667</ele><time>2026-05-01T17:11:43.999Z</time></trkpt><trkpt lat="44.46649061619276" lon="9.499091187316116"><ele>1121.3333333333335</ele><time>2026-05-01T17:11:44.999Z</time></trkpt><trkpt lat="44.46655972148315" lon="9.499000622138006"><ele>1118.0</ele><time>2026-05-01T17:11:45.999Z</time></trkpt><trkpt lat="44.46662697405098" lon="9.498918581943327"><ele>1118.0</ele><time>2026-05-01T17:11:46.999Z</time></trkpt><trkpt lat="44.466677887525464" lon="9.49885590589317"><ele>1118.0</ele><time>2026-05-01T17:11:47.999Z</time></trkpt><trkpt lat="44.466724567965514" lon="9.498793833522111"><ele>1118.0</ele><time>2026-05-01T17:11:48.999Z</time></trkpt><trkpt lat="44.46678361930262" lon="9.498702403063966"><ele>1118.0</ele><time>2026-05-01T17:11:50.999Z</time></trkpt><trkpt lat="44.46683435463236" lon="9.498600260654309"><ele>1118.0</ele><time>2026-05-01T17:11:54.999Z</time></trkpt><trkpt lat="44.46680670082801" lon="9.498490461783218"><ele>1118.0</ele><time>2026-05-01T17:11:56.999Z</time></trkpt><trkpt lat="44.466779441195726" lon="9.498380280183207"><ele>1118.1666666666667</ele><time>2026-05-01T17:11:59.999Z</time></trkpt><trkpt lat="44.46682006623166" lon="9.49824568382777"><ele>1118.3333333333335</ele><time>2026-05-01T17:12:25Z</time></trkpt><trkpt lat="44.46685126596496" lon="9.498128674220718"><ele>1118.5</ele><time>2026-05-01T17:12:27Z</time></trkpt><trkpt lat="44.46685133861709" lon="9.498003077143158"><ele>1118.6666666666667</ele><time>2026-05-01T17:12:29Z</time></trkpt><trkpt lat="44.466838424992346" lon="9.497907627772074"><ele>1118.8333333333333</ele><time>2026-05-01T17:12:30Z</time></trkpt><trkpt lat="44.46681805851512" lon="9.497811082986733"><ele>1119.0</ele><time>2026-05-01T17:12:31Z</time></trkpt><trkpt lat="44.46676802711048" lon="9.497727871945164"><ele>1119.0</ele><time>2026-05-01T17:12:32Z</time></trkpt><trkpt lat="44.466676869404516" lon="9.497712680402389"><ele>1119.0</ele><time>2026-05-01T17:12:33Z</time></trkpt><trkpt lat="44.46657093248742" lon="9.497795439239857"><ele>1119.0</ele><time>2026-05-01T17:12:34Z</time></trkpt><trkpt lat="44.466480896875254" lon="9.497840633660145"><ele>1119.0</ele><time>2026-05-01T17:12:35Z</time></trkpt><trkpt lat="44.466375392753854" lon="9.497905496767215"><ele>1119.0</ele><time>2026-05-01T17:12:36Z</time></trkpt><trkpt lat="44.46627199454349" lon="9.497928265941011"><ele>1115.3333333333333</ele><time>2026-05-01T17:12:37Z</time></trkpt><trkpt lat="44.46618258720158" lon="9.497924373890273"><ele>1111.6666666666667</ele><time>2026-05-01T17:12:38Z</time></trkpt><trkpt lat="44.466108470420515" lon="9.497904321021043"><ele>1108.0</ele><time>2026-05-01T17:12:39Z</time></trkpt><trkpt lat="44.466042961520095" lon="9.49787445017483"><ele>1104.3333333333335</ele><time>2026-05-01T17:12:40Z</time></trkpt><trkpt lat="44.465973509310516" lon="9.497784594964521"><ele>1100.6666666666667</ele><time>2026-05-01T17:12:41Z</time></trkpt><trkpt lat="44.465889113276596" lon="9.497667483977974"><ele>1097.0</ele><time>2026-05-01T17:12:42Z</time></trkpt><trkpt lat="44.465754517472604" lon="9.497564541412325"><ele>1097.0</ele><time>2026-05-01T17:12:43Z</time></trkpt><trkpt lat="44.46564321457116" lon="9.497466458814516"><ele>1097.0</ele><time>2026-05-01T17:12:44Z</time></trkpt><trkpt lat="44.46555213789477" lon="9.497396217583681"><ele>1097.0</ele><time>2026-05-01T17:12:45Z</time></trkpt><trkpt lat="44.46547047322134" lon="9.49733808636385"><ele>1097.0</ele><time>2026-05-01T17:12:46Z</time></trkpt><trkpt lat="44.465425229588284" lon="9.497275638995793"><ele>1097.0</ele><time>2026-05-01T17:12:47Z</time></trkpt><trkpt lat="44.46544630846037" lon="9.49715508612841"><ele>1098.2</ele><time>2026-05-01T17:12:48Z</time></trkpt><trkpt lat="44.46543525731325" lon="9.49702601178199"><ele>1099.4</ele><time>2026-05-01T17:12:49Z</time></trkpt><trkpt lat="44.465421722341524" lon="9.496866636233813"><ele>1100.6</ele><time>2026-05-01T17:12:50Z</time></trkpt><trkpt lat="44.465429683371916" lon="9.49674775626697"><ele>1101.8</ele><time>2026-05-01T17:12:51Z</time></trkpt><trkpt lat="44.465440043245266" lon="9.496624679126617"><ele>1103.0</ele><time>2026-05-01T17:12:52Z</time></trkpt><trkpt lat="44.46545687746928" lon="9.4965110901094"><ele>1103.0</ele><time>2026-05-01T17:12:53.001Z</time></trkpt><trkpt lat="44.46547160815377" lon="9.496383543429909"><ele>1103.0</ele><time>2026-05-01T17:12:54.001Z</time></trkpt><trkpt lat="44.465479749870845" lon="9.496285266035029"><ele>1103.0</ele><time>2026-05-01T17:12:55.001Z</time></trkpt><trkpt lat="44.46545610219318" lon="9.496128851024055"><ele>1103.0</ele><time>2026-05-01T17:12:57.001Z</time></trkpt><trkpt lat="44.465400978769864" lon="9.496035228644748"><ele>1103.0</ele><time>2026-05-01T17:12:59.001Z</time></trkpt><trkpt lat="44.465304689792944" lon="9.49601022909532"><ele>1100.6</ele><time>2026-05-01T17:13:01.001Z</time></trkpt><trkpt lat="44.465186408692965" lon="9.49601495149514"><ele>1098.1999999999998</ele><time>2026-05-01T17:13:03.001Z</time></trkpt><trkpt lat="44.465107874422614" lon="9.495932660915058"><ele>1095.8</ele><time>2026-05-01T17:13:04.001Z</time></trkpt><trkpt lat="44.465019925416755" lon="9.495933833993853"><ele>1093.3999999999999</ele><time>2026-05-01T17:13:05.001Z</time></trkpt><trkpt lat="44.46494484288188" lon="9.495968339238647"><ele>1091.0</ele><time>2026-05-01T17:13:06.001Z</time></trkpt><trkpt lat="44.46486314659329" lon="9.496038669384024"><ele>1091.0</ele><time>2026-05-01T17:13:07.001Z</time></trkpt><trkpt lat="44.46476958534008" lon="9.496100385999213"><ele>1091.0</ele><time>2026-05-01T17:13:08.001Z</time></trkpt><trkpt lat="44.464675197034865" lon="9.496150627809325"><ele>1091.0</ele><time>2026-05-01T17:13:09.001Z</time></trkpt><trkpt lat="44.464594050006816" lon="9.496174270499964"><ele>1091.0</ele><time>2026-05-01T17:13:10.001Z</time></trkpt><trkpt lat="44.464494117184664" lon="9.496178170535087"><ele>1091.0</ele><time>2026-05-01T17:13:11.001Z</time></trkpt><trkpt lat="44.46439624727846" lon="9.49619993319148"><ele>1090.5</ele><time>2026-05-01T17:13:12.001Z</time></trkpt><trkpt lat="44.464283150500556" lon="9.496212018488652"><ele>1090.0</ele><time>2026-05-01T17:13:13.001Z</time></trkpt><trkpt lat="44.46418793717783" lon="9.496222192797045"><ele>1089.5</ele><time>2026-05-01T17:13:14.001Z</time></trkpt><trkpt lat="44.46409988129906" lon="9.496228948878679"><ele>1089.0</ele><time>2026-05-01T17:13:15Z</time></trkpt><trkpt lat="44.46402125201448" lon="9.496227795304257"><ele>1088.5</ele><time>2026-05-01T17:13:16Z</time></trkpt><trkpt lat="44.46395217262149" lon="9.496213301868714"><ele>1088.0</ele><time>2026-05-01T17:13:17Z</time></trkpt><trkpt lat="44.46386661946117" lon="9.496215003017722"><ele>1082.4</ele><time>2026-05-01T17:13:18Z</time></trkpt><trkpt lat="44.46379168866278" lon="9.496258159183439"><ele>1076.8</ele><time>2026-05-01T17:13:19Z</time></trkpt><trkpt lat="44.4637260611523" lon="9.496287588905103"><ele>1071.2</ele><time>2026-05-01T17:13:20Z</time></trkpt><trkpt lat="44.46365118607568" lon="9.49631597495287"><ele>1065.6</ele><time>2026-05-01T17:13:21Z</time></trkpt><trkpt lat="44.46353423232614" lon="9.496331555769398"><ele>1060.0</ele><time>2026-05-01T17:13:23Z</time></trkpt><trkpt lat="44.46341526138598" lon="9.496288856487046"><ele>1063.4</ele><time>2026-05-01T17:13:25Z</time></trkpt><trkpt lat="44.46333728118985" lon="9.496236286431863"><ele>1066.8</ele><time>2026-05-01T17:13:27Z</time></trkpt><trkpt lat="44.46326079877056" lon="9.496163916798247"><ele>1070.2</ele><time>2026-05-01T17:13:29Z</time></trkpt><trkpt lat="44.46316481626528" lon="9.496102927793766"><ele>1073.6</ele><time>2026-05-01T17:13:31Z</time></trkpt><trkpt lat="44.46307866186225" lon="9.496092340209007"><ele>1077.0</ele><time>2026-05-01T17:13:33Z</time></trkpt><trkpt lat="44.46302087357567" lon="9.49619403259316"><ele>1072.8</ele><time>2026-05-01T17:13:35Z</time></trkpt><trkpt lat="44.46309927137196" lon="9.496351568427727"><ele>1068.6</ele><time>2026-05-01T17:13:38Z</time></trkpt><trkpt lat="44.46315435618239" lon="9.496394775793526"><ele>1064.3999999999999</ele><time>2026-05-01T17:13:39Z</time></trkpt><trkpt lat="44.46323238102573" lon="9.496468465204844"><ele>1060.2</ele><time>2026-05-01T17:13:40Z</time></trkpt><trkpt lat="44.463294639039525" lon="9.496526647807265"><ele>1056.0</ele><time>2026-05-01T17:13:41Z</time></trkpt><trkpt lat="44.46337764199651" lon="9.496601274466416"><ele>1056.0</ele><time>2026-05-01T17:13:43Z</time></trkpt><trkpt lat="44.46343571677606" lon="9.496635564134264"><ele>1056.0</ele><time>2026-05-01T17:13:46Z</time></trkpt><trkpt lat="44.46349047795239" lon="9.496740070184508"><ele>1056.0</ele><time>2026-05-01T17:13:51Z</time></trkpt><trkpt lat="44.463506667277876" lon="9.496882168752613"><ele>1056.0</ele><time>2026-05-01T17:13:53Z</time></trkpt><trkpt lat="44.463537063493504" lon="9.497035769799037"><ele>1056.0</ele><time>2026-05-01T17:13:55Z</time></trkpt><trkpt lat="44.463568147258215" lon="9.497196387542694"><ele>1055.0</ele><time>2026-05-01T17:13:57Z</time></trkpt><trkpt lat="44.46360439800486" lon="9.49734147512313"><ele>1054.0</ele><time>2026-05-01T17:13:59Z</time></trkpt><trkpt lat="44.463627929846645" lon="9.49749087261644"><ele>1053.0</ele><time>2026-05-01T17:14:01Z</time></trkpt><trkpt lat="44.46366263657135" lon="9.49763314530453"><ele>1052.0</ele><time>2026-05-01T17:14:03Z</time></trkpt><trkpt lat="44.46369095877443" lon="9.49775693932273"><ele>1051.0</ele><time>2026-05-01T17:14:05Z</time></trkpt><trkpt lat="44.46368038201489" lon="9.497855405690846"><ele>1051.0</ele><time>2026-05-01T17:14:08Z</time></trkpt><trkpt lat="44.46361116252171" lon="9.497922625648135"><ele>1051.0</ele><time>2026-05-01T17:14:10Z</time></trkpt><trkpt lat="44.463533642426256" lon="9.4979147749436"><ele>1051.0</ele><time>2026-05-01T17:14:12Z</time></trkpt><trkpt lat="44.463496879888496" lon="9.497989694233086"><ele>1051.0</ele><time>2026-05-01T17:56:44Z</time></trkpt><trkpt lat="44.46355693898257" lon="9.497961618757325"><ele>1051.0</ele><time>2026-05-01T17:58:47Z</time></trkpt><trkpt lat="44.463497050232945" lon="9.49793037589877"><ele>1051.0</ele><time>2026-05-01T18:01:14Z</time></trkpt><trkpt lat="44.46350249409887" lon="9.498057331625512"><ele>1051.0</ele><time>2026-05-01T18:03:04Z</time></trkpt><trkpt lat="44.46347257709611" lon="9.498141084959212"><ele>1053.2857142857142</ele><time>2026-05-01T18:03:10Z</time></trkpt><trkpt lat="44.46340547000516" lon="9.498180155621618"><ele>1055.5714285714284</ele><time>2026-05-01T18:03:17Z</time></trkpt><trkpt lat="44.46335094956594" lon="9.498240852466017"><ele>1057.8571428571427</ele><time>2026-05-01T18:03:28Z</time></trkpt><trkpt lat="44.463415569086784" lon="9.498224044579013"><ele>1060.142857142857</ele><time>2026-05-01T18:03:43Z</time></trkpt><trkpt lat="44.46347853780664" lon="9.498215985698756"><ele>1062.4285714285713</ele><time>2026-05-01T18:03:50Z</time></trkpt><trkpt lat="44.46344935228638" lon="9.49829713172278"><ele>1064.7142857142856</ele><time>2026-05-01T18:04:12Z</time></trkpt><trkpt lat="44.463409742441044" lon="9.498384217203265"><ele>1067.0</ele><time>2026-05-01T18:04:20Z</time></trkpt><trkpt lat="44.46337285096577" lon="9.498457578519982"><ele>1066.9999999999998</ele><time>2026-05-01T18:04:25Z</time></trkpt><trkpt lat="44.46332724496541" lon="9.498541904710065"><ele>1067.0</ele><time>2026-05-01T18:04:30Z</time></trkpt><trkpt lat="44.463282723355725" lon="9.498605601205558"><ele>1067.0</ele><time>2026-05-01T18:04:37Z</time></trkpt><trkpt lat="44.463273626315896" lon="9.498698530949216"><ele>1067.0</ele><time>2026-05-01T18:04:49Z</time></trkpt><trkpt lat="44.463261999675204" lon="9.498789286843849"><ele>1067.0</ele><time>2026-05-01T18:05:14Z</time></trkpt><trkpt lat="44.463295847739644" lon="9.498705374421398"><ele>1066.9999999999998</ele><time>2026-05-01T18:05:50Z</time></trkpt><trkpt lat="44.463328896770314" lon="9.498619973866093"><ele>1067.0</ele><time>2026-05-01T18:05:56Z</time></trkpt><trkpt lat="44.4633697382505" lon="9.498538543497157"><ele>1066.9999999999998</ele><time>2026-05-01T18:06:02Z</time></trkpt><trkpt lat="44.463396589619606" lon="9.498441008512462"><ele>1067.0</ele><time>2026-05-01T18:06:09Z</time></trkpt><trkpt lat="44.46343410909378" lon="9.498366783856664"><ele>1067.0</ele><time>2026-05-01T18:06:15Z</time></trkpt><trkpt lat="44.463485236773984" lon="9.498299957335263"><ele>1067.0</ele><time>2026-05-01T18:07:27Z</time></trkpt><trkpt lat="44.463414014507315" lon="9.498252652123544"><ele>1067.0</ele><time>2026-05-01T18:07:33Z</time></trkpt><trkpt lat="44.463477508109456" lon="9.498215925844816"><ele>1066.9999999999998</ele><time>2026-05-01T18:12:35Z</time></trkpt><trkpt lat="44.463503686344794" lon="9.49813418320928"><ele>1067.0</ele><time>2026-05-01T18:12:42Z</time></trkpt><trkpt lat="44.463526887725145" lon="9.498049281340025"><ele>1067.0</ele><time>2026-05-01T18:12:49Z</time></trkpt><trkpt lat="44.46347836074293" lon="9.498115222470986"><ele>1067.0</ele><time>2026-05-01T18:14:51Z</time></trkpt><trkpt lat="44.46343215051965" lon="9.498184173667875"><ele>1067.0</ele><time>2026-05-01T18:14:58Z</time></trkpt><trkpt lat="44.46337328658793" lon="9.498239383007713"><ele>1067.0</ele><time>2026-05-01T18:15:03Z</time></trkpt></trkseg></trk></gpx>